<?xml version="1.0" encoding="UTF-8"?>
<gpx version="1.1" creator="https://www.youtrack.es" xsi:schemaLocation="http://www.topografix.com/GPX/1/1 http://www.topografix.com/GPX/1/1/gpx.xsd http://www.garmin.com/xmlschemas/GpxExtensions/v3 http://www.garmin.com/xmlschemas/GpxExtensionsv3.xsd http://www.garmin.com/xmlschemas/TrackPointExtension/v1 http://www.garmin.com/xmlschemas/TrackPointExtensionv1.xsd" xmlns:gpxtpx="http://www.garmin.com/xmlschemas/TrackPointExtension/v1" xmlns:gpxx="http://www.garmin.com/xmlschemas/GpxExtensions/v3" xmlns:xsi="http://www.w3.org/2001/XMLSchema-instance">
  <metadata>
    <author>
      <name>Sergio Martin</name>
      <email id="ser18582" domain="gmail.com"/>
    </author>
    <link href="https://www.youtrack.es">
      <text>YouTrack.es</text>
    </link>
    <time>2026-05-10T21:45:51Z</time>
  </metadata>
  <trk>
    <src>https://www.youtrack.es</src>
    <link href="https://www.youtrack.es/ruta/5510-segovia-pinto">
      <text>YouTrack.es</text>
    </link>
    <trkseg>
      <trkpt lat="40.9479030" lon="-4.1175250">
        <ele>984.0</ele>
        <time>2019-04-28T06:09:17Z</time>
      </trkpt>
      <trkpt lat="40.9479060" lon="-4.1175290">
        <ele>983.8</ele>
        <time>2019-04-28T06:09:18Z</time>
      </trkpt>
      <trkpt lat="40.9479070" lon="-4.1175420">
        <ele>983.8</ele>
        <time>2019-04-28T06:09:19Z</time>
      </trkpt>
      <trkpt lat="40.9479120" lon="-4.1175520">
        <ele>983.8</ele>
        <time>2019-04-28T06:09:20Z</time>
      </trkpt>
      <trkpt lat="40.9479140" lon="-4.1175540">
        <ele>983.8</ele>
        <time>2019-04-28T06:09:21Z</time>
      </trkpt>
      <trkpt lat="40.9478040" lon="-4.1176650">
        <ele>985.4</ele>
        <time>2019-04-28T06:09:41Z</time>
      </trkpt>
      <trkpt lat="40.9477920" lon="-4.1176800">
        <ele>984.6</ele>
        <time>2019-04-28T06:09:42Z</time>
      </trkpt>
      <trkpt lat="40.9477760" lon="-4.1176870">
        <ele>984.4</ele>
        <time>2019-04-28T06:09:43Z</time>
      </trkpt>
      <trkpt lat="40.9477610" lon="-4.1176950">
        <ele>984.4</ele>
        <time>2019-04-28T06:09:44Z</time>
      </trkpt>
      <trkpt lat="40.9477480" lon="-4.1176920">
        <ele>984.4</ele>
        <time>2019-04-28T06:09:45Z</time>
      </trkpt>
      <trkpt lat="40.9477350" lon="-4.1176990">
        <ele>984.4</ele>
        <time>2019-04-28T06:09:46Z</time>
      </trkpt>
      <trkpt lat="40.9477290" lon="-4.1176950">
        <ele>984.4</ele>
        <time>2019-04-28T06:09:47Z</time>
      </trkpt>
      <trkpt lat="40.9477260" lon="-4.1176890">
        <ele>984.4</ele>
        <time>2019-04-28T06:09:48Z</time>
      </trkpt>
      <trkpt lat="40.9477260" lon="-4.1176760">
        <ele>984.4</ele>
        <time>2019-04-28T06:09:49Z</time>
      </trkpt>
      <trkpt lat="40.9477310" lon="-4.1176560">
        <ele>984.6</ele>
        <time>2019-04-28T06:09:50Z</time>
      </trkpt>
      <trkpt lat="40.9477330" lon="-4.1176320">
        <ele>984.6</ele>
        <time>2019-04-28T06:09:51Z</time>
      </trkpt>
      <trkpt lat="40.9477210" lon="-4.1176140">
        <ele>984.6</ele>
        <time>2019-04-28T06:09:52Z</time>
      </trkpt>
      <trkpt lat="40.9476970" lon="-4.1176180">
        <ele>984.6</ele>
        <time>2019-04-28T06:09:53Z</time>
      </trkpt>
      <trkpt lat="40.9476840" lon="-4.1176440">
        <ele>984.8</ele>
        <time>2019-04-28T06:09:54Z</time>
      </trkpt>
      <trkpt lat="40.9476650" lon="-4.1176580">
        <ele>984.8</ele>
        <time>2019-04-28T06:09:55Z</time>
      </trkpt>
      <trkpt lat="40.9476550" lon="-4.1176590">
        <ele>984.8</ele>
        <time>2019-04-28T06:09:56Z</time>
      </trkpt>
      <trkpt lat="40.9476410" lon="-4.1176490">
        <ele>984.8</ele>
        <time>2019-04-28T06:09:57Z</time>
      </trkpt>
      <trkpt lat="40.9476270" lon="-4.1176480">
        <ele>985.0</ele>
        <time>2019-04-28T06:09:58Z</time>
      </trkpt>
      <trkpt lat="40.9476210" lon="-4.1176410">
        <ele>985.0</ele>
        <time>2019-04-28T06:09:59Z</time>
      </trkpt>
      <trkpt lat="40.9476180" lon="-4.1176190">
        <ele>985.0</ele>
        <time>2019-04-28T06:10:00Z</time>
      </trkpt>
      <trkpt lat="40.9476250" lon="-4.1176010">
        <ele>985.2</ele>
        <time>2019-04-28T06:10:01Z</time>
      </trkpt>
      <trkpt lat="40.9476350" lon="-4.1175910">
        <ele>985.2</ele>
        <time>2019-04-28T06:10:02Z</time>
      </trkpt>
      <trkpt lat="40.9476490" lon="-4.1175910">
        <ele>985.2</ele>
        <time>2019-04-28T06:10:03Z</time>
      </trkpt>
      <trkpt lat="40.9476560" lon="-4.1175940">
        <ele>985.0</ele>
        <time>2019-04-28T06:10:04Z</time>
      </trkpt>
      <trkpt lat="40.9476500" lon="-4.1175980">
        <ele>984.8</ele>
        <time>2019-04-28T06:10:05Z</time>
      </trkpt>
      <trkpt lat="40.9476440" lon="-4.1176090">
        <ele>984.8</ele>
        <time>2019-04-28T06:10:06Z</time>
      </trkpt>
      <trkpt lat="40.9476340" lon="-4.1176250">
        <ele>984.6</ele>
        <time>2019-04-28T06:10:07Z</time>
      </trkpt>
      <trkpt lat="40.9476330" lon="-4.1176430">
        <ele>984.4</ele>
        <time>2019-04-28T06:10:08Z</time>
      </trkpt>
      <trkpt lat="40.9476240" lon="-4.1176780">
        <ele>984.4</ele>
        <time>2019-04-28T06:10:09Z</time>
      </trkpt>
      <trkpt lat="40.9476410" lon="-4.1176910">
        <ele>984.4</ele>
        <time>2019-04-28T06:10:10Z</time>
      </trkpt>
      <trkpt lat="40.9476650" lon="-4.1177040">
        <ele>984.2</ele>
        <time>2019-04-28T06:10:11Z</time>
      </trkpt>
      <trkpt lat="40.9476950" lon="-4.1177170">
        <ele>984.2</ele>
        <time>2019-04-28T06:10:12Z</time>
      </trkpt>
      <trkpt lat="40.9477250" lon="-4.1177390">
        <ele>984.2</ele>
        <time>2019-04-28T06:10:13Z</time>
      </trkpt>
      <trkpt lat="40.9477470" lon="-4.1177540">
        <ele>984.0</ele>
        <time>2019-04-28T06:10:14Z</time>
      </trkpt>
      <trkpt lat="40.9477680" lon="-4.1177720">
        <ele>984.0</ele>
        <time>2019-04-28T06:10:15Z</time>
      </trkpt>
      <trkpt lat="40.9477770" lon="-4.1177960">
        <ele>983.8</ele>
        <time>2019-04-28T06:10:16Z</time>
      </trkpt>
      <trkpt lat="40.9477700" lon="-4.1178440">
        <ele>983.6</ele>
        <time>2019-04-28T06:10:17Z</time>
      </trkpt>
      <trkpt lat="40.9477650" lon="-4.1178760">
        <ele>983.6</ele>
        <time>2019-04-28T06:10:18Z</time>
      </trkpt>
      <trkpt lat="40.9477580" lon="-4.1179040">
        <ele>983.6</ele>
        <time>2019-04-28T06:10:19Z</time>
      </trkpt>
      <trkpt lat="40.9477450" lon="-4.1179310">
        <ele>983.4</ele>
        <time>2019-04-28T06:10:20Z</time>
      </trkpt>
      <trkpt lat="40.9477270" lon="-4.1179610">
        <ele>983.6</ele>
        <time>2019-04-28T06:10:21Z</time>
      </trkpt>
      <trkpt lat="40.9477070" lon="-4.1179900">
        <ele>983.6</ele>
        <time>2019-04-28T06:10:22Z</time>
      </trkpt>
      <trkpt lat="40.9476880" lon="-4.1179930">
        <ele>983.6</ele>
        <time>2019-04-28T06:10:23Z</time>
      </trkpt>
      <trkpt lat="40.9476630" lon="-4.1179990">
        <ele>983.8</ele>
        <time>2019-04-28T06:10:24Z</time>
      </trkpt>
      <trkpt lat="40.9476380" lon="-4.1180010">
        <ele>983.8</ele>
        <time>2019-04-28T06:10:25Z</time>
      </trkpt>
      <trkpt lat="40.9476130" lon="-4.1179920">
        <ele>983.8</ele>
        <time>2019-04-28T06:10:26Z</time>
      </trkpt>
      <trkpt lat="40.9475900" lon="-4.1179880">
        <ele>984.0</ele>
        <time>2019-04-28T06:10:27Z</time>
      </trkpt>
      <trkpt lat="40.9475680" lon="-4.1180010">
        <ele>984.0</ele>
        <time>2019-04-28T06:10:28Z</time>
      </trkpt>
      <trkpt lat="40.9475480" lon="-4.1179990">
        <ele>984.0</ele>
        <time>2019-04-28T06:10:29Z</time>
      </trkpt>
      <trkpt lat="40.9475260" lon="-4.1180030">
        <ele>984.2</ele>
        <time>2019-04-28T06:10:30Z</time>
      </trkpt>
      <trkpt lat="40.9475070" lon="-4.1179990">
        <ele>984.2</ele>
        <time>2019-04-28T06:10:31Z</time>
      </trkpt>
      <trkpt lat="40.9474870" lon="-4.1180030">
        <ele>984.2</ele>
        <time>2019-04-28T06:10:32Z</time>
      </trkpt>
      <trkpt lat="40.9474610" lon="-4.1180030">
        <ele>984.4</ele>
        <time>2019-04-28T06:10:33Z</time>
      </trkpt>
      <trkpt lat="40.9474350" lon="-4.1180120">
        <ele>984.4</ele>
        <time>2019-04-28T06:10:34Z</time>
      </trkpt>
      <trkpt lat="40.9474110" lon="-4.1180200">
        <ele>984.6</ele>
        <time>2019-04-28T06:10:35Z</time>
      </trkpt>
      <trkpt lat="40.9473890" lon="-4.1180340">
        <ele>984.6</ele>
        <time>2019-04-28T06:10:36Z</time>
      </trkpt>
      <trkpt lat="40.9473650" lon="-4.1180350">
        <ele>984.8</ele>
        <time>2019-04-28T06:10:37Z</time>
      </trkpt>
      <trkpt lat="40.9473410" lon="-4.1180240">
        <ele>984.8</ele>
        <time>2019-04-28T06:10:38Z</time>
      </trkpt>
      <trkpt lat="40.9473130" lon="-4.1180170">
        <ele>985.0</ele>
        <time>2019-04-28T06:10:39Z</time>
      </trkpt>
      <trkpt lat="40.9472920" lon="-4.1180010">
        <ele>985.0</ele>
        <time>2019-04-28T06:10:40Z</time>
      </trkpt>
      <trkpt lat="40.9472630" lon="-4.1179770">
        <ele>985.2</ele>
        <time>2019-04-28T06:10:41Z</time>
      </trkpt>
      <trkpt lat="40.9472370" lon="-4.1179780">
        <ele>985.4</ele>
        <time>2019-04-28T06:10:42Z</time>
      </trkpt>
      <trkpt lat="40.9472090" lon="-4.1179530">
        <ele>985.6</ele>
        <time>2019-04-28T06:10:43Z</time>
      </trkpt>
      <trkpt lat="40.9471780" lon="-4.1179430">
        <ele>985.6</ele>
        <time>2019-04-28T06:10:44Z</time>
      </trkpt>
      <trkpt lat="40.9471430" lon="-4.1179280">
        <ele>986.0</ele>
        <time>2019-04-28T06:10:45Z</time>
      </trkpt>
      <trkpt lat="40.9471120" lon="-4.1179160">
        <ele>986.2</ele>
        <time>2019-04-28T06:10:46Z</time>
      </trkpt>
      <trkpt lat="40.9470840" lon="-4.1178910">
        <ele>986.4</ele>
        <time>2019-04-28T06:10:47Z</time>
      </trkpt>
      <trkpt lat="40.9470560" lon="-4.1178850">
        <ele>986.6</ele>
        <time>2019-04-28T06:10:48Z</time>
      </trkpt>
      <trkpt lat="40.9470260" lon="-4.1179070">
        <ele>986.8</ele>
        <time>2019-04-28T06:10:49Z</time>
      </trkpt>
      <trkpt lat="40.9470020" lon="-4.1179240">
        <ele>987.0</ele>
        <time>2019-04-28T06:10:50Z</time>
      </trkpt>
      <trkpt lat="40.9469760" lon="-4.1179350">
        <ele>987.2</ele>
        <time>2019-04-28T06:10:51Z</time>
      </trkpt>
      <trkpt lat="40.9469500" lon="-4.1179600">
        <ele>987.4</ele>
        <time>2019-04-28T06:10:52Z</time>
      </trkpt>
      <trkpt lat="40.9469250" lon="-4.1179600">
        <ele>987.8</ele>
        <time>2019-04-28T06:10:53Z</time>
      </trkpt>
      <trkpt lat="40.9468960" lon="-4.1179420">
        <ele>988.0</ele>
        <time>2019-04-28T06:10:54Z</time>
      </trkpt>
      <trkpt lat="40.9468650" lon="-4.1179430">
        <ele>988.2</ele>
        <time>2019-04-28T06:10:55Z</time>
      </trkpt>
      <trkpt lat="40.9468380" lon="-4.1179520">
        <ele>988.6</ele>
        <time>2019-04-28T06:10:56Z</time>
      </trkpt>
      <trkpt lat="40.9468120" lon="-4.1179490">
        <ele>988.8</ele>
        <time>2019-04-28T06:10:57Z</time>
      </trkpt>
      <trkpt lat="40.9467890" lon="-4.1179370">
        <ele>989.0</ele>
        <time>2019-04-28T06:10:58Z</time>
      </trkpt>
      <trkpt lat="40.9467660" lon="-4.1179140">
        <ele>989.4</ele>
        <time>2019-04-28T06:10:59Z</time>
      </trkpt>
      <trkpt lat="40.9467460" lon="-4.1179000">
        <ele>989.6</ele>
        <time>2019-04-28T06:11:00Z</time>
      </trkpt>
      <trkpt lat="40.9467110" lon="-4.1179110">
        <ele>989.8</ele>
        <time>2019-04-28T06:11:01Z</time>
      </trkpt>
      <trkpt lat="40.9466910" lon="-4.1179090">
        <ele>990.0</ele>
        <time>2019-04-28T06:11:02Z</time>
      </trkpt>
      <trkpt lat="40.9466680" lon="-4.1179130">
        <ele>990.4</ele>
        <time>2019-04-28T06:11:03Z</time>
      </trkpt>
      <trkpt lat="40.9466450" lon="-4.1179090">
        <ele>990.6</ele>
        <time>2019-04-28T06:11:04Z</time>
      </trkpt>
      <trkpt lat="40.9466080" lon="-4.1178970">
        <ele>990.8</ele>
        <time>2019-04-28T06:11:05Z</time>
      </trkpt>
      <trkpt lat="40.9465750" lon="-4.1179030">
        <ele>991.0</ele>
        <time>2019-04-28T06:11:06Z</time>
      </trkpt>
      <trkpt lat="40.9465480" lon="-4.1179130">
        <ele>991.2</ele>
        <time>2019-04-28T06:11:07Z</time>
      </trkpt>
      <trkpt lat="40.9465140" lon="-4.1179040">
        <ele>991.4</ele>
        <time>2019-04-28T06:11:08Z</time>
      </trkpt>
      <trkpt lat="40.9464910" lon="-4.1179070">
        <ele>991.6</ele>
        <time>2019-04-28T06:11:09Z</time>
      </trkpt>
      <trkpt lat="40.9464710" lon="-4.1178830">
        <ele>991.6</ele>
        <time>2019-04-28T06:11:10Z</time>
      </trkpt>
      <trkpt lat="40.9464510" lon="-4.1178770">
        <ele>991.8</ele>
        <time>2019-04-28T06:11:11Z</time>
      </trkpt>
      <trkpt lat="40.9464280" lon="-4.1178680">
        <ele>992.0</ele>
        <time>2019-04-28T06:11:12Z</time>
      </trkpt>
      <trkpt lat="40.9464060" lon="-4.1178660">
        <ele>992.0</ele>
        <time>2019-04-28T06:11:13Z</time>
      </trkpt>
      <trkpt lat="40.9463810" lon="-4.1178600">
        <ele>992.2</ele>
        <time>2019-04-28T06:11:14Z</time>
      </trkpt>
      <trkpt lat="40.9463610" lon="-4.1178570">
        <ele>992.4</ele>
        <time>2019-04-28T06:11:15Z</time>
      </trkpt>
      <trkpt lat="40.9463370" lon="-4.1178550">
        <ele>992.6</ele>
        <time>2019-04-28T06:11:16Z</time>
      </trkpt>
      <trkpt lat="40.9463180" lon="-4.1178510">
        <ele>992.6</ele>
        <time>2019-04-28T06:11:17Z</time>
      </trkpt>
      <trkpt lat="40.9462930" lon="-4.1178540">
        <ele>992.8</ele>
        <time>2019-04-28T06:11:18Z</time>
      </trkpt>
      <trkpt lat="40.9462710" lon="-4.1178420">
        <ele>993.0</ele>
        <time>2019-04-28T06:11:19Z</time>
      </trkpt>
      <trkpt lat="40.9462490" lon="-4.1178290">
        <ele>993.0</ele>
        <time>2019-04-28T06:11:20Z</time>
      </trkpt>
      <trkpt lat="40.9462290" lon="-4.1178290">
        <ele>993.2</ele>
        <time>2019-04-28T06:11:21Z</time>
      </trkpt>
      <trkpt lat="40.9462120" lon="-4.1178240">
        <ele>993.2</ele>
        <time>2019-04-28T06:11:22Z</time>
      </trkpt>
      <trkpt lat="40.9461960" lon="-4.1178190">
        <ele>993.2</ele>
        <time>2019-04-28T06:11:23Z</time>
      </trkpt>
      <trkpt lat="40.9461830" lon="-4.1178200">
        <ele>993.4</ele>
        <time>2019-04-28T06:11:24Z</time>
      </trkpt>
      <trkpt lat="40.9461730" lon="-4.1178170">
        <ele>993.4</ele>
        <time>2019-04-28T06:11:25Z</time>
      </trkpt>
      <trkpt lat="40.9461610" lon="-4.1178180">
        <ele>993.4</ele>
        <time>2019-04-28T06:11:26Z</time>
      </trkpt>
      <trkpt lat="40.9461480" lon="-4.1178060">
        <ele>993.4</ele>
        <time>2019-04-28T06:11:27Z</time>
      </trkpt>
      <trkpt lat="40.9461350" lon="-4.1178030">
        <ele>993.4</ele>
        <time>2019-04-28T06:11:28Z</time>
      </trkpt>
      <trkpt lat="40.9461200" lon="-4.1177780">
        <ele>993.4</ele>
        <time>2019-04-28T06:11:29Z</time>
      </trkpt>
      <trkpt lat="40.9460980" lon="-4.1177570">
        <ele>993.4</ele>
        <time>2019-04-28T06:11:30Z</time>
      </trkpt>
      <trkpt lat="40.9460790" lon="-4.1177420">
        <ele>993.4</ele>
        <time>2019-04-28T06:11:31Z</time>
      </trkpt>
      <trkpt lat="40.9460610" lon="-4.1177340">
        <ele>993.4</ele>
        <time>2019-04-28T06:11:32Z</time>
      </trkpt>
      <trkpt lat="40.9460390" lon="-4.1177130">
        <ele>993.4</ele>
        <time>2019-04-28T06:11:33Z</time>
      </trkpt>
      <trkpt lat="40.9460110" lon="-4.1176920">
        <ele>993.2</ele>
        <time>2019-04-28T06:11:34Z</time>
      </trkpt>
      <trkpt lat="40.9459860" lon="-4.1176830">
        <ele>993.2</ele>
        <time>2019-04-28T06:11:35Z</time>
      </trkpt>
      <trkpt lat="40.9459600" lon="-4.1176590">
        <ele>993.2</ele>
        <time>2019-04-28T06:11:36Z</time>
      </trkpt>
      <trkpt lat="40.9459360" lon="-4.1176240">
        <ele>993.0</ele>
        <time>2019-04-28T06:11:37Z</time>
      </trkpt>
      <trkpt lat="40.9459130" lon="-4.1175860">
        <ele>992.8</ele>
        <time>2019-04-28T06:11:38Z</time>
      </trkpt>
      <trkpt lat="40.9458880" lon="-4.1175520">
        <ele>992.6</ele>
        <time>2019-04-28T06:11:39Z</time>
      </trkpt>
      <trkpt lat="40.9458650" lon="-4.1175060">
        <ele>992.4</ele>
        <time>2019-04-28T06:11:40Z</time>
      </trkpt>
      <trkpt lat="40.9458410" lon="-4.1174620">
        <ele>992.2</ele>
        <time>2019-04-28T06:11:41Z</time>
      </trkpt>
      <trkpt lat="40.9458180" lon="-4.1174160">
        <ele>992.0</ele>
        <time>2019-04-28T06:11:42Z</time>
      </trkpt>
      <trkpt lat="40.9457860" lon="-4.1173710">
        <ele>991.8</ele>
        <time>2019-04-28T06:11:43Z</time>
      </trkpt>
      <trkpt lat="40.9457280" lon="-4.1173510">
        <ele>991.4</ele>
        <time>2019-04-28T06:11:44Z</time>
      </trkpt>
      <trkpt lat="40.9456900" lon="-4.1172770">
        <ele>991.2</ele>
        <time>2019-04-28T06:11:45Z</time>
      </trkpt>
      <trkpt lat="40.9456450" lon="-4.1172450">
        <ele>990.6</ele>
        <time>2019-04-28T06:11:46Z</time>
      </trkpt>
      <trkpt lat="40.9456010" lon="-4.1172070">
        <ele>990.4</ele>
        <time>2019-04-28T06:11:47Z</time>
      </trkpt>
      <trkpt lat="40.9455850" lon="-4.1171620">
        <ele>989.8</ele>
        <time>2019-04-28T06:11:48Z</time>
      </trkpt>
      <trkpt lat="40.9455810" lon="-4.1171570">
        <ele>989.4</ele>
        <time>2019-04-28T06:11:49Z</time>
      </trkpt>
      <trkpt lat="40.9455500" lon="-4.1171260">
        <ele>989.2</ele>
        <time>2019-04-28T06:11:50Z</time>
      </trkpt>
      <trkpt lat="40.9455270" lon="-4.1170950">
        <ele>989.0</ele>
        <time>2019-04-28T06:11:51Z</time>
      </trkpt>
      <trkpt lat="40.9454970" lon="-4.1170700">
        <ele>988.8</ele>
        <time>2019-04-28T06:11:52Z</time>
      </trkpt>
      <trkpt lat="40.9454710" lon="-4.1170460">
        <ele>988.6</ele>
        <time>2019-04-28T06:11:53Z</time>
      </trkpt>
      <trkpt lat="40.9454410" lon="-4.1170330">
        <ele>988.4</ele>
        <time>2019-04-28T06:11:54Z</time>
      </trkpt>
      <trkpt lat="40.9454080" lon="-4.1170350">
        <ele>988.4</ele>
        <time>2019-04-28T06:11:55Z</time>
      </trkpt>
      <trkpt lat="40.9453760" lon="-4.1170240">
        <ele>988.4</ele>
        <time>2019-04-28T06:11:56Z</time>
      </trkpt>
      <trkpt lat="40.9453500" lon="-4.1170370">
        <ele>988.4</ele>
        <time>2019-04-28T06:11:57Z</time>
      </trkpt>
      <trkpt lat="40.9453300" lon="-4.1170370">
        <ele>988.2</ele>
        <time>2019-04-28T06:11:58Z</time>
      </trkpt>
      <trkpt lat="40.9453090" lon="-4.1170420">
        <ele>988.2</ele>
        <time>2019-04-28T06:11:59Z</time>
      </trkpt>
      <trkpt lat="40.9452780" lon="-4.1170490">
        <ele>988.2</ele>
        <time>2019-04-28T06:12:00Z</time>
      </trkpt>
      <trkpt lat="40.9452470" lon="-4.1170560">
        <ele>988.2</ele>
        <time>2019-04-28T06:12:01Z</time>
      </trkpt>
      <trkpt lat="40.9452120" lon="-4.1170490">
        <ele>988.2</ele>
        <time>2019-04-28T06:12:02Z</time>
      </trkpt>
      <trkpt lat="40.9451820" lon="-4.1170480">
        <ele>988.2</ele>
        <time>2019-04-28T06:12:03Z</time>
      </trkpt>
      <trkpt lat="40.9451510" lon="-4.1170460">
        <ele>988.4</ele>
        <time>2019-04-28T06:12:04Z</time>
      </trkpt>
      <trkpt lat="40.9451230" lon="-4.1170320">
        <ele>988.4</ele>
        <time>2019-04-28T06:12:05Z</time>
      </trkpt>
      <trkpt lat="40.9450950" lon="-4.1170220">
        <ele>988.4</ele>
        <time>2019-04-28T06:12:06Z</time>
      </trkpt>
      <trkpt lat="40.9450670" lon="-4.1170100">
        <ele>988.6</ele>
        <time>2019-04-28T06:12:07Z</time>
      </trkpt>
      <trkpt lat="40.9450380" lon="-4.1170000">
        <ele>988.6</ele>
        <time>2019-04-28T06:12:08Z</time>
      </trkpt>
      <trkpt lat="40.9450080" lon="-4.1169910">
        <ele>988.6</ele>
        <time>2019-04-28T06:12:09Z</time>
      </trkpt>
      <trkpt lat="40.9449800" lon="-4.1169650">
        <ele>988.8</ele>
        <time>2019-04-28T06:12:10Z</time>
      </trkpt>
      <trkpt lat="40.9449540" lon="-4.1169570">
        <ele>988.8</ele>
        <time>2019-04-28T06:12:11Z</time>
      </trkpt>
      <trkpt lat="40.9449230" lon="-4.1169420">
        <ele>988.8</ele>
        <time>2019-04-28T06:12:12Z</time>
      </trkpt>
      <trkpt lat="40.9448920" lon="-4.1169340">
        <ele>989.0</ele>
        <time>2019-04-28T06:12:13Z</time>
      </trkpt>
      <trkpt lat="40.9448610" lon="-4.1169260">
        <ele>989.0</ele>
        <time>2019-04-28T06:12:14Z</time>
      </trkpt>
      <trkpt lat="40.9448310" lon="-4.1169090">
        <ele>989.0</ele>
        <time>2019-04-28T06:12:15Z</time>
      </trkpt>
      <trkpt lat="40.9448020" lon="-4.1168890">
        <ele>989.2</ele>
        <time>2019-04-28T06:12:16Z</time>
      </trkpt>
      <trkpt lat="40.9447740" lon="-4.1168650">
        <ele>989.2</ele>
        <time>2019-04-28T06:12:17Z</time>
      </trkpt>
      <trkpt lat="40.9447490" lon="-4.1168430">
        <ele>989.4</ele>
        <time>2019-04-28T06:12:18Z</time>
      </trkpt>
      <trkpt lat="40.9447260" lon="-4.1168220">
        <ele>989.6</ele>
        <time>2019-04-28T06:12:19Z</time>
      </trkpt>
      <trkpt lat="40.9447010" lon="-4.1168010">
        <ele>989.8</ele>
        <time>2019-04-28T06:12:20Z</time>
      </trkpt>
      <trkpt lat="40.9446730" lon="-4.1167780">
        <ele>990.0</ele>
        <time>2019-04-28T06:12:21Z</time>
      </trkpt>
      <trkpt lat="40.9446480" lon="-4.1167820">
        <ele>990.0</ele>
        <time>2019-04-28T06:12:22Z</time>
      </trkpt>
      <trkpt lat="40.9446230" lon="-4.1167690">
        <ele>990.2</ele>
        <time>2019-04-28T06:12:23Z</time>
      </trkpt>
      <trkpt lat="40.9445970" lon="-4.1167350">
        <ele>990.4</ele>
        <time>2019-04-28T06:12:24Z</time>
      </trkpt>
      <trkpt lat="40.9445720" lon="-4.1167110">
        <ele>990.6</ele>
        <time>2019-04-28T06:12:25Z</time>
      </trkpt>
      <trkpt lat="40.9445450" lon="-4.1166820">
        <ele>990.8</ele>
        <time>2019-04-28T06:12:26Z</time>
      </trkpt>
      <trkpt lat="40.9445180" lon="-4.1166550">
        <ele>990.8</ele>
        <time>2019-04-28T06:12:27Z</time>
      </trkpt>
      <trkpt lat="40.9444870" lon="-4.1166140">
        <ele>991.0</ele>
        <time>2019-04-28T06:12:28Z</time>
      </trkpt>
      <trkpt lat="40.9444590" lon="-4.1165850">
        <ele>991.0</ele>
        <time>2019-04-28T06:12:29Z</time>
      </trkpt>
      <trkpt lat="40.9444340" lon="-4.1165640">
        <ele>991.4</ele>
        <time>2019-04-28T06:12:30Z</time>
      </trkpt>
      <trkpt lat="40.9444110" lon="-4.1165530">
        <ele>991.4</ele>
        <time>2019-04-28T06:12:31Z</time>
      </trkpt>
      <trkpt lat="40.9443920" lon="-4.1165420">
        <ele>991.6</ele>
        <time>2019-04-28T06:12:32Z</time>
      </trkpt>
      <trkpt lat="40.9443720" lon="-4.1165290">
        <ele>991.6</ele>
        <time>2019-04-28T06:12:33Z</time>
      </trkpt>
      <trkpt lat="40.9443530" lon="-4.1165110">
        <ele>991.8</ele>
        <time>2019-04-28T06:12:34Z</time>
      </trkpt>
      <trkpt lat="40.9443290" lon="-4.1164900">
        <ele>992.0</ele>
        <time>2019-04-28T06:12:35Z</time>
      </trkpt>
      <trkpt lat="40.9443020" lon="-4.1164740">
        <ele>992.2</ele>
        <time>2019-04-28T06:12:36Z</time>
      </trkpt>
      <trkpt lat="40.9442770" lon="-4.1164630">
        <ele>992.2</ele>
        <time>2019-04-28T06:12:37Z</time>
      </trkpt>
      <trkpt lat="40.9442540" lon="-4.1164570">
        <ele>992.4</ele>
        <time>2019-04-28T06:12:38Z</time>
      </trkpt>
      <trkpt lat="40.9442310" lon="-4.1164410">
        <ele>992.6</ele>
        <time>2019-04-28T06:12:39Z</time>
      </trkpt>
      <trkpt lat="40.9442040" lon="-4.1164240">
        <ele>992.8</ele>
        <time>2019-04-28T06:12:40Z</time>
      </trkpt>
      <trkpt lat="40.9441790" lon="-4.1164110">
        <ele>992.8</ele>
        <time>2019-04-28T06:12:41Z</time>
      </trkpt>
      <trkpt lat="40.9441540" lon="-4.1163890">
        <ele>993.0</ele>
        <time>2019-04-28T06:12:42Z</time>
      </trkpt>
      <trkpt lat="40.9441260" lon="-4.1163760">
        <ele>993.2</ele>
        <time>2019-04-28T06:12:43Z</time>
      </trkpt>
      <trkpt lat="40.9440980" lon="-4.1163520">
        <ele>993.4</ele>
        <time>2019-04-28T06:12:44Z</time>
      </trkpt>
      <trkpt lat="40.9440690" lon="-4.1163230">
        <ele>993.6</ele>
        <time>2019-04-28T06:12:45Z</time>
      </trkpt>
      <trkpt lat="40.9440450" lon="-4.1163010">
        <ele>993.6</ele>
        <time>2019-04-28T06:12:46Z</time>
      </trkpt>
      <trkpt lat="40.9440190" lon="-4.1162860">
        <ele>993.8</ele>
        <time>2019-04-28T06:12:47Z</time>
      </trkpt>
      <trkpt lat="40.9439900" lon="-4.1162730">
        <ele>994.0</ele>
        <time>2019-04-28T06:12:48Z</time>
      </trkpt>
      <trkpt lat="40.9439630" lon="-4.1162580">
        <ele>994.2</ele>
        <time>2019-04-28T06:12:49Z</time>
      </trkpt>
      <trkpt lat="40.9439340" lon="-4.1162200">
        <ele>994.4</ele>
        <time>2019-04-28T06:12:50Z</time>
      </trkpt>
      <trkpt lat="40.9439030" lon="-4.1161760">
        <ele>994.6</ele>
        <time>2019-04-28T06:12:51Z</time>
      </trkpt>
      <trkpt lat="40.9438780" lon="-4.1161490">
        <ele>994.8</ele>
        <time>2019-04-28T06:12:52Z</time>
      </trkpt>
      <trkpt lat="40.9438520" lon="-4.1161220">
        <ele>995.0</ele>
        <time>2019-04-28T06:12:53Z</time>
      </trkpt>
      <trkpt lat="40.9438220" lon="-4.1160480">
        <ele>995.2</ele>
        <time>2019-04-28T06:12:54Z</time>
      </trkpt>
      <trkpt lat="40.9438000" lon="-4.1160270">
        <ele>995.4</ele>
        <time>2019-04-28T06:12:55Z</time>
      </trkpt>
      <trkpt lat="40.9437780" lon="-4.1160200">
        <ele>995.6</ele>
        <time>2019-04-28T06:12:56Z</time>
      </trkpt>
      <trkpt lat="40.9437570" lon="-4.1160090">
        <ele>995.8</ele>
        <time>2019-04-28T06:12:57Z</time>
      </trkpt>
      <trkpt lat="40.9437330" lon="-4.1160060">
        <ele>996.0</ele>
        <time>2019-04-28T06:12:58Z</time>
      </trkpt>
      <trkpt lat="40.9437080" lon="-4.1160050">
        <ele>996.2</ele>
        <time>2019-04-28T06:12:59Z</time>
      </trkpt>
      <trkpt lat="40.9436770" lon="-4.1159910">
        <ele>996.4</ele>
        <time>2019-04-28T06:13:00Z</time>
      </trkpt>
      <trkpt lat="40.9436520" lon="-4.1159840">
        <ele>996.8</ele>
        <time>2019-04-28T06:13:01Z</time>
      </trkpt>
      <trkpt lat="40.9436280" lon="-4.1159770">
        <ele>997.0</ele>
        <time>2019-04-28T06:13:02Z</time>
      </trkpt>
      <trkpt lat="40.9436030" lon="-4.1159660">
        <ele>997.4</ele>
        <time>2019-04-28T06:13:03Z</time>
      </trkpt>
      <trkpt lat="40.9435770" lon="-4.1159590">
        <ele>997.6</ele>
        <time>2019-04-28T06:13:04Z</time>
      </trkpt>
      <trkpt lat="40.9435500" lon="-4.1159540">
        <ele>997.8</ele>
        <time>2019-04-28T06:13:05Z</time>
      </trkpt>
      <trkpt lat="40.9435230" lon="-4.1159620">
        <ele>998.0</ele>
        <time>2019-04-28T06:13:06Z</time>
      </trkpt>
      <trkpt lat="40.9434990" lon="-4.1159560">
        <ele>998.2</ele>
        <time>2019-04-28T06:13:07Z</time>
      </trkpt>
      <trkpt lat="40.9434730" lon="-4.1159550">
        <ele>998.4</ele>
        <time>2019-04-28T06:13:08Z</time>
      </trkpt>
      <trkpt lat="40.9434460" lon="-4.1159700">
        <ele>998.8</ele>
        <time>2019-04-28T06:13:09Z</time>
      </trkpt>
      <trkpt lat="40.9434200" lon="-4.1159770">
        <ele>998.8</ele>
        <time>2019-04-28T06:13:10Z</time>
      </trkpt>
      <trkpt lat="40.9433940" lon="-4.1159780">
        <ele>999.2</ele>
        <time>2019-04-28T06:13:11Z</time>
      </trkpt>
      <trkpt lat="40.9433680" lon="-4.1159820">
        <ele>999.4</ele>
        <time>2019-04-28T06:13:12Z</time>
      </trkpt>
      <trkpt lat="40.9433420" lon="-4.1159940">
        <ele>999.8</ele>
        <time>2019-04-28T06:13:13Z</time>
      </trkpt>
      <trkpt lat="40.9433170" lon="-4.1159770">
        <ele>1000.0</ele>
        <time>2019-04-28T06:13:14Z</time>
      </trkpt>
      <trkpt lat="40.9432890" lon="-4.1159640">
        <ele>1000.2</ele>
        <time>2019-04-28T06:13:15Z</time>
      </trkpt>
      <trkpt lat="40.9432630" lon="-4.1159590">
        <ele>1000.4</ele>
        <time>2019-04-28T06:13:16Z</time>
      </trkpt>
      <trkpt lat="40.9432360" lon="-4.1159700">
        <ele>1000.8</ele>
        <time>2019-04-28T06:13:17Z</time>
      </trkpt>
      <trkpt lat="40.9432090" lon="-4.1159630">
        <ele>1001.0</ele>
        <time>2019-04-28T06:13:18Z</time>
      </trkpt>
      <trkpt lat="40.9431850" lon="-4.1159570">
        <ele>1001.2</ele>
        <time>2019-04-28T06:13:19Z</time>
      </trkpt>
      <trkpt lat="40.9431600" lon="-4.1159690">
        <ele>1001.4</ele>
        <time>2019-04-28T06:13:20Z</time>
      </trkpt>
      <trkpt lat="40.9431310" lon="-4.1159490">
        <ele>1001.8</ele>
        <time>2019-04-28T06:13:21Z</time>
      </trkpt>
      <trkpt lat="40.9431040" lon="-4.1159580">
        <ele>1002.0</ele>
        <time>2019-04-28T06:13:22Z</time>
      </trkpt>
      <trkpt lat="40.9430770" lon="-4.1159390">
        <ele>1002.2</ele>
        <time>2019-04-28T06:13:23Z</time>
      </trkpt>
      <trkpt lat="40.9430520" lon="-4.1159280">
        <ele>1002.4</ele>
        <time>2019-04-28T06:13:24Z</time>
      </trkpt>
      <trkpt lat="40.9430260" lon="-4.1159240">
        <ele>1002.6</ele>
        <time>2019-04-28T06:13:25Z</time>
      </trkpt>
      <trkpt lat="40.9429960" lon="-4.1159280">
        <ele>1002.6</ele>
        <time>2019-04-28T06:13:26Z</time>
      </trkpt>
      <trkpt lat="40.9429690" lon="-4.1159260">
        <ele>1002.8</ele>
        <time>2019-04-28T06:13:27Z</time>
      </trkpt>
      <trkpt lat="40.9429410" lon="-4.1159120">
        <ele>1003.2</ele>
        <time>2019-04-28T06:13:28Z</time>
      </trkpt>
      <trkpt lat="40.9429110" lon="-4.1158980">
        <ele>1003.4</ele>
        <time>2019-04-28T06:13:29Z</time>
      </trkpt>
      <trkpt lat="40.9428840" lon="-4.1158710">
        <ele>1003.6</ele>
        <time>2019-04-28T06:13:30Z</time>
      </trkpt>
      <trkpt lat="40.9428560" lon="-4.1158510">
        <ele>1003.8</ele>
        <time>2019-04-28T06:13:31Z</time>
      </trkpt>
      <trkpt lat="40.9428290" lon="-4.1158950">
        <ele>1003.8</ele>
        <time>2019-04-28T06:13:32Z</time>
      </trkpt>
      <trkpt lat="40.9427960" lon="-4.1158670">
        <ele>1004.0</ele>
        <time>2019-04-28T06:13:33Z</time>
      </trkpt>
      <trkpt lat="40.9427650" lon="-4.1158580">
        <ele>1004.2</ele>
        <time>2019-04-28T06:13:34Z</time>
      </trkpt>
      <trkpt lat="40.9427330" lon="-4.1158440">
        <ele>1004.4</ele>
        <time>2019-04-28T06:13:35Z</time>
      </trkpt>
      <trkpt lat="40.9427030" lon="-4.1158390">
        <ele>1004.4</ele>
        <time>2019-04-28T06:13:36Z</time>
      </trkpt>
      <trkpt lat="40.9426660" lon="-4.1158160">
        <ele>1004.6</ele>
        <time>2019-04-28T06:13:37Z</time>
      </trkpt>
      <trkpt lat="40.9426350" lon="-4.1158040">
        <ele>1004.8</ele>
        <time>2019-04-28T06:13:38Z</time>
      </trkpt>
      <trkpt lat="40.9426020" lon="-4.1157830">
        <ele>1004.8</ele>
        <time>2019-04-28T06:13:39Z</time>
      </trkpt>
      <trkpt lat="40.9425710" lon="-4.1157980">
        <ele>1005.0</ele>
        <time>2019-04-28T06:13:40Z</time>
      </trkpt>
      <trkpt lat="40.9425380" lon="-4.1157990">
        <ele>1005.0</ele>
        <time>2019-04-28T06:13:41Z</time>
      </trkpt>
      <trkpt lat="40.9425060" lon="-4.1158030">
        <ele>1005.2</ele>
        <time>2019-04-28T06:13:42Z</time>
      </trkpt>
      <trkpt lat="40.9424760" lon="-4.1157990">
        <ele>1005.2</ele>
        <time>2019-04-28T06:13:43Z</time>
      </trkpt>
      <trkpt lat="40.9424440" lon="-4.1158030">
        <ele>1005.4</ele>
        <time>2019-04-28T06:13:44Z</time>
      </trkpt>
      <trkpt lat="40.9424160" lon="-4.1157800">
        <ele>1005.4</ele>
        <time>2019-04-28T06:13:45Z</time>
      </trkpt>
      <trkpt lat="40.9423850" lon="-4.1157850">
        <ele>1005.6</ele>
        <time>2019-04-28T06:13:46Z</time>
      </trkpt>
      <trkpt lat="40.9423550" lon="-4.1157950">
        <ele>1005.6</ele>
        <time>2019-04-28T06:13:47Z</time>
      </trkpt>
      <trkpt lat="40.9423230" lon="-4.1158000">
        <ele>1005.8</ele>
        <time>2019-04-28T06:13:48Z</time>
      </trkpt>
      <trkpt lat="40.9422960" lon="-4.1158050">
        <ele>1005.8</ele>
        <time>2019-04-28T06:13:49Z</time>
      </trkpt>
      <trkpt lat="40.9422680" lon="-4.1158070">
        <ele>1006.0</ele>
        <time>2019-04-28T06:13:50Z</time>
      </trkpt>
      <trkpt lat="40.9422360" lon="-4.1158280">
        <ele>1006.2</ele>
        <time>2019-04-28T06:13:51Z</time>
      </trkpt>
      <trkpt lat="40.9422100" lon="-4.1158450">
        <ele>1006.2</ele>
        <time>2019-04-28T06:13:52Z</time>
      </trkpt>
      <trkpt lat="40.9421940" lon="-4.1158240">
        <ele>1006.2</ele>
        <time>2019-04-28T06:13:53Z</time>
      </trkpt>
      <trkpt lat="40.9421740" lon="-4.1158230">
        <ele>1006.4</ele>
        <time>2019-04-28T06:13:54Z</time>
      </trkpt>
      <trkpt lat="40.9421630" lon="-4.1158240">
        <ele>1006.4</ele>
        <time>2019-04-28T06:13:55Z</time>
      </trkpt>
      <trkpt lat="40.9421530" lon="-4.1158230">
        <ele>1006.4</ele>
        <time>2019-04-28T06:13:56Z</time>
      </trkpt>
      <trkpt lat="40.9421430" lon="-4.1158190">
        <ele>1006.4</ele>
        <time>2019-04-28T06:13:57Z</time>
      </trkpt>
      <trkpt lat="40.9421280" lon="-4.1158180">
        <ele>1006.4</ele>
        <time>2019-04-28T06:13:58Z</time>
      </trkpt>
      <trkpt lat="40.9421090" lon="-4.1158200">
        <ele>1006.4</ele>
        <time>2019-04-28T06:13:59Z</time>
      </trkpt>
      <trkpt lat="40.9420870" lon="-4.1158200">
        <ele>1006.4</ele>
        <time>2019-04-28T06:14:00Z</time>
      </trkpt>
      <trkpt lat="40.9420640" lon="-4.1158140">
        <ele>1006.6</ele>
        <time>2019-04-28T06:14:01Z</time>
      </trkpt>
      <trkpt lat="40.9420400" lon="-4.1158140">
        <ele>1006.8</ele>
        <time>2019-04-28T06:14:02Z</time>
      </trkpt>
      <trkpt lat="40.9420160" lon="-4.1158100">
        <ele>1006.8</ele>
        <time>2019-04-28T06:14:03Z</time>
      </trkpt>
      <trkpt lat="40.9419920" lon="-4.1158030">
        <ele>1006.8</ele>
        <time>2019-04-28T06:14:04Z</time>
      </trkpt>
      <trkpt lat="40.9419670" lon="-4.1158120">
        <ele>1007.0</ele>
        <time>2019-04-28T06:14:05Z</time>
      </trkpt>
      <trkpt lat="40.9419380" lon="-4.1158300">
        <ele>1007.0</ele>
        <time>2019-04-28T06:14:06Z</time>
      </trkpt>
      <trkpt lat="40.9419090" lon="-4.1158230">
        <ele>1007.0</ele>
        <time>2019-04-28T06:14:07Z</time>
      </trkpt>
      <trkpt lat="40.9418790" lon="-4.1158280">
        <ele>1007.2</ele>
        <time>2019-04-28T06:14:08Z</time>
      </trkpt>
      <trkpt lat="40.9418490" lon="-4.1158300">
        <ele>1007.4</ele>
        <time>2019-04-28T06:14:09Z</time>
      </trkpt>
      <trkpt lat="40.9418150" lon="-4.1158250">
        <ele>1007.4</ele>
        <time>2019-04-28T06:14:10Z</time>
      </trkpt>
      <trkpt lat="40.9417840" lon="-4.1158320">
        <ele>1007.6</ele>
        <time>2019-04-28T06:14:11Z</time>
      </trkpt>
      <trkpt lat="40.9417520" lon="-4.1158450">
        <ele>1007.6</ele>
        <time>2019-04-28T06:14:12Z</time>
      </trkpt>
      <trkpt lat="40.9417160" lon="-4.1158180">
        <ele>1007.6</ele>
        <time>2019-04-28T06:14:13Z</time>
      </trkpt>
      <trkpt lat="40.9416840" lon="-4.1158270">
        <ele>1007.8</ele>
        <time>2019-04-28T06:14:14Z</time>
      </trkpt>
      <trkpt lat="40.9416530" lon="-4.1158280">
        <ele>1008.0</ele>
        <time>2019-04-28T06:14:15Z</time>
      </trkpt>
      <trkpt lat="40.9416270" lon="-4.1158280">
        <ele>1008.0</ele>
        <time>2019-04-28T06:14:16Z</time>
      </trkpt>
      <trkpt lat="40.9416020" lon="-4.1158250">
        <ele>1008.2</ele>
        <time>2019-04-28T06:14:17Z</time>
      </trkpt>
      <trkpt lat="40.9415690" lon="-4.1158210">
        <ele>1008.2</ele>
        <time>2019-04-28T06:14:18Z</time>
      </trkpt>
      <trkpt lat="40.9415370" lon="-4.1158200">
        <ele>1008.4</ele>
        <time>2019-04-28T06:14:19Z</time>
      </trkpt>
      <trkpt lat="40.9415080" lon="-4.1158210">
        <ele>1008.4</ele>
        <time>2019-04-28T06:14:20Z</time>
      </trkpt>
      <trkpt lat="40.9414840" lon="-4.1158190">
        <ele>1008.6</ele>
        <time>2019-04-28T06:14:21Z</time>
      </trkpt>
      <trkpt lat="40.9414520" lon="-4.1158190">
        <ele>1008.6</ele>
        <time>2019-04-28T06:14:22Z</time>
      </trkpt>
      <trkpt lat="40.9414230" lon="-4.1158000">
        <ele>1008.8</ele>
        <time>2019-04-28T06:14:23Z</time>
      </trkpt>
      <trkpt lat="40.9413930" lon="-4.1157780">
        <ele>1009.0</ele>
        <time>2019-04-28T06:14:24Z</time>
      </trkpt>
      <trkpt lat="40.9413570" lon="-4.1157940">
        <ele>1009.0</ele>
        <time>2019-04-28T06:14:25Z</time>
      </trkpt>
      <trkpt lat="40.9413230" lon="-4.1157970">
        <ele>1009.2</ele>
        <time>2019-04-28T06:14:26Z</time>
      </trkpt>
      <trkpt lat="40.9412910" lon="-4.1157950">
        <ele>1009.2</ele>
        <time>2019-04-28T06:14:27Z</time>
      </trkpt>
      <trkpt lat="40.9412560" lon="-4.1157930">
        <ele>1009.2</ele>
        <time>2019-04-28T06:14:28Z</time>
      </trkpt>
      <trkpt lat="40.9412230" lon="-4.1158050">
        <ele>1009.4</ele>
        <time>2019-04-28T06:14:29Z</time>
      </trkpt>
      <trkpt lat="40.9411880" lon="-4.1158300">
        <ele>1009.4</ele>
        <time>2019-04-28T06:14:30Z</time>
      </trkpt>
      <trkpt lat="40.9411530" lon="-4.1158430">
        <ele>1009.4</ele>
        <time>2019-04-28T06:14:31Z</time>
      </trkpt>
      <trkpt lat="40.9411200" lon="-4.1158560">
        <ele>1009.6</ele>
        <time>2019-04-28T06:14:32Z</time>
      </trkpt>
      <trkpt lat="40.9410830" lon="-4.1158350">
        <ele>1009.6</ele>
        <time>2019-04-28T06:14:33Z</time>
      </trkpt>
      <trkpt lat="40.9410430" lon="-4.1158200">
        <ele>1009.6</ele>
        <time>2019-04-28T06:14:34Z</time>
      </trkpt>
      <trkpt lat="40.9410050" lon="-4.1158210">
        <ele>1009.6</ele>
        <time>2019-04-28T06:14:35Z</time>
      </trkpt>
      <trkpt lat="40.9409650" lon="-4.1158230">
        <ele>1009.8</ele>
        <time>2019-04-28T06:14:36Z</time>
      </trkpt>
      <trkpt lat="40.9409300" lon="-4.1158340">
        <ele>1009.8</ele>
        <time>2019-04-28T06:14:37Z</time>
      </trkpt>
      <trkpt lat="40.9409010" lon="-4.1158110">
        <ele>1009.8</ele>
        <time>2019-04-28T06:14:38Z</time>
      </trkpt>
      <trkpt lat="40.9408720" lon="-4.1157900">
        <ele>1009.8</ele>
        <time>2019-04-28T06:14:39Z</time>
      </trkpt>
      <trkpt lat="40.9408370" lon="-4.1157660">
        <ele>1010.0</ele>
        <time>2019-04-28T06:14:40Z</time>
      </trkpt>
      <trkpt lat="40.9408000" lon="-4.1157840">
        <ele>1010.0</ele>
        <time>2019-04-28T06:14:41Z</time>
      </trkpt>
      <trkpt lat="40.9407660" lon="-4.1157970">
        <ele>1010.0</ele>
        <time>2019-04-28T06:14:42Z</time>
      </trkpt>
      <trkpt lat="40.9407260" lon="-4.1157810">
        <ele>1010.0</ele>
        <time>2019-04-28T06:14:43Z</time>
      </trkpt>
      <trkpt lat="40.9406870" lon="-4.1157680">
        <ele>1010.0</ele>
        <time>2019-04-28T06:14:44Z</time>
      </trkpt>
      <trkpt lat="40.9406480" lon="-4.1157690">
        <ele>1010.2</ele>
        <time>2019-04-28T06:14:45Z</time>
      </trkpt>
      <trkpt lat="40.9406050" lon="-4.1157430">
        <ele>1010.2</ele>
        <time>2019-04-28T06:14:46Z</time>
      </trkpt>
      <trkpt lat="40.9405630" lon="-4.1157320">
        <ele>1010.2</ele>
        <time>2019-04-28T06:14:47Z</time>
      </trkpt>
      <trkpt lat="40.9405260" lon="-4.1156970">
        <ele>1010.2</ele>
        <time>2019-04-28T06:14:48Z</time>
      </trkpt>
      <trkpt lat="40.9404890" lon="-4.1156720">
        <ele>1010.2</ele>
        <time>2019-04-28T06:14:49Z</time>
      </trkpt>
      <trkpt lat="40.9404460" lon="-4.1156540">
        <ele>1010.2</ele>
        <time>2019-04-28T06:14:50Z</time>
      </trkpt>
      <trkpt lat="40.9404100" lon="-4.1156230">
        <ele>1010.4</ele>
        <time>2019-04-28T06:14:51Z</time>
      </trkpt>
      <trkpt lat="40.9403720" lon="-4.1156070">
        <ele>1010.4</ele>
        <time>2019-04-28T06:14:52Z</time>
      </trkpt>
      <trkpt lat="40.9403320" lon="-4.1155940">
        <ele>1010.4</ele>
        <time>2019-04-28T06:14:53Z</time>
      </trkpt>
      <trkpt lat="40.9402890" lon="-4.1155800">
        <ele>1010.6</ele>
        <time>2019-04-28T06:14:54Z</time>
      </trkpt>
      <trkpt lat="40.9402530" lon="-4.1155520">
        <ele>1010.6</ele>
        <time>2019-04-28T06:14:55Z</time>
      </trkpt>
      <trkpt lat="40.9402190" lon="-4.1155550">
        <ele>1010.6</ele>
        <time>2019-04-28T06:14:56Z</time>
      </trkpt>
      <trkpt lat="40.9401850" lon="-4.1155590">
        <ele>1010.6</ele>
        <time>2019-04-28T06:14:57Z</time>
      </trkpt>
      <trkpt lat="40.9401520" lon="-4.1155570">
        <ele>1010.6</ele>
        <time>2019-04-28T06:14:58Z</time>
      </trkpt>
      <trkpt lat="40.9401190" lon="-4.1155350">
        <ele>1010.6</ele>
        <time>2019-04-28T06:14:59Z</time>
      </trkpt>
      <trkpt lat="40.9400960" lon="-4.1155180">
        <ele>1010.6</ele>
        <time>2019-04-28T06:15:00Z</time>
      </trkpt>
      <trkpt lat="40.9400780" lon="-4.1155090">
        <ele>1010.6</ele>
        <time>2019-04-28T06:15:01Z</time>
      </trkpt>
      <trkpt lat="40.9400580" lon="-4.1154990">
        <ele>1010.6</ele>
        <time>2019-04-28T06:15:02Z</time>
      </trkpt>
      <trkpt lat="40.9400340" lon="-4.1154970">
        <ele>1010.6</ele>
        <time>2019-04-28T06:15:03Z</time>
      </trkpt>
      <trkpt lat="40.9400090" lon="-4.1154790">
        <ele>1010.8</ele>
        <time>2019-04-28T06:15:04Z</time>
      </trkpt>
      <trkpt lat="40.9399750" lon="-4.1154610">
        <ele>1011.0</ele>
        <time>2019-04-28T06:15:05Z</time>
      </trkpt>
      <trkpt lat="40.9399460" lon="-4.1154380">
        <ele>1011.0</ele>
        <time>2019-04-28T06:15:06Z</time>
      </trkpt>
      <trkpt lat="40.9399300" lon="-4.1154240">
        <ele>1011.0</ele>
        <time>2019-04-28T06:15:07Z</time>
      </trkpt>
      <trkpt lat="40.9399070" lon="-4.1154130">
        <ele>1011.0</ele>
        <time>2019-04-28T06:15:08Z</time>
      </trkpt>
      <trkpt lat="40.9398840" lon="-4.1154320">
        <ele>1011.0</ele>
        <time>2019-04-28T06:15:09Z</time>
      </trkpt>
      <trkpt lat="40.9398480" lon="-4.1154270">
        <ele>1011.0</ele>
        <time>2019-04-28T06:15:10Z</time>
      </trkpt>
      <trkpt lat="40.9398160" lon="-4.1154170">
        <ele>1011.2</ele>
        <time>2019-04-28T06:15:11Z</time>
      </trkpt>
      <trkpt lat="40.9397970" lon="-4.1154210">
        <ele>1011.2</ele>
        <time>2019-04-28T06:15:12Z</time>
      </trkpt>
      <trkpt lat="40.9397640" lon="-4.1154230">
        <ele>1011.2</ele>
        <time>2019-04-28T06:15:13Z</time>
      </trkpt>
      <trkpt lat="40.9397370" lon="-4.1154260">
        <ele>1011.2</ele>
        <time>2019-04-28T06:15:14Z</time>
      </trkpt>
      <trkpt lat="40.9397110" lon="-4.1154030">
        <ele>1011.4</ele>
        <time>2019-04-28T06:15:15Z</time>
      </trkpt>
      <trkpt lat="40.9396880" lon="-4.1154030">
        <ele>1011.4</ele>
        <time>2019-04-28T06:15:16Z</time>
      </trkpt>
      <trkpt lat="40.9396530" lon="-4.1153870">
        <ele>1011.6</ele>
        <time>2019-04-28T06:15:17Z</time>
      </trkpt>
      <trkpt lat="40.9395830" lon="-4.1153020">
        <ele>1011.6</ele>
        <time>2019-04-28T06:15:18Z</time>
      </trkpt>
      <trkpt lat="40.9395380" lon="-4.1152530">
        <ele>1011.8</ele>
        <time>2019-04-28T06:15:19Z</time>
      </trkpt>
      <trkpt lat="40.9395030" lon="-4.1152200">
        <ele>1011.8</ele>
        <time>2019-04-28T06:15:20Z</time>
      </trkpt>
      <trkpt lat="40.9394740" lon="-4.1152110">
        <ele>1011.6</ele>
        <time>2019-04-28T06:15:21Z</time>
      </trkpt>
      <trkpt lat="40.9394310" lon="-4.1151890">
        <ele>1011.8</ele>
        <time>2019-04-28T06:15:22Z</time>
      </trkpt>
      <trkpt lat="40.9393840" lon="-4.1151630">
        <ele>1012.0</ele>
        <time>2019-04-28T06:15:23Z</time>
      </trkpt>
      <trkpt lat="40.9393360" lon="-4.1151250">
        <ele>1012.2</ele>
        <time>2019-04-28T06:15:24Z</time>
      </trkpt>
      <trkpt lat="40.9392950" lon="-4.1151030">
        <ele>1012.4</ele>
        <time>2019-04-28T06:15:25Z</time>
      </trkpt>
      <trkpt lat="40.9392490" lon="-4.1150560">
        <ele>1012.4</ele>
        <time>2019-04-28T06:15:26Z</time>
      </trkpt>
      <trkpt lat="40.9392050" lon="-4.1149920">
        <ele>1012.6</ele>
        <time>2019-04-28T06:15:27Z</time>
      </trkpt>
      <trkpt lat="40.9391630" lon="-4.1149280">
        <ele>1012.6</ele>
        <time>2019-04-28T06:15:28Z</time>
      </trkpt>
      <trkpt lat="40.9391210" lon="-4.1148770">
        <ele>1012.8</ele>
        <time>2019-04-28T06:15:29Z</time>
      </trkpt>
      <trkpt lat="40.9390780" lon="-4.1148370">
        <ele>1012.8</ele>
        <time>2019-04-28T06:15:30Z</time>
      </trkpt>
      <trkpt lat="40.9390350" lon="-4.1148000">
        <ele>1013.0</ele>
        <time>2019-04-28T06:15:31Z</time>
      </trkpt>
      <trkpt lat="40.9390010" lon="-4.1147610">
        <ele>1013.0</ele>
        <time>2019-04-28T06:15:32Z</time>
      </trkpt>
      <trkpt lat="40.9389580" lon="-4.1147260">
        <ele>1013.0</ele>
        <time>2019-04-28T06:15:33Z</time>
      </trkpt>
      <trkpt lat="40.9389060" lon="-4.1147050">
        <ele>1013.2</ele>
        <time>2019-04-28T06:15:34Z</time>
      </trkpt>
      <trkpt lat="40.9388810" lon="-4.1146870">
        <ele>1013.2</ele>
        <time>2019-04-28T06:15:35Z</time>
      </trkpt>
      <trkpt lat="40.9388450" lon="-4.1146620">
        <ele>1013.2</ele>
        <time>2019-04-28T06:15:36Z</time>
      </trkpt>
      <trkpt lat="40.9388010" lon="-4.1146330">
        <ele>1013.2</ele>
        <time>2019-04-28T06:15:37Z</time>
      </trkpt>
      <trkpt lat="40.9387540" lon="-4.1145890">
        <ele>1013.4</ele>
        <time>2019-04-28T06:15:38Z</time>
      </trkpt>
      <trkpt lat="40.9387230" lon="-4.1145680">
        <ele>1013.4</ele>
        <time>2019-04-28T06:15:39Z</time>
      </trkpt>
      <trkpt lat="40.9386760" lon="-4.1145070">
        <ele>1013.6</ele>
        <time>2019-04-28T06:15:40Z</time>
      </trkpt>
      <trkpt lat="40.9386360" lon="-4.1144680">
        <ele>1013.6</ele>
        <time>2019-04-28T06:15:41Z</time>
      </trkpt>
      <trkpt lat="40.9385990" lon="-4.1144470">
        <ele>1013.8</ele>
        <time>2019-04-28T06:15:42Z</time>
      </trkpt>
      <trkpt lat="40.9385690" lon="-4.1144250">
        <ele>1014.0</ele>
        <time>2019-04-28T06:15:43Z</time>
      </trkpt>
      <trkpt lat="40.9385420" lon="-4.1144110">
        <ele>1014.0</ele>
        <time>2019-04-28T06:15:44Z</time>
      </trkpt>
      <trkpt lat="40.9385150" lon="-4.1143950">
        <ele>1014.2</ele>
        <time>2019-04-28T06:15:45Z</time>
      </trkpt>
      <trkpt lat="40.9384700" lon="-4.1143800">
        <ele>1014.2</ele>
        <time>2019-04-28T06:15:46Z</time>
      </trkpt>
      <trkpt lat="40.9384340" lon="-4.1143610">
        <ele>1014.2</ele>
        <time>2019-04-28T06:15:47Z</time>
      </trkpt>
      <trkpt lat="40.9384050" lon="-4.1143460">
        <ele>1014.2</ele>
        <time>2019-04-28T06:15:48Z</time>
      </trkpt>
      <trkpt lat="40.9383700" lon="-4.1143240">
        <ele>1014.4</ele>
        <time>2019-04-28T06:15:49Z</time>
      </trkpt>
      <trkpt lat="40.9383430" lon="-4.1142990">
        <ele>1014.6</ele>
        <time>2019-04-28T06:15:50Z</time>
      </trkpt>
      <trkpt lat="40.9383110" lon="-4.1142760">
        <ele>1014.8</ele>
        <time>2019-04-28T06:15:51Z</time>
      </trkpt>
      <trkpt lat="40.9382820" lon="-4.1142560">
        <ele>1014.8</ele>
        <time>2019-04-28T06:15:52Z</time>
      </trkpt>
      <trkpt lat="40.9382530" lon="-4.1142300">
        <ele>1015.0</ele>
        <time>2019-04-28T06:15:53Z</time>
      </trkpt>
      <trkpt lat="40.9382180" lon="-4.1142100">
        <ele>1015.2</ele>
        <time>2019-04-28T06:15:54Z</time>
      </trkpt>
      <trkpt lat="40.9381900" lon="-4.1141880">
        <ele>1015.2</ele>
        <time>2019-04-28T06:15:55Z</time>
      </trkpt>
      <trkpt lat="40.9381610" lon="-4.1141670">
        <ele>1015.4</ele>
        <time>2019-04-28T06:15:56Z</time>
      </trkpt>
      <trkpt lat="40.9381040" lon="-4.1141490">
        <ele>1015.4</ele>
        <time>2019-04-28T06:15:57Z</time>
      </trkpt>
      <trkpt lat="40.9380640" lon="-4.1141300">
        <ele>1015.6</ele>
        <time>2019-04-28T06:15:58Z</time>
      </trkpt>
      <trkpt lat="40.9380330" lon="-4.1141090">
        <ele>1015.6</ele>
        <time>2019-04-28T06:15:59Z</time>
      </trkpt>
      <trkpt lat="40.9380020" lon="-4.1140890">
        <ele>1015.8</ele>
        <time>2019-04-28T06:16:00Z</time>
      </trkpt>
      <trkpt lat="40.9379750" lon="-4.1140620">
        <ele>1015.8</ele>
        <time>2019-04-28T06:16:01Z</time>
      </trkpt>
      <trkpt lat="40.9379430" lon="-4.1140460">
        <ele>1016.0</ele>
        <time>2019-04-28T06:16:02Z</time>
      </trkpt>
      <trkpt lat="40.9379160" lon="-4.1140310">
        <ele>1016.0</ele>
        <time>2019-04-28T06:16:03Z</time>
      </trkpt>
      <trkpt lat="40.9378830" lon="-4.1140160">
        <ele>1016.2</ele>
        <time>2019-04-28T06:16:04Z</time>
      </trkpt>
      <trkpt lat="40.9378440" lon="-4.1140030">
        <ele>1016.2</ele>
        <time>2019-04-28T06:16:05Z</time>
      </trkpt>
      <trkpt lat="40.9378170" lon="-4.1139860">
        <ele>1016.4</ele>
        <time>2019-04-28T06:16:06Z</time>
      </trkpt>
      <trkpt lat="40.9377880" lon="-4.1139740">
        <ele>1016.4</ele>
        <time>2019-04-28T06:16:07Z</time>
      </trkpt>
      <trkpt lat="40.9377620" lon="-4.1139670">
        <ele>1016.6</ele>
        <time>2019-04-28T06:16:08Z</time>
      </trkpt>
      <trkpt lat="40.9377380" lon="-4.1139480">
        <ele>1016.6</ele>
        <time>2019-04-28T06:16:09Z</time>
      </trkpt>
      <trkpt lat="40.9377250" lon="-4.1139210">
        <ele>1016.6</ele>
        <time>2019-04-28T06:16:10Z</time>
      </trkpt>
      <trkpt lat="40.9377100" lon="-4.1139190">
        <ele>1016.8</ele>
        <time>2019-04-28T06:16:11Z</time>
      </trkpt>
      <trkpt lat="40.9376880" lon="-4.1139070">
        <ele>1016.8</ele>
        <time>2019-04-28T06:16:12Z</time>
      </trkpt>
      <trkpt lat="40.9376590" lon="-4.1139030">
        <ele>1016.8</ele>
        <time>2019-04-28T06:16:13Z</time>
      </trkpt>
      <trkpt lat="40.9376260" lon="-4.1138820">
        <ele>1017.0</ele>
        <time>2019-04-28T06:16:14Z</time>
      </trkpt>
      <trkpt lat="40.9375930" lon="-4.1138770">
        <ele>1017.0</ele>
        <time>2019-04-28T06:16:15Z</time>
      </trkpt>
      <trkpt lat="40.9375610" lon="-4.1138860">
        <ele>1017.0</ele>
        <time>2019-04-28T06:16:16Z</time>
      </trkpt>
      <trkpt lat="40.9375320" lon="-4.1139050">
        <ele>1017.0</ele>
        <time>2019-04-28T06:16:17Z</time>
      </trkpt>
      <trkpt lat="40.9375020" lon="-4.1139260">
        <ele>1017.0</ele>
        <time>2019-04-28T06:16:18Z</time>
      </trkpt>
      <trkpt lat="40.9374690" lon="-4.1139440">
        <ele>1017.0</ele>
        <time>2019-04-28T06:16:19Z</time>
      </trkpt>
      <trkpt lat="40.9374310" lon="-4.1139590">
        <ele>1017.2</ele>
        <time>2019-04-28T06:16:20Z</time>
      </trkpt>
      <trkpt lat="40.9373920" lon="-4.1139650">
        <ele>1017.2</ele>
        <time>2019-04-28T06:16:21Z</time>
      </trkpt>
      <trkpt lat="40.9373590" lon="-4.1139670">
        <ele>1017.2</ele>
        <time>2019-04-28T06:16:22Z</time>
      </trkpt>
      <trkpt lat="40.9373250" lon="-4.1139640">
        <ele>1017.2</ele>
        <time>2019-04-28T06:16:23Z</time>
      </trkpt>
      <trkpt lat="40.9372900" lon="-4.1139620">
        <ele>1017.0</ele>
        <time>2019-04-28T06:16:24Z</time>
      </trkpt>
      <trkpt lat="40.9372500" lon="-4.1139530">
        <ele>1017.0</ele>
        <time>2019-04-28T06:16:25Z</time>
      </trkpt>
      <trkpt lat="40.9372120" lon="-4.1139440">
        <ele>1016.8</ele>
        <time>2019-04-28T06:16:26Z</time>
      </trkpt>
      <trkpt lat="40.9371740" lon="-4.1139420">
        <ele>1016.8</ele>
        <time>2019-04-28T06:16:27Z</time>
      </trkpt>
      <trkpt lat="40.9371370" lon="-4.1139390">
        <ele>1016.8</ele>
        <time>2019-04-28T06:16:28Z</time>
      </trkpt>
      <trkpt lat="40.9371000" lon="-4.1139400">
        <ele>1016.6</ele>
        <time>2019-04-28T06:16:29Z</time>
      </trkpt>
      <trkpt lat="40.9370620" lon="-4.1139400">
        <ele>1016.6</ele>
        <time>2019-04-28T06:16:30Z</time>
      </trkpt>
      <trkpt lat="40.9370220" lon="-4.1139380">
        <ele>1016.6</ele>
        <time>2019-04-28T06:16:31Z</time>
      </trkpt>
      <trkpt lat="40.9369790" lon="-4.1139330">
        <ele>1016.4</ele>
        <time>2019-04-28T06:16:32Z</time>
      </trkpt>
      <trkpt lat="40.9369380" lon="-4.1139300">
        <ele>1016.4</ele>
        <time>2019-04-28T06:16:33Z</time>
      </trkpt>
      <trkpt lat="40.9369000" lon="-4.1139330">
        <ele>1016.2</ele>
        <time>2019-04-28T06:16:34Z</time>
      </trkpt>
      <trkpt lat="40.9368600" lon="-4.1139380">
        <ele>1016.2</ele>
        <time>2019-04-28T06:16:35Z</time>
      </trkpt>
      <trkpt lat="40.9368180" lon="-4.1139380">
        <ele>1016.0</ele>
        <time>2019-04-28T06:16:36Z</time>
      </trkpt>
      <trkpt lat="40.9367760" lon="-4.1139380">
        <ele>1016.0</ele>
        <time>2019-04-28T06:16:37Z</time>
      </trkpt>
      <trkpt lat="40.9367320" lon="-4.1139380">
        <ele>1015.8</ele>
        <time>2019-04-28T06:16:38Z</time>
      </trkpt>
      <trkpt lat="40.9366890" lon="-4.1139450">
        <ele>1015.8</ele>
        <time>2019-04-28T06:16:39Z</time>
      </trkpt>
      <trkpt lat="40.9366420" lon="-4.1139430">
        <ele>1015.6</ele>
        <time>2019-04-28T06:16:40Z</time>
      </trkpt>
      <trkpt lat="40.9365970" lon="-4.1139320">
        <ele>1015.6</ele>
        <time>2019-04-28T06:16:41Z</time>
      </trkpt>
      <trkpt lat="40.9365500" lon="-4.1139280">
        <ele>1015.4</ele>
        <time>2019-04-28T06:16:42Z</time>
      </trkpt>
      <trkpt lat="40.9365040" lon="-4.1139320">
        <ele>1015.4</ele>
        <time>2019-04-28T06:16:43Z</time>
      </trkpt>
      <trkpt lat="40.9364580" lon="-4.1139370">
        <ele>1015.2</ele>
        <time>2019-04-28T06:16:44Z</time>
      </trkpt>
      <trkpt lat="40.9364180" lon="-4.1139430">
        <ele>1015.0</ele>
        <time>2019-04-28T06:16:45Z</time>
      </trkpt>
      <trkpt lat="40.9363700" lon="-4.1139400">
        <ele>1015.0</ele>
        <time>2019-04-28T06:16:46Z</time>
      </trkpt>
      <trkpt lat="40.9363220" lon="-4.1139410">
        <ele>1015.0</ele>
        <time>2019-04-28T06:16:47Z</time>
      </trkpt>
      <trkpt lat="40.9362740" lon="-4.1139460">
        <ele>1014.8</ele>
        <time>2019-04-28T06:16:48Z</time>
      </trkpt>
      <trkpt lat="40.9362240" lon="-4.1139450">
        <ele>1014.6</ele>
        <time>2019-04-28T06:16:49Z</time>
      </trkpt>
      <trkpt lat="40.9361740" lon="-4.1139460">
        <ele>1014.4</ele>
        <time>2019-04-28T06:16:50Z</time>
      </trkpt>
      <trkpt lat="40.9361240" lon="-4.1139450">
        <ele>1014.4</ele>
        <time>2019-04-28T06:16:51Z</time>
      </trkpt>
      <trkpt lat="40.9360740" lon="-4.1139460">
        <ele>1014.2</ele>
        <time>2019-04-28T06:16:52Z</time>
      </trkpt>
      <trkpt lat="40.9360230" lon="-4.1139430">
        <ele>1014.2</ele>
        <time>2019-04-28T06:16:53Z</time>
      </trkpt>
      <trkpt lat="40.9359740" lon="-4.1139400">
        <ele>1014.0</ele>
        <time>2019-04-28T06:16:54Z</time>
      </trkpt>
      <trkpt lat="40.9359270" lon="-4.1139410">
        <ele>1013.8</ele>
        <time>2019-04-28T06:16:55Z</time>
      </trkpt>
      <trkpt lat="40.9358760" lon="-4.1139440">
        <ele>1013.6</ele>
        <time>2019-04-28T06:16:56Z</time>
      </trkpt>
      <trkpt lat="40.9358250" lon="-4.1139470">
        <ele>1013.4</ele>
        <time>2019-04-28T06:16:57Z</time>
      </trkpt>
      <trkpt lat="40.9357750" lon="-4.1139510">
        <ele>1013.2</ele>
        <time>2019-04-28T06:16:58Z</time>
      </trkpt>
      <trkpt lat="40.9357340" lon="-4.1139510">
        <ele>1013.2</ele>
        <time>2019-04-28T06:16:59Z</time>
      </trkpt>
      <trkpt lat="40.9356990" lon="-4.1139470">
        <ele>1013.0</ele>
        <time>2019-04-28T06:17:00Z</time>
      </trkpt>
      <trkpt lat="40.9356570" lon="-4.1139250">
        <ele>1013.0</ele>
        <time>2019-04-28T06:17:01Z</time>
      </trkpt>
      <trkpt lat="40.9356220" lon="-4.1138960">
        <ele>1012.8</ele>
        <time>2019-04-28T06:17:02Z</time>
      </trkpt>
      <trkpt lat="40.9355930" lon="-4.1138580">
        <ele>1012.8</ele>
        <time>2019-04-28T06:17:03Z</time>
      </trkpt>
      <trkpt lat="40.9355660" lon="-4.1138090">
        <ele>1012.6</ele>
        <time>2019-04-28T06:17:04Z</time>
      </trkpt>
      <trkpt lat="40.9355430" lon="-4.1137520">
        <ele>1012.8</ele>
        <time>2019-04-28T06:17:05Z</time>
      </trkpt>
      <trkpt lat="40.9355240" lon="-4.1136860">
        <ele>1012.8</ele>
        <time>2019-04-28T06:17:06Z</time>
      </trkpt>
      <trkpt lat="40.9355170" lon="-4.1136240">
        <ele>1013.0</ele>
        <time>2019-04-28T06:17:07Z</time>
      </trkpt>
      <trkpt lat="40.9355210" lon="-4.1135660">
        <ele>1013.2</ele>
        <time>2019-04-28T06:17:08Z</time>
      </trkpt>
      <trkpt lat="40.9355380" lon="-4.1135120">
        <ele>1013.4</ele>
        <time>2019-04-28T06:17:09Z</time>
      </trkpt>
      <trkpt lat="40.9355570" lon="-4.1134740">
        <ele>1013.6</ele>
        <time>2019-04-28T06:17:10Z</time>
      </trkpt>
      <trkpt lat="40.9355750" lon="-4.1134440">
        <ele>1014.0</ele>
        <time>2019-04-28T06:17:11Z</time>
      </trkpt>
      <trkpt lat="40.9355920" lon="-4.1134190">
        <ele>1014.2</ele>
        <time>2019-04-28T06:17:12Z</time>
      </trkpt>
      <trkpt lat="40.9356210" lon="-4.1133870">
        <ele>1014.4</ele>
        <time>2019-04-28T06:17:13Z</time>
      </trkpt>
      <trkpt lat="40.9356490" lon="-4.1133600">
        <ele>1014.6</ele>
        <time>2019-04-28T06:17:14Z</time>
      </trkpt>
      <trkpt lat="40.9356810" lon="-4.1133260">
        <ele>1014.8</ele>
        <time>2019-04-28T06:17:15Z</time>
      </trkpt>
      <trkpt lat="40.9357100" lon="-4.1132920">
        <ele>1015.0</ele>
        <time>2019-04-28T06:17:16Z</time>
      </trkpt>
      <trkpt lat="40.9357400" lon="-4.1132590">
        <ele>1015.2</ele>
        <time>2019-04-28T06:17:17Z</time>
      </trkpt>
      <trkpt lat="40.9357710" lon="-4.1132230">
        <ele>1015.4</ele>
        <time>2019-04-28T06:17:18Z</time>
      </trkpt>
      <trkpt lat="40.9357910" lon="-4.1131880">
        <ele>1015.6</ele>
        <time>2019-04-28T06:17:19Z</time>
      </trkpt>
      <trkpt lat="40.9358100" lon="-4.1131570">
        <ele>1015.8</ele>
        <time>2019-04-28T06:17:20Z</time>
      </trkpt>
      <trkpt lat="40.9358230" lon="-4.1131310">
        <ele>1016.2</ele>
        <time>2019-04-28T06:17:21Z</time>
      </trkpt>
      <trkpt lat="40.9358460" lon="-4.1131000">
        <ele>1016.4</ele>
        <time>2019-04-28T06:17:22Z</time>
      </trkpt>
      <trkpt lat="40.9358670" lon="-4.1130710">
        <ele>1016.6</ele>
        <time>2019-04-28T06:17:23Z</time>
      </trkpt>
      <trkpt lat="40.9358940" lon="-4.1130360">
        <ele>1016.8</ele>
        <time>2019-04-28T06:17:24Z</time>
      </trkpt>
      <trkpt lat="40.9359140" lon="-4.1130040">
        <ele>1017.0</ele>
        <time>2019-04-28T06:17:25Z</time>
      </trkpt>
      <trkpt lat="40.9359310" lon="-4.1129770">
        <ele>1017.2</ele>
        <time>2019-04-28T06:17:26Z</time>
      </trkpt>
      <trkpt lat="40.9359400" lon="-4.1129490">
        <ele>1017.4</ele>
        <time>2019-04-28T06:17:27Z</time>
      </trkpt>
      <trkpt lat="40.9359520" lon="-4.1129230">
        <ele>1017.6</ele>
        <time>2019-04-28T06:17:28Z</time>
      </trkpt>
      <trkpt lat="40.9359710" lon="-4.1128890">
        <ele>1017.8</ele>
        <time>2019-04-28T06:17:29Z</time>
      </trkpt>
      <trkpt lat="40.9359930" lon="-4.1128520">
        <ele>1018.0</ele>
        <time>2019-04-28T06:17:30Z</time>
      </trkpt>
      <trkpt lat="40.9360110" lon="-4.1128210">
        <ele>1018.2</ele>
        <time>2019-04-28T06:17:31Z</time>
      </trkpt>
      <trkpt lat="40.9360230" lon="-4.1127900">
        <ele>1018.4</ele>
        <time>2019-04-28T06:17:32Z</time>
      </trkpt>
      <trkpt lat="40.9360400" lon="-4.1127390">
        <ele>1018.8</ele>
        <time>2019-04-28T06:17:33Z</time>
      </trkpt>
      <trkpt lat="40.9360560" lon="-4.1126800">
        <ele>1018.8</ele>
        <time>2019-04-28T06:17:34Z</time>
      </trkpt>
      <trkpt lat="40.9360630" lon="-4.1126210">
        <ele>1019.0</ele>
        <time>2019-04-28T06:17:35Z</time>
      </trkpt>
      <trkpt lat="40.9360640" lon="-4.1125550">
        <ele>1019.2</ele>
        <time>2019-04-28T06:17:36Z</time>
      </trkpt>
      <trkpt lat="40.9360600" lon="-4.1124890">
        <ele>1019.2</ele>
        <time>2019-04-28T06:17:37Z</time>
      </trkpt>
      <trkpt lat="40.9360450" lon="-4.1124390">
        <ele>1019.2</ele>
        <time>2019-04-28T06:17:38Z</time>
      </trkpt>
      <trkpt lat="40.9360210" lon="-4.1123820">
        <ele>1019.4</ele>
        <time>2019-04-28T06:17:39Z</time>
      </trkpt>
      <trkpt lat="40.9359930" lon="-4.1123360">
        <ele>1019.4</ele>
        <time>2019-04-28T06:17:40Z</time>
      </trkpt>
      <trkpt lat="40.9359630" lon="-4.1122850">
        <ele>1019.6</ele>
        <time>2019-04-28T06:17:41Z</time>
      </trkpt>
      <trkpt lat="40.9359340" lon="-4.1122440">
        <ele>1019.6</ele>
        <time>2019-04-28T06:17:42Z</time>
      </trkpt>
      <trkpt lat="40.9359040" lon="-4.1122040">
        <ele>1019.6</ele>
        <time>2019-04-28T06:17:43Z</time>
      </trkpt>
      <trkpt lat="40.9358740" lon="-4.1121620">
        <ele>1019.6</ele>
        <time>2019-04-28T06:17:44Z</time>
      </trkpt>
      <trkpt lat="40.9358420" lon="-4.1121160">
        <ele>1019.6</ele>
        <time>2019-04-28T06:17:45Z</time>
      </trkpt>
      <trkpt lat="40.9358100" lon="-4.1120720">
        <ele>1019.6</ele>
        <time>2019-04-28T06:17:46Z</time>
      </trkpt>
      <trkpt lat="40.9357790" lon="-4.1120370">
        <ele>1019.6</ele>
        <time>2019-04-28T06:17:47Z</time>
      </trkpt>
      <trkpt lat="40.9357500" lon="-4.1120020">
        <ele>1019.6</ele>
        <time>2019-04-28T06:17:48Z</time>
      </trkpt>
      <trkpt lat="40.9357180" lon="-4.1119520">
        <ele>1019.8</ele>
        <time>2019-04-28T06:17:49Z</time>
      </trkpt>
      <trkpt lat="40.9356880" lon="-4.1119050">
        <ele>1019.8</ele>
        <time>2019-04-28T06:17:50Z</time>
      </trkpt>
      <trkpt lat="40.9356570" lon="-4.1118570">
        <ele>1019.8</ele>
        <time>2019-04-28T06:17:51Z</time>
      </trkpt>
      <trkpt lat="40.9356250" lon="-4.1118100">
        <ele>1020.0</ele>
        <time>2019-04-28T06:17:52Z</time>
      </trkpt>
      <trkpt lat="40.9355940" lon="-4.1117660">
        <ele>1020.0</ele>
        <time>2019-04-28T06:17:53Z</time>
      </trkpt>
      <trkpt lat="40.9355640" lon="-4.1117210">
        <ele>1020.0</ele>
        <time>2019-04-28T06:17:54Z</time>
      </trkpt>
      <trkpt lat="40.9355350" lon="-4.1116790">
        <ele>1020.2</ele>
        <time>2019-04-28T06:17:55Z</time>
      </trkpt>
      <trkpt lat="40.9355050" lon="-4.1116450">
        <ele>1020.2</ele>
        <time>2019-04-28T06:17:56Z</time>
      </trkpt>
      <trkpt lat="40.9354750" lon="-4.1116070">
        <ele>1020.2</ele>
        <time>2019-04-28T06:17:57Z</time>
      </trkpt>
      <trkpt lat="40.9354470" lon="-4.1115720">
        <ele>1020.4</ele>
        <time>2019-04-28T06:17:58Z</time>
      </trkpt>
      <trkpt lat="40.9354190" lon="-4.1115220">
        <ele>1020.4</ele>
        <time>2019-04-28T06:17:59Z</time>
      </trkpt>
      <trkpt lat="40.9353910" lon="-4.1114820">
        <ele>1020.4</ele>
        <time>2019-04-28T06:18:00Z</time>
      </trkpt>
      <trkpt lat="40.9353590" lon="-4.1114320">
        <ele>1020.6</ele>
        <time>2019-04-28T06:18:01Z</time>
      </trkpt>
      <trkpt lat="40.9353290" lon="-4.1113960">
        <ele>1020.6</ele>
        <time>2019-04-28T06:18:02Z</time>
      </trkpt>
      <trkpt lat="40.9352990" lon="-4.1113580">
        <ele>1020.8</ele>
        <time>2019-04-28T06:18:03Z</time>
      </trkpt>
      <trkpt lat="40.9352680" lon="-4.1113160">
        <ele>1020.8</ele>
        <time>2019-04-28T06:18:04Z</time>
      </trkpt>
      <trkpt lat="40.9352360" lon="-4.1112740">
        <ele>1021.0</ele>
        <time>2019-04-28T06:18:05Z</time>
      </trkpt>
      <trkpt lat="40.9352070" lon="-4.1112320">
        <ele>1021.0</ele>
        <time>2019-04-28T06:18:06Z</time>
      </trkpt>
      <trkpt lat="40.9351750" lon="-4.1111900">
        <ele>1021.2</ele>
        <time>2019-04-28T06:18:07Z</time>
      </trkpt>
      <trkpt lat="40.9351440" lon="-4.1111500">
        <ele>1021.2</ele>
        <time>2019-04-28T06:18:08Z</time>
      </trkpt>
      <trkpt lat="40.9351090" lon="-4.1111030">
        <ele>1021.2</ele>
        <time>2019-04-28T06:18:09Z</time>
      </trkpt>
      <trkpt lat="40.9350740" lon="-4.1110560">
        <ele>1021.4</ele>
        <time>2019-04-28T06:18:10Z</time>
      </trkpt>
      <trkpt lat="40.9350430" lon="-4.1110140">
        <ele>1021.4</ele>
        <time>2019-04-28T06:18:11Z</time>
      </trkpt>
      <trkpt lat="40.9350120" lon="-4.1109750">
        <ele>1021.6</ele>
        <time>2019-04-28T06:18:12Z</time>
      </trkpt>
      <trkpt lat="40.9349880" lon="-4.1109490">
        <ele>1021.6</ele>
        <time>2019-04-28T06:18:13Z</time>
      </trkpt>
      <trkpt lat="40.9349600" lon="-4.1109100">
        <ele>1021.8</ele>
        <time>2019-04-28T06:18:14Z</time>
      </trkpt>
      <trkpt lat="40.9349330" lon="-4.1108770">
        <ele>1021.8</ele>
        <time>2019-04-28T06:18:15Z</time>
      </trkpt>
      <trkpt lat="40.9349030" lon="-4.1108380">
        <ele>1022.0</ele>
        <time>2019-04-28T06:18:16Z</time>
      </trkpt>
      <trkpt lat="40.9348740" lon="-4.1108110">
        <ele>1022.2</ele>
        <time>2019-04-28T06:18:17Z</time>
      </trkpt>
      <trkpt lat="40.9348450" lon="-4.1107760">
        <ele>1022.2</ele>
        <time>2019-04-28T06:18:18Z</time>
      </trkpt>
      <trkpt lat="40.9348140" lon="-4.1107370">
        <ele>1022.4</ele>
        <time>2019-04-28T06:18:19Z</time>
      </trkpt>
      <trkpt lat="40.9347840" lon="-4.1106990">
        <ele>1022.4</ele>
        <time>2019-04-28T06:18:20Z</time>
      </trkpt>
      <trkpt lat="40.9347530" lon="-4.1106650">
        <ele>1022.6</ele>
        <time>2019-04-28T06:18:21Z</time>
      </trkpt>
      <trkpt lat="40.9347220" lon="-4.1106260">
        <ele>1022.8</ele>
        <time>2019-04-28T06:18:22Z</time>
      </trkpt>
      <trkpt lat="40.9346910" lon="-4.1105800">
        <ele>1022.8</ele>
        <time>2019-04-28T06:18:23Z</time>
      </trkpt>
      <trkpt lat="40.9346580" lon="-4.1105370">
        <ele>1023.0</ele>
        <time>2019-04-28T06:18:24Z</time>
      </trkpt>
      <trkpt lat="40.9346250" lon="-4.1104980">
        <ele>1023.2</ele>
        <time>2019-04-28T06:18:25Z</time>
      </trkpt>
      <trkpt lat="40.9345910" lon="-4.1104590">
        <ele>1023.4</ele>
        <time>2019-04-28T06:18:26Z</time>
      </trkpt>
      <trkpt lat="40.9345570" lon="-4.1104190">
        <ele>1023.6</ele>
        <time>2019-04-28T06:18:27Z</time>
      </trkpt>
      <trkpt lat="40.9345280" lon="-4.1103840">
        <ele>1023.6</ele>
        <time>2019-04-28T06:18:28Z</time>
      </trkpt>
      <trkpt lat="40.9344940" lon="-4.1103350">
        <ele>1024.0</ele>
        <time>2019-04-28T06:18:29Z</time>
      </trkpt>
      <trkpt lat="40.9344630" lon="-4.1102890">
        <ele>1024.2</ele>
        <time>2019-04-28T06:18:30Z</time>
      </trkpt>
      <trkpt lat="40.9344310" lon="-4.1102470">
        <ele>1024.2</ele>
        <time>2019-04-28T06:18:31Z</time>
      </trkpt>
      <trkpt lat="40.9343970" lon="-4.1102050">
        <ele>1024.6</ele>
        <time>2019-04-28T06:18:32Z</time>
      </trkpt>
      <trkpt lat="40.9343620" lon="-4.1101690">
        <ele>1024.8</ele>
        <time>2019-04-28T06:18:33Z</time>
      </trkpt>
      <trkpt lat="40.9343280" lon="-4.1101380">
        <ele>1025.0</ele>
        <time>2019-04-28T06:18:34Z</time>
      </trkpt>
      <trkpt lat="40.9342960" lon="-4.1101000">
        <ele>1025.2</ele>
        <time>2019-04-28T06:18:35Z</time>
      </trkpt>
      <trkpt lat="40.9342640" lon="-4.1100580">
        <ele>1025.4</ele>
        <time>2019-04-28T06:18:36Z</time>
      </trkpt>
      <trkpt lat="40.9342300" lon="-4.1100120">
        <ele>1025.6</ele>
        <time>2019-04-28T06:18:37Z</time>
      </trkpt>
      <trkpt lat="40.9342000" lon="-4.1099740">
        <ele>1026.0</ele>
        <time>2019-04-28T06:18:38Z</time>
      </trkpt>
      <trkpt lat="40.9341710" lon="-4.1099290">
        <ele>1026.0</ele>
        <time>2019-04-28T06:18:39Z</time>
      </trkpt>
      <trkpt lat="40.9341460" lon="-4.1098790">
        <ele>1026.2</ele>
        <time>2019-04-28T06:18:40Z</time>
      </trkpt>
      <trkpt lat="40.9341240" lon="-4.1098310">
        <ele>1026.4</ele>
        <time>2019-04-28T06:18:41Z</time>
      </trkpt>
      <trkpt lat="40.9341060" lon="-4.1097900">
        <ele>1026.6</ele>
        <time>2019-04-28T06:18:42Z</time>
      </trkpt>
      <trkpt lat="40.9340900" lon="-4.1097560">
        <ele>1026.8</ele>
        <time>2019-04-28T06:18:43Z</time>
      </trkpt>
      <trkpt lat="40.9340750" lon="-4.1097270">
        <ele>1027.0</ele>
        <time>2019-04-28T06:18:44Z</time>
      </trkpt>
      <trkpt lat="40.9340570" lon="-4.1097000">
        <ele>1027.2</ele>
        <time>2019-04-28T06:18:45Z</time>
      </trkpt>
      <trkpt lat="40.9340280" lon="-4.1096740">
        <ele>1027.4</ele>
        <time>2019-04-28T06:18:46Z</time>
      </trkpt>
      <trkpt lat="40.9340020" lon="-4.1096510">
        <ele>1027.6</ele>
        <time>2019-04-28T06:18:47Z</time>
      </trkpt>
      <trkpt lat="40.9339740" lon="-4.1096170">
        <ele>1027.8</ele>
        <time>2019-04-28T06:18:48Z</time>
      </trkpt>
      <trkpt lat="40.9339460" lon="-4.1095880">
        <ele>1028.0</ele>
        <time>2019-04-28T06:18:49Z</time>
      </trkpt>
      <trkpt lat="40.9339160" lon="-4.1095530">
        <ele>1028.2</ele>
        <time>2019-04-28T06:18:50Z</time>
      </trkpt>
      <trkpt lat="40.9338860" lon="-4.1095190">
        <ele>1028.4</ele>
        <time>2019-04-28T06:18:51Z</time>
      </trkpt>
      <trkpt lat="40.9338560" lon="-4.1094790">
        <ele>1028.8</ele>
        <time>2019-04-28T06:18:52Z</time>
      </trkpt>
      <trkpt lat="40.9338270" lon="-4.1094430">
        <ele>1029.0</ele>
        <time>2019-04-28T06:18:53Z</time>
      </trkpt>
      <trkpt lat="40.9338010" lon="-4.1094120">
        <ele>1029.4</ele>
        <time>2019-04-28T06:18:54Z</time>
      </trkpt>
      <trkpt lat="40.9337720" lon="-4.1093800">
        <ele>1029.6</ele>
        <time>2019-04-28T06:18:55Z</time>
      </trkpt>
      <trkpt lat="40.9337430" lon="-4.1093440">
        <ele>1030.0</ele>
        <time>2019-04-28T06:18:56Z</time>
      </trkpt>
      <trkpt lat="40.9337140" lon="-4.1093070">
        <ele>1030.2</ele>
        <time>2019-04-28T06:18:57Z</time>
      </trkpt>
      <trkpt lat="40.9336830" lon="-4.1092730">
        <ele>1030.4</ele>
        <time>2019-04-28T06:18:58Z</time>
      </trkpt>
      <trkpt lat="40.9336530" lon="-4.1092370">
        <ele>1030.6</ele>
        <time>2019-04-28T06:18:59Z</time>
      </trkpt>
      <trkpt lat="40.9336230" lon="-4.1092040">
        <ele>1031.0</ele>
        <time>2019-04-28T06:19:00Z</time>
      </trkpt>
      <trkpt lat="40.9335910" lon="-4.1091700">
        <ele>1031.4</ele>
        <time>2019-04-28T06:19:01Z</time>
      </trkpt>
      <trkpt lat="40.9335570" lon="-4.1091330">
        <ele>1031.8</ele>
        <time>2019-04-28T06:19:02Z</time>
      </trkpt>
      <trkpt lat="40.9335250" lon="-4.1091010">
        <ele>1032.0</ele>
        <time>2019-04-28T06:19:03Z</time>
      </trkpt>
      <trkpt lat="40.9334940" lon="-4.1090690">
        <ele>1032.2</ele>
        <time>2019-04-28T06:19:04Z</time>
      </trkpt>
      <trkpt lat="40.9334650" lon="-4.1090400">
        <ele>1032.4</ele>
        <time>2019-04-28T06:19:05Z</time>
      </trkpt>
      <trkpt lat="40.9334370" lon="-4.1090140">
        <ele>1032.6</ele>
        <time>2019-04-28T06:19:06Z</time>
      </trkpt>
      <trkpt lat="40.9334100" lon="-4.1089920">
        <ele>1032.8</ele>
        <time>2019-04-28T06:19:07Z</time>
      </trkpt>
      <trkpt lat="40.9333820" lon="-4.1089660">
        <ele>1033.2</ele>
        <time>2019-04-28T06:19:08Z</time>
      </trkpt>
      <trkpt lat="40.9333570" lon="-4.1089380">
        <ele>1033.4</ele>
        <time>2019-04-28T06:19:09Z</time>
      </trkpt>
      <trkpt lat="40.9333330" lon="-4.1089130">
        <ele>1033.6</ele>
        <time>2019-04-28T06:19:10Z</time>
      </trkpt>
      <trkpt lat="40.9333070" lon="-4.1088840">
        <ele>1033.8</ele>
        <time>2019-04-28T06:19:11Z</time>
      </trkpt>
      <trkpt lat="40.9332800" lon="-4.1088570">
        <ele>1034.0</ele>
        <time>2019-04-28T06:19:12Z</time>
      </trkpt>
      <trkpt lat="40.9332550" lon="-4.1088300">
        <ele>1034.4</ele>
        <time>2019-04-28T06:19:13Z</time>
      </trkpt>
      <trkpt lat="40.9332310" lon="-4.1088010">
        <ele>1034.6</ele>
        <time>2019-04-28T06:19:14Z</time>
      </trkpt>
      <trkpt lat="40.9332060" lon="-4.1087670">
        <ele>1034.8</ele>
        <time>2019-04-28T06:19:15Z</time>
      </trkpt>
      <trkpt lat="40.9331790" lon="-4.1087330">
        <ele>1035.0</ele>
        <time>2019-04-28T06:19:16Z</time>
      </trkpt>
      <trkpt lat="40.9331530" lon="-4.1087010">
        <ele>1035.2</ele>
        <time>2019-04-28T06:19:17Z</time>
      </trkpt>
      <trkpt lat="40.9331270" lon="-4.1086710">
        <ele>1035.4</ele>
        <time>2019-04-28T06:19:18Z</time>
      </trkpt>
      <trkpt lat="40.9331010" lon="-4.1086440">
        <ele>1035.6</ele>
        <time>2019-04-28T06:19:19Z</time>
      </trkpt>
      <trkpt lat="40.9330740" lon="-4.1086100">
        <ele>1035.8</ele>
        <time>2019-04-28T06:19:20Z</time>
      </trkpt>
      <trkpt lat="40.9330470" lon="-4.1085770">
        <ele>1036.0</ele>
        <time>2019-04-28T06:19:21Z</time>
      </trkpt>
      <trkpt lat="40.9330200" lon="-4.1085440">
        <ele>1036.2</ele>
        <time>2019-04-28T06:19:22Z</time>
      </trkpt>
      <trkpt lat="40.9329960" lon="-4.1085130">
        <ele>1036.6</ele>
        <time>2019-04-28T06:19:23Z</time>
      </trkpt>
      <trkpt lat="40.9329720" lon="-4.1084790">
        <ele>1036.8</ele>
        <time>2019-04-28T06:19:24Z</time>
      </trkpt>
      <trkpt lat="40.9329490" lon="-4.1084390">
        <ele>1037.0</ele>
        <time>2019-04-28T06:19:25Z</time>
      </trkpt>
      <trkpt lat="40.9329250" lon="-4.1084050">
        <ele>1037.2</ele>
        <time>2019-04-28T06:19:26Z</time>
      </trkpt>
      <trkpt lat="40.9329000" lon="-4.1083700">
        <ele>1037.4</ele>
        <time>2019-04-28T06:19:27Z</time>
      </trkpt>
      <trkpt lat="40.9328780" lon="-4.1083350">
        <ele>1037.6</ele>
        <time>2019-04-28T06:19:28Z</time>
      </trkpt>
      <trkpt lat="40.9328550" lon="-4.1082920">
        <ele>1037.8</ele>
        <time>2019-04-28T06:19:29Z</time>
      </trkpt>
      <trkpt lat="40.9328330" lon="-4.1082550">
        <ele>1037.8</ele>
        <time>2019-04-28T06:19:30Z</time>
      </trkpt>
      <trkpt lat="40.9328110" lon="-4.1082200">
        <ele>1038.0</ele>
        <time>2019-04-28T06:19:31Z</time>
      </trkpt>
      <trkpt lat="40.9327920" lon="-4.1081860">
        <ele>1038.2</ele>
        <time>2019-04-28T06:19:32Z</time>
      </trkpt>
      <trkpt lat="40.9327720" lon="-4.1081460">
        <ele>1038.4</ele>
        <time>2019-04-28T06:19:33Z</time>
      </trkpt>
      <trkpt lat="40.9327480" lon="-4.1081130">
        <ele>1038.6</ele>
        <time>2019-04-28T06:19:34Z</time>
      </trkpt>
      <trkpt lat="40.9327270" lon="-4.1080800">
        <ele>1038.8</ele>
        <time>2019-04-28T06:19:35Z</time>
      </trkpt>
      <trkpt lat="40.9327070" lon="-4.1080430">
        <ele>1039.0</ele>
        <time>2019-04-28T06:19:36Z</time>
      </trkpt>
      <trkpt lat="40.9326840" lon="-4.1080060">
        <ele>1039.4</ele>
        <time>2019-04-28T06:19:37Z</time>
      </trkpt>
      <trkpt lat="40.9326610" lon="-4.1079710">
        <ele>1039.6</ele>
        <time>2019-04-28T06:19:38Z</time>
      </trkpt>
      <trkpt lat="40.9326380" lon="-4.1079430">
        <ele>1039.8</ele>
        <time>2019-04-28T06:19:39Z</time>
      </trkpt>
      <trkpt lat="40.9326120" lon="-4.1079200">
        <ele>1040.0</ele>
        <time>2019-04-28T06:19:40Z</time>
      </trkpt>
      <trkpt lat="40.9325850" lon="-4.1079010">
        <ele>1040.2</ele>
        <time>2019-04-28T06:19:41Z</time>
      </trkpt>
      <trkpt lat="40.9325570" lon="-4.1078870">
        <ele>1040.2</ele>
        <time>2019-04-28T06:19:42Z</time>
      </trkpt>
      <trkpt lat="40.9325300" lon="-4.1078810">
        <ele>1040.4</ele>
        <time>2019-04-28T06:19:43Z</time>
      </trkpt>
      <trkpt lat="40.9325020" lon="-4.1078760">
        <ele>1040.8</ele>
        <time>2019-04-28T06:19:44Z</time>
      </trkpt>
      <trkpt lat="40.9324730" lon="-4.1078670">
        <ele>1041.0</ele>
        <time>2019-04-28T06:19:45Z</time>
      </trkpt>
      <trkpt lat="40.9324450" lon="-4.1078590">
        <ele>1041.2</ele>
        <time>2019-04-28T06:19:46Z</time>
      </trkpt>
      <trkpt lat="40.9324180" lon="-4.1078520">
        <ele>1041.6</ele>
        <time>2019-04-28T06:19:47Z</time>
      </trkpt>
      <trkpt lat="40.9323900" lon="-4.1078400">
        <ele>1041.6</ele>
        <time>2019-04-28T06:19:48Z</time>
      </trkpt>
      <trkpt lat="40.9323640" lon="-4.1078200">
        <ele>1041.8</ele>
        <time>2019-04-28T06:19:49Z</time>
      </trkpt>
      <trkpt lat="40.9323400" lon="-4.1077980">
        <ele>1042.0</ele>
        <time>2019-04-28T06:19:50Z</time>
      </trkpt>
      <trkpt lat="40.9323170" lon="-4.1077710">
        <ele>1042.4</ele>
        <time>2019-04-28T06:19:51Z</time>
      </trkpt>
      <trkpt lat="40.9322930" lon="-4.1077380">
        <ele>1042.6</ele>
        <time>2019-04-28T06:19:52Z</time>
      </trkpt>
      <trkpt lat="40.9322740" lon="-4.1077060">
        <ele>1042.6</ele>
        <time>2019-04-28T06:19:53Z</time>
      </trkpt>
      <trkpt lat="40.9322570" lon="-4.1076660">
        <ele>1042.8</ele>
        <time>2019-04-28T06:19:54Z</time>
      </trkpt>
      <trkpt lat="40.9322410" lon="-4.1076230">
        <ele>1042.8</ele>
        <time>2019-04-28T06:19:55Z</time>
      </trkpt>
      <trkpt lat="40.9322290" lon="-4.1075820">
        <ele>1043.0</ele>
        <time>2019-04-28T06:19:56Z</time>
      </trkpt>
      <trkpt lat="40.9322190" lon="-4.1075410">
        <ele>1043.2</ele>
        <time>2019-04-28T06:19:57Z</time>
      </trkpt>
      <trkpt lat="40.9322050" lon="-4.1074970">
        <ele>1043.4</ele>
        <time>2019-04-28T06:19:58Z</time>
      </trkpt>
      <trkpt lat="40.9321900" lon="-4.1074560">
        <ele>1043.6</ele>
        <time>2019-04-28T06:19:59Z</time>
      </trkpt>
      <trkpt lat="40.9321710" lon="-4.1074120">
        <ele>1043.8</ele>
        <time>2019-04-28T06:20:00Z</time>
      </trkpt>
      <trkpt lat="40.9321530" lon="-4.1073760">
        <ele>1044.2</ele>
        <time>2019-04-28T06:20:01Z</time>
      </trkpt>
      <trkpt lat="40.9321320" lon="-4.1073430">
        <ele>1044.4</ele>
        <time>2019-04-28T06:20:02Z</time>
      </trkpt>
      <trkpt lat="40.9321100" lon="-4.1073110">
        <ele>1044.6</ele>
        <time>2019-04-28T06:20:03Z</time>
      </trkpt>
      <trkpt lat="40.9320850" lon="-4.1072860">
        <ele>1044.8</ele>
        <time>2019-04-28T06:20:04Z</time>
      </trkpt>
      <trkpt lat="40.9320570" lon="-4.1072650">
        <ele>1045.2</ele>
        <time>2019-04-28T06:20:05Z</time>
      </trkpt>
      <trkpt lat="40.9320270" lon="-4.1072550">
        <ele>1045.4</ele>
        <time>2019-04-28T06:20:06Z</time>
      </trkpt>
      <trkpt lat="40.9319960" lon="-4.1072450">
        <ele>1045.4</ele>
        <time>2019-04-28T06:20:07Z</time>
      </trkpt>
      <trkpt lat="40.9319660" lon="-4.1072300">
        <ele>1045.8</ele>
        <time>2019-04-28T06:20:08Z</time>
      </trkpt>
      <trkpt lat="40.9319350" lon="-4.1072200">
        <ele>1046.0</ele>
        <time>2019-04-28T06:20:09Z</time>
      </trkpt>
      <trkpt lat="40.9319040" lon="-4.1072160">
        <ele>1046.2</ele>
        <time>2019-04-28T06:20:10Z</time>
      </trkpt>
      <trkpt lat="40.9318730" lon="-4.1072130">
        <ele>1046.4</ele>
        <time>2019-04-28T06:20:11Z</time>
      </trkpt>
      <trkpt lat="40.9318410" lon="-4.1072140">
        <ele>1046.4</ele>
        <time>2019-04-28T06:20:12Z</time>
      </trkpt>
      <trkpt lat="40.9318100" lon="-4.1072160">
        <ele>1046.6</ele>
        <time>2019-04-28T06:20:13Z</time>
      </trkpt>
      <trkpt lat="40.9317780" lon="-4.1072180">
        <ele>1046.8</ele>
        <time>2019-04-28T06:20:14Z</time>
      </trkpt>
      <trkpt lat="40.9317470" lon="-4.1072190">
        <ele>1047.0</ele>
        <time>2019-04-28T06:20:15Z</time>
      </trkpt>
      <trkpt lat="40.9317170" lon="-4.1072200">
        <ele>1047.2</ele>
        <time>2019-04-28T06:20:16Z</time>
      </trkpt>
      <trkpt lat="40.9316850" lon="-4.1072270">
        <ele>1047.4</ele>
        <time>2019-04-28T06:20:17Z</time>
      </trkpt>
      <trkpt lat="40.9316560" lon="-4.1072330">
        <ele>1047.6</ele>
        <time>2019-04-28T06:20:18Z</time>
      </trkpt>
      <trkpt lat="40.9316260" lon="-4.1072360">
        <ele>1047.8</ele>
        <time>2019-04-28T06:20:19Z</time>
      </trkpt>
      <trkpt lat="40.9315960" lon="-4.1072380">
        <ele>1048.0</ele>
        <time>2019-04-28T06:20:20Z</time>
      </trkpt>
      <trkpt lat="40.9315670" lon="-4.1072420">
        <ele>1048.2</ele>
        <time>2019-04-28T06:20:21Z</time>
      </trkpt>
      <trkpt lat="40.9315380" lon="-4.1072450">
        <ele>1048.4</ele>
        <time>2019-04-28T06:20:22Z</time>
      </trkpt>
      <trkpt lat="40.9315100" lon="-4.1072470">
        <ele>1048.6</ele>
        <time>2019-04-28T06:20:23Z</time>
      </trkpt>
      <trkpt lat="40.9314810" lon="-4.1072510">
        <ele>1048.8</ele>
        <time>2019-04-28T06:20:24Z</time>
      </trkpt>
      <trkpt lat="40.9314520" lon="-4.1072550">
        <ele>1049.0</ele>
        <time>2019-04-28T06:20:25Z</time>
      </trkpt>
      <trkpt lat="40.9314240" lon="-4.1072530">
        <ele>1049.2</ele>
        <time>2019-04-28T06:20:26Z</time>
      </trkpt>
      <trkpt lat="40.9313970" lon="-4.1072540">
        <ele>1049.4</ele>
        <time>2019-04-28T06:20:27Z</time>
      </trkpt>
      <trkpt lat="40.9313710" lon="-4.1072540">
        <ele>1049.6</ele>
        <time>2019-04-28T06:20:28Z</time>
      </trkpt>
      <trkpt lat="40.9313440" lon="-4.1072490">
        <ele>1049.6</ele>
        <time>2019-04-28T06:20:29Z</time>
      </trkpt>
      <trkpt lat="40.9313200" lon="-4.1072430">
        <ele>1050.0</ele>
        <time>2019-04-28T06:20:30Z</time>
      </trkpt>
      <trkpt lat="40.9312940" lon="-4.1072290">
        <ele>1050.0</ele>
        <time>2019-04-28T06:20:31Z</time>
      </trkpt>
      <trkpt lat="40.9312670" lon="-4.1072110">
        <ele>1050.0</ele>
        <time>2019-04-28T06:20:32Z</time>
      </trkpt>
      <trkpt lat="40.9312430" lon="-4.1071860">
        <ele>1050.2</ele>
        <time>2019-04-28T06:20:33Z</time>
      </trkpt>
      <trkpt lat="40.9312170" lon="-4.1071600">
        <ele>1050.2</ele>
        <time>2019-04-28T06:20:34Z</time>
      </trkpt>
      <trkpt lat="40.9311900" lon="-4.1071390">
        <ele>1050.4</ele>
        <time>2019-04-28T06:20:35Z</time>
      </trkpt>
      <trkpt lat="40.9311620" lon="-4.1071180">
        <ele>1050.4</ele>
        <time>2019-04-28T06:20:36Z</time>
      </trkpt>
      <trkpt lat="40.9311340" lon="-4.1071000">
        <ele>1050.4</ele>
        <time>2019-04-28T06:20:37Z</time>
      </trkpt>
      <trkpt lat="40.9311040" lon="-4.1070810">
        <ele>1050.6</ele>
        <time>2019-04-28T06:20:38Z</time>
      </trkpt>
      <trkpt lat="40.9310730" lon="-4.1070640">
        <ele>1050.6</ele>
        <time>2019-04-28T06:20:39Z</time>
      </trkpt>
      <trkpt lat="40.9310420" lon="-4.1070450">
        <ele>1050.6</ele>
        <time>2019-04-28T06:20:40Z</time>
      </trkpt>
      <trkpt lat="40.9310120" lon="-4.1070270">
        <ele>1050.8</ele>
        <time>2019-04-28T06:20:41Z</time>
      </trkpt>
      <trkpt lat="40.9309820" lon="-4.1070090">
        <ele>1050.8</ele>
        <time>2019-04-28T06:20:42Z</time>
      </trkpt>
      <trkpt lat="40.9309540" lon="-4.1069920">
        <ele>1050.8</ele>
        <time>2019-04-28T06:20:43Z</time>
      </trkpt>
      <trkpt lat="40.9309270" lon="-4.1069760">
        <ele>1051.0</ele>
        <time>2019-04-28T06:20:44Z</time>
      </trkpt>
      <trkpt lat="40.9308990" lon="-4.1069630">
        <ele>1051.0</ele>
        <time>2019-04-28T06:20:45Z</time>
      </trkpt>
      <trkpt lat="40.9308680" lon="-4.1069430">
        <ele>1051.0</ele>
        <time>2019-04-28T06:20:46Z</time>
      </trkpt>
      <trkpt lat="40.9308390" lon="-4.1069230">
        <ele>1051.2</ele>
        <time>2019-04-28T06:20:47Z</time>
      </trkpt>
      <trkpt lat="40.9308060" lon="-4.1069030">
        <ele>1051.2</ele>
        <time>2019-04-28T06:20:48Z</time>
      </trkpt>
      <trkpt lat="40.9307760" lon="-4.1068860">
        <ele>1051.2</ele>
        <time>2019-04-28T06:20:49Z</time>
      </trkpt>
      <trkpt lat="40.9307450" lon="-4.1068650">
        <ele>1051.4</ele>
        <time>2019-04-28T06:20:50Z</time>
      </trkpt>
      <trkpt lat="40.9307150" lon="-4.1068440">
        <ele>1051.4</ele>
        <time>2019-04-28T06:20:51Z</time>
      </trkpt>
      <trkpt lat="40.9306870" lon="-4.1068250">
        <ele>1051.6</ele>
        <time>2019-04-28T06:20:52Z</time>
      </trkpt>
      <trkpt lat="40.9306580" lon="-4.1068030">
        <ele>1051.6</ele>
        <time>2019-04-28T06:20:53Z</time>
      </trkpt>
      <trkpt lat="40.9306280" lon="-4.1067820">
        <ele>1051.8</ele>
        <time>2019-04-28T06:20:54Z</time>
      </trkpt>
      <trkpt lat="40.9305960" lon="-4.1067650">
        <ele>1051.8</ele>
        <time>2019-04-28T06:20:55Z</time>
      </trkpt>
      <trkpt lat="40.9305680" lon="-4.1067440">
        <ele>1051.8</ele>
        <time>2019-04-28T06:20:56Z</time>
      </trkpt>
      <trkpt lat="40.9305420" lon="-4.1067210">
        <ele>1052.0</ele>
        <time>2019-04-28T06:20:57Z</time>
      </trkpt>
      <trkpt lat="40.9305150" lon="-4.1066990">
        <ele>1052.0</ele>
        <time>2019-04-28T06:20:58Z</time>
      </trkpt>
      <trkpt lat="40.9304870" lon="-4.1066770">
        <ele>1052.2</ele>
        <time>2019-04-28T06:20:59Z</time>
      </trkpt>
      <trkpt lat="40.9304590" lon="-4.1066560">
        <ele>1052.4</ele>
        <time>2019-04-28T06:21:00Z</time>
      </trkpt>
      <trkpt lat="40.9304310" lon="-4.1066390">
        <ele>1052.4</ele>
        <time>2019-04-28T06:21:01Z</time>
      </trkpt>
      <trkpt lat="40.9304030" lon="-4.1066240">
        <ele>1052.6</ele>
        <time>2019-04-28T06:21:02Z</time>
      </trkpt>
      <trkpt lat="40.9303750" lon="-4.1066060">
        <ele>1052.6</ele>
        <time>2019-04-28T06:21:03Z</time>
      </trkpt>
      <trkpt lat="40.9303470" lon="-4.1065820">
        <ele>1053.0</ele>
        <time>2019-04-28T06:21:04Z</time>
      </trkpt>
      <trkpt lat="40.9303210" lon="-4.1065540">
        <ele>1053.0</ele>
        <time>2019-04-28T06:21:05Z</time>
      </trkpt>
      <trkpt lat="40.9302980" lon="-4.1065180">
        <ele>1053.2</ele>
        <time>2019-04-28T06:21:06Z</time>
      </trkpt>
      <trkpt lat="40.9302690" lon="-4.1064890">
        <ele>1053.2</ele>
        <time>2019-04-28T06:21:07Z</time>
      </trkpt>
      <trkpt lat="40.9302390" lon="-4.1064680">
        <ele>1053.6</ele>
        <time>2019-04-28T06:21:08Z</time>
      </trkpt>
      <trkpt lat="40.9302120" lon="-4.1064510">
        <ele>1053.8</ele>
        <time>2019-04-28T06:21:09Z</time>
      </trkpt>
      <trkpt lat="40.9301850" lon="-4.1064300">
        <ele>1054.0</ele>
        <time>2019-04-28T06:21:10Z</time>
      </trkpt>
      <trkpt lat="40.9301590" lon="-4.1063900">
        <ele>1054.0</ele>
        <time>2019-04-28T06:21:11Z</time>
      </trkpt>
      <trkpt lat="40.9301350" lon="-4.1063620">
        <ele>1054.4</ele>
        <time>2019-04-28T06:21:12Z</time>
      </trkpt>
      <trkpt lat="40.9301100" lon="-4.1063340">
        <ele>1054.4</ele>
        <time>2019-04-28T06:21:13Z</time>
      </trkpt>
      <trkpt lat="40.9300830" lon="-4.1063080">
        <ele>1054.8</ele>
        <time>2019-04-28T06:21:14Z</time>
      </trkpt>
      <trkpt lat="40.9300560" lon="-4.1062860">
        <ele>1055.0</ele>
        <time>2019-04-28T06:21:15Z</time>
      </trkpt>
      <trkpt lat="40.9300290" lon="-4.1062700">
        <ele>1055.2</ele>
        <time>2019-04-28T06:21:16Z</time>
      </trkpt>
      <trkpt lat="40.9300000" lon="-4.1062480">
        <ele>1055.2</ele>
        <time>2019-04-28T06:21:17Z</time>
      </trkpt>
      <trkpt lat="40.9299710" lon="-4.1062230">
        <ele>1055.2</ele>
        <time>2019-04-28T06:21:18Z</time>
      </trkpt>
      <trkpt lat="40.9299420" lon="-4.1061970">
        <ele>1055.2</ele>
        <time>2019-04-28T06:21:19Z</time>
      </trkpt>
      <trkpt lat="40.9299160" lon="-4.1061710">
        <ele>1055.4</ele>
        <time>2019-04-28T06:21:20Z</time>
      </trkpt>
      <trkpt lat="40.9298910" lon="-4.1061470">
        <ele>1055.4</ele>
        <time>2019-04-28T06:21:21Z</time>
      </trkpt>
      <trkpt lat="40.9298640" lon="-4.1061280">
        <ele>1055.4</ele>
        <time>2019-04-28T06:21:22Z</time>
      </trkpt>
      <trkpt lat="40.9298360" lon="-4.1061120">
        <ele>1055.4</ele>
        <time>2019-04-28T06:21:23Z</time>
      </trkpt>
      <trkpt lat="40.9298110" lon="-4.1060910">
        <ele>1055.6</ele>
        <time>2019-04-28T06:21:24Z</time>
      </trkpt>
      <trkpt lat="40.9297900" lon="-4.1060640">
        <ele>1055.6</ele>
        <time>2019-04-28T06:21:25Z</time>
      </trkpt>
      <trkpt lat="40.9297710" lon="-4.1060330">
        <ele>1055.6</ele>
        <time>2019-04-28T06:21:26Z</time>
      </trkpt>
      <trkpt lat="40.9297510" lon="-4.1060020">
        <ele>1055.6</ele>
        <time>2019-04-28T06:21:27Z</time>
      </trkpt>
      <trkpt lat="40.9297310" lon="-4.1059740">
        <ele>1055.6</ele>
        <time>2019-04-28T06:21:28Z</time>
      </trkpt>
      <trkpt lat="40.9297100" lon="-4.1059530">
        <ele>1055.6</ele>
        <time>2019-04-28T06:21:29Z</time>
      </trkpt>
      <trkpt lat="40.9296880" lon="-4.1059380">
        <ele>1055.6</ele>
        <time>2019-04-28T06:21:30Z</time>
      </trkpt>
      <trkpt lat="40.9296700" lon="-4.1059240">
        <ele>1055.6</ele>
        <time>2019-04-28T06:21:31Z</time>
      </trkpt>
      <trkpt lat="40.9296530" lon="-4.1059100">
        <ele>1055.8</ele>
        <time>2019-04-28T06:21:32Z</time>
      </trkpt>
      <trkpt lat="40.9296390" lon="-4.1058960">
        <ele>1055.8</ele>
        <time>2019-04-28T06:21:33Z</time>
      </trkpt>
      <trkpt lat="40.9296300" lon="-4.1058790">
        <ele>1055.8</ele>
        <time>2019-04-28T06:21:34Z</time>
      </trkpt>
      <trkpt lat="40.9296290" lon="-4.1058710">
        <ele>1055.8</ele>
        <time>2019-04-28T06:21:35Z</time>
      </trkpt>
      <trkpt lat="40.9296320" lon="-4.1058650">
        <ele>1055.8</ele>
        <time>2019-04-28T06:21:36Z</time>
      </trkpt>
      <trkpt lat="40.9296270" lon="-4.1058560">
        <ele>1055.8</ele>
        <time>2019-04-28T06:21:37Z</time>
      </trkpt>
      <trkpt lat="40.9296200" lon="-4.1058390">
        <ele>1055.8</ele>
        <time>2019-04-28T06:21:38Z</time>
      </trkpt>
      <trkpt lat="40.9296230" lon="-4.1058340">
        <ele>1055.8</ele>
        <time>2019-04-28T06:21:39Z</time>
      </trkpt>
      <trkpt lat="40.9296230" lon="-4.1058310">
        <ele>1055.8</ele>
        <time>2019-04-28T06:21:40Z</time>
      </trkpt>
      <trkpt lat="40.9296220" lon="-4.1058330">
        <ele>1055.8</ele>
        <time>2019-04-28T06:21:41Z</time>
      </trkpt>
      <trkpt lat="40.9296190" lon="-4.1058300">
        <ele>1055.8</ele>
        <time>2019-04-28T06:21:42Z</time>
      </trkpt>
      <trkpt lat="40.9296150" lon="-4.1058290">
        <ele>1055.8</ele>
        <time>2019-04-28T06:21:43Z</time>
      </trkpt>
      <trkpt lat="40.9296140" lon="-4.1058280">
        <ele>1055.8</ele>
        <time>2019-04-28T06:21:44Z</time>
      </trkpt>
      <trkpt lat="40.9296140" lon="-4.1058290">
        <ele>1055.8</ele>
        <time>2019-04-28T06:21:45Z</time>
      </trkpt>
      <trkpt lat="40.9296150" lon="-4.1058290">
        <ele>1055.8</ele>
        <time>2019-04-28T06:21:46Z</time>
      </trkpt>
      <trkpt lat="40.9296140" lon="-4.1058280">
        <ele>1055.8</ele>
        <time>2019-04-28T06:21:47Z</time>
      </trkpt>
      <trkpt lat="40.9295030" lon="-4.1057830">
        <ele>1055.8</ele>
        <time>2019-04-28T06:23:02Z</time>
      </trkpt>
      <trkpt lat="40.9294950" lon="-4.1057760">
        <ele>1055.8</ele>
        <time>2019-04-28T06:23:03Z</time>
      </trkpt>
      <trkpt lat="40.9294890" lon="-4.1057660">
        <ele>1055.8</ele>
        <time>2019-04-28T06:23:04Z</time>
      </trkpt>
      <trkpt lat="40.9294810" lon="-4.1057500">
        <ele>1055.8</ele>
        <time>2019-04-28T06:23:05Z</time>
      </trkpt>
      <trkpt lat="40.9294690" lon="-4.1057350">
        <ele>1055.8</ele>
        <time>2019-04-28T06:23:06Z</time>
      </trkpt>
      <trkpt lat="40.9294530" lon="-4.1057200">
        <ele>1055.8</ele>
        <time>2019-04-28T06:23:07Z</time>
      </trkpt>
      <trkpt lat="40.9294350" lon="-4.1057060">
        <ele>1055.8</ele>
        <time>2019-04-28T06:23:08Z</time>
      </trkpt>
      <trkpt lat="40.9294120" lon="-4.1056960">
        <ele>1055.8</ele>
        <time>2019-04-28T06:23:09Z</time>
      </trkpt>
      <trkpt lat="40.9293890" lon="-4.1056900">
        <ele>1055.8</ele>
        <time>2019-04-28T06:23:10Z</time>
      </trkpt>
      <trkpt lat="40.9293680" lon="-4.1056800">
        <ele>1055.8</ele>
        <time>2019-04-28T06:23:11Z</time>
      </trkpt>
      <trkpt lat="40.9293490" lon="-4.1056720">
        <ele>1055.8</ele>
        <time>2019-04-28T06:23:12Z</time>
      </trkpt>
      <trkpt lat="40.9293340" lon="-4.1056630">
        <ele>1055.8</ele>
        <time>2019-04-28T06:23:13Z</time>
      </trkpt>
      <trkpt lat="40.9293190" lon="-4.1056550">
        <ele>1055.8</ele>
        <time>2019-04-28T06:23:14Z</time>
      </trkpt>
      <trkpt lat="40.9293050" lon="-4.1056500">
        <ele>1055.8</ele>
        <time>2019-04-28T06:23:15Z</time>
      </trkpt>
      <trkpt lat="40.9292920" lon="-4.1056460">
        <ele>1055.8</ele>
        <time>2019-04-28T06:23:16Z</time>
      </trkpt>
      <trkpt lat="40.9292800" lon="-4.1056390">
        <ele>1055.8</ele>
        <time>2019-04-28T06:23:17Z</time>
      </trkpt>
      <trkpt lat="40.9292740" lon="-4.1056310">
        <ele>1055.8</ele>
        <time>2019-04-28T06:23:18Z</time>
      </trkpt>
      <trkpt lat="40.9292710" lon="-4.1056300">
        <ele>1055.8</ele>
        <time>2019-04-28T06:23:19Z</time>
      </trkpt>
      <trkpt lat="40.9292660" lon="-4.1056280">
        <ele>1055.8</ele>
        <time>2019-04-28T06:23:20Z</time>
      </trkpt>
      <trkpt lat="40.9292640" lon="-4.1056280">
        <ele>1055.6</ele>
        <time>2019-04-28T06:23:21Z</time>
      </trkpt>
      <trkpt lat="40.9292630" lon="-4.1056260">
        <ele>1055.6</ele>
        <time>2019-04-28T06:23:22Z</time>
      </trkpt>
      <trkpt lat="40.9292610" lon="-4.1056250">
        <ele>1055.6</ele>
        <time>2019-04-28T06:23:23Z</time>
      </trkpt>
      <trkpt lat="40.9292600" lon="-4.1056250">
        <ele>1055.8</ele>
        <time>2019-04-28T06:23:24Z</time>
      </trkpt>
      <trkpt lat="40.9292540" lon="-4.1056020">
        <ele>1055.8</ele>
        <time>2019-04-28T06:23:25Z</time>
      </trkpt>
      <trkpt lat="40.9291550" lon="-4.1055380">
        <ele>1055.8</ele>
        <time>2019-04-28T06:23:57Z</time>
      </trkpt>
      <trkpt lat="40.9291380" lon="-4.1055230">
        <ele>1055.8</ele>
        <time>2019-04-28T06:23:58Z</time>
      </trkpt>
      <trkpt lat="40.9291220" lon="-4.1055040">
        <ele>1055.8</ele>
        <time>2019-04-28T06:23:59Z</time>
      </trkpt>
      <trkpt lat="40.9291040" lon="-4.1054820">
        <ele>1055.6</ele>
        <time>2019-04-28T06:24:00Z</time>
      </trkpt>
      <trkpt lat="40.9290840" lon="-4.1054590">
        <ele>1055.6</ele>
        <time>2019-04-28T06:24:01Z</time>
      </trkpt>
      <trkpt lat="40.9290630" lon="-4.1054370">
        <ele>1055.6</ele>
        <time>2019-04-28T06:24:02Z</time>
      </trkpt>
      <trkpt lat="40.9290410" lon="-4.1054140">
        <ele>1055.8</ele>
        <time>2019-04-28T06:24:03Z</time>
      </trkpt>
      <trkpt lat="40.9290200" lon="-4.1053880">
        <ele>1055.6</ele>
        <time>2019-04-28T06:24:04Z</time>
      </trkpt>
      <trkpt lat="40.9289960" lon="-4.1053590">
        <ele>1055.6</ele>
        <time>2019-04-28T06:24:05Z</time>
      </trkpt>
      <trkpt lat="40.9289710" lon="-4.1053310">
        <ele>1055.6</ele>
        <time>2019-04-28T06:24:06Z</time>
      </trkpt>
      <trkpt lat="40.9289470" lon="-4.1053080">
        <ele>1055.6</ele>
        <time>2019-04-28T06:24:07Z</time>
      </trkpt>
      <trkpt lat="40.9289190" lon="-4.1052870">
        <ele>1055.8</ele>
        <time>2019-04-28T06:24:08Z</time>
      </trkpt>
      <trkpt lat="40.9288920" lon="-4.1052630">
        <ele>1055.8</ele>
        <time>2019-04-28T06:24:09Z</time>
      </trkpt>
      <trkpt lat="40.9288650" lon="-4.1052400">
        <ele>1055.8</ele>
        <time>2019-04-28T06:24:10Z</time>
      </trkpt>
      <trkpt lat="40.9288380" lon="-4.1052150">
        <ele>1055.8</ele>
        <time>2019-04-28T06:24:11Z</time>
      </trkpt>
      <trkpt lat="40.9288090" lon="-4.1051920">
        <ele>1055.8</ele>
        <time>2019-04-28T06:24:12Z</time>
      </trkpt>
      <trkpt lat="40.9287780" lon="-4.1051730">
        <ele>1055.8</ele>
        <time>2019-04-28T06:24:13Z</time>
      </trkpt>
      <trkpt lat="40.9287460" lon="-4.1051610">
        <ele>1055.8</ele>
        <time>2019-04-28T06:24:14Z</time>
      </trkpt>
      <trkpt lat="40.9287140" lon="-4.1051460">
        <ele>1055.8</ele>
        <time>2019-04-28T06:24:15Z</time>
      </trkpt>
      <trkpt lat="40.9286840" lon="-4.1051300">
        <ele>1056.0</ele>
        <time>2019-04-28T06:24:16Z</time>
      </trkpt>
      <trkpt lat="40.9286520" lon="-4.1051140">
        <ele>1056.0</ele>
        <time>2019-04-28T06:24:17Z</time>
      </trkpt>
      <trkpt lat="40.9286230" lon="-4.1050990">
        <ele>1056.0</ele>
        <time>2019-04-28T06:24:18Z</time>
      </trkpt>
      <trkpt lat="40.9285910" lon="-4.1050870">
        <ele>1056.0</ele>
        <time>2019-04-28T06:24:19Z</time>
      </trkpt>
      <trkpt lat="40.9285590" lon="-4.1050780">
        <ele>1056.4</ele>
        <time>2019-04-28T06:24:20Z</time>
      </trkpt>
      <trkpt lat="40.9285280" lon="-4.1050690">
        <ele>1056.4</ele>
        <time>2019-04-28T06:24:21Z</time>
      </trkpt>
      <trkpt lat="40.9284980" lon="-4.1050560">
        <ele>1056.6</ele>
        <time>2019-04-28T06:24:22Z</time>
      </trkpt>
      <trkpt lat="40.9284700" lon="-4.1050400">
        <ele>1056.8</ele>
        <time>2019-04-28T06:24:23Z</time>
      </trkpt>
      <trkpt lat="40.9284440" lon="-4.1050200">
        <ele>1056.8</ele>
        <time>2019-04-28T06:24:24Z</time>
      </trkpt>
      <trkpt lat="40.9284190" lon="-4.1049980">
        <ele>1056.8</ele>
        <time>2019-04-28T06:24:25Z</time>
      </trkpt>
      <trkpt lat="40.9283890" lon="-4.1049750">
        <ele>1056.8</ele>
        <time>2019-04-28T06:24:26Z</time>
      </trkpt>
      <trkpt lat="40.9283580" lon="-4.1049560">
        <ele>1056.8</ele>
        <time>2019-04-28T06:24:27Z</time>
      </trkpt>
      <trkpt lat="40.9283290" lon="-4.1049350">
        <ele>1057.0</ele>
        <time>2019-04-28T06:24:28Z</time>
      </trkpt>
      <trkpt lat="40.9283010" lon="-4.1049120">
        <ele>1057.0</ele>
        <time>2019-04-28T06:24:29Z</time>
      </trkpt>
      <trkpt lat="40.9282720" lon="-4.1048880">
        <ele>1057.0</ele>
        <time>2019-04-28T06:24:30Z</time>
      </trkpt>
      <trkpt lat="40.9282420" lon="-4.1048670">
        <ele>1057.2</ele>
        <time>2019-04-28T06:24:31Z</time>
      </trkpt>
      <trkpt lat="40.9282120" lon="-4.1048440">
        <ele>1057.2</ele>
        <time>2019-04-28T06:24:32Z</time>
      </trkpt>
      <trkpt lat="40.9281840" lon="-4.1048200">
        <ele>1057.2</ele>
        <time>2019-04-28T06:24:33Z</time>
      </trkpt>
      <trkpt lat="40.9281560" lon="-4.1047960">
        <ele>1057.2</ele>
        <time>2019-04-28T06:24:34Z</time>
      </trkpt>
      <trkpt lat="40.9281270" lon="-4.1047750">
        <ele>1057.2</ele>
        <time>2019-04-28T06:24:35Z</time>
      </trkpt>
      <trkpt lat="40.9280990" lon="-4.1047540">
        <ele>1057.2</ele>
        <time>2019-04-28T06:24:36Z</time>
      </trkpt>
      <trkpt lat="40.9280710" lon="-4.1047350">
        <ele>1057.2</ele>
        <time>2019-04-28T06:24:37Z</time>
      </trkpt>
      <trkpt lat="40.9280460" lon="-4.1047110">
        <ele>1057.2</ele>
        <time>2019-04-28T06:24:38Z</time>
      </trkpt>
      <trkpt lat="40.9280260" lon="-4.1046830">
        <ele>1057.4</ele>
        <time>2019-04-28T06:24:39Z</time>
      </trkpt>
      <trkpt lat="40.9280070" lon="-4.1046560">
        <ele>1057.6</ele>
        <time>2019-04-28T06:24:40Z</time>
      </trkpt>
      <trkpt lat="40.9279880" lon="-4.1046340">
        <ele>1057.8</ele>
        <time>2019-04-28T06:24:41Z</time>
      </trkpt>
      <trkpt lat="40.9279680" lon="-4.1046080">
        <ele>1057.8</ele>
        <time>2019-04-28T06:24:42Z</time>
      </trkpt>
      <trkpt lat="40.9279470" lon="-4.1045810">
        <ele>1057.8</ele>
        <time>2019-04-28T06:24:43Z</time>
      </trkpt>
      <trkpt lat="40.9279240" lon="-4.1045560">
        <ele>1057.8</ele>
        <time>2019-04-28T06:24:44Z</time>
      </trkpt>
      <trkpt lat="40.9279020" lon="-4.1045310">
        <ele>1057.8</ele>
        <time>2019-04-28T06:24:45Z</time>
      </trkpt>
      <trkpt lat="40.9278800" lon="-4.1045070">
        <ele>1058.2</ele>
        <time>2019-04-28T06:24:46Z</time>
      </trkpt>
      <trkpt lat="40.9278580" lon="-4.1044840">
        <ele>1058.2</ele>
        <time>2019-04-28T06:24:47Z</time>
      </trkpt>
      <trkpt lat="40.9278370" lon="-4.1044600">
        <ele>1058.2</ele>
        <time>2019-04-28T06:24:48Z</time>
      </trkpt>
      <trkpt lat="40.9278140" lon="-4.1044350">
        <ele>1058.2</ele>
        <time>2019-04-28T06:24:49Z</time>
      </trkpt>
      <trkpt lat="40.9277900" lon="-4.1044070">
        <ele>1058.2</ele>
        <time>2019-04-28T06:24:50Z</time>
      </trkpt>
      <trkpt lat="40.9277640" lon="-4.1043760">
        <ele>1058.2</ele>
        <time>2019-04-28T06:24:51Z</time>
      </trkpt>
      <trkpt lat="40.9277390" lon="-4.1043450">
        <ele>1058.4</ele>
        <time>2019-04-28T06:24:52Z</time>
      </trkpt>
      <trkpt lat="40.9277130" lon="-4.1043150">
        <ele>1058.4</ele>
        <time>2019-04-28T06:24:53Z</time>
      </trkpt>
      <trkpt lat="40.9276880" lon="-4.1042870">
        <ele>1058.4</ele>
        <time>2019-04-28T06:24:54Z</time>
      </trkpt>
      <trkpt lat="40.9276610" lon="-4.1042630">
        <ele>1058.4</ele>
        <time>2019-04-28T06:24:55Z</time>
      </trkpt>
      <trkpt lat="40.9276330" lon="-4.1042370">
        <ele>1058.4</ele>
        <time>2019-04-28T06:24:56Z</time>
      </trkpt>
      <trkpt lat="40.9276060" lon="-4.1042120">
        <ele>1058.6</ele>
        <time>2019-04-28T06:24:57Z</time>
      </trkpt>
      <trkpt lat="40.9275780" lon="-4.1041870">
        <ele>1058.6</ele>
        <time>2019-04-28T06:24:58Z</time>
      </trkpt>
      <trkpt lat="40.9275500" lon="-4.1041620">
        <ele>1058.8</ele>
        <time>2019-04-28T06:24:59Z</time>
      </trkpt>
      <trkpt lat="40.9275220" lon="-4.1041390">
        <ele>1058.8</ele>
        <time>2019-04-28T06:25:00Z</time>
      </trkpt>
      <trkpt lat="40.9274920" lon="-4.1041150">
        <ele>1059.0</ele>
        <time>2019-04-28T06:25:01Z</time>
      </trkpt>
      <trkpt lat="40.9274620" lon="-4.1040900">
        <ele>1059.0</ele>
        <time>2019-04-28T06:25:02Z</time>
      </trkpt>
      <trkpt lat="40.9274310" lon="-4.1040690">
        <ele>1059.0</ele>
        <time>2019-04-28T06:25:03Z</time>
      </trkpt>
      <trkpt lat="40.9274010" lon="-4.1040450">
        <ele>1059.0</ele>
        <time>2019-04-28T06:25:04Z</time>
      </trkpt>
      <trkpt lat="40.9273720" lon="-4.1040160">
        <ele>1059.0</ele>
        <time>2019-04-28T06:25:05Z</time>
      </trkpt>
      <trkpt lat="40.9273460" lon="-4.1039880">
        <ele>1059.0</ele>
        <time>2019-04-28T06:25:06Z</time>
      </trkpt>
      <trkpt lat="40.9273180" lon="-4.1039580">
        <ele>1059.2</ele>
        <time>2019-04-28T06:25:07Z</time>
      </trkpt>
      <trkpt lat="40.9272910" lon="-4.1039270">
        <ele>1059.2</ele>
        <time>2019-04-28T06:25:08Z</time>
      </trkpt>
      <trkpt lat="40.9272640" lon="-4.1038960">
        <ele>1059.2</ele>
        <time>2019-04-28T06:25:09Z</time>
      </trkpt>
      <trkpt lat="40.9272380" lon="-4.1038620">
        <ele>1059.4</ele>
        <time>2019-04-28T06:25:10Z</time>
      </trkpt>
      <trkpt lat="40.9272120" lon="-4.1038250">
        <ele>1059.4</ele>
        <time>2019-04-28T06:25:11Z</time>
      </trkpt>
      <trkpt lat="40.9271880" lon="-4.1037840">
        <ele>1059.6</ele>
        <time>2019-04-28T06:25:12Z</time>
      </trkpt>
      <trkpt lat="40.9271640" lon="-4.1037390">
        <ele>1059.6</ele>
        <time>2019-04-28T06:25:13Z</time>
      </trkpt>
      <trkpt lat="40.9271400" lon="-4.1036950">
        <ele>1059.6</ele>
        <time>2019-04-28T06:25:14Z</time>
      </trkpt>
      <trkpt lat="40.9271160" lon="-4.1036490">
        <ele>1059.6</ele>
        <time>2019-04-28T06:25:15Z</time>
      </trkpt>
      <trkpt lat="40.9270930" lon="-4.1036040">
        <ele>1059.6</ele>
        <time>2019-04-28T06:25:16Z</time>
      </trkpt>
      <trkpt lat="40.9270710" lon="-4.1035600">
        <ele>1059.6</ele>
        <time>2019-04-28T06:25:17Z</time>
      </trkpt>
      <trkpt lat="40.9270460" lon="-4.1035180">
        <ele>1059.6</ele>
        <time>2019-04-28T06:25:18Z</time>
      </trkpt>
      <trkpt lat="40.9270200" lon="-4.1034800">
        <ele>1059.6</ele>
        <time>2019-04-28T06:25:19Z</time>
      </trkpt>
      <trkpt lat="40.9269940" lon="-4.1034430">
        <ele>1059.8</ele>
        <time>2019-04-28T06:25:20Z</time>
      </trkpt>
      <trkpt lat="40.9269670" lon="-4.1034060">
        <ele>1060.0</ele>
        <time>2019-04-28T06:25:21Z</time>
      </trkpt>
      <trkpt lat="40.9269400" lon="-4.1033710">
        <ele>1060.0</ele>
        <time>2019-04-28T06:25:22Z</time>
      </trkpt>
      <trkpt lat="40.9269150" lon="-4.1033330">
        <ele>1060.2</ele>
        <time>2019-04-28T06:25:23Z</time>
      </trkpt>
      <trkpt lat="40.9268890" lon="-4.1032970">
        <ele>1060.2</ele>
        <time>2019-04-28T06:25:24Z</time>
      </trkpt>
      <trkpt lat="40.9268670" lon="-4.1032640">
        <ele>1060.4</ele>
        <time>2019-04-28T06:25:25Z</time>
      </trkpt>
      <trkpt lat="40.9268450" lon="-4.1032300">
        <ele>1060.6</ele>
        <time>2019-04-28T06:25:26Z</time>
      </trkpt>
      <trkpt lat="40.9268220" lon="-4.1031960">
        <ele>1060.6</ele>
        <time>2019-04-28T06:25:27Z</time>
      </trkpt>
      <trkpt lat="40.9267960" lon="-4.1031610">
        <ele>1060.8</ele>
        <time>2019-04-28T06:25:28Z</time>
      </trkpt>
      <trkpt lat="40.9267720" lon="-4.1031270">
        <ele>1061.0</ele>
        <time>2019-04-28T06:25:29Z</time>
      </trkpt>
      <trkpt lat="40.9267460" lon="-4.1030980">
        <ele>1061.0</ele>
        <time>2019-04-28T06:25:30Z</time>
      </trkpt>
      <trkpt lat="40.9267180" lon="-4.1030710">
        <ele>1061.2</ele>
        <time>2019-04-28T06:25:31Z</time>
      </trkpt>
      <trkpt lat="40.9266930" lon="-4.1030450">
        <ele>1061.4</ele>
        <time>2019-04-28T06:25:32Z</time>
      </trkpt>
      <trkpt lat="40.9266690" lon="-4.1030190">
        <ele>1061.2</ele>
        <time>2019-04-28T06:25:33Z</time>
      </trkpt>
      <trkpt lat="40.9266500" lon="-4.1029840">
        <ele>1061.4</ele>
        <time>2019-04-28T06:25:34Z</time>
      </trkpt>
      <trkpt lat="40.9266350" lon="-4.1029440">
        <ele>1061.6</ele>
        <time>2019-04-28T06:25:35Z</time>
      </trkpt>
      <trkpt lat="40.9266180" lon="-4.1029090">
        <ele>1061.6</ele>
        <time>2019-04-28T06:25:36Z</time>
      </trkpt>
      <trkpt lat="40.9266000" lon="-4.1028700">
        <ele>1061.8</ele>
        <time>2019-04-28T06:25:37Z</time>
      </trkpt>
      <trkpt lat="40.9265800" lon="-4.1028290">
        <ele>1062.0</ele>
        <time>2019-04-28T06:25:38Z</time>
      </trkpt>
      <trkpt lat="40.9265530" lon="-4.1027750">
        <ele>1062.0</ele>
        <time>2019-04-28T06:25:39Z</time>
      </trkpt>
      <trkpt lat="40.9265330" lon="-4.1027360">
        <ele>1062.2</ele>
        <time>2019-04-28T06:25:40Z</time>
      </trkpt>
      <trkpt lat="40.9265140" lon="-4.1026930">
        <ele>1062.2</ele>
        <time>2019-04-28T06:25:41Z</time>
      </trkpt>
      <trkpt lat="40.9264960" lon="-4.1026530">
        <ele>1062.4</ele>
        <time>2019-04-28T06:25:42Z</time>
      </trkpt>
      <trkpt lat="40.9264750" lon="-4.1026160">
        <ele>1062.6</ele>
        <time>2019-04-28T06:25:43Z</time>
      </trkpt>
      <trkpt lat="40.9264530" lon="-4.1025800">
        <ele>1062.8</ele>
        <time>2019-04-28T06:25:44Z</time>
      </trkpt>
      <trkpt lat="40.9264290" lon="-4.1025470">
        <ele>1063.0</ele>
        <time>2019-04-28T06:25:45Z</time>
      </trkpt>
      <trkpt lat="40.9264070" lon="-4.1025110">
        <ele>1063.0</ele>
        <time>2019-04-28T06:25:46Z</time>
      </trkpt>
      <trkpt lat="40.9263850" lon="-4.1024790">
        <ele>1063.2</ele>
        <time>2019-04-28T06:25:47Z</time>
      </trkpt>
      <trkpt lat="40.9263610" lon="-4.1024470">
        <ele>1063.4</ele>
        <time>2019-04-28T06:25:48Z</time>
      </trkpt>
      <trkpt lat="40.9263380" lon="-4.1024160">
        <ele>1063.6</ele>
        <time>2019-04-28T06:25:49Z</time>
      </trkpt>
      <trkpt lat="40.9263170" lon="-4.1023830">
        <ele>1063.6</ele>
        <time>2019-04-28T06:25:50Z</time>
      </trkpt>
      <trkpt lat="40.9262940" lon="-4.1023490">
        <ele>1063.8</ele>
        <time>2019-04-28T06:25:51Z</time>
      </trkpt>
      <trkpt lat="40.9262740" lon="-4.1023150">
        <ele>1063.8</ele>
        <time>2019-04-28T06:25:52Z</time>
      </trkpt>
      <trkpt lat="40.9262550" lon="-4.1022810">
        <ele>1064.0</ele>
        <time>2019-04-28T06:25:53Z</time>
      </trkpt>
      <trkpt lat="40.9262360" lon="-4.1022490">
        <ele>1064.2</ele>
        <time>2019-04-28T06:25:54Z</time>
      </trkpt>
      <trkpt lat="40.9262130" lon="-4.1022230">
        <ele>1064.2</ele>
        <time>2019-04-28T06:25:55Z</time>
      </trkpt>
      <trkpt lat="40.9261900" lon="-4.1021930">
        <ele>1064.4</ele>
        <time>2019-04-28T06:25:56Z</time>
      </trkpt>
      <trkpt lat="40.9261680" lon="-4.1021640">
        <ele>1064.4</ele>
        <time>2019-04-28T06:25:57Z</time>
      </trkpt>
      <trkpt lat="40.9261460" lon="-4.1021320">
        <ele>1064.6</ele>
        <time>2019-04-28T06:25:58Z</time>
      </trkpt>
      <trkpt lat="40.9261240" lon="-4.1021020">
        <ele>1064.8</ele>
        <time>2019-04-28T06:25:59Z</time>
      </trkpt>
      <trkpt lat="40.9261030" lon="-4.1020730">
        <ele>1064.8</ele>
        <time>2019-04-28T06:26:00Z</time>
      </trkpt>
      <trkpt lat="40.9260810" lon="-4.1020430">
        <ele>1065.0</ele>
        <time>2019-04-28T06:26:01Z</time>
      </trkpt>
      <trkpt lat="40.9260600" lon="-4.1020160">
        <ele>1065.0</ele>
        <time>2019-04-28T06:26:02Z</time>
      </trkpt>
      <trkpt lat="40.9260380" lon="-4.1019880">
        <ele>1065.2</ele>
        <time>2019-04-28T06:26:03Z</time>
      </trkpt>
      <trkpt lat="40.9260150" lon="-4.1019560">
        <ele>1065.2</ele>
        <time>2019-04-28T06:26:04Z</time>
      </trkpt>
      <trkpt lat="40.9259900" lon="-4.1019240">
        <ele>1065.4</ele>
        <time>2019-04-28T06:26:05Z</time>
      </trkpt>
      <trkpt lat="40.9259670" lon="-4.1018910">
        <ele>1065.6</ele>
        <time>2019-04-28T06:26:06Z</time>
      </trkpt>
      <trkpt lat="40.9259450" lon="-4.1018550">
        <ele>1065.6</ele>
        <time>2019-04-28T06:26:07Z</time>
      </trkpt>
      <trkpt lat="40.9259220" lon="-4.1018190">
        <ele>1065.8</ele>
        <time>2019-04-28T06:26:08Z</time>
      </trkpt>
      <trkpt lat="40.9259010" lon="-4.1017780">
        <ele>1065.8</ele>
        <time>2019-04-28T06:26:09Z</time>
      </trkpt>
      <trkpt lat="40.9258800" lon="-4.1017370">
        <ele>1065.8</ele>
        <time>2019-04-28T06:26:10Z</time>
      </trkpt>
      <trkpt lat="40.9258570" lon="-4.1016990">
        <ele>1065.8</ele>
        <time>2019-04-28T06:26:11Z</time>
      </trkpt>
      <trkpt lat="40.9258310" lon="-4.1016620">
        <ele>1066.0</ele>
        <time>2019-04-28T06:26:12Z</time>
      </trkpt>
      <trkpt lat="40.9258040" lon="-4.1016280">
        <ele>1066.0</ele>
        <time>2019-04-28T06:26:13Z</time>
      </trkpt>
      <trkpt lat="40.9257750" lon="-4.1015970">
        <ele>1066.0</ele>
        <time>2019-04-28T06:26:14Z</time>
      </trkpt>
      <trkpt lat="40.9257470" lon="-4.1015640">
        <ele>1066.2</ele>
        <time>2019-04-28T06:26:15Z</time>
      </trkpt>
      <trkpt lat="40.9257210" lon="-4.1015280">
        <ele>1066.4</ele>
        <time>2019-04-28T06:26:16Z</time>
      </trkpt>
      <trkpt lat="40.9256940" lon="-4.1014940">
        <ele>1066.4</ele>
        <time>2019-04-28T06:26:17Z</time>
      </trkpt>
      <trkpt lat="40.9256670" lon="-4.1014630">
        <ele>1066.6</ele>
        <time>2019-04-28T06:26:18Z</time>
      </trkpt>
      <trkpt lat="40.9256390" lon="-4.1014330">
        <ele>1066.6</ele>
        <time>2019-04-28T06:26:19Z</time>
      </trkpt>
      <trkpt lat="40.9256120" lon="-4.1014030">
        <ele>1066.8</ele>
        <time>2019-04-28T06:26:20Z</time>
      </trkpt>
      <trkpt lat="40.9255850" lon="-4.1013740">
        <ele>1066.8</ele>
        <time>2019-04-28T06:26:21Z</time>
      </trkpt>
      <trkpt lat="40.9255590" lon="-4.1013440">
        <ele>1067.0</ele>
        <time>2019-04-28T06:26:22Z</time>
      </trkpt>
      <trkpt lat="40.9255330" lon="-4.1013140">
        <ele>1067.0</ele>
        <time>2019-04-28T06:26:23Z</time>
      </trkpt>
      <trkpt lat="40.9255060" lon="-4.1012840">
        <ele>1067.2</ele>
        <time>2019-04-28T06:26:24Z</time>
      </trkpt>
      <trkpt lat="40.9254810" lon="-4.1012530">
        <ele>1067.2</ele>
        <time>2019-04-28T06:26:25Z</time>
      </trkpt>
      <trkpt lat="40.9254540" lon="-4.1012250">
        <ele>1067.4</ele>
        <time>2019-04-28T06:26:26Z</time>
      </trkpt>
      <trkpt lat="40.9254290" lon="-4.1011950">
        <ele>1067.4</ele>
        <time>2019-04-28T06:26:27Z</time>
      </trkpt>
      <trkpt lat="40.9254020" lon="-4.1011690">
        <ele>1067.6</ele>
        <time>2019-04-28T06:26:28Z</time>
      </trkpt>
      <trkpt lat="40.9253740" lon="-4.1011430">
        <ele>1067.6</ele>
        <time>2019-04-28T06:26:29Z</time>
      </trkpt>
      <trkpt lat="40.9253450" lon="-4.1011180">
        <ele>1067.8</ele>
        <time>2019-04-28T06:26:30Z</time>
      </trkpt>
      <trkpt lat="40.9253160" lon="-4.1010940">
        <ele>1068.0</ele>
        <time>2019-04-28T06:26:31Z</time>
      </trkpt>
      <trkpt lat="40.9252870" lon="-4.1010700">
        <ele>1068.0</ele>
        <time>2019-04-28T06:26:32Z</time>
      </trkpt>
      <trkpt lat="40.9252570" lon="-4.1010460">
        <ele>1068.2</ele>
        <time>2019-04-28T06:26:33Z</time>
      </trkpt>
      <trkpt lat="40.9252270" lon="-4.1010230">
        <ele>1068.2</ele>
        <time>2019-04-28T06:26:34Z</time>
      </trkpt>
      <trkpt lat="40.9251980" lon="-4.1010020">
        <ele>1068.4</ele>
        <time>2019-04-28T06:26:35Z</time>
      </trkpt>
      <trkpt lat="40.9251700" lon="-4.1009830">
        <ele>1068.6</ele>
        <time>2019-04-28T06:26:36Z</time>
      </trkpt>
      <trkpt lat="40.9251420" lon="-4.1009600">
        <ele>1068.6</ele>
        <time>2019-04-28T06:26:37Z</time>
      </trkpt>
      <trkpt lat="40.9251120" lon="-4.1009380">
        <ele>1068.8</ele>
        <time>2019-04-28T06:26:38Z</time>
      </trkpt>
      <trkpt lat="40.9250820" lon="-4.1009150">
        <ele>1068.8</ele>
        <time>2019-04-28T06:26:39Z</time>
      </trkpt>
      <trkpt lat="40.9250510" lon="-4.1008920">
        <ele>1069.0</ele>
        <time>2019-04-28T06:26:40Z</time>
      </trkpt>
      <trkpt lat="40.9250200" lon="-4.1008670">
        <ele>1069.2</ele>
        <time>2019-04-28T06:26:41Z</time>
      </trkpt>
      <trkpt lat="40.9249900" lon="-4.1008420">
        <ele>1069.2</ele>
        <time>2019-04-28T06:26:42Z</time>
      </trkpt>
      <trkpt lat="40.9249580" lon="-4.1008180">
        <ele>1069.4</ele>
        <time>2019-04-28T06:26:43Z</time>
      </trkpt>
      <trkpt lat="40.9249270" lon="-4.1007910">
        <ele>1069.4</ele>
        <time>2019-04-28T06:26:44Z</time>
      </trkpt>
      <trkpt lat="40.9248950" lon="-4.1007640">
        <ele>1069.6</ele>
        <time>2019-04-28T06:26:45Z</time>
      </trkpt>
      <trkpt lat="40.9248630" lon="-4.1007370">
        <ele>1069.6</ele>
        <time>2019-04-28T06:26:46Z</time>
      </trkpt>
      <trkpt lat="40.9248320" lon="-4.1007080">
        <ele>1069.8</ele>
        <time>2019-04-28T06:26:47Z</time>
      </trkpt>
      <trkpt lat="40.9248010" lon="-4.1006790">
        <ele>1069.8</ele>
        <time>2019-04-28T06:26:48Z</time>
      </trkpt>
      <trkpt lat="40.9247700" lon="-4.1006530">
        <ele>1070.0</ele>
        <time>2019-04-28T06:26:49Z</time>
      </trkpt>
      <trkpt lat="40.9247400" lon="-4.1006250">
        <ele>1070.0</ele>
        <time>2019-04-28T06:26:50Z</time>
      </trkpt>
      <trkpt lat="40.9247100" lon="-4.1005970">
        <ele>1070.0</ele>
        <time>2019-04-28T06:26:51Z</time>
      </trkpt>
      <trkpt lat="40.9246800" lon="-4.1005710">
        <ele>1070.0</ele>
        <time>2019-04-28T06:26:52Z</time>
      </trkpt>
      <trkpt lat="40.9246500" lon="-4.1005440">
        <ele>1070.2</ele>
        <time>2019-04-28T06:26:53Z</time>
      </trkpt>
      <trkpt lat="40.9246220" lon="-4.1005160">
        <ele>1070.2</ele>
        <time>2019-04-28T06:26:54Z</time>
      </trkpt>
      <trkpt lat="40.9245920" lon="-4.1004910">
        <ele>1070.2</ele>
        <time>2019-04-28T06:26:55Z</time>
      </trkpt>
      <trkpt lat="40.9245610" lon="-4.1004660">
        <ele>1070.2</ele>
        <time>2019-04-28T06:26:56Z</time>
      </trkpt>
      <trkpt lat="40.9245300" lon="-4.1004400">
        <ele>1070.4</ele>
        <time>2019-04-28T06:26:57Z</time>
      </trkpt>
      <trkpt lat="40.9245000" lon="-4.1004120">
        <ele>1070.4</ele>
        <time>2019-04-28T06:26:58Z</time>
      </trkpt>
      <trkpt lat="40.9244690" lon="-4.1003870">
        <ele>1070.4</ele>
        <time>2019-04-28T06:26:59Z</time>
      </trkpt>
      <trkpt lat="40.9244360" lon="-4.1003610">
        <ele>1070.6</ele>
        <time>2019-04-28T06:27:00Z</time>
      </trkpt>
      <trkpt lat="40.9244030" lon="-4.1003350">
        <ele>1070.6</ele>
        <time>2019-04-28T06:27:01Z</time>
      </trkpt>
      <trkpt lat="40.9243660" lon="-4.1003070">
        <ele>1070.6</ele>
        <time>2019-04-28T06:27:02Z</time>
      </trkpt>
      <trkpt lat="40.9243270" lon="-4.1002710">
        <ele>1070.6</ele>
        <time>2019-04-28T06:27:03Z</time>
      </trkpt>
      <trkpt lat="40.9242830" lon="-4.1002370">
        <ele>1070.8</ele>
        <time>2019-04-28T06:27:04Z</time>
      </trkpt>
      <trkpt lat="40.9242390" lon="-4.1002070">
        <ele>1070.8</ele>
        <time>2019-04-28T06:27:05Z</time>
      </trkpt>
      <trkpt lat="40.9241970" lon="-4.1001780">
        <ele>1070.8</ele>
        <time>2019-04-28T06:27:06Z</time>
      </trkpt>
      <trkpt lat="40.9241580" lon="-4.1001490">
        <ele>1070.6</ele>
        <time>2019-04-28T06:27:07Z</time>
      </trkpt>
      <trkpt lat="40.9241190" lon="-4.1001180">
        <ele>1070.8</ele>
        <time>2019-04-28T06:27:08Z</time>
      </trkpt>
      <trkpt lat="40.9240820" lon="-4.1000860">
        <ele>1070.8</ele>
        <time>2019-04-28T06:27:09Z</time>
      </trkpt>
      <trkpt lat="40.9240500" lon="-4.1000510">
        <ele>1070.8</ele>
        <time>2019-04-28T06:27:10Z</time>
      </trkpt>
      <trkpt lat="40.9240220" lon="-4.1000170">
        <ele>1071.0</ele>
        <time>2019-04-28T06:27:11Z</time>
      </trkpt>
      <trkpt lat="40.9239950" lon="-4.0999860">
        <ele>1071.0</ele>
        <time>2019-04-28T06:27:12Z</time>
      </trkpt>
      <trkpt lat="40.9239680" lon="-4.0999580">
        <ele>1071.0</ele>
        <time>2019-04-28T06:27:13Z</time>
      </trkpt>
      <trkpt lat="40.9239410" lon="-4.0999300">
        <ele>1071.0</ele>
        <time>2019-04-28T06:27:14Z</time>
      </trkpt>
      <trkpt lat="40.9239130" lon="-4.0999030">
        <ele>1071.2</ele>
        <time>2019-04-28T06:27:15Z</time>
      </trkpt>
      <trkpt lat="40.9238850" lon="-4.0998780">
        <ele>1071.2</ele>
        <time>2019-04-28T06:27:16Z</time>
      </trkpt>
      <trkpt lat="40.9238590" lon="-4.0998500">
        <ele>1071.4</ele>
        <time>2019-04-28T06:27:17Z</time>
      </trkpt>
      <trkpt lat="40.9238320" lon="-4.0998240">
        <ele>1071.6</ele>
        <time>2019-04-28T06:27:18Z</time>
      </trkpt>
      <trkpt lat="40.9238060" lon="-4.0997960">
        <ele>1071.8</ele>
        <time>2019-04-28T06:27:19Z</time>
      </trkpt>
      <trkpt lat="40.9237790" lon="-4.0997700">
        <ele>1072.0</ele>
        <time>2019-04-28T06:27:20Z</time>
      </trkpt>
      <trkpt lat="40.9237520" lon="-4.0997440">
        <ele>1072.0</ele>
        <time>2019-04-28T06:27:21Z</time>
      </trkpt>
      <trkpt lat="40.9237270" lon="-4.0997150">
        <ele>1072.2</ele>
        <time>2019-04-28T06:27:22Z</time>
      </trkpt>
      <trkpt lat="40.9236990" lon="-4.0996910">
        <ele>1072.4</ele>
        <time>2019-04-28T06:27:23Z</time>
      </trkpt>
      <trkpt lat="40.9236700" lon="-4.0996660">
        <ele>1072.6</ele>
        <time>2019-04-28T06:27:24Z</time>
      </trkpt>
      <trkpt lat="40.9236420" lon="-4.0996400">
        <ele>1072.8</ele>
        <time>2019-04-28T06:27:25Z</time>
      </trkpt>
      <trkpt lat="40.9236120" lon="-4.0996150">
        <ele>1072.8</ele>
        <time>2019-04-28T06:27:26Z</time>
      </trkpt>
      <trkpt lat="40.9235820" lon="-4.0995910">
        <ele>1073.0</ele>
        <time>2019-04-28T06:27:27Z</time>
      </trkpt>
      <trkpt lat="40.9235530" lon="-4.0995670">
        <ele>1073.2</ele>
        <time>2019-04-28T06:27:28Z</time>
      </trkpt>
      <trkpt lat="40.9235230" lon="-4.0995440">
        <ele>1073.2</ele>
        <time>2019-04-28T06:27:29Z</time>
      </trkpt>
      <trkpt lat="40.9234930" lon="-4.0995210">
        <ele>1073.4</ele>
        <time>2019-04-28T06:27:30Z</time>
      </trkpt>
      <trkpt lat="40.9234630" lon="-4.0994980">
        <ele>1073.6</ele>
        <time>2019-04-28T06:27:31Z</time>
      </trkpt>
      <trkpt lat="40.9234330" lon="-4.0994750">
        <ele>1073.6</ele>
        <time>2019-04-28T06:27:32Z</time>
      </trkpt>
      <trkpt lat="40.9234030" lon="-4.0994510">
        <ele>1073.8</ele>
        <time>2019-04-28T06:27:33Z</time>
      </trkpt>
      <trkpt lat="40.9233750" lon="-4.0994250">
        <ele>1073.8</ele>
        <time>2019-04-28T06:27:34Z</time>
      </trkpt>
      <trkpt lat="40.9233470" lon="-4.0993990">
        <ele>1074.0</ele>
        <time>2019-04-28T06:27:35Z</time>
      </trkpt>
      <trkpt lat="40.9233170" lon="-4.0993750">
        <ele>1074.0</ele>
        <time>2019-04-28T06:27:36Z</time>
      </trkpt>
      <trkpt lat="40.9232880" lon="-4.0993490">
        <ele>1074.2</ele>
        <time>2019-04-28T06:27:37Z</time>
      </trkpt>
      <trkpt lat="40.9232600" lon="-4.0993240">
        <ele>1074.2</ele>
        <time>2019-04-28T06:27:38Z</time>
      </trkpt>
      <trkpt lat="40.9232320" lon="-4.0992980">
        <ele>1074.4</ele>
        <time>2019-04-28T06:27:39Z</time>
      </trkpt>
      <trkpt lat="40.9232030" lon="-4.0992740">
        <ele>1074.4</ele>
        <time>2019-04-28T06:27:40Z</time>
      </trkpt>
      <trkpt lat="40.9231730" lon="-4.0992480">
        <ele>1074.6</ele>
        <time>2019-04-28T06:27:41Z</time>
      </trkpt>
      <trkpt lat="40.9231450" lon="-4.0992190">
        <ele>1074.8</ele>
        <time>2019-04-28T06:27:42Z</time>
      </trkpt>
      <trkpt lat="40.9231170" lon="-4.0991900">
        <ele>1074.8</ele>
        <time>2019-04-28T06:27:43Z</time>
      </trkpt>
      <trkpt lat="40.9230890" lon="-4.0991590">
        <ele>1075.0</ele>
        <time>2019-04-28T06:27:44Z</time>
      </trkpt>
      <trkpt lat="40.9230620" lon="-4.0991270">
        <ele>1075.2</ele>
        <time>2019-04-28T06:27:45Z</time>
      </trkpt>
      <trkpt lat="40.9230370" lon="-4.0990910">
        <ele>1075.2</ele>
        <time>2019-04-28T06:27:46Z</time>
      </trkpt>
      <trkpt lat="40.9230130" lon="-4.0990590">
        <ele>1075.4</ele>
        <time>2019-04-28T06:27:47Z</time>
      </trkpt>
      <trkpt lat="40.9229880" lon="-4.0990270">
        <ele>1075.4</ele>
        <time>2019-04-28T06:27:48Z</time>
      </trkpt>
      <trkpt lat="40.9229630" lon="-4.0989930">
        <ele>1075.6</ele>
        <time>2019-04-28T06:27:49Z</time>
      </trkpt>
      <trkpt lat="40.9229380" lon="-4.0989600">
        <ele>1075.6</ele>
        <time>2019-04-28T06:27:50Z</time>
      </trkpt>
      <trkpt lat="40.9229120" lon="-4.0989270">
        <ele>1075.8</ele>
        <time>2019-04-28T06:27:51Z</time>
      </trkpt>
      <trkpt lat="40.9228860" lon="-4.0988950">
        <ele>1075.8</ele>
        <time>2019-04-28T06:27:52Z</time>
      </trkpt>
      <trkpt lat="40.9228600" lon="-4.0988610">
        <ele>1076.0</ele>
        <time>2019-04-28T06:27:53Z</time>
      </trkpt>
      <trkpt lat="40.9228330" lon="-4.0988260">
        <ele>1076.0</ele>
        <time>2019-04-28T06:27:54Z</time>
      </trkpt>
      <trkpt lat="40.9228060" lon="-4.0987920">
        <ele>1076.2</ele>
        <time>2019-04-28T06:27:55Z</time>
      </trkpt>
      <trkpt lat="40.9227780" lon="-4.0987580">
        <ele>1076.2</ele>
        <time>2019-04-28T06:27:56Z</time>
      </trkpt>
      <trkpt lat="40.9227520" lon="-4.0987260">
        <ele>1076.2</ele>
        <time>2019-04-28T06:27:57Z</time>
      </trkpt>
      <trkpt lat="40.9227250" lon="-4.0986930">
        <ele>1076.2</ele>
        <time>2019-04-28T06:27:58Z</time>
      </trkpt>
      <trkpt lat="40.9226980" lon="-4.0986590">
        <ele>1076.4</ele>
        <time>2019-04-28T06:27:59Z</time>
      </trkpt>
      <trkpt lat="40.9226710" lon="-4.0986270">
        <ele>1076.4</ele>
        <time>2019-04-28T06:28:00Z</time>
      </trkpt>
      <trkpt lat="40.9226420" lon="-4.0985940">
        <ele>1076.4</ele>
        <time>2019-04-28T06:28:01Z</time>
      </trkpt>
      <trkpt lat="40.9226130" lon="-4.0985590">
        <ele>1076.4</ele>
        <time>2019-04-28T06:28:02Z</time>
      </trkpt>
      <trkpt lat="40.9225840" lon="-4.0985240">
        <ele>1076.6</ele>
        <time>2019-04-28T06:28:03Z</time>
      </trkpt>
      <trkpt lat="40.9225560" lon="-4.0984890">
        <ele>1076.6</ele>
        <time>2019-04-28T06:28:04Z</time>
      </trkpt>
      <trkpt lat="40.9225270" lon="-4.0984540">
        <ele>1076.6</ele>
        <time>2019-04-28T06:28:05Z</time>
      </trkpt>
      <trkpt lat="40.9224990" lon="-4.0984200">
        <ele>1076.6</ele>
        <time>2019-04-28T06:28:06Z</time>
      </trkpt>
      <trkpt lat="40.9224710" lon="-4.0983830">
        <ele>1076.6</ele>
        <time>2019-04-28T06:28:07Z</time>
      </trkpt>
      <trkpt lat="40.9224450" lon="-4.0983440">
        <ele>1076.6</ele>
        <time>2019-04-28T06:28:08Z</time>
      </trkpt>
      <trkpt lat="40.9224180" lon="-4.0983060">
        <ele>1076.8</ele>
        <time>2019-04-28T06:28:09Z</time>
      </trkpt>
      <trkpt lat="40.9223920" lon="-4.0982650">
        <ele>1076.8</ele>
        <time>2019-04-28T06:28:10Z</time>
      </trkpt>
      <trkpt lat="40.9223690" lon="-4.0982260">
        <ele>1076.8</ele>
        <time>2019-04-28T06:28:11Z</time>
      </trkpt>
      <trkpt lat="40.9223470" lon="-4.0981840">
        <ele>1076.8</ele>
        <time>2019-04-28T06:28:12Z</time>
      </trkpt>
      <trkpt lat="40.9223250" lon="-4.0981420">
        <ele>1077.0</ele>
        <time>2019-04-28T06:28:13Z</time>
      </trkpt>
      <trkpt lat="40.9223040" lon="-4.0981000">
        <ele>1077.0</ele>
        <time>2019-04-28T06:28:14Z</time>
      </trkpt>
      <trkpt lat="40.9222840" lon="-4.0980580">
        <ele>1077.0</ele>
        <time>2019-04-28T06:28:15Z</time>
      </trkpt>
      <trkpt lat="40.9222660" lon="-4.0980150">
        <ele>1077.0</ele>
        <time>2019-04-28T06:28:16Z</time>
      </trkpt>
      <trkpt lat="40.9222480" lon="-4.0979740">
        <ele>1077.2</ele>
        <time>2019-04-28T06:28:17Z</time>
      </trkpt>
      <trkpt lat="40.9222330" lon="-4.0979380">
        <ele>1077.2</ele>
        <time>2019-04-28T06:28:18Z</time>
      </trkpt>
      <trkpt lat="40.9222190" lon="-4.0979060">
        <ele>1077.2</ele>
        <time>2019-04-28T06:28:19Z</time>
      </trkpt>
      <trkpt lat="40.9222050" lon="-4.0978760">
        <ele>1077.2</ele>
        <time>2019-04-28T06:28:20Z</time>
      </trkpt>
      <trkpt lat="40.9221930" lon="-4.0978510">
        <ele>1077.2</ele>
        <time>2019-04-28T06:28:21Z</time>
      </trkpt>
      <trkpt lat="40.9221830" lon="-4.0978290">
        <ele>1077.2</ele>
        <time>2019-04-28T06:28:22Z</time>
      </trkpt>
      <trkpt lat="40.9221710" lon="-4.0978030">
        <ele>1077.2</ele>
        <time>2019-04-28T06:28:23Z</time>
      </trkpt>
      <trkpt lat="40.9221580" lon="-4.0977780">
        <ele>1077.2</ele>
        <time>2019-04-28T06:28:24Z</time>
      </trkpt>
      <trkpt lat="40.9221450" lon="-4.0977480">
        <ele>1077.2</ele>
        <time>2019-04-28T06:28:25Z</time>
      </trkpt>
      <trkpt lat="40.9221290" lon="-4.0977220">
        <ele>1077.4</ele>
        <time>2019-04-28T06:28:26Z</time>
      </trkpt>
      <trkpt lat="40.9221120" lon="-4.0977000">
        <ele>1077.2</ele>
        <time>2019-04-28T06:28:27Z</time>
      </trkpt>
      <trkpt lat="40.9220930" lon="-4.0976810">
        <ele>1077.4</ele>
        <time>2019-04-28T06:28:28Z</time>
      </trkpt>
      <trkpt lat="40.9220720" lon="-4.0976630">
        <ele>1077.6</ele>
        <time>2019-04-28T06:28:29Z</time>
      </trkpt>
      <trkpt lat="40.9220470" lon="-4.0976570">
        <ele>1077.8</ele>
        <time>2019-04-28T06:28:30Z</time>
      </trkpt>
      <trkpt lat="40.9220220" lon="-4.0976600">
        <ele>1077.8</ele>
        <time>2019-04-28T06:28:31Z</time>
      </trkpt>
      <trkpt lat="40.9220020" lon="-4.0976810">
        <ele>1077.8</ele>
        <time>2019-04-28T06:28:32Z</time>
      </trkpt>
      <trkpt lat="40.9219890" lon="-4.0977140">
        <ele>1078.0</ele>
        <time>2019-04-28T06:28:33Z</time>
      </trkpt>
      <trkpt lat="40.9219790" lon="-4.0977580">
        <ele>1078.0</ele>
        <time>2019-04-28T06:28:34Z</time>
      </trkpt>
      <trkpt lat="40.9219700" lon="-4.0978030">
        <ele>1078.2</ele>
        <time>2019-04-28T06:28:35Z</time>
      </trkpt>
      <trkpt lat="40.9219600" lon="-4.0978490">
        <ele>1078.4</ele>
        <time>2019-04-28T06:28:36Z</time>
      </trkpt>
      <trkpt lat="40.9219530" lon="-4.0978970">
        <ele>1078.4</ele>
        <time>2019-04-28T06:28:37Z</time>
      </trkpt>
      <trkpt lat="40.9219450" lon="-4.0979480">
        <ele>1078.6</ele>
        <time>2019-04-28T06:28:38Z</time>
      </trkpt>
      <trkpt lat="40.9219390" lon="-4.0979970">
        <ele>1078.4</ele>
        <time>2019-04-28T06:28:39Z</time>
      </trkpt>
      <trkpt lat="40.9219340" lon="-4.0980480">
        <ele>1078.6</ele>
        <time>2019-04-28T06:28:40Z</time>
      </trkpt>
      <trkpt lat="40.9219280" lon="-4.0980990">
        <ele>1078.4</ele>
        <time>2019-04-28T06:28:41Z</time>
      </trkpt>
      <trkpt lat="40.9219220" lon="-4.0981510">
        <ele>1078.4</ele>
        <time>2019-04-28T06:28:42Z</time>
      </trkpt>
      <trkpt lat="40.9219140" lon="-4.0982050">
        <ele>1078.4</ele>
        <time>2019-04-28T06:28:43Z</time>
      </trkpt>
      <trkpt lat="40.9219060" lon="-4.0982610">
        <ele>1078.4</ele>
        <time>2019-04-28T06:28:44Z</time>
      </trkpt>
      <trkpt lat="40.9219010" lon="-4.0983190">
        <ele>1078.4</ele>
        <time>2019-04-28T06:28:45Z</time>
      </trkpt>
      <trkpt lat="40.9218930" lon="-4.0983780">
        <ele>1078.2</ele>
        <time>2019-04-28T06:28:46Z</time>
      </trkpt>
      <trkpt lat="40.9218820" lon="-4.0984360">
        <ele>1078.2</ele>
        <time>2019-04-28T06:28:47Z</time>
      </trkpt>
      <trkpt lat="40.9218710" lon="-4.0984940">
        <ele>1078.0</ele>
        <time>2019-04-28T06:28:48Z</time>
      </trkpt>
      <trkpt lat="40.9218600" lon="-4.0985530">
        <ele>1078.0</ele>
        <time>2019-04-28T06:28:49Z</time>
      </trkpt>
      <trkpt lat="40.9218510" lon="-4.0986150">
        <ele>1078.0</ele>
        <time>2019-04-28T06:28:50Z</time>
      </trkpt>
      <trkpt lat="40.9218450" lon="-4.0986750">
        <ele>1077.8</ele>
        <time>2019-04-28T06:28:51Z</time>
      </trkpt>
      <trkpt lat="40.9218360" lon="-4.0987380">
        <ele>1077.8</ele>
        <time>2019-04-28T06:28:52Z</time>
      </trkpt>
      <trkpt lat="40.9218250" lon="-4.0988030">
        <ele>1077.6</ele>
        <time>2019-04-28T06:28:53Z</time>
      </trkpt>
      <trkpt lat="40.9218150" lon="-4.0988690">
        <ele>1077.6</ele>
        <time>2019-04-28T06:28:54Z</time>
      </trkpt>
      <trkpt lat="40.9218060" lon="-4.0989370">
        <ele>1077.4</ele>
        <time>2019-04-28T06:28:55Z</time>
      </trkpt>
      <trkpt lat="40.9217960" lon="-4.0990040">
        <ele>1077.4</ele>
        <time>2019-04-28T06:28:56Z</time>
      </trkpt>
      <trkpt lat="40.9217860" lon="-4.0990710">
        <ele>1077.2</ele>
        <time>2019-04-28T06:28:57Z</time>
      </trkpt>
      <trkpt lat="40.9217750" lon="-4.0991380">
        <ele>1077.2</ele>
        <time>2019-04-28T06:28:58Z</time>
      </trkpt>
      <trkpt lat="40.9217640" lon="-4.0992040">
        <ele>1077.0</ele>
        <time>2019-04-28T06:28:59Z</time>
      </trkpt>
      <trkpt lat="40.9217510" lon="-4.0992700">
        <ele>1077.0</ele>
        <time>2019-04-28T06:29:00Z</time>
      </trkpt>
      <trkpt lat="40.9217400" lon="-4.0993390">
        <ele>1076.8</ele>
        <time>2019-04-28T06:29:01Z</time>
      </trkpt>
      <trkpt lat="40.9217310" lon="-4.0994080">
        <ele>1077.0</ele>
        <time>2019-04-28T06:29:02Z</time>
      </trkpt>
      <trkpt lat="40.9217230" lon="-4.0994760">
        <ele>1077.0</ele>
        <time>2019-04-28T06:29:03Z</time>
      </trkpt>
      <trkpt lat="40.9217150" lon="-4.0995450">
        <ele>1077.2</ele>
        <time>2019-04-28T06:29:04Z</time>
      </trkpt>
      <trkpt lat="40.9217060" lon="-4.0996120">
        <ele>1077.2</ele>
        <time>2019-04-28T06:29:05Z</time>
      </trkpt>
      <trkpt lat="40.9216980" lon="-4.0996770">
        <ele>1077.4</ele>
        <time>2019-04-28T06:29:06Z</time>
      </trkpt>
      <trkpt lat="40.9216900" lon="-4.0997420">
        <ele>1077.4</ele>
        <time>2019-04-28T06:29:07Z</time>
      </trkpt>
      <trkpt lat="40.9216830" lon="-4.0998060">
        <ele>1077.6</ele>
        <time>2019-04-28T06:29:08Z</time>
      </trkpt>
      <trkpt lat="40.9216770" lon="-4.0998700">
        <ele>1077.6</ele>
        <time>2019-04-28T06:29:09Z</time>
      </trkpt>
      <trkpt lat="40.9216690" lon="-4.0999320">
        <ele>1077.8</ele>
        <time>2019-04-28T06:29:10Z</time>
      </trkpt>
      <trkpt lat="40.9216600" lon="-4.0999940">
        <ele>1077.8</ele>
        <time>2019-04-28T06:29:11Z</time>
      </trkpt>
      <trkpt lat="40.9216520" lon="-4.1000550">
        <ele>1078.0</ele>
        <time>2019-04-28T06:29:12Z</time>
      </trkpt>
      <trkpt lat="40.9216450" lon="-4.1001160">
        <ele>1078.2</ele>
        <time>2019-04-28T06:29:13Z</time>
      </trkpt>
      <trkpt lat="40.9216390" lon="-4.1001760">
        <ele>1078.4</ele>
        <time>2019-04-28T06:29:14Z</time>
      </trkpt>
      <trkpt lat="40.9216320" lon="-4.1002350">
        <ele>1078.4</ele>
        <time>2019-04-28T06:29:15Z</time>
      </trkpt>
      <trkpt lat="40.9216220" lon="-4.1002940">
        <ele>1078.6</ele>
        <time>2019-04-28T06:29:16Z</time>
      </trkpt>
      <trkpt lat="40.9216120" lon="-4.1003510">
        <ele>1078.8</ele>
        <time>2019-04-28T06:29:17Z</time>
      </trkpt>
      <trkpt lat="40.9216030" lon="-4.1004070">
        <ele>1079.0</ele>
        <time>2019-04-28T06:29:18Z</time>
      </trkpt>
      <trkpt lat="40.9215970" lon="-4.1004630">
        <ele>1079.2</ele>
        <time>2019-04-28T06:29:19Z</time>
      </trkpt>
      <trkpt lat="40.9215920" lon="-4.1005190">
        <ele>1079.4</ele>
        <time>2019-04-28T06:29:20Z</time>
      </trkpt>
      <trkpt lat="40.9215840" lon="-4.1005760">
        <ele>1079.6</ele>
        <time>2019-04-28T06:29:21Z</time>
      </trkpt>
      <trkpt lat="40.9215750" lon="-4.1006350">
        <ele>1079.6</ele>
        <time>2019-04-28T06:29:22Z</time>
      </trkpt>
      <trkpt lat="40.9215680" lon="-4.1006960">
        <ele>1079.6</ele>
        <time>2019-04-28T06:29:23Z</time>
      </trkpt>
      <trkpt lat="40.9215610" lon="-4.1007560">
        <ele>1079.6</ele>
        <time>2019-04-28T06:29:24Z</time>
      </trkpt>
      <trkpt lat="40.9215520" lon="-4.1008160">
        <ele>1079.6</ele>
        <time>2019-04-28T06:29:25Z</time>
      </trkpt>
      <trkpt lat="40.9215440" lon="-4.1008740">
        <ele>1079.6</ele>
        <time>2019-04-28T06:29:26Z</time>
      </trkpt>
      <trkpt lat="40.9215340" lon="-4.1009330">
        <ele>1079.6</ele>
        <time>2019-04-28T06:29:27Z</time>
      </trkpt>
      <trkpt lat="40.9215230" lon="-4.1009920">
        <ele>1079.6</ele>
        <time>2019-04-28T06:29:28Z</time>
      </trkpt>
      <trkpt lat="40.9215150" lon="-4.1010530">
        <ele>1079.4</ele>
        <time>2019-04-28T06:29:29Z</time>
      </trkpt>
      <trkpt lat="40.9215070" lon="-4.1011120">
        <ele>1079.4</ele>
        <time>2019-04-28T06:29:30Z</time>
      </trkpt>
      <trkpt lat="40.9215000" lon="-4.1011720">
        <ele>1079.6</ele>
        <time>2019-04-28T06:29:31Z</time>
      </trkpt>
      <trkpt lat="40.9214930" lon="-4.1012320">
        <ele>1079.6</ele>
        <time>2019-04-28T06:29:32Z</time>
      </trkpt>
      <trkpt lat="40.9214850" lon="-4.1012940">
        <ele>1079.4</ele>
        <time>2019-04-28T06:29:33Z</time>
      </trkpt>
      <trkpt lat="40.9214760" lon="-4.1013580">
        <ele>1079.4</ele>
        <time>2019-04-28T06:29:34Z</time>
      </trkpt>
      <trkpt lat="40.9214650" lon="-4.1014220">
        <ele>1079.4</ele>
        <time>2019-04-28T06:29:35Z</time>
      </trkpt>
      <trkpt lat="40.9214560" lon="-4.1014850">
        <ele>1079.4</ele>
        <time>2019-04-28T06:29:36Z</time>
      </trkpt>
      <trkpt lat="40.9214480" lon="-4.1015470">
        <ele>1079.4</ele>
        <time>2019-04-28T06:29:37Z</time>
      </trkpt>
      <trkpt lat="40.9214380" lon="-4.1016070">
        <ele>1079.2</ele>
        <time>2019-04-28T06:29:38Z</time>
      </trkpt>
      <trkpt lat="40.9214300" lon="-4.1016680">
        <ele>1079.2</ele>
        <time>2019-04-28T06:29:39Z</time>
      </trkpt>
      <trkpt lat="40.9214210" lon="-4.1017310">
        <ele>1079.2</ele>
        <time>2019-04-28T06:29:40Z</time>
      </trkpt>
      <trkpt lat="40.9214160" lon="-4.1017950">
        <ele>1079.2</ele>
        <time>2019-04-28T06:29:41Z</time>
      </trkpt>
      <trkpt lat="40.9214120" lon="-4.1018590">
        <ele>1079.2</ele>
        <time>2019-04-28T06:29:42Z</time>
      </trkpt>
      <trkpt lat="40.9214070" lon="-4.1019190">
        <ele>1079.2</ele>
        <time>2019-04-28T06:29:43Z</time>
      </trkpt>
      <trkpt lat="40.9214040" lon="-4.1019780">
        <ele>1079.4</ele>
        <time>2019-04-28T06:29:44Z</time>
      </trkpt>
      <trkpt lat="40.9214080" lon="-4.1020390">
        <ele>1079.4</ele>
        <time>2019-04-28T06:29:45Z</time>
      </trkpt>
      <trkpt lat="40.9214200" lon="-4.1020980">
        <ele>1079.4</ele>
        <time>2019-04-28T06:29:46Z</time>
      </trkpt>
      <trkpt lat="40.9214390" lon="-4.1021570">
        <ele>1079.2</ele>
        <time>2019-04-28T06:29:47Z</time>
      </trkpt>
      <trkpt lat="40.9214660" lon="-4.1022090">
        <ele>1079.2</ele>
        <time>2019-04-28T06:29:48Z</time>
      </trkpt>
      <trkpt lat="40.9214970" lon="-4.1022580">
        <ele>1079.2</ele>
        <time>2019-04-28T06:29:49Z</time>
      </trkpt>
      <trkpt lat="40.9215280" lon="-4.1023030">
        <ele>1079.2</ele>
        <time>2019-04-28T06:29:50Z</time>
      </trkpt>
      <trkpt lat="40.9215580" lon="-4.1023470">
        <ele>1079.2</ele>
        <time>2019-04-28T06:29:51Z</time>
      </trkpt>
      <trkpt lat="40.9215850" lon="-4.1023900">
        <ele>1079.0</ele>
        <time>2019-04-28T06:29:52Z</time>
      </trkpt>
      <trkpt lat="40.9216030" lon="-4.1024340">
        <ele>1079.0</ele>
        <time>2019-04-28T06:29:53Z</time>
      </trkpt>
      <trkpt lat="40.9216150" lon="-4.1024750">
        <ele>1079.0</ele>
        <time>2019-04-28T06:29:54Z</time>
      </trkpt>
      <trkpt lat="40.9216170" lon="-4.1025110">
        <ele>1079.0</ele>
        <time>2019-04-28T06:29:55Z</time>
      </trkpt>
      <trkpt lat="40.9216150" lon="-4.1025440">
        <ele>1079.2</ele>
        <time>2019-04-28T06:29:56Z</time>
      </trkpt>
      <trkpt lat="40.9216040" lon="-4.1025740">
        <ele>1079.0</ele>
        <time>2019-04-28T06:29:57Z</time>
      </trkpt>
      <trkpt lat="40.9215820" lon="-4.1025940">
        <ele>1079.2</ele>
        <time>2019-04-28T06:29:58Z</time>
      </trkpt>
      <trkpt lat="40.9215540" lon="-4.1025910">
        <ele>1079.2</ele>
        <time>2019-04-28T06:29:59Z</time>
      </trkpt>
      <trkpt lat="40.9215180" lon="-4.1025960">
        <ele>1079.4</ele>
        <time>2019-04-28T06:30:00Z</time>
      </trkpt>
      <trkpt lat="40.9214830" lon="-4.1025910">
        <ele>1079.4</ele>
        <time>2019-04-28T06:30:01Z</time>
      </trkpt>
      <trkpt lat="40.9214450" lon="-4.1025820">
        <ele>1079.6</ele>
        <time>2019-04-28T06:30:02Z</time>
      </trkpt>
      <trkpt lat="40.9214050" lon="-4.1025710">
        <ele>1079.6</ele>
        <time>2019-04-28T06:30:03Z</time>
      </trkpt>
      <trkpt lat="40.9213690" lon="-4.1025750">
        <ele>1079.8</ele>
        <time>2019-04-28T06:30:04Z</time>
      </trkpt>
      <trkpt lat="40.9213290" lon="-4.1025700">
        <ele>1079.6</ele>
        <time>2019-04-28T06:30:05Z</time>
      </trkpt>
      <trkpt lat="40.9212870" lon="-4.1025600">
        <ele>1079.6</ele>
        <time>2019-04-28T06:30:06Z</time>
      </trkpt>
      <trkpt lat="40.9212430" lon="-4.1025460">
        <ele>1079.6</ele>
        <time>2019-04-28T06:30:07Z</time>
      </trkpt>
      <trkpt lat="40.9211970" lon="-4.1025370">
        <ele>1079.6</ele>
        <time>2019-04-28T06:30:08Z</time>
      </trkpt>
      <trkpt lat="40.9211510" lon="-4.1025280">
        <ele>1079.6</ele>
        <time>2019-04-28T06:30:09Z</time>
      </trkpt>
      <trkpt lat="40.9211050" lon="-4.1025170">
        <ele>1079.6</ele>
        <time>2019-04-28T06:30:10Z</time>
      </trkpt>
      <trkpt lat="40.9210590" lon="-4.1025040">
        <ele>1079.6</ele>
        <time>2019-04-28T06:30:11Z</time>
      </trkpt>
      <trkpt lat="40.9210130" lon="-4.1024980">
        <ele>1079.6</ele>
        <time>2019-04-28T06:30:12Z</time>
      </trkpt>
      <trkpt lat="40.9209660" lon="-4.1024830">
        <ele>1079.6</ele>
        <time>2019-04-28T06:30:13Z</time>
      </trkpt>
      <trkpt lat="40.9209180" lon="-4.1024710">
        <ele>1079.6</ele>
        <time>2019-04-28T06:30:14Z</time>
      </trkpt>
      <trkpt lat="40.9208710" lon="-4.1024610">
        <ele>1079.6</ele>
        <time>2019-04-28T06:30:15Z</time>
      </trkpt>
      <trkpt lat="40.9208230" lon="-4.1024480">
        <ele>1079.6</ele>
        <time>2019-04-28T06:30:16Z</time>
      </trkpt>
      <trkpt lat="40.9207750" lon="-4.1024310">
        <ele>1079.4</ele>
        <time>2019-04-28T06:30:17Z</time>
      </trkpt>
      <trkpt lat="40.9207280" lon="-4.1024180">
        <ele>1079.4</ele>
        <time>2019-04-28T06:30:18Z</time>
      </trkpt>
      <trkpt lat="40.9206840" lon="-4.1024070">
        <ele>1079.4</ele>
        <time>2019-04-28T06:30:19Z</time>
      </trkpt>
      <trkpt lat="40.9206450" lon="-4.1023940">
        <ele>1079.4</ele>
        <time>2019-04-28T06:30:20Z</time>
      </trkpt>
      <trkpt lat="40.9206080" lon="-4.1023820">
        <ele>1079.4</ele>
        <time>2019-04-28T06:30:21Z</time>
      </trkpt>
      <trkpt lat="40.9205730" lon="-4.1023720">
        <ele>1079.2</ele>
        <time>2019-04-28T06:30:22Z</time>
      </trkpt>
      <trkpt lat="40.9205390" lon="-4.1023610">
        <ele>1079.2</ele>
        <time>2019-04-28T06:30:23Z</time>
      </trkpt>
      <trkpt lat="40.9205040" lon="-4.1023470">
        <ele>1079.0</ele>
        <time>2019-04-28T06:30:24Z</time>
      </trkpt>
      <trkpt lat="40.9204740" lon="-4.1023260">
        <ele>1079.0</ele>
        <time>2019-04-28T06:30:25Z</time>
      </trkpt>
      <trkpt lat="40.9204580" lon="-4.1022890">
        <ele>1078.8</ele>
        <time>2019-04-28T06:30:26Z</time>
      </trkpt>
      <trkpt lat="40.9204540" lon="-4.1022440">
        <ele>1078.8</ele>
        <time>2019-04-28T06:30:27Z</time>
      </trkpt>
      <trkpt lat="40.9204620" lon="-4.1021950">
        <ele>1079.0</ele>
        <time>2019-04-28T06:30:28Z</time>
      </trkpt>
      <trkpt lat="40.9204830" lon="-4.1021520">
        <ele>1079.0</ele>
        <time>2019-04-28T06:30:29Z</time>
      </trkpt>
      <trkpt lat="40.9205110" lon="-4.1021120">
        <ele>1079.0</ele>
        <time>2019-04-28T06:30:30Z</time>
      </trkpt>
      <trkpt lat="40.9205420" lon="-4.1020750">
        <ele>1079.2</ele>
        <time>2019-04-28T06:30:31Z</time>
      </trkpt>
      <trkpt lat="40.9205730" lon="-4.1020370">
        <ele>1079.2</ele>
        <time>2019-04-28T06:30:32Z</time>
      </trkpt>
      <trkpt lat="40.9206020" lon="-4.1019940">
        <ele>1079.0</ele>
        <time>2019-04-28T06:30:33Z</time>
      </trkpt>
      <trkpt lat="40.9206260" lon="-4.1019420">
        <ele>1079.0</ele>
        <time>2019-04-28T06:30:34Z</time>
      </trkpt>
      <trkpt lat="40.9206420" lon="-4.1018860">
        <ele>1079.2</ele>
        <time>2019-04-28T06:30:35Z</time>
      </trkpt>
      <trkpt lat="40.9206550" lon="-4.1018280">
        <ele>1079.4</ele>
        <time>2019-04-28T06:30:36Z</time>
      </trkpt>
      <trkpt lat="40.9206670" lon="-4.1017710">
        <ele>1079.4</ele>
        <time>2019-04-28T06:30:37Z</time>
      </trkpt>
      <trkpt lat="40.9206770" lon="-4.1017130">
        <ele>1079.6</ele>
        <time>2019-04-28T06:30:38Z</time>
      </trkpt>
      <trkpt lat="40.9206850" lon="-4.1016550">
        <ele>1079.8</ele>
        <time>2019-04-28T06:30:39Z</time>
      </trkpt>
      <trkpt lat="40.9206940" lon="-4.1015980">
        <ele>1080.0</ele>
        <time>2019-04-28T06:30:40Z</time>
      </trkpt>
      <trkpt lat="40.9207000" lon="-4.1015430">
        <ele>1080.4</ele>
        <time>2019-04-28T06:30:41Z</time>
      </trkpt>
      <trkpt lat="40.9207050" lon="-4.1014880">
        <ele>1080.4</ele>
        <time>2019-04-28T06:30:42Z</time>
      </trkpt>
      <trkpt lat="40.9207110" lon="-4.1014340">
        <ele>1080.6</ele>
        <time>2019-04-28T06:30:43Z</time>
      </trkpt>
      <trkpt lat="40.9207190" lon="-4.1013820">
        <ele>1080.8</ele>
        <time>2019-04-28T06:30:44Z</time>
      </trkpt>
      <trkpt lat="40.9207290" lon="-4.1013290">
        <ele>1081.0</ele>
        <time>2019-04-28T06:30:45Z</time>
      </trkpt>
      <trkpt lat="40.9207350" lon="-4.1012760">
        <ele>1081.0</ele>
        <time>2019-04-28T06:30:46Z</time>
      </trkpt>
      <trkpt lat="40.9207420" lon="-4.1012230">
        <ele>1081.4</ele>
        <time>2019-04-28T06:30:47Z</time>
      </trkpt>
      <trkpt lat="40.9207470" lon="-4.1011710">
        <ele>1081.4</ele>
        <time>2019-04-28T06:30:48Z</time>
      </trkpt>
      <trkpt lat="40.9207550" lon="-4.1011210">
        <ele>1081.6</ele>
        <time>2019-04-28T06:30:49Z</time>
      </trkpt>
      <trkpt lat="40.9207650" lon="-4.1010730">
        <ele>1081.6</ele>
        <time>2019-04-28T06:30:50Z</time>
      </trkpt>
      <trkpt lat="40.9207710" lon="-4.1010220">
        <ele>1081.8</ele>
        <time>2019-04-28T06:30:51Z</time>
      </trkpt>
      <trkpt lat="40.9207820" lon="-4.1009710">
        <ele>1082.0</ele>
        <time>2019-04-28T06:30:52Z</time>
      </trkpt>
      <trkpt lat="40.9207900" lon="-4.1009210">
        <ele>1082.0</ele>
        <time>2019-04-28T06:30:53Z</time>
      </trkpt>
      <trkpt lat="40.9207970" lon="-4.1008700">
        <ele>1082.2</ele>
        <time>2019-04-28T06:30:54Z</time>
      </trkpt>
      <trkpt lat="40.9208020" lon="-4.1008190">
        <ele>1082.4</ele>
        <time>2019-04-28T06:30:55Z</time>
      </trkpt>
      <trkpt lat="40.9208090" lon="-4.1007680">
        <ele>1082.6</ele>
        <time>2019-04-28T06:30:56Z</time>
      </trkpt>
      <trkpt lat="40.9208140" lon="-4.1007180">
        <ele>1082.6</ele>
        <time>2019-04-28T06:30:57Z</time>
      </trkpt>
      <trkpt lat="40.9208240" lon="-4.1006670">
        <ele>1082.6</ele>
        <time>2019-04-28T06:30:58Z</time>
      </trkpt>
      <trkpt lat="40.9208320" lon="-4.1006160">
        <ele>1082.6</ele>
        <time>2019-04-28T06:30:59Z</time>
      </trkpt>
      <trkpt lat="40.9208400" lon="-4.1005640">
        <ele>1082.4</ele>
        <time>2019-04-28T06:31:00Z</time>
      </trkpt>
      <trkpt lat="40.9208460" lon="-4.1005090">
        <ele>1082.2</ele>
        <time>2019-04-28T06:31:01Z</time>
      </trkpt>
      <trkpt lat="40.9208550" lon="-4.1004510">
        <ele>1082.0</ele>
        <time>2019-04-28T06:31:02Z</time>
      </trkpt>
      <trkpt lat="40.9208640" lon="-4.1003890">
        <ele>1081.8</ele>
        <time>2019-04-28T06:31:03Z</time>
      </trkpt>
      <trkpt lat="40.9208740" lon="-4.1003250">
        <ele>1081.6</ele>
        <time>2019-04-28T06:31:04Z</time>
      </trkpt>
      <trkpt lat="40.9208840" lon="-4.1002600">
        <ele>1081.4</ele>
        <time>2019-04-28T06:31:05Z</time>
      </trkpt>
      <trkpt lat="40.9208960" lon="-4.1001930">
        <ele>1081.2</ele>
        <time>2019-04-28T06:31:06Z</time>
      </trkpt>
      <trkpt lat="40.9209090" lon="-4.1001260">
        <ele>1081.0</ele>
        <time>2019-04-28T06:31:07Z</time>
      </trkpt>
      <trkpt lat="40.9209220" lon="-4.1000570">
        <ele>1080.6</ele>
        <time>2019-04-28T06:31:08Z</time>
      </trkpt>
      <trkpt lat="40.9209390" lon="-4.0999880">
        <ele>1080.6</ele>
        <time>2019-04-28T06:31:09Z</time>
      </trkpt>
      <trkpt lat="40.9209480" lon="-4.0999200">
        <ele>1080.4</ele>
        <time>2019-04-28T06:31:10Z</time>
      </trkpt>
      <trkpt lat="40.9209650" lon="-4.0998540">
        <ele>1080.2</ele>
        <time>2019-04-28T06:31:11Z</time>
      </trkpt>
      <trkpt lat="40.9209770" lon="-4.0997890">
        <ele>1080.2</ele>
        <time>2019-04-28T06:31:12Z</time>
      </trkpt>
      <trkpt lat="40.9209890" lon="-4.0997250">
        <ele>1080.0</ele>
        <time>2019-04-28T06:31:13Z</time>
      </trkpt>
      <trkpt lat="40.9210010" lon="-4.0996630">
        <ele>1080.0</ele>
        <time>2019-04-28T06:31:14Z</time>
      </trkpt>
      <trkpt lat="40.9210100" lon="-4.0996000">
        <ele>1080.0</ele>
        <time>2019-04-28T06:31:15Z</time>
      </trkpt>
      <trkpt lat="40.9210210" lon="-4.0995350">
        <ele>1080.0</ele>
        <time>2019-04-28T06:31:16Z</time>
      </trkpt>
      <trkpt lat="40.9210330" lon="-4.0994710">
        <ele>1080.0</ele>
        <time>2019-04-28T06:31:17Z</time>
      </trkpt>
      <trkpt lat="40.9210420" lon="-4.0994070">
        <ele>1080.0</ele>
        <time>2019-04-28T06:31:18Z</time>
      </trkpt>
      <trkpt lat="40.9210520" lon="-4.0993420">
        <ele>1080.0</ele>
        <time>2019-04-28T06:31:19Z</time>
      </trkpt>
      <trkpt lat="40.9210650" lon="-4.0992730">
        <ele>1079.6</ele>
        <time>2019-04-28T06:31:20Z</time>
      </trkpt>
      <trkpt lat="40.9210740" lon="-4.0992040">
        <ele>1079.6</ele>
        <time>2019-04-28T06:31:21Z</time>
      </trkpt>
      <trkpt lat="40.9210850" lon="-4.0991320">
        <ele>1079.6</ele>
        <time>2019-04-28T06:31:22Z</time>
      </trkpt>
      <trkpt lat="40.9210980" lon="-4.0990600">
        <ele>1079.4</ele>
        <time>2019-04-28T06:31:23Z</time>
      </trkpt>
      <trkpt lat="40.9211100" lon="-4.0989870">
        <ele>1079.2</ele>
        <time>2019-04-28T06:31:24Z</time>
      </trkpt>
      <trkpt lat="40.9211220" lon="-4.0989130">
        <ele>1079.2</ele>
        <time>2019-04-28T06:31:25Z</time>
      </trkpt>
      <trkpt lat="40.9211370" lon="-4.0988380">
        <ele>1079.2</ele>
        <time>2019-04-28T06:31:26Z</time>
      </trkpt>
      <trkpt lat="40.9211400" lon="-4.0987640">
        <ele>1079.2</ele>
        <time>2019-04-28T06:31:27Z</time>
      </trkpt>
      <trkpt lat="40.9211510" lon="-4.0986890">
        <ele>1079.2</ele>
        <time>2019-04-28T06:31:28Z</time>
      </trkpt>
      <trkpt lat="40.9211620" lon="-4.0986150">
        <ele>1079.0</ele>
        <time>2019-04-28T06:31:29Z</time>
      </trkpt>
      <trkpt lat="40.9211760" lon="-4.0985430">
        <ele>1079.0</ele>
        <time>2019-04-28T06:31:30Z</time>
      </trkpt>
      <trkpt lat="40.9211880" lon="-4.0984740">
        <ele>1079.0</ele>
        <time>2019-04-28T06:31:31Z</time>
      </trkpt>
      <trkpt lat="40.9212020" lon="-4.0984060">
        <ele>1079.0</ele>
        <time>2019-04-28T06:31:32Z</time>
      </trkpt>
      <trkpt lat="40.9212130" lon="-4.0983400">
        <ele>1079.2</ele>
        <time>2019-04-28T06:31:33Z</time>
      </trkpt>
      <trkpt lat="40.9212240" lon="-4.0982770">
        <ele>1079.2</ele>
        <time>2019-04-28T06:31:34Z</time>
      </trkpt>
      <trkpt lat="40.9212350" lon="-4.0982150">
        <ele>1079.4</ele>
        <time>2019-04-28T06:31:35Z</time>
      </trkpt>
      <trkpt lat="40.9212430" lon="-4.0981510">
        <ele>1079.6</ele>
        <time>2019-04-28T06:31:36Z</time>
      </trkpt>
      <trkpt lat="40.9212540" lon="-4.0980890">
        <ele>1079.8</ele>
        <time>2019-04-28T06:31:37Z</time>
      </trkpt>
      <trkpt lat="40.9212670" lon="-4.0980280">
        <ele>1080.0</ele>
        <time>2019-04-28T06:31:38Z</time>
      </trkpt>
      <trkpt lat="40.9212780" lon="-4.0979680">
        <ele>1080.2</ele>
        <time>2019-04-28T06:31:39Z</time>
      </trkpt>
      <trkpt lat="40.9212880" lon="-4.0979110">
        <ele>1080.2</ele>
        <time>2019-04-28T06:31:40Z</time>
      </trkpt>
      <trkpt lat="40.9212980" lon="-4.0978570">
        <ele>1080.2</ele>
        <time>2019-04-28T06:31:41Z</time>
      </trkpt>
      <trkpt lat="40.9213120" lon="-4.0977990">
        <ele>1080.2</ele>
        <time>2019-04-28T06:31:42Z</time>
      </trkpt>
      <trkpt lat="40.9213210" lon="-4.0977380">
        <ele>1080.2</ele>
        <time>2019-04-28T06:31:43Z</time>
      </trkpt>
      <trkpt lat="40.9213300" lon="-4.0976760">
        <ele>1080.2</ele>
        <time>2019-04-28T06:31:44Z</time>
      </trkpt>
      <trkpt lat="40.9213430" lon="-4.0976140">
        <ele>1080.2</ele>
        <time>2019-04-28T06:31:45Z</time>
      </trkpt>
      <trkpt lat="40.9213600" lon="-4.0975520">
        <ele>1080.2</ele>
        <time>2019-04-28T06:31:46Z</time>
      </trkpt>
      <trkpt lat="40.9213710" lon="-4.0974900">
        <ele>1080.2</ele>
        <time>2019-04-28T06:31:47Z</time>
      </trkpt>
      <trkpt lat="40.9213810" lon="-4.0974270">
        <ele>1080.2</ele>
        <time>2019-04-28T06:31:48Z</time>
      </trkpt>
      <trkpt lat="40.9213880" lon="-4.0973660">
        <ele>1080.2</ele>
        <time>2019-04-28T06:31:49Z</time>
      </trkpt>
      <trkpt lat="40.9213980" lon="-4.0973040">
        <ele>1080.2</ele>
        <time>2019-04-28T06:31:50Z</time>
      </trkpt>
      <trkpt lat="40.9214110" lon="-4.0972440">
        <ele>1080.0</ele>
        <time>2019-04-28T06:31:51Z</time>
      </trkpt>
      <trkpt lat="40.9214240" lon="-4.0971830">
        <ele>1080.0</ele>
        <time>2019-04-28T06:31:52Z</time>
      </trkpt>
      <trkpt lat="40.9214340" lon="-4.0971230">
        <ele>1079.8</ele>
        <time>2019-04-28T06:31:53Z</time>
      </trkpt>
      <trkpt lat="40.9214430" lon="-4.0970630">
        <ele>1079.6</ele>
        <time>2019-04-28T06:31:54Z</time>
      </trkpt>
      <trkpt lat="40.9214510" lon="-4.0970040">
        <ele>1079.6</ele>
        <time>2019-04-28T06:31:55Z</time>
      </trkpt>
      <trkpt lat="40.9214570" lon="-4.0969430">
        <ele>1079.4</ele>
        <time>2019-04-28T06:31:56Z</time>
      </trkpt>
      <trkpt lat="40.9214590" lon="-4.0968880">
        <ele>1079.4</ele>
        <time>2019-04-28T06:31:57Z</time>
      </trkpt>
      <trkpt lat="40.9214510" lon="-4.0968390">
        <ele>1079.4</ele>
        <time>2019-04-28T06:31:58Z</time>
      </trkpt>
      <trkpt lat="40.9214270" lon="-4.0967980">
        <ele>1079.4</ele>
        <time>2019-04-28T06:31:59Z</time>
      </trkpt>
      <trkpt lat="40.9213990" lon="-4.0967690">
        <ele>1079.4</ele>
        <time>2019-04-28T06:32:00Z</time>
      </trkpt>
      <trkpt lat="40.9213650" lon="-4.0967410">
        <ele>1079.4</ele>
        <time>2019-04-28T06:32:01Z</time>
      </trkpt>
      <trkpt lat="40.9213270" lon="-4.0967140">
        <ele>1079.6</ele>
        <time>2019-04-28T06:32:02Z</time>
      </trkpt>
      <trkpt lat="40.9212870" lon="-4.0966870">
        <ele>1079.8</ele>
        <time>2019-04-28T06:32:03Z</time>
      </trkpt>
      <trkpt lat="40.9212460" lon="-4.0966580">
        <ele>1080.0</ele>
        <time>2019-04-28T06:32:04Z</time>
      </trkpt>
      <trkpt lat="40.9212060" lon="-4.0966260">
        <ele>1080.2</ele>
        <time>2019-04-28T06:32:05Z</time>
      </trkpt>
      <trkpt lat="40.9211690" lon="-4.0965900">
        <ele>1080.2</ele>
        <time>2019-04-28T06:32:06Z</time>
      </trkpt>
      <trkpt lat="40.9211340" lon="-4.0965510">
        <ele>1080.4</ele>
        <time>2019-04-28T06:32:07Z</time>
      </trkpt>
      <trkpt lat="40.9210990" lon="-4.0965150">
        <ele>1080.6</ele>
        <time>2019-04-28T06:32:08Z</time>
      </trkpt>
      <trkpt lat="40.9210620" lon="-4.0964830">
        <ele>1081.0</ele>
        <time>2019-04-28T06:32:09Z</time>
      </trkpt>
      <trkpt lat="40.9210260" lon="-4.0964510">
        <ele>1081.0</ele>
        <time>2019-04-28T06:32:10Z</time>
      </trkpt>
      <trkpt lat="40.9209910" lon="-4.0964180">
        <ele>1081.2</ele>
        <time>2019-04-28T06:32:11Z</time>
      </trkpt>
      <trkpt lat="40.9209540" lon="-4.0963850">
        <ele>1081.2</ele>
        <time>2019-04-28T06:32:12Z</time>
      </trkpt>
      <trkpt lat="40.9209160" lon="-4.0963490">
        <ele>1081.2</ele>
        <time>2019-04-28T06:32:13Z</time>
      </trkpt>
      <trkpt lat="40.9208820" lon="-4.0963120">
        <ele>1081.2</ele>
        <time>2019-04-28T06:32:14Z</time>
      </trkpt>
      <trkpt lat="40.9208500" lon="-4.0962720">
        <ele>1081.4</ele>
        <time>2019-04-28T06:32:15Z</time>
      </trkpt>
      <trkpt lat="40.9208170" lon="-4.0962340">
        <ele>1081.4</ele>
        <time>2019-04-28T06:32:16Z</time>
      </trkpt>
      <trkpt lat="40.9207850" lon="-4.0961950">
        <ele>1081.6</ele>
        <time>2019-04-28T06:32:17Z</time>
      </trkpt>
      <trkpt lat="40.9207530" lon="-4.0961520">
        <ele>1081.6</ele>
        <time>2019-04-28T06:32:18Z</time>
      </trkpt>
      <trkpt lat="40.9207230" lon="-4.0961120">
        <ele>1081.8</ele>
        <time>2019-04-28T06:32:19Z</time>
      </trkpt>
      <trkpt lat="40.9206930" lon="-4.0960740">
        <ele>1081.8</ele>
        <time>2019-04-28T06:32:20Z</time>
      </trkpt>
      <trkpt lat="40.9206610" lon="-4.0960400">
        <ele>1082.0</ele>
        <time>2019-04-28T06:32:21Z</time>
      </trkpt>
      <trkpt lat="40.9206280" lon="-4.0960080">
        <ele>1082.2</ele>
        <time>2019-04-28T06:32:22Z</time>
      </trkpt>
      <trkpt lat="40.9205950" lon="-4.0959770">
        <ele>1082.4</ele>
        <time>2019-04-28T06:32:23Z</time>
      </trkpt>
      <trkpt lat="40.9205630" lon="-4.0959450">
        <ele>1082.4</ele>
        <time>2019-04-28T06:32:24Z</time>
      </trkpt>
      <trkpt lat="40.9205290" lon="-4.0959120">
        <ele>1082.6</ele>
        <time>2019-04-28T06:32:25Z</time>
      </trkpt>
      <trkpt lat="40.9204940" lon="-4.0958810">
        <ele>1082.6</ele>
        <time>2019-04-28T06:32:26Z</time>
      </trkpt>
      <trkpt lat="40.9204610" lon="-4.0958490">
        <ele>1082.8</ele>
        <time>2019-04-28T06:32:27Z</time>
      </trkpt>
      <trkpt lat="40.9204280" lon="-4.0958130">
        <ele>1082.8</ele>
        <time>2019-04-28T06:32:28Z</time>
      </trkpt>
      <trkpt lat="40.9203950" lon="-4.0957770">
        <ele>1083.0</ele>
        <time>2019-04-28T06:32:29Z</time>
      </trkpt>
      <trkpt lat="40.9203620" lon="-4.0957440">
        <ele>1083.2</ele>
        <time>2019-04-28T06:32:30Z</time>
      </trkpt>
      <trkpt lat="40.9203270" lon="-4.0957110">
        <ele>1083.2</ele>
        <time>2019-04-28T06:32:31Z</time>
      </trkpt>
      <trkpt lat="40.9202930" lon="-4.0956770">
        <ele>1083.2</ele>
        <time>2019-04-28T06:32:32Z</time>
      </trkpt>
      <trkpt lat="40.9202610" lon="-4.0956420">
        <ele>1083.2</ele>
        <time>2019-04-28T06:32:33Z</time>
      </trkpt>
      <trkpt lat="40.9202300" lon="-4.0956050">
        <ele>1083.4</ele>
        <time>2019-04-28T06:32:34Z</time>
      </trkpt>
      <trkpt lat="40.9201970" lon="-4.0955680">
        <ele>1083.4</ele>
        <time>2019-04-28T06:32:35Z</time>
      </trkpt>
      <trkpt lat="40.9201650" lon="-4.0955320">
        <ele>1083.6</ele>
        <time>2019-04-28T06:32:36Z</time>
      </trkpt>
      <trkpt lat="40.9201330" lon="-4.0954980">
        <ele>1083.8</ele>
        <time>2019-04-28T06:32:37Z</time>
      </trkpt>
      <trkpt lat="40.9201020" lon="-4.0954600">
        <ele>1083.8</ele>
        <time>2019-04-28T06:32:38Z</time>
      </trkpt>
      <trkpt lat="40.9200720" lon="-4.0954190">
        <ele>1083.8</ele>
        <time>2019-04-28T06:32:39Z</time>
      </trkpt>
      <trkpt lat="40.9200410" lon="-4.0953800">
        <ele>1084.0</ele>
        <time>2019-04-28T06:32:40Z</time>
      </trkpt>
      <trkpt lat="40.9200110" lon="-4.0953430">
        <ele>1084.0</ele>
        <time>2019-04-28T06:32:41Z</time>
      </trkpt>
      <trkpt lat="40.9199800" lon="-4.0953060">
        <ele>1084.0</ele>
        <time>2019-04-28T06:32:42Z</time>
      </trkpt>
      <trkpt lat="40.9199480" lon="-4.0952700">
        <ele>1084.2</ele>
        <time>2019-04-28T06:32:43Z</time>
      </trkpt>
      <trkpt lat="40.9199170" lon="-4.0952320">
        <ele>1084.2</ele>
        <time>2019-04-28T06:32:44Z</time>
      </trkpt>
      <trkpt lat="40.9198890" lon="-4.0951910">
        <ele>1084.4</ele>
        <time>2019-04-28T06:32:45Z</time>
      </trkpt>
      <trkpt lat="40.9198600" lon="-4.0951500">
        <ele>1084.4</ele>
        <time>2019-04-28T06:32:46Z</time>
      </trkpt>
      <trkpt lat="40.9198310" lon="-4.0951090">
        <ele>1084.4</ele>
        <time>2019-04-28T06:32:47Z</time>
      </trkpt>
      <trkpt lat="40.9198030" lon="-4.0950680">
        <ele>1084.6</ele>
        <time>2019-04-28T06:32:48Z</time>
      </trkpt>
      <trkpt lat="40.9197740" lon="-4.0950290">
        <ele>1084.6</ele>
        <time>2019-04-28T06:32:49Z</time>
      </trkpt>
      <trkpt lat="40.9197450" lon="-4.0949880">
        <ele>1084.8</ele>
        <time>2019-04-28T06:32:50Z</time>
      </trkpt>
      <trkpt lat="40.9197160" lon="-4.0949460">
        <ele>1084.8</ele>
        <time>2019-04-28T06:32:51Z</time>
      </trkpt>
      <trkpt lat="40.9196860" lon="-4.0949060">
        <ele>1085.0</ele>
        <time>2019-04-28T06:32:52Z</time>
      </trkpt>
      <trkpt lat="40.9196560" lon="-4.0948650">
        <ele>1085.0</ele>
        <time>2019-04-28T06:32:53Z</time>
      </trkpt>
      <trkpt lat="40.9196260" lon="-4.0948260">
        <ele>1085.2</ele>
        <time>2019-04-28T06:32:54Z</time>
      </trkpt>
      <trkpt lat="40.9195960" lon="-4.0947860">
        <ele>1085.2</ele>
        <time>2019-04-28T06:32:55Z</time>
      </trkpt>
      <trkpt lat="40.9195670" lon="-4.0947470">
        <ele>1085.4</ele>
        <time>2019-04-28T06:32:56Z</time>
      </trkpt>
      <trkpt lat="40.9195380" lon="-4.0947080">
        <ele>1085.4</ele>
        <time>2019-04-28T06:32:57Z</time>
      </trkpt>
      <trkpt lat="40.9195080" lon="-4.0946690">
        <ele>1085.6</ele>
        <time>2019-04-28T06:32:58Z</time>
      </trkpt>
      <trkpt lat="40.9194810" lon="-4.0946280">
        <ele>1085.6</ele>
        <time>2019-04-28T06:32:59Z</time>
      </trkpt>
      <trkpt lat="40.9194540" lon="-4.0945860">
        <ele>1085.6</ele>
        <time>2019-04-28T06:33:00Z</time>
      </trkpt>
      <trkpt lat="40.9194250" lon="-4.0945450">
        <ele>1085.8</ele>
        <time>2019-04-28T06:33:01Z</time>
      </trkpt>
      <trkpt lat="40.9193980" lon="-4.0945050">
        <ele>1086.0</ele>
        <time>2019-04-28T06:33:02Z</time>
      </trkpt>
      <trkpt lat="40.9193710" lon="-4.0944640">
        <ele>1086.0</ele>
        <time>2019-04-28T06:33:03Z</time>
      </trkpt>
      <trkpt lat="40.9193430" lon="-4.0944240">
        <ele>1086.4</ele>
        <time>2019-04-28T06:33:04Z</time>
      </trkpt>
      <trkpt lat="40.9193130" lon="-4.0943860">
        <ele>1086.6</ele>
        <time>2019-04-28T06:33:05Z</time>
      </trkpt>
      <trkpt lat="40.9192830" lon="-4.0943510">
        <ele>1086.8</ele>
        <time>2019-04-28T06:33:06Z</time>
      </trkpt>
      <trkpt lat="40.9192540" lon="-4.0943180">
        <ele>1086.8</ele>
        <time>2019-04-28T06:33:07Z</time>
      </trkpt>
      <trkpt lat="40.9192240" lon="-4.0942850">
        <ele>1086.8</ele>
        <time>2019-04-28T06:33:08Z</time>
      </trkpt>
      <trkpt lat="40.9191980" lon="-4.0942490">
        <ele>1087.0</ele>
        <time>2019-04-28T06:33:09Z</time>
      </trkpt>
      <trkpt lat="40.9191670" lon="-4.0942160">
        <ele>1087.2</ele>
        <time>2019-04-28T06:33:10Z</time>
      </trkpt>
      <trkpt lat="40.9191350" lon="-4.0941860">
        <ele>1087.4</ele>
        <time>2019-04-28T06:33:11Z</time>
      </trkpt>
      <trkpt lat="40.9191040" lon="-4.0941590">
        <ele>1087.8</ele>
        <time>2019-04-28T06:33:12Z</time>
      </trkpt>
      <trkpt lat="40.9190760" lon="-4.0941320">
        <ele>1088.0</ele>
        <time>2019-04-28T06:33:13Z</time>
      </trkpt>
      <trkpt lat="40.9190480" lon="-4.0941030">
        <ele>1088.2</ele>
        <time>2019-04-28T06:33:14Z</time>
      </trkpt>
      <trkpt lat="40.9190210" lon="-4.0940730">
        <ele>1088.2</ele>
        <time>2019-04-28T06:33:15Z</time>
      </trkpt>
      <trkpt lat="40.9189950" lon="-4.0940420">
        <ele>1088.4</ele>
        <time>2019-04-28T06:33:16Z</time>
      </trkpt>
      <trkpt lat="40.9189680" lon="-4.0940120">
        <ele>1088.6</ele>
        <time>2019-04-28T06:33:17Z</time>
      </trkpt>
      <trkpt lat="40.9189420" lon="-4.0939800">
        <ele>1088.8</ele>
        <time>2019-04-28T06:33:18Z</time>
      </trkpt>
      <trkpt lat="40.9189170" lon="-4.0939460">
        <ele>1089.0</ele>
        <time>2019-04-28T06:33:19Z</time>
      </trkpt>
      <trkpt lat="40.9188950" lon="-4.0939120">
        <ele>1089.2</ele>
        <time>2019-04-28T06:33:20Z</time>
      </trkpt>
      <trkpt lat="40.9188720" lon="-4.0938770">
        <ele>1089.4</ele>
        <time>2019-04-28T06:33:21Z</time>
      </trkpt>
      <trkpt lat="40.9188500" lon="-4.0938420">
        <ele>1089.6</ele>
        <time>2019-04-28T06:33:22Z</time>
      </trkpt>
      <trkpt lat="40.9188270" lon="-4.0938070">
        <ele>1089.6</ele>
        <time>2019-04-28T06:33:23Z</time>
      </trkpt>
      <trkpt lat="40.9188010" lon="-4.0937740">
        <ele>1089.8</ele>
        <time>2019-04-28T06:33:24Z</time>
      </trkpt>
      <trkpt lat="40.9187750" lon="-4.0937420">
        <ele>1090.0</ele>
        <time>2019-04-28T06:33:25Z</time>
      </trkpt>
      <trkpt lat="40.9187510" lon="-4.0937080">
        <ele>1090.2</ele>
        <time>2019-04-28T06:33:26Z</time>
      </trkpt>
      <trkpt lat="40.9187270" lon="-4.0936750">
        <ele>1090.4</ele>
        <time>2019-04-28T06:33:27Z</time>
      </trkpt>
      <trkpt lat="40.9187020" lon="-4.0936430">
        <ele>1090.6</ele>
        <time>2019-04-28T06:33:28Z</time>
      </trkpt>
      <trkpt lat="40.9186770" lon="-4.0936100">
        <ele>1090.6</ele>
        <time>2019-04-28T06:33:29Z</time>
      </trkpt>
      <trkpt lat="40.9186530" lon="-4.0935760">
        <ele>1090.8</ele>
        <time>2019-04-28T06:33:30Z</time>
      </trkpt>
      <trkpt lat="40.9186300" lon="-4.0935390">
        <ele>1091.0</ele>
        <time>2019-04-28T06:33:31Z</time>
      </trkpt>
      <trkpt lat="40.9186100" lon="-4.0935020">
        <ele>1091.2</ele>
        <time>2019-04-28T06:33:32Z</time>
      </trkpt>
      <trkpt lat="40.9185900" lon="-4.0934650">
        <ele>1091.2</ele>
        <time>2019-04-28T06:33:33Z</time>
      </trkpt>
      <trkpt lat="40.9185720" lon="-4.0934260">
        <ele>1091.6</ele>
        <time>2019-04-28T06:33:34Z</time>
      </trkpt>
      <trkpt lat="40.9185570" lon="-4.0933860">
        <ele>1091.6</ele>
        <time>2019-04-28T06:33:35Z</time>
      </trkpt>
      <trkpt lat="40.9185430" lon="-4.0933450">
        <ele>1091.8</ele>
        <time>2019-04-28T06:33:36Z</time>
      </trkpt>
      <trkpt lat="40.9185250" lon="-4.0933040">
        <ele>1092.0</ele>
        <time>2019-04-28T06:33:37Z</time>
      </trkpt>
      <trkpt lat="40.9185050" lon="-4.0932670">
        <ele>1092.2</ele>
        <time>2019-04-28T06:33:38Z</time>
      </trkpt>
      <trkpt lat="40.9184840" lon="-4.0932320">
        <ele>1092.4</ele>
        <time>2019-04-28T06:33:39Z</time>
      </trkpt>
      <trkpt lat="40.9184680" lon="-4.0931940">
        <ele>1092.6</ele>
        <time>2019-04-28T06:33:40Z</time>
      </trkpt>
      <trkpt lat="40.9184510" lon="-4.0931560">
        <ele>1092.8</ele>
        <time>2019-04-28T06:33:41Z</time>
      </trkpt>
      <trkpt lat="40.9184340" lon="-4.0931150">
        <ele>1093.0</ele>
        <time>2019-04-28T06:33:42Z</time>
      </trkpt>
      <trkpt lat="40.9184160" lon="-4.0930720">
        <ele>1093.0</ele>
        <time>2019-04-28T06:33:43Z</time>
      </trkpt>
      <trkpt lat="40.9183920" lon="-4.0930350">
        <ele>1093.2</ele>
        <time>2019-04-28T06:33:44Z</time>
      </trkpt>
      <trkpt lat="40.9183680" lon="-4.0930000">
        <ele>1093.4</ele>
        <time>2019-04-28T06:33:45Z</time>
      </trkpt>
      <trkpt lat="40.9183460" lon="-4.0929640">
        <ele>1093.6</ele>
        <time>2019-04-28T06:33:46Z</time>
      </trkpt>
      <trkpt lat="40.9183220" lon="-4.0929310">
        <ele>1093.8</ele>
        <time>2019-04-28T06:33:47Z</time>
      </trkpt>
      <trkpt lat="40.9182980" lon="-4.0928980">
        <ele>1094.0</ele>
        <time>2019-04-28T06:33:48Z</time>
      </trkpt>
      <trkpt lat="40.9182730" lon="-4.0928660">
        <ele>1094.2</ele>
        <time>2019-04-28T06:33:49Z</time>
      </trkpt>
      <trkpt lat="40.9182460" lon="-4.0928390">
        <ele>1094.2</ele>
        <time>2019-04-28T06:33:50Z</time>
      </trkpt>
      <trkpt lat="40.9182190" lon="-4.0928110">
        <ele>1094.4</ele>
        <time>2019-04-28T06:33:51Z</time>
      </trkpt>
      <trkpt lat="40.9181940" lon="-4.0927810">
        <ele>1094.6</ele>
        <time>2019-04-28T06:33:52Z</time>
      </trkpt>
      <trkpt lat="40.9181730" lon="-4.0927450">
        <ele>1094.6</ele>
        <time>2019-04-28T06:33:53Z</time>
      </trkpt>
      <trkpt lat="40.9181500" lon="-4.0927100">
        <ele>1094.8</ele>
        <time>2019-04-28T06:33:54Z</time>
      </trkpt>
      <trkpt lat="40.9181240" lon="-4.0926770">
        <ele>1095.0</ele>
        <time>2019-04-28T06:33:55Z</time>
      </trkpt>
      <trkpt lat="40.9180980" lon="-4.0926440">
        <ele>1095.0</ele>
        <time>2019-04-28T06:33:56Z</time>
      </trkpt>
      <trkpt lat="40.9180730" lon="-4.0926100">
        <ele>1095.2</ele>
        <time>2019-04-28T06:33:57Z</time>
      </trkpt>
      <trkpt lat="40.9180480" lon="-4.0925760">
        <ele>1095.4</ele>
        <time>2019-04-28T06:33:58Z</time>
      </trkpt>
      <trkpt lat="40.9180240" lon="-4.0925410">
        <ele>1095.6</ele>
        <time>2019-04-28T06:33:59Z</time>
      </trkpt>
      <trkpt lat="40.9180000" lon="-4.0925060">
        <ele>1095.8</ele>
        <time>2019-04-28T06:34:00Z</time>
      </trkpt>
      <trkpt lat="40.9179760" lon="-4.0924710">
        <ele>1095.8</ele>
        <time>2019-04-28T06:34:01Z</time>
      </trkpt>
      <trkpt lat="40.9179500" lon="-4.0924370">
        <ele>1096.0</ele>
        <time>2019-04-28T06:34:02Z</time>
      </trkpt>
      <trkpt lat="40.9179260" lon="-4.0924020">
        <ele>1096.2</ele>
        <time>2019-04-28T06:34:03Z</time>
      </trkpt>
      <trkpt lat="40.9179030" lon="-4.0923640">
        <ele>1096.2</ele>
        <time>2019-04-28T06:34:04Z</time>
      </trkpt>
      <trkpt lat="40.9178800" lon="-4.0923270">
        <ele>1096.2</ele>
        <time>2019-04-28T06:34:05Z</time>
      </trkpt>
      <trkpt lat="40.9178590" lon="-4.0922880">
        <ele>1096.4</ele>
        <time>2019-04-28T06:34:06Z</time>
      </trkpt>
      <trkpt lat="40.9178340" lon="-4.0922520">
        <ele>1096.6</ele>
        <time>2019-04-28T06:34:07Z</time>
      </trkpt>
      <trkpt lat="40.9178060" lon="-4.0922200">
        <ele>1096.6</ele>
        <time>2019-04-28T06:34:08Z</time>
      </trkpt>
      <trkpt lat="40.9177770" lon="-4.0921910">
        <ele>1096.8</ele>
        <time>2019-04-28T06:34:09Z</time>
      </trkpt>
      <trkpt lat="40.9177490" lon="-4.0921590">
        <ele>1096.8</ele>
        <time>2019-04-28T06:34:10Z</time>
      </trkpt>
      <trkpt lat="40.9177200" lon="-4.0921280">
        <ele>1096.8</ele>
        <time>2019-04-28T06:34:11Z</time>
      </trkpt>
      <trkpt lat="40.9176970" lon="-4.0920930">
        <ele>1097.0</ele>
        <time>2019-04-28T06:34:12Z</time>
      </trkpt>
      <trkpt lat="40.9176710" lon="-4.0920530">
        <ele>1097.2</ele>
        <time>2019-04-28T06:34:13Z</time>
      </trkpt>
      <trkpt lat="40.9176450" lon="-4.0920210">
        <ele>1097.2</ele>
        <time>2019-04-28T06:34:14Z</time>
      </trkpt>
      <trkpt lat="40.9176190" lon="-4.0919890">
        <ele>1097.2</ele>
        <time>2019-04-28T06:34:15Z</time>
      </trkpt>
      <trkpt lat="40.9175920" lon="-4.0919510">
        <ele>1097.4</ele>
        <time>2019-04-28T06:34:16Z</time>
      </trkpt>
      <trkpt lat="40.9175660" lon="-4.0919190">
        <ele>1097.4</ele>
        <time>2019-04-28T06:34:17Z</time>
      </trkpt>
      <trkpt lat="40.9175400" lon="-4.0918840">
        <ele>1097.4</ele>
        <time>2019-04-28T06:34:18Z</time>
      </trkpt>
      <trkpt lat="40.9175160" lon="-4.0918460">
        <ele>1097.6</ele>
        <time>2019-04-28T06:34:19Z</time>
      </trkpt>
      <trkpt lat="40.9174910" lon="-4.0918090">
        <ele>1097.6</ele>
        <time>2019-04-28T06:34:20Z</time>
      </trkpt>
      <trkpt lat="40.9174650" lon="-4.0917730">
        <ele>1097.8</ele>
        <time>2019-04-28T06:34:21Z</time>
      </trkpt>
      <trkpt lat="40.9174360" lon="-4.0917390">
        <ele>1097.8</ele>
        <time>2019-04-28T06:34:22Z</time>
      </trkpt>
      <trkpt lat="40.9174080" lon="-4.0917020">
        <ele>1098.0</ele>
        <time>2019-04-28T06:34:23Z</time>
      </trkpt>
      <trkpt lat="40.9173810" lon="-4.0916630">
        <ele>1098.0</ele>
        <time>2019-04-28T06:34:24Z</time>
      </trkpt>
      <trkpt lat="40.9173510" lon="-4.0916270">
        <ele>1098.0</ele>
        <time>2019-04-28T06:34:25Z</time>
      </trkpt>
      <trkpt lat="40.9173220" lon="-4.0915910">
        <ele>1098.2</ele>
        <time>2019-04-28T06:34:26Z</time>
      </trkpt>
      <trkpt lat="40.9172920" lon="-4.0915570">
        <ele>1098.2</ele>
        <time>2019-04-28T06:34:27Z</time>
      </trkpt>
      <trkpt lat="40.9172610" lon="-4.0915230">
        <ele>1098.2</ele>
        <time>2019-04-28T06:34:28Z</time>
      </trkpt>
      <trkpt lat="40.9172320" lon="-4.0914880">
        <ele>1098.4</ele>
        <time>2019-04-28T06:34:29Z</time>
      </trkpt>
      <trkpt lat="40.9172040" lon="-4.0914510">
        <ele>1098.6</ele>
        <time>2019-04-28T06:34:30Z</time>
      </trkpt>
      <trkpt lat="40.9171770" lon="-4.0914140">
        <ele>1098.6</ele>
        <time>2019-04-28T06:34:31Z</time>
      </trkpt>
      <trkpt lat="40.9171500" lon="-4.0913750">
        <ele>1098.8</ele>
        <time>2019-04-28T06:34:32Z</time>
      </trkpt>
      <trkpt lat="40.9171210" lon="-4.0913410">
        <ele>1098.8</ele>
        <time>2019-04-28T06:34:33Z</time>
      </trkpt>
      <trkpt lat="40.9170910" lon="-4.0913060">
        <ele>1099.0</ele>
        <time>2019-04-28T06:34:34Z</time>
      </trkpt>
      <trkpt lat="40.9170620" lon="-4.0912700">
        <ele>1099.0</ele>
        <time>2019-04-28T06:34:35Z</time>
      </trkpt>
      <trkpt lat="40.9170330" lon="-4.0912350">
        <ele>1099.2</ele>
        <time>2019-04-28T06:34:36Z</time>
      </trkpt>
      <trkpt lat="40.9170030" lon="-4.0912000">
        <ele>1099.2</ele>
        <time>2019-04-28T06:34:37Z</time>
      </trkpt>
      <trkpt lat="40.9169720" lon="-4.0911660">
        <ele>1099.2</ele>
        <time>2019-04-28T06:34:38Z</time>
      </trkpt>
      <trkpt lat="40.9169400" lon="-4.0911270">
        <ele>1099.4</ele>
        <time>2019-04-28T06:34:39Z</time>
      </trkpt>
      <trkpt lat="40.9169060" lon="-4.0910850">
        <ele>1099.4</ele>
        <time>2019-04-28T06:34:40Z</time>
      </trkpt>
      <trkpt lat="40.9168730" lon="-4.0910400">
        <ele>1099.4</ele>
        <time>2019-04-28T06:34:41Z</time>
      </trkpt>
      <trkpt lat="40.9168390" lon="-4.0909950">
        <ele>1099.6</ele>
        <time>2019-04-28T06:34:42Z</time>
      </trkpt>
      <trkpt lat="40.9168050" lon="-4.0909510">
        <ele>1099.6</ele>
        <time>2019-04-28T06:34:43Z</time>
      </trkpt>
      <trkpt lat="40.9167700" lon="-4.0909050">
        <ele>1099.6</ele>
        <time>2019-04-28T06:34:44Z</time>
      </trkpt>
      <trkpt lat="40.9167340" lon="-4.0908600">
        <ele>1099.8</ele>
        <time>2019-04-28T06:34:45Z</time>
      </trkpt>
      <trkpt lat="40.9166990" lon="-4.0908160">
        <ele>1099.8</ele>
        <time>2019-04-28T06:34:46Z</time>
      </trkpt>
      <trkpt lat="40.9166630" lon="-4.0907710">
        <ele>1099.8</ele>
        <time>2019-04-28T06:34:47Z</time>
      </trkpt>
      <trkpt lat="40.9166280" lon="-4.0907280">
        <ele>1099.8</ele>
        <time>2019-04-28T06:34:48Z</time>
      </trkpt>
      <trkpt lat="40.9165920" lon="-4.0906850">
        <ele>1099.8</ele>
        <time>2019-04-28T06:34:49Z</time>
      </trkpt>
      <trkpt lat="40.9165580" lon="-4.0906430">
        <ele>1100.0</ele>
        <time>2019-04-28T06:34:50Z</time>
      </trkpt>
      <trkpt lat="40.9165250" lon="-4.0906020">
        <ele>1100.0</ele>
        <time>2019-04-28T06:34:51Z</time>
      </trkpt>
      <trkpt lat="40.9164930" lon="-4.0905630">
        <ele>1100.0</ele>
        <time>2019-04-28T06:34:52Z</time>
      </trkpt>
      <trkpt lat="40.9164600" lon="-4.0905260">
        <ele>1100.0</ele>
        <time>2019-04-28T06:34:53Z</time>
      </trkpt>
      <trkpt lat="40.9164300" lon="-4.0904880">
        <ele>1100.0</ele>
        <time>2019-04-28T06:34:54Z</time>
      </trkpt>
      <trkpt lat="40.9163990" lon="-4.0904490">
        <ele>1100.2</ele>
        <time>2019-04-28T06:34:55Z</time>
      </trkpt>
      <trkpt lat="40.9163690" lon="-4.0904110">
        <ele>1100.2</ele>
        <time>2019-04-28T06:34:56Z</time>
      </trkpt>
      <trkpt lat="40.9163370" lon="-4.0903730">
        <ele>1100.2</ele>
        <time>2019-04-28T06:34:57Z</time>
      </trkpt>
      <trkpt lat="40.9163070" lon="-4.0903350">
        <ele>1100.2</ele>
        <time>2019-04-28T06:34:58Z</time>
      </trkpt>
      <trkpt lat="40.9162750" lon="-4.0902980">
        <ele>1100.2</ele>
        <time>2019-04-28T06:34:59Z</time>
      </trkpt>
      <trkpt lat="40.9162430" lon="-4.0902590">
        <ele>1100.2</ele>
        <time>2019-04-28T06:35:00Z</time>
      </trkpt>
      <trkpt lat="40.9162110" lon="-4.0902220">
        <ele>1100.2</ele>
        <time>2019-04-28T06:35:01Z</time>
      </trkpt>
      <trkpt lat="40.9161790" lon="-4.0901850">
        <ele>1100.4</ele>
        <time>2019-04-28T06:35:02Z</time>
      </trkpt>
      <trkpt lat="40.9161470" lon="-4.0901470">
        <ele>1100.4</ele>
        <time>2019-04-28T06:35:03Z</time>
      </trkpt>
      <trkpt lat="40.9161170" lon="-4.0901070">
        <ele>1100.4</ele>
        <time>2019-04-28T06:35:04Z</time>
      </trkpt>
      <trkpt lat="40.9160870" lon="-4.0900670">
        <ele>1100.4</ele>
        <time>2019-04-28T06:35:05Z</time>
      </trkpt>
      <trkpt lat="40.9160570" lon="-4.0900280">
        <ele>1100.4</ele>
        <time>2019-04-28T06:35:06Z</time>
      </trkpt>
      <trkpt lat="40.9160270" lon="-4.0899890">
        <ele>1100.6</ele>
        <time>2019-04-28T06:35:07Z</time>
      </trkpt>
      <trkpt lat="40.9159970" lon="-4.0899500">
        <ele>1100.6</ele>
        <time>2019-04-28T06:35:08Z</time>
      </trkpt>
      <trkpt lat="40.9159660" lon="-4.0899100">
        <ele>1100.4</ele>
        <time>2019-04-28T06:35:09Z</time>
      </trkpt>
      <trkpt lat="40.9159350" lon="-4.0898700">
        <ele>1100.4</ele>
        <time>2019-04-28T06:35:10Z</time>
      </trkpt>
      <trkpt lat="40.9159030" lon="-4.0898320">
        <ele>1100.4</ele>
        <time>2019-04-28T06:35:11Z</time>
      </trkpt>
      <trkpt lat="40.9158700" lon="-4.0897930">
        <ele>1100.4</ele>
        <time>2019-04-28T06:35:12Z</time>
      </trkpt>
      <trkpt lat="40.9158370" lon="-4.0897550">
        <ele>1100.4</ele>
        <time>2019-04-28T06:35:13Z</time>
      </trkpt>
      <trkpt lat="40.9158040" lon="-4.0897170">
        <ele>1100.4</ele>
        <time>2019-04-28T06:35:14Z</time>
      </trkpt>
      <trkpt lat="40.9157690" lon="-4.0896800">
        <ele>1100.4</ele>
        <time>2019-04-28T06:35:15Z</time>
      </trkpt>
      <trkpt lat="40.9157380" lon="-4.0896390">
        <ele>1100.2</ele>
        <time>2019-04-28T06:35:16Z</time>
      </trkpt>
      <trkpt lat="40.9157070" lon="-4.0895940">
        <ele>1100.2</ele>
        <time>2019-04-28T06:35:17Z</time>
      </trkpt>
      <trkpt lat="40.9156770" lon="-4.0895510">
        <ele>1100.2</ele>
        <time>2019-04-28T06:35:18Z</time>
      </trkpt>
      <trkpt lat="40.9156450" lon="-4.0895100">
        <ele>1100.2</ele>
        <time>2019-04-28T06:35:19Z</time>
      </trkpt>
      <trkpt lat="40.9156120" lon="-4.0894700">
        <ele>1100.2</ele>
        <time>2019-04-28T06:35:20Z</time>
      </trkpt>
      <trkpt lat="40.9155800" lon="-4.0894320">
        <ele>1100.2</ele>
        <time>2019-04-28T06:35:21Z</time>
      </trkpt>
      <trkpt lat="40.9155480" lon="-4.0893910">
        <ele>1100.2</ele>
        <time>2019-04-28T06:35:22Z</time>
      </trkpt>
      <trkpt lat="40.9155140" lon="-4.0893500">
        <ele>1100.2</ele>
        <time>2019-04-28T06:35:23Z</time>
      </trkpt>
      <trkpt lat="40.9154830" lon="-4.0893080">
        <ele>1100.0</ele>
        <time>2019-04-28T06:35:24Z</time>
      </trkpt>
      <trkpt lat="40.9154510" lon="-4.0892660">
        <ele>1100.0</ele>
        <time>2019-04-28T06:35:25Z</time>
      </trkpt>
      <trkpt lat="40.9154180" lon="-4.0892240">
        <ele>1100.0</ele>
        <time>2019-04-28T06:35:26Z</time>
      </trkpt>
      <trkpt lat="40.9153860" lon="-4.0891820">
        <ele>1100.0</ele>
        <time>2019-04-28T06:35:27Z</time>
      </trkpt>
      <trkpt lat="40.9153540" lon="-4.0891410">
        <ele>1099.8</ele>
        <time>2019-04-28T06:35:28Z</time>
      </trkpt>
      <trkpt lat="40.9153240" lon="-4.0891000">
        <ele>1099.8</ele>
        <time>2019-04-28T06:35:29Z</time>
      </trkpt>
      <trkpt lat="40.9152940" lon="-4.0890590">
        <ele>1099.8</ele>
        <time>2019-04-28T06:35:30Z</time>
      </trkpt>
      <trkpt lat="40.9152630" lon="-4.0890160">
        <ele>1099.8</ele>
        <time>2019-04-28T06:35:31Z</time>
      </trkpt>
      <trkpt lat="40.9152290" lon="-4.0889740">
        <ele>1099.6</ele>
        <time>2019-04-28T06:35:32Z</time>
      </trkpt>
      <trkpt lat="40.9151910" lon="-4.0889330">
        <ele>1099.6</ele>
        <time>2019-04-28T06:35:33Z</time>
      </trkpt>
      <trkpt lat="40.9151500" lon="-4.0888940">
        <ele>1099.4</ele>
        <time>2019-04-28T06:35:34Z</time>
      </trkpt>
      <trkpt lat="40.9151090" lon="-4.0888550">
        <ele>1099.4</ele>
        <time>2019-04-28T06:35:35Z</time>
      </trkpt>
      <trkpt lat="40.9150680" lon="-4.0888140">
        <ele>1099.0</ele>
        <time>2019-04-28T06:35:36Z</time>
      </trkpt>
      <trkpt lat="40.9150290" lon="-4.0887690">
        <ele>1099.0</ele>
        <time>2019-04-28T06:35:37Z</time>
      </trkpt>
      <trkpt lat="40.9149900" lon="-4.0887220">
        <ele>1098.8</ele>
        <time>2019-04-28T06:35:38Z</time>
      </trkpt>
      <trkpt lat="40.9149510" lon="-4.0886740">
        <ele>1098.8</ele>
        <time>2019-04-28T06:35:39Z</time>
      </trkpt>
      <trkpt lat="40.9149130" lon="-4.0886300">
        <ele>1098.6</ele>
        <time>2019-04-28T06:35:40Z</time>
      </trkpt>
      <trkpt lat="40.9148730" lon="-4.0885880">
        <ele>1098.6</ele>
        <time>2019-04-28T06:35:41Z</time>
      </trkpt>
      <trkpt lat="40.9148330" lon="-4.0885430">
        <ele>1098.4</ele>
        <time>2019-04-28T06:35:42Z</time>
      </trkpt>
      <trkpt lat="40.9147930" lon="-4.0884960">
        <ele>1098.4</ele>
        <time>2019-04-28T06:35:43Z</time>
      </trkpt>
      <trkpt lat="40.9147530" lon="-4.0884500">
        <ele>1098.4</ele>
        <time>2019-04-28T06:35:44Z</time>
      </trkpt>
      <trkpt lat="40.9147120" lon="-4.0884070">
        <ele>1098.2</ele>
        <time>2019-04-28T06:35:45Z</time>
      </trkpt>
      <trkpt lat="40.9146720" lon="-4.0883630">
        <ele>1098.0</ele>
        <time>2019-04-28T06:35:46Z</time>
      </trkpt>
      <trkpt lat="40.9146340" lon="-4.0883210">
        <ele>1098.0</ele>
        <time>2019-04-28T06:35:47Z</time>
      </trkpt>
      <trkpt lat="40.9145970" lon="-4.0882790">
        <ele>1098.0</ele>
        <time>2019-04-28T06:35:48Z</time>
      </trkpt>
      <trkpt lat="40.9145600" lon="-4.0882380">
        <ele>1098.0</ele>
        <time>2019-04-28T06:35:49Z</time>
      </trkpt>
      <trkpt lat="40.9145240" lon="-4.0881950">
        <ele>1097.8</ele>
        <time>2019-04-28T06:35:50Z</time>
      </trkpt>
      <trkpt lat="40.9144900" lon="-4.0881550">
        <ele>1097.8</ele>
        <time>2019-04-28T06:35:51Z</time>
      </trkpt>
      <trkpt lat="40.9144550" lon="-4.0881160">
        <ele>1097.6</ele>
        <time>2019-04-28T06:35:52Z</time>
      </trkpt>
      <trkpt lat="40.9144210" lon="-4.0880770">
        <ele>1097.6</ele>
        <time>2019-04-28T06:35:53Z</time>
      </trkpt>
      <trkpt lat="40.9143870" lon="-4.0880400">
        <ele>1097.6</ele>
        <time>2019-04-28T06:35:54Z</time>
      </trkpt>
      <trkpt lat="40.9143520" lon="-4.0880050">
        <ele>1097.6</ele>
        <time>2019-04-28T06:35:55Z</time>
      </trkpt>
      <trkpt lat="40.9143180" lon="-4.0879680">
        <ele>1097.8</ele>
        <time>2019-04-28T06:35:56Z</time>
      </trkpt>
      <trkpt lat="40.9142830" lon="-4.0879310">
        <ele>1097.6</ele>
        <time>2019-04-28T06:35:57Z</time>
      </trkpt>
      <trkpt lat="40.9142480" lon="-4.0878940">
        <ele>1097.8</ele>
        <time>2019-04-28T06:35:58Z</time>
      </trkpt>
      <trkpt lat="40.9142100" lon="-4.0878580">
        <ele>1097.6</ele>
        <time>2019-04-28T06:35:59Z</time>
      </trkpt>
      <trkpt lat="40.9141730" lon="-4.0878220">
        <ele>1097.6</ele>
        <time>2019-04-28T06:36:00Z</time>
      </trkpt>
      <trkpt lat="40.9141360" lon="-4.0877840">
        <ele>1097.6</ele>
        <time>2019-04-28T06:36:01Z</time>
      </trkpt>
      <trkpt lat="40.9140980" lon="-4.0877470">
        <ele>1097.4</ele>
        <time>2019-04-28T06:36:02Z</time>
      </trkpt>
      <trkpt lat="40.9140620" lon="-4.0877090">
        <ele>1097.4</ele>
        <time>2019-04-28T06:36:03Z</time>
      </trkpt>
      <trkpt lat="40.9140260" lon="-4.0876700">
        <ele>1097.4</ele>
        <time>2019-04-28T06:36:04Z</time>
      </trkpt>
      <trkpt lat="40.9139890" lon="-4.0876320">
        <ele>1097.4</ele>
        <time>2019-04-28T06:36:05Z</time>
      </trkpt>
      <trkpt lat="40.9139540" lon="-4.0876060">
        <ele>1097.4</ele>
        <time>2019-04-28T06:36:06Z</time>
      </trkpt>
      <trkpt lat="40.9139190" lon="-4.0875870">
        <ele>1097.2</ele>
        <time>2019-04-28T06:36:07Z</time>
      </trkpt>
      <trkpt lat="40.9138900" lon="-4.0875670">
        <ele>1097.4</ele>
        <time>2019-04-28T06:36:08Z</time>
      </trkpt>
      <trkpt lat="40.9138690" lon="-4.0875480">
        <ele>1097.4</ele>
        <time>2019-04-28T06:36:09Z</time>
      </trkpt>
      <trkpt lat="40.9138430" lon="-4.0875250">
        <ele>1097.4</ele>
        <time>2019-04-28T06:36:10Z</time>
      </trkpt>
      <trkpt lat="40.9138150" lon="-4.0875110">
        <ele>1097.4</ele>
        <time>2019-04-28T06:36:11Z</time>
      </trkpt>
      <trkpt lat="40.9137780" lon="-4.0874930">
        <ele>1097.4</ele>
        <time>2019-04-28T06:36:12Z</time>
      </trkpt>
      <trkpt lat="40.9137360" lon="-4.0874630">
        <ele>1097.8</ele>
        <time>2019-04-28T06:36:13Z</time>
      </trkpt>
      <trkpt lat="40.9136920" lon="-4.0874260">
        <ele>1097.8</ele>
        <time>2019-04-28T06:36:14Z</time>
      </trkpt>
      <trkpt lat="40.9136510" lon="-4.0873850">
        <ele>1098.0</ele>
        <time>2019-04-28T06:36:15Z</time>
      </trkpt>
      <trkpt lat="40.9136110" lon="-4.0873450">
        <ele>1098.0</ele>
        <time>2019-04-28T06:36:16Z</time>
      </trkpt>
      <trkpt lat="40.9135690" lon="-4.0873070">
        <ele>1098.0</ele>
        <time>2019-04-28T06:36:17Z</time>
      </trkpt>
      <trkpt lat="40.9135270" lon="-4.0872750">
        <ele>1098.2</ele>
        <time>2019-04-28T06:36:18Z</time>
      </trkpt>
      <trkpt lat="40.9134830" lon="-4.0872440">
        <ele>1098.2</ele>
        <time>2019-04-28T06:36:19Z</time>
      </trkpt>
      <trkpt lat="40.9134390" lon="-4.0872190">
        <ele>1098.2</ele>
        <time>2019-04-28T06:36:20Z</time>
      </trkpt>
      <trkpt lat="40.9133950" lon="-4.0871990">
        <ele>1098.2</ele>
        <time>2019-04-28T06:36:21Z</time>
      </trkpt>
      <trkpt lat="40.9133530" lon="-4.0871790">
        <ele>1098.4</ele>
        <time>2019-04-28T06:36:22Z</time>
      </trkpt>
      <trkpt lat="40.9133110" lon="-4.0871600">
        <ele>1098.4</ele>
        <time>2019-04-28T06:36:23Z</time>
      </trkpt>
      <trkpt lat="40.9132680" lon="-4.0871390">
        <ele>1098.4</ele>
        <time>2019-04-28T06:36:24Z</time>
      </trkpt>
      <trkpt lat="40.9132250" lon="-4.0871110">
        <ele>1098.2</ele>
        <time>2019-04-28T06:36:25Z</time>
      </trkpt>
      <trkpt lat="40.9131830" lon="-4.0870790">
        <ele>1098.2</ele>
        <time>2019-04-28T06:36:26Z</time>
      </trkpt>
      <trkpt lat="40.9131430" lon="-4.0870460">
        <ele>1098.4</ele>
        <time>2019-04-28T06:36:27Z</time>
      </trkpt>
      <trkpt lat="40.9131060" lon="-4.0870120">
        <ele>1098.4</ele>
        <time>2019-04-28T06:36:28Z</time>
      </trkpt>
      <trkpt lat="40.9130730" lon="-4.0869720">
        <ele>1098.6</ele>
        <time>2019-04-28T06:36:29Z</time>
      </trkpt>
      <trkpt lat="40.9130410" lon="-4.0869330">
        <ele>1098.6</ele>
        <time>2019-04-28T06:36:30Z</time>
      </trkpt>
      <trkpt lat="40.9130070" lon="-4.0868960">
        <ele>1098.6</ele>
        <time>2019-04-28T06:36:31Z</time>
      </trkpt>
      <trkpt lat="40.9129710" lon="-4.0868600">
        <ele>1098.8</ele>
        <time>2019-04-28T06:36:32Z</time>
      </trkpt>
      <trkpt lat="40.9129350" lon="-4.0868270">
        <ele>1098.8</ele>
        <time>2019-04-28T06:36:33Z</time>
      </trkpt>
      <trkpt lat="40.9128980" lon="-4.0867960">
        <ele>1098.8</ele>
        <time>2019-04-28T06:36:34Z</time>
      </trkpt>
      <trkpt lat="40.9128600" lon="-4.0867650">
        <ele>1098.8</ele>
        <time>2019-04-28T06:36:35Z</time>
      </trkpt>
      <trkpt lat="40.9128230" lon="-4.0867320">
        <ele>1099.0</ele>
        <time>2019-04-28T06:36:36Z</time>
      </trkpt>
      <trkpt lat="40.9127890" lon="-4.0866930">
        <ele>1099.0</ele>
        <time>2019-04-28T06:36:37Z</time>
      </trkpt>
      <trkpt lat="40.9127560" lon="-4.0866530">
        <ele>1099.0</ele>
        <time>2019-04-28T06:36:38Z</time>
      </trkpt>
      <trkpt lat="40.9127240" lon="-4.0866130">
        <ele>1099.2</ele>
        <time>2019-04-28T06:36:39Z</time>
      </trkpt>
      <trkpt lat="40.9126910" lon="-4.0865740">
        <ele>1099.2</ele>
        <time>2019-04-28T06:36:40Z</time>
      </trkpt>
      <trkpt lat="40.9126570" lon="-4.0865380">
        <ele>1099.2</ele>
        <time>2019-04-28T06:36:41Z</time>
      </trkpt>
      <trkpt lat="40.9126220" lon="-4.0865040">
        <ele>1099.4</ele>
        <time>2019-04-28T06:36:42Z</time>
      </trkpt>
      <trkpt lat="40.9125860" lon="-4.0864720">
        <ele>1099.4</ele>
        <time>2019-04-28T06:36:43Z</time>
      </trkpt>
      <trkpt lat="40.9125490" lon="-4.0864400">
        <ele>1099.4</ele>
        <time>2019-04-28T06:36:44Z</time>
      </trkpt>
      <trkpt lat="40.9125120" lon="-4.0864070">
        <ele>1099.6</ele>
        <time>2019-04-28T06:36:45Z</time>
      </trkpt>
      <trkpt lat="40.9124730" lon="-4.0863740">
        <ele>1099.6</ele>
        <time>2019-04-28T06:36:46Z</time>
      </trkpt>
      <trkpt lat="40.9124340" lon="-4.0863410">
        <ele>1099.6</ele>
        <time>2019-04-28T06:36:47Z</time>
      </trkpt>
      <trkpt lat="40.9123960" lon="-4.0863060">
        <ele>1099.6</ele>
        <time>2019-04-28T06:36:48Z</time>
      </trkpt>
      <trkpt lat="40.9123600" lon="-4.0862700">
        <ele>1099.6</ele>
        <time>2019-04-28T06:36:49Z</time>
      </trkpt>
      <trkpt lat="40.9123250" lon="-4.0862340">
        <ele>1099.8</ele>
        <time>2019-04-28T06:36:50Z</time>
      </trkpt>
      <trkpt lat="40.9122870" lon="-4.0862010">
        <ele>1099.8</ele>
        <time>2019-04-28T06:36:51Z</time>
      </trkpt>
      <trkpt lat="40.9122510" lon="-4.0861670">
        <ele>1099.8</ele>
        <time>2019-04-28T06:36:52Z</time>
      </trkpt>
      <trkpt lat="40.9122130" lon="-4.0861360">
        <ele>1100.0</ele>
        <time>2019-04-28T06:36:53Z</time>
      </trkpt>
      <trkpt lat="40.9121750" lon="-4.0861070">
        <ele>1100.0</ele>
        <time>2019-04-28T06:36:54Z</time>
      </trkpt>
      <trkpt lat="40.9121380" lon="-4.0860760">
        <ele>1100.0</ele>
        <time>2019-04-28T06:36:55Z</time>
      </trkpt>
      <trkpt lat="40.9121050" lon="-4.0860410">
        <ele>1100.2</ele>
        <time>2019-04-28T06:36:56Z</time>
      </trkpt>
      <trkpt lat="40.9120760" lon="-4.0860030">
        <ele>1100.6</ele>
        <time>2019-04-28T06:36:57Z</time>
      </trkpt>
      <trkpt lat="40.9120490" lon="-4.0859630">
        <ele>1100.8</ele>
        <time>2019-04-28T06:36:58Z</time>
      </trkpt>
      <trkpt lat="40.9120190" lon="-4.0859240">
        <ele>1101.0</ele>
        <time>2019-04-28T06:36:59Z</time>
      </trkpt>
      <trkpt lat="40.9119870" lon="-4.0858900">
        <ele>1101.2</ele>
        <time>2019-04-28T06:37:00Z</time>
      </trkpt>
      <trkpt lat="40.9119530" lon="-4.0858580">
        <ele>1101.2</ele>
        <time>2019-04-28T06:37:01Z</time>
      </trkpt>
      <trkpt lat="40.9119190" lon="-4.0858250">
        <ele>1101.2</ele>
        <time>2019-04-28T06:37:02Z</time>
      </trkpt>
      <trkpt lat="40.9118820" lon="-4.0857930">
        <ele>1101.2</ele>
        <time>2019-04-28T06:37:03Z</time>
      </trkpt>
      <trkpt lat="40.9118440" lon="-4.0857590">
        <ele>1101.2</ele>
        <time>2019-04-28T06:37:04Z</time>
      </trkpt>
      <trkpt lat="40.9118060" lon="-4.0857270">
        <ele>1101.2</ele>
        <time>2019-04-28T06:37:05Z</time>
      </trkpt>
      <trkpt lat="40.9117680" lon="-4.0856960">
        <ele>1101.4</ele>
        <time>2019-04-28T06:37:06Z</time>
      </trkpt>
      <trkpt lat="40.9117300" lon="-4.0856660">
        <ele>1101.4</ele>
        <time>2019-04-28T06:37:07Z</time>
      </trkpt>
      <trkpt lat="40.9116920" lon="-4.0856330">
        <ele>1101.4</ele>
        <time>2019-04-28T06:37:08Z</time>
      </trkpt>
      <trkpt lat="40.9116550" lon="-4.0856000">
        <ele>1101.4</ele>
        <time>2019-04-28T06:37:09Z</time>
      </trkpt>
      <trkpt lat="40.9116180" lon="-4.0855650">
        <ele>1101.6</ele>
        <time>2019-04-28T06:37:10Z</time>
      </trkpt>
      <trkpt lat="40.9115810" lon="-4.0855310">
        <ele>1101.6</ele>
        <time>2019-04-28T06:37:11Z</time>
      </trkpt>
      <trkpt lat="40.9115450" lon="-4.0854970">
        <ele>1101.8</ele>
        <time>2019-04-28T06:37:12Z</time>
      </trkpt>
      <trkpt lat="40.9115090" lon="-4.0854620">
        <ele>1101.8</ele>
        <time>2019-04-28T06:37:13Z</time>
      </trkpt>
      <trkpt lat="40.9114730" lon="-4.0854270">
        <ele>1101.8</ele>
        <time>2019-04-28T06:37:14Z</time>
      </trkpt>
      <trkpt lat="40.9114380" lon="-4.0853930">
        <ele>1101.8</ele>
        <time>2019-04-28T06:37:15Z</time>
      </trkpt>
      <trkpt lat="40.9114030" lon="-4.0853580">
        <ele>1102.0</ele>
        <time>2019-04-28T06:37:16Z</time>
      </trkpt>
      <trkpt lat="40.9113670" lon="-4.0853230">
        <ele>1102.0</ele>
        <time>2019-04-28T06:37:17Z</time>
      </trkpt>
      <trkpt lat="40.9113330" lon="-4.0852860">
        <ele>1102.2</ele>
        <time>2019-04-28T06:37:18Z</time>
      </trkpt>
      <trkpt lat="40.9112980" lon="-4.0852490">
        <ele>1102.2</ele>
        <time>2019-04-28T06:37:19Z</time>
      </trkpt>
      <trkpt lat="40.9112640" lon="-4.0852150">
        <ele>1102.4</ele>
        <time>2019-04-28T06:37:20Z</time>
      </trkpt>
      <trkpt lat="40.9112290" lon="-4.0851790">
        <ele>1102.4</ele>
        <time>2019-04-28T06:37:21Z</time>
      </trkpt>
      <trkpt lat="40.9111940" lon="-4.0851450">
        <ele>1102.6</ele>
        <time>2019-04-28T06:37:22Z</time>
      </trkpt>
      <trkpt lat="40.9111600" lon="-4.0851120">
        <ele>1102.6</ele>
        <time>2019-04-28T06:37:23Z</time>
      </trkpt>
      <trkpt lat="40.9111270" lon="-4.0850780">
        <ele>1102.8</ele>
        <time>2019-04-28T06:37:24Z</time>
      </trkpt>
      <trkpt lat="40.9110930" lon="-4.0850420">
        <ele>1102.8</ele>
        <time>2019-04-28T06:37:25Z</time>
      </trkpt>
      <trkpt lat="40.9110580" lon="-4.0850070">
        <ele>1103.0</ele>
        <time>2019-04-28T06:37:26Z</time>
      </trkpt>
      <trkpt lat="40.9110230" lon="-4.0849740">
        <ele>1103.0</ele>
        <time>2019-04-28T06:37:27Z</time>
      </trkpt>
      <trkpt lat="40.9109880" lon="-4.0849400">
        <ele>1103.2</ele>
        <time>2019-04-28T06:37:28Z</time>
      </trkpt>
      <trkpt lat="40.9109510" lon="-4.0849070">
        <ele>1103.2</ele>
        <time>2019-04-28T06:37:29Z</time>
      </trkpt>
      <trkpt lat="40.9109130" lon="-4.0848720">
        <ele>1103.0</ele>
        <time>2019-04-28T06:37:31Z</time>
      </trkpt>
      <trkpt lat="40.9108310" lon="-4.0848130">
        <ele>1103.2</ele>
        <time>2019-04-28T06:37:33Z</time>
      </trkpt>
      <trkpt lat="40.9107440" lon="-4.0847670">
        <ele>1103.4</ele>
        <time>2019-04-28T06:37:35Z</time>
      </trkpt>
      <trkpt lat="40.9106580" lon="-4.0847220">
        <ele>1103.4</ele>
        <time>2019-04-28T06:37:36Z</time>
      </trkpt>
      <trkpt lat="40.9106150" lon="-4.0846940">
        <ele>1103.4</ele>
        <time>2019-04-28T06:37:37Z</time>
      </trkpt>
      <trkpt lat="40.9105720" lon="-4.0846640">
        <ele>1103.4</ele>
        <time>2019-04-28T06:37:38Z</time>
      </trkpt>
      <trkpt lat="40.9105280" lon="-4.0846320">
        <ele>1103.4</ele>
        <time>2019-04-28T06:37:39Z</time>
      </trkpt>
      <trkpt lat="40.9104860" lon="-4.0845970">
        <ele>1103.4</ele>
        <time>2019-04-28T06:37:41Z</time>
      </trkpt>
      <trkpt lat="40.9104030" lon="-4.0845250">
        <ele>1103.4</ele>
        <time>2019-04-28T06:37:42Z</time>
      </trkpt>
      <trkpt lat="40.9103640" lon="-4.0844870">
        <ele>1103.4</ele>
        <time>2019-04-28T06:37:43Z</time>
      </trkpt>
      <trkpt lat="40.9103270" lon="-4.0844470">
        <ele>1103.4</ele>
        <time>2019-04-28T06:37:45Z</time>
      </trkpt>
      <trkpt lat="40.9102560" lon="-4.0843560">
        <ele>1103.6</ele>
        <time>2019-04-28T06:37:46Z</time>
      </trkpt>
      <trkpt lat="40.9102200" lon="-4.0843110">
        <ele>1103.6</ele>
        <time>2019-04-28T06:37:47Z</time>
      </trkpt>
      <trkpt lat="40.9101780" lon="-4.0842760">
        <ele>1103.6</ele>
        <time>2019-04-28T06:37:48Z</time>
      </trkpt>
      <trkpt lat="40.9101320" lon="-4.0842450">
        <ele>1103.6</ele>
        <time>2019-04-28T06:37:50Z</time>
      </trkpt>
      <trkpt lat="40.9100360" lon="-4.0841990">
        <ele>1103.6</ele>
        <time>2019-04-28T06:37:52Z</time>
      </trkpt>
      <trkpt lat="40.9099460" lon="-4.0841380">
        <ele>1103.6</ele>
        <time>2019-04-28T06:37:53Z</time>
      </trkpt>
      <trkpt lat="40.9099040" lon="-4.0841010">
        <ele>1103.8</ele>
        <time>2019-04-28T06:37:54Z</time>
      </trkpt>
      <trkpt lat="40.9098580" lon="-4.0840700">
        <ele>1103.8</ele>
        <time>2019-04-28T06:37:56Z</time>
      </trkpt>
      <trkpt lat="40.9097790" lon="-4.0839940">
        <ele>1103.8</ele>
        <time>2019-04-28T06:37:57Z</time>
      </trkpt>
      <trkpt lat="40.9097420" lon="-4.0839560">
        <ele>1103.8</ele>
        <time>2019-04-28T06:37:58Z</time>
      </trkpt>
      <trkpt lat="40.9097040" lon="-4.0839190">
        <ele>1104.0</ele>
        <time>2019-04-28T06:38:00Z</time>
      </trkpt>
      <trkpt lat="40.9096340" lon="-4.0838400">
        <ele>1104.2</ele>
        <time>2019-04-28T06:38:02Z</time>
      </trkpt>
      <trkpt lat="40.9095680" lon="-4.0837610">
        <ele>1104.4</ele>
        <time>2019-04-28T06:38:04Z</time>
      </trkpt>
      <trkpt lat="40.9094990" lon="-4.0836910">
        <ele>1104.4</ele>
        <time>2019-04-28T06:38:06Z</time>
      </trkpt>
      <trkpt lat="40.9094410" lon="-4.0836090">
        <ele>1104.6</ele>
        <time>2019-04-28T06:38:08Z</time>
      </trkpt>
      <trkpt lat="40.9093910" lon="-4.0835220">
        <ele>1104.8</ele>
        <time>2019-04-28T06:38:10Z</time>
      </trkpt>
      <trkpt lat="40.9093430" lon="-4.0834360">
        <ele>1105.0</ele>
        <time>2019-04-28T06:38:12Z</time>
      </trkpt>
      <trkpt lat="40.9092870" lon="-4.0833590">
        <ele>1105.4</ele>
        <time>2019-04-28T06:38:14Z</time>
      </trkpt>
      <trkpt lat="40.9092330" lon="-4.0832830">
        <ele>1105.6</ele>
        <time>2019-04-28T06:38:16Z</time>
      </trkpt>
      <trkpt lat="40.9091740" lon="-4.0832030">
        <ele>1105.8</ele>
        <time>2019-04-28T06:38:18Z</time>
      </trkpt>
      <trkpt lat="40.9091060" lon="-4.0831330">
        <ele>1106.0</ele>
        <time>2019-04-28T06:38:20Z</time>
      </trkpt>
      <trkpt lat="40.9090380" lon="-4.0830660">
        <ele>1106.2</ele>
        <time>2019-04-28T06:38:21Z</time>
      </trkpt>
      <trkpt lat="40.9090040" lon="-4.0830330">
        <ele>1106.2</ele>
        <time>2019-04-28T06:38:22Z</time>
      </trkpt>
      <trkpt lat="40.9089690" lon="-4.0830030">
        <ele>1106.4</ele>
        <time>2019-04-28T06:38:24Z</time>
      </trkpt>
      <trkpt lat="40.9089010" lon="-4.0829350">
        <ele>1106.6</ele>
        <time>2019-04-28T06:38:26Z</time>
      </trkpt>
      <trkpt lat="40.9088260" lon="-4.0828810">
        <ele>1106.8</ele>
        <time>2019-04-28T06:38:28Z</time>
      </trkpt>
      <trkpt lat="40.9087490" lon="-4.0828310">
        <ele>1107.0</ele>
        <time>2019-04-28T06:38:30Z</time>
      </trkpt>
      <trkpt lat="40.9086730" lon="-4.0827800">
        <ele>1107.4</ele>
        <time>2019-04-28T06:38:32Z</time>
      </trkpt>
      <trkpt lat="40.9085970" lon="-4.0827300">
        <ele>1107.6</ele>
        <time>2019-04-28T06:38:34Z</time>
      </trkpt>
      <trkpt lat="40.9085220" lon="-4.0826810">
        <ele>1107.8</ele>
        <time>2019-04-28T06:38:36Z</time>
      </trkpt>
      <trkpt lat="40.9084470" lon="-4.0826240">
        <ele>1107.8</ele>
        <time>2019-04-28T06:38:38Z</time>
      </trkpt>
      <trkpt lat="40.9083710" lon="-4.0825690">
        <ele>1108.0</ele>
        <time>2019-04-28T06:38:40Z</time>
      </trkpt>
      <trkpt lat="40.9082950" lon="-4.0825180">
        <ele>1108.2</ele>
        <time>2019-04-28T06:38:42Z</time>
      </trkpt>
      <trkpt lat="40.9082180" lon="-4.0824680">
        <ele>1108.4</ele>
        <time>2019-04-28T06:38:44Z</time>
      </trkpt>
      <trkpt lat="40.9081400" lon="-4.0824280">
        <ele>1108.6</ele>
        <time>2019-04-28T06:38:46Z</time>
      </trkpt>
      <trkpt lat="40.9080590" lon="-4.0824000">
        <ele>1108.8</ele>
        <time>2019-04-28T06:38:48Z</time>
      </trkpt>
      <trkpt lat="40.9079790" lon="-4.0823780">
        <ele>1108.6</ele>
        <time>2019-04-28T06:38:50Z</time>
      </trkpt>
      <trkpt lat="40.9079020" lon="-4.0823640">
        <ele>1108.8</ele>
        <time>2019-04-28T06:38:52Z</time>
      </trkpt>
      <trkpt lat="40.9078220" lon="-4.0823660">
        <ele>1108.6</ele>
        <time>2019-04-28T06:38:54Z</time>
      </trkpt>
      <trkpt lat="40.9077390" lon="-4.0823870">
        <ele>1108.6</ele>
        <time>2019-04-28T06:38:56Z</time>
      </trkpt>
      <trkpt lat="40.9076960" lon="-4.0824010">
        <ele>1108.4</ele>
        <time>2019-04-28T06:38:57Z</time>
      </trkpt>
      <trkpt lat="40.9076070" lon="-4.0824290">
        <ele>1108.2</ele>
        <time>2019-04-28T06:38:59Z</time>
      </trkpt>
      <trkpt lat="40.9075610" lon="-4.0824350">
        <ele>1108.0</ele>
        <time>2019-04-28T06:39:00Z</time>
      </trkpt>
      <trkpt lat="40.9075150" lon="-4.0824360">
        <ele>1107.8</ele>
        <time>2019-04-28T06:39:01Z</time>
      </trkpt>
      <trkpt lat="40.9074250" lon="-4.0824290">
        <ele>1108.0</ele>
        <time>2019-04-28T06:39:03Z</time>
      </trkpt>
      <trkpt lat="40.9073380" lon="-4.0824200">
        <ele>1108.0</ele>
        <time>2019-04-28T06:39:05Z</time>
      </trkpt>
      <trkpt lat="40.9072940" lon="-4.0824150">
        <ele>1108.0</ele>
        <time>2019-04-28T06:39:06Z</time>
      </trkpt>
      <trkpt lat="40.9072510" lon="-4.0824150">
        <ele>1108.0</ele>
        <time>2019-04-28T06:39:07Z</time>
      </trkpt>
      <trkpt lat="40.9072120" lon="-4.0824140">
        <ele>1108.0</ele>
        <time>2019-04-28T06:39:08Z</time>
      </trkpt>
      <trkpt lat="40.9071350" lon="-4.0823920">
        <ele>1108.2</ele>
        <time>2019-04-28T06:39:10Z</time>
      </trkpt>
      <trkpt lat="40.9070960" lon="-4.0823770">
        <ele>1108.2</ele>
        <time>2019-04-28T06:39:11Z</time>
      </trkpt>
      <trkpt lat="40.9070570" lon="-4.0823610">
        <ele>1108.2</ele>
        <time>2019-04-28T06:39:12Z</time>
      </trkpt>
      <trkpt lat="40.9070170" lon="-4.0823420">
        <ele>1108.2</ele>
        <time>2019-04-28T06:39:13Z</time>
      </trkpt>
      <trkpt lat="40.9069760" lon="-4.0823240">
        <ele>1108.2</ele>
        <time>2019-04-28T06:39:14Z</time>
      </trkpt>
      <trkpt lat="40.9069360" lon="-4.0823060">
        <ele>1108.2</ele>
        <time>2019-04-28T06:39:15Z</time>
      </trkpt>
      <trkpt lat="40.9068970" lon="-4.0822880">
        <ele>1108.2</ele>
        <time>2019-04-28T06:39:16Z</time>
      </trkpt>
      <trkpt lat="40.9068570" lon="-4.0822740">
        <ele>1108.4</ele>
        <time>2019-04-28T06:39:17Z</time>
      </trkpt>
      <trkpt lat="40.9068190" lon="-4.0822600">
        <ele>1108.6</ele>
        <time>2019-04-28T06:39:18Z</time>
      </trkpt>
      <trkpt lat="40.9067440" lon="-4.0822200">
        <ele>1108.8</ele>
        <time>2019-04-28T06:39:20Z</time>
      </trkpt>
      <trkpt lat="40.9067060" lon="-4.0821970">
        <ele>1108.8</ele>
        <time>2019-04-28T06:39:21Z</time>
      </trkpt>
      <trkpt lat="40.9066680" lon="-4.0821740">
        <ele>1109.0</ele>
        <time>2019-04-28T06:39:22Z</time>
      </trkpt>
      <trkpt lat="40.9066280" lon="-4.0821540">
        <ele>1109.0</ele>
        <time>2019-04-28T06:39:23Z</time>
      </trkpt>
      <trkpt lat="40.9065900" lon="-4.0821320">
        <ele>1109.0</ele>
        <time>2019-04-28T06:39:24Z</time>
      </trkpt>
      <trkpt lat="40.9065520" lon="-4.0821130">
        <ele>1109.0</ele>
        <time>2019-04-28T06:39:25Z</time>
      </trkpt>
      <trkpt lat="40.9064750" lon="-4.0820720">
        <ele>1109.2</ele>
        <time>2019-04-28T06:39:27Z</time>
      </trkpt>
      <trkpt lat="40.9064370" lon="-4.0820490">
        <ele>1109.2</ele>
        <time>2019-04-28T06:39:28Z</time>
      </trkpt>
      <trkpt lat="40.9063980" lon="-4.0820280">
        <ele>1109.4</ele>
        <time>2019-04-28T06:39:29Z</time>
      </trkpt>
      <trkpt lat="40.9063220" lon="-4.0819890">
        <ele>1109.6</ele>
        <time>2019-04-28T06:39:31Z</time>
      </trkpt>
      <trkpt lat="40.9062830" lon="-4.0819700">
        <ele>1109.4</ele>
        <time>2019-04-28T06:39:32Z</time>
      </trkpt>
      <trkpt lat="40.9062410" lon="-4.0819530">
        <ele>1109.2</ele>
        <time>2019-04-28T06:39:33Z</time>
      </trkpt>
      <trkpt lat="40.9061500" lon="-4.0819130">
        <ele>1108.6</ele>
        <time>2019-04-28T06:39:35Z</time>
      </trkpt>
      <trkpt lat="40.9060990" lon="-4.0818870">
        <ele>1108.4</ele>
        <time>2019-04-28T06:39:36Z</time>
      </trkpt>
      <trkpt lat="40.9060470" lon="-4.0818610">
        <ele>1108.2</ele>
        <time>2019-04-28T06:39:37Z</time>
      </trkpt>
      <trkpt lat="40.9059360" lon="-4.0818140">
        <ele>1108.4</ele>
        <time>2019-04-28T06:39:39Z</time>
      </trkpt>
      <trkpt lat="40.9058290" lon="-4.0817650">
        <ele>1108.4</ele>
        <time>2019-04-28T06:39:41Z</time>
      </trkpt>
      <trkpt lat="40.9057790" lon="-4.0817380">
        <ele>1108.4</ele>
        <time>2019-04-28T06:39:42Z</time>
      </trkpt>
      <trkpt lat="40.9057300" lon="-4.0817140">
        <ele>1108.4</ele>
        <time>2019-04-28T06:39:43Z</time>
      </trkpt>
      <trkpt lat="40.9056800" lon="-4.0816910">
        <ele>1108.4</ele>
        <time>2019-04-28T06:39:44Z</time>
      </trkpt>
      <trkpt lat="40.9056280" lon="-4.0816620">
        <ele>1108.6</ele>
        <time>2019-04-28T06:39:45Z</time>
      </trkpt>
      <trkpt lat="40.9055310" lon="-4.0816130">
        <ele>1108.6</ele>
        <time>2019-04-28T06:39:47Z</time>
      </trkpt>
      <trkpt lat="40.9054820" lon="-4.0815880">
        <ele>1108.8</ele>
        <time>2019-04-28T06:39:48Z</time>
      </trkpt>
      <trkpt lat="40.9054320" lon="-4.0815640">
        <ele>1108.8</ele>
        <time>2019-04-28T06:39:49Z</time>
      </trkpt>
      <trkpt lat="40.9053810" lon="-4.0815440">
        <ele>1108.8</ele>
        <time>2019-04-28T06:39:50Z</time>
      </trkpt>
      <trkpt lat="40.9052780" lon="-4.0815010">
        <ele>1109.0</ele>
        <time>2019-04-28T06:39:52Z</time>
      </trkpt>
      <trkpt lat="40.9052280" lon="-4.0814780">
        <ele>1109.0</ele>
        <time>2019-04-28T06:39:53Z</time>
      </trkpt>
      <trkpt lat="40.9051760" lon="-4.0814550">
        <ele>1109.0</ele>
        <time>2019-04-28T06:39:54Z</time>
      </trkpt>
      <trkpt lat="40.9051240" lon="-4.0814310">
        <ele>1109.0</ele>
        <time>2019-04-28T06:39:55Z</time>
      </trkpt>
      <trkpt lat="40.9050730" lon="-4.0814080">
        <ele>1109.2</ele>
        <time>2019-04-28T06:39:56Z</time>
      </trkpt>
      <trkpt lat="40.9050220" lon="-4.0813890">
        <ele>1109.2</ele>
        <time>2019-04-28T06:39:57Z</time>
      </trkpt>
      <trkpt lat="40.9049720" lon="-4.0813650">
        <ele>1109.2</ele>
        <time>2019-04-28T06:39:58Z</time>
      </trkpt>
      <trkpt lat="40.9048840" lon="-4.0813160">
        <ele>1109.6</ele>
        <time>2019-04-28T06:40:00Z</time>
      </trkpt>
      <trkpt lat="40.9048400" lon="-4.0812830">
        <ele>1110.0</ele>
        <time>2019-04-28T06:40:01Z</time>
      </trkpt>
      <trkpt lat="40.9047990" lon="-4.0812430">
        <ele>1110.4</ele>
        <time>2019-04-28T06:40:02Z</time>
      </trkpt>
      <trkpt lat="40.9047610" lon="-4.0811990">
        <ele>1110.8</ele>
        <time>2019-04-28T06:40:03Z</time>
      </trkpt>
      <trkpt lat="40.9047300" lon="-4.0811570">
        <ele>1111.2</ele>
        <time>2019-04-28T06:40:04Z</time>
      </trkpt>
      <trkpt lat="40.9047020" lon="-4.0811150">
        <ele>1111.6</ele>
        <time>2019-04-28T06:40:05Z</time>
      </trkpt>
      <trkpt lat="40.9046780" lon="-4.0810710">
        <ele>1111.8</ele>
        <time>2019-04-28T06:40:06Z</time>
      </trkpt>
      <trkpt lat="40.9046560" lon="-4.0810270">
        <ele>1111.8</ele>
        <time>2019-04-28T06:40:07Z</time>
      </trkpt>
      <trkpt lat="40.9046360" lon="-4.0809770">
        <ele>1111.8</ele>
        <time>2019-04-28T06:40:08Z</time>
      </trkpt>
      <trkpt lat="40.9046180" lon="-4.0809260">
        <ele>1111.6</ele>
        <time>2019-04-28T06:40:09Z</time>
      </trkpt>
      <trkpt lat="40.9046010" lon="-4.0808760">
        <ele>1111.4</ele>
        <time>2019-04-28T06:40:10Z</time>
      </trkpt>
      <trkpt lat="40.9045790" lon="-4.0808440">
        <ele>1111.0</ele>
        <time>2019-04-28T06:40:11Z</time>
      </trkpt>
      <trkpt lat="40.9045580" lon="-4.0808370">
        <ele>1111.0</ele>
        <time>2019-04-28T06:40:12Z</time>
      </trkpt>
      <trkpt lat="40.9045430" lon="-4.0808500">
        <ele>1111.0</ele>
        <time>2019-04-28T06:40:13Z</time>
      </trkpt>
      <trkpt lat="40.9045340" lon="-4.0808770">
        <ele>1111.0</ele>
        <time>2019-04-28T06:40:14Z</time>
      </trkpt>
      <trkpt lat="40.9045290" lon="-4.0809150">
        <ele>1111.2</ele>
        <time>2019-04-28T06:40:15Z</time>
      </trkpt>
      <trkpt lat="40.9045300" lon="-4.0809560">
        <ele>1111.2</ele>
        <time>2019-04-28T06:40:16Z</time>
      </trkpt>
      <trkpt lat="40.9045220" lon="-4.0809920">
        <ele>1111.2</ele>
        <time>2019-04-28T06:40:17Z</time>
      </trkpt>
      <trkpt lat="40.9045060" lon="-4.0810190">
        <ele>1111.0</ele>
        <time>2019-04-28T06:40:18Z</time>
      </trkpt>
      <trkpt lat="40.9044740" lon="-4.0810280">
        <ele>1111.0</ele>
        <time>2019-04-28T06:40:19Z</time>
      </trkpt>
      <trkpt lat="40.9044340" lon="-4.0810350">
        <ele>1111.0</ele>
        <time>2019-04-28T06:40:20Z</time>
      </trkpt>
      <trkpt lat="40.9043920" lon="-4.0810380">
        <ele>1111.2</ele>
        <time>2019-04-28T06:40:21Z</time>
      </trkpt>
      <trkpt lat="40.9043500" lon="-4.0810410">
        <ele>1111.2</ele>
        <time>2019-04-28T06:40:22Z</time>
      </trkpt>
      <trkpt lat="40.9043130" lon="-4.0810340">
        <ele>1111.0</ele>
        <time>2019-04-28T06:40:23Z</time>
      </trkpt>
      <trkpt lat="40.9042820" lon="-4.0810340">
        <ele>1111.0</ele>
        <time>2019-04-28T06:40:24Z</time>
      </trkpt>
      <trkpt lat="40.9042520" lon="-4.0810390">
        <ele>1111.0</ele>
        <time>2019-04-28T06:40:25Z</time>
      </trkpt>
      <trkpt lat="40.9042250" lon="-4.0810340">
        <ele>1111.2</ele>
        <time>2019-04-28T06:40:26Z</time>
      </trkpt>
      <trkpt lat="40.9042040" lon="-4.0810150">
        <ele>1111.2</ele>
        <time>2019-04-28T06:40:27Z</time>
      </trkpt>
      <trkpt lat="40.9041840" lon="-4.0809890">
        <ele>1111.2</ele>
        <time>2019-04-28T06:40:28Z</time>
      </trkpt>
      <trkpt lat="40.9041560" lon="-4.0809690">
        <ele>1111.2</ele>
        <time>2019-04-28T06:40:29Z</time>
      </trkpt>
      <trkpt lat="40.9041200" lon="-4.0809530">
        <ele>1111.2</ele>
        <time>2019-04-28T06:40:30Z</time>
      </trkpt>
      <trkpt lat="40.9040840" lon="-4.0809360">
        <ele>1111.2</ele>
        <time>2019-04-28T06:40:31Z</time>
      </trkpt>
      <trkpt lat="40.9040470" lon="-4.0809150">
        <ele>1111.2</ele>
        <time>2019-04-28T06:40:32Z</time>
      </trkpt>
      <trkpt lat="40.9040110" lon="-4.0808940">
        <ele>1111.2</ele>
        <time>2019-04-28T06:40:33Z</time>
      </trkpt>
      <trkpt lat="40.9039760" lon="-4.0808710">
        <ele>1111.4</ele>
        <time>2019-04-28T06:40:34Z</time>
      </trkpt>
      <trkpt lat="40.9039420" lon="-4.0808450">
        <ele>1111.6</ele>
        <time>2019-04-28T06:40:35Z</time>
      </trkpt>
      <trkpt lat="40.9039090" lon="-4.0808210">
        <ele>1111.6</ele>
        <time>2019-04-28T06:40:36Z</time>
      </trkpt>
      <trkpt lat="40.9038370" lon="-4.0807620">
        <ele>1112.0</ele>
        <time>2019-04-28T06:40:38Z</time>
      </trkpt>
      <trkpt lat="40.9037990" lon="-4.0807340">
        <ele>1112.0</ele>
        <time>2019-04-28T06:40:39Z</time>
      </trkpt>
      <trkpt lat="40.9037610" lon="-4.0807030">
        <ele>1112.0</ele>
        <time>2019-04-28T06:40:40Z</time>
      </trkpt>
      <trkpt lat="40.9036880" lon="-4.0806390">
        <ele>1112.0</ele>
        <time>2019-04-28T06:40:42Z</time>
      </trkpt>
      <trkpt lat="40.9036520" lon="-4.0806060">
        <ele>1112.0</ele>
        <time>2019-04-28T06:40:43Z</time>
      </trkpt>
      <trkpt lat="40.9036150" lon="-4.0805750">
        <ele>1112.2</ele>
        <time>2019-04-28T06:40:44Z</time>
      </trkpt>
      <trkpt lat="40.9035790" lon="-4.0805460">
        <ele>1112.6</ele>
        <time>2019-04-28T06:40:45Z</time>
      </trkpt>
      <trkpt lat="40.9035420" lon="-4.0805220">
        <ele>1112.8</ele>
        <time>2019-04-28T06:40:46Z</time>
      </trkpt>
      <trkpt lat="40.9035070" lon="-4.0804960">
        <ele>1113.2</ele>
        <time>2019-04-28T06:40:47Z</time>
      </trkpt>
      <trkpt lat="40.9034720" lon="-4.0804680">
        <ele>1113.2</ele>
        <time>2019-04-28T06:40:48Z</time>
      </trkpt>
      <trkpt lat="40.9034370" lon="-4.0804390">
        <ele>1113.2</ele>
        <time>2019-04-28T06:40:49Z</time>
      </trkpt>
      <trkpt lat="40.9034000" lon="-4.0804100">
        <ele>1113.2</ele>
        <time>2019-04-28T06:40:50Z</time>
      </trkpt>
      <trkpt lat="40.9033620" lon="-4.0803830">
        <ele>1113.2</ele>
        <time>2019-04-28T06:40:51Z</time>
      </trkpt>
      <trkpt lat="40.9033230" lon="-4.0803580">
        <ele>1113.4</ele>
        <time>2019-04-28T06:40:52Z</time>
      </trkpt>
      <trkpt lat="40.9032850" lon="-4.0803330">
        <ele>1113.4</ele>
        <time>2019-04-28T06:40:53Z</time>
      </trkpt>
      <trkpt lat="40.9032500" lon="-4.0803080">
        <ele>1113.6</ele>
        <time>2019-04-28T06:40:54Z</time>
      </trkpt>
      <trkpt lat="40.9032130" lon="-4.0802860">
        <ele>1113.8</ele>
        <time>2019-04-28T06:40:55Z</time>
      </trkpt>
      <trkpt lat="40.9031760" lon="-4.0802610">
        <ele>1113.8</ele>
        <time>2019-04-28T06:40:56Z</time>
      </trkpt>
      <trkpt lat="40.9031360" lon="-4.0802370">
        <ele>1114.0</ele>
        <time>2019-04-28T06:40:57Z</time>
      </trkpt>
      <trkpt lat="40.9030940" lon="-4.0802170">
        <ele>1113.8</ele>
        <time>2019-04-28T06:40:58Z</time>
      </trkpt>
      <trkpt lat="40.9030500" lon="-4.0801980">
        <ele>1114.0</ele>
        <time>2019-04-28T06:40:59Z</time>
      </trkpt>
      <trkpt lat="40.9030080" lon="-4.0801740">
        <ele>1114.0</ele>
        <time>2019-04-28T06:41:00Z</time>
      </trkpt>
      <trkpt lat="40.9029690" lon="-4.0801410">
        <ele>1114.0</ele>
        <time>2019-04-28T06:41:01Z</time>
      </trkpt>
      <trkpt lat="40.9028900" lon="-4.0800800">
        <ele>1114.0</ele>
        <time>2019-04-28T06:41:03Z</time>
      </trkpt>
      <trkpt lat="40.9028480" lon="-4.0800570">
        <ele>1114.0</ele>
        <time>2019-04-28T06:41:04Z</time>
      </trkpt>
      <trkpt lat="40.9028040" lon="-4.0800400">
        <ele>1114.2</ele>
        <time>2019-04-28T06:41:05Z</time>
      </trkpt>
      <trkpt lat="40.9027580" lon="-4.0800260">
        <ele>1114.4</ele>
        <time>2019-04-28T06:41:06Z</time>
      </trkpt>
      <trkpt lat="40.9027120" lon="-4.0800140">
        <ele>1114.4</ele>
        <time>2019-04-28T06:41:07Z</time>
      </trkpt>
      <trkpt lat="40.9026660" lon="-4.0800050">
        <ele>1114.6</ele>
        <time>2019-04-28T06:41:08Z</time>
      </trkpt>
      <trkpt lat="40.9026200" lon="-4.0799960">
        <ele>1114.8</ele>
        <time>2019-04-28T06:41:09Z</time>
      </trkpt>
      <trkpt lat="40.9025800" lon="-4.0799760">
        <ele>1115.0</ele>
        <time>2019-04-28T06:41:10Z</time>
      </trkpt>
      <trkpt lat="40.9025420" lon="-4.0799550">
        <ele>1115.2</ele>
        <time>2019-04-28T06:41:11Z</time>
      </trkpt>
      <trkpt lat="40.9025040" lon="-4.0799350">
        <ele>1115.2</ele>
        <time>2019-04-28T06:41:12Z</time>
      </trkpt>
      <trkpt lat="40.9024340" lon="-4.0798900">
        <ele>1115.6</ele>
        <time>2019-04-28T06:41:14Z</time>
      </trkpt>
      <trkpt lat="40.9023980" lon="-4.0798700">
        <ele>1115.6</ele>
        <time>2019-04-28T06:41:15Z</time>
      </trkpt>
      <trkpt lat="40.9023620" lon="-4.0798500">
        <ele>1115.8</ele>
        <time>2019-04-28T06:41:16Z</time>
      </trkpt>
      <trkpt lat="40.9022870" lon="-4.0798160">
        <ele>1115.8</ele>
        <time>2019-04-28T06:41:18Z</time>
      </trkpt>
      <trkpt lat="40.9022490" lon="-4.0797960">
        <ele>1115.8</ele>
        <time>2019-04-28T06:41:19Z</time>
      </trkpt>
      <trkpt lat="40.9022100" lon="-4.0797780">
        <ele>1115.8</ele>
        <time>2019-04-28T06:41:20Z</time>
      </trkpt>
      <trkpt lat="40.9021300" lon="-4.0797440">
        <ele>1115.8</ele>
        <time>2019-04-28T06:41:22Z</time>
      </trkpt>
      <trkpt lat="40.9020520" lon="-4.0797060">
        <ele>1116.0</ele>
        <time>2019-04-28T06:41:24Z</time>
      </trkpt>
      <trkpt lat="40.9020150" lon="-4.0796840">
        <ele>1116.2</ele>
        <time>2019-04-28T06:41:25Z</time>
      </trkpt>
      <trkpt lat="40.9019770" lon="-4.0796610">
        <ele>1116.2</ele>
        <time>2019-04-28T06:41:26Z</time>
      </trkpt>
      <trkpt lat="40.9019370" lon="-4.0796400">
        <ele>1116.2</ele>
        <time>2019-04-28T06:41:27Z</time>
      </trkpt>
      <trkpt lat="40.9018960" lon="-4.0796220">
        <ele>1116.4</ele>
        <time>2019-04-28T06:41:28Z</time>
      </trkpt>
      <trkpt lat="40.9018540" lon="-4.0796050">
        <ele>1116.4</ele>
        <time>2019-04-28T06:41:29Z</time>
      </trkpt>
      <trkpt lat="40.9018110" lon="-4.0795880">
        <ele>1116.6</ele>
        <time>2019-04-28T06:41:30Z</time>
      </trkpt>
      <trkpt lat="40.9017700" lon="-4.0795710">
        <ele>1116.6</ele>
        <time>2019-04-28T06:41:31Z</time>
      </trkpt>
      <trkpt lat="40.9017280" lon="-4.0795520">
        <ele>1116.6</ele>
        <time>2019-04-28T06:41:32Z</time>
      </trkpt>
      <trkpt lat="40.9016870" lon="-4.0795360">
        <ele>1116.6</ele>
        <time>2019-04-28T06:41:33Z</time>
      </trkpt>
      <trkpt lat="40.9016450" lon="-4.0795190">
        <ele>1116.6</ele>
        <time>2019-04-28T06:41:34Z</time>
      </trkpt>
      <trkpt lat="40.9016020" lon="-4.0794980">
        <ele>1116.6</ele>
        <time>2019-04-28T06:41:35Z</time>
      </trkpt>
      <trkpt lat="40.9015600" lon="-4.0794820">
        <ele>1116.6</ele>
        <time>2019-04-28T06:41:36Z</time>
      </trkpt>
      <trkpt lat="40.9014760" lon="-4.0794470">
        <ele>1116.6</ele>
        <time>2019-04-28T06:41:38Z</time>
      </trkpt>
      <trkpt lat="40.9014330" lon="-4.0794310">
        <ele>1116.8</ele>
        <time>2019-04-28T06:41:39Z</time>
      </trkpt>
      <trkpt lat="40.9013920" lon="-4.0794080">
        <ele>1116.6</ele>
        <time>2019-04-28T06:41:40Z</time>
      </trkpt>
      <trkpt lat="40.9013060" lon="-4.0793730">
        <ele>1116.8</ele>
        <time>2019-04-28T06:41:42Z</time>
      </trkpt>
      <trkpt lat="40.9012240" lon="-4.0793430">
        <ele>1117.2</ele>
        <time>2019-04-28T06:41:44Z</time>
      </trkpt>
      <trkpt lat="40.9011390" lon="-4.0793070">
        <ele>1117.0</ele>
        <time>2019-04-28T06:41:46Z</time>
      </trkpt>
      <trkpt lat="40.9010930" lon="-4.0792880">
        <ele>1117.0</ele>
        <time>2019-04-28T06:41:47Z</time>
      </trkpt>
      <trkpt lat="40.9010470" lon="-4.0792710">
        <ele>1117.0</ele>
        <time>2019-04-28T06:41:48Z</time>
      </trkpt>
      <trkpt lat="40.9010010" lon="-4.0792530">
        <ele>1117.2</ele>
        <time>2019-04-28T06:41:49Z</time>
      </trkpt>
      <trkpt lat="40.9009550" lon="-4.0792380">
        <ele>1117.2</ele>
        <time>2019-04-28T06:41:50Z</time>
      </trkpt>
      <trkpt lat="40.9009100" lon="-4.0792230">
        <ele>1117.4</ele>
        <time>2019-04-28T06:41:51Z</time>
      </trkpt>
      <trkpt lat="40.9008650" lon="-4.0792100">
        <ele>1117.4</ele>
        <time>2019-04-28T06:41:52Z</time>
      </trkpt>
      <trkpt lat="40.9008220" lon="-4.0791990">
        <ele>1117.6</ele>
        <time>2019-04-28T06:41:53Z</time>
      </trkpt>
      <trkpt lat="40.9007790" lon="-4.0791900">
        <ele>1117.6</ele>
        <time>2019-04-28T06:41:54Z</time>
      </trkpt>
      <trkpt lat="40.9007370" lon="-4.0791810">
        <ele>1117.8</ele>
        <time>2019-04-28T06:41:55Z</time>
      </trkpt>
      <trkpt lat="40.9006940" lon="-4.0791730">
        <ele>1118.0</ele>
        <time>2019-04-28T06:41:56Z</time>
      </trkpt>
      <trkpt lat="40.9006050" lon="-4.0791460">
        <ele>1118.2</ele>
        <time>2019-04-28T06:41:58Z</time>
      </trkpt>
      <trkpt lat="40.9005160" lon="-4.0791170">
        <ele>1118.2</ele>
        <time>2019-04-28T06:42:00Z</time>
      </trkpt>
      <trkpt lat="40.9004280" lon="-4.0790830">
        <ele>1118.2</ele>
        <time>2019-04-28T06:42:02Z</time>
      </trkpt>
      <trkpt lat="40.9003840" lon="-4.0790610">
        <ele>1118.2</ele>
        <time>2019-04-28T06:42:03Z</time>
      </trkpt>
      <trkpt lat="40.9003380" lon="-4.0790520">
        <ele>1118.2</ele>
        <time>2019-04-28T06:42:04Z</time>
      </trkpt>
      <trkpt lat="40.9002900" lon="-4.0790500">
        <ele>1118.2</ele>
        <time>2019-04-28T06:42:05Z</time>
      </trkpt>
      <trkpt lat="40.9002440" lon="-4.0790430">
        <ele>1118.6</ele>
        <time>2019-04-28T06:42:06Z</time>
      </trkpt>
      <trkpt lat="40.9001970" lon="-4.0790320">
        <ele>1118.6</ele>
        <time>2019-04-28T06:42:07Z</time>
      </trkpt>
      <trkpt lat="40.9001510" lon="-4.0790240">
        <ele>1118.8</ele>
        <time>2019-04-28T06:42:08Z</time>
      </trkpt>
      <trkpt lat="40.9001050" lon="-4.0790150">
        <ele>1118.8</ele>
        <time>2019-04-28T06:42:09Z</time>
      </trkpt>
      <trkpt lat="40.9000600" lon="-4.0790060">
        <ele>1118.8</ele>
        <time>2019-04-28T06:42:10Z</time>
      </trkpt>
      <trkpt lat="40.9000170" lon="-4.0789970">
        <ele>1118.8</ele>
        <time>2019-04-28T06:42:11Z</time>
      </trkpt>
      <trkpt lat="40.8999730" lon="-4.0789880">
        <ele>1118.8</ele>
        <time>2019-04-28T06:42:12Z</time>
      </trkpt>
      <trkpt lat="40.8999280" lon="-4.0789780">
        <ele>1118.8</ele>
        <time>2019-04-28T06:42:13Z</time>
      </trkpt>
      <trkpt lat="40.8998420" lon="-4.0789520">
        <ele>1119.0</ele>
        <time>2019-04-28T06:42:15Z</time>
      </trkpt>
      <trkpt lat="40.8998000" lon="-4.0789360">
        <ele>1119.2</ele>
        <time>2019-04-28T06:42:16Z</time>
      </trkpt>
      <trkpt lat="40.8997610" lon="-4.0789210">
        <ele>1119.4</ele>
        <time>2019-04-28T06:42:17Z</time>
      </trkpt>
      <trkpt lat="40.8997250" lon="-4.0789060">
        <ele>1119.4</ele>
        <time>2019-04-28T06:42:18Z</time>
      </trkpt>
      <trkpt lat="40.8996880" lon="-4.0788920">
        <ele>1119.4</ele>
        <time>2019-04-28T06:42:19Z</time>
      </trkpt>
      <trkpt lat="40.8996490" lon="-4.0788700">
        <ele>1119.4</ele>
        <time>2019-04-28T06:42:20Z</time>
      </trkpt>
      <trkpt lat="40.8996090" lon="-4.0788520">
        <ele>1119.6</ele>
        <time>2019-04-28T06:42:21Z</time>
      </trkpt>
      <trkpt lat="40.8995670" lon="-4.0788400">
        <ele>1119.6</ele>
        <time>2019-04-28T06:42:22Z</time>
      </trkpt>
      <trkpt lat="40.8995250" lon="-4.0788190">
        <ele>1119.6</ele>
        <time>2019-04-28T06:42:23Z</time>
      </trkpt>
      <trkpt lat="40.8994820" lon="-4.0787890">
        <ele>1119.6</ele>
        <time>2019-04-28T06:42:24Z</time>
      </trkpt>
      <trkpt lat="40.8994370" lon="-4.0787600">
        <ele>1119.8</ele>
        <time>2019-04-28T06:42:25Z</time>
      </trkpt>
      <trkpt lat="40.8993890" lon="-4.0787340">
        <ele>1119.8</ele>
        <time>2019-04-28T06:42:26Z</time>
      </trkpt>
      <trkpt lat="40.8993420" lon="-4.0787100">
        <ele>1119.8</ele>
        <time>2019-04-28T06:42:27Z</time>
      </trkpt>
      <trkpt lat="40.8992480" lon="-4.0786590">
        <ele>1119.8</ele>
        <time>2019-04-28T06:42:29Z</time>
      </trkpt>
      <trkpt lat="40.8992020" lon="-4.0786370">
        <ele>1119.8</ele>
        <time>2019-04-28T06:42:30Z</time>
      </trkpt>
      <trkpt lat="40.8991560" lon="-4.0786120">
        <ele>1119.8</ele>
        <time>2019-04-28T06:42:31Z</time>
      </trkpt>
      <trkpt lat="40.8990680" lon="-4.0785600">
        <ele>1119.8</ele>
        <time>2019-04-28T06:42:33Z</time>
      </trkpt>
      <trkpt lat="40.8990250" lon="-4.0785350">
        <ele>1120.0</ele>
        <time>2019-04-28T06:42:34Z</time>
      </trkpt>
      <trkpt lat="40.8989820" lon="-4.0785110">
        <ele>1120.0</ele>
        <time>2019-04-28T06:42:35Z</time>
      </trkpt>
      <trkpt lat="40.8989400" lon="-4.0784860">
        <ele>1120.0</ele>
        <time>2019-04-28T06:42:36Z</time>
      </trkpt>
      <trkpt lat="40.8988960" lon="-4.0784640">
        <ele>1120.0</ele>
        <time>2019-04-28T06:42:37Z</time>
      </trkpt>
      <trkpt lat="40.8988510" lon="-4.0784400">
        <ele>1120.0</ele>
        <time>2019-04-28T06:42:38Z</time>
      </trkpt>
      <trkpt lat="40.8988080" lon="-4.0784150">
        <ele>1120.0</ele>
        <time>2019-04-28T06:42:39Z</time>
      </trkpt>
      <trkpt lat="40.8987620" lon="-4.0783890">
        <ele>1120.2</ele>
        <time>2019-04-28T06:42:40Z</time>
      </trkpt>
      <trkpt lat="40.8987170" lon="-4.0783650">
        <ele>1120.2</ele>
        <time>2019-04-28T06:42:41Z</time>
      </trkpt>
      <trkpt lat="40.8986700" lon="-4.0783390">
        <ele>1120.2</ele>
        <time>2019-04-28T06:42:42Z</time>
      </trkpt>
      <trkpt lat="40.8986230" lon="-4.0783140">
        <ele>1120.0</ele>
        <time>2019-04-28T06:42:43Z</time>
      </trkpt>
      <trkpt lat="40.8985760" lon="-4.0782890">
        <ele>1120.2</ele>
        <time>2019-04-28T06:42:44Z</time>
      </trkpt>
      <trkpt lat="40.8985310" lon="-4.0782640">
        <ele>1120.2</ele>
        <time>2019-04-28T06:42:45Z</time>
      </trkpt>
      <trkpt lat="40.8984860" lon="-4.0782390">
        <ele>1120.2</ele>
        <time>2019-04-28T06:42:46Z</time>
      </trkpt>
      <trkpt lat="40.8984430" lon="-4.0782090">
        <ele>1120.4</ele>
        <time>2019-04-28T06:42:47Z</time>
      </trkpt>
      <trkpt lat="40.8983980" lon="-4.0781820">
        <ele>1120.4</ele>
        <time>2019-04-28T06:42:48Z</time>
      </trkpt>
      <trkpt lat="40.8983530" lon="-4.0781560">
        <ele>1120.4</ele>
        <time>2019-04-28T06:42:49Z</time>
      </trkpt>
      <trkpt lat="40.8983090" lon="-4.0781260">
        <ele>1120.6</ele>
        <time>2019-04-28T06:42:50Z</time>
      </trkpt>
      <trkpt lat="40.8982640" lon="-4.0780960">
        <ele>1120.6</ele>
        <time>2019-04-28T06:42:51Z</time>
      </trkpt>
      <trkpt lat="40.8982210" lon="-4.0780660">
        <ele>1120.6</ele>
        <time>2019-04-28T06:42:52Z</time>
      </trkpt>
      <trkpt lat="40.8981740" lon="-4.0780460">
        <ele>1120.6</ele>
        <time>2019-04-28T06:42:53Z</time>
      </trkpt>
      <trkpt lat="40.8981280" lon="-4.0780290">
        <ele>1120.8</ele>
        <time>2019-04-28T06:42:54Z</time>
      </trkpt>
      <trkpt lat="40.8980830" lon="-4.0780090">
        <ele>1120.8</ele>
        <time>2019-04-28T06:42:55Z</time>
      </trkpt>
      <trkpt lat="40.8980430" lon="-4.0779790">
        <ele>1121.0</ele>
        <time>2019-04-28T06:42:56Z</time>
      </trkpt>
      <trkpt lat="40.8980010" lon="-4.0779480">
        <ele>1121.2</ele>
        <time>2019-04-28T06:42:57Z</time>
      </trkpt>
      <trkpt lat="40.8979600" lon="-4.0779200">
        <ele>1121.2</ele>
        <time>2019-04-28T06:42:58Z</time>
      </trkpt>
      <trkpt lat="40.8979180" lon="-4.0778920">
        <ele>1121.4</ele>
        <time>2019-04-28T06:42:59Z</time>
      </trkpt>
      <trkpt lat="40.8978760" lon="-4.0778650">
        <ele>1121.4</ele>
        <time>2019-04-28T06:43:00Z</time>
      </trkpt>
      <trkpt lat="40.8978350" lon="-4.0778410">
        <ele>1121.6</ele>
        <time>2019-04-28T06:43:01Z</time>
      </trkpt>
      <trkpt lat="40.8977570" lon="-4.0777880">
        <ele>1121.6</ele>
        <time>2019-04-28T06:43:03Z</time>
      </trkpt>
      <trkpt lat="40.8977200" lon="-4.0777620">
        <ele>1121.8</ele>
        <time>2019-04-28T06:43:04Z</time>
      </trkpt>
      <trkpt lat="40.8976850" lon="-4.0777310">
        <ele>1121.8</ele>
        <time>2019-04-28T06:43:05Z</time>
      </trkpt>
      <trkpt lat="40.8976500" lon="-4.0776980">
        <ele>1122.0</ele>
        <time>2019-04-28T06:43:06Z</time>
      </trkpt>
      <trkpt lat="40.8976140" lon="-4.0776670">
        <ele>1122.2</ele>
        <time>2019-04-28T06:43:07Z</time>
      </trkpt>
      <trkpt lat="40.8975750" lon="-4.0776350">
        <ele>1122.2</ele>
        <time>2019-04-28T06:43:08Z</time>
      </trkpt>
      <trkpt lat="40.8975400" lon="-4.0776050">
        <ele>1122.4</ele>
        <time>2019-04-28T06:43:09Z</time>
      </trkpt>
      <trkpt lat="40.8975030" lon="-4.0775740">
        <ele>1122.4</ele>
        <time>2019-04-28T06:43:10Z</time>
      </trkpt>
      <trkpt lat="40.8974660" lon="-4.0775410">
        <ele>1122.6</ele>
        <time>2019-04-28T06:43:11Z</time>
      </trkpt>
      <trkpt lat="40.8974300" lon="-4.0775060">
        <ele>1122.6</ele>
        <time>2019-04-28T06:43:12Z</time>
      </trkpt>
      <trkpt lat="40.8973560" lon="-4.0774360">
        <ele>1122.6</ele>
        <time>2019-04-28T06:43:14Z</time>
      </trkpt>
      <trkpt lat="40.8973180" lon="-4.0774020">
        <ele>1122.6</ele>
        <time>2019-04-28T06:43:15Z</time>
      </trkpt>
      <trkpt lat="40.8972790" lon="-4.0773710">
        <ele>1122.6</ele>
        <time>2019-04-28T06:43:16Z</time>
      </trkpt>
      <trkpt lat="40.8971990" lon="-4.0773080">
        <ele>1122.8</ele>
        <time>2019-04-28T06:43:18Z</time>
      </trkpt>
      <trkpt lat="40.8971600" lon="-4.0772770">
        <ele>1122.8</ele>
        <time>2019-04-28T06:43:19Z</time>
      </trkpt>
      <trkpt lat="40.8971200" lon="-4.0772490">
        <ele>1123.0</ele>
        <time>2019-04-28T06:43:20Z</time>
      </trkpt>
      <trkpt lat="40.8970410" lon="-4.0771910">
        <ele>1123.0</ele>
        <time>2019-04-28T06:43:22Z</time>
      </trkpt>
      <trkpt lat="40.8970010" lon="-4.0771610">
        <ele>1123.0</ele>
        <time>2019-04-28T06:43:23Z</time>
      </trkpt>
      <trkpt lat="40.8969630" lon="-4.0771250">
        <ele>1123.0</ele>
        <time>2019-04-28T06:43:24Z</time>
      </trkpt>
      <trkpt lat="40.8969250" lon="-4.0770880">
        <ele>1123.2</ele>
        <time>2019-04-28T06:43:25Z</time>
      </trkpt>
      <trkpt lat="40.8968870" lon="-4.0770560">
        <ele>1123.2</ele>
        <time>2019-04-28T06:43:26Z</time>
      </trkpt>
      <trkpt lat="40.8968470" lon="-4.0770260">
        <ele>1123.2</ele>
        <time>2019-04-28T06:43:27Z</time>
      </trkpt>
      <trkpt lat="40.8968060" lon="-4.0769990">
        <ele>1123.4</ele>
        <time>2019-04-28T06:43:28Z</time>
      </trkpt>
      <trkpt lat="40.8967640" lon="-4.0769750">
        <ele>1123.6</ele>
        <time>2019-04-28T06:43:29Z</time>
      </trkpt>
      <trkpt lat="40.8967240" lon="-4.0769520">
        <ele>1123.6</ele>
        <time>2019-04-28T06:43:30Z</time>
      </trkpt>
      <trkpt lat="40.8966840" lon="-4.0769300">
        <ele>1123.8</ele>
        <time>2019-04-28T06:43:31Z</time>
      </trkpt>
      <trkpt lat="40.8966460" lon="-4.0769080">
        <ele>1124.0</ele>
        <time>2019-04-28T06:43:32Z</time>
      </trkpt>
      <trkpt lat="40.8966080" lon="-4.0768830">
        <ele>1124.2</ele>
        <time>2019-04-28T06:43:33Z</time>
      </trkpt>
      <trkpt lat="40.8965710" lon="-4.0768550">
        <ele>1124.4</ele>
        <time>2019-04-28T06:43:34Z</time>
      </trkpt>
      <trkpt lat="40.8965020" lon="-4.0767950">
        <ele>1124.6</ele>
        <time>2019-04-28T06:43:36Z</time>
      </trkpt>
      <trkpt lat="40.8964410" lon="-4.0767220">
        <ele>1125.0</ele>
        <time>2019-04-28T06:43:38Z</time>
      </trkpt>
      <trkpt lat="40.8964110" lon="-4.0766860">
        <ele>1125.2</ele>
        <time>2019-04-28T06:43:39Z</time>
      </trkpt>
      <trkpt lat="40.8963820" lon="-4.0766490">
        <ele>1125.4</ele>
        <time>2019-04-28T06:43:40Z</time>
      </trkpt>
      <trkpt lat="40.8963550" lon="-4.0766090">
        <ele>1125.6</ele>
        <time>2019-04-28T06:43:41Z</time>
      </trkpt>
      <trkpt lat="40.8963280" lon="-4.0765680">
        <ele>1125.6</ele>
        <time>2019-04-28T06:43:42Z</time>
      </trkpt>
      <trkpt lat="40.8962990" lon="-4.0765270">
        <ele>1125.8</ele>
        <time>2019-04-28T06:43:43Z</time>
      </trkpt>
      <trkpt lat="40.8962710" lon="-4.0764850">
        <ele>1126.0</ele>
        <time>2019-04-28T06:43:44Z</time>
      </trkpt>
      <trkpt lat="40.8962420" lon="-4.0764460">
        <ele>1126.2</ele>
        <time>2019-04-28T06:43:45Z</time>
      </trkpt>
      <trkpt lat="40.8962090" lon="-4.0764130">
        <ele>1126.2</ele>
        <time>2019-04-28T06:43:46Z</time>
      </trkpt>
      <trkpt lat="40.8961770" lon="-4.0763780">
        <ele>1126.6</ele>
        <time>2019-04-28T06:43:47Z</time>
      </trkpt>
      <trkpt lat="40.8961470" lon="-4.0763440">
        <ele>1126.8</ele>
        <time>2019-04-28T06:43:48Z</time>
      </trkpt>
      <trkpt lat="40.8960880" lon="-4.0762770">
        <ele>1127.2</ele>
        <time>2019-04-28T06:43:50Z</time>
      </trkpt>
      <trkpt lat="40.8960580" lon="-4.0762470">
        <ele>1127.4</ele>
        <time>2019-04-28T06:43:51Z</time>
      </trkpt>
      <trkpt lat="40.8960010" lon="-4.0761850">
        <ele>1127.8</ele>
        <time>2019-04-28T06:43:53Z</time>
      </trkpt>
      <trkpt lat="40.8959700" lon="-4.0761580">
        <ele>1128.0</ele>
        <time>2019-04-28T06:43:54Z</time>
      </trkpt>
      <trkpt lat="40.8959380" lon="-4.0761330">
        <ele>1128.0</ele>
        <time>2019-04-28T06:43:55Z</time>
      </trkpt>
      <trkpt lat="40.8958770" lon="-4.0760760">
        <ele>1128.4</ele>
        <time>2019-04-28T06:43:57Z</time>
      </trkpt>
      <trkpt lat="40.8958480" lon="-4.0760460">
        <ele>1128.6</ele>
        <time>2019-04-28T06:43:58Z</time>
      </trkpt>
      <trkpt lat="40.8958190" lon="-4.0760150">
        <ele>1128.6</ele>
        <time>2019-04-28T06:43:59Z</time>
      </trkpt>
      <trkpt lat="40.8957890" lon="-4.0759860">
        <ele>1128.6</ele>
        <time>2019-04-28T06:44:00Z</time>
      </trkpt>
      <trkpt lat="40.8957560" lon="-4.0759600">
        <ele>1128.8</ele>
        <time>2019-04-28T06:44:01Z</time>
      </trkpt>
      <trkpt lat="40.8957230" lon="-4.0759340">
        <ele>1129.0</ele>
        <time>2019-04-28T06:44:02Z</time>
      </trkpt>
      <trkpt lat="40.8956900" lon="-4.0759110">
        <ele>1129.0</ele>
        <time>2019-04-28T06:44:03Z</time>
      </trkpt>
      <trkpt lat="40.8956560" lon="-4.0758870">
        <ele>1129.2</ele>
        <time>2019-04-28T06:44:04Z</time>
      </trkpt>
      <trkpt lat="40.8956230" lon="-4.0758630">
        <ele>1129.4</ele>
        <time>2019-04-28T06:44:05Z</time>
      </trkpt>
      <trkpt lat="40.8955900" lon="-4.0758370">
        <ele>1129.6</ele>
        <time>2019-04-28T06:44:06Z</time>
      </trkpt>
      <trkpt lat="40.8955570" lon="-4.0758130">
        <ele>1129.8</ele>
        <time>2019-04-28T06:44:07Z</time>
      </trkpt>
      <trkpt lat="40.8954960" lon="-4.0757580">
        <ele>1130.0</ele>
        <time>2019-04-28T06:44:09Z</time>
      </trkpt>
      <trkpt lat="40.8954660" lon="-4.0757300">
        <ele>1130.0</ele>
        <time>2019-04-28T06:44:10Z</time>
      </trkpt>
      <trkpt lat="40.8954360" lon="-4.0757040">
        <ele>1130.2</ele>
        <time>2019-04-28T06:44:11Z</time>
      </trkpt>
      <trkpt lat="40.8954070" lon="-4.0756720">
        <ele>1130.4</ele>
        <time>2019-04-28T06:44:12Z</time>
      </trkpt>
      <trkpt lat="40.8953770" lon="-4.0756440">
        <ele>1130.4</ele>
        <time>2019-04-28T06:44:13Z</time>
      </trkpt>
      <trkpt lat="40.8953510" lon="-4.0756190">
        <ele>1130.6</ele>
        <time>2019-04-28T06:44:14Z</time>
      </trkpt>
      <trkpt lat="40.8952940" lon="-4.0755740">
        <ele>1130.8</ele>
        <time>2019-04-28T06:44:16Z</time>
      </trkpt>
      <trkpt lat="40.8952370" lon="-4.0755160">
        <ele>1131.2</ele>
        <time>2019-04-28T06:44:18Z</time>
      </trkpt>
      <trkpt lat="40.8952100" lon="-4.0754830">
        <ele>1131.6</ele>
        <time>2019-04-28T06:44:19Z</time>
      </trkpt>
      <trkpt lat="40.8951820" lon="-4.0754570">
        <ele>1131.6</ele>
        <time>2019-04-28T06:44:20Z</time>
      </trkpt>
      <trkpt lat="40.8951270" lon="-4.0754110">
        <ele>1132.2</ele>
        <time>2019-04-28T06:44:22Z</time>
      </trkpt>
      <trkpt lat="40.8951040" lon="-4.0753850">
        <ele>1132.4</ele>
        <time>2019-04-28T06:44:23Z</time>
      </trkpt>
      <trkpt lat="40.8950800" lon="-4.0753530">
        <ele>1132.8</ele>
        <time>2019-04-28T06:44:24Z</time>
      </trkpt>
      <trkpt lat="40.8950260" lon="-4.0752950">
        <ele>1133.2</ele>
        <time>2019-04-28T06:44:26Z</time>
      </trkpt>
      <trkpt lat="40.8950010" lon="-4.0752630">
        <ele>1133.4</ele>
        <time>2019-04-28T06:44:27Z</time>
      </trkpt>
      <trkpt lat="40.8949740" lon="-4.0752320">
        <ele>1133.6</ele>
        <time>2019-04-28T06:44:28Z</time>
      </trkpt>
      <trkpt lat="40.8949180" lon="-4.0751800">
        <ele>1134.0</ele>
        <time>2019-04-28T06:44:30Z</time>
      </trkpt>
      <trkpt lat="40.8948890" lon="-4.0751530">
        <ele>1134.0</ele>
        <time>2019-04-28T06:44:31Z</time>
      </trkpt>
      <trkpt lat="40.8948600" lon="-4.0751260">
        <ele>1134.0</ele>
        <time>2019-04-28T06:44:32Z</time>
      </trkpt>
      <trkpt lat="40.8948320" lon="-4.0750960">
        <ele>1134.2</ele>
        <time>2019-04-28T06:44:33Z</time>
      </trkpt>
      <trkpt lat="40.8948040" lon="-4.0750640">
        <ele>1134.4</ele>
        <time>2019-04-28T06:44:34Z</time>
      </trkpt>
      <trkpt lat="40.8947740" lon="-4.0750330">
        <ele>1134.6</ele>
        <time>2019-04-28T06:44:35Z</time>
      </trkpt>
      <trkpt lat="40.8947440" lon="-4.0750090">
        <ele>1134.8</ele>
        <time>2019-04-28T06:44:36Z</time>
      </trkpt>
      <trkpt lat="40.8946850" lon="-4.0749580">
        <ele>1135.2</ele>
        <time>2019-04-28T06:44:38Z</time>
      </trkpt>
      <trkpt lat="40.8946570" lon="-4.0749300">
        <ele>1135.2</ele>
        <time>2019-04-28T06:44:39Z</time>
      </trkpt>
      <trkpt lat="40.8945980" lon="-4.0748740">
        <ele>1135.6</ele>
        <time>2019-04-28T06:44:41Z</time>
      </trkpt>
      <trkpt lat="40.8945690" lon="-4.0748440">
        <ele>1135.6</ele>
        <time>2019-04-28T06:44:42Z</time>
      </trkpt>
      <trkpt lat="40.8945400" lon="-4.0748130">
        <ele>1135.8</ele>
        <time>2019-04-28T06:44:43Z</time>
      </trkpt>
      <trkpt lat="40.8945110" lon="-4.0747790">
        <ele>1135.8</ele>
        <time>2019-04-28T06:44:44Z</time>
      </trkpt>
      <trkpt lat="40.8944840" lon="-4.0747450">
        <ele>1136.0</ele>
        <time>2019-04-28T06:44:45Z</time>
      </trkpt>
      <trkpt lat="40.8944560" lon="-4.0747090">
        <ele>1136.0</ele>
        <time>2019-04-28T06:44:46Z</time>
      </trkpt>
      <trkpt lat="40.8944280" lon="-4.0746740">
        <ele>1136.0</ele>
        <time>2019-04-28T06:44:47Z</time>
      </trkpt>
      <trkpt lat="40.8944000" lon="-4.0746390">
        <ele>1136.2</ele>
        <time>2019-04-28T06:44:48Z</time>
      </trkpt>
      <trkpt lat="40.8943740" lon="-4.0746030">
        <ele>1136.4</ele>
        <time>2019-04-28T06:44:49Z</time>
      </trkpt>
      <trkpt lat="40.8943530" lon="-4.0745650">
        <ele>1136.6</ele>
        <time>2019-04-28T06:44:50Z</time>
      </trkpt>
      <trkpt lat="40.8943310" lon="-4.0745270">
        <ele>1136.6</ele>
        <time>2019-04-28T06:44:51Z</time>
      </trkpt>
      <trkpt lat="40.8943080" lon="-4.0744880">
        <ele>1136.8</ele>
        <time>2019-04-28T06:44:52Z</time>
      </trkpt>
      <trkpt lat="40.8942890" lon="-4.0744460">
        <ele>1137.0</ele>
        <time>2019-04-28T06:44:53Z</time>
      </trkpt>
      <trkpt lat="40.8942480" lon="-4.0743650">
        <ele>1137.0</ele>
        <time>2019-04-28T06:44:55Z</time>
      </trkpt>
      <trkpt lat="40.8942240" lon="-4.0743320">
        <ele>1138.4</ele>
        <time>2019-04-28T06:44:56Z</time>
      </trkpt>
      <trkpt lat="40.8941710" lon="-4.0742740">
        <ele>1137.0</ele>
        <time>2019-04-28T06:44:57Z</time>
      </trkpt>
      <trkpt lat="40.8941410" lon="-4.0742530">
        <ele>1137.0</ele>
        <time>2019-04-28T06:44:58Z</time>
      </trkpt>
      <trkpt lat="40.8941090" lon="-4.0742290">
        <ele>1138.6</ele>
        <time>2019-04-28T06:44:59Z</time>
      </trkpt>
      <trkpt lat="40.8940780" lon="-4.0742060">
        <ele>1138.6</ele>
        <time>2019-04-28T06:45:00Z</time>
      </trkpt>
      <trkpt lat="40.8940480" lon="-4.0741810">
        <ele>1138.6</ele>
        <time>2019-04-28T06:45:01Z</time>
      </trkpt>
      <trkpt lat="40.8940210" lon="-4.0741540">
        <ele>1139.4</ele>
        <time>2019-04-28T06:45:02Z</time>
      </trkpt>
      <trkpt lat="40.8939960" lon="-4.0741280">
        <ele>1139.0</ele>
        <time>2019-04-28T06:45:03Z</time>
      </trkpt>
      <trkpt lat="40.8939710" lon="-4.0741020">
        <ele>1139.2</ele>
        <time>2019-04-28T06:45:04Z</time>
      </trkpt>
      <trkpt lat="40.8939500" lon="-4.0740780">
        <ele>1139.4</ele>
        <time>2019-04-28T06:45:05Z</time>
      </trkpt>
      <trkpt lat="40.8939290" lon="-4.0740560">
        <ele>1139.8</ele>
        <time>2019-04-28T06:45:06Z</time>
      </trkpt>
      <trkpt lat="40.8939070" lon="-4.0740320">
        <ele>1140.0</ele>
        <time>2019-04-28T06:45:07Z</time>
      </trkpt>
      <trkpt lat="40.8938890" lon="-4.0740140">
        <ele>1140.2</ele>
        <time>2019-04-28T06:45:08Z</time>
      </trkpt>
      <trkpt lat="40.8938710" lon="-4.0739950">
        <ele>1140.4</ele>
        <time>2019-04-28T06:45:09Z</time>
      </trkpt>
      <trkpt lat="40.8938560" lon="-4.0739760">
        <ele>1140.6</ele>
        <time>2019-04-28T06:45:10Z</time>
      </trkpt>
      <trkpt lat="40.8938420" lon="-4.0739570">
        <ele>1140.6</ele>
        <time>2019-04-28T06:45:11Z</time>
      </trkpt>
      <trkpt lat="40.8938260" lon="-4.0739370">
        <ele>1140.6</ele>
        <time>2019-04-28T06:45:12Z</time>
      </trkpt>
      <trkpt lat="40.8938070" lon="-4.0739200">
        <ele>1140.6</ele>
        <time>2019-04-28T06:45:13Z</time>
      </trkpt>
      <trkpt lat="40.8937900" lon="-4.0739080">
        <ele>1140.6</ele>
        <time>2019-04-28T06:45:14Z</time>
      </trkpt>
      <trkpt lat="40.8937780" lon="-4.0738970">
        <ele>1140.4</ele>
        <time>2019-04-28T06:45:15Z</time>
      </trkpt>
      <trkpt lat="40.8937710" lon="-4.0738950">
        <ele>1140.4</ele>
        <time>2019-04-28T06:45:16Z</time>
      </trkpt>
      <trkpt lat="40.8937680" lon="-4.0738940">
        <ele>1140.4</ele>
        <time>2019-04-28T06:45:17Z</time>
      </trkpt>
      <trkpt lat="40.8937650" lon="-4.0738910">
        <ele>1140.4</ele>
        <time>2019-04-28T06:45:18Z</time>
      </trkpt>
      <trkpt lat="40.8937680" lon="-4.0738880">
        <ele>1140.4</ele>
        <time>2019-04-28T06:45:19Z</time>
      </trkpt>
      <trkpt lat="40.8937690" lon="-4.0738880">
        <ele>1141.2</ele>
        <time>2019-04-28T06:45:20Z</time>
      </trkpt>
      <trkpt lat="40.8937690" lon="-4.0738870">
        <ele>1140.4</ele>
        <time>2019-04-28T06:45:21Z</time>
      </trkpt>
      <trkpt lat="40.8937710" lon="-4.0738860">
        <ele>1140.0</ele>
        <time>2019-04-28T06:45:22Z</time>
      </trkpt>
      <trkpt lat="40.8937690" lon="-4.0738880">
        <ele>1140.0</ele>
        <time>2019-04-28T06:45:23Z</time>
      </trkpt>
      <trkpt lat="40.8935800" lon="-4.0737120">
        <ele>1141.0</ele>
        <time>2019-04-28T06:45:57Z</time>
      </trkpt>
      <trkpt lat="40.8935460" lon="-4.0736830">
        <ele>1141.0</ele>
        <time>2019-04-28T06:45:58Z</time>
      </trkpt>
      <trkpt lat="40.8935110" lon="-4.0736510">
        <ele>1141.2</ele>
        <time>2019-04-28T06:45:59Z</time>
      </trkpt>
      <trkpt lat="40.8934760" lon="-4.0736210">
        <ele>1141.4</ele>
        <time>2019-04-28T06:46:00Z</time>
      </trkpt>
      <trkpt lat="40.8934410" lon="-4.0735900">
        <ele>1141.6</ele>
        <time>2019-04-28T06:46:01Z</time>
      </trkpt>
      <trkpt lat="40.8934090" lon="-4.0735580">
        <ele>1141.6</ele>
        <time>2019-04-28T06:46:02Z</time>
      </trkpt>
      <trkpt lat="40.8933770" lon="-4.0735240">
        <ele>1141.8</ele>
        <time>2019-04-28T06:46:03Z</time>
      </trkpt>
      <trkpt lat="40.8933490" lon="-4.0734920">
        <ele>1142.0</ele>
        <time>2019-04-28T06:46:04Z</time>
      </trkpt>
      <trkpt lat="40.8933220" lon="-4.0734610">
        <ele>1142.2</ele>
        <time>2019-04-28T06:46:05Z</time>
      </trkpt>
      <trkpt lat="40.8933000" lon="-4.0734250">
        <ele>1142.2</ele>
        <time>2019-04-28T06:46:06Z</time>
      </trkpt>
      <trkpt lat="40.8932800" lon="-4.0733880">
        <ele>1142.4</ele>
        <time>2019-04-28T06:46:07Z</time>
      </trkpt>
      <trkpt lat="40.8932630" lon="-4.0733540">
        <ele>1142.6</ele>
        <time>2019-04-28T06:46:08Z</time>
      </trkpt>
      <trkpt lat="40.8932420" lon="-4.0733270">
        <ele>1142.8</ele>
        <time>2019-04-28T06:46:09Z</time>
      </trkpt>
      <trkpt lat="40.8932190" lon="-4.0733000">
        <ele>1143.0</ele>
        <time>2019-04-28T06:46:10Z</time>
      </trkpt>
      <trkpt lat="40.8931970" lon="-4.0732710">
        <ele>1143.2</ele>
        <time>2019-04-28T06:46:11Z</time>
      </trkpt>
      <trkpt lat="40.8931760" lon="-4.0732440">
        <ele>1143.4</ele>
        <time>2019-04-28T06:46:12Z</time>
      </trkpt>
      <trkpt lat="40.8931560" lon="-4.0732170">
        <ele>1143.6</ele>
        <time>2019-04-28T06:46:13Z</time>
      </trkpt>
      <trkpt lat="40.8931360" lon="-4.0731890">
        <ele>1144.0</ele>
        <time>2019-04-28T06:46:14Z</time>
      </trkpt>
      <trkpt lat="40.8931190" lon="-4.0731620">
        <ele>1144.4</ele>
        <time>2019-04-28T06:46:15Z</time>
      </trkpt>
      <trkpt lat="40.8931020" lon="-4.0731360">
        <ele>1144.6</ele>
        <time>2019-04-28T06:46:16Z</time>
      </trkpt>
      <trkpt lat="40.8930830" lon="-4.0731160">
        <ele>1144.8</ele>
        <time>2019-04-28T06:46:17Z</time>
      </trkpt>
      <trkpt lat="40.8930620" lon="-4.0730940">
        <ele>1144.8</ele>
        <time>2019-04-28T06:46:18Z</time>
      </trkpt>
      <trkpt lat="40.8930470" lon="-4.0730600">
        <ele>1145.0</ele>
        <time>2019-04-28T06:46:19Z</time>
      </trkpt>
      <trkpt lat="40.8930340" lon="-4.0730260">
        <ele>1145.2</ele>
        <time>2019-04-28T06:46:20Z</time>
      </trkpt>
      <trkpt lat="40.8930150" lon="-4.0730010">
        <ele>1145.6</ele>
        <time>2019-04-28T06:46:21Z</time>
      </trkpt>
      <trkpt lat="40.8929960" lon="-4.0729860">
        <ele>1145.8</ele>
        <time>2019-04-28T06:46:22Z</time>
      </trkpt>
      <trkpt lat="40.8929770" lon="-4.0729700">
        <ele>1146.2</ele>
        <time>2019-04-28T06:46:23Z</time>
      </trkpt>
      <trkpt lat="40.8929590" lon="-4.0729480">
        <ele>1146.2</ele>
        <time>2019-04-28T06:46:24Z</time>
      </trkpt>
      <trkpt lat="40.8929420" lon="-4.0729190">
        <ele>1146.4</ele>
        <time>2019-04-28T06:46:25Z</time>
      </trkpt>
      <trkpt lat="40.8929250" lon="-4.0728920">
        <ele>1146.8</ele>
        <time>2019-04-28T06:46:26Z</time>
      </trkpt>
      <trkpt lat="40.8929070" lon="-4.0728710">
        <ele>1146.8</ele>
        <time>2019-04-28T06:46:27Z</time>
      </trkpt>
      <trkpt lat="40.8928870" lon="-4.0728510">
        <ele>1147.0</ele>
        <time>2019-04-28T06:46:28Z</time>
      </trkpt>
      <trkpt lat="40.8928690" lon="-4.0728340">
        <ele>1147.2</ele>
        <time>2019-04-28T06:46:29Z</time>
      </trkpt>
      <trkpt lat="40.8928500" lon="-4.0728150">
        <ele>1147.4</ele>
        <time>2019-04-28T06:46:30Z</time>
      </trkpt>
      <trkpt lat="40.8928300" lon="-4.0727940">
        <ele>1147.6</ele>
        <time>2019-04-28T06:46:31Z</time>
      </trkpt>
      <trkpt lat="40.8928080" lon="-4.0727750">
        <ele>1147.8</ele>
        <time>2019-04-28T06:46:32Z</time>
      </trkpt>
      <trkpt lat="40.8927850" lon="-4.0727570">
        <ele>1147.8</ele>
        <time>2019-04-28T06:46:33Z</time>
      </trkpt>
      <trkpt lat="40.8927650" lon="-4.0727410">
        <ele>1148.2</ele>
        <time>2019-04-28T06:46:34Z</time>
      </trkpt>
      <trkpt lat="40.8927440" lon="-4.0727240">
        <ele>1148.2</ele>
        <time>2019-04-28T06:46:35Z</time>
      </trkpt>
      <trkpt lat="40.8927250" lon="-4.0727080">
        <ele>1148.6</ele>
        <time>2019-04-28T06:46:36Z</time>
      </trkpt>
      <trkpt lat="40.8927070" lon="-4.0726910">
        <ele>1149.0</ele>
        <time>2019-04-28T06:46:37Z</time>
      </trkpt>
      <trkpt lat="40.8926860" lon="-4.0726780">
        <ele>1149.2</ele>
        <time>2019-04-28T06:46:38Z</time>
      </trkpt>
      <trkpt lat="40.8926670" lon="-4.0726620">
        <ele>1149.4</ele>
        <time>2019-04-28T06:46:39Z</time>
      </trkpt>
      <trkpt lat="40.8926520" lon="-4.0726380">
        <ele>1149.6</ele>
        <time>2019-04-28T06:46:40Z</time>
      </trkpt>
      <trkpt lat="40.8926380" lon="-4.0726130">
        <ele>1149.8</ele>
        <time>2019-04-28T06:46:41Z</time>
      </trkpt>
      <trkpt lat="40.8926200" lon="-4.0725920">
        <ele>1150.0</ele>
        <time>2019-04-28T06:46:42Z</time>
      </trkpt>
      <trkpt lat="40.8925980" lon="-4.0725800">
        <ele>1150.2</ele>
        <time>2019-04-28T06:46:43Z</time>
      </trkpt>
      <trkpt lat="40.8925810" lon="-4.0725620">
        <ele>1150.6</ele>
        <time>2019-04-28T06:46:44Z</time>
      </trkpt>
      <trkpt lat="40.8925670" lon="-4.0725390">
        <ele>1150.8</ele>
        <time>2019-04-28T06:46:45Z</time>
      </trkpt>
      <trkpt lat="40.8925540" lon="-4.0725080">
        <ele>1151.0</ele>
        <time>2019-04-28T06:46:46Z</time>
      </trkpt>
      <trkpt lat="40.8925400" lon="-4.0724760">
        <ele>1151.0</ele>
        <time>2019-04-28T06:46:47Z</time>
      </trkpt>
      <trkpt lat="40.8925220" lon="-4.0724510">
        <ele>1151.2</ele>
        <time>2019-04-28T06:46:48Z</time>
      </trkpt>
      <trkpt lat="40.8925000" lon="-4.0724330">
        <ele>1151.6</ele>
        <time>2019-04-28T06:46:49Z</time>
      </trkpt>
      <trkpt lat="40.8924770" lon="-4.0724140">
        <ele>1152.0</ele>
        <time>2019-04-28T06:46:50Z</time>
      </trkpt>
      <trkpt lat="40.8924570" lon="-4.0723940">
        <ele>1152.2</ele>
        <time>2019-04-28T06:46:51Z</time>
      </trkpt>
      <trkpt lat="40.8924440" lon="-4.0723720">
        <ele>1152.6</ele>
        <time>2019-04-28T06:46:52Z</time>
      </trkpt>
      <trkpt lat="40.8924310" lon="-4.0723490">
        <ele>1152.6</ele>
        <time>2019-04-28T06:46:53Z</time>
      </trkpt>
      <trkpt lat="40.8924150" lon="-4.0723240">
        <ele>1153.0</ele>
        <time>2019-04-28T06:46:54Z</time>
      </trkpt>
      <trkpt lat="40.8923980" lon="-4.0722990">
        <ele>1153.2</ele>
        <time>2019-04-28T06:46:55Z</time>
      </trkpt>
      <trkpt lat="40.8923790" lon="-4.0722760">
        <ele>1153.4</ele>
        <time>2019-04-28T06:46:56Z</time>
      </trkpt>
      <trkpt lat="40.8923550" lon="-4.0722610">
        <ele>1153.6</ele>
        <time>2019-04-28T06:46:57Z</time>
      </trkpt>
      <trkpt lat="40.8923320" lon="-4.0722490">
        <ele>1153.8</ele>
        <time>2019-04-28T06:46:58Z</time>
      </trkpt>
      <trkpt lat="40.8923130" lon="-4.0722360">
        <ele>1154.0</ele>
        <time>2019-04-28T06:46:59Z</time>
      </trkpt>
      <trkpt lat="40.8922990" lon="-4.0722110">
        <ele>1154.0</ele>
        <time>2019-04-28T06:47:00Z</time>
      </trkpt>
      <trkpt lat="40.8922920" lon="-4.0721780">
        <ele>1154.2</ele>
        <time>2019-04-28T06:47:01Z</time>
      </trkpt>
      <trkpt lat="40.8922910" lon="-4.0721440">
        <ele>1154.4</ele>
        <time>2019-04-28T06:47:02Z</time>
      </trkpt>
      <trkpt lat="40.8922890" lon="-4.0721110">
        <ele>1154.6</ele>
        <time>2019-04-28T06:47:03Z</time>
      </trkpt>
      <trkpt lat="40.8922850" lon="-4.0720800">
        <ele>1154.8</ele>
        <time>2019-04-28T06:47:04Z</time>
      </trkpt>
      <trkpt lat="40.8922780" lon="-4.0720480">
        <ele>1155.0</ele>
        <time>2019-04-28T06:47:05Z</time>
      </trkpt>
      <trkpt lat="40.8922730" lon="-4.0720150">
        <ele>1155.2</ele>
        <time>2019-04-28T06:47:06Z</time>
      </trkpt>
      <trkpt lat="40.8922660" lon="-4.0719800">
        <ele>1155.4</ele>
        <time>2019-04-28T06:47:07Z</time>
      </trkpt>
      <trkpt lat="40.8922580" lon="-4.0719480">
        <ele>1155.6</ele>
        <time>2019-04-28T06:47:08Z</time>
      </trkpt>
      <trkpt lat="40.8922470" lon="-4.0719140">
        <ele>1155.8</ele>
        <time>2019-04-28T06:47:09Z</time>
      </trkpt>
      <trkpt lat="40.8922340" lon="-4.0718800">
        <ele>1155.8</ele>
        <time>2019-04-28T06:47:10Z</time>
      </trkpt>
      <trkpt lat="40.8922200" lon="-4.0718490">
        <ele>1156.4</ele>
        <time>2019-04-28T06:47:11Z</time>
      </trkpt>
      <trkpt lat="40.8922060" lon="-4.0718230">
        <ele>1156.8</ele>
        <time>2019-04-28T06:47:12Z</time>
      </trkpt>
      <trkpt lat="40.8921890" lon="-4.0717970">
        <ele>1157.0</ele>
        <time>2019-04-28T06:47:13Z</time>
      </trkpt>
      <trkpt lat="40.8921720" lon="-4.0717700">
        <ele>1157.2</ele>
        <time>2019-04-28T06:47:14Z</time>
      </trkpt>
      <trkpt lat="40.8921550" lon="-4.0717410">
        <ele>1157.4</ele>
        <time>2019-04-28T06:47:15Z</time>
      </trkpt>
      <trkpt lat="40.8921360" lon="-4.0717120">
        <ele>1157.6</ele>
        <time>2019-04-28T06:47:16Z</time>
      </trkpt>
      <trkpt lat="40.8921140" lon="-4.0716850">
        <ele>1157.8</ele>
        <time>2019-04-28T06:47:17Z</time>
      </trkpt>
      <trkpt lat="40.8920890" lon="-4.0716630">
        <ele>1158.2</ele>
        <time>2019-04-28T06:47:18Z</time>
      </trkpt>
      <trkpt lat="40.8920650" lon="-4.0716420">
        <ele>1158.4</ele>
        <time>2019-04-28T06:47:19Z</time>
      </trkpt>
      <trkpt lat="40.8920450" lon="-4.0716200">
        <ele>1158.6</ele>
        <time>2019-04-28T06:47:20Z</time>
      </trkpt>
      <trkpt lat="40.8920280" lon="-4.0715950">
        <ele>1158.8</ele>
        <time>2019-04-28T06:47:21Z</time>
      </trkpt>
      <trkpt lat="40.8920120" lon="-4.0715700">
        <ele>1158.8</ele>
        <time>2019-04-28T06:47:22Z</time>
      </trkpt>
      <trkpt lat="40.8919950" lon="-4.0715450">
        <ele>1159.0</ele>
        <time>2019-04-28T06:47:23Z</time>
      </trkpt>
      <trkpt lat="40.8919770" lon="-4.0715210">
        <ele>1159.2</ele>
        <time>2019-04-28T06:47:24Z</time>
      </trkpt>
      <trkpt lat="40.8919570" lon="-4.0715000">
        <ele>1159.4</ele>
        <time>2019-04-28T06:47:25Z</time>
      </trkpt>
      <trkpt lat="40.8919370" lon="-4.0714800">
        <ele>1159.6</ele>
        <time>2019-04-28T06:47:26Z</time>
      </trkpt>
      <trkpt lat="40.8919200" lon="-4.0714600">
        <ele>1159.6</ele>
        <time>2019-04-28T06:47:27Z</time>
      </trkpt>
      <trkpt lat="40.8919020" lon="-4.0714380">
        <ele>1160.0</ele>
        <time>2019-04-28T06:47:28Z</time>
      </trkpt>
      <trkpt lat="40.8918850" lon="-4.0714150">
        <ele>1160.0</ele>
        <time>2019-04-28T06:47:29Z</time>
      </trkpt>
      <trkpt lat="40.8918670" lon="-4.0713960">
        <ele>1160.2</ele>
        <time>2019-04-28T06:47:30Z</time>
      </trkpt>
      <trkpt lat="40.8918500" lon="-4.0713780">
        <ele>1160.4</ele>
        <time>2019-04-28T06:47:31Z</time>
      </trkpt>
      <trkpt lat="40.8918300" lon="-4.0713620">
        <ele>1160.6</ele>
        <time>2019-04-28T06:47:32Z</time>
      </trkpt>
      <trkpt lat="40.8918080" lon="-4.0713460">
        <ele>1160.6</ele>
        <time>2019-04-28T06:47:33Z</time>
      </trkpt>
      <trkpt lat="40.8917870" lon="-4.0713290">
        <ele>1160.8</ele>
        <time>2019-04-28T06:47:34Z</time>
      </trkpt>
      <trkpt lat="40.8917630" lon="-4.0713080">
        <ele>1161.0</ele>
        <time>2019-04-28T06:47:35Z</time>
      </trkpt>
      <trkpt lat="40.8917390" lon="-4.0712900">
        <ele>1161.2</ele>
        <time>2019-04-28T06:47:36Z</time>
      </trkpt>
      <trkpt lat="40.8917150" lon="-4.0712700">
        <ele>1161.4</ele>
        <time>2019-04-28T06:47:37Z</time>
      </trkpt>
      <trkpt lat="40.8916890" lon="-4.0712520">
        <ele>1161.6</ele>
        <time>2019-04-28T06:47:38Z</time>
      </trkpt>
      <trkpt lat="40.8916640" lon="-4.0712360">
        <ele>1161.8</ele>
        <time>2019-04-28T06:47:39Z</time>
      </trkpt>
      <trkpt lat="40.8916370" lon="-4.0712250">
        <ele>1162.0</ele>
        <time>2019-04-28T06:47:40Z</time>
      </trkpt>
      <trkpt lat="40.8916120" lon="-4.0712120">
        <ele>1162.2</ele>
        <time>2019-04-28T06:47:41Z</time>
      </trkpt>
      <trkpt lat="40.8915880" lon="-4.0711970">
        <ele>1162.4</ele>
        <time>2019-04-28T06:47:42Z</time>
      </trkpt>
      <trkpt lat="40.8915630" lon="-4.0711830">
        <ele>1162.6</ele>
        <time>2019-04-28T06:47:43Z</time>
      </trkpt>
      <trkpt lat="40.8915380" lon="-4.0711680">
        <ele>1162.8</ele>
        <time>2019-04-28T06:47:44Z</time>
      </trkpt>
      <trkpt lat="40.8915130" lon="-4.0711480">
        <ele>1162.8</ele>
        <time>2019-04-28T06:47:45Z</time>
      </trkpt>
      <trkpt lat="40.8914860" lon="-4.0711300">
        <ele>1163.0</ele>
        <time>2019-04-28T06:47:46Z</time>
      </trkpt>
      <trkpt lat="40.8914580" lon="-4.0711090">
        <ele>1163.0</ele>
        <time>2019-04-28T06:47:47Z</time>
      </trkpt>
      <trkpt lat="40.8914320" lon="-4.0710880">
        <ele>1163.0</ele>
        <time>2019-04-28T06:47:48Z</time>
      </trkpt>
      <trkpt lat="40.8914040" lon="-4.0710690">
        <ele>1163.2</ele>
        <time>2019-04-28T06:47:49Z</time>
      </trkpt>
      <trkpt lat="40.8913770" lon="-4.0710520">
        <ele>1163.2</ele>
        <time>2019-04-28T06:47:50Z</time>
      </trkpt>
      <trkpt lat="40.8913520" lon="-4.0710310">
        <ele>1163.4</ele>
        <time>2019-04-28T06:47:51Z</time>
      </trkpt>
      <trkpt lat="40.8913260" lon="-4.0710090">
        <ele>1163.4</ele>
        <time>2019-04-28T06:47:52Z</time>
      </trkpt>
      <trkpt lat="40.8913000" lon="-4.0709890">
        <ele>1163.6</ele>
        <time>2019-04-28T06:47:53Z</time>
      </trkpt>
      <trkpt lat="40.8912740" lon="-4.0709660">
        <ele>1163.6</ele>
        <time>2019-04-28T06:47:54Z</time>
      </trkpt>
      <trkpt lat="40.8912480" lon="-4.0709440">
        <ele>1163.8</ele>
        <time>2019-04-28T06:47:55Z</time>
      </trkpt>
      <trkpt lat="40.8912240" lon="-4.0709200">
        <ele>1163.8</ele>
        <time>2019-04-28T06:47:56Z</time>
      </trkpt>
      <trkpt lat="40.8912020" lon="-4.0708940">
        <ele>1163.8</ele>
        <time>2019-04-28T06:47:57Z</time>
      </trkpt>
      <trkpt lat="40.8911800" lon="-4.0708690">
        <ele>1163.8</ele>
        <time>2019-04-28T06:47:58Z</time>
      </trkpt>
      <trkpt lat="40.8911590" lon="-4.0708420">
        <ele>1164.0</ele>
        <time>2019-04-28T06:47:59Z</time>
      </trkpt>
      <trkpt lat="40.8911380" lon="-4.0708180">
        <ele>1164.0</ele>
        <time>2019-04-28T06:48:00Z</time>
      </trkpt>
      <trkpt lat="40.8911130" lon="-4.0707960">
        <ele>1164.2</ele>
        <time>2019-04-28T06:48:01Z</time>
      </trkpt>
      <trkpt lat="40.8910880" lon="-4.0707760">
        <ele>1164.4</ele>
        <time>2019-04-28T06:48:02Z</time>
      </trkpt>
      <trkpt lat="40.8910620" lon="-4.0707540">
        <ele>1164.6</ele>
        <time>2019-04-28T06:48:03Z</time>
      </trkpt>
      <trkpt lat="40.8910380" lon="-4.0707300">
        <ele>1164.6</ele>
        <time>2019-04-28T06:48:04Z</time>
      </trkpt>
      <trkpt lat="40.8910160" lon="-4.0707070">
        <ele>1164.8</ele>
        <time>2019-04-28T06:48:05Z</time>
      </trkpt>
      <trkpt lat="40.8909920" lon="-4.0706860">
        <ele>1164.8</ele>
        <time>2019-04-28T06:48:06Z</time>
      </trkpt>
      <trkpt lat="40.8909710" lon="-4.0706640">
        <ele>1165.0</ele>
        <time>2019-04-28T06:48:07Z</time>
      </trkpt>
      <trkpt lat="40.8909510" lon="-4.0706430">
        <ele>1165.0</ele>
        <time>2019-04-28T06:48:08Z</time>
      </trkpt>
      <trkpt lat="40.8909290" lon="-4.0706240">
        <ele>1165.2</ele>
        <time>2019-04-28T06:48:09Z</time>
      </trkpt>
      <trkpt lat="40.8909100" lon="-4.0706020">
        <ele>1165.4</ele>
        <time>2019-04-28T06:48:10Z</time>
      </trkpt>
      <trkpt lat="40.8908890" lon="-4.0705810">
        <ele>1165.4</ele>
        <time>2019-04-28T06:48:11Z</time>
      </trkpt>
      <trkpt lat="40.8908680" lon="-4.0705620">
        <ele>1165.6</ele>
        <time>2019-04-28T06:48:12Z</time>
      </trkpt>
      <trkpt lat="40.8908440" lon="-4.0705450">
        <ele>1165.6</ele>
        <time>2019-04-28T06:48:13Z</time>
      </trkpt>
      <trkpt lat="40.8908230" lon="-4.0705270">
        <ele>1165.8</ele>
        <time>2019-04-28T06:48:14Z</time>
      </trkpt>
      <trkpt lat="40.8908010" lon="-4.0705130">
        <ele>1166.0</ele>
        <time>2019-04-28T06:48:15Z</time>
      </trkpt>
      <trkpt lat="40.8907770" lon="-4.0704990">
        <ele>1166.2</ele>
        <time>2019-04-28T06:48:16Z</time>
      </trkpt>
      <trkpt lat="40.8907540" lon="-4.0704840">
        <ele>1166.4</ele>
        <time>2019-04-28T06:48:17Z</time>
      </trkpt>
      <trkpt lat="40.8907320" lon="-4.0704650">
        <ele>1166.6</ele>
        <time>2019-04-28T06:48:18Z</time>
      </trkpt>
      <trkpt lat="40.8907080" lon="-4.0704460">
        <ele>1166.6</ele>
        <time>2019-04-28T06:48:19Z</time>
      </trkpt>
      <trkpt lat="40.8906840" lon="-4.0704290">
        <ele>1166.8</ele>
        <time>2019-04-28T06:48:20Z</time>
      </trkpt>
      <trkpt lat="40.8906600" lon="-4.0704120">
        <ele>1166.8</ele>
        <time>2019-04-28T06:48:21Z</time>
      </trkpt>
      <trkpt lat="40.8906370" lon="-4.0703950">
        <ele>1167.0</ele>
        <time>2019-04-28T06:48:22Z</time>
      </trkpt>
      <trkpt lat="40.8906130" lon="-4.0703780">
        <ele>1167.2</ele>
        <time>2019-04-28T06:48:23Z</time>
      </trkpt>
      <trkpt lat="40.8905890" lon="-4.0703610">
        <ele>1167.4</ele>
        <time>2019-04-28T06:48:24Z</time>
      </trkpt>
      <trkpt lat="40.8905670" lon="-4.0703420">
        <ele>1167.4</ele>
        <time>2019-04-28T06:48:25Z</time>
      </trkpt>
      <trkpt lat="40.8905430" lon="-4.0703220">
        <ele>1167.4</ele>
        <time>2019-04-28T06:48:26Z</time>
      </trkpt>
      <trkpt lat="40.8905190" lon="-4.0703040">
        <ele>1167.6</ele>
        <time>2019-04-28T06:48:27Z</time>
      </trkpt>
      <trkpt lat="40.8904960" lon="-4.0702860">
        <ele>1167.8</ele>
        <time>2019-04-28T06:48:28Z</time>
      </trkpt>
      <trkpt lat="40.8904720" lon="-4.0702660">
        <ele>1167.8</ele>
        <time>2019-04-28T06:48:29Z</time>
      </trkpt>
      <trkpt lat="40.8904480" lon="-4.0702460">
        <ele>1168.0</ele>
        <time>2019-04-28T06:48:30Z</time>
      </trkpt>
      <trkpt lat="40.8904220" lon="-4.0702230">
        <ele>1168.4</ele>
        <time>2019-04-28T06:48:31Z</time>
      </trkpt>
      <trkpt lat="40.8903970" lon="-4.0701980">
        <ele>1168.4</ele>
        <time>2019-04-28T06:48:32Z</time>
      </trkpt>
      <trkpt lat="40.8903720" lon="-4.0701760">
        <ele>1168.6</ele>
        <time>2019-04-28T06:48:33Z</time>
      </trkpt>
      <trkpt lat="40.8903470" lon="-4.0701570">
        <ele>1168.8</ele>
        <time>2019-04-28T06:48:34Z</time>
      </trkpt>
      <trkpt lat="40.8903250" lon="-4.0701380">
        <ele>1169.0</ele>
        <time>2019-04-28T06:48:35Z</time>
      </trkpt>
      <trkpt lat="40.8903020" lon="-4.0701170">
        <ele>1169.2</ele>
        <time>2019-04-28T06:48:36Z</time>
      </trkpt>
      <trkpt lat="40.8902800" lon="-4.0700950">
        <ele>1169.4</ele>
        <time>2019-04-28T06:48:37Z</time>
      </trkpt>
      <trkpt lat="40.8902570" lon="-4.0700720">
        <ele>1169.6</ele>
        <time>2019-04-28T06:48:38Z</time>
      </trkpt>
      <trkpt lat="40.8902350" lon="-4.0700470">
        <ele>1169.6</ele>
        <time>2019-04-28T06:48:39Z</time>
      </trkpt>
      <trkpt lat="40.8902120" lon="-4.0700220">
        <ele>1169.8</ele>
        <time>2019-04-28T06:48:40Z</time>
      </trkpt>
      <trkpt lat="40.8901880" lon="-4.0699980">
        <ele>1169.8</ele>
        <time>2019-04-28T06:48:41Z</time>
      </trkpt>
      <trkpt lat="40.8901660" lon="-4.0699720">
        <ele>1170.0</ele>
        <time>2019-04-28T06:48:42Z</time>
      </trkpt>
      <trkpt lat="40.8901440" lon="-4.0699500">
        <ele>1170.2</ele>
        <time>2019-04-28T06:48:43Z</time>
      </trkpt>
      <trkpt lat="40.8901210" lon="-4.0699270">
        <ele>1170.4</ele>
        <time>2019-04-28T06:48:44Z</time>
      </trkpt>
      <trkpt lat="40.8901000" lon="-4.0699020">
        <ele>1170.6</ele>
        <time>2019-04-28T06:48:45Z</time>
      </trkpt>
      <trkpt lat="40.8900810" lon="-4.0698770">
        <ele>1170.8</ele>
        <time>2019-04-28T06:48:46Z</time>
      </trkpt>
      <trkpt lat="40.8900600" lon="-4.0698520">
        <ele>1171.2</ele>
        <time>2019-04-28T06:48:47Z</time>
      </trkpt>
      <trkpt lat="40.8900400" lon="-4.0698260">
        <ele>1171.4</ele>
        <time>2019-04-28T06:48:48Z</time>
      </trkpt>
      <trkpt lat="40.8900180" lon="-4.0697990">
        <ele>1171.4</ele>
        <time>2019-04-28T06:48:49Z</time>
      </trkpt>
      <trkpt lat="40.8899960" lon="-4.0697740">
        <ele>1171.6</ele>
        <time>2019-04-28T06:48:50Z</time>
      </trkpt>
      <trkpt lat="40.8899740" lon="-4.0697480">
        <ele>1171.8</ele>
        <time>2019-04-28T06:48:51Z</time>
      </trkpt>
      <trkpt lat="40.8899520" lon="-4.0697230">
        <ele>1172.0</ele>
        <time>2019-04-28T06:48:52Z</time>
      </trkpt>
      <trkpt lat="40.8899310" lon="-4.0696950">
        <ele>1172.0</ele>
        <time>2019-04-28T06:48:53Z</time>
      </trkpt>
      <trkpt lat="40.8899110" lon="-4.0696670">
        <ele>1172.2</ele>
        <time>2019-04-28T06:48:54Z</time>
      </trkpt>
      <trkpt lat="40.8898900" lon="-4.0696390">
        <ele>1172.2</ele>
        <time>2019-04-28T06:48:55Z</time>
      </trkpt>
      <trkpt lat="40.8898690" lon="-4.0696110">
        <ele>1172.4</ele>
        <time>2019-04-28T06:48:56Z</time>
      </trkpt>
      <trkpt lat="40.8898480" lon="-4.0695830">
        <ele>1172.6</ele>
        <time>2019-04-28T06:48:57Z</time>
      </trkpt>
      <trkpt lat="40.8898270" lon="-4.0695570">
        <ele>1172.8</ele>
        <time>2019-04-28T06:48:58Z</time>
      </trkpt>
      <trkpt lat="40.8898070" lon="-4.0695280">
        <ele>1172.8</ele>
        <time>2019-04-28T06:48:59Z</time>
      </trkpt>
      <trkpt lat="40.8897870" lon="-4.0695000">
        <ele>1173.0</ele>
        <time>2019-04-28T06:49:00Z</time>
      </trkpt>
      <trkpt lat="40.8897660" lon="-4.0694730">
        <ele>1173.2</ele>
        <time>2019-04-28T06:49:01Z</time>
      </trkpt>
      <trkpt lat="40.8897460" lon="-4.0694470">
        <ele>1173.4</ele>
        <time>2019-04-28T06:49:02Z</time>
      </trkpt>
      <trkpt lat="40.8897250" lon="-4.0694190">
        <ele>1173.6</ele>
        <time>2019-04-28T06:49:03Z</time>
      </trkpt>
      <trkpt lat="40.8897060" lon="-4.0693920">
        <ele>1173.8</ele>
        <time>2019-04-28T06:49:04Z</time>
      </trkpt>
      <trkpt lat="40.8896850" lon="-4.0693650">
        <ele>1174.0</ele>
        <time>2019-04-28T06:49:05Z</time>
      </trkpt>
      <trkpt lat="40.8896640" lon="-4.0693380">
        <ele>1174.0</ele>
        <time>2019-04-28T06:49:06Z</time>
      </trkpt>
      <trkpt lat="40.8896440" lon="-4.0693110">
        <ele>1174.2</ele>
        <time>2019-04-28T06:49:07Z</time>
      </trkpt>
      <trkpt lat="40.8896220" lon="-4.0692830">
        <ele>1174.4</ele>
        <time>2019-04-28T06:49:08Z</time>
      </trkpt>
      <trkpt lat="40.8896010" lon="-4.0692550">
        <ele>1174.6</ele>
        <time>2019-04-28T06:49:09Z</time>
      </trkpt>
      <trkpt lat="40.8895800" lon="-4.0692260">
        <ele>1174.8</ele>
        <time>2019-04-28T06:49:10Z</time>
      </trkpt>
      <trkpt lat="40.8895590" lon="-4.0691990">
        <ele>1175.0</ele>
        <time>2019-04-28T06:49:11Z</time>
      </trkpt>
      <trkpt lat="40.8895390" lon="-4.0691690">
        <ele>1175.0</ele>
        <time>2019-04-28T06:49:12Z</time>
      </trkpt>
      <trkpt lat="40.8895170" lon="-4.0691390">
        <ele>1175.0</ele>
        <time>2019-04-28T06:49:13Z</time>
      </trkpt>
      <trkpt lat="40.8894950" lon="-4.0691120">
        <ele>1175.2</ele>
        <time>2019-04-28T06:49:14Z</time>
      </trkpt>
      <trkpt lat="40.8894750" lon="-4.0690850">
        <ele>1175.6</ele>
        <time>2019-04-28T06:49:15Z</time>
      </trkpt>
      <trkpt lat="40.8894540" lon="-4.0690620">
        <ele>1175.8</ele>
        <time>2019-04-28T06:49:16Z</time>
      </trkpt>
      <trkpt lat="40.8894310" lon="-4.0690390">
        <ele>1176.0</ele>
        <time>2019-04-28T06:49:17Z</time>
      </trkpt>
      <trkpt lat="40.8894090" lon="-4.0690150">
        <ele>1176.4</ele>
        <time>2019-04-28T06:49:18Z</time>
      </trkpt>
      <trkpt lat="40.8893860" lon="-4.0689930">
        <ele>1176.6</ele>
        <time>2019-04-28T06:49:19Z</time>
      </trkpt>
      <trkpt lat="40.8893620" lon="-4.0689710">
        <ele>1176.8</ele>
        <time>2019-04-28T06:49:20Z</time>
      </trkpt>
      <trkpt lat="40.8893380" lon="-4.0689520">
        <ele>1177.0</ele>
        <time>2019-04-28T06:49:21Z</time>
      </trkpt>
      <trkpt lat="40.8893140" lon="-4.0689300">
        <ele>1177.0</ele>
        <time>2019-04-28T06:49:22Z</time>
      </trkpt>
      <trkpt lat="40.8892900" lon="-4.0689060">
        <ele>1177.2</ele>
        <time>2019-04-28T06:49:23Z</time>
      </trkpt>
      <trkpt lat="40.8892660" lon="-4.0688830">
        <ele>1177.4</ele>
        <time>2019-04-28T06:49:24Z</time>
      </trkpt>
      <trkpt lat="40.8892440" lon="-4.0688560">
        <ele>1177.4</ele>
        <time>2019-04-28T06:49:25Z</time>
      </trkpt>
      <trkpt lat="40.8892220" lon="-4.0688310">
        <ele>1177.6</ele>
        <time>2019-04-28T06:49:26Z</time>
      </trkpt>
      <trkpt lat="40.8891970" lon="-4.0688070">
        <ele>1177.6</ele>
        <time>2019-04-28T06:49:27Z</time>
      </trkpt>
      <trkpt lat="40.8891730" lon="-4.0687810">
        <ele>1177.8</ele>
        <time>2019-04-28T06:49:28Z</time>
      </trkpt>
      <trkpt lat="40.8891510" lon="-4.0687560">
        <ele>1178.0</ele>
        <time>2019-04-28T06:49:29Z</time>
      </trkpt>
      <trkpt lat="40.8891290" lon="-4.0687330">
        <ele>1178.2</ele>
        <time>2019-04-28T06:49:30Z</time>
      </trkpt>
      <trkpt lat="40.8891060" lon="-4.0687100">
        <ele>1178.4</ele>
        <time>2019-04-28T06:49:31Z</time>
      </trkpt>
      <trkpt lat="40.8890830" lon="-4.0686870">
        <ele>1178.6</ele>
        <time>2019-04-28T06:49:32Z</time>
      </trkpt>
      <trkpt lat="40.8890600" lon="-4.0686640">
        <ele>1178.8</ele>
        <time>2019-04-28T06:49:33Z</time>
      </trkpt>
      <trkpt lat="40.8890370" lon="-4.0686400">
        <ele>1179.0</ele>
        <time>2019-04-28T06:49:34Z</time>
      </trkpt>
      <trkpt lat="40.8890140" lon="-4.0686170">
        <ele>1179.0</ele>
        <time>2019-04-28T06:49:35Z</time>
      </trkpt>
      <trkpt lat="40.8889890" lon="-4.0685940">
        <ele>1179.2</ele>
        <time>2019-04-28T06:49:36Z</time>
      </trkpt>
      <trkpt lat="40.8889660" lon="-4.0685700">
        <ele>1179.4</ele>
        <time>2019-04-28T06:49:37Z</time>
      </trkpt>
      <trkpt lat="40.8889450" lon="-4.0685440">
        <ele>1179.8</ele>
        <time>2019-04-28T06:49:38Z</time>
      </trkpt>
      <trkpt lat="40.8889290" lon="-4.0685110">
        <ele>1179.8</ele>
        <time>2019-04-28T06:49:39Z</time>
      </trkpt>
      <trkpt lat="40.8889130" lon="-4.0684740">
        <ele>1179.8</ele>
        <time>2019-04-28T06:49:40Z</time>
      </trkpt>
      <trkpt lat="40.8888960" lon="-4.0684390">
        <ele>1180.0</ele>
        <time>2019-04-28T06:49:41Z</time>
      </trkpt>
      <trkpt lat="40.8888810" lon="-4.0684030">
        <ele>1180.2</ele>
        <time>2019-04-28T06:49:42Z</time>
      </trkpt>
      <trkpt lat="40.8888630" lon="-4.0683700">
        <ele>1180.4</ele>
        <time>2019-04-28T06:49:43Z</time>
      </trkpt>
      <trkpt lat="40.8888470" lon="-4.0683360">
        <ele>1180.6</ele>
        <time>2019-04-28T06:49:44Z</time>
      </trkpt>
      <trkpt lat="40.8888250" lon="-4.0683040">
        <ele>1180.8</ele>
        <time>2019-04-28T06:49:45Z</time>
      </trkpt>
      <trkpt lat="40.8888030" lon="-4.0682770">
        <ele>1180.8</ele>
        <time>2019-04-28T06:49:46Z</time>
      </trkpt>
      <trkpt lat="40.8887780" lon="-4.0682480">
        <ele>1181.0</ele>
        <time>2019-04-28T06:49:47Z</time>
      </trkpt>
      <trkpt lat="40.8887510" lon="-4.0682230">
        <ele>1181.2</ele>
        <time>2019-04-28T06:49:48Z</time>
      </trkpt>
      <trkpt lat="40.8887210" lon="-4.0682050">
        <ele>1181.4</ele>
        <time>2019-04-28T06:49:49Z</time>
      </trkpt>
      <trkpt lat="40.8886890" lon="-4.0681910">
        <ele>1181.6</ele>
        <time>2019-04-28T06:49:50Z</time>
      </trkpt>
      <trkpt lat="40.8886560" lon="-4.0681820">
        <ele>1181.6</ele>
        <time>2019-04-28T06:49:51Z</time>
      </trkpt>
      <trkpt lat="40.8886220" lon="-4.0681710">
        <ele>1181.8</ele>
        <time>2019-04-28T06:49:52Z</time>
      </trkpt>
      <trkpt lat="40.8885900" lon="-4.0681560">
        <ele>1182.0</ele>
        <time>2019-04-28T06:49:53Z</time>
      </trkpt>
      <trkpt lat="40.8885560" lon="-4.0681410">
        <ele>1182.2</ele>
        <time>2019-04-28T06:49:54Z</time>
      </trkpt>
      <trkpt lat="40.8885230" lon="-4.0681280">
        <ele>1182.2</ele>
        <time>2019-04-28T06:49:55Z</time>
      </trkpt>
      <trkpt lat="40.8884900" lon="-4.0681140">
        <ele>1182.6</ele>
        <time>2019-04-28T06:49:56Z</time>
      </trkpt>
      <trkpt lat="40.8884580" lon="-4.0680960">
        <ele>1182.6</ele>
        <time>2019-04-28T06:49:57Z</time>
      </trkpt>
      <trkpt lat="40.8884260" lon="-4.0680730">
        <ele>1182.8</ele>
        <time>2019-04-28T06:49:58Z</time>
      </trkpt>
      <trkpt lat="40.8883960" lon="-4.0680490">
        <ele>1183.0</ele>
        <time>2019-04-28T06:49:59Z</time>
      </trkpt>
      <trkpt lat="40.8883650" lon="-4.0680230">
        <ele>1183.2</ele>
        <time>2019-04-28T06:50:00Z</time>
      </trkpt>
      <trkpt lat="40.8883400" lon="-4.0679910">
        <ele>1183.2</ele>
        <time>2019-04-28T06:50:01Z</time>
      </trkpt>
      <trkpt lat="40.8883210" lon="-4.0679500">
        <ele>1183.4</ele>
        <time>2019-04-28T06:50:02Z</time>
      </trkpt>
      <trkpt lat="40.8883030" lon="-4.0679030">
        <ele>1183.4</ele>
        <time>2019-04-28T06:50:03Z</time>
      </trkpt>
      <trkpt lat="40.8882860" lon="-4.0678610">
        <ele>1183.4</ele>
        <time>2019-04-28T06:50:04Z</time>
      </trkpt>
      <trkpt lat="40.8882720" lon="-4.0678130">
        <ele>1183.6</ele>
        <time>2019-04-28T06:50:05Z</time>
      </trkpt>
      <trkpt lat="40.8882610" lon="-4.0677630">
        <ele>1183.6</ele>
        <time>2019-04-28T06:50:06Z</time>
      </trkpt>
      <trkpt lat="40.8882480" lon="-4.0677140">
        <ele>1183.6</ele>
        <time>2019-04-28T06:50:07Z</time>
      </trkpt>
      <trkpt lat="40.8882330" lon="-4.0676650">
        <ele>1183.8</ele>
        <time>2019-04-28T06:50:08Z</time>
      </trkpt>
      <trkpt lat="40.8882180" lon="-4.0676160">
        <ele>1183.8</ele>
        <time>2019-04-28T06:50:09Z</time>
      </trkpt>
      <trkpt lat="40.8882010" lon="-4.0675660">
        <ele>1183.8</ele>
        <time>2019-04-28T06:50:10Z</time>
      </trkpt>
      <trkpt lat="40.8881820" lon="-4.0675190">
        <ele>1183.8</ele>
        <time>2019-04-28T06:50:11Z</time>
      </trkpt>
      <trkpt lat="40.8881630" lon="-4.0674740">
        <ele>1184.6</ele>
        <time>2019-04-28T06:50:12Z</time>
      </trkpt>
      <trkpt lat="40.8881210" lon="-4.0673830">
        <ele>1184.2</ele>
        <time>2019-04-28T06:50:14Z</time>
      </trkpt>
      <trkpt lat="40.8881010" lon="-4.0673350">
        <ele>1183.8</ele>
        <time>2019-04-28T06:50:15Z</time>
      </trkpt>
      <trkpt lat="40.8880830" lon="-4.0672870">
        <ele>1183.8</ele>
        <time>2019-04-28T06:50:16Z</time>
      </trkpt>
      <trkpt lat="40.8880550" lon="-4.0671900">
        <ele>1184.2</ele>
        <time>2019-04-28T06:50:18Z</time>
      </trkpt>
      <trkpt lat="40.8880400" lon="-4.0671450">
        <ele>1184.2</ele>
        <time>2019-04-28T06:50:19Z</time>
      </trkpt>
      <trkpt lat="40.8880220" lon="-4.0671040">
        <ele>1184.2</ele>
        <time>2019-04-28T06:50:20Z</time>
      </trkpt>
      <trkpt lat="40.8879780" lon="-4.0670280">
        <ele>1184.2</ele>
        <time>2019-04-28T06:50:22Z</time>
      </trkpt>
      <trkpt lat="40.8879560" lon="-4.0669920">
        <ele>1184.8</ele>
        <time>2019-04-28T06:50:23Z</time>
      </trkpt>
      <trkpt lat="40.8879330" lon="-4.0669560">
        <ele>1184.4</ele>
        <time>2019-04-28T06:50:24Z</time>
      </trkpt>
      <trkpt lat="40.8879110" lon="-4.0669180">
        <ele>1185.2</ele>
        <time>2019-04-28T06:50:25Z</time>
      </trkpt>
      <trkpt lat="40.8878880" lon="-4.0668810">
        <ele>1184.8</ele>
        <time>2019-04-28T06:50:26Z</time>
      </trkpt>
      <trkpt lat="40.8878430" lon="-4.0668040">
        <ele>1185.2</ele>
        <time>2019-04-28T06:50:28Z</time>
      </trkpt>
      <trkpt lat="40.8878210" lon="-4.0667650">
        <ele>1185.4</ele>
        <time>2019-04-28T06:50:29Z</time>
      </trkpt>
      <trkpt lat="40.8878000" lon="-4.0667270">
        <ele>1185.4</ele>
        <time>2019-04-28T06:50:30Z</time>
      </trkpt>
      <trkpt lat="40.8877560" lon="-4.0666550">
        <ele>1185.8</ele>
        <time>2019-04-28T06:50:32Z</time>
      </trkpt>
      <trkpt lat="40.8877350" lon="-4.0666210">
        <ele>1185.8</ele>
        <time>2019-04-28T06:50:33Z</time>
      </trkpt>
      <trkpt lat="40.8877110" lon="-4.0665890">
        <ele>1186.0</ele>
        <time>2019-04-28T06:50:34Z</time>
      </trkpt>
      <trkpt lat="40.8876590" lon="-4.0665290">
        <ele>1186.0</ele>
        <time>2019-04-28T06:50:36Z</time>
      </trkpt>
      <trkpt lat="40.8876370" lon="-4.0664990">
        <ele>1186.2</ele>
        <time>2019-04-28T06:50:37Z</time>
      </trkpt>
      <trkpt lat="40.8876140" lon="-4.0664700">
        <ele>1186.2</ele>
        <time>2019-04-28T06:50:38Z</time>
      </trkpt>
      <trkpt lat="40.8875930" lon="-4.0664370">
        <ele>1186.4</ele>
        <time>2019-04-28T06:50:39Z</time>
      </trkpt>
      <trkpt lat="40.8875730" lon="-4.0663990">
        <ele>1186.6</ele>
        <time>2019-04-28T06:50:40Z</time>
      </trkpt>
      <trkpt lat="40.8875350" lon="-4.0663250">
        <ele>1186.8</ele>
        <time>2019-04-28T06:50:42Z</time>
      </trkpt>
      <trkpt lat="40.8875000" lon="-4.0662470">
        <ele>1187.2</ele>
        <time>2019-04-28T06:50:44Z</time>
      </trkpt>
      <trkpt lat="40.8874590" lon="-4.0661710">
        <ele>1187.6</ele>
        <time>2019-04-28T06:50:46Z</time>
      </trkpt>
      <trkpt lat="40.8874400" lon="-4.0661330">
        <ele>1187.6</ele>
        <time>2019-04-28T06:50:47Z</time>
      </trkpt>
      <trkpt lat="40.8874240" lon="-4.0660960">
        <ele>1187.8</ele>
        <time>2019-04-28T06:50:48Z</time>
      </trkpt>
      <trkpt lat="40.8873880" lon="-4.0660280">
        <ele>1188.2</ele>
        <time>2019-04-28T06:50:50Z</time>
      </trkpt>
      <trkpt lat="40.8873680" lon="-4.0659950">
        <ele>1188.2</ele>
        <time>2019-04-28T06:50:51Z</time>
      </trkpt>
      <trkpt lat="40.8873460" lon="-4.0659660">
        <ele>1188.2</ele>
        <time>2019-04-28T06:50:52Z</time>
      </trkpt>
      <trkpt lat="40.8873090" lon="-4.0659100">
        <ele>1188.8</ele>
        <time>2019-04-28T06:50:54Z</time>
      </trkpt>
      <trkpt lat="40.8872930" lon="-4.0658790">
        <ele>1189.0</ele>
        <time>2019-04-28T06:50:55Z</time>
      </trkpt>
      <trkpt lat="40.8872770" lon="-4.0658500">
        <ele>1189.0</ele>
        <time>2019-04-28T06:50:56Z</time>
      </trkpt>
      <trkpt lat="40.8872380" lon="-4.0657980">
        <ele>1189.2</ele>
        <time>2019-04-28T06:50:58Z</time>
      </trkpt>
      <trkpt lat="40.8871950" lon="-4.0657470">
        <ele>1189.4</ele>
        <time>2019-04-28T06:51:00Z</time>
      </trkpt>
      <trkpt lat="40.8871740" lon="-4.0657210">
        <ele>1189.6</ele>
        <time>2019-04-28T06:51:01Z</time>
      </trkpt>
      <trkpt lat="40.8871540" lon="-4.0656950">
        <ele>1189.8</ele>
        <time>2019-04-28T06:51:02Z</time>
      </trkpt>
      <trkpt lat="40.8871120" lon="-4.0656370">
        <ele>1190.0</ele>
        <time>2019-04-28T06:51:04Z</time>
      </trkpt>
      <trkpt lat="40.8870740" lon="-4.0655740">
        <ele>1190.4</ele>
        <time>2019-04-28T06:51:06Z</time>
      </trkpt>
      <trkpt lat="40.8870310" lon="-4.0655140">
        <ele>1190.6</ele>
        <time>2019-04-28T06:51:08Z</time>
      </trkpt>
      <trkpt lat="40.8870080" lon="-4.0654880">
        <ele>1190.6</ele>
        <time>2019-04-28T06:51:09Z</time>
      </trkpt>
      <trkpt lat="40.8869830" lon="-4.0654670">
        <ele>1190.8</ele>
        <time>2019-04-28T06:51:10Z</time>
      </trkpt>
      <trkpt lat="40.8869360" lon="-4.0654280">
        <ele>1191.0</ele>
        <time>2019-04-28T06:51:12Z</time>
      </trkpt>
      <trkpt lat="40.8868880" lon="-4.0653870">
        <ele>1191.2</ele>
        <time>2019-04-28T06:51:14Z</time>
      </trkpt>
      <trkpt lat="40.8868630" lon="-4.0653660">
        <ele>1191.2</ele>
        <time>2019-04-28T06:51:15Z</time>
      </trkpt>
      <trkpt lat="40.8868380" lon="-4.0653450">
        <ele>1191.4</ele>
        <time>2019-04-28T06:51:16Z</time>
      </trkpt>
      <trkpt lat="40.8867980" lon="-4.0652920">
        <ele>1191.6</ele>
        <time>2019-04-28T06:51:18Z</time>
      </trkpt>
      <trkpt lat="40.8867870" lon="-4.0652580">
        <ele>1191.8</ele>
        <time>2019-04-28T06:51:19Z</time>
      </trkpt>
      <trkpt lat="40.8867730" lon="-4.0652250">
        <ele>1192.0</ele>
        <time>2019-04-28T06:51:20Z</time>
      </trkpt>
      <trkpt lat="40.8867360" lon="-4.0651650">
        <ele>1192.4</ele>
        <time>2019-04-28T06:51:22Z</time>
      </trkpt>
      <trkpt lat="40.8867170" lon="-4.0651380">
        <ele>1192.6</ele>
        <time>2019-04-28T06:51:23Z</time>
      </trkpt>
      <trkpt lat="40.8866990" lon="-4.0651090">
        <ele>1192.6</ele>
        <time>2019-04-28T06:51:24Z</time>
      </trkpt>
      <trkpt lat="40.8866650" lon="-4.0650490">
        <ele>1193.0</ele>
        <time>2019-04-28T06:51:26Z</time>
      </trkpt>
      <trkpt lat="40.8866490" lon="-4.0650160">
        <ele>1193.2</ele>
        <time>2019-04-28T06:51:27Z</time>
      </trkpt>
      <trkpt lat="40.8866330" lon="-4.0649840">
        <ele>1193.4</ele>
        <time>2019-04-28T06:51:28Z</time>
      </trkpt>
      <trkpt lat="40.8866150" lon="-4.0649520">
        <ele>1193.8</ele>
        <time>2019-04-28T06:51:29Z</time>
      </trkpt>
      <trkpt lat="40.8865970" lon="-4.0649190">
        <ele>1194.0</ele>
        <time>2019-04-28T06:51:30Z</time>
      </trkpt>
      <trkpt lat="40.8865820" lon="-4.0648810">
        <ele>1194.0</ele>
        <time>2019-04-28T06:51:31Z</time>
      </trkpt>
      <trkpt lat="40.8865550" lon="-4.0648060">
        <ele>1194.4</ele>
        <time>2019-04-28T06:51:33Z</time>
      </trkpt>
      <trkpt lat="40.8865170" lon="-4.0647390">
        <ele>1194.8</ele>
        <time>2019-04-28T06:51:35Z</time>
      </trkpt>
      <trkpt lat="40.8864790" lon="-4.0646820">
        <ele>1195.0</ele>
        <time>2019-04-28T06:51:37Z</time>
      </trkpt>
      <trkpt lat="40.8864580" lon="-4.0646540">
        <ele>1195.2</ele>
        <time>2019-04-28T06:51:38Z</time>
      </trkpt>
      <trkpt lat="40.8864400" lon="-4.0646240">
        <ele>1195.4</ele>
        <time>2019-04-28T06:51:39Z</time>
      </trkpt>
      <trkpt lat="40.8864220" lon="-4.0645940">
        <ele>1195.4</ele>
        <time>2019-04-28T06:51:40Z</time>
      </trkpt>
      <trkpt lat="40.8863790" lon="-4.0645370">
        <ele>1195.6</ele>
        <time>2019-04-28T06:51:42Z</time>
      </trkpt>
      <trkpt lat="40.8863610" lon="-4.0645060">
        <ele>1195.6</ele>
        <time>2019-04-28T06:51:43Z</time>
      </trkpt>
      <trkpt lat="40.8863430" lon="-4.0644740">
        <ele>1195.6</ele>
        <time>2019-04-28T06:51:44Z</time>
      </trkpt>
      <trkpt lat="40.8863060" lon="-4.0644150">
        <ele>1195.8</ele>
        <time>2019-04-28T06:51:46Z</time>
      </trkpt>
      <trkpt lat="40.8862740" lon="-4.0643530">
        <ele>1196.2</ele>
        <time>2019-04-28T06:51:48Z</time>
      </trkpt>
      <trkpt lat="40.8862560" lon="-4.0643250">
        <ele>1196.2</ele>
        <time>2019-04-28T06:51:49Z</time>
      </trkpt>
      <trkpt lat="40.8862400" lon="-4.0642940">
        <ele>1196.4</ele>
        <time>2019-04-28T06:51:50Z</time>
      </trkpt>
      <trkpt lat="40.8862270" lon="-4.0642600">
        <ele>1196.6</ele>
        <time>2019-04-28T06:51:51Z</time>
      </trkpt>
      <trkpt lat="40.8862140" lon="-4.0642260">
        <ele>1196.6</ele>
        <time>2019-04-28T06:51:52Z</time>
      </trkpt>
      <trkpt lat="40.8861910" lon="-4.0641540">
        <ele>1197.0</ele>
        <time>2019-04-28T06:51:54Z</time>
      </trkpt>
      <trkpt lat="40.8861840" lon="-4.0641160">
        <ele>1197.2</ele>
        <time>2019-04-28T06:51:55Z</time>
      </trkpt>
      <trkpt lat="40.8861780" lon="-4.0640780">
        <ele>1197.4</ele>
        <time>2019-04-28T06:51:56Z</time>
      </trkpt>
      <trkpt lat="40.8861650" lon="-4.0639990">
        <ele>1197.8</ele>
        <time>2019-04-28T06:51:58Z</time>
      </trkpt>
      <trkpt lat="40.8861580" lon="-4.0639620">
        <ele>1197.8</ele>
        <time>2019-04-28T06:51:59Z</time>
      </trkpt>
      <trkpt lat="40.8861510" lon="-4.0639250">
        <ele>1198.0</ele>
        <time>2019-04-28T06:52:00Z</time>
      </trkpt>
      <trkpt lat="40.8861320" lon="-4.0638530">
        <ele>1198.4</ele>
        <time>2019-04-28T06:52:02Z</time>
      </trkpt>
      <trkpt lat="40.8861120" lon="-4.0637800">
        <ele>1198.6</ele>
        <time>2019-04-28T06:52:04Z</time>
      </trkpt>
      <trkpt lat="40.8861020" lon="-4.0637440">
        <ele>1198.8</ele>
        <time>2019-04-28T06:52:05Z</time>
      </trkpt>
      <trkpt lat="40.8860910" lon="-4.0637080">
        <ele>1199.0</ele>
        <time>2019-04-28T06:52:06Z</time>
      </trkpt>
      <trkpt lat="40.8860690" lon="-4.0636380">
        <ele>1199.4</ele>
        <time>2019-04-28T06:52:08Z</time>
      </trkpt>
      <trkpt lat="40.8860550" lon="-4.0636040">
        <ele>1199.6</ele>
        <time>2019-04-28T06:52:09Z</time>
      </trkpt>
      <trkpt lat="40.8860410" lon="-4.0635710">
        <ele>1199.6</ele>
        <time>2019-04-28T06:52:10Z</time>
      </trkpt>
      <trkpt lat="40.8860080" lon="-4.0635090">
        <ele>1200.0</ele>
        <time>2019-04-28T06:52:12Z</time>
      </trkpt>
      <trkpt lat="40.8859890" lon="-4.0634800">
        <ele>1200.2</ele>
        <time>2019-04-28T06:52:13Z</time>
      </trkpt>
      <trkpt lat="40.8859690" lon="-4.0634500">
        <ele>1200.2</ele>
        <time>2019-04-28T06:52:14Z</time>
      </trkpt>
      <trkpt lat="40.8859280" lon="-4.0633920">
        <ele>1200.4</ele>
        <time>2019-04-28T06:52:16Z</time>
      </trkpt>
      <trkpt lat="40.8859070" lon="-4.0633600">
        <ele>1200.4</ele>
        <time>2019-04-28T06:52:17Z</time>
      </trkpt>
      <trkpt lat="40.8858630" lon="-4.0632980">
        <ele>1200.8</ele>
        <time>2019-04-28T06:52:19Z</time>
      </trkpt>
      <trkpt lat="40.8858220" lon="-4.0632370">
        <ele>1201.0</ele>
        <time>2019-04-28T06:52:21Z</time>
      </trkpt>
      <trkpt lat="40.8857780" lon="-4.0631800">
        <ele>1201.2</ele>
        <time>2019-04-28T06:52:23Z</time>
      </trkpt>
      <trkpt lat="40.8857340" lon="-4.0631230">
        <ele>1201.6</ele>
        <time>2019-04-28T06:52:25Z</time>
      </trkpt>
      <trkpt lat="40.8857120" lon="-4.0630940">
        <ele>1201.6</ele>
        <time>2019-04-28T06:52:26Z</time>
      </trkpt>
      <trkpt lat="40.8856890" lon="-4.0630660">
        <ele>1201.6</ele>
        <time>2019-04-28T06:52:27Z</time>
      </trkpt>
      <trkpt lat="40.8856640" lon="-4.0630360">
        <ele>1201.8</ele>
        <time>2019-04-28T06:52:28Z</time>
      </trkpt>
      <trkpt lat="40.8856140" lon="-4.0629780">
        <ele>1201.8</ele>
        <time>2019-04-28T06:52:30Z</time>
      </trkpt>
      <trkpt lat="40.8855880" lon="-4.0629500">
        <ele>1202.0</ele>
        <time>2019-04-28T06:52:31Z</time>
      </trkpt>
      <trkpt lat="40.8855630" lon="-4.0629210">
        <ele>1202.0</ele>
        <time>2019-04-28T06:52:32Z</time>
      </trkpt>
      <trkpt lat="40.8855110" lon="-4.0628670">
        <ele>1202.2</ele>
        <time>2019-04-28T06:52:34Z</time>
      </trkpt>
      <trkpt lat="40.8854610" lon="-4.0628160">
        <ele>1202.4</ele>
        <time>2019-04-28T06:52:36Z</time>
      </trkpt>
      <trkpt lat="40.8854140" lon="-4.0627630">
        <ele>1202.6</ele>
        <time>2019-04-28T06:52:38Z</time>
      </trkpt>
      <trkpt lat="40.8853620" lon="-4.0627110">
        <ele>1202.8</ele>
        <time>2019-04-28T06:52:40Z</time>
      </trkpt>
      <trkpt lat="40.8853380" lon="-4.0626840">
        <ele>1203.2</ele>
        <time>2019-04-28T06:52:41Z</time>
      </trkpt>
      <trkpt lat="40.8853150" lon="-4.0626540">
        <ele>1203.2</ele>
        <time>2019-04-28T06:52:42Z</time>
      </trkpt>
      <trkpt lat="40.8852700" lon="-4.0625910">
        <ele>1203.4</ele>
        <time>2019-04-28T06:52:44Z</time>
      </trkpt>
      <trkpt lat="40.8852480" lon="-4.0625590">
        <ele>1203.8</ele>
        <time>2019-04-28T06:52:45Z</time>
      </trkpt>
      <trkpt lat="40.8852270" lon="-4.0625280">
        <ele>1204.0</ele>
        <time>2019-04-28T06:52:46Z</time>
      </trkpt>
      <trkpt lat="40.8851810" lon="-4.0624680">
        <ele>1204.2</ele>
        <time>2019-04-28T06:52:48Z</time>
      </trkpt>
      <trkpt lat="40.8851360" lon="-4.0624090">
        <ele>1204.6</ele>
        <time>2019-04-28T06:52:50Z</time>
      </trkpt>
      <trkpt lat="40.8850890" lon="-4.0623510">
        <ele>1205.0</ele>
        <time>2019-04-28T06:52:52Z</time>
      </trkpt>
      <trkpt lat="40.8850470" lon="-4.0622930">
        <ele>1205.4</ele>
        <time>2019-04-28T06:52:54Z</time>
      </trkpt>
      <trkpt lat="40.8850300" lon="-4.0622660">
        <ele>1205.6</ele>
        <time>2019-04-28T06:52:55Z</time>
      </trkpt>
      <trkpt lat="40.8849980" lon="-4.0622170">
        <ele>1206.0</ele>
        <time>2019-04-28T06:52:57Z</time>
      </trkpt>
      <trkpt lat="40.8849770" lon="-4.0621830">
        <ele>1206.2</ele>
        <time>2019-04-28T06:52:59Z</time>
      </trkpt>
      <trkpt lat="40.8849670" lon="-4.0621680">
        <ele>1206.2</ele>
        <time>2019-04-28T06:53:01Z</time>
      </trkpt>
      <trkpt lat="40.8849670" lon="-4.0621680">
        <ele>1206.4</ele>
        <time>2019-04-28T06:53:02Z</time>
      </trkpt>
      <trkpt lat="40.8849630" lon="-4.0621650">
        <ele>1206.4</ele>
        <time>2019-04-28T06:53:03Z</time>
      </trkpt>
      <trkpt lat="40.8849610" lon="-4.0621630">
        <ele>1206.4</ele>
        <time>2019-04-28T06:53:05Z</time>
      </trkpt>
      <trkpt lat="40.8849610" lon="-4.0621650">
        <ele>1206.8</ele>
        <time>2019-04-28T06:53:06Z</time>
      </trkpt>
      <trkpt lat="40.8849590" lon="-4.0621700">
        <ele>1206.8</ele>
        <time>2019-04-28T06:53:07Z</time>
      </trkpt>
      <trkpt lat="40.8849570" lon="-4.0621710">
        <ele>1206.8</ele>
        <time>2019-04-28T06:53:08Z</time>
      </trkpt>
      <trkpt lat="40.8849530" lon="-4.0621700">
        <ele>1206.8</ele>
        <time>2019-04-28T06:53:09Z</time>
      </trkpt>
      <trkpt lat="40.8848840" lon="-4.0618980">
        <ele>1208.6</ele>
        <time>2019-04-28T06:53:35Z</time>
      </trkpt>
      <trkpt lat="40.8848710" lon="-4.0618650">
        <ele>1209.0</ele>
        <time>2019-04-28T06:53:36Z</time>
      </trkpt>
      <trkpt lat="40.8848550" lon="-4.0618330">
        <ele>1209.2</ele>
        <time>2019-04-28T06:53:37Z</time>
      </trkpt>
      <trkpt lat="40.8848370" lon="-4.0618050">
        <ele>1209.4</ele>
        <time>2019-04-28T06:53:38Z</time>
      </trkpt>
      <trkpt lat="40.8848180" lon="-4.0617780">
        <ele>1209.8</ele>
        <time>2019-04-28T06:53:39Z</time>
      </trkpt>
      <trkpt lat="40.8847990" lon="-4.0617520">
        <ele>1210.2</ele>
        <time>2019-04-28T06:53:40Z</time>
      </trkpt>
      <trkpt lat="40.8847790" lon="-4.0617260">
        <ele>1210.6</ele>
        <time>2019-04-28T06:53:41Z</time>
      </trkpt>
      <trkpt lat="40.8847590" lon="-4.0616980">
        <ele>1211.0</ele>
        <time>2019-04-28T06:53:42Z</time>
      </trkpt>
      <trkpt lat="40.8847390" lon="-4.0616700">
        <ele>1211.2</ele>
        <time>2019-04-28T06:53:43Z</time>
      </trkpt>
      <trkpt lat="40.8847170" lon="-4.0616440">
        <ele>1211.4</ele>
        <time>2019-04-28T06:53:44Z</time>
      </trkpt>
      <trkpt lat="40.8846980" lon="-4.0616190">
        <ele>1211.8</ele>
        <time>2019-04-28T06:53:45Z</time>
      </trkpt>
      <trkpt lat="40.8846780" lon="-4.0615950">
        <ele>1212.0</ele>
        <time>2019-04-28T06:53:46Z</time>
      </trkpt>
      <trkpt lat="40.8846580" lon="-4.0615740">
        <ele>1212.2</ele>
        <time>2019-04-28T06:53:47Z</time>
      </trkpt>
      <trkpt lat="40.8846370" lon="-4.0615540">
        <ele>1212.6</ele>
        <time>2019-04-28T06:53:48Z</time>
      </trkpt>
      <trkpt lat="40.8846180" lon="-4.0615300">
        <ele>1212.6</ele>
        <time>2019-04-28T06:53:49Z</time>
      </trkpt>
      <trkpt lat="40.8845990" lon="-4.0615070">
        <ele>1213.0</ele>
        <time>2019-04-28T06:53:50Z</time>
      </trkpt>
      <trkpt lat="40.8845800" lon="-4.0614820">
        <ele>1213.2</ele>
        <time>2019-04-28T06:53:51Z</time>
      </trkpt>
      <trkpt lat="40.8845610" lon="-4.0614570">
        <ele>1213.4</ele>
        <time>2019-04-28T06:53:52Z</time>
      </trkpt>
      <trkpt lat="40.8845440" lon="-4.0614300">
        <ele>1213.6</ele>
        <time>2019-04-28T06:53:53Z</time>
      </trkpt>
      <trkpt lat="40.8845260" lon="-4.0614040">
        <ele>1213.8</ele>
        <time>2019-04-28T06:53:54Z</time>
      </trkpt>
      <trkpt lat="40.8845100" lon="-4.0613770">
        <ele>1214.0</ele>
        <time>2019-04-28T06:53:55Z</time>
      </trkpt>
      <trkpt lat="40.8844930" lon="-4.0613570">
        <ele>1214.0</ele>
        <time>2019-04-28T06:53:56Z</time>
      </trkpt>
      <trkpt lat="40.8844770" lon="-4.0613360">
        <ele>1214.2</ele>
        <time>2019-04-28T06:53:57Z</time>
      </trkpt>
      <trkpt lat="40.8844630" lon="-4.0613130">
        <ele>1214.4</ele>
        <time>2019-04-28T06:53:58Z</time>
      </trkpt>
      <trkpt lat="40.8844480" lon="-4.0612890">
        <ele>1214.4</ele>
        <time>2019-04-28T06:53:59Z</time>
      </trkpt>
      <trkpt lat="40.8844320" lon="-4.0612670">
        <ele>1214.6</ele>
        <time>2019-04-28T06:54:00Z</time>
      </trkpt>
      <trkpt lat="40.8844170" lon="-4.0612440">
        <ele>1214.6</ele>
        <time>2019-04-28T06:54:01Z</time>
      </trkpt>
      <trkpt lat="40.8844060" lon="-4.0612180">
        <ele>1214.8</ele>
        <time>2019-04-28T06:54:02Z</time>
      </trkpt>
      <trkpt lat="40.8843960" lon="-4.0611950">
        <ele>1215.0</ele>
        <time>2019-04-28T06:54:03Z</time>
      </trkpt>
      <trkpt lat="40.8843860" lon="-4.0611710">
        <ele>1215.0</ele>
        <time>2019-04-28T06:54:04Z</time>
      </trkpt>
      <trkpt lat="40.8843760" lon="-4.0611470">
        <ele>1215.2</ele>
        <time>2019-04-28T06:54:05Z</time>
      </trkpt>
      <trkpt lat="40.8843670" lon="-4.0611220">
        <ele>1215.4</ele>
        <time>2019-04-28T06:54:06Z</time>
      </trkpt>
      <trkpt lat="40.8843570" lon="-4.0610980">
        <ele>1215.6</ele>
        <time>2019-04-28T06:54:07Z</time>
      </trkpt>
      <trkpt lat="40.8843470" lon="-4.0610730">
        <ele>1215.8</ele>
        <time>2019-04-28T06:54:08Z</time>
      </trkpt>
      <trkpt lat="40.8843370" lon="-4.0610480">
        <ele>1215.8</ele>
        <time>2019-04-28T06:54:09Z</time>
      </trkpt>
      <trkpt lat="40.8843300" lon="-4.0610210">
        <ele>1216.0</ele>
        <time>2019-04-28T06:54:10Z</time>
      </trkpt>
      <trkpt lat="40.8843230" lon="-4.0609910">
        <ele>1216.0</ele>
        <time>2019-04-28T06:54:11Z</time>
      </trkpt>
      <trkpt lat="40.8843200" lon="-4.0609570">
        <ele>1216.2</ele>
        <time>2019-04-28T06:54:12Z</time>
      </trkpt>
      <trkpt lat="40.8843190" lon="-4.0609250">
        <ele>1216.4</ele>
        <time>2019-04-28T06:54:13Z</time>
      </trkpt>
      <trkpt lat="40.8843210" lon="-4.0608950">
        <ele>1216.8</ele>
        <time>2019-04-28T06:54:14Z</time>
      </trkpt>
      <trkpt lat="40.8843210" lon="-4.0608660">
        <ele>1217.2</ele>
        <time>2019-04-28T06:54:15Z</time>
      </trkpt>
      <trkpt lat="40.8843210" lon="-4.0608350">
        <ele>1217.6</ele>
        <time>2019-04-28T06:54:16Z</time>
      </trkpt>
      <trkpt lat="40.8843230" lon="-4.0608060">
        <ele>1218.0</ele>
        <time>2019-04-28T06:54:17Z</time>
      </trkpt>
      <trkpt lat="40.8843270" lon="-4.0607790">
        <ele>1218.6</ele>
        <time>2019-04-28T06:54:18Z</time>
      </trkpt>
      <trkpt lat="40.8843250" lon="-4.0607510">
        <ele>1218.8</ele>
        <time>2019-04-28T06:54:19Z</time>
      </trkpt>
      <trkpt lat="40.8843230" lon="-4.0607220">
        <ele>1219.0</ele>
        <time>2019-04-28T06:54:20Z</time>
      </trkpt>
      <trkpt lat="40.8843210" lon="-4.0606940">
        <ele>1219.2</ele>
        <time>2019-04-28T06:54:21Z</time>
      </trkpt>
      <trkpt lat="40.8843220" lon="-4.0606650">
        <ele>1219.6</ele>
        <time>2019-04-28T06:54:22Z</time>
      </trkpt>
      <trkpt lat="40.8843210" lon="-4.0606360">
        <ele>1219.8</ele>
        <time>2019-04-28T06:54:23Z</time>
      </trkpt>
      <trkpt lat="40.8843210" lon="-4.0606090">
        <ele>1220.2</ele>
        <time>2019-04-28T06:54:24Z</time>
      </trkpt>
      <trkpt lat="40.8843200" lon="-4.0605820">
        <ele>1220.4</ele>
        <time>2019-04-28T06:54:25Z</time>
      </trkpt>
      <trkpt lat="40.8843170" lon="-4.0605530">
        <ele>1220.8</ele>
        <time>2019-04-28T06:54:26Z</time>
      </trkpt>
      <trkpt lat="40.8843140" lon="-4.0605250">
        <ele>1221.2</ele>
        <time>2019-04-28T06:54:27Z</time>
      </trkpt>
      <trkpt lat="40.8843160" lon="-4.0604970">
        <ele>1221.6</ele>
        <time>2019-04-28T06:54:28Z</time>
      </trkpt>
      <trkpt lat="40.8843180" lon="-4.0604690">
        <ele>1222.0</ele>
        <time>2019-04-28T06:54:29Z</time>
      </trkpt>
      <trkpt lat="40.8843120" lon="-4.0604430">
        <ele>1222.2</ele>
        <time>2019-04-28T06:54:30Z</time>
      </trkpt>
      <trkpt lat="40.8843060" lon="-4.0604180">
        <ele>1222.6</ele>
        <time>2019-04-28T06:54:31Z</time>
      </trkpt>
      <trkpt lat="40.8842980" lon="-4.0603950">
        <ele>1223.0</ele>
        <time>2019-04-28T06:54:32Z</time>
      </trkpt>
      <trkpt lat="40.8842910" lon="-4.0603700">
        <ele>1223.2</ele>
        <time>2019-04-28T06:54:33Z</time>
      </trkpt>
      <trkpt lat="40.8842770" lon="-4.0603500">
        <ele>1223.6</ele>
        <time>2019-04-28T06:54:34Z</time>
      </trkpt>
      <trkpt lat="40.8842620" lon="-4.0603310">
        <ele>1224.0</ele>
        <time>2019-04-28T06:54:35Z</time>
      </trkpt>
      <trkpt lat="40.8842530" lon="-4.0603070">
        <ele>1224.4</ele>
        <time>2019-04-28T06:54:36Z</time>
      </trkpt>
      <trkpt lat="40.8842440" lon="-4.0602840">
        <ele>1224.8</ele>
        <time>2019-04-28T06:54:37Z</time>
      </trkpt>
      <trkpt lat="40.8842330" lon="-4.0602620">
        <ele>1225.2</ele>
        <time>2019-04-28T06:54:38Z</time>
      </trkpt>
      <trkpt lat="40.8842210" lon="-4.0602400">
        <ele>1225.6</ele>
        <time>2019-04-28T06:54:39Z</time>
      </trkpt>
      <trkpt lat="40.8842110" lon="-4.0602160">
        <ele>1226.0</ele>
        <time>2019-04-28T06:54:40Z</time>
      </trkpt>
      <trkpt lat="40.8842000" lon="-4.0601940">
        <ele>1226.4</ele>
        <time>2019-04-28T06:54:41Z</time>
      </trkpt>
      <trkpt lat="40.8841880" lon="-4.0601730">
        <ele>1226.8</ele>
        <time>2019-04-28T06:54:42Z</time>
      </trkpt>
      <trkpt lat="40.8841780" lon="-4.0601490">
        <ele>1227.2</ele>
        <time>2019-04-28T06:54:43Z</time>
      </trkpt>
      <trkpt lat="40.8841680" lon="-4.0601220">
        <ele>1227.6</ele>
        <time>2019-04-28T06:54:44Z</time>
      </trkpt>
      <trkpt lat="40.8841580" lon="-4.0600960">
        <ele>1228.0</ele>
        <time>2019-04-28T06:54:45Z</time>
      </trkpt>
      <trkpt lat="40.8841450" lon="-4.0600750">
        <ele>1228.2</ele>
        <time>2019-04-28T06:54:46Z</time>
      </trkpt>
      <trkpt lat="40.8841320" lon="-4.0600540">
        <ele>1228.6</ele>
        <time>2019-04-28T06:54:47Z</time>
      </trkpt>
      <trkpt lat="40.8841160" lon="-4.0600380">
        <ele>1229.0</ele>
        <time>2019-04-28T06:54:48Z</time>
      </trkpt>
      <trkpt lat="40.8840990" lon="-4.0600230">
        <ele>1229.2</ele>
        <time>2019-04-28T06:54:49Z</time>
      </trkpt>
      <trkpt lat="40.8840790" lon="-4.0600080">
        <ele>1229.4</ele>
        <time>2019-04-28T06:54:50Z</time>
      </trkpt>
      <trkpt lat="40.8840590" lon="-4.0599940">
        <ele>1229.6</ele>
        <time>2019-04-28T06:54:51Z</time>
      </trkpt>
      <trkpt lat="40.8840390" lon="-4.0599810">
        <ele>1230.0</ele>
        <time>2019-04-28T06:54:52Z</time>
      </trkpt>
      <trkpt lat="40.8840200" lon="-4.0599670">
        <ele>1230.2</ele>
        <time>2019-04-28T06:54:53Z</time>
      </trkpt>
      <trkpt lat="40.8839990" lon="-4.0599560">
        <ele>1230.6</ele>
        <time>2019-04-28T06:54:54Z</time>
      </trkpt>
      <trkpt lat="40.8839770" lon="-4.0599460">
        <ele>1230.8</ele>
        <time>2019-04-28T06:54:55Z</time>
      </trkpt>
      <trkpt lat="40.8839560" lon="-4.0599340">
        <ele>1231.0</ele>
        <time>2019-04-28T06:54:56Z</time>
      </trkpt>
      <trkpt lat="40.8839340" lon="-4.0599230">
        <ele>1231.4</ele>
        <time>2019-04-28T06:54:57Z</time>
      </trkpt>
      <trkpt lat="40.8839130" lon="-4.0599080">
        <ele>1231.6</ele>
        <time>2019-04-28T06:54:58Z</time>
      </trkpt>
      <trkpt lat="40.8838920" lon="-4.0598940">
        <ele>1231.8</ele>
        <time>2019-04-28T06:54:59Z</time>
      </trkpt>
      <trkpt lat="40.8838730" lon="-4.0598840">
        <ele>1232.0</ele>
        <time>2019-04-28T06:55:00Z</time>
      </trkpt>
      <trkpt lat="40.8838530" lon="-4.0598750">
        <ele>1232.4</ele>
        <time>2019-04-28T06:55:01Z</time>
      </trkpt>
      <trkpt lat="40.8838340" lon="-4.0598650">
        <ele>1232.8</ele>
        <time>2019-04-28T06:55:02Z</time>
      </trkpt>
      <trkpt lat="40.8838140" lon="-4.0598550">
        <ele>1233.0</ele>
        <time>2019-04-28T06:55:03Z</time>
      </trkpt>
      <trkpt lat="40.8837950" lon="-4.0598500">
        <ele>1233.2</ele>
        <time>2019-04-28T06:55:04Z</time>
      </trkpt>
      <trkpt lat="40.8837770" lon="-4.0598510">
        <ele>1233.4</ele>
        <time>2019-04-28T06:55:05Z</time>
      </trkpt>
      <trkpt lat="40.8837550" lon="-4.0598460">
        <ele>1233.4</ele>
        <time>2019-04-28T06:55:06Z</time>
      </trkpt>
      <trkpt lat="40.8837320" lon="-4.0598420">
        <ele>1233.4</ele>
        <time>2019-04-28T06:55:07Z</time>
      </trkpt>
      <trkpt lat="40.8837080" lon="-4.0598290">
        <ele>1233.4</ele>
        <time>2019-04-28T06:55:08Z</time>
      </trkpt>
      <trkpt lat="40.8836830" lon="-4.0598170">
        <ele>1233.6</ele>
        <time>2019-04-28T06:55:09Z</time>
      </trkpt>
      <trkpt lat="40.8836600" lon="-4.0597980">
        <ele>1233.6</ele>
        <time>2019-04-28T06:55:10Z</time>
      </trkpt>
      <trkpt lat="40.8836360" lon="-4.0597770">
        <ele>1233.6</ele>
        <time>2019-04-28T06:55:11Z</time>
      </trkpt>
      <trkpt lat="40.8836140" lon="-4.0597540">
        <ele>1233.8</ele>
        <time>2019-04-28T06:55:12Z</time>
      </trkpt>
      <trkpt lat="40.8835910" lon="-4.0597320">
        <ele>1233.8</ele>
        <time>2019-04-28T06:55:13Z</time>
      </trkpt>
      <trkpt lat="40.8835710" lon="-4.0597060">
        <ele>1234.0</ele>
        <time>2019-04-28T06:55:14Z</time>
      </trkpt>
      <trkpt lat="40.8835560" lon="-4.0596710">
        <ele>1234.0</ele>
        <time>2019-04-28T06:55:15Z</time>
      </trkpt>
      <trkpt lat="40.8835410" lon="-4.0596400">
        <ele>1234.4</ele>
        <time>2019-04-28T06:55:16Z</time>
      </trkpt>
      <trkpt lat="40.8835260" lon="-4.0596100">
        <ele>1234.6</ele>
        <time>2019-04-28T06:55:17Z</time>
      </trkpt>
      <trkpt lat="40.8835120" lon="-4.0595830">
        <ele>1234.8</ele>
        <time>2019-04-28T06:55:18Z</time>
      </trkpt>
      <trkpt lat="40.8834960" lon="-4.0595580">
        <ele>1235.0</ele>
        <time>2019-04-28T06:55:19Z</time>
      </trkpt>
      <trkpt lat="40.8834820" lon="-4.0595310">
        <ele>1235.2</ele>
        <time>2019-04-28T06:55:20Z</time>
      </trkpt>
      <trkpt lat="40.8834680" lon="-4.0595050">
        <ele>1235.4</ele>
        <time>2019-04-28T06:55:21Z</time>
      </trkpt>
      <trkpt lat="40.8834530" lon="-4.0594800">
        <ele>1235.6</ele>
        <time>2019-04-28T06:55:22Z</time>
      </trkpt>
      <trkpt lat="40.8834390" lon="-4.0594560">
        <ele>1235.8</ele>
        <time>2019-04-28T06:55:23Z</time>
      </trkpt>
      <trkpt lat="40.8834240" lon="-4.0594320">
        <ele>1235.8</ele>
        <time>2019-04-28T06:55:24Z</time>
      </trkpt>
      <trkpt lat="40.8834100" lon="-4.0594080">
        <ele>1236.2</ele>
        <time>2019-04-28T06:55:25Z</time>
      </trkpt>
      <trkpt lat="40.8833960" lon="-4.0593830">
        <ele>1236.2</ele>
        <time>2019-04-28T06:55:26Z</time>
      </trkpt>
      <trkpt lat="40.8833810" lon="-4.0593580">
        <ele>1236.4</ele>
        <time>2019-04-28T06:55:27Z</time>
      </trkpt>
      <trkpt lat="40.8833680" lon="-4.0593330">
        <ele>1236.6</ele>
        <time>2019-04-28T06:55:28Z</time>
      </trkpt>
      <trkpt lat="40.8833550" lon="-4.0593100">
        <ele>1237.0</ele>
        <time>2019-04-28T06:55:29Z</time>
      </trkpt>
      <trkpt lat="40.8833430" lon="-4.0592870">
        <ele>1237.4</ele>
        <time>2019-04-28T06:55:30Z</time>
      </trkpt>
      <trkpt lat="40.8833310" lon="-4.0592610">
        <ele>1237.8</ele>
        <time>2019-04-28T06:55:31Z</time>
      </trkpt>
      <trkpt lat="40.8833180" lon="-4.0592360">
        <ele>1238.0</ele>
        <time>2019-04-28T06:55:32Z</time>
      </trkpt>
      <trkpt lat="40.8833050" lon="-4.0592130">
        <ele>1238.4</ele>
        <time>2019-04-28T06:55:33Z</time>
      </trkpt>
      <trkpt lat="40.8832910" lon="-4.0591910">
        <ele>1238.8</ele>
        <time>2019-04-28T06:55:34Z</time>
      </trkpt>
      <trkpt lat="40.8832770" lon="-4.0591670">
        <ele>1239.2</ele>
        <time>2019-04-28T06:55:35Z</time>
      </trkpt>
      <trkpt lat="40.8832620" lon="-4.0591430">
        <ele>1239.4</ele>
        <time>2019-04-28T06:55:36Z</time>
      </trkpt>
      <trkpt lat="40.8832460" lon="-4.0591200">
        <ele>1239.8</ele>
        <time>2019-04-28T06:55:37Z</time>
      </trkpt>
      <trkpt lat="40.8832290" lon="-4.0591010">
        <ele>1240.0</ele>
        <time>2019-04-28T06:55:38Z</time>
      </trkpt>
      <trkpt lat="40.8832130" lon="-4.0590800">
        <ele>1240.2</ele>
        <time>2019-04-28T06:55:39Z</time>
      </trkpt>
      <trkpt lat="40.8831980" lon="-4.0590580">
        <ele>1240.4</ele>
        <time>2019-04-28T06:55:40Z</time>
      </trkpt>
      <trkpt lat="40.8831830" lon="-4.0590360">
        <ele>1241.0</ele>
        <time>2019-04-28T06:55:41Z</time>
      </trkpt>
      <trkpt lat="40.8831660" lon="-4.0590160">
        <ele>1241.2</ele>
        <time>2019-04-28T06:55:42Z</time>
      </trkpt>
      <trkpt lat="40.8831500" lon="-4.0589940">
        <ele>1241.6</ele>
        <time>2019-04-28T06:55:43Z</time>
      </trkpt>
      <trkpt lat="40.8831340" lon="-4.0589710">
        <ele>1241.8</ele>
        <time>2019-04-28T06:55:44Z</time>
      </trkpt>
      <trkpt lat="40.8831180" lon="-4.0589490">
        <ele>1242.2</ele>
        <time>2019-04-28T06:55:45Z</time>
      </trkpt>
      <trkpt lat="40.8831020" lon="-4.0589260">
        <ele>1242.4</ele>
        <time>2019-04-28T06:55:46Z</time>
      </trkpt>
      <trkpt lat="40.8830860" lon="-4.0589040">
        <ele>1242.6</ele>
        <time>2019-04-28T06:55:47Z</time>
      </trkpt>
      <trkpt lat="40.8830720" lon="-4.0588800">
        <ele>1242.8</ele>
        <time>2019-04-28T06:55:48Z</time>
      </trkpt>
      <trkpt lat="40.8830580" lon="-4.0588560">
        <ele>1243.0</ele>
        <time>2019-04-28T06:55:49Z</time>
      </trkpt>
      <trkpt lat="40.8830410" lon="-4.0588340">
        <ele>1243.2</ele>
        <time>2019-04-28T06:55:50Z</time>
      </trkpt>
      <trkpt lat="40.8830210" lon="-4.0588150">
        <ele>1243.4</ele>
        <time>2019-04-28T06:55:51Z</time>
      </trkpt>
      <trkpt lat="40.8830000" lon="-4.0587970">
        <ele>1243.8</ele>
        <time>2019-04-28T06:55:52Z</time>
      </trkpt>
      <trkpt lat="40.8829770" lon="-4.0587820">
        <ele>1243.8</ele>
        <time>2019-04-28T06:55:53Z</time>
      </trkpt>
      <trkpt lat="40.8829530" lon="-4.0587690">
        <ele>1244.0</ele>
        <time>2019-04-28T06:55:54Z</time>
      </trkpt>
      <trkpt lat="40.8829310" lon="-4.0587550">
        <ele>1244.2</ele>
        <time>2019-04-28T06:55:55Z</time>
      </trkpt>
      <trkpt lat="40.8829070" lon="-4.0587410">
        <ele>1244.2</ele>
        <time>2019-04-28T06:55:56Z</time>
      </trkpt>
      <trkpt lat="40.8828840" lon="-4.0587270">
        <ele>1244.4</ele>
        <time>2019-04-28T06:55:57Z</time>
      </trkpt>
      <trkpt lat="40.8828620" lon="-4.0587130">
        <ele>1244.4</ele>
        <time>2019-04-28T06:55:58Z</time>
      </trkpt>
      <trkpt lat="40.8828380" lon="-4.0586980">
        <ele>1244.4</ele>
        <time>2019-04-28T06:55:59Z</time>
      </trkpt>
      <trkpt lat="40.8828140" lon="-4.0586810">
        <ele>1244.6</ele>
        <time>2019-04-28T06:56:00Z</time>
      </trkpt>
      <trkpt lat="40.8827900" lon="-4.0586620">
        <ele>1244.8</ele>
        <time>2019-04-28T06:56:01Z</time>
      </trkpt>
      <trkpt lat="40.8827660" lon="-4.0586430">
        <ele>1244.8</ele>
        <time>2019-04-28T06:56:02Z</time>
      </trkpt>
      <trkpt lat="40.8827420" lon="-4.0586230">
        <ele>1245.0</ele>
        <time>2019-04-28T06:56:03Z</time>
      </trkpt>
      <trkpt lat="40.8827190" lon="-4.0586010">
        <ele>1245.0</ele>
        <time>2019-04-28T06:56:04Z</time>
      </trkpt>
      <trkpt lat="40.8826950" lon="-4.0585820">
        <ele>1245.2</ele>
        <time>2019-04-28T06:56:05Z</time>
      </trkpt>
      <trkpt lat="40.8826710" lon="-4.0585630">
        <ele>1245.2</ele>
        <time>2019-04-28T06:56:06Z</time>
      </trkpt>
      <trkpt lat="40.8826470" lon="-4.0585440">
        <ele>1245.4</ele>
        <time>2019-04-28T06:56:07Z</time>
      </trkpt>
      <trkpt lat="40.8826250" lon="-4.0585240">
        <ele>1245.6</ele>
        <time>2019-04-28T06:56:08Z</time>
      </trkpt>
      <trkpt lat="40.8826010" lon="-4.0585080">
        <ele>1245.8</ele>
        <time>2019-04-28T06:56:09Z</time>
      </trkpt>
      <trkpt lat="40.8825770" lon="-4.0584920">
        <ele>1246.0</ele>
        <time>2019-04-28T06:56:10Z</time>
      </trkpt>
      <trkpt lat="40.8825520" lon="-4.0584780">
        <ele>1246.2</ele>
        <time>2019-04-28T06:56:11Z</time>
      </trkpt>
      <trkpt lat="40.8825290" lon="-4.0584640">
        <ele>1246.4</ele>
        <time>2019-04-28T06:56:12Z</time>
      </trkpt>
      <trkpt lat="40.8825050" lon="-4.0584500">
        <ele>1246.6</ele>
        <time>2019-04-28T06:56:13Z</time>
      </trkpt>
      <trkpt lat="40.8824840" lon="-4.0584360">
        <ele>1246.8</ele>
        <time>2019-04-28T06:56:14Z</time>
      </trkpt>
      <trkpt lat="40.8824620" lon="-4.0584200">
        <ele>1247.0</ele>
        <time>2019-04-28T06:56:15Z</time>
      </trkpt>
      <trkpt lat="40.8824400" lon="-4.0584050">
        <ele>1247.2</ele>
        <time>2019-04-28T06:56:16Z</time>
      </trkpt>
      <trkpt lat="40.8824190" lon="-4.0583850">
        <ele>1247.4</ele>
        <time>2019-04-28T06:56:17Z</time>
      </trkpt>
      <trkpt lat="40.8823970" lon="-4.0583650">
        <ele>1247.4</ele>
        <time>2019-04-28T06:56:18Z</time>
      </trkpt>
      <trkpt lat="40.8823740" lon="-4.0583440">
        <ele>1247.4</ele>
        <time>2019-04-28T06:56:19Z</time>
      </trkpt>
      <trkpt lat="40.8823520" lon="-4.0583250">
        <ele>1247.4</ele>
        <time>2019-04-28T06:56:20Z</time>
      </trkpt>
      <trkpt lat="40.8823270" lon="-4.0583070">
        <ele>1247.6</ele>
        <time>2019-04-28T06:56:21Z</time>
      </trkpt>
      <trkpt lat="40.8823040" lon="-4.0582880">
        <ele>1247.8</ele>
        <time>2019-04-28T06:56:22Z</time>
      </trkpt>
      <trkpt lat="40.8822820" lon="-4.0582740">
        <ele>1248.2</ele>
        <time>2019-04-28T06:56:23Z</time>
      </trkpt>
      <trkpt lat="40.8822600" lon="-4.0582630">
        <ele>1248.4</ele>
        <time>2019-04-28T06:56:24Z</time>
      </trkpt>
      <trkpt lat="40.8822370" lon="-4.0582520">
        <ele>1248.6</ele>
        <time>2019-04-28T06:56:25Z</time>
      </trkpt>
      <trkpt lat="40.8822150" lon="-4.0582400">
        <ele>1249.0</ele>
        <time>2019-04-28T06:56:26Z</time>
      </trkpt>
      <trkpt lat="40.8821950" lon="-4.0582280">
        <ele>1249.2</ele>
        <time>2019-04-28T06:56:27Z</time>
      </trkpt>
      <trkpt lat="40.8821750" lon="-4.0582180">
        <ele>1249.6</ele>
        <time>2019-04-28T06:56:28Z</time>
      </trkpt>
      <trkpt lat="40.8821570" lon="-4.0582060">
        <ele>1249.8</ele>
        <time>2019-04-28T06:56:29Z</time>
      </trkpt>
      <trkpt lat="40.8821380" lon="-4.0581950">
        <ele>1250.2</ele>
        <time>2019-04-28T06:56:30Z</time>
      </trkpt>
      <trkpt lat="40.8821180" lon="-4.0581830">
        <ele>1250.2</ele>
        <time>2019-04-28T06:56:31Z</time>
      </trkpt>
      <trkpt lat="40.8820990" lon="-4.0581680">
        <ele>1250.4</ele>
        <time>2019-04-28T06:56:32Z</time>
      </trkpt>
      <trkpt lat="40.8820790" lon="-4.0581520">
        <ele>1250.6</ele>
        <time>2019-04-28T06:56:33Z</time>
      </trkpt>
      <trkpt lat="40.8820600" lon="-4.0581370">
        <ele>1251.0</ele>
        <time>2019-04-28T06:56:34Z</time>
      </trkpt>
      <trkpt lat="40.8820400" lon="-4.0581230">
        <ele>1251.2</ele>
        <time>2019-04-28T06:56:35Z</time>
      </trkpt>
      <trkpt lat="40.8820220" lon="-4.0581080">
        <ele>1251.6</ele>
        <time>2019-04-28T06:56:36Z</time>
      </trkpt>
      <trkpt lat="40.8820040" lon="-4.0580920">
        <ele>1251.8</ele>
        <time>2019-04-28T06:56:37Z</time>
      </trkpt>
      <trkpt lat="40.8819860" lon="-4.0580780">
        <ele>1252.2</ele>
        <time>2019-04-28T06:56:38Z</time>
      </trkpt>
      <trkpt lat="40.8819670" lon="-4.0580650">
        <ele>1252.6</ele>
        <time>2019-04-28T06:56:39Z</time>
      </trkpt>
      <trkpt lat="40.8819490" lon="-4.0580560">
        <ele>1253.0</ele>
        <time>2019-04-28T06:56:40Z</time>
      </trkpt>
      <trkpt lat="40.8819310" lon="-4.0580480">
        <ele>1253.2</ele>
        <time>2019-04-28T06:56:41Z</time>
      </trkpt>
      <trkpt lat="40.8819110" lon="-4.0580450">
        <ele>1253.4</ele>
        <time>2019-04-28T06:56:42Z</time>
      </trkpt>
      <trkpt lat="40.8818890" lon="-4.0580380">
        <ele>1253.6</ele>
        <time>2019-04-28T06:56:43Z</time>
      </trkpt>
      <trkpt lat="40.8818680" lon="-4.0580280">
        <ele>1254.0</ele>
        <time>2019-04-28T06:56:44Z</time>
      </trkpt>
      <trkpt lat="40.8818490" lon="-4.0580160">
        <ele>1254.2</ele>
        <time>2019-04-28T06:56:45Z</time>
      </trkpt>
      <trkpt lat="40.8818300" lon="-4.0580030">
        <ele>1254.6</ele>
        <time>2019-04-28T06:56:46Z</time>
      </trkpt>
      <trkpt lat="40.8818110" lon="-4.0579890">
        <ele>1254.8</ele>
        <time>2019-04-28T06:56:47Z</time>
      </trkpt>
      <trkpt lat="40.8817930" lon="-4.0579780">
        <ele>1255.2</ele>
        <time>2019-04-28T06:56:48Z</time>
      </trkpt>
      <trkpt lat="40.8817740" lon="-4.0579680">
        <ele>1255.4</ele>
        <time>2019-04-28T06:56:49Z</time>
      </trkpt>
      <trkpt lat="40.8817570" lon="-4.0579570">
        <ele>1255.6</ele>
        <time>2019-04-28T06:56:50Z</time>
      </trkpt>
      <trkpt lat="40.8817390" lon="-4.0579470">
        <ele>1256.0</ele>
        <time>2019-04-28T06:56:51Z</time>
      </trkpt>
      <trkpt lat="40.8817230" lon="-4.0579320">
        <ele>1256.4</ele>
        <time>2019-04-28T06:56:52Z</time>
      </trkpt>
      <trkpt lat="40.8817070" lon="-4.0579180">
        <ele>1256.6</ele>
        <time>2019-04-28T06:56:53Z</time>
      </trkpt>
      <trkpt lat="40.8816900" lon="-4.0579040">
        <ele>1256.8</ele>
        <time>2019-04-28T06:56:54Z</time>
      </trkpt>
      <trkpt lat="40.8816720" lon="-4.0578910">
        <ele>1257.0</ele>
        <time>2019-04-28T06:56:55Z</time>
      </trkpt>
      <trkpt lat="40.8816540" lon="-4.0578800">
        <ele>1257.2</ele>
        <time>2019-04-28T06:56:56Z</time>
      </trkpt>
      <trkpt lat="40.8816360" lon="-4.0578700">
        <ele>1257.4</ele>
        <time>2019-04-28T06:56:57Z</time>
      </trkpt>
      <trkpt lat="40.8816170" lon="-4.0578620">
        <ele>1257.4</ele>
        <time>2019-04-28T06:56:58Z</time>
      </trkpt>
      <trkpt lat="40.8815980" lon="-4.0578520">
        <ele>1257.6</ele>
        <time>2019-04-28T06:56:59Z</time>
      </trkpt>
      <trkpt lat="40.8815780" lon="-4.0578430">
        <ele>1257.8</ele>
        <time>2019-04-28T06:57:00Z</time>
      </trkpt>
      <trkpt lat="40.8815580" lon="-4.0578310">
        <ele>1257.8</ele>
        <time>2019-04-28T06:57:01Z</time>
      </trkpt>
      <trkpt lat="40.8815370" lon="-4.0578210">
        <ele>1257.8</ele>
        <time>2019-04-28T06:57:02Z</time>
      </trkpt>
      <trkpt lat="40.8815150" lon="-4.0578100">
        <ele>1258.0</ele>
        <time>2019-04-28T06:57:03Z</time>
      </trkpt>
      <trkpt lat="40.8814950" lon="-4.0577940">
        <ele>1258.0</ele>
        <time>2019-04-28T06:57:04Z</time>
      </trkpt>
      <trkpt lat="40.8814750" lon="-4.0577780">
        <ele>1258.2</ele>
        <time>2019-04-28T06:57:05Z</time>
      </trkpt>
      <trkpt lat="40.8814550" lon="-4.0577640">
        <ele>1258.4</ele>
        <time>2019-04-28T06:57:06Z</time>
      </trkpt>
      <trkpt lat="40.8814350" lon="-4.0577510">
        <ele>1258.6</ele>
        <time>2019-04-28T06:57:07Z</time>
      </trkpt>
      <trkpt lat="40.8814140" lon="-4.0577360">
        <ele>1258.8</ele>
        <time>2019-04-28T06:57:08Z</time>
      </trkpt>
      <trkpt lat="40.8813940" lon="-4.0577200">
        <ele>1259.0</ele>
        <time>2019-04-28T06:57:09Z</time>
      </trkpt>
      <trkpt lat="40.8813700" lon="-4.0577050">
        <ele>1259.0</ele>
        <time>2019-04-28T06:57:10Z</time>
      </trkpt>
      <trkpt lat="40.8813470" lon="-4.0576900">
        <ele>1259.2</ele>
        <time>2019-04-28T06:57:11Z</time>
      </trkpt>
      <trkpt lat="40.8813220" lon="-4.0576800">
        <ele>1259.4</ele>
        <time>2019-04-28T06:57:12Z</time>
      </trkpt>
      <trkpt lat="40.8812980" lon="-4.0576720">
        <ele>1259.6</ele>
        <time>2019-04-28T06:57:13Z</time>
      </trkpt>
      <trkpt lat="40.8812730" lon="-4.0576640">
        <ele>1259.8</ele>
        <time>2019-04-28T06:57:14Z</time>
      </trkpt>
      <trkpt lat="40.8812490" lon="-4.0576540">
        <ele>1259.8</ele>
        <time>2019-04-28T06:57:15Z</time>
      </trkpt>
      <trkpt lat="40.8812240" lon="-4.0576430">
        <ele>1260.0</ele>
        <time>2019-04-28T06:57:16Z</time>
      </trkpt>
      <trkpt lat="40.8811980" lon="-4.0576330">
        <ele>1260.0</ele>
        <time>2019-04-28T06:57:17Z</time>
      </trkpt>
      <trkpt lat="40.8811720" lon="-4.0576220">
        <ele>1260.2</ele>
        <time>2019-04-28T06:57:18Z</time>
      </trkpt>
      <trkpt lat="40.8811470" lon="-4.0576110">
        <ele>1260.2</ele>
        <time>2019-04-28T06:57:19Z</time>
      </trkpt>
      <trkpt lat="40.8811210" lon="-4.0576000">
        <ele>1260.4</ele>
        <time>2019-04-28T06:57:20Z</time>
      </trkpt>
      <trkpt lat="40.8810950" lon="-4.0575890">
        <ele>1260.4</ele>
        <time>2019-04-28T06:57:21Z</time>
      </trkpt>
      <trkpt lat="40.8810710" lon="-4.0575790">
        <ele>1260.6</ele>
        <time>2019-04-28T06:57:22Z</time>
      </trkpt>
      <trkpt lat="40.8810480" lon="-4.0575680">
        <ele>1260.8</ele>
        <time>2019-04-28T06:57:23Z</time>
      </trkpt>
      <trkpt lat="40.8810250" lon="-4.0575570">
        <ele>1261.0</ele>
        <time>2019-04-28T06:57:24Z</time>
      </trkpt>
      <trkpt lat="40.8810010" lon="-4.0575470">
        <ele>1261.2</ele>
        <time>2019-04-28T06:57:25Z</time>
      </trkpt>
      <trkpt lat="40.8809780" lon="-4.0575400">
        <ele>1261.4</ele>
        <time>2019-04-28T06:57:26Z</time>
      </trkpt>
      <trkpt lat="40.8809530" lon="-4.0575330">
        <ele>1261.4</ele>
        <time>2019-04-28T06:57:27Z</time>
      </trkpt>
      <trkpt lat="40.8809300" lon="-4.0575200">
        <ele>1261.6</ele>
        <time>2019-04-28T06:57:28Z</time>
      </trkpt>
      <trkpt lat="40.8809070" lon="-4.0575080">
        <ele>1261.8</ele>
        <time>2019-04-28T06:57:29Z</time>
      </trkpt>
      <trkpt lat="40.8808850" lon="-4.0574970">
        <ele>1261.8</ele>
        <time>2019-04-28T06:57:30Z</time>
      </trkpt>
      <trkpt lat="40.8808630" lon="-4.0574850">
        <ele>1262.0</ele>
        <time>2019-04-28T06:57:31Z</time>
      </trkpt>
      <trkpt lat="40.8808380" lon="-4.0574770">
        <ele>1262.4</ele>
        <time>2019-04-28T06:57:32Z</time>
      </trkpt>
      <trkpt lat="40.8808140" lon="-4.0574720">
        <ele>1262.4</ele>
        <time>2019-04-28T06:57:33Z</time>
      </trkpt>
      <trkpt lat="40.8807910" lon="-4.0574660">
        <ele>1262.6</ele>
        <time>2019-04-28T06:57:34Z</time>
      </trkpt>
      <trkpt lat="40.8807670" lon="-4.0574610">
        <ele>1262.8</ele>
        <time>2019-04-28T06:57:35Z</time>
      </trkpt>
      <trkpt lat="40.8807420" lon="-4.0574540">
        <ele>1262.8</ele>
        <time>2019-04-28T06:57:36Z</time>
      </trkpt>
      <trkpt lat="40.8807170" lon="-4.0574430">
        <ele>1263.0</ele>
        <time>2019-04-28T06:57:37Z</time>
      </trkpt>
      <trkpt lat="40.8806940" lon="-4.0574290">
        <ele>1263.2</ele>
        <time>2019-04-28T06:57:38Z</time>
      </trkpt>
      <trkpt lat="40.8806700" lon="-4.0574150">
        <ele>1263.4</ele>
        <time>2019-04-28T06:57:39Z</time>
      </trkpt>
      <trkpt lat="40.8806470" lon="-4.0574080">
        <ele>1263.8</ele>
        <time>2019-04-28T06:57:40Z</time>
      </trkpt>
      <trkpt lat="40.8806230" lon="-4.0574030">
        <ele>1264.0</ele>
        <time>2019-04-28T06:57:41Z</time>
      </trkpt>
      <trkpt lat="40.8805980" lon="-4.0573960">
        <ele>1264.2</ele>
        <time>2019-04-28T06:57:42Z</time>
      </trkpt>
      <trkpt lat="40.8805740" lon="-4.0573860">
        <ele>1264.4</ele>
        <time>2019-04-28T06:57:43Z</time>
      </trkpt>
      <trkpt lat="40.8805500" lon="-4.0573770">
        <ele>1264.6</ele>
        <time>2019-04-28T06:57:44Z</time>
      </trkpt>
      <trkpt lat="40.8805260" lon="-4.0573680">
        <ele>1264.8</ele>
        <time>2019-04-28T06:57:45Z</time>
      </trkpt>
      <trkpt lat="40.8805010" lon="-4.0573600">
        <ele>1265.0</ele>
        <time>2019-04-28T06:57:46Z</time>
      </trkpt>
      <trkpt lat="40.8804770" lon="-4.0573510">
        <ele>1265.2</ele>
        <time>2019-04-28T06:57:47Z</time>
      </trkpt>
      <trkpt lat="40.8804530" lon="-4.0573420">
        <ele>1265.4</ele>
        <time>2019-04-28T06:57:48Z</time>
      </trkpt>
      <trkpt lat="40.8804300" lon="-4.0573330">
        <ele>1265.6</ele>
        <time>2019-04-28T06:57:49Z</time>
      </trkpt>
      <trkpt lat="40.8804060" lon="-4.0573250">
        <ele>1265.8</ele>
        <time>2019-04-28T06:57:50Z</time>
      </trkpt>
      <trkpt lat="40.8803830" lon="-4.0573140">
        <ele>1266.0</ele>
        <time>2019-04-28T06:57:51Z</time>
      </trkpt>
      <trkpt lat="40.8803590" lon="-4.0573040">
        <ele>1266.2</ele>
        <time>2019-04-28T06:57:52Z</time>
      </trkpt>
      <trkpt lat="40.8803350" lon="-4.0572950">
        <ele>1266.6</ele>
        <time>2019-04-28T06:57:53Z</time>
      </trkpt>
      <trkpt lat="40.8803120" lon="-4.0572860">
        <ele>1266.8</ele>
        <time>2019-04-28T06:57:54Z</time>
      </trkpt>
      <trkpt lat="40.8802890" lon="-4.0572760">
        <ele>1267.0</ele>
        <time>2019-04-28T06:57:55Z</time>
      </trkpt>
      <trkpt lat="40.8802670" lon="-4.0572690">
        <ele>1267.0</ele>
        <time>2019-04-28T06:57:56Z</time>
      </trkpt>
      <trkpt lat="40.8802440" lon="-4.0572630">
        <ele>1267.2</ele>
        <time>2019-04-28T06:57:57Z</time>
      </trkpt>
      <trkpt lat="40.8802220" lon="-4.0572530">
        <ele>1267.4</ele>
        <time>2019-04-28T06:57:58Z</time>
      </trkpt>
      <trkpt lat="40.8802000" lon="-4.0572420">
        <ele>1267.8</ele>
        <time>2019-04-28T06:57:59Z</time>
      </trkpt>
      <trkpt lat="40.8801780" lon="-4.0572340">
        <ele>1268.2</ele>
        <time>2019-04-28T06:58:00Z</time>
      </trkpt>
      <trkpt lat="40.8801550" lon="-4.0572270">
        <ele>1268.6</ele>
        <time>2019-04-28T06:58:01Z</time>
      </trkpt>
      <trkpt lat="40.8801320" lon="-4.0572200">
        <ele>1268.8</ele>
        <time>2019-04-28T06:58:02Z</time>
      </trkpt>
      <trkpt lat="40.8801090" lon="-4.0572130">
        <ele>1269.0</ele>
        <time>2019-04-28T06:58:03Z</time>
      </trkpt>
      <trkpt lat="40.8800900" lon="-4.0572030">
        <ele>1269.2</ele>
        <time>2019-04-28T06:58:04Z</time>
      </trkpt>
      <trkpt lat="40.8800690" lon="-4.0571930">
        <ele>1269.4</ele>
        <time>2019-04-28T06:58:05Z</time>
      </trkpt>
      <trkpt lat="40.8800450" lon="-4.0571820">
        <ele>1269.6</ele>
        <time>2019-04-28T06:58:06Z</time>
      </trkpt>
      <trkpt lat="40.8800230" lon="-4.0571730">
        <ele>1270.0</ele>
        <time>2019-04-28T06:58:07Z</time>
      </trkpt>
      <trkpt lat="40.8800010" lon="-4.0571610">
        <ele>1270.2</ele>
        <time>2019-04-28T06:58:08Z</time>
      </trkpt>
      <trkpt lat="40.8799810" lon="-4.0571460">
        <ele>1270.4</ele>
        <time>2019-04-28T06:58:09Z</time>
      </trkpt>
      <trkpt lat="40.8799600" lon="-4.0571320">
        <ele>1270.6</ele>
        <time>2019-04-28T06:58:10Z</time>
      </trkpt>
      <trkpt lat="40.8799420" lon="-4.0571180">
        <ele>1270.8</ele>
        <time>2019-04-28T06:58:11Z</time>
      </trkpt>
      <trkpt lat="40.8799210" lon="-4.0571040">
        <ele>1271.0</ele>
        <time>2019-04-28T06:58:12Z</time>
      </trkpt>
      <trkpt lat="40.8799000" lon="-4.0570840">
        <ele>1271.0</ele>
        <time>2019-04-28T06:58:13Z</time>
      </trkpt>
      <trkpt lat="40.8798820" lon="-4.0570650">
        <ele>1271.2</ele>
        <time>2019-04-28T06:58:14Z</time>
      </trkpt>
      <trkpt lat="40.8798610" lon="-4.0570490">
        <ele>1271.4</ele>
        <time>2019-04-28T06:58:15Z</time>
      </trkpt>
      <trkpt lat="40.8798430" lon="-4.0570330">
        <ele>1271.6</ele>
        <time>2019-04-28T06:58:16Z</time>
      </trkpt>
      <trkpt lat="40.8798260" lon="-4.0570130">
        <ele>1271.8</ele>
        <time>2019-04-28T06:58:17Z</time>
      </trkpt>
      <trkpt lat="40.8798080" lon="-4.0569930">
        <ele>1272.0</ele>
        <time>2019-04-28T06:58:18Z</time>
      </trkpt>
      <trkpt lat="40.8797900" lon="-4.0569730">
        <ele>1272.4</ele>
        <time>2019-04-28T06:58:19Z</time>
      </trkpt>
      <trkpt lat="40.8797750" lon="-4.0569520">
        <ele>1272.4</ele>
        <time>2019-04-28T06:58:20Z</time>
      </trkpt>
      <trkpt lat="40.8797590" lon="-4.0569340">
        <ele>1272.6</ele>
        <time>2019-04-28T06:58:21Z</time>
      </trkpt>
      <trkpt lat="40.8797400" lon="-4.0569170">
        <ele>1272.8</ele>
        <time>2019-04-28T06:58:22Z</time>
      </trkpt>
      <trkpt lat="40.8797200" lon="-4.0569010">
        <ele>1273.0</ele>
        <time>2019-04-28T06:58:23Z</time>
      </trkpt>
      <trkpt lat="40.8797010" lon="-4.0568820">
        <ele>1273.0</ele>
        <time>2019-04-28T06:58:24Z</time>
      </trkpt>
      <trkpt lat="40.8796810" lon="-4.0568640">
        <ele>1273.2</ele>
        <time>2019-04-28T06:58:25Z</time>
      </trkpt>
      <trkpt lat="40.8796650" lon="-4.0568520">
        <ele>1273.4</ele>
        <time>2019-04-28T06:58:26Z</time>
      </trkpt>
      <trkpt lat="40.8796450" lon="-4.0568390">
        <ele>1273.4</ele>
        <time>2019-04-28T06:58:27Z</time>
      </trkpt>
      <trkpt lat="40.8796250" lon="-4.0568270">
        <ele>1273.6</ele>
        <time>2019-04-28T06:58:28Z</time>
      </trkpt>
      <trkpt lat="40.8796040" lon="-4.0568100">
        <ele>1273.8</ele>
        <time>2019-04-28T06:58:29Z</time>
      </trkpt>
      <trkpt lat="40.8795840" lon="-4.0567910">
        <ele>1274.0</ele>
        <time>2019-04-28T06:58:30Z</time>
      </trkpt>
      <trkpt lat="40.8795650" lon="-4.0567690">
        <ele>1274.0</ele>
        <time>2019-04-28T06:58:31Z</time>
      </trkpt>
      <trkpt lat="40.8795460" lon="-4.0567440">
        <ele>1274.2</ele>
        <time>2019-04-28T06:58:32Z</time>
      </trkpt>
      <trkpt lat="40.8795270" lon="-4.0567180">
        <ele>1274.2</ele>
        <time>2019-04-28T06:58:33Z</time>
      </trkpt>
      <trkpt lat="40.8795090" lon="-4.0566930">
        <ele>1274.6</ele>
        <time>2019-04-28T06:58:34Z</time>
      </trkpt>
      <trkpt lat="40.8794920" lon="-4.0566720">
        <ele>1274.6</ele>
        <time>2019-04-28T06:58:35Z</time>
      </trkpt>
      <trkpt lat="40.8794750" lon="-4.0566510">
        <ele>1274.8</ele>
        <time>2019-04-28T06:58:36Z</time>
      </trkpt>
      <trkpt lat="40.8794550" lon="-4.0566300">
        <ele>1274.8</ele>
        <time>2019-04-28T06:58:37Z</time>
      </trkpt>
      <trkpt lat="40.8794330" lon="-4.0566110">
        <ele>1275.0</ele>
        <time>2019-04-28T06:58:38Z</time>
      </trkpt>
      <trkpt lat="40.8794110" lon="-4.0565930">
        <ele>1275.2</ele>
        <time>2019-04-28T06:58:39Z</time>
      </trkpt>
      <trkpt lat="40.8793900" lon="-4.0565780">
        <ele>1275.2</ele>
        <time>2019-04-28T06:58:40Z</time>
      </trkpt>
      <trkpt lat="40.8793680" lon="-4.0565570">
        <ele>1275.4</ele>
        <time>2019-04-28T06:58:41Z</time>
      </trkpt>
      <trkpt lat="40.8793510" lon="-4.0565340">
        <ele>1275.6</ele>
        <time>2019-04-28T06:58:42Z</time>
      </trkpt>
      <trkpt lat="40.8793330" lon="-4.0565160">
        <ele>1275.6</ele>
        <time>2019-04-28T06:58:43Z</time>
      </trkpt>
      <trkpt lat="40.8793100" lon="-4.0564980">
        <ele>1275.8</ele>
        <time>2019-04-28T06:58:44Z</time>
      </trkpt>
      <trkpt lat="40.8792870" lon="-4.0564800">
        <ele>1275.8</ele>
        <time>2019-04-28T06:58:45Z</time>
      </trkpt>
      <trkpt lat="40.8792630" lon="-4.0564650">
        <ele>1275.8</ele>
        <time>2019-04-28T06:58:46Z</time>
      </trkpt>
      <trkpt lat="40.8792410" lon="-4.0564440">
        <ele>1275.8</ele>
        <time>2019-04-28T06:58:47Z</time>
      </trkpt>
      <trkpt lat="40.8792220" lon="-4.0564120">
        <ele>1275.8</ele>
        <time>2019-04-28T06:58:48Z</time>
      </trkpt>
      <trkpt lat="40.8792030" lon="-4.0563800">
        <ele>1276.0</ele>
        <time>2019-04-28T06:58:49Z</time>
      </trkpt>
      <trkpt lat="40.8791890" lon="-4.0563510">
        <ele>1276.4</ele>
        <time>2019-04-28T06:58:50Z</time>
      </trkpt>
      <trkpt lat="40.8791740" lon="-4.0563230">
        <ele>1276.6</ele>
        <time>2019-04-28T06:58:51Z</time>
      </trkpt>
      <trkpt lat="40.8791590" lon="-4.0562970">
        <ele>1276.6</ele>
        <time>2019-04-28T06:58:52Z</time>
      </trkpt>
      <trkpt lat="40.8791460" lon="-4.0562690">
        <ele>1276.6</ele>
        <time>2019-04-28T06:58:53Z</time>
      </trkpt>
      <trkpt lat="40.8791320" lon="-4.0562370">
        <ele>1276.6</ele>
        <time>2019-04-28T06:58:54Z</time>
      </trkpt>
      <trkpt lat="40.8791210" lon="-4.0562050">
        <ele>1276.6</ele>
        <time>2019-04-28T06:58:55Z</time>
      </trkpt>
      <trkpt lat="40.8791120" lon="-4.0561760">
        <ele>1276.6</ele>
        <time>2019-04-28T06:58:56Z</time>
      </trkpt>
      <trkpt lat="40.8791030" lon="-4.0561470">
        <ele>1276.8</ele>
        <time>2019-04-28T06:58:57Z</time>
      </trkpt>
      <trkpt lat="40.8790950" lon="-4.0561230">
        <ele>1277.0</ele>
        <time>2019-04-28T06:58:58Z</time>
      </trkpt>
      <trkpt lat="40.8790900" lon="-4.0560930">
        <ele>1277.0</ele>
        <time>2019-04-28T06:58:59Z</time>
      </trkpt>
      <trkpt lat="40.8790850" lon="-4.0560610">
        <ele>1277.0</ele>
        <time>2019-04-28T06:59:00Z</time>
      </trkpt>
      <trkpt lat="40.8790790" lon="-4.0560290">
        <ele>1277.0</ele>
        <time>2019-04-28T06:59:01Z</time>
      </trkpt>
      <trkpt lat="40.8790700" lon="-4.0559900">
        <ele>1276.8</ele>
        <time>2019-04-28T06:59:02Z</time>
      </trkpt>
      <trkpt lat="40.8790590" lon="-4.0559420">
        <ele>1276.6</ele>
        <time>2019-04-28T06:59:03Z</time>
      </trkpt>
      <trkpt lat="40.8790500" lon="-4.0559000">
        <ele>1276.6</ele>
        <time>2019-04-28T06:59:04Z</time>
      </trkpt>
      <trkpt lat="40.8790410" lon="-4.0558580">
        <ele>1276.6</ele>
        <time>2019-04-28T06:59:05Z</time>
      </trkpt>
      <trkpt lat="40.8790150" lon="-4.0558180">
        <ele>1276.4</ele>
        <time>2019-04-28T06:59:06Z</time>
      </trkpt>
      <trkpt lat="40.8789880" lon="-4.0557790">
        <ele>1276.0</ele>
        <time>2019-04-28T06:59:07Z</time>
      </trkpt>
      <trkpt lat="40.8789570" lon="-4.0557330">
        <ele>1275.6</ele>
        <time>2019-04-28T06:59:08Z</time>
      </trkpt>
      <trkpt lat="40.8789290" lon="-4.0556850">
        <ele>1275.6</ele>
        <time>2019-04-28T06:59:09Z</time>
      </trkpt>
      <trkpt lat="40.8788960" lon="-4.0556320">
        <ele>1275.2</ele>
        <time>2019-04-28T06:59:10Z</time>
      </trkpt>
      <trkpt lat="40.8788500" lon="-4.0555680">
        <ele>1274.2</ele>
        <time>2019-04-28T06:59:11Z</time>
      </trkpt>
      <trkpt lat="40.8787990" lon="-4.0554950">
        <ele>1273.0</ele>
        <time>2019-04-28T06:59:12Z</time>
      </trkpt>
      <trkpt lat="40.8787410" lon="-4.0554330">
        <ele>1272.6</ele>
        <time>2019-04-28T06:59:13Z</time>
      </trkpt>
      <trkpt lat="40.8787160" lon="-4.0554120">
        <ele>1272.6</ele>
        <time>2019-04-28T06:59:14Z</time>
      </trkpt>
      <trkpt lat="40.8786900" lon="-4.0553910">
        <ele>1272.8</ele>
        <time>2019-04-28T06:59:15Z</time>
      </trkpt>
      <trkpt lat="40.8786050" lon="-4.0553110">
        <ele>1272.8</ele>
        <time>2019-04-28T06:59:16Z</time>
      </trkpt>
      <trkpt lat="40.8785710" lon="-4.0552730">
        <ele>1273.0</ele>
        <time>2019-04-28T06:59:17Z</time>
      </trkpt>
      <trkpt lat="40.8785030" lon="-4.0551960">
        <ele>1273.2</ele>
        <time>2019-04-28T06:59:18Z</time>
      </trkpt>
      <trkpt lat="40.8784590" lon="-4.0551540">
        <ele>1273.8</ele>
        <time>2019-04-28T06:59:19Z</time>
      </trkpt>
      <trkpt lat="40.8784180" lon="-4.0551220">
        <ele>1274.4</ele>
        <time>2019-04-28T06:59:20Z</time>
      </trkpt>
      <trkpt lat="40.8783800" lon="-4.0550990">
        <ele>1274.8</ele>
        <time>2019-04-28T06:59:21Z</time>
      </trkpt>
      <trkpt lat="40.8783410" lon="-4.0550770">
        <ele>1275.2</ele>
        <time>2019-04-28T06:59:22Z</time>
      </trkpt>
      <trkpt lat="40.8783010" lon="-4.0550660">
        <ele>1275.4</ele>
        <time>2019-04-28T06:59:23Z</time>
      </trkpt>
      <trkpt lat="40.8782600" lon="-4.0550550">
        <ele>1275.6</ele>
        <time>2019-04-28T06:59:24Z</time>
      </trkpt>
      <trkpt lat="40.8782230" lon="-4.0550380">
        <ele>1275.6</ele>
        <time>2019-04-28T06:59:25Z</time>
      </trkpt>
      <trkpt lat="40.8781850" lon="-4.0550210">
        <ele>1276.0</ele>
        <time>2019-04-28T06:59:26Z</time>
      </trkpt>
      <trkpt lat="40.8781540" lon="-4.0549970">
        <ele>1276.0</ele>
        <time>2019-04-28T06:59:27Z</time>
      </trkpt>
      <trkpt lat="40.8781200" lon="-4.0549850">
        <ele>1276.4</ele>
        <time>2019-04-28T06:59:28Z</time>
      </trkpt>
      <trkpt lat="40.8780850" lon="-4.0549850">
        <ele>1276.6</ele>
        <time>2019-04-28T06:59:29Z</time>
      </trkpt>
      <trkpt lat="40.8780530" lon="-4.0549800">
        <ele>1276.8</ele>
        <time>2019-04-28T06:59:30Z</time>
      </trkpt>
      <trkpt lat="40.8780300" lon="-4.0549590">
        <ele>1276.8</ele>
        <time>2019-04-28T06:59:31Z</time>
      </trkpt>
      <trkpt lat="40.8780060" lon="-4.0549440">
        <ele>1277.2</ele>
        <time>2019-04-28T06:59:32Z</time>
      </trkpt>
      <trkpt lat="40.8779780" lon="-4.0549310">
        <ele>1277.4</ele>
        <time>2019-04-28T06:59:33Z</time>
      </trkpt>
      <trkpt lat="40.8779510" lon="-4.0549190">
        <ele>1277.6</ele>
        <time>2019-04-28T06:59:34Z</time>
      </trkpt>
      <trkpt lat="40.8779260" lon="-4.0548980">
        <ele>1277.8</ele>
        <time>2019-04-28T06:59:35Z</time>
      </trkpt>
      <trkpt lat="40.8779030" lon="-4.0548710">
        <ele>1278.0</ele>
        <time>2019-04-28T06:59:36Z</time>
      </trkpt>
      <trkpt lat="40.8778830" lon="-4.0548420">
        <ele>1278.2</ele>
        <time>2019-04-28T06:59:37Z</time>
      </trkpt>
      <trkpt lat="40.8778680" lon="-4.0548100">
        <ele>1278.2</ele>
        <time>2019-04-28T06:59:38Z</time>
      </trkpt>
      <trkpt lat="40.8778500" lon="-4.0547790">
        <ele>1278.4</ele>
        <time>2019-04-28T06:59:39Z</time>
      </trkpt>
      <trkpt lat="40.8778280" lon="-4.0547580">
        <ele>1278.6</ele>
        <time>2019-04-28T06:59:40Z</time>
      </trkpt>
      <trkpt lat="40.8778030" lon="-4.0547430">
        <ele>1278.6</ele>
        <time>2019-04-28T06:59:41Z</time>
      </trkpt>
      <trkpt lat="40.8777790" lon="-4.0547290">
        <ele>1278.8</ele>
        <time>2019-04-28T06:59:42Z</time>
      </trkpt>
      <trkpt lat="40.8777540" lon="-4.0547210">
        <ele>1278.8</ele>
        <time>2019-04-28T06:59:43Z</time>
      </trkpt>
      <trkpt lat="40.8777260" lon="-4.0547190">
        <ele>1278.8</ele>
        <time>2019-04-28T06:59:44Z</time>
      </trkpt>
      <trkpt lat="40.8776950" lon="-4.0547250">
        <ele>1278.8</ele>
        <time>2019-04-28T06:59:45Z</time>
      </trkpt>
      <trkpt lat="40.8776680" lon="-4.0547310">
        <ele>1278.8</ele>
        <time>2019-04-28T06:59:46Z</time>
      </trkpt>
      <trkpt lat="40.8776450" lon="-4.0547420">
        <ele>1279.2</ele>
        <time>2019-04-28T06:59:47Z</time>
      </trkpt>
      <trkpt lat="40.8776200" lon="-4.0547540">
        <ele>1279.2</ele>
        <time>2019-04-28T06:59:48Z</time>
      </trkpt>
      <trkpt lat="40.8775930" lon="-4.0547590">
        <ele>1279.2</ele>
        <time>2019-04-28T06:59:49Z</time>
      </trkpt>
      <trkpt lat="40.8775650" lon="-4.0547550">
        <ele>1279.2</ele>
        <time>2019-04-28T06:59:50Z</time>
      </trkpt>
      <trkpt lat="40.8775370" lon="-4.0547460">
        <ele>1279.6</ele>
        <time>2019-04-28T06:59:51Z</time>
      </trkpt>
      <trkpt lat="40.8775110" lon="-4.0547320">
        <ele>1279.8</ele>
        <time>2019-04-28T06:59:52Z</time>
      </trkpt>
      <trkpt lat="40.8774890" lon="-4.0547150">
        <ele>1280.4</ele>
        <time>2019-04-28T06:59:53Z</time>
      </trkpt>
      <trkpt lat="40.8774650" lon="-4.0546990">
        <ele>1280.6</ele>
        <time>2019-04-28T06:59:54Z</time>
      </trkpt>
      <trkpt lat="40.8774420" lon="-4.0546840">
        <ele>1281.0</ele>
        <time>2019-04-28T06:59:55Z</time>
      </trkpt>
      <trkpt lat="40.8774200" lon="-4.0546710">
        <ele>1281.2</ele>
        <time>2019-04-28T06:59:56Z</time>
      </trkpt>
      <trkpt lat="40.8773990" lon="-4.0546550">
        <ele>1281.2</ele>
        <time>2019-04-28T06:59:57Z</time>
      </trkpt>
      <trkpt lat="40.8773790" lon="-4.0546390">
        <ele>1281.4</ele>
        <time>2019-04-28T06:59:58Z</time>
      </trkpt>
      <trkpt lat="40.8773590" lon="-4.0546210">
        <ele>1281.8</ele>
        <time>2019-04-28T06:59:59Z</time>
      </trkpt>
      <trkpt lat="40.8773400" lon="-4.0546040">
        <ele>1282.0</ele>
        <time>2019-04-28T07:00:00Z</time>
      </trkpt>
      <trkpt lat="40.8773210" lon="-4.0545850">
        <ele>1282.6</ele>
        <time>2019-04-28T07:00:01Z</time>
      </trkpt>
      <trkpt lat="40.8773030" lon="-4.0545720">
        <ele>1283.0</ele>
        <time>2019-04-28T07:00:02Z</time>
      </trkpt>
      <trkpt lat="40.8772810" lon="-4.0545590">
        <ele>1283.2</ele>
        <time>2019-04-28T07:00:03Z</time>
      </trkpt>
      <trkpt lat="40.8772630" lon="-4.0545390">
        <ele>1283.6</ele>
        <time>2019-04-28T07:00:04Z</time>
      </trkpt>
      <trkpt lat="40.8772490" lon="-4.0545180">
        <ele>1284.0</ele>
        <time>2019-04-28T07:00:05Z</time>
      </trkpt>
      <trkpt lat="40.8772360" lon="-4.0544930">
        <ele>1284.4</ele>
        <time>2019-04-28T07:00:06Z</time>
      </trkpt>
      <trkpt lat="40.8772230" lon="-4.0544650">
        <ele>1285.0</ele>
        <time>2019-04-28T07:00:07Z</time>
      </trkpt>
      <trkpt lat="40.8772120" lon="-4.0544380">
        <ele>1285.2</ele>
        <time>2019-04-28T07:00:08Z</time>
      </trkpt>
      <trkpt lat="40.8772010" lon="-4.0544120">
        <ele>1285.6</ele>
        <time>2019-04-28T07:00:09Z</time>
      </trkpt>
      <trkpt lat="40.8771900" lon="-4.0543860">
        <ele>1285.8</ele>
        <time>2019-04-28T07:00:10Z</time>
      </trkpt>
      <trkpt lat="40.8771780" lon="-4.0543610">
        <ele>1286.0</ele>
        <time>2019-04-28T07:00:11Z</time>
      </trkpt>
      <trkpt lat="40.8771650" lon="-4.0543370">
        <ele>1286.2</ele>
        <time>2019-04-28T07:00:12Z</time>
      </trkpt>
      <trkpt lat="40.8771510" lon="-4.0543150">
        <ele>1286.4</ele>
        <time>2019-04-28T07:00:13Z</time>
      </trkpt>
      <trkpt lat="40.8771370" lon="-4.0542940">
        <ele>1286.6</ele>
        <time>2019-04-28T07:00:14Z</time>
      </trkpt>
      <trkpt lat="40.8771240" lon="-4.0542710">
        <ele>1286.8</ele>
        <time>2019-04-28T07:00:15Z</time>
      </trkpt>
      <trkpt lat="40.8771130" lon="-4.0542490">
        <ele>1287.0</ele>
        <time>2019-04-28T07:00:16Z</time>
      </trkpt>
      <trkpt lat="40.8771010" lon="-4.0542280">
        <ele>1287.4</ele>
        <time>2019-04-28T07:00:17Z</time>
      </trkpt>
      <trkpt lat="40.8770900" lon="-4.0542110">
        <ele>1287.6</ele>
        <time>2019-04-28T07:00:18Z</time>
      </trkpt>
      <trkpt lat="40.8770800" lon="-4.0541900">
        <ele>1288.0</ele>
        <time>2019-04-28T07:00:19Z</time>
      </trkpt>
      <trkpt lat="40.8770700" lon="-4.0541710">
        <ele>1288.2</ele>
        <time>2019-04-28T07:00:20Z</time>
      </trkpt>
      <trkpt lat="40.8770560" lon="-4.0541560">
        <ele>1288.4</ele>
        <time>2019-04-28T07:00:21Z</time>
      </trkpt>
      <trkpt lat="40.8770390" lon="-4.0541380">
        <ele>1288.6</ele>
        <time>2019-04-28T07:00:22Z</time>
      </trkpt>
      <trkpt lat="40.8770220" lon="-4.0541190">
        <ele>1288.6</ele>
        <time>2019-04-28T07:00:23Z</time>
      </trkpt>
      <trkpt lat="40.8770030" lon="-4.0541000">
        <ele>1288.8</ele>
        <time>2019-04-28T07:00:24Z</time>
      </trkpt>
      <trkpt lat="40.8769830" lon="-4.0540850">
        <ele>1289.0</ele>
        <time>2019-04-28T07:00:25Z</time>
      </trkpt>
      <trkpt lat="40.8769630" lon="-4.0540710">
        <ele>1289.0</ele>
        <time>2019-04-28T07:00:26Z</time>
      </trkpt>
      <trkpt lat="40.8769440" lon="-4.0540590">
        <ele>1289.2</ele>
        <time>2019-04-28T07:00:27Z</time>
      </trkpt>
      <trkpt lat="40.8769250" lon="-4.0540480">
        <ele>1289.6</ele>
        <time>2019-04-28T07:00:28Z</time>
      </trkpt>
      <trkpt lat="40.8769040" lon="-4.0540380">
        <ele>1289.8</ele>
        <time>2019-04-28T07:00:29Z</time>
      </trkpt>
      <trkpt lat="40.8768830" lon="-4.0540290">
        <ele>1290.0</ele>
        <time>2019-04-28T07:00:30Z</time>
      </trkpt>
      <trkpt lat="40.8768620" lon="-4.0540190">
        <ele>1290.0</ele>
        <time>2019-04-28T07:00:31Z</time>
      </trkpt>
      <trkpt lat="40.8768390" lon="-4.0540120">
        <ele>1290.2</ele>
        <time>2019-04-28T07:00:32Z</time>
      </trkpt>
      <trkpt lat="40.8768160" lon="-4.0540030">
        <ele>1290.4</ele>
        <time>2019-04-28T07:00:33Z</time>
      </trkpt>
      <trkpt lat="40.8767950" lon="-4.0539920">
        <ele>1290.6</ele>
        <time>2019-04-28T07:00:34Z</time>
      </trkpt>
      <trkpt lat="40.8767740" lon="-4.0539840">
        <ele>1291.0</ele>
        <time>2019-04-28T07:00:35Z</time>
      </trkpt>
      <trkpt lat="40.8767540" lon="-4.0539760">
        <ele>1291.2</ele>
        <time>2019-04-28T07:00:36Z</time>
      </trkpt>
      <trkpt lat="40.8767340" lon="-4.0539660">
        <ele>1291.6</ele>
        <time>2019-04-28T07:00:37Z</time>
      </trkpt>
      <trkpt lat="40.8767120" lon="-4.0539580">
        <ele>1291.6</ele>
        <time>2019-04-28T07:00:38Z</time>
      </trkpt>
      <trkpt lat="40.8766900" lon="-4.0539480">
        <ele>1292.0</ele>
        <time>2019-04-28T07:00:39Z</time>
      </trkpt>
      <trkpt lat="40.8766690" lon="-4.0539400">
        <ele>1292.2</ele>
        <time>2019-04-28T07:00:40Z</time>
      </trkpt>
      <trkpt lat="40.8766480" lon="-4.0539310">
        <ele>1292.6</ele>
        <time>2019-04-28T07:00:41Z</time>
      </trkpt>
      <trkpt lat="40.8766280" lon="-4.0539260">
        <ele>1293.0</ele>
        <time>2019-04-28T07:00:42Z</time>
      </trkpt>
      <trkpt lat="40.8766080" lon="-4.0539190">
        <ele>1293.2</ele>
        <time>2019-04-28T07:00:43Z</time>
      </trkpt>
      <trkpt lat="40.8765880" lon="-4.0539130">
        <ele>1293.6</ele>
        <time>2019-04-28T07:00:44Z</time>
      </trkpt>
      <trkpt lat="40.8765700" lon="-4.0539050">
        <ele>1293.8</ele>
        <time>2019-04-28T07:00:45Z</time>
      </trkpt>
      <trkpt lat="40.8765510" lon="-4.0538990">
        <ele>1294.2</ele>
        <time>2019-04-28T07:00:46Z</time>
      </trkpt>
      <trkpt lat="40.8765330" lon="-4.0538930">
        <ele>1294.4</ele>
        <time>2019-04-28T07:00:47Z</time>
      </trkpt>
      <trkpt lat="40.8765120" lon="-4.0538860">
        <ele>1294.4</ele>
        <time>2019-04-28T07:00:48Z</time>
      </trkpt>
      <trkpt lat="40.8764920" lon="-4.0538810">
        <ele>1294.6</ele>
        <time>2019-04-28T07:00:49Z</time>
      </trkpt>
      <trkpt lat="40.8764710" lon="-4.0538770">
        <ele>1295.0</ele>
        <time>2019-04-28T07:00:50Z</time>
      </trkpt>
      <trkpt lat="40.8764520" lon="-4.0538690">
        <ele>1295.2</ele>
        <time>2019-04-28T07:00:51Z</time>
      </trkpt>
      <trkpt lat="40.8764330" lon="-4.0538620">
        <ele>1295.4</ele>
        <time>2019-04-28T07:00:52Z</time>
      </trkpt>
      <trkpt lat="40.8764120" lon="-4.0538580">
        <ele>1295.8</ele>
        <time>2019-04-28T07:00:53Z</time>
      </trkpt>
      <trkpt lat="40.8763910" lon="-4.0538560">
        <ele>1296.0</ele>
        <time>2019-04-28T07:00:54Z</time>
      </trkpt>
      <trkpt lat="40.8763710" lon="-4.0538550">
        <ele>1296.2</ele>
        <time>2019-04-28T07:00:55Z</time>
      </trkpt>
      <trkpt lat="40.8763500" lon="-4.0538560">
        <ele>1296.4</ele>
        <time>2019-04-28T07:00:56Z</time>
      </trkpt>
      <trkpt lat="40.8763300" lon="-4.0538560">
        <ele>1296.6</ele>
        <time>2019-04-28T07:00:57Z</time>
      </trkpt>
      <trkpt lat="40.8763110" lon="-4.0538580">
        <ele>1296.8</ele>
        <time>2019-04-28T07:00:58Z</time>
      </trkpt>
      <trkpt lat="40.8762920" lon="-4.0538630">
        <ele>1297.0</ele>
        <time>2019-04-28T07:00:59Z</time>
      </trkpt>
      <trkpt lat="40.8762740" lon="-4.0538680">
        <ele>1297.2</ele>
        <time>2019-04-28T07:01:00Z</time>
      </trkpt>
      <trkpt lat="40.8762530" lon="-4.0538740">
        <ele>1297.0</ele>
        <time>2019-04-28T07:01:01Z</time>
      </trkpt>
      <trkpt lat="40.8762310" lon="-4.0538820">
        <ele>1297.2</ele>
        <time>2019-04-28T07:01:02Z</time>
      </trkpt>
      <trkpt lat="40.8762090" lon="-4.0538880">
        <ele>1297.2</ele>
        <time>2019-04-28T07:01:03Z</time>
      </trkpt>
      <trkpt lat="40.8761850" lon="-4.0538950">
        <ele>1297.2</ele>
        <time>2019-04-28T07:01:04Z</time>
      </trkpt>
      <trkpt lat="40.8761630" lon="-4.0539040">
        <ele>1297.6</ele>
        <time>2019-04-28T07:01:05Z</time>
      </trkpt>
      <trkpt lat="40.8761430" lon="-4.0539120">
        <ele>1297.8</ele>
        <time>2019-04-28T07:01:06Z</time>
      </trkpt>
      <trkpt lat="40.8761240" lon="-4.0539220">
        <ele>1298.0</ele>
        <time>2019-04-28T07:01:07Z</time>
      </trkpt>
      <trkpt lat="40.8761040" lon="-4.0539330">
        <ele>1298.2</ele>
        <time>2019-04-28T07:01:08Z</time>
      </trkpt>
      <trkpt lat="40.8760850" lon="-4.0539420">
        <ele>1298.4</ele>
        <time>2019-04-28T07:01:09Z</time>
      </trkpt>
      <trkpt lat="40.8760660" lon="-4.0539520">
        <ele>1298.6</ele>
        <time>2019-04-28T07:01:10Z</time>
      </trkpt>
      <trkpt lat="40.8760440" lon="-4.0539600">
        <ele>1298.8</ele>
        <time>2019-04-28T07:01:11Z</time>
      </trkpt>
      <trkpt lat="40.8760200" lon="-4.0539730">
        <ele>1299.0</ele>
        <time>2019-04-28T07:01:12Z</time>
      </trkpt>
      <trkpt lat="40.8759990" lon="-4.0539860">
        <ele>1299.2</ele>
        <time>2019-04-28T07:01:13Z</time>
      </trkpt>
      <trkpt lat="40.8759760" lon="-4.0539960">
        <ele>1300.0</ele>
        <time>2019-04-28T07:01:14Z</time>
      </trkpt>
      <trkpt lat="40.8759530" lon="-4.0540020">
        <ele>1300.4</ele>
        <time>2019-04-28T07:01:15Z</time>
      </trkpt>
      <trkpt lat="40.8759320" lon="-4.0540100">
        <ele>1301.0</ele>
        <time>2019-04-28T07:01:16Z</time>
      </trkpt>
      <trkpt lat="40.8759110" lon="-4.0540200">
        <ele>1301.4</ele>
        <time>2019-04-28T07:01:17Z</time>
      </trkpt>
      <trkpt lat="40.8758900" lon="-4.0540300">
        <ele>1301.8</ele>
        <time>2019-04-28T07:01:18Z</time>
      </trkpt>
      <trkpt lat="40.8758690" lon="-4.0540420">
        <ele>1302.2</ele>
        <time>2019-04-28T07:01:19Z</time>
      </trkpt>
      <trkpt lat="40.8758510" lon="-4.0540580">
        <ele>1302.6</ele>
        <time>2019-04-28T07:01:20Z</time>
      </trkpt>
      <trkpt lat="40.8758340" lon="-4.0540730">
        <ele>1303.0</ele>
        <time>2019-04-28T07:01:21Z</time>
      </trkpt>
      <trkpt lat="40.8758170" lon="-4.0540770">
        <ele>1303.2</ele>
        <time>2019-04-28T07:01:22Z</time>
      </trkpt>
      <trkpt lat="40.8757970" lon="-4.0540700">
        <ele>1303.6</ele>
        <time>2019-04-28T07:01:23Z</time>
      </trkpt>
      <trkpt lat="40.8757670" lon="-4.0540670">
        <ele>1304.0</ele>
        <time>2019-04-28T07:01:24Z</time>
      </trkpt>
      <trkpt lat="40.8757550" lon="-4.0540690">
        <ele>1304.2</ele>
        <time>2019-04-28T07:01:25Z</time>
      </trkpt>
      <trkpt lat="40.8757420" lon="-4.0540700">
        <ele>1304.2</ele>
        <time>2019-04-28T07:01:26Z</time>
      </trkpt>
      <trkpt lat="40.8757250" lon="-4.0540760">
        <ele>1304.8</ele>
        <time>2019-04-28T07:01:27Z</time>
      </trkpt>
      <trkpt lat="40.8757130" lon="-4.0540860">
        <ele>1305.0</ele>
        <time>2019-04-28T07:01:28Z</time>
      </trkpt>
      <trkpt lat="40.8756990" lon="-4.0540970">
        <ele>1305.2</ele>
        <time>2019-04-28T07:01:29Z</time>
      </trkpt>
      <trkpt lat="40.8756880" lon="-4.0541070">
        <ele>1305.4</ele>
        <time>2019-04-28T07:01:30Z</time>
      </trkpt>
      <trkpt lat="40.8756740" lon="-4.0541160">
        <ele>1305.8</ele>
        <time>2019-04-28T07:01:31Z</time>
      </trkpt>
      <trkpt lat="40.8756630" lon="-4.0541270">
        <ele>1306.0</ele>
        <time>2019-04-28T07:01:32Z</time>
      </trkpt>
      <trkpt lat="40.8756530" lon="-4.0541390">
        <ele>1306.4</ele>
        <time>2019-04-28T07:01:33Z</time>
      </trkpt>
      <trkpt lat="40.8756360" lon="-4.0541520">
        <ele>1306.6</ele>
        <time>2019-04-28T07:01:34Z</time>
      </trkpt>
      <trkpt lat="40.8756230" lon="-4.0541660">
        <ele>1306.8</ele>
        <time>2019-04-28T07:01:35Z</time>
      </trkpt>
      <trkpt lat="40.8756090" lon="-4.0541840">
        <ele>1307.0</ele>
        <time>2019-04-28T07:01:36Z</time>
      </trkpt>
      <trkpt lat="40.8755990" lon="-4.0542040">
        <ele>1307.4</ele>
        <time>2019-04-28T07:01:37Z</time>
      </trkpt>
      <trkpt lat="40.8755880" lon="-4.0542230">
        <ele>1307.6</ele>
        <time>2019-04-28T07:01:38Z</time>
      </trkpt>
      <trkpt lat="40.8755770" lon="-4.0542390">
        <ele>1307.8</ele>
        <time>2019-04-28T07:01:39Z</time>
      </trkpt>
      <trkpt lat="40.8755660" lon="-4.0542490">
        <ele>1308.0</ele>
        <time>2019-04-28T07:01:40Z</time>
      </trkpt>
      <trkpt lat="40.8755500" lon="-4.0542630">
        <ele>1308.2</ele>
        <time>2019-04-28T07:01:41Z</time>
      </trkpt>
      <trkpt lat="40.8755380" lon="-4.0542740">
        <ele>1308.6</ele>
        <time>2019-04-28T07:01:42Z</time>
      </trkpt>
      <trkpt lat="40.8755290" lon="-4.0542820">
        <ele>1308.8</ele>
        <time>2019-04-28T07:01:43Z</time>
      </trkpt>
      <trkpt lat="40.8755120" lon="-4.0542970">
        <ele>1309.0</ele>
        <time>2019-04-28T07:01:44Z</time>
      </trkpt>
      <trkpt lat="40.8754980" lon="-4.0543080">
        <ele>1309.2</ele>
        <time>2019-04-28T07:01:45Z</time>
      </trkpt>
      <trkpt lat="40.8754850" lon="-4.0543170">
        <ele>1309.4</ele>
        <time>2019-04-28T07:01:46Z</time>
      </trkpt>
      <trkpt lat="40.8754750" lon="-4.0543270">
        <ele>1309.8</ele>
        <time>2019-04-28T07:01:47Z</time>
      </trkpt>
      <trkpt lat="40.8754600" lon="-4.0543380">
        <ele>1310.0</ele>
        <time>2019-04-28T07:01:48Z</time>
      </trkpt>
      <trkpt lat="40.8754430" lon="-4.0543480">
        <ele>1310.2</ele>
        <time>2019-04-28T07:01:49Z</time>
      </trkpt>
      <trkpt lat="40.8754260" lon="-4.0543590">
        <ele>1310.6</ele>
        <time>2019-04-28T07:01:50Z</time>
      </trkpt>
      <trkpt lat="40.8754100" lon="-4.0543680">
        <ele>1311.0</ele>
        <time>2019-04-28T07:01:51Z</time>
      </trkpt>
      <trkpt lat="40.8753900" lon="-4.0543800">
        <ele>1311.2</ele>
        <time>2019-04-28T07:01:52Z</time>
      </trkpt>
      <trkpt lat="40.8753730" lon="-4.0543930">
        <ele>1311.4</ele>
        <time>2019-04-28T07:01:53Z</time>
      </trkpt>
      <trkpt lat="40.8753590" lon="-4.0544060">
        <ele>1311.6</ele>
        <time>2019-04-28T07:01:54Z</time>
      </trkpt>
      <trkpt lat="40.8753450" lon="-4.0544200">
        <ele>1311.6</ele>
        <time>2019-04-28T07:01:55Z</time>
      </trkpt>
      <trkpt lat="40.8753310" lon="-4.0544280">
        <ele>1311.6</ele>
        <time>2019-04-28T07:01:56Z</time>
      </trkpt>
      <trkpt lat="40.8753170" lon="-4.0544360">
        <ele>1311.8</ele>
        <time>2019-04-28T07:01:57Z</time>
      </trkpt>
      <trkpt lat="40.8753030" lon="-4.0544430">
        <ele>1312.0</ele>
        <time>2019-04-28T07:01:58Z</time>
      </trkpt>
      <trkpt lat="40.8752900" lon="-4.0544480">
        <ele>1312.4</ele>
        <time>2019-04-28T07:01:59Z</time>
      </trkpt>
      <trkpt lat="40.8752730" lon="-4.0544470">
        <ele>1312.6</ele>
        <time>2019-04-28T07:02:00Z</time>
      </trkpt>
      <trkpt lat="40.8752580" lon="-4.0544480">
        <ele>1312.8</ele>
        <time>2019-04-28T07:02:01Z</time>
      </trkpt>
      <trkpt lat="40.8752440" lon="-4.0544470">
        <ele>1312.8</ele>
        <time>2019-04-28T07:02:02Z</time>
      </trkpt>
      <trkpt lat="40.8752310" lon="-4.0544500">
        <ele>1313.2</ele>
        <time>2019-04-28T07:02:03Z</time>
      </trkpt>
      <trkpt lat="40.8752140" lon="-4.0544530">
        <ele>1313.4</ele>
        <time>2019-04-28T07:02:04Z</time>
      </trkpt>
      <trkpt lat="40.8752040" lon="-4.0544660">
        <ele>1313.8</ele>
        <time>2019-04-28T07:02:05Z</time>
      </trkpt>
      <trkpt lat="40.8751920" lon="-4.0544770">
        <ele>1314.0</ele>
        <time>2019-04-28T07:02:06Z</time>
      </trkpt>
      <trkpt lat="40.8751790" lon="-4.0544810">
        <ele>1314.2</ele>
        <time>2019-04-28T07:02:07Z</time>
      </trkpt>
      <trkpt lat="40.8751670" lon="-4.0544830">
        <ele>1314.2</ele>
        <time>2019-04-28T07:02:08Z</time>
      </trkpt>
      <trkpt lat="40.8751510" lon="-4.0544800">
        <ele>1314.4</ele>
        <time>2019-04-28T07:02:09Z</time>
      </trkpt>
      <trkpt lat="40.8751390" lon="-4.0544820">
        <ele>1314.6</ele>
        <time>2019-04-28T07:02:10Z</time>
      </trkpt>
      <trkpt lat="40.8751260" lon="-4.0544860">
        <ele>1314.8</ele>
        <time>2019-04-28T07:02:11Z</time>
      </trkpt>
      <trkpt lat="40.8751090" lon="-4.0544900">
        <ele>1315.0</ele>
        <time>2019-04-28T07:02:12Z</time>
      </trkpt>
      <trkpt lat="40.8750940" lon="-4.0544950">
        <ele>1315.2</ele>
        <time>2019-04-28T07:02:13Z</time>
      </trkpt>
      <trkpt lat="40.8750780" lon="-4.0544960">
        <ele>1315.2</ele>
        <time>2019-04-28T07:02:14Z</time>
      </trkpt>
      <trkpt lat="40.8750640" lon="-4.0545020">
        <ele>1315.6</ele>
        <time>2019-04-28T07:02:15Z</time>
      </trkpt>
      <trkpt lat="40.8750500" lon="-4.0545140">
        <ele>1315.8</ele>
        <time>2019-04-28T07:02:16Z</time>
      </trkpt>
      <trkpt lat="40.8750320" lon="-4.0545190">
        <ele>1316.0</ele>
        <time>2019-04-28T07:02:17Z</time>
      </trkpt>
      <trkpt lat="40.8750170" lon="-4.0545290">
        <ele>1316.0</ele>
        <time>2019-04-28T07:02:18Z</time>
      </trkpt>
      <trkpt lat="40.8750030" lon="-4.0545380">
        <ele>1316.4</ele>
        <time>2019-04-28T07:02:19Z</time>
      </trkpt>
      <trkpt lat="40.8749880" lon="-4.0545420">
        <ele>1316.6</ele>
        <time>2019-04-28T07:02:20Z</time>
      </trkpt>
      <trkpt lat="40.8749690" lon="-4.0545340">
        <ele>1316.8</ele>
        <time>2019-04-28T07:02:21Z</time>
      </trkpt>
      <trkpt lat="40.8749510" lon="-4.0545260">
        <ele>1317.0</ele>
        <time>2019-04-28T07:02:22Z</time>
      </trkpt>
      <trkpt lat="40.8749340" lon="-4.0545200">
        <ele>1317.4</ele>
        <time>2019-04-28T07:02:23Z</time>
      </trkpt>
      <trkpt lat="40.8749160" lon="-4.0545120">
        <ele>1317.4</ele>
        <time>2019-04-28T07:02:24Z</time>
      </trkpt>
      <trkpt lat="40.8749010" lon="-4.0545040">
        <ele>1317.6</ele>
        <time>2019-04-28T07:02:25Z</time>
      </trkpt>
      <trkpt lat="40.8748860" lon="-4.0544960">
        <ele>1317.8</ele>
        <time>2019-04-28T07:02:26Z</time>
      </trkpt>
      <trkpt lat="40.8748710" lon="-4.0544880">
        <ele>1318.0</ele>
        <time>2019-04-28T07:02:27Z</time>
      </trkpt>
      <trkpt lat="40.8748540" lon="-4.0544790">
        <ele>1318.0</ele>
        <time>2019-04-28T07:02:28Z</time>
      </trkpt>
      <trkpt lat="40.8748400" lon="-4.0544750">
        <ele>1318.2</ele>
        <time>2019-04-28T07:02:29Z</time>
      </trkpt>
      <trkpt lat="40.8748270" lon="-4.0544770">
        <ele>1318.2</ele>
        <time>2019-04-28T07:02:30Z</time>
      </trkpt>
      <trkpt lat="40.8748110" lon="-4.0544890">
        <ele>1318.0</ele>
        <time>2019-04-28T07:02:31Z</time>
      </trkpt>
      <trkpt lat="40.8747850" lon="-4.0544990">
        <ele>1317.8</ele>
        <time>2019-04-28T07:02:32Z</time>
      </trkpt>
      <trkpt lat="40.8747510" lon="-4.0545060">
        <ele>1317.6</ele>
        <time>2019-04-28T07:02:33Z</time>
      </trkpt>
      <trkpt lat="40.8747250" lon="-4.0545050">
        <ele>1317.6</ele>
        <time>2019-04-28T07:02:34Z</time>
      </trkpt>
      <trkpt lat="40.8747030" lon="-4.0545060">
        <ele>1317.6</ele>
        <time>2019-04-28T07:02:35Z</time>
      </trkpt>
      <trkpt lat="40.8746810" lon="-4.0545040">
        <ele>1317.8</ele>
        <time>2019-04-28T07:02:36Z</time>
      </trkpt>
      <trkpt lat="40.8746630" lon="-4.0545000">
        <ele>1318.0</ele>
        <time>2019-04-28T07:02:37Z</time>
      </trkpt>
      <trkpt lat="40.8746460" lon="-4.0544940">
        <ele>1318.4</ele>
        <time>2019-04-28T07:02:38Z</time>
      </trkpt>
      <trkpt lat="40.8746290" lon="-4.0544860">
        <ele>1318.6</ele>
        <time>2019-04-28T07:02:39Z</time>
      </trkpt>
      <trkpt lat="40.8746110" lon="-4.0544830">
        <ele>1318.8</ele>
        <time>2019-04-28T07:02:40Z</time>
      </trkpt>
      <trkpt lat="40.8745930" lon="-4.0544820">
        <ele>1318.8</ele>
        <time>2019-04-28T07:02:41Z</time>
      </trkpt>
      <trkpt lat="40.8745740" lon="-4.0544840">
        <ele>1319.2</ele>
        <time>2019-04-28T07:02:42Z</time>
      </trkpt>
      <trkpt lat="40.8745570" lon="-4.0544870">
        <ele>1319.4</ele>
        <time>2019-04-28T07:02:43Z</time>
      </trkpt>
      <trkpt lat="40.8745410" lon="-4.0544880">
        <ele>1319.8</ele>
        <time>2019-04-28T07:02:44Z</time>
      </trkpt>
      <trkpt lat="40.8745290" lon="-4.0544910">
        <ele>1320.0</ele>
        <time>2019-04-28T07:02:45Z</time>
      </trkpt>
      <trkpt lat="40.8745250" lon="-4.0544900">
        <ele>1320.0</ele>
        <time>2019-04-28T07:02:46Z</time>
      </trkpt>
      <trkpt lat="40.8745240" lon="-4.0544910">
        <ele>1320.2</ele>
        <time>2019-04-28T07:02:47Z</time>
      </trkpt>
      <trkpt lat="40.8745240" lon="-4.0544920">
        <ele>1320.2</ele>
        <time>2019-04-28T07:02:48Z</time>
      </trkpt>
      <trkpt lat="40.8745230" lon="-4.0544900">
        <ele>1320.0</ele>
        <time>2019-04-28T07:02:49Z</time>
      </trkpt>
      <trkpt lat="40.8745210" lon="-4.0544880">
        <ele>1320.0</ele>
        <time>2019-04-28T07:02:50Z</time>
      </trkpt>
      <trkpt lat="40.8745200" lon="-4.0544870">
        <ele>1320.0</ele>
        <time>2019-04-28T07:02:51Z</time>
      </trkpt>
      <trkpt lat="40.8745190" lon="-4.0544860">
        <ele>1320.0</ele>
        <time>2019-04-28T07:02:52Z</time>
      </trkpt>
      <trkpt lat="40.8745180" lon="-4.0544840">
        <ele>1320.0</ele>
        <time>2019-04-28T07:02:53Z</time>
      </trkpt>
      <trkpt lat="40.8745160" lon="-4.0544850">
        <ele>1320.0</ele>
        <time>2019-04-28T07:02:54Z</time>
      </trkpt>
      <trkpt lat="40.8745200" lon="-4.0544810">
        <ele>1320.0</ele>
        <time>2019-04-28T07:02:55Z</time>
      </trkpt>
      <trkpt lat="40.8745200" lon="-4.0544840">
        <ele>1320.0</ele>
        <time>2019-04-28T07:02:56Z</time>
      </trkpt>
      <trkpt lat="40.8745190" lon="-4.0544860">
        <ele>1320.0</ele>
        <time>2019-04-28T07:02:57Z</time>
      </trkpt>
      <trkpt lat="40.8747400" lon="-4.0544700">
        <ele>1317.6</ele>
        <time>2019-04-28T07:03:16Z</time>
      </trkpt>
      <trkpt lat="40.8747630" lon="-4.0544590">
        <ele>1317.6</ele>
        <time>2019-04-28T07:03:17Z</time>
      </trkpt>
      <trkpt lat="40.8747810" lon="-4.0544390">
        <ele>1317.6</ele>
        <time>2019-04-28T07:03:18Z</time>
      </trkpt>
      <trkpt lat="40.8748050" lon="-4.0544290">
        <ele>1318.0</ele>
        <time>2019-04-28T07:03:19Z</time>
      </trkpt>
      <trkpt lat="40.8748190" lon="-4.0544210">
        <ele>1318.2</ele>
        <time>2019-04-28T07:03:20Z</time>
      </trkpt>
      <trkpt lat="40.8748300" lon="-4.0544220">
        <ele>1318.4</ele>
        <time>2019-04-28T07:03:21Z</time>
      </trkpt>
      <trkpt lat="40.8748400" lon="-4.0544210">
        <ele>1318.4</ele>
        <time>2019-04-28T07:03:22Z</time>
      </trkpt>
      <trkpt lat="40.8748520" lon="-4.0544150">
        <ele>1318.2</ele>
        <time>2019-04-28T07:03:23Z</time>
      </trkpt>
      <trkpt lat="40.8748660" lon="-4.0544050">
        <ele>1318.0</ele>
        <time>2019-04-28T07:03:24Z</time>
      </trkpt>
      <trkpt lat="40.8748770" lon="-4.0543870">
        <ele>1318.0</ele>
        <time>2019-04-28T07:03:25Z</time>
      </trkpt>
      <trkpt lat="40.8748820" lon="-4.0543670">
        <ele>1318.2</ele>
        <time>2019-04-28T07:03:26Z</time>
      </trkpt>
      <trkpt lat="40.8748900" lon="-4.0543570">
        <ele>1318.6</ele>
        <time>2019-04-28T07:03:27Z</time>
      </trkpt>
      <trkpt lat="40.8748920" lon="-4.0543360">
        <ele>1319.0</ele>
        <time>2019-04-28T07:03:28Z</time>
      </trkpt>
      <trkpt lat="40.8748940" lon="-4.0543160">
        <ele>1319.2</ele>
        <time>2019-04-28T07:03:29Z</time>
      </trkpt>
      <trkpt lat="40.8748930" lon="-4.0543060">
        <ele>1319.6</ele>
        <time>2019-04-28T07:03:30Z</time>
      </trkpt>
      <trkpt lat="40.8748960" lon="-4.0543020">
        <ele>1319.6</ele>
        <time>2019-04-28T07:03:31Z</time>
      </trkpt>
      <trkpt lat="40.8749020" lon="-4.0542950">
        <ele>1319.6</ele>
        <time>2019-04-28T07:03:32Z</time>
      </trkpt>
      <trkpt lat="40.8749040" lon="-4.0542810">
        <ele>1319.8</ele>
        <time>2019-04-28T07:03:33Z</time>
      </trkpt>
      <trkpt lat="40.8749040" lon="-4.0542720">
        <ele>1320.0</ele>
        <time>2019-04-28T07:03:34Z</time>
      </trkpt>
      <trkpt lat="40.8749040" lon="-4.0542620">
        <ele>1320.4</ele>
        <time>2019-04-28T07:03:35Z</time>
      </trkpt>
      <trkpt lat="40.8749050" lon="-4.0542510">
        <ele>1320.6</ele>
        <time>2019-04-28T07:03:36Z</time>
      </trkpt>
      <trkpt lat="40.8749040" lon="-4.0542410">
        <ele>1320.6</ele>
        <time>2019-04-28T07:03:37Z</time>
      </trkpt>
      <trkpt lat="40.8749070" lon="-4.0542300">
        <ele>1320.8</ele>
        <time>2019-04-28T07:03:38Z</time>
      </trkpt>
      <trkpt lat="40.8749100" lon="-4.0542160">
        <ele>1321.0</ele>
        <time>2019-04-28T07:03:39Z</time>
      </trkpt>
      <trkpt lat="40.8749110" lon="-4.0542040">
        <ele>1321.2</ele>
        <time>2019-04-28T07:03:40Z</time>
      </trkpt>
      <trkpt lat="40.8749140" lon="-4.0541960">
        <ele>1321.4</ele>
        <time>2019-04-28T07:03:41Z</time>
      </trkpt>
      <trkpt lat="40.8749160" lon="-4.0541890">
        <ele>1321.4</ele>
        <time>2019-04-28T07:03:42Z</time>
      </trkpt>
      <trkpt lat="40.8749150" lon="-4.0541830">
        <ele>1321.6</ele>
        <time>2019-04-28T07:03:43Z</time>
      </trkpt>
      <trkpt lat="40.8749140" lon="-4.0541820">
        <ele>1321.6</ele>
        <time>2019-04-28T07:03:44Z</time>
      </trkpt>
      <trkpt lat="40.8749110" lon="-4.0541830">
        <ele>1321.6</ele>
        <time>2019-04-28T07:03:45Z</time>
      </trkpt>
      <trkpt lat="40.8749090" lon="-4.0541840">
        <ele>1321.6</ele>
        <time>2019-04-28T07:03:46Z</time>
      </trkpt>
      <trkpt lat="40.8749120" lon="-4.0541770">
        <ele>1321.6</ele>
        <time>2019-04-28T07:03:47Z</time>
      </trkpt>
      <trkpt lat="40.8749140" lon="-4.0541740">
        <ele>1321.6</ele>
        <time>2019-04-28T07:03:48Z</time>
      </trkpt>
      <trkpt lat="40.8749130" lon="-4.0539070">
        <ele>1324.0</ele>
        <time>2019-04-28T07:10:24Z</time>
      </trkpt>
      <trkpt lat="40.8749060" lon="-4.0538860">
        <ele>1324.4</ele>
        <time>2019-04-28T07:10:25Z</time>
      </trkpt>
      <trkpt lat="40.8748990" lon="-4.0538660">
        <ele>1324.6</ele>
        <time>2019-04-28T07:10:26Z</time>
      </trkpt>
      <trkpt lat="40.8748930" lon="-4.0538450">
        <ele>1324.8</ele>
        <time>2019-04-28T07:10:27Z</time>
      </trkpt>
      <trkpt lat="40.8748900" lon="-4.0538240">
        <ele>1325.2</ele>
        <time>2019-04-28T07:10:28Z</time>
      </trkpt>
      <trkpt lat="40.8748850" lon="-4.0538030">
        <ele>1325.4</ele>
        <time>2019-04-28T07:10:29Z</time>
      </trkpt>
      <trkpt lat="40.8748760" lon="-4.0537810">
        <ele>1325.6</ele>
        <time>2019-04-28T07:10:30Z</time>
      </trkpt>
      <trkpt lat="40.8748620" lon="-4.0537660">
        <ele>1326.2</ele>
        <time>2019-04-28T07:10:31Z</time>
      </trkpt>
      <trkpt lat="40.8748530" lon="-4.0537500">
        <ele>1326.4</ele>
        <time>2019-04-28T07:10:32Z</time>
      </trkpt>
      <trkpt lat="40.8748390" lon="-4.0537340">
        <ele>1326.8</ele>
        <time>2019-04-28T07:10:33Z</time>
      </trkpt>
      <trkpt lat="40.8748250" lon="-4.0537260">
        <ele>1327.2</ele>
        <time>2019-04-28T07:10:34Z</time>
      </trkpt>
      <trkpt lat="40.8748150" lon="-4.0537140">
        <ele>1327.8</ele>
        <time>2019-04-28T07:10:35Z</time>
      </trkpt>
      <trkpt lat="40.8748080" lon="-4.0536980">
        <ele>1328.0</ele>
        <time>2019-04-28T07:10:36Z</time>
      </trkpt>
      <trkpt lat="40.8747970" lon="-4.0536720">
        <ele>1328.4</ele>
        <time>2019-04-28T07:10:37Z</time>
      </trkpt>
      <trkpt lat="40.8747840" lon="-4.0536500">
        <ele>1328.8</ele>
        <time>2019-04-28T07:10:38Z</time>
      </trkpt>
      <trkpt lat="40.8747670" lon="-4.0536310">
        <ele>1329.2</ele>
        <time>2019-04-28T07:10:39Z</time>
      </trkpt>
      <trkpt lat="40.8747500" lon="-4.0536150">
        <ele>1329.4</ele>
        <time>2019-04-28T07:10:40Z</time>
      </trkpt>
      <trkpt lat="40.8747330" lon="-4.0536010">
        <ele>1329.6</ele>
        <time>2019-04-28T07:10:41Z</time>
      </trkpt>
      <trkpt lat="40.8747240" lon="-4.0535830">
        <ele>1330.0</ele>
        <time>2019-04-28T07:10:42Z</time>
      </trkpt>
      <trkpt lat="40.8747210" lon="-4.0535660">
        <ele>1330.2</ele>
        <time>2019-04-28T07:10:43Z</time>
      </trkpt>
      <trkpt lat="40.8747210" lon="-4.0535400">
        <ele>1330.4</ele>
        <time>2019-04-28T07:10:44Z</time>
      </trkpt>
      <trkpt lat="40.8747190" lon="-4.0535150">
        <ele>1330.4</ele>
        <time>2019-04-28T07:10:45Z</time>
      </trkpt>
      <trkpt lat="40.8747150" lon="-4.0534900">
        <ele>1330.6</ele>
        <time>2019-04-28T07:10:46Z</time>
      </trkpt>
      <trkpt lat="40.8747130" lon="-4.0534670">
        <ele>1330.8</ele>
        <time>2019-04-28T07:10:47Z</time>
      </trkpt>
      <trkpt lat="40.8747130" lon="-4.0534420">
        <ele>1331.0</ele>
        <time>2019-04-28T07:10:48Z</time>
      </trkpt>
      <trkpt lat="40.8747120" lon="-4.0534160">
        <ele>1331.2</ele>
        <time>2019-04-28T07:10:49Z</time>
      </trkpt>
      <trkpt lat="40.8747070" lon="-4.0533890">
        <ele>1331.4</ele>
        <time>2019-04-28T07:10:50Z</time>
      </trkpt>
      <trkpt lat="40.8747050" lon="-4.0533640">
        <ele>1331.8</ele>
        <time>2019-04-28T07:10:51Z</time>
      </trkpt>
      <trkpt lat="40.8747010" lon="-4.0533380">
        <ele>1332.0</ele>
        <time>2019-04-28T07:10:52Z</time>
      </trkpt>
      <trkpt lat="40.8746960" lon="-4.0533110">
        <ele>1332.0</ele>
        <time>2019-04-28T07:10:53Z</time>
      </trkpt>
      <trkpt lat="40.8746970" lon="-4.0532810">
        <ele>1332.2</ele>
        <time>2019-04-28T07:10:54Z</time>
      </trkpt>
      <trkpt lat="40.8747020" lon="-4.0532510">
        <ele>1332.6</ele>
        <time>2019-04-28T07:10:55Z</time>
      </trkpt>
      <trkpt lat="40.8747060" lon="-4.0532250">
        <ele>1333.0</ele>
        <time>2019-04-28T07:10:56Z</time>
      </trkpt>
      <trkpt lat="40.8747060" lon="-4.0531980">
        <ele>1333.2</ele>
        <time>2019-04-28T07:10:57Z</time>
      </trkpt>
      <trkpt lat="40.8747020" lon="-4.0531680">
        <ele>1333.2</ele>
        <time>2019-04-28T07:10:58Z</time>
      </trkpt>
      <trkpt lat="40.8746980" lon="-4.0531370">
        <ele>1333.4</ele>
        <time>2019-04-28T07:10:59Z</time>
      </trkpt>
      <trkpt lat="40.8746940" lon="-4.0531080">
        <ele>1333.6</ele>
        <time>2019-04-28T07:11:00Z</time>
      </trkpt>
      <trkpt lat="40.8746950" lon="-4.0530760">
        <ele>1333.4</ele>
        <time>2019-04-28T07:11:01Z</time>
      </trkpt>
      <trkpt lat="40.8746970" lon="-4.0530460">
        <ele>1333.6</ele>
        <time>2019-04-28T07:11:02Z</time>
      </trkpt>
      <trkpt lat="40.8746940" lon="-4.0530170">
        <ele>1334.2</ele>
        <time>2019-04-28T07:11:03Z</time>
      </trkpt>
      <trkpt lat="40.8746930" lon="-4.0529910">
        <ele>1334.4</ele>
        <time>2019-04-28T07:11:04Z</time>
      </trkpt>
      <trkpt lat="40.8746900" lon="-4.0529660">
        <ele>1334.6</ele>
        <time>2019-04-28T07:11:05Z</time>
      </trkpt>
      <trkpt lat="40.8746830" lon="-4.0529400">
        <ele>1334.6</ele>
        <time>2019-04-28T07:11:06Z</time>
      </trkpt>
      <trkpt lat="40.8746770" lon="-4.0529070">
        <ele>1334.8</ele>
        <time>2019-04-28T07:11:07Z</time>
      </trkpt>
      <trkpt lat="40.8746730" lon="-4.0528790">
        <ele>1334.8</ele>
        <time>2019-04-28T07:11:08Z</time>
      </trkpt>
      <trkpt lat="40.8746650" lon="-4.0528590">
        <ele>1335.2</ele>
        <time>2019-04-28T07:11:09Z</time>
      </trkpt>
      <trkpt lat="40.8746610" lon="-4.0528350">
        <ele>1335.4</ele>
        <time>2019-04-28T07:11:10Z</time>
      </trkpt>
      <trkpt lat="40.8746620" lon="-4.0528080">
        <ele>1335.8</ele>
        <time>2019-04-28T07:11:11Z</time>
      </trkpt>
      <trkpt lat="40.8746640" lon="-4.0527750">
        <ele>1336.4</ele>
        <time>2019-04-28T07:11:12Z</time>
      </trkpt>
      <trkpt lat="40.8746720" lon="-4.0527430">
        <ele>1337.2</ele>
        <time>2019-04-28T07:11:13Z</time>
      </trkpt>
      <trkpt lat="40.8746780" lon="-4.0527130">
        <ele>1337.6</ele>
        <time>2019-04-28T07:11:14Z</time>
      </trkpt>
      <trkpt lat="40.8746840" lon="-4.0526870">
        <ele>1337.8</ele>
        <time>2019-04-28T07:11:15Z</time>
      </trkpt>
      <trkpt lat="40.8746870" lon="-4.0526590">
        <ele>1338.0</ele>
        <time>2019-04-28T07:11:16Z</time>
      </trkpt>
      <trkpt lat="40.8746900" lon="-4.0526320">
        <ele>1338.2</ele>
        <time>2019-04-28T07:11:17Z</time>
      </trkpt>
      <trkpt lat="40.8746850" lon="-4.0525980">
        <ele>1338.4</ele>
        <time>2019-04-28T07:11:18Z</time>
      </trkpt>
      <trkpt lat="40.8746830" lon="-4.0525680">
        <ele>1338.6</ele>
        <time>2019-04-28T07:11:19Z</time>
      </trkpt>
      <trkpt lat="40.8746840" lon="-4.0525400">
        <ele>1338.8</ele>
        <time>2019-04-28T07:11:20Z</time>
      </trkpt>
      <trkpt lat="40.8746860" lon="-4.0525150">
        <ele>1339.2</ele>
        <time>2019-04-28T07:11:21Z</time>
      </trkpt>
      <trkpt lat="40.8746880" lon="-4.0524910">
        <ele>1339.2</ele>
        <time>2019-04-28T07:11:22Z</time>
      </trkpt>
      <trkpt lat="40.8746930" lon="-4.0524710">
        <ele>1339.4</ele>
        <time>2019-04-28T07:11:23Z</time>
      </trkpt>
      <trkpt lat="40.8746970" lon="-4.0524450">
        <ele>1339.4</ele>
        <time>2019-04-28T07:11:24Z</time>
      </trkpt>
      <trkpt lat="40.8746980" lon="-4.0524190">
        <ele>1339.6</ele>
        <time>2019-04-28T07:11:25Z</time>
      </trkpt>
      <trkpt lat="40.8746950" lon="-4.0523930">
        <ele>1339.8</ele>
        <time>2019-04-28T07:11:26Z</time>
      </trkpt>
      <trkpt lat="40.8746910" lon="-4.0523680">
        <ele>1339.8</ele>
        <time>2019-04-28T07:11:27Z</time>
      </trkpt>
      <trkpt lat="40.8746860" lon="-4.0523410">
        <ele>1340.0</ele>
        <time>2019-04-28T07:11:28Z</time>
      </trkpt>
      <trkpt lat="40.8746780" lon="-4.0523180">
        <ele>1340.2</ele>
        <time>2019-04-28T07:11:29Z</time>
      </trkpt>
      <trkpt lat="40.8746700" lon="-4.0522950">
        <ele>1340.4</ele>
        <time>2019-04-28T07:11:30Z</time>
      </trkpt>
      <trkpt lat="40.8746610" lon="-4.0522720">
        <ele>1340.6</ele>
        <time>2019-04-28T07:11:31Z</time>
      </trkpt>
      <trkpt lat="40.8746540" lon="-4.0522490">
        <ele>1340.8</ele>
        <time>2019-04-28T07:11:32Z</time>
      </trkpt>
      <trkpt lat="40.8746430" lon="-4.0522250">
        <ele>1341.0</ele>
        <time>2019-04-28T07:11:33Z</time>
      </trkpt>
      <trkpt lat="40.8746280" lon="-4.0522070">
        <ele>1341.2</ele>
        <time>2019-04-28T07:11:34Z</time>
      </trkpt>
      <trkpt lat="40.8746170" lon="-4.0521930">
        <ele>1341.4</ele>
        <time>2019-04-28T07:11:35Z</time>
      </trkpt>
      <trkpt lat="40.8746120" lon="-4.0521760">
        <ele>1341.6</ele>
        <time>2019-04-28T07:11:36Z</time>
      </trkpt>
      <trkpt lat="40.8746060" lon="-4.0521410">
        <ele>1341.6</ele>
        <time>2019-04-28T07:11:37Z</time>
      </trkpt>
      <trkpt lat="40.8746040" lon="-4.0521120">
        <ele>1341.6</ele>
        <time>2019-04-28T07:11:38Z</time>
      </trkpt>
      <trkpt lat="40.8745990" lon="-4.0520910">
        <ele>1341.8</ele>
        <time>2019-04-28T07:11:39Z</time>
      </trkpt>
      <trkpt lat="40.8745930" lon="-4.0520750">
        <ele>1342.2</ele>
        <time>2019-04-28T07:11:40Z</time>
      </trkpt>
      <trkpt lat="40.8745880" lon="-4.0520570">
        <ele>1342.4</ele>
        <time>2019-04-28T07:11:41Z</time>
      </trkpt>
      <trkpt lat="40.8745850" lon="-4.0520360">
        <ele>1342.6</ele>
        <time>2019-04-28T07:11:42Z</time>
      </trkpt>
      <trkpt lat="40.8745800" lon="-4.0520130">
        <ele>1342.8</ele>
        <time>2019-04-28T07:11:43Z</time>
      </trkpt>
      <trkpt lat="40.8745770" lon="-4.0519910">
        <ele>1343.2</ele>
        <time>2019-04-28T07:11:44Z</time>
      </trkpt>
      <trkpt lat="40.8745700" lon="-4.0519660">
        <ele>1343.2</ele>
        <time>2019-04-28T07:11:45Z</time>
      </trkpt>
      <trkpt lat="40.8745620" lon="-4.0519450">
        <ele>1343.4</ele>
        <time>2019-04-28T07:11:46Z</time>
      </trkpt>
      <trkpt lat="40.8745520" lon="-4.0519250">
        <ele>1343.6</ele>
        <time>2019-04-28T07:11:47Z</time>
      </trkpt>
      <trkpt lat="40.8745400" lon="-4.0519110">
        <ele>1343.8</ele>
        <time>2019-04-28T07:11:48Z</time>
      </trkpt>
      <trkpt lat="40.8745320" lon="-4.0518910">
        <ele>1343.8</ele>
        <time>2019-04-28T07:11:49Z</time>
      </trkpt>
      <trkpt lat="40.8745280" lon="-4.0518670">
        <ele>1344.2</ele>
        <time>2019-04-28T07:11:50Z</time>
      </trkpt>
      <trkpt lat="40.8745250" lon="-4.0518410">
        <ele>1344.4</ele>
        <time>2019-04-28T07:11:51Z</time>
      </trkpt>
      <trkpt lat="40.8745230" lon="-4.0518170">
        <ele>1344.6</ele>
        <time>2019-04-28T07:11:52Z</time>
      </trkpt>
      <trkpt lat="40.8745190" lon="-4.0517940">
        <ele>1344.6</ele>
        <time>2019-04-28T07:11:53Z</time>
      </trkpt>
      <trkpt lat="40.8745150" lon="-4.0517720">
        <ele>1344.8</ele>
        <time>2019-04-28T07:11:54Z</time>
      </trkpt>
      <trkpt lat="40.8745130" lon="-4.0517480">
        <ele>1344.8</ele>
        <time>2019-04-28T07:11:55Z</time>
      </trkpt>
      <trkpt lat="40.8745180" lon="-4.0517250">
        <ele>1345.0</ele>
        <time>2019-04-28T07:11:56Z</time>
      </trkpt>
      <trkpt lat="40.8745200" lon="-4.0516990">
        <ele>1345.0</ele>
        <time>2019-04-28T07:11:57Z</time>
      </trkpt>
      <trkpt lat="40.8745220" lon="-4.0516710">
        <ele>1345.0</ele>
        <time>2019-04-28T07:11:58Z</time>
      </trkpt>
      <trkpt lat="40.8745240" lon="-4.0516440">
        <ele>1345.2</ele>
        <time>2019-04-28T07:11:59Z</time>
      </trkpt>
      <trkpt lat="40.8745240" lon="-4.0516180">
        <ele>1345.6</ele>
        <time>2019-04-28T07:12:00Z</time>
      </trkpt>
      <trkpt lat="40.8745190" lon="-4.0515940">
        <ele>1345.6</ele>
        <time>2019-04-28T07:12:01Z</time>
      </trkpt>
      <trkpt lat="40.8745140" lon="-4.0515750">
        <ele>1346.0</ele>
        <time>2019-04-28T07:12:02Z</time>
      </trkpt>
      <trkpt lat="40.8745080" lon="-4.0515550">
        <ele>1346.2</ele>
        <time>2019-04-28T07:12:03Z</time>
      </trkpt>
      <trkpt lat="40.8745070" lon="-4.0515310">
        <ele>1346.6</ele>
        <time>2019-04-28T07:12:04Z</time>
      </trkpt>
      <trkpt lat="40.8745130" lon="-4.0515050">
        <ele>1347.0</ele>
        <time>2019-04-28T07:12:05Z</time>
      </trkpt>
      <trkpt lat="40.8745230" lon="-4.0514860">
        <ele>1347.4</ele>
        <time>2019-04-28T07:12:06Z</time>
      </trkpt>
      <trkpt lat="40.8745320" lon="-4.0514660">
        <ele>1347.6</ele>
        <time>2019-04-28T07:12:07Z</time>
      </trkpt>
      <trkpt lat="40.8745410" lon="-4.0514470">
        <ele>1347.8</ele>
        <time>2019-04-28T07:12:08Z</time>
      </trkpt>
      <trkpt lat="40.8745510" lon="-4.0514260">
        <ele>1347.8</ele>
        <time>2019-04-28T07:12:09Z</time>
      </trkpt>
      <trkpt lat="40.8745610" lon="-4.0514080">
        <ele>1348.0</ele>
        <time>2019-04-28T07:12:10Z</time>
      </trkpt>
      <trkpt lat="40.8745730" lon="-4.0513920">
        <ele>1348.2</ele>
        <time>2019-04-28T07:12:11Z</time>
      </trkpt>
      <trkpt lat="40.8745870" lon="-4.0513770">
        <ele>1348.2</ele>
        <time>2019-04-28T07:12:12Z</time>
      </trkpt>
      <trkpt lat="40.8745970" lon="-4.0513620">
        <ele>1348.2</ele>
        <time>2019-04-28T07:12:13Z</time>
      </trkpt>
      <trkpt lat="40.8746080" lon="-4.0513490">
        <ele>1348.6</ele>
        <time>2019-04-28T07:12:14Z</time>
      </trkpt>
      <trkpt lat="40.8746180" lon="-4.0513350">
        <ele>1348.6</ele>
        <time>2019-04-28T07:12:15Z</time>
      </trkpt>
      <trkpt lat="40.8746280" lon="-4.0513200">
        <ele>1348.6</ele>
        <time>2019-04-28T07:12:16Z</time>
      </trkpt>
      <trkpt lat="40.8746350" lon="-4.0512960">
        <ele>1348.6</ele>
        <time>2019-04-28T07:12:17Z</time>
      </trkpt>
      <trkpt lat="40.8746360" lon="-4.0512710">
        <ele>1348.8</ele>
        <time>2019-04-28T07:12:18Z</time>
      </trkpt>
      <trkpt lat="40.8746310" lon="-4.0512490">
        <ele>1349.2</ele>
        <time>2019-04-28T07:12:19Z</time>
      </trkpt>
      <trkpt lat="40.8746210" lon="-4.0512300">
        <ele>1349.6</ele>
        <time>2019-04-28T07:12:20Z</time>
      </trkpt>
      <trkpt lat="40.8746110" lon="-4.0512100">
        <ele>1349.8</ele>
        <time>2019-04-28T07:12:21Z</time>
      </trkpt>
      <trkpt lat="40.8745990" lon="-4.0511900">
        <ele>1350.2</ele>
        <time>2019-04-28T07:12:22Z</time>
      </trkpt>
      <trkpt lat="40.8745880" lon="-4.0511790">
        <ele>1350.6</ele>
        <time>2019-04-28T07:12:23Z</time>
      </trkpt>
      <trkpt lat="40.8745740" lon="-4.0511700">
        <ele>1350.8</ele>
        <time>2019-04-28T07:12:24Z</time>
      </trkpt>
      <trkpt lat="40.8745650" lon="-4.0511580">
        <ele>1351.2</ele>
        <time>2019-04-28T07:12:25Z</time>
      </trkpt>
      <trkpt lat="40.8745670" lon="-4.0511470">
        <ele>1351.4</ele>
        <time>2019-04-28T07:12:26Z</time>
      </trkpt>
      <trkpt lat="40.8745750" lon="-4.0511320">
        <ele>1351.4</ele>
        <time>2019-04-28T07:12:27Z</time>
      </trkpt>
      <trkpt lat="40.8745880" lon="-4.0511140">
        <ele>1351.4</ele>
        <time>2019-04-28T07:12:28Z</time>
      </trkpt>
      <trkpt lat="40.8746040" lon="-4.0511020">
        <ele>1351.6</ele>
        <time>2019-04-28T07:12:29Z</time>
      </trkpt>
      <trkpt lat="40.8746140" lon="-4.0510920">
        <ele>1351.8</ele>
        <time>2019-04-28T07:12:30Z</time>
      </trkpt>
      <trkpt lat="40.8746110" lon="-4.0510900">
        <ele>1351.8</ele>
        <time>2019-04-28T07:12:31Z</time>
      </trkpt>
      <trkpt lat="40.8746140" lon="-4.0510870">
        <ele>1351.8</ele>
        <time>2019-04-28T07:12:32Z</time>
      </trkpt>
      <trkpt lat="40.8746190" lon="-4.0510790">
        <ele>1351.8</ele>
        <time>2019-04-28T07:12:33Z</time>
      </trkpt>
      <trkpt lat="40.8746300" lon="-4.0510650">
        <ele>1352.0</ele>
        <time>2019-04-28T07:12:34Z</time>
      </trkpt>
      <trkpt lat="40.8746420" lon="-4.0510540">
        <ele>1352.4</ele>
        <time>2019-04-28T07:12:35Z</time>
      </trkpt>
      <trkpt lat="40.8746530" lon="-4.0510420">
        <ele>1352.4</ele>
        <time>2019-04-28T07:12:36Z</time>
      </trkpt>
      <trkpt lat="40.8746590" lon="-4.0510320">
        <ele>1352.6</ele>
        <time>2019-04-28T07:12:37Z</time>
      </trkpt>
      <trkpt lat="40.8746620" lon="-4.0510280">
        <ele>1352.6</ele>
        <time>2019-04-28T07:12:38Z</time>
      </trkpt>
      <trkpt lat="40.8746660" lon="-4.0510210">
        <ele>1352.6</ele>
        <time>2019-04-28T07:12:39Z</time>
      </trkpt>
      <trkpt lat="40.8746670" lon="-4.0510180">
        <ele>1352.8</ele>
        <time>2019-04-28T07:12:40Z</time>
      </trkpt>
      <trkpt lat="40.8746680" lon="-4.0510160">
        <ele>1352.8</ele>
        <time>2019-04-28T07:12:41Z</time>
      </trkpt>
      <trkpt lat="40.8746700" lon="-4.0510170">
        <ele>1352.8</ele>
        <time>2019-04-28T07:12:42Z</time>
      </trkpt>
      <trkpt lat="40.8746720" lon="-4.0510130">
        <ele>1352.8</ele>
        <time>2019-04-28T07:12:43Z</time>
      </trkpt>
      <trkpt lat="40.8746770" lon="-4.0510090">
        <ele>1352.8</ele>
        <time>2019-04-28T07:12:44Z</time>
      </trkpt>
      <trkpt lat="40.8746800" lon="-4.0510100">
        <ele>1352.8</ele>
        <time>2019-04-28T07:12:45Z</time>
      </trkpt>
      <trkpt lat="40.8746800" lon="-4.0510110">
        <ele>1352.8</ele>
        <time>2019-04-28T07:12:46Z</time>
      </trkpt>
      <trkpt lat="40.8746780" lon="-4.0510130">
        <ele>1352.8</ele>
        <time>2019-04-28T07:12:47Z</time>
      </trkpt>
      <trkpt lat="40.8747070" lon="-4.0508840">
        <ele>1354.6</ele>
        <time>2019-04-28T07:13:06Z</time>
      </trkpt>
      <trkpt lat="40.8747100" lon="-4.0508730">
        <ele>1354.6</ele>
        <time>2019-04-28T07:13:07Z</time>
      </trkpt>
      <trkpt lat="40.8747170" lon="-4.0508630">
        <ele>1354.8</ele>
        <time>2019-04-28T07:13:08Z</time>
      </trkpt>
      <trkpt lat="40.8747240" lon="-4.0508450">
        <ele>1354.8</ele>
        <time>2019-04-28T07:13:09Z</time>
      </trkpt>
      <trkpt lat="40.8747340" lon="-4.0508260">
        <ele>1355.0</ele>
        <time>2019-04-28T07:13:10Z</time>
      </trkpt>
      <trkpt lat="40.8747470" lon="-4.0508110">
        <ele>1355.0</ele>
        <time>2019-04-28T07:13:11Z</time>
      </trkpt>
      <trkpt lat="40.8747550" lon="-4.0507890">
        <ele>1355.2</ele>
        <time>2019-04-28T07:13:12Z</time>
      </trkpt>
      <trkpt lat="40.8747580" lon="-4.0507670">
        <ele>1355.4</ele>
        <time>2019-04-28T07:13:13Z</time>
      </trkpt>
      <trkpt lat="40.8747590" lon="-4.0507460">
        <ele>1355.6</ele>
        <time>2019-04-28T07:13:14Z</time>
      </trkpt>
      <trkpt lat="40.8747600" lon="-4.0507230">
        <ele>1356.0</ele>
        <time>2019-04-28T07:13:15Z</time>
      </trkpt>
      <trkpt lat="40.8747580" lon="-4.0507000">
        <ele>1356.2</ele>
        <time>2019-04-28T07:13:16Z</time>
      </trkpt>
      <trkpt lat="40.8747540" lon="-4.0506780">
        <ele>1356.4</ele>
        <time>2019-04-28T07:13:17Z</time>
      </trkpt>
      <trkpt lat="40.8747480" lon="-4.0506590">
        <ele>1356.6</ele>
        <time>2019-04-28T07:13:18Z</time>
      </trkpt>
      <trkpt lat="40.8747410" lon="-4.0506420">
        <ele>1357.0</ele>
        <time>2019-04-28T07:13:19Z</time>
      </trkpt>
      <trkpt lat="40.8747310" lon="-4.0506250">
        <ele>1357.2</ele>
        <time>2019-04-28T07:13:20Z</time>
      </trkpt>
      <trkpt lat="40.8747190" lon="-4.0506090">
        <ele>1357.4</ele>
        <time>2019-04-28T07:13:21Z</time>
      </trkpt>
      <trkpt lat="40.8747090" lon="-4.0505910">
        <ele>1357.8</ele>
        <time>2019-04-28T07:13:22Z</time>
      </trkpt>
      <trkpt lat="40.8747070" lon="-4.0505730">
        <ele>1358.2</ele>
        <time>2019-04-28T07:13:23Z</time>
      </trkpt>
      <trkpt lat="40.8747090" lon="-4.0505540">
        <ele>1358.4</ele>
        <time>2019-04-28T07:13:24Z</time>
      </trkpt>
      <trkpt lat="40.8747120" lon="-4.0505340">
        <ele>1358.6</ele>
        <time>2019-04-28T07:13:25Z</time>
      </trkpt>
      <trkpt lat="40.8747170" lon="-4.0505130">
        <ele>1358.8</ele>
        <time>2019-04-28T07:13:26Z</time>
      </trkpt>
      <trkpt lat="40.8747180" lon="-4.0504920">
        <ele>1359.0</ele>
        <time>2019-04-28T07:13:27Z</time>
      </trkpt>
      <trkpt lat="40.8747190" lon="-4.0504730">
        <ele>1359.2</ele>
        <time>2019-04-28T07:13:28Z</time>
      </trkpt>
      <trkpt lat="40.8747200" lon="-4.0504520">
        <ele>1359.4</ele>
        <time>2019-04-28T07:13:29Z</time>
      </trkpt>
      <trkpt lat="40.8747200" lon="-4.0504290">
        <ele>1359.8</ele>
        <time>2019-04-28T07:13:30Z</time>
      </trkpt>
      <trkpt lat="40.8747220" lon="-4.0504070">
        <ele>1359.8</ele>
        <time>2019-04-28T07:13:31Z</time>
      </trkpt>
      <trkpt lat="40.8747240" lon="-4.0503840">
        <ele>1360.0</ele>
        <time>2019-04-28T07:13:32Z</time>
      </trkpt>
      <trkpt lat="40.8747230" lon="-4.0503600">
        <ele>1360.2</ele>
        <time>2019-04-28T07:13:33Z</time>
      </trkpt>
      <trkpt lat="40.8747210" lon="-4.0503390">
        <ele>1360.4</ele>
        <time>2019-04-28T07:13:34Z</time>
      </trkpt>
      <trkpt lat="40.8747180" lon="-4.0503170">
        <ele>1360.6</ele>
        <time>2019-04-28T07:13:35Z</time>
      </trkpt>
      <trkpt lat="40.8747160" lon="-4.0502960">
        <ele>1360.8</ele>
        <time>2019-04-28T07:13:36Z</time>
      </trkpt>
      <trkpt lat="40.8747130" lon="-4.0502750">
        <ele>1361.2</ele>
        <time>2019-04-28T07:13:37Z</time>
      </trkpt>
      <trkpt lat="40.8747100" lon="-4.0502550">
        <ele>1361.4</ele>
        <time>2019-04-28T07:13:38Z</time>
      </trkpt>
      <trkpt lat="40.8747080" lon="-4.0502310">
        <ele>1361.6</ele>
        <time>2019-04-28T07:13:39Z</time>
      </trkpt>
      <trkpt lat="40.8747060" lon="-4.0502090">
        <ele>1361.8</ele>
        <time>2019-04-28T07:13:40Z</time>
      </trkpt>
      <trkpt lat="40.8747050" lon="-4.0501870">
        <ele>1362.0</ele>
        <time>2019-04-28T07:13:41Z</time>
      </trkpt>
      <trkpt lat="40.8747070" lon="-4.0501650">
        <ele>1362.4</ele>
        <time>2019-04-28T07:13:42Z</time>
      </trkpt>
      <trkpt lat="40.8747110" lon="-4.0501450">
        <ele>1362.6</ele>
        <time>2019-04-28T07:13:43Z</time>
      </trkpt>
      <trkpt lat="40.8747160" lon="-4.0501260">
        <ele>1362.8</ele>
        <time>2019-04-28T07:13:44Z</time>
      </trkpt>
      <trkpt lat="40.8747210" lon="-4.0501060">
        <ele>1363.0</ele>
        <time>2019-04-28T07:13:45Z</time>
      </trkpt>
      <trkpt lat="40.8747250" lon="-4.0500870">
        <ele>1363.2</ele>
        <time>2019-04-28T07:13:46Z</time>
      </trkpt>
      <trkpt lat="40.8747250" lon="-4.0500660">
        <ele>1363.4</ele>
        <time>2019-04-28T07:13:47Z</time>
      </trkpt>
      <trkpt lat="40.8747220" lon="-4.0500470">
        <ele>1363.6</ele>
        <time>2019-04-28T07:13:48Z</time>
      </trkpt>
      <trkpt lat="40.8747180" lon="-4.0500270">
        <ele>1363.8</ele>
        <time>2019-04-28T07:13:49Z</time>
      </trkpt>
      <trkpt lat="40.8747140" lon="-4.0500070">
        <ele>1364.0</ele>
        <time>2019-04-28T07:13:50Z</time>
      </trkpt>
      <trkpt lat="40.8747120" lon="-4.0499860">
        <ele>1364.0</ele>
        <time>2019-04-28T07:13:51Z</time>
      </trkpt>
      <trkpt lat="40.8747130" lon="-4.0499670">
        <ele>1364.4</ele>
        <time>2019-04-28T07:13:52Z</time>
      </trkpt>
      <trkpt lat="40.8747140" lon="-4.0499480">
        <ele>1364.4</ele>
        <time>2019-04-28T07:13:53Z</time>
      </trkpt>
      <trkpt lat="40.8747180" lon="-4.0499280">
        <ele>1364.6</ele>
        <time>2019-04-28T07:13:54Z</time>
      </trkpt>
      <trkpt lat="40.8747220" lon="-4.0499090">
        <ele>1364.8</ele>
        <time>2019-04-28T07:13:55Z</time>
      </trkpt>
      <trkpt lat="40.8747250" lon="-4.0498890">
        <ele>1365.0</ele>
        <time>2019-04-28T07:13:56Z</time>
      </trkpt>
      <trkpt lat="40.8747280" lon="-4.0498680">
        <ele>1365.2</ele>
        <time>2019-04-28T07:13:57Z</time>
      </trkpt>
      <trkpt lat="40.8747310" lon="-4.0498450">
        <ele>1365.4</ele>
        <time>2019-04-28T07:13:58Z</time>
      </trkpt>
      <trkpt lat="40.8747340" lon="-4.0498220">
        <ele>1365.4</ele>
        <time>2019-04-28T07:13:59Z</time>
      </trkpt>
      <trkpt lat="40.8747340" lon="-4.0498020">
        <ele>1365.8</ele>
        <time>2019-04-28T07:14:00Z</time>
      </trkpt>
      <trkpt lat="40.8747350" lon="-4.0497800">
        <ele>1365.8</ele>
        <time>2019-04-28T07:14:01Z</time>
      </trkpt>
      <trkpt lat="40.8747360" lon="-4.0497590">
        <ele>1366.0</ele>
        <time>2019-04-28T07:14:02Z</time>
      </trkpt>
      <trkpt lat="40.8747380" lon="-4.0497380">
        <ele>1366.2</ele>
        <time>2019-04-28T07:14:03Z</time>
      </trkpt>
      <trkpt lat="40.8747400" lon="-4.0497160">
        <ele>1366.6</ele>
        <time>2019-04-28T07:14:04Z</time>
      </trkpt>
      <trkpt lat="40.8747400" lon="-4.0496940">
        <ele>1366.6</ele>
        <time>2019-04-28T07:14:05Z</time>
      </trkpt>
      <trkpt lat="40.8747390" lon="-4.0496710">
        <ele>1367.0</ele>
        <time>2019-04-28T07:14:06Z</time>
      </trkpt>
      <trkpt lat="40.8747400" lon="-4.0496480">
        <ele>1367.2</ele>
        <time>2019-04-28T07:14:07Z</time>
      </trkpt>
      <trkpt lat="40.8747420" lon="-4.0496250">
        <ele>1367.4</ele>
        <time>2019-04-28T07:14:08Z</time>
      </trkpt>
      <trkpt lat="40.8747410" lon="-4.0496020">
        <ele>1367.4</ele>
        <time>2019-04-28T07:14:09Z</time>
      </trkpt>
      <trkpt lat="40.8747390" lon="-4.0495760">
        <ele>1367.6</ele>
        <time>2019-04-28T07:14:10Z</time>
      </trkpt>
      <trkpt lat="40.8747410" lon="-4.0495520">
        <ele>1367.8</ele>
        <time>2019-04-28T07:14:11Z</time>
      </trkpt>
      <trkpt lat="40.8747450" lon="-4.0495300">
        <ele>1368.0</ele>
        <time>2019-04-28T07:14:12Z</time>
      </trkpt>
      <trkpt lat="40.8747510" lon="-4.0495080">
        <ele>1368.2</ele>
        <time>2019-04-28T07:14:13Z</time>
      </trkpt>
      <trkpt lat="40.8747560" lon="-4.0494850">
        <ele>1368.4</ele>
        <time>2019-04-28T07:14:14Z</time>
      </trkpt>
      <trkpt lat="40.8747590" lon="-4.0494610">
        <ele>1368.4</ele>
        <time>2019-04-28T07:14:15Z</time>
      </trkpt>
      <trkpt lat="40.8747630" lon="-4.0494370">
        <ele>1368.6</ele>
        <time>2019-04-28T07:14:16Z</time>
      </trkpt>
      <trkpt lat="40.8747660" lon="-4.0494120">
        <ele>1368.6</ele>
        <time>2019-04-28T07:14:17Z</time>
      </trkpt>
      <trkpt lat="40.8747670" lon="-4.0493860">
        <ele>1368.8</ele>
        <time>2019-04-28T07:14:18Z</time>
      </trkpt>
      <trkpt lat="40.8747690" lon="-4.0493570">
        <ele>1368.8</ele>
        <time>2019-04-28T07:14:19Z</time>
      </trkpt>
      <trkpt lat="40.8747750" lon="-4.0493300">
        <ele>1369.0</ele>
        <time>2019-04-28T07:14:20Z</time>
      </trkpt>
      <trkpt lat="40.8747740" lon="-4.0493000">
        <ele>1369.2</ele>
        <time>2019-04-28T07:14:21Z</time>
      </trkpt>
      <trkpt lat="40.8747740" lon="-4.0492720">
        <ele>1369.2</ele>
        <time>2019-04-28T07:14:22Z</time>
      </trkpt>
      <trkpt lat="40.8747760" lon="-4.0492430">
        <ele>1369.4</ele>
        <time>2019-04-28T07:14:23Z</time>
      </trkpt>
      <trkpt lat="40.8747780" lon="-4.0492170">
        <ele>1369.4</ele>
        <time>2019-04-28T07:14:24Z</time>
      </trkpt>
      <trkpt lat="40.8747790" lon="-4.0491910">
        <ele>1369.4</ele>
        <time>2019-04-28T07:14:25Z</time>
      </trkpt>
      <trkpt lat="40.8747760" lon="-4.0491660">
        <ele>1369.6</ele>
        <time>2019-04-28T07:14:26Z</time>
      </trkpt>
      <trkpt lat="40.8747720" lon="-4.0491420">
        <ele>1369.8</ele>
        <time>2019-04-28T07:14:27Z</time>
      </trkpt>
      <trkpt lat="40.8747710" lon="-4.0491180">
        <ele>1369.8</ele>
        <time>2019-04-28T07:14:28Z</time>
      </trkpt>
      <trkpt lat="40.8747690" lon="-4.0490950">
        <ele>1370.0</ele>
        <time>2019-04-28T07:14:29Z</time>
      </trkpt>
      <trkpt lat="40.8747690" lon="-4.0490720">
        <ele>1370.2</ele>
        <time>2019-04-28T07:14:30Z</time>
      </trkpt>
      <trkpt lat="40.8747730" lon="-4.0490480">
        <ele>1370.2</ele>
        <time>2019-04-28T07:14:31Z</time>
      </trkpt>
      <trkpt lat="40.8747740" lon="-4.0490230">
        <ele>1370.4</ele>
        <time>2019-04-28T07:14:32Z</time>
      </trkpt>
      <trkpt lat="40.8747720" lon="-4.0490000">
        <ele>1370.4</ele>
        <time>2019-04-28T07:14:33Z</time>
      </trkpt>
      <trkpt lat="40.8747670" lon="-4.0489770">
        <ele>1370.6</ele>
        <time>2019-04-28T07:14:34Z</time>
      </trkpt>
      <trkpt lat="40.8747600" lon="-4.0489530">
        <ele>1370.6</ele>
        <time>2019-04-28T07:14:35Z</time>
      </trkpt>
      <trkpt lat="40.8747520" lon="-4.0489330">
        <ele>1370.8</ele>
        <time>2019-04-28T07:14:36Z</time>
      </trkpt>
      <trkpt lat="40.8747440" lon="-4.0489110">
        <ele>1371.0</ele>
        <time>2019-04-28T07:14:37Z</time>
      </trkpt>
      <trkpt lat="40.8747350" lon="-4.0488900">
        <ele>1371.0</ele>
        <time>2019-04-28T07:14:38Z</time>
      </trkpt>
      <trkpt lat="40.8747220" lon="-4.0488730">
        <ele>1371.2</ele>
        <time>2019-04-28T07:14:39Z</time>
      </trkpt>
      <trkpt lat="40.8747060" lon="-4.0488570">
        <ele>1371.4</ele>
        <time>2019-04-28T07:14:40Z</time>
      </trkpt>
      <trkpt lat="40.8746890" lon="-4.0488440">
        <ele>1371.8</ele>
        <time>2019-04-28T07:14:41Z</time>
      </trkpt>
      <trkpt lat="40.8746720" lon="-4.0488320">
        <ele>1371.8</ele>
        <time>2019-04-28T07:14:42Z</time>
      </trkpt>
      <trkpt lat="40.8746520" lon="-4.0488280">
        <ele>1372.0</ele>
        <time>2019-04-28T07:14:43Z</time>
      </trkpt>
      <trkpt lat="40.8746320" lon="-4.0488310">
        <ele>1372.2</ele>
        <time>2019-04-28T07:14:44Z</time>
      </trkpt>
      <trkpt lat="40.8746120" lon="-4.0488350">
        <ele>1372.4</ele>
        <time>2019-04-28T07:14:45Z</time>
      </trkpt>
      <trkpt lat="40.8745910" lon="-4.0488370">
        <ele>1372.4</ele>
        <time>2019-04-28T07:14:46Z</time>
      </trkpt>
      <trkpt lat="40.8745710" lon="-4.0488430">
        <ele>1372.6</ele>
        <time>2019-04-28T07:14:47Z</time>
      </trkpt>
      <trkpt lat="40.8745510" lon="-4.0488480">
        <ele>1372.8</ele>
        <time>2019-04-28T07:14:48Z</time>
      </trkpt>
      <trkpt lat="40.8745300" lon="-4.0488570">
        <ele>1373.0</ele>
        <time>2019-04-28T07:14:49Z</time>
      </trkpt>
      <trkpt lat="40.8745070" lon="-4.0488620">
        <ele>1373.2</ele>
        <time>2019-04-28T07:14:50Z</time>
      </trkpt>
      <trkpt lat="40.8744860" lon="-4.0488650">
        <ele>1373.4</ele>
        <time>2019-04-28T07:14:51Z</time>
      </trkpt>
      <trkpt lat="40.8744650" lon="-4.0488700">
        <ele>1373.4</ele>
        <time>2019-04-28T07:14:52Z</time>
      </trkpt>
      <trkpt lat="40.8744440" lon="-4.0488760">
        <ele>1373.8</ele>
        <time>2019-04-28T07:14:53Z</time>
      </trkpt>
      <trkpt lat="40.8744230" lon="-4.0488850">
        <ele>1373.8</ele>
        <time>2019-04-28T07:14:54Z</time>
      </trkpt>
      <trkpt lat="40.8744030" lon="-4.0488920">
        <ele>1374.0</ele>
        <time>2019-04-28T07:14:55Z</time>
      </trkpt>
      <trkpt lat="40.8743820" lon="-4.0488990">
        <ele>1374.2</ele>
        <time>2019-04-28T07:14:56Z</time>
      </trkpt>
      <trkpt lat="40.8743620" lon="-4.0489030">
        <ele>1374.4</ele>
        <time>2019-04-28T07:14:57Z</time>
      </trkpt>
      <trkpt lat="40.8743420" lon="-4.0489100">
        <ele>1374.8</ele>
        <time>2019-04-28T07:14:58Z</time>
      </trkpt>
      <trkpt lat="40.8743200" lon="-4.0489160">
        <ele>1375.0</ele>
        <time>2019-04-28T07:14:59Z</time>
      </trkpt>
      <trkpt lat="40.8742980" lon="-4.0489250">
        <ele>1375.2</ele>
        <time>2019-04-28T07:15:00Z</time>
      </trkpt>
      <trkpt lat="40.8742760" lon="-4.0489280">
        <ele>1375.4</ele>
        <time>2019-04-28T07:15:01Z</time>
      </trkpt>
      <trkpt lat="40.8742550" lon="-4.0489340">
        <ele>1375.6</ele>
        <time>2019-04-28T07:15:02Z</time>
      </trkpt>
      <trkpt lat="40.8742330" lon="-4.0489360">
        <ele>1375.8</ele>
        <time>2019-04-28T07:15:03Z</time>
      </trkpt>
      <trkpt lat="40.8742090" lon="-4.0489400">
        <ele>1376.0</ele>
        <time>2019-04-28T07:15:04Z</time>
      </trkpt>
      <trkpt lat="40.8741900" lon="-4.0489460">
        <ele>1376.4</ele>
        <time>2019-04-28T07:15:05Z</time>
      </trkpt>
      <trkpt lat="40.8741710" lon="-4.0489560">
        <ele>1376.6</ele>
        <time>2019-04-28T07:15:06Z</time>
      </trkpt>
      <trkpt lat="40.8741520" lon="-4.0489670">
        <ele>1377.0</ele>
        <time>2019-04-28T07:15:07Z</time>
      </trkpt>
      <trkpt lat="40.8741310" lon="-4.0489760">
        <ele>1377.0</ele>
        <time>2019-04-28T07:15:08Z</time>
      </trkpt>
      <trkpt lat="40.8741070" lon="-4.0489810">
        <ele>1377.2</ele>
        <time>2019-04-28T07:15:09Z</time>
      </trkpt>
      <trkpt lat="40.8740820" lon="-4.0489790">
        <ele>1377.4</ele>
        <time>2019-04-28T07:15:10Z</time>
      </trkpt>
      <trkpt lat="40.8740610" lon="-4.0489830">
        <ele>1377.8</ele>
        <time>2019-04-28T07:15:11Z</time>
      </trkpt>
      <trkpt lat="40.8740380" lon="-4.0489850">
        <ele>1378.0</ele>
        <time>2019-04-28T07:15:12Z</time>
      </trkpt>
      <trkpt lat="40.8740140" lon="-4.0489930">
        <ele>1378.2</ele>
        <time>2019-04-28T07:15:13Z</time>
      </trkpt>
      <trkpt lat="40.8739940" lon="-4.0490030">
        <ele>1378.6</ele>
        <time>2019-04-28T07:15:14Z</time>
      </trkpt>
      <trkpt lat="40.8739710" lon="-4.0490090">
        <ele>1378.8</ele>
        <time>2019-04-28T07:15:15Z</time>
      </trkpt>
      <trkpt lat="40.8739500" lon="-4.0490160">
        <ele>1379.0</ele>
        <time>2019-04-28T07:15:16Z</time>
      </trkpt>
      <trkpt lat="40.8739290" lon="-4.0490250">
        <ele>1379.4</ele>
        <time>2019-04-28T07:15:17Z</time>
      </trkpt>
      <trkpt lat="40.8739090" lon="-4.0490330">
        <ele>1379.6</ele>
        <time>2019-04-28T07:15:18Z</time>
      </trkpt>
      <trkpt lat="40.8738880" lon="-4.0490420">
        <ele>1380.0</ele>
        <time>2019-04-28T07:15:19Z</time>
      </trkpt>
      <trkpt lat="40.8738680" lon="-4.0490480">
        <ele>1380.2</ele>
        <time>2019-04-28T07:15:20Z</time>
      </trkpt>
      <trkpt lat="40.8738490" lon="-4.0490550">
        <ele>1380.4</ele>
        <time>2019-04-28T07:15:21Z</time>
      </trkpt>
      <trkpt lat="40.8738270" lon="-4.0490590">
        <ele>1380.8</ele>
        <time>2019-04-28T07:15:22Z</time>
      </trkpt>
      <trkpt lat="40.8738060" lon="-4.0490640">
        <ele>1381.0</ele>
        <time>2019-04-28T07:15:23Z</time>
      </trkpt>
      <trkpt lat="40.8737840" lon="-4.0490670">
        <ele>1381.4</ele>
        <time>2019-04-28T07:15:24Z</time>
      </trkpt>
      <trkpt lat="40.8737640" lon="-4.0490710">
        <ele>1381.6</ele>
        <time>2019-04-28T07:15:25Z</time>
      </trkpt>
      <trkpt lat="40.8737450" lon="-4.0490780">
        <ele>1382.0</ele>
        <time>2019-04-28T07:15:26Z</time>
      </trkpt>
      <trkpt lat="40.8737280" lon="-4.0490850">
        <ele>1382.2</ele>
        <time>2019-04-28T07:15:27Z</time>
      </trkpt>
      <trkpt lat="40.8737080" lon="-4.0490900">
        <ele>1382.6</ele>
        <time>2019-04-28T07:15:28Z</time>
      </trkpt>
      <trkpt lat="40.8736860" lon="-4.0490900">
        <ele>1382.8</ele>
        <time>2019-04-28T07:15:29Z</time>
      </trkpt>
      <trkpt lat="40.8736670" lon="-4.0490920">
        <ele>1383.0</ele>
        <time>2019-04-28T07:15:30Z</time>
      </trkpt>
      <trkpt lat="40.8736460" lon="-4.0490980">
        <ele>1383.2</ele>
        <time>2019-04-28T07:15:31Z</time>
      </trkpt>
      <trkpt lat="40.8736250" lon="-4.0491060">
        <ele>1383.6</ele>
        <time>2019-04-28T07:15:32Z</time>
      </trkpt>
      <trkpt lat="40.8736050" lon="-4.0491140">
        <ele>1383.8</ele>
        <time>2019-04-28T07:15:33Z</time>
      </trkpt>
      <trkpt lat="40.8735840" lon="-4.0491170">
        <ele>1384.0</ele>
        <time>2019-04-28T07:15:34Z</time>
      </trkpt>
      <trkpt lat="40.8735640" lon="-4.0491200">
        <ele>1384.2</ele>
        <time>2019-04-28T07:15:35Z</time>
      </trkpt>
      <trkpt lat="40.8735440" lon="-4.0491250">
        <ele>1384.4</ele>
        <time>2019-04-28T07:15:36Z</time>
      </trkpt>
      <trkpt lat="40.8735230" lon="-4.0491290">
        <ele>1384.8</ele>
        <time>2019-04-28T07:15:37Z</time>
      </trkpt>
      <trkpt lat="40.8735010" lon="-4.0491350">
        <ele>1385.0</ele>
        <time>2019-04-28T07:15:38Z</time>
      </trkpt>
      <trkpt lat="40.8734810" lon="-4.0491410">
        <ele>1385.2</ele>
        <time>2019-04-28T07:15:39Z</time>
      </trkpt>
      <trkpt lat="40.8734600" lon="-4.0491460">
        <ele>1385.6</ele>
        <time>2019-04-28T07:15:40Z</time>
      </trkpt>
      <trkpt lat="40.8734400" lon="-4.0491530">
        <ele>1385.8</ele>
        <time>2019-04-28T07:15:41Z</time>
      </trkpt>
      <trkpt lat="40.8734210" lon="-4.0491610">
        <ele>1386.0</ele>
        <time>2019-04-28T07:15:42Z</time>
      </trkpt>
      <trkpt lat="40.8734010" lon="-4.0491690">
        <ele>1386.2</ele>
        <time>2019-04-28T07:15:43Z</time>
      </trkpt>
      <trkpt lat="40.8733800" lon="-4.0491790">
        <ele>1386.6</ele>
        <time>2019-04-28T07:15:44Z</time>
      </trkpt>
      <trkpt lat="40.8733590" lon="-4.0491860">
        <ele>1386.8</ele>
        <time>2019-04-28T07:15:45Z</time>
      </trkpt>
      <trkpt lat="40.8733390" lon="-4.0491920">
        <ele>1387.2</ele>
        <time>2019-04-28T07:15:46Z</time>
      </trkpt>
      <trkpt lat="40.8733190" lon="-4.0492010">
        <ele>1387.4</ele>
        <time>2019-04-28T07:15:47Z</time>
      </trkpt>
      <trkpt lat="40.8732980" lon="-4.0492080">
        <ele>1387.8</ele>
        <time>2019-04-28T07:15:48Z</time>
      </trkpt>
      <trkpt lat="40.8732770" lon="-4.0492130">
        <ele>1388.0</ele>
        <time>2019-04-28T07:15:49Z</time>
      </trkpt>
      <trkpt lat="40.8732560" lon="-4.0492180">
        <ele>1388.2</ele>
        <time>2019-04-28T07:15:50Z</time>
      </trkpt>
      <trkpt lat="40.8732340" lon="-4.0492210">
        <ele>1388.4</ele>
        <time>2019-04-28T07:15:51Z</time>
      </trkpt>
      <trkpt lat="40.8732120" lon="-4.0492240">
        <ele>1388.6</ele>
        <time>2019-04-28T07:15:52Z</time>
      </trkpt>
      <trkpt lat="40.8731910" lon="-4.0492280">
        <ele>1388.8</ele>
        <time>2019-04-28T07:15:53Z</time>
      </trkpt>
      <trkpt lat="40.8731700" lon="-4.0492330">
        <ele>1389.2</ele>
        <time>2019-04-28T07:15:54Z</time>
      </trkpt>
      <trkpt lat="40.8731480" lon="-4.0492370">
        <ele>1389.4</ele>
        <time>2019-04-28T07:15:55Z</time>
      </trkpt>
      <trkpt lat="40.8731270" lon="-4.0492430">
        <ele>1389.6</ele>
        <time>2019-04-28T07:15:56Z</time>
      </trkpt>
      <trkpt lat="40.8731060" lon="-4.0492490">
        <ele>1389.8</ele>
        <time>2019-04-28T07:15:57Z</time>
      </trkpt>
      <trkpt lat="40.8730830" lon="-4.0492500">
        <ele>1390.0</ele>
        <time>2019-04-28T07:15:58Z</time>
      </trkpt>
      <trkpt lat="40.8730610" lon="-4.0492480">
        <ele>1390.2</ele>
        <time>2019-04-28T07:15:59Z</time>
      </trkpt>
      <trkpt lat="40.8730390" lon="-4.0492450">
        <ele>1390.6</ele>
        <time>2019-04-28T07:16:00Z</time>
      </trkpt>
      <trkpt lat="40.8730170" lon="-4.0492410">
        <ele>1390.8</ele>
        <time>2019-04-28T07:16:01Z</time>
      </trkpt>
      <trkpt lat="40.8729950" lon="-4.0492410">
        <ele>1391.0</ele>
        <time>2019-04-28T07:16:02Z</time>
      </trkpt>
      <trkpt lat="40.8729740" lon="-4.0492440">
        <ele>1391.2</ele>
        <time>2019-04-28T07:16:03Z</time>
      </trkpt>
      <trkpt lat="40.8729550" lon="-4.0492470">
        <ele>1391.6</ele>
        <time>2019-04-28T07:16:04Z</time>
      </trkpt>
      <trkpt lat="40.8729350" lon="-4.0492500">
        <ele>1391.8</ele>
        <time>2019-04-28T07:16:05Z</time>
      </trkpt>
      <trkpt lat="40.8729140" lon="-4.0492520">
        <ele>1392.0</ele>
        <time>2019-04-28T07:16:06Z</time>
      </trkpt>
      <trkpt lat="40.8728950" lon="-4.0492530">
        <ele>1392.2</ele>
        <time>2019-04-28T07:16:07Z</time>
      </trkpt>
      <trkpt lat="40.8728750" lon="-4.0492530">
        <ele>1392.4</ele>
        <time>2019-04-28T07:16:08Z</time>
      </trkpt>
      <trkpt lat="40.8728550" lon="-4.0492530">
        <ele>1392.6</ele>
        <time>2019-04-28T07:16:09Z</time>
      </trkpt>
      <trkpt lat="40.8728330" lon="-4.0492520">
        <ele>1393.0</ele>
        <time>2019-04-28T07:16:10Z</time>
      </trkpt>
      <trkpt lat="40.8728140" lon="-4.0492540">
        <ele>1393.2</ele>
        <time>2019-04-28T07:16:11Z</time>
      </trkpt>
      <trkpt lat="40.8727920" lon="-4.0492540">
        <ele>1393.4</ele>
        <time>2019-04-28T07:16:12Z</time>
      </trkpt>
      <trkpt lat="40.8727720" lon="-4.0492540">
        <ele>1393.6</ele>
        <time>2019-04-28T07:16:13Z</time>
      </trkpt>
      <trkpt lat="40.8727490" lon="-4.0492540">
        <ele>1393.8</ele>
        <time>2019-04-28T07:16:14Z</time>
      </trkpt>
      <trkpt lat="40.8727260" lon="-4.0492560">
        <ele>1394.0</ele>
        <time>2019-04-28T07:16:15Z</time>
      </trkpt>
      <trkpt lat="40.8727040" lon="-4.0492560">
        <ele>1394.2</ele>
        <time>2019-04-28T07:16:16Z</time>
      </trkpt>
      <trkpt lat="40.8726830" lon="-4.0492530">
        <ele>1394.4</ele>
        <time>2019-04-28T07:16:17Z</time>
      </trkpt>
      <trkpt lat="40.8726600" lon="-4.0492510">
        <ele>1394.8</ele>
        <time>2019-04-28T07:16:18Z</time>
      </trkpt>
      <trkpt lat="40.8726380" lon="-4.0492500">
        <ele>1395.0</ele>
        <time>2019-04-28T07:16:19Z</time>
      </trkpt>
      <trkpt lat="40.8726160" lon="-4.0492510">
        <ele>1395.2</ele>
        <time>2019-04-28T07:16:20Z</time>
      </trkpt>
      <trkpt lat="40.8725940" lon="-4.0492530">
        <ele>1395.4</ele>
        <time>2019-04-28T07:16:21Z</time>
      </trkpt>
      <trkpt lat="40.8725720" lon="-4.0492550">
        <ele>1395.6</ele>
        <time>2019-04-28T07:16:22Z</time>
      </trkpt>
      <trkpt lat="40.8725500" lon="-4.0492620">
        <ele>1395.8</ele>
        <time>2019-04-28T07:16:23Z</time>
      </trkpt>
      <trkpt lat="40.8725290" lon="-4.0492670">
        <ele>1396.0</ele>
        <time>2019-04-28T07:16:24Z</time>
      </trkpt>
      <trkpt lat="40.8725060" lon="-4.0492700">
        <ele>1396.2</ele>
        <time>2019-04-28T07:16:25Z</time>
      </trkpt>
      <trkpt lat="40.8724830" lon="-4.0492700">
        <ele>1396.4</ele>
        <time>2019-04-28T07:16:26Z</time>
      </trkpt>
      <trkpt lat="40.8724600" lon="-4.0492720">
        <ele>1396.6</ele>
        <time>2019-04-28T07:16:27Z</time>
      </trkpt>
      <trkpt lat="40.8724380" lon="-4.0492740">
        <ele>1396.8</ele>
        <time>2019-04-28T07:16:28Z</time>
      </trkpt>
      <trkpt lat="40.8724160" lon="-4.0492750">
        <ele>1397.0</ele>
        <time>2019-04-28T07:16:29Z</time>
      </trkpt>
      <trkpt lat="40.8723940" lon="-4.0492790">
        <ele>1397.2</ele>
        <time>2019-04-28T07:16:30Z</time>
      </trkpt>
      <trkpt lat="40.8723730" lon="-4.0492850">
        <ele>1397.4</ele>
        <time>2019-04-28T07:16:31Z</time>
      </trkpt>
      <trkpt lat="40.8723510" lon="-4.0492900">
        <ele>1397.6</ele>
        <time>2019-04-28T07:16:32Z</time>
      </trkpt>
      <trkpt lat="40.8723290" lon="-4.0492950">
        <ele>1397.8</ele>
        <time>2019-04-28T07:16:33Z</time>
      </trkpt>
      <trkpt lat="40.8723070" lon="-4.0493060">
        <ele>1397.8</ele>
        <time>2019-04-28T07:16:34Z</time>
      </trkpt>
      <trkpt lat="40.8722860" lon="-4.0493190">
        <ele>1398.2</ele>
        <time>2019-04-28T07:16:35Z</time>
      </trkpt>
      <trkpt lat="40.8722650" lon="-4.0493300">
        <ele>1398.2</ele>
        <time>2019-04-28T07:16:36Z</time>
      </trkpt>
      <trkpt lat="40.8722450" lon="-4.0493400">
        <ele>1398.4</ele>
        <time>2019-04-28T07:16:37Z</time>
      </trkpt>
      <trkpt lat="40.8722230" lon="-4.0493500">
        <ele>1398.6</ele>
        <time>2019-04-28T07:16:38Z</time>
      </trkpt>
      <trkpt lat="40.8722020" lon="-4.0493580">
        <ele>1398.8</ele>
        <time>2019-04-28T07:16:39Z</time>
      </trkpt>
      <trkpt lat="40.8721800" lon="-4.0493670">
        <ele>1398.8</ele>
        <time>2019-04-28T07:16:40Z</time>
      </trkpt>
      <trkpt lat="40.8721570" lon="-4.0493750">
        <ele>1399.0</ele>
        <time>2019-04-28T07:16:41Z</time>
      </trkpt>
      <trkpt lat="40.8721350" lon="-4.0493850">
        <ele>1399.2</ele>
        <time>2019-04-28T07:16:42Z</time>
      </trkpt>
      <trkpt lat="40.8721140" lon="-4.0493980">
        <ele>1399.4</ele>
        <time>2019-04-28T07:16:43Z</time>
      </trkpt>
      <trkpt lat="40.8720930" lon="-4.0494110">
        <ele>1399.6</ele>
        <time>2019-04-28T07:16:44Z</time>
      </trkpt>
      <trkpt lat="40.8720750" lon="-4.0494220">
        <ele>1399.6</ele>
        <time>2019-04-28T07:16:45Z</time>
      </trkpt>
      <trkpt lat="40.8720540" lon="-4.0494330">
        <ele>1399.8</ele>
        <time>2019-04-28T07:16:46Z</time>
      </trkpt>
      <trkpt lat="40.8720320" lon="-4.0494390">
        <ele>1400.0</ele>
        <time>2019-04-28T07:16:47Z</time>
      </trkpt>
      <trkpt lat="40.8720140" lon="-4.0494500">
        <ele>1400.2</ele>
        <time>2019-04-28T07:16:48Z</time>
      </trkpt>
      <trkpt lat="40.8719900" lon="-4.0494610">
        <ele>1400.4</ele>
        <time>2019-04-28T07:16:49Z</time>
      </trkpt>
      <trkpt lat="40.8719680" lon="-4.0494720">
        <ele>1400.4</ele>
        <time>2019-04-28T07:16:50Z</time>
      </trkpt>
      <trkpt lat="40.8719470" lon="-4.0494830">
        <ele>1400.6</ele>
        <time>2019-04-28T07:16:51Z</time>
      </trkpt>
      <trkpt lat="40.8719250" lon="-4.0494940">
        <ele>1400.8</ele>
        <time>2019-04-28T07:16:52Z</time>
      </trkpt>
      <trkpt lat="40.8719030" lon="-4.0495060">
        <ele>1401.0</ele>
        <time>2019-04-28T07:16:53Z</time>
      </trkpt>
      <trkpt lat="40.8718820" lon="-4.0495170">
        <ele>1401.2</ele>
        <time>2019-04-28T07:16:54Z</time>
      </trkpt>
      <trkpt lat="40.8718600" lon="-4.0495270">
        <ele>1401.4</ele>
        <time>2019-04-28T07:16:55Z</time>
      </trkpt>
      <trkpt lat="40.8718380" lon="-4.0495360">
        <ele>1401.6</ele>
        <time>2019-04-28T07:16:56Z</time>
      </trkpt>
      <trkpt lat="40.8718170" lon="-4.0495460">
        <ele>1401.8</ele>
        <time>2019-04-28T07:16:57Z</time>
      </trkpt>
      <trkpt lat="40.8717970" lon="-4.0495590">
        <ele>1402.0</ele>
        <time>2019-04-28T07:16:58Z</time>
      </trkpt>
      <trkpt lat="40.8717770" lon="-4.0495730">
        <ele>1402.2</ele>
        <time>2019-04-28T07:16:59Z</time>
      </trkpt>
      <trkpt lat="40.8717560" lon="-4.0495860">
        <ele>1402.4</ele>
        <time>2019-04-28T07:17:00Z</time>
      </trkpt>
      <trkpt lat="40.8717340" lon="-4.0495980">
        <ele>1402.6</ele>
        <time>2019-04-28T07:17:01Z</time>
      </trkpt>
      <trkpt lat="40.8717130" lon="-4.0496110">
        <ele>1402.8</ele>
        <time>2019-04-28T07:17:02Z</time>
      </trkpt>
      <trkpt lat="40.8716920" lon="-4.0496230">
        <ele>1403.0</ele>
        <time>2019-04-28T07:17:03Z</time>
      </trkpt>
      <trkpt lat="40.8716700" lon="-4.0496320">
        <ele>1403.2</ele>
        <time>2019-04-28T07:17:04Z</time>
      </trkpt>
      <trkpt lat="40.8716490" lon="-4.0496400">
        <ele>1403.4</ele>
        <time>2019-04-28T07:17:05Z</time>
      </trkpt>
      <trkpt lat="40.8716280" lon="-4.0496480">
        <ele>1403.6</ele>
        <time>2019-04-28T07:17:06Z</time>
      </trkpt>
      <trkpt lat="40.8716080" lon="-4.0496590">
        <ele>1404.0</ele>
        <time>2019-04-28T07:17:07Z</time>
      </trkpt>
      <trkpt lat="40.8715880" lon="-4.0496710">
        <ele>1404.0</ele>
        <time>2019-04-28T07:17:08Z</time>
      </trkpt>
      <trkpt lat="40.8715670" lon="-4.0496830">
        <ele>1404.4</ele>
        <time>2019-04-28T07:17:09Z</time>
      </trkpt>
      <trkpt lat="40.8715470" lon="-4.0496950">
        <ele>1404.6</ele>
        <time>2019-04-28T07:17:10Z</time>
      </trkpt>
      <trkpt lat="40.8715260" lon="-4.0497050">
        <ele>1405.0</ele>
        <time>2019-04-28T07:17:11Z</time>
      </trkpt>
      <trkpt lat="40.8715090" lon="-4.0497150">
        <ele>1405.2</ele>
        <time>2019-04-28T07:17:12Z</time>
      </trkpt>
      <trkpt lat="40.8714880" lon="-4.0497240">
        <ele>1405.4</ele>
        <time>2019-04-28T07:17:13Z</time>
      </trkpt>
      <trkpt lat="40.8714660" lon="-4.0497340">
        <ele>1405.6</ele>
        <time>2019-04-28T07:17:14Z</time>
      </trkpt>
      <trkpt lat="40.8714460" lon="-4.0497460">
        <ele>1406.0</ele>
        <time>2019-04-28T07:17:15Z</time>
      </trkpt>
      <trkpt lat="40.8714270" lon="-4.0497580">
        <ele>1406.2</ele>
        <time>2019-04-28T07:17:16Z</time>
      </trkpt>
      <trkpt lat="40.8714090" lon="-4.0497700">
        <ele>1406.4</ele>
        <time>2019-04-28T07:17:17Z</time>
      </trkpt>
      <trkpt lat="40.8713880" lon="-4.0497810">
        <ele>1406.6</ele>
        <time>2019-04-28T07:17:18Z</time>
      </trkpt>
      <trkpt lat="40.8713720" lon="-4.0497910">
        <ele>1407.0</ele>
        <time>2019-04-28T07:17:19Z</time>
      </trkpt>
      <trkpt lat="40.8713560" lon="-4.0498000">
        <ele>1407.2</ele>
        <time>2019-04-28T07:17:20Z</time>
      </trkpt>
      <trkpt lat="40.8713370" lon="-4.0498110">
        <ele>1407.4</ele>
        <time>2019-04-28T07:17:21Z</time>
      </trkpt>
      <trkpt lat="40.8713200" lon="-4.0498220">
        <ele>1407.6</ele>
        <time>2019-04-28T07:17:22Z</time>
      </trkpt>
      <trkpt lat="40.8713060" lon="-4.0498320">
        <ele>1408.0</ele>
        <time>2019-04-28T07:17:23Z</time>
      </trkpt>
      <trkpt lat="40.8712890" lon="-4.0498410">
        <ele>1408.2</ele>
        <time>2019-04-28T07:17:24Z</time>
      </trkpt>
      <trkpt lat="40.8712740" lon="-4.0498480">
        <ele>1408.4</ele>
        <time>2019-04-28T07:17:25Z</time>
      </trkpt>
      <trkpt lat="40.8712580" lon="-4.0498600">
        <ele>1408.6</ele>
        <time>2019-04-28T07:17:26Z</time>
      </trkpt>
      <trkpt lat="40.8712370" lon="-4.0498680">
        <ele>1408.8</ele>
        <time>2019-04-28T07:17:27Z</time>
      </trkpt>
      <trkpt lat="40.8712240" lon="-4.0498830">
        <ele>1409.0</ele>
        <time>2019-04-28T07:17:28Z</time>
      </trkpt>
      <trkpt lat="40.8712040" lon="-4.0498930">
        <ele>1409.2</ele>
        <time>2019-04-28T07:17:29Z</time>
      </trkpt>
      <trkpt lat="40.8711800" lon="-4.0499040">
        <ele>1409.4</ele>
        <time>2019-04-28T07:17:30Z</time>
      </trkpt>
      <trkpt lat="40.8711580" lon="-4.0499170">
        <ele>1409.8</ele>
        <time>2019-04-28T07:17:31Z</time>
      </trkpt>
      <trkpt lat="40.8711370" lon="-4.0499270">
        <ele>1410.0</ele>
        <time>2019-04-28T07:17:32Z</time>
      </trkpt>
      <trkpt lat="40.8711160" lon="-4.0499390">
        <ele>1410.2</ele>
        <time>2019-04-28T07:17:33Z</time>
      </trkpt>
      <trkpt lat="40.8710960" lon="-4.0499500">
        <ele>1410.4</ele>
        <time>2019-04-28T07:17:34Z</time>
      </trkpt>
      <trkpt lat="40.8710750" lon="-4.0499600">
        <ele>1410.6</ele>
        <time>2019-04-28T07:17:35Z</time>
      </trkpt>
      <trkpt lat="40.8710550" lon="-4.0499720">
        <ele>1410.8</ele>
        <time>2019-04-28T07:17:36Z</time>
      </trkpt>
      <trkpt lat="40.8710340" lon="-4.0499820">
        <ele>1411.0</ele>
        <time>2019-04-28T07:17:37Z</time>
      </trkpt>
      <trkpt lat="40.8710130" lon="-4.0499910">
        <ele>1411.4</ele>
        <time>2019-04-28T07:17:38Z</time>
      </trkpt>
      <trkpt lat="40.8709930" lon="-4.0500010">
        <ele>1411.6</ele>
        <time>2019-04-28T07:17:39Z</time>
      </trkpt>
      <trkpt lat="40.8709730" lon="-4.0500130">
        <ele>1411.8</ele>
        <time>2019-04-28T07:17:40Z</time>
      </trkpt>
      <trkpt lat="40.8709520" lon="-4.0500230">
        <ele>1412.0</ele>
        <time>2019-04-28T07:17:41Z</time>
      </trkpt>
      <trkpt lat="40.8709300" lon="-4.0500310">
        <ele>1412.4</ele>
        <time>2019-04-28T07:17:42Z</time>
      </trkpt>
      <trkpt lat="40.8709100" lon="-4.0500390">
        <ele>1412.6</ele>
        <time>2019-04-28T07:17:43Z</time>
      </trkpt>
      <trkpt lat="40.8708900" lon="-4.0500490">
        <ele>1412.8</ele>
        <time>2019-04-28T07:17:44Z</time>
      </trkpt>
      <trkpt lat="40.8708720" lon="-4.0500600">
        <ele>1413.0</ele>
        <time>2019-04-28T07:17:45Z</time>
      </trkpt>
      <trkpt lat="40.8708520" lon="-4.0500730">
        <ele>1413.2</ele>
        <time>2019-04-28T07:17:46Z</time>
      </trkpt>
      <trkpt lat="40.8708290" lon="-4.0500840">
        <ele>1413.6</ele>
        <time>2019-04-28T07:17:47Z</time>
      </trkpt>
      <trkpt lat="40.8708070" lon="-4.0500940">
        <ele>1413.8</ele>
        <time>2019-04-28T07:17:48Z</time>
      </trkpt>
      <trkpt lat="40.8707880" lon="-4.0501020">
        <ele>1414.0</ele>
        <time>2019-04-28T07:17:49Z</time>
      </trkpt>
      <trkpt lat="40.8707690" lon="-4.0501040">
        <ele>1414.2</ele>
        <time>2019-04-28T07:17:50Z</time>
      </trkpt>
      <trkpt lat="40.8707510" lon="-4.0501060">
        <ele>1414.4</ele>
        <time>2019-04-28T07:17:51Z</time>
      </trkpt>
      <trkpt lat="40.8707330" lon="-4.0501100">
        <ele>1414.6</ele>
        <time>2019-04-28T07:17:52Z</time>
      </trkpt>
      <trkpt lat="40.8707100" lon="-4.0501240">
        <ele>1414.8</ele>
        <time>2019-04-28T07:17:53Z</time>
      </trkpt>
      <trkpt lat="40.8706880" lon="-4.0501360">
        <ele>1415.2</ele>
        <time>2019-04-28T07:17:54Z</time>
      </trkpt>
      <trkpt lat="40.8706720" lon="-4.0501460">
        <ele>1415.4</ele>
        <time>2019-04-28T07:17:55Z</time>
      </trkpt>
      <trkpt lat="40.8706510" lon="-4.0501570">
        <ele>1415.8</ele>
        <time>2019-04-28T07:17:56Z</time>
      </trkpt>
      <trkpt lat="40.8706290" lon="-4.0501680">
        <ele>1416.0</ele>
        <time>2019-04-28T07:17:57Z</time>
      </trkpt>
      <trkpt lat="40.8706100" lon="-4.0501780">
        <ele>1416.2</ele>
        <time>2019-04-28T07:17:58Z</time>
      </trkpt>
      <trkpt lat="40.8705890" lon="-4.0501890">
        <ele>1416.4</ele>
        <time>2019-04-28T07:17:59Z</time>
      </trkpt>
      <trkpt lat="40.8705660" lon="-4.0502010">
        <ele>1416.8</ele>
        <time>2019-04-28T07:18:00Z</time>
      </trkpt>
      <trkpt lat="40.8705450" lon="-4.0502140">
        <ele>1417.0</ele>
        <time>2019-04-28T07:18:01Z</time>
      </trkpt>
      <trkpt lat="40.8705240" lon="-4.0502250">
        <ele>1417.2</ele>
        <time>2019-04-28T07:18:02Z</time>
      </trkpt>
      <trkpt lat="40.8705020" lon="-4.0502370">
        <ele>1417.4</ele>
        <time>2019-04-28T07:18:03Z</time>
      </trkpt>
      <trkpt lat="40.8704800" lon="-4.0502490">
        <ele>1417.6</ele>
        <time>2019-04-28T07:18:04Z</time>
      </trkpt>
      <trkpt lat="40.8704650" lon="-4.0502580">
        <ele>1417.8</ele>
        <time>2019-04-28T07:18:05Z</time>
      </trkpt>
      <trkpt lat="40.8704450" lon="-4.0502690">
        <ele>1418.2</ele>
        <time>2019-04-28T07:18:06Z</time>
      </trkpt>
      <trkpt lat="40.8704230" lon="-4.0502790">
        <ele>1418.4</ele>
        <time>2019-04-28T07:18:07Z</time>
      </trkpt>
      <trkpt lat="40.8704020" lon="-4.0502860">
        <ele>1418.6</ele>
        <time>2019-04-28T07:18:08Z</time>
      </trkpt>
      <trkpt lat="40.8703810" lon="-4.0502890">
        <ele>1418.8</ele>
        <time>2019-04-28T07:18:09Z</time>
      </trkpt>
      <trkpt lat="40.8703590" lon="-4.0502930">
        <ele>1419.0</ele>
        <time>2019-04-28T07:18:10Z</time>
      </trkpt>
      <trkpt lat="40.8703400" lon="-4.0502990">
        <ele>1419.2</ele>
        <time>2019-04-28T07:18:11Z</time>
      </trkpt>
      <trkpt lat="40.8703180" lon="-4.0503040">
        <ele>1419.4</ele>
        <time>2019-04-28T07:18:12Z</time>
      </trkpt>
      <trkpt lat="40.8702970" lon="-4.0503070">
        <ele>1419.6</ele>
        <time>2019-04-28T07:18:13Z</time>
      </trkpt>
      <trkpt lat="40.8702760" lon="-4.0503120">
        <ele>1420.0</ele>
        <time>2019-04-28T07:18:14Z</time>
      </trkpt>
      <trkpt lat="40.8702560" lon="-4.0503170">
        <ele>1420.2</ele>
        <time>2019-04-28T07:18:15Z</time>
      </trkpt>
      <trkpt lat="40.8702370" lon="-4.0503210">
        <ele>1420.4</ele>
        <time>2019-04-28T07:18:16Z</time>
      </trkpt>
      <trkpt lat="40.8702160" lon="-4.0503270">
        <ele>1420.6</ele>
        <time>2019-04-28T07:18:17Z</time>
      </trkpt>
      <trkpt lat="40.8701950" lon="-4.0503290">
        <ele>1421.0</ele>
        <time>2019-04-28T07:18:18Z</time>
      </trkpt>
      <trkpt lat="40.8701710" lon="-4.0503300">
        <ele>1421.2</ele>
        <time>2019-04-28T07:18:19Z</time>
      </trkpt>
      <trkpt lat="40.8701510" lon="-4.0503300">
        <ele>1421.6</ele>
        <time>2019-04-28T07:18:20Z</time>
      </trkpt>
      <trkpt lat="40.8701320" lon="-4.0503320">
        <ele>1421.8</ele>
        <time>2019-04-28T07:18:21Z</time>
      </trkpt>
      <trkpt lat="40.8701110" lon="-4.0503300">
        <ele>1422.0</ele>
        <time>2019-04-28T07:18:22Z</time>
      </trkpt>
      <trkpt lat="40.8700900" lon="-4.0503270">
        <ele>1422.2</ele>
        <time>2019-04-28T07:18:23Z</time>
      </trkpt>
      <trkpt lat="40.8700710" lon="-4.0503260">
        <ele>1422.4</ele>
        <time>2019-04-28T07:18:24Z</time>
      </trkpt>
      <trkpt lat="40.8700530" lon="-4.0503260">
        <ele>1422.6</ele>
        <time>2019-04-28T07:18:25Z</time>
      </trkpt>
      <trkpt lat="40.8700340" lon="-4.0503260">
        <ele>1423.0</ele>
        <time>2019-04-28T07:18:26Z</time>
      </trkpt>
      <trkpt lat="40.8700150" lon="-4.0503270">
        <ele>1423.2</ele>
        <time>2019-04-28T07:18:27Z</time>
      </trkpt>
      <trkpt lat="40.8699970" lon="-4.0503280">
        <ele>1423.6</ele>
        <time>2019-04-28T07:18:28Z</time>
      </trkpt>
      <trkpt lat="40.8699760" lon="-4.0503250">
        <ele>1423.8</ele>
        <time>2019-04-28T07:18:29Z</time>
      </trkpt>
      <trkpt lat="40.8699570" lon="-4.0503250">
        <ele>1424.0</ele>
        <time>2019-04-28T07:18:30Z</time>
      </trkpt>
      <trkpt lat="40.8699400" lon="-4.0503260">
        <ele>1424.4</ele>
        <time>2019-04-28T07:18:31Z</time>
      </trkpt>
      <trkpt lat="40.8699250" lon="-4.0503260">
        <ele>1424.6</ele>
        <time>2019-04-28T07:18:32Z</time>
      </trkpt>
      <trkpt lat="40.8699090" lon="-4.0503260">
        <ele>1425.0</ele>
        <time>2019-04-28T07:18:33Z</time>
      </trkpt>
      <trkpt lat="40.8698980" lon="-4.0503240">
        <ele>1425.2</ele>
        <time>2019-04-28T07:18:34Z</time>
      </trkpt>
      <trkpt lat="40.8698850" lon="-4.0503220">
        <ele>1425.6</ele>
        <time>2019-04-28T07:18:35Z</time>
      </trkpt>
      <trkpt lat="40.8698710" lon="-4.0503200">
        <ele>1425.8</ele>
        <time>2019-04-28T07:18:36Z</time>
      </trkpt>
      <trkpt lat="40.8698570" lon="-4.0503220">
        <ele>1426.0</ele>
        <time>2019-04-28T07:18:37Z</time>
      </trkpt>
      <trkpt lat="40.8698510" lon="-4.0503190">
        <ele>1426.4</ele>
        <time>2019-04-28T07:18:38Z</time>
      </trkpt>
      <trkpt lat="40.8698360" lon="-4.0503140">
        <ele>1426.6</ele>
        <time>2019-04-28T07:18:39Z</time>
      </trkpt>
      <trkpt lat="40.8698150" lon="-4.0503130">
        <ele>1427.0</ele>
        <time>2019-04-28T07:18:40Z</time>
      </trkpt>
      <trkpt lat="40.8697970" lon="-4.0503120">
        <ele>1427.2</ele>
        <time>2019-04-28T07:18:41Z</time>
      </trkpt>
      <trkpt lat="40.8697830" lon="-4.0503120">
        <ele>1427.4</ele>
        <time>2019-04-28T07:18:42Z</time>
      </trkpt>
      <trkpt lat="40.8697670" lon="-4.0503110">
        <ele>1427.8</ele>
        <time>2019-04-28T07:18:43Z</time>
      </trkpt>
      <trkpt lat="40.8697480" lon="-4.0503160">
        <ele>1428.2</ele>
        <time>2019-04-28T07:18:44Z</time>
      </trkpt>
      <trkpt lat="40.8697360" lon="-4.0503140">
        <ele>1428.4</ele>
        <time>2019-04-28T07:18:45Z</time>
      </trkpt>
      <trkpt lat="40.8697180" lon="-4.0503120">
        <ele>1428.6</ele>
        <time>2019-04-28T07:18:46Z</time>
      </trkpt>
      <trkpt lat="40.8697000" lon="-4.0503140">
        <ele>1429.0</ele>
        <time>2019-04-28T07:18:47Z</time>
      </trkpt>
      <trkpt lat="40.8696760" lon="-4.0503150">
        <ele>1429.2</ele>
        <time>2019-04-28T07:18:48Z</time>
      </trkpt>
      <trkpt lat="40.8696540" lon="-4.0503170">
        <ele>1429.6</ele>
        <time>2019-04-28T07:18:49Z</time>
      </trkpt>
      <trkpt lat="40.8696320" lon="-4.0503200">
        <ele>1429.8</ele>
        <time>2019-04-28T07:18:50Z</time>
      </trkpt>
      <trkpt lat="40.8696140" lon="-4.0503280">
        <ele>1430.2</ele>
        <time>2019-04-28T07:18:51Z</time>
      </trkpt>
      <trkpt lat="40.8695860" lon="-4.0503260">
        <ele>1430.4</ele>
        <time>2019-04-28T07:18:52Z</time>
      </trkpt>
      <trkpt lat="40.8695640" lon="-4.0503240">
        <ele>1430.8</ele>
        <time>2019-04-28T07:18:53Z</time>
      </trkpt>
      <trkpt lat="40.8695440" lon="-4.0503230">
        <ele>1431.0</ele>
        <time>2019-04-28T07:18:54Z</time>
      </trkpt>
      <trkpt lat="40.8695240" lon="-4.0503210">
        <ele>1431.4</ele>
        <time>2019-04-28T07:18:55Z</time>
      </trkpt>
      <trkpt lat="40.8695030" lon="-4.0503230">
        <ele>1431.6</ele>
        <time>2019-04-28T07:18:56Z</time>
      </trkpt>
      <trkpt lat="40.8694830" lon="-4.0503240">
        <ele>1432.0</ele>
        <time>2019-04-28T07:18:57Z</time>
      </trkpt>
      <trkpt lat="40.8694600" lon="-4.0503250">
        <ele>1432.4</ele>
        <time>2019-04-28T07:18:58Z</time>
      </trkpt>
      <trkpt lat="40.8694390" lon="-4.0503240">
        <ele>1432.8</ele>
        <time>2019-04-28T07:18:59Z</time>
      </trkpt>
      <trkpt lat="40.8694170" lon="-4.0503200">
        <ele>1432.8</ele>
        <time>2019-04-28T07:19:00Z</time>
      </trkpt>
      <trkpt lat="40.8693950" lon="-4.0503260">
        <ele>1433.2</ele>
        <time>2019-04-28T07:19:01Z</time>
      </trkpt>
      <trkpt lat="40.8693750" lon="-4.0503360">
        <ele>1433.4</ele>
        <time>2019-04-28T07:19:02Z</time>
      </trkpt>
      <trkpt lat="40.8693570" lon="-4.0503440">
        <ele>1433.6</ele>
        <time>2019-04-28T07:19:03Z</time>
      </trkpt>
      <trkpt lat="40.8693370" lon="-4.0503490">
        <ele>1434.0</ele>
        <time>2019-04-28T07:19:04Z</time>
      </trkpt>
      <trkpt lat="40.8693170" lon="-4.0503520">
        <ele>1434.2</ele>
        <time>2019-04-28T07:19:05Z</time>
      </trkpt>
      <trkpt lat="40.8692960" lon="-4.0503570">
        <ele>1434.4</ele>
        <time>2019-04-28T07:19:06Z</time>
      </trkpt>
      <trkpt lat="40.8692770" lon="-4.0503610">
        <ele>1434.8</ele>
        <time>2019-04-28T07:19:07Z</time>
      </trkpt>
      <trkpt lat="40.8692570" lon="-4.0503650">
        <ele>1435.0</ele>
        <time>2019-04-28T07:19:08Z</time>
      </trkpt>
      <trkpt lat="40.8692380" lon="-4.0503670">
        <ele>1435.2</ele>
        <time>2019-04-28T07:19:09Z</time>
      </trkpt>
      <trkpt lat="40.8692190" lon="-4.0503720">
        <ele>1435.4</ele>
        <time>2019-04-28T07:19:10Z</time>
      </trkpt>
      <trkpt lat="40.8692000" lon="-4.0503770">
        <ele>1435.6</ele>
        <time>2019-04-28T07:19:11Z</time>
      </trkpt>
      <trkpt lat="40.8691820" lon="-4.0503830">
        <ele>1435.8</ele>
        <time>2019-04-28T07:19:12Z</time>
      </trkpt>
      <trkpt lat="40.8691650" lon="-4.0503910">
        <ele>1436.0</ele>
        <time>2019-04-28T07:19:13Z</time>
      </trkpt>
      <trkpt lat="40.8691460" lon="-4.0503960">
        <ele>1436.2</ele>
        <time>2019-04-28T07:19:14Z</time>
      </trkpt>
      <trkpt lat="40.8691290" lon="-4.0504060">
        <ele>1436.4</ele>
        <time>2019-04-28T07:19:15Z</time>
      </trkpt>
      <trkpt lat="40.8691120" lon="-4.0504160">
        <ele>1436.6</ele>
        <time>2019-04-28T07:19:16Z</time>
      </trkpt>
      <trkpt lat="40.8690930" lon="-4.0504220">
        <ele>1436.8</ele>
        <time>2019-04-28T07:19:17Z</time>
      </trkpt>
      <trkpt lat="40.8690720" lon="-4.0504240">
        <ele>1436.8</ele>
        <time>2019-04-28T07:19:18Z</time>
      </trkpt>
      <trkpt lat="40.8690550" lon="-4.0504310">
        <ele>1437.2</ele>
        <time>2019-04-28T07:19:19Z</time>
      </trkpt>
      <trkpt lat="40.8690370" lon="-4.0504370">
        <ele>1437.2</ele>
        <time>2019-04-28T07:19:20Z</time>
      </trkpt>
      <trkpt lat="40.8690190" lon="-4.0504460">
        <ele>1437.4</ele>
        <time>2019-04-28T07:19:21Z</time>
      </trkpt>
      <trkpt lat="40.8690000" lon="-4.0504530">
        <ele>1437.6</ele>
        <time>2019-04-28T07:19:22Z</time>
      </trkpt>
      <trkpt lat="40.8689830" lon="-4.0504590">
        <ele>1437.8</ele>
        <time>2019-04-28T07:19:23Z</time>
      </trkpt>
      <trkpt lat="40.8689660" lon="-4.0504690">
        <ele>1438.0</ele>
        <time>2019-04-28T07:19:24Z</time>
      </trkpt>
      <trkpt lat="40.8689470" lon="-4.0504790">
        <ele>1438.2</ele>
        <time>2019-04-28T07:19:25Z</time>
      </trkpt>
      <trkpt lat="40.8689290" lon="-4.0504850">
        <ele>1438.4</ele>
        <time>2019-04-28T07:19:26Z</time>
      </trkpt>
      <trkpt lat="40.8689110" lon="-4.0504910">
        <ele>1438.6</ele>
        <time>2019-04-28T07:19:27Z</time>
      </trkpt>
      <trkpt lat="40.8688950" lon="-4.0504980">
        <ele>1438.6</ele>
        <time>2019-04-28T07:19:28Z</time>
      </trkpt>
      <trkpt lat="40.8688780" lon="-4.0505040">
        <ele>1438.8</ele>
        <time>2019-04-28T07:19:29Z</time>
      </trkpt>
      <trkpt lat="40.8688600" lon="-4.0505100">
        <ele>1439.0</ele>
        <time>2019-04-28T07:19:30Z</time>
      </trkpt>
      <trkpt lat="40.8688430" lon="-4.0505170">
        <ele>1439.2</ele>
        <time>2019-04-28T07:19:31Z</time>
      </trkpt>
      <trkpt lat="40.8688260" lon="-4.0505230">
        <ele>1439.4</ele>
        <time>2019-04-28T07:19:32Z</time>
      </trkpt>
      <trkpt lat="40.8688090" lon="-4.0505290">
        <ele>1439.6</ele>
        <time>2019-04-28T07:19:33Z</time>
      </trkpt>
      <trkpt lat="40.8687930" lon="-4.0505360">
        <ele>1439.6</ele>
        <time>2019-04-28T07:19:34Z</time>
      </trkpt>
      <trkpt lat="40.8687770" lon="-4.0505430">
        <ele>1439.8</ele>
        <time>2019-04-28T07:19:35Z</time>
      </trkpt>
      <trkpt lat="40.8687610" lon="-4.0505500">
        <ele>1440.2</ele>
        <time>2019-04-28T07:19:36Z</time>
      </trkpt>
      <trkpt lat="40.8687440" lon="-4.0505530">
        <ele>1440.2</ele>
        <time>2019-04-28T07:19:37Z</time>
      </trkpt>
      <trkpt lat="40.8687290" lon="-4.0505600">
        <ele>1440.4</ele>
        <time>2019-04-28T07:19:38Z</time>
      </trkpt>
      <trkpt lat="40.8687150" lon="-4.0505670">
        <ele>1440.6</ele>
        <time>2019-04-28T07:19:39Z</time>
      </trkpt>
      <trkpt lat="40.8687000" lon="-4.0505760">
        <ele>1440.8</ele>
        <time>2019-04-28T07:19:40Z</time>
      </trkpt>
      <trkpt lat="40.8686840" lon="-4.0505830">
        <ele>1441.0</ele>
        <time>2019-04-28T07:19:41Z</time>
      </trkpt>
      <trkpt lat="40.8686660" lon="-4.0505900">
        <ele>1441.2</ele>
        <time>2019-04-28T07:19:42Z</time>
      </trkpt>
      <trkpt lat="40.8686480" lon="-4.0505970">
        <ele>1441.4</ele>
        <time>2019-04-28T07:19:43Z</time>
      </trkpt>
      <trkpt lat="40.8686320" lon="-4.0506030">
        <ele>1441.6</ele>
        <time>2019-04-28T07:19:44Z</time>
      </trkpt>
      <trkpt lat="40.8686140" lon="-4.0506050">
        <ele>1441.8</ele>
        <time>2019-04-28T07:19:45Z</time>
      </trkpt>
      <trkpt lat="40.8685960" lon="-4.0506090">
        <ele>1442.0</ele>
        <time>2019-04-28T07:19:46Z</time>
      </trkpt>
      <trkpt lat="40.8685780" lon="-4.0506170">
        <ele>1442.2</ele>
        <time>2019-04-28T07:19:47Z</time>
      </trkpt>
      <trkpt lat="40.8685610" lon="-4.0506250">
        <ele>1442.4</ele>
        <time>2019-04-28T07:19:48Z</time>
      </trkpt>
      <trkpt lat="40.8685450" lon="-4.0506340">
        <ele>1442.4</ele>
        <time>2019-04-28T07:19:49Z</time>
      </trkpt>
      <trkpt lat="40.8685280" lon="-4.0506420">
        <ele>1442.6</ele>
        <time>2019-04-28T07:19:50Z</time>
      </trkpt>
      <trkpt lat="40.8685110" lon="-4.0506480">
        <ele>1442.8</ele>
        <time>2019-04-28T07:19:51Z</time>
      </trkpt>
      <trkpt lat="40.8684940" lon="-4.0506550">
        <ele>1443.0</ele>
        <time>2019-04-28T07:19:52Z</time>
      </trkpt>
      <trkpt lat="40.8684760" lon="-4.0506600">
        <ele>1443.0</ele>
        <time>2019-04-28T07:19:53Z</time>
      </trkpt>
      <trkpt lat="40.8684590" lon="-4.0506670">
        <ele>1443.2</ele>
        <time>2019-04-28T07:19:54Z</time>
      </trkpt>
      <trkpt lat="40.8684410" lon="-4.0506730">
        <ele>1443.4</ele>
        <time>2019-04-28T07:19:55Z</time>
      </trkpt>
      <trkpt lat="40.8684230" lon="-4.0506800">
        <ele>1443.6</ele>
        <time>2019-04-28T07:19:56Z</time>
      </trkpt>
      <trkpt lat="40.8684060" lon="-4.0506900">
        <ele>1443.6</ele>
        <time>2019-04-28T07:19:57Z</time>
      </trkpt>
      <trkpt lat="40.8683880" lon="-4.0506980">
        <ele>1443.8</ele>
        <time>2019-04-28T07:19:58Z</time>
      </trkpt>
      <trkpt lat="40.8683700" lon="-4.0507040">
        <ele>1444.0</ele>
        <time>2019-04-28T07:19:59Z</time>
      </trkpt>
      <trkpt lat="40.8683510" lon="-4.0507090">
        <ele>1444.2</ele>
        <time>2019-04-28T07:20:00Z</time>
      </trkpt>
      <trkpt lat="40.8683330" lon="-4.0507170">
        <ele>1444.4</ele>
        <time>2019-04-28T07:20:01Z</time>
      </trkpt>
      <trkpt lat="40.8683150" lon="-4.0507240">
        <ele>1444.4</ele>
        <time>2019-04-28T07:20:02Z</time>
      </trkpt>
      <trkpt lat="40.8682960" lon="-4.0507310">
        <ele>1444.6</ele>
        <time>2019-04-28T07:20:03Z</time>
      </trkpt>
      <trkpt lat="40.8682770" lon="-4.0507370">
        <ele>1444.6</ele>
        <time>2019-04-28T07:20:04Z</time>
      </trkpt>
      <trkpt lat="40.8682570" lon="-4.0507440">
        <ele>1444.8</ele>
        <time>2019-04-28T07:20:05Z</time>
      </trkpt>
      <trkpt lat="40.8682360" lon="-4.0507490">
        <ele>1444.8</ele>
        <time>2019-04-28T07:20:06Z</time>
      </trkpt>
      <trkpt lat="40.8682190" lon="-4.0507570">
        <ele>1445.0</ele>
        <time>2019-04-28T07:20:07Z</time>
      </trkpt>
      <trkpt lat="40.8682000" lon="-4.0507650">
        <ele>1445.2</ele>
        <time>2019-04-28T07:20:08Z</time>
      </trkpt>
      <trkpt lat="40.8681800" lon="-4.0507700">
        <ele>1445.4</ele>
        <time>2019-04-28T07:20:09Z</time>
      </trkpt>
      <trkpt lat="40.8681610" lon="-4.0507750">
        <ele>1445.6</ele>
        <time>2019-04-28T07:20:10Z</time>
      </trkpt>
      <trkpt lat="40.8681440" lon="-4.0507810">
        <ele>1445.6</ele>
        <time>2019-04-28T07:20:11Z</time>
      </trkpt>
      <trkpt lat="40.8681250" lon="-4.0507850">
        <ele>1445.8</ele>
        <time>2019-04-28T07:20:12Z</time>
      </trkpt>
      <trkpt lat="40.8681060" lon="-4.0507900">
        <ele>1445.8</ele>
        <time>2019-04-28T07:20:13Z</time>
      </trkpt>
      <trkpt lat="40.8680880" lon="-4.0508000">
        <ele>1446.0</ele>
        <time>2019-04-28T07:20:14Z</time>
      </trkpt>
      <trkpt lat="40.8680710" lon="-4.0508090">
        <ele>1446.0</ele>
        <time>2019-04-28T07:20:15Z</time>
      </trkpt>
      <trkpt lat="40.8680500" lon="-4.0508150">
        <ele>1446.2</ele>
        <time>2019-04-28T07:20:16Z</time>
      </trkpt>
      <trkpt lat="40.8680300" lon="-4.0508220">
        <ele>1446.4</ele>
        <time>2019-04-28T07:20:17Z</time>
      </trkpt>
      <trkpt lat="40.8680110" lon="-4.0508290">
        <ele>1446.6</ele>
        <time>2019-04-28T07:20:18Z</time>
      </trkpt>
      <trkpt lat="40.8679930" lon="-4.0508350">
        <ele>1446.6</ele>
        <time>2019-04-28T07:20:19Z</time>
      </trkpt>
      <trkpt lat="40.8679720" lon="-4.0508410">
        <ele>1446.8</ele>
        <time>2019-04-28T07:20:20Z</time>
      </trkpt>
      <trkpt lat="40.8679540" lon="-4.0508490">
        <ele>1447.0</ele>
        <time>2019-04-28T07:20:21Z</time>
      </trkpt>
      <trkpt lat="40.8679440" lon="-4.0508540">
        <ele>1447.0</ele>
        <time>2019-04-28T07:20:22Z</time>
      </trkpt>
      <trkpt lat="40.8679290" lon="-4.0508580">
        <ele>1447.2</ele>
        <time>2019-04-28T07:20:23Z</time>
      </trkpt>
      <trkpt lat="40.8679040" lon="-4.0508520">
        <ele>1447.4</ele>
        <time>2019-04-28T07:20:24Z</time>
      </trkpt>
      <trkpt lat="40.8678860" lon="-4.0508560">
        <ele>1447.6</ele>
        <time>2019-04-28T07:20:25Z</time>
      </trkpt>
      <trkpt lat="40.8678690" lon="-4.0508560">
        <ele>1447.8</ele>
        <time>2019-04-28T07:20:26Z</time>
      </trkpt>
      <trkpt lat="40.8678500" lon="-4.0508620">
        <ele>1448.0</ele>
        <time>2019-04-28T07:20:27Z</time>
      </trkpt>
      <trkpt lat="40.8678320" lon="-4.0508660">
        <ele>1448.2</ele>
        <time>2019-04-28T07:20:28Z</time>
      </trkpt>
      <trkpt lat="40.8678180" lon="-4.0508710">
        <ele>1448.2</ele>
        <time>2019-04-28T07:20:29Z</time>
      </trkpt>
      <trkpt lat="40.8678000" lon="-4.0508760">
        <ele>1448.6</ele>
        <time>2019-04-28T07:20:30Z</time>
      </trkpt>
      <trkpt lat="40.8677810" lon="-4.0508810">
        <ele>1448.8</ele>
        <time>2019-04-28T07:20:31Z</time>
      </trkpt>
      <trkpt lat="40.8677580" lon="-4.0508770">
        <ele>1448.8</ele>
        <time>2019-04-28T07:20:32Z</time>
      </trkpt>
      <trkpt lat="40.8677350" lon="-4.0508820">
        <ele>1449.0</ele>
        <time>2019-04-28T07:20:33Z</time>
      </trkpt>
      <trkpt lat="40.8677170" lon="-4.0508890">
        <ele>1449.2</ele>
        <time>2019-04-28T07:20:34Z</time>
      </trkpt>
      <trkpt lat="40.8677000" lon="-4.0508930">
        <ele>1449.4</ele>
        <time>2019-04-28T07:20:35Z</time>
      </trkpt>
      <trkpt lat="40.8676820" lon="-4.0508970">
        <ele>1449.6</ele>
        <time>2019-04-28T07:20:36Z</time>
      </trkpt>
      <trkpt lat="40.8676610" lon="-4.0509020">
        <ele>1449.8</ele>
        <time>2019-04-28T07:20:37Z</time>
      </trkpt>
      <trkpt lat="40.8676420" lon="-4.0509070">
        <ele>1450.0</ele>
        <time>2019-04-28T07:20:38Z</time>
      </trkpt>
      <trkpt lat="40.8676250" lon="-4.0509080">
        <ele>1450.2</ele>
        <time>2019-04-28T07:20:39Z</time>
      </trkpt>
      <trkpt lat="40.8676110" lon="-4.0509150">
        <ele>1450.4</ele>
        <time>2019-04-28T07:20:40Z</time>
      </trkpt>
      <trkpt lat="40.8675950" lon="-4.0509180">
        <ele>1450.6</ele>
        <time>2019-04-28T07:20:41Z</time>
      </trkpt>
      <trkpt lat="40.8675710" lon="-4.0509140">
        <ele>1450.8</ele>
        <time>2019-04-28T07:20:42Z</time>
      </trkpt>
      <trkpt lat="40.8675540" lon="-4.0509230">
        <ele>1451.0</ele>
        <time>2019-04-28T07:20:43Z</time>
      </trkpt>
      <trkpt lat="40.8675380" lon="-4.0509310">
        <ele>1451.2</ele>
        <time>2019-04-28T07:20:44Z</time>
      </trkpt>
      <trkpt lat="40.8675230" lon="-4.0509320">
        <ele>1451.2</ele>
        <time>2019-04-28T07:20:45Z</time>
      </trkpt>
      <trkpt lat="40.8675090" lon="-4.0509350">
        <ele>1451.4</ele>
        <time>2019-04-28T07:20:46Z</time>
      </trkpt>
      <trkpt lat="40.8674980" lon="-4.0509380">
        <ele>1451.6</ele>
        <time>2019-04-28T07:20:47Z</time>
      </trkpt>
      <trkpt lat="40.8674870" lon="-4.0509400">
        <ele>1451.8</ele>
        <time>2019-04-28T07:20:48Z</time>
      </trkpt>
      <trkpt lat="40.8674770" lon="-4.0509440">
        <ele>1452.0</ele>
        <time>2019-04-28T07:20:49Z</time>
      </trkpt>
      <trkpt lat="40.8674640" lon="-4.0509460">
        <ele>1452.0</ele>
        <time>2019-04-28T07:20:50Z</time>
      </trkpt>
      <trkpt lat="40.8674480" lon="-4.0509460">
        <ele>1452.2</ele>
        <time>2019-04-28T07:20:51Z</time>
      </trkpt>
      <trkpt lat="40.8674250" lon="-4.0509470">
        <ele>1452.4</ele>
        <time>2019-04-28T07:20:52Z</time>
      </trkpt>
      <trkpt lat="40.8674060" lon="-4.0509480">
        <ele>1452.6</ele>
        <time>2019-04-28T07:20:53Z</time>
      </trkpt>
      <trkpt lat="40.8673850" lon="-4.0509480">
        <ele>1452.6</ele>
        <time>2019-04-28T07:20:54Z</time>
      </trkpt>
      <trkpt lat="40.8673650" lon="-4.0509450">
        <ele>1452.8</ele>
        <time>2019-04-28T07:20:55Z</time>
      </trkpt>
      <trkpt lat="40.8673490" lon="-4.0509400">
        <ele>1453.0</ele>
        <time>2019-04-28T07:20:56Z</time>
      </trkpt>
      <trkpt lat="40.8673320" lon="-4.0509350">
        <ele>1453.2</ele>
        <time>2019-04-28T07:20:57Z</time>
      </trkpt>
      <trkpt lat="40.8673120" lon="-4.0509270">
        <ele>1453.4</ele>
        <time>2019-04-28T07:20:58Z</time>
      </trkpt>
      <trkpt lat="40.8672950" lon="-4.0509250">
        <ele>1453.6</ele>
        <time>2019-04-28T07:20:59Z</time>
      </trkpt>
      <trkpt lat="40.8672710" lon="-4.0509270">
        <ele>1453.6</ele>
        <time>2019-04-28T07:21:00Z</time>
      </trkpt>
      <trkpt lat="40.8672480" lon="-4.0509230">
        <ele>1453.8</ele>
        <time>2019-04-28T07:21:01Z</time>
      </trkpt>
      <trkpt lat="40.8672280" lon="-4.0509190">
        <ele>1454.0</ele>
        <time>2019-04-28T07:21:02Z</time>
      </trkpt>
      <trkpt lat="40.8672080" lon="-4.0509260">
        <ele>1454.2</ele>
        <time>2019-04-28T07:21:03Z</time>
      </trkpt>
      <trkpt lat="40.8671850" lon="-4.0509330">
        <ele>1454.4</ele>
        <time>2019-04-28T07:21:04Z</time>
      </trkpt>
      <trkpt lat="40.8671600" lon="-4.0509400">
        <ele>1454.6</ele>
        <time>2019-04-28T07:21:05Z</time>
      </trkpt>
      <trkpt lat="40.8671420" lon="-4.0509430">
        <ele>1454.8</ele>
        <time>2019-04-28T07:21:06Z</time>
      </trkpt>
      <trkpt lat="40.8671220" lon="-4.0509440">
        <ele>1455.0</ele>
        <time>2019-04-28T07:21:07Z</time>
      </trkpt>
      <trkpt lat="40.8671000" lon="-4.0509440">
        <ele>1455.2</ele>
        <time>2019-04-28T07:21:08Z</time>
      </trkpt>
      <trkpt lat="40.8670860" lon="-4.0509400">
        <ele>1455.4</ele>
        <time>2019-04-28T07:21:09Z</time>
      </trkpt>
      <trkpt lat="40.8670620" lon="-4.0509530">
        <ele>1455.4</ele>
        <time>2019-04-28T07:21:10Z</time>
      </trkpt>
      <trkpt lat="40.8670410" lon="-4.0509600">
        <ele>1455.8</ele>
        <time>2019-04-28T07:21:11Z</time>
      </trkpt>
      <trkpt lat="40.8670190" lon="-4.0509490">
        <ele>1455.8</ele>
        <time>2019-04-28T07:21:12Z</time>
      </trkpt>
      <trkpt lat="40.8670030" lon="-4.0509500">
        <ele>1456.0</ele>
        <time>2019-04-28T07:21:13Z</time>
      </trkpt>
      <trkpt lat="40.8669840" lon="-4.0509450">
        <ele>1456.2</ele>
        <time>2019-04-28T07:21:14Z</time>
      </trkpt>
      <trkpt lat="40.8669700" lon="-4.0509420">
        <ele>1456.4</ele>
        <time>2019-04-28T07:21:15Z</time>
      </trkpt>
      <trkpt lat="40.8669540" lon="-4.0509370">
        <ele>1456.6</ele>
        <time>2019-04-28T07:21:16Z</time>
      </trkpt>
      <trkpt lat="40.8669330" lon="-4.0509330">
        <ele>1457.0</ele>
        <time>2019-04-28T07:21:17Z</time>
      </trkpt>
      <trkpt lat="40.8669220" lon="-4.0509340">
        <ele>1457.2</ele>
        <time>2019-04-28T07:21:18Z</time>
      </trkpt>
      <trkpt lat="40.8668940" lon="-4.0509310">
        <ele>1457.4</ele>
        <time>2019-04-28T07:21:19Z</time>
      </trkpt>
      <trkpt lat="40.8668780" lon="-4.0509350">
        <ele>1457.6</ele>
        <time>2019-04-28T07:21:20Z</time>
      </trkpt>
      <trkpt lat="40.8668590" lon="-4.0509400">
        <ele>1458.0</ele>
        <time>2019-04-28T07:21:21Z</time>
      </trkpt>
      <trkpt lat="40.8668430" lon="-4.0509430">
        <ele>1458.2</ele>
        <time>2019-04-28T07:21:22Z</time>
      </trkpt>
      <trkpt lat="40.8668140" lon="-4.0509390">
        <ele>1458.4</ele>
        <time>2019-04-28T07:21:23Z</time>
      </trkpt>
      <trkpt lat="40.8667920" lon="-4.0509390">
        <ele>1458.8</ele>
        <time>2019-04-28T07:21:24Z</time>
      </trkpt>
      <trkpt lat="40.8667660" lon="-4.0509390">
        <ele>1459.0</ele>
        <time>2019-04-28T07:21:25Z</time>
      </trkpt>
      <trkpt lat="40.8667400" lon="-4.0509360">
        <ele>1459.2</ele>
        <time>2019-04-28T07:21:26Z</time>
      </trkpt>
      <trkpt lat="40.8667230" lon="-4.0509330">
        <ele>1459.6</ele>
        <time>2019-04-28T07:21:27Z</time>
      </trkpt>
      <trkpt lat="40.8667000" lon="-4.0509300">
        <ele>1459.8</ele>
        <time>2019-04-28T07:21:28Z</time>
      </trkpt>
      <trkpt lat="40.8666750" lon="-4.0509320">
        <ele>1460.2</ele>
        <time>2019-04-28T07:21:29Z</time>
      </trkpt>
      <trkpt lat="40.8666600" lon="-4.0509290">
        <ele>1460.4</ele>
        <time>2019-04-28T07:21:30Z</time>
      </trkpt>
      <trkpt lat="40.8666340" lon="-4.0509270">
        <ele>1460.6</ele>
        <time>2019-04-28T07:21:31Z</time>
      </trkpt>
      <trkpt lat="40.8666190" lon="-4.0509270">
        <ele>1460.8</ele>
        <time>2019-04-28T07:21:32Z</time>
      </trkpt>
      <trkpt lat="40.8665990" lon="-4.0509240">
        <ele>1461.2</ele>
        <time>2019-04-28T07:21:33Z</time>
      </trkpt>
      <trkpt lat="40.8665790" lon="-4.0509260">
        <ele>1461.4</ele>
        <time>2019-04-28T07:21:34Z</time>
      </trkpt>
      <trkpt lat="40.8665500" lon="-4.0509240">
        <ele>1461.6</ele>
        <time>2019-04-28T07:21:35Z</time>
      </trkpt>
      <trkpt lat="40.8665360" lon="-4.0509240">
        <ele>1461.8</ele>
        <time>2019-04-28T07:21:36Z</time>
      </trkpt>
      <trkpt lat="40.8665150" lon="-4.0509250">
        <ele>1462.0</ele>
        <time>2019-04-28T07:21:37Z</time>
      </trkpt>
      <trkpt lat="40.8664970" lon="-4.0509270">
        <ele>1462.2</ele>
        <time>2019-04-28T07:21:38Z</time>
      </trkpt>
      <trkpt lat="40.8664760" lon="-4.0509290">
        <ele>1462.4</ele>
        <time>2019-04-28T07:21:39Z</time>
      </trkpt>
      <trkpt lat="40.8664590" lon="-4.0509310">
        <ele>1462.6</ele>
        <time>2019-04-28T07:21:40Z</time>
      </trkpt>
      <trkpt lat="40.8664460" lon="-4.0509320">
        <ele>1462.8</ele>
        <time>2019-04-28T07:21:41Z</time>
      </trkpt>
      <trkpt lat="40.8664270" lon="-4.0509340">
        <ele>1463.0</ele>
        <time>2019-04-28T07:21:42Z</time>
      </trkpt>
      <trkpt lat="40.8664020" lon="-4.0509410">
        <ele>1463.2</ele>
        <time>2019-04-28T07:21:43Z</time>
      </trkpt>
      <trkpt lat="40.8663830" lon="-4.0509480">
        <ele>1463.4</ele>
        <time>2019-04-28T07:21:44Z</time>
      </trkpt>
      <trkpt lat="40.8663740" lon="-4.0509500">
        <ele>1463.6</ele>
        <time>2019-04-28T07:21:45Z</time>
      </trkpt>
      <trkpt lat="40.8663610" lon="-4.0509530">
        <ele>1463.8</ele>
        <time>2019-04-28T07:21:46Z</time>
      </trkpt>
      <trkpt lat="40.8663390" lon="-4.0509570">
        <ele>1464.0</ele>
        <time>2019-04-28T07:21:47Z</time>
      </trkpt>
      <trkpt lat="40.8663050" lon="-4.0509720">
        <ele>1464.0</ele>
        <time>2019-04-28T07:21:48Z</time>
      </trkpt>
      <trkpt lat="40.8662790" lon="-4.0509850">
        <ele>1464.2</ele>
        <time>2019-04-28T07:21:49Z</time>
      </trkpt>
      <trkpt lat="40.8662560" lon="-4.0509990">
        <ele>1464.4</ele>
        <time>2019-04-28T07:21:50Z</time>
      </trkpt>
      <trkpt lat="40.8662290" lon="-4.0510150">
        <ele>1464.6</ele>
        <time>2019-04-28T07:21:51Z</time>
      </trkpt>
      <trkpt lat="40.8662030" lon="-4.0510270">
        <ele>1464.6</ele>
        <time>2019-04-28T07:21:52Z</time>
      </trkpt>
      <trkpt lat="40.8661820" lon="-4.0510340">
        <ele>1464.8</ele>
        <time>2019-04-28T07:21:53Z</time>
      </trkpt>
      <trkpt lat="40.8661750" lon="-4.0510430">
        <ele>1465.0</ele>
        <time>2019-04-28T07:21:54Z</time>
      </trkpt>
      <trkpt lat="40.8661630" lon="-4.0510470">
        <ele>1465.2</ele>
        <time>2019-04-28T07:21:55Z</time>
      </trkpt>
      <trkpt lat="40.8661430" lon="-4.0510560">
        <ele>1465.4</ele>
        <time>2019-04-28T07:21:56Z</time>
      </trkpt>
      <trkpt lat="40.8661210" lon="-4.0510660">
        <ele>1465.6</ele>
        <time>2019-04-28T07:21:57Z</time>
      </trkpt>
      <trkpt lat="40.8660940" lon="-4.0510780">
        <ele>1465.8</ele>
        <time>2019-04-28T07:21:58Z</time>
      </trkpt>
      <trkpt lat="40.8660740" lon="-4.0510860">
        <ele>1466.0</ele>
        <time>2019-04-28T07:21:59Z</time>
      </trkpt>
      <trkpt lat="40.8660570" lon="-4.0510920">
        <ele>1466.2</ele>
        <time>2019-04-28T07:22:00Z</time>
      </trkpt>
      <trkpt lat="40.8660320" lon="-4.0511040">
        <ele>1466.4</ele>
        <time>2019-04-28T07:22:01Z</time>
      </trkpt>
      <trkpt lat="40.8660090" lon="-4.0511180">
        <ele>1466.6</ele>
        <time>2019-04-28T07:22:02Z</time>
      </trkpt>
      <trkpt lat="40.8659840" lon="-4.0511310">
        <ele>1466.6</ele>
        <time>2019-04-28T07:22:03Z</time>
      </trkpt>
      <trkpt lat="40.8659650" lon="-4.0511410">
        <ele>1467.0</ele>
        <time>2019-04-28T07:22:04Z</time>
      </trkpt>
      <trkpt lat="40.8659450" lon="-4.0511490">
        <ele>1467.0</ele>
        <time>2019-04-28T07:22:05Z</time>
      </trkpt>
      <trkpt lat="40.8659240" lon="-4.0511580">
        <ele>1467.2</ele>
        <time>2019-04-28T07:22:06Z</time>
      </trkpt>
      <trkpt lat="40.8659040" lon="-4.0511670">
        <ele>1467.4</ele>
        <time>2019-04-28T07:22:07Z</time>
      </trkpt>
      <trkpt lat="40.8658850" lon="-4.0511800">
        <ele>1467.8</ele>
        <time>2019-04-28T07:22:08Z</time>
      </trkpt>
      <trkpt lat="40.8658670" lon="-4.0511910">
        <ele>1467.8</ele>
        <time>2019-04-28T07:22:09Z</time>
      </trkpt>
      <trkpt lat="40.8658530" lon="-4.0511980">
        <ele>1468.0</ele>
        <time>2019-04-28T07:22:10Z</time>
      </trkpt>
      <trkpt lat="40.8658390" lon="-4.0512050">
        <ele>1468.2</ele>
        <time>2019-04-28T07:22:11Z</time>
      </trkpt>
      <trkpt lat="40.8658260" lon="-4.0512090">
        <ele>1468.4</ele>
        <time>2019-04-28T07:22:12Z</time>
      </trkpt>
      <trkpt lat="40.8658130" lon="-4.0512150">
        <ele>1468.6</ele>
        <time>2019-04-28T07:22:13Z</time>
      </trkpt>
      <trkpt lat="40.8657990" lon="-4.0512200">
        <ele>1468.8</ele>
        <time>2019-04-28T07:22:14Z</time>
      </trkpt>
      <trkpt lat="40.8657790" lon="-4.0512250">
        <ele>1469.0</ele>
        <time>2019-04-28T07:22:15Z</time>
      </trkpt>
      <trkpt lat="40.8657610" lon="-4.0512280">
        <ele>1469.2</ele>
        <time>2019-04-28T07:22:16Z</time>
      </trkpt>
      <trkpt lat="40.8657400" lon="-4.0512330">
        <ele>1469.2</ele>
        <time>2019-04-28T07:22:17Z</time>
      </trkpt>
      <trkpt lat="40.8657200" lon="-4.0512400">
        <ele>1469.4</ele>
        <time>2019-04-28T07:22:18Z</time>
      </trkpt>
      <trkpt lat="40.8656930" lon="-4.0512430">
        <ele>1469.6</ele>
        <time>2019-04-28T07:22:19Z</time>
      </trkpt>
      <trkpt lat="40.8656690" lon="-4.0512450">
        <ele>1469.6</ele>
        <time>2019-04-28T07:22:20Z</time>
      </trkpt>
      <trkpt lat="40.8656460" lon="-4.0512520">
        <ele>1469.8</ele>
        <time>2019-04-28T07:22:21Z</time>
      </trkpt>
      <trkpt lat="40.8656270" lon="-4.0512600">
        <ele>1470.0</ele>
        <time>2019-04-28T07:22:22Z</time>
      </trkpt>
      <trkpt lat="40.8656000" lon="-4.0512690">
        <ele>1470.2</ele>
        <time>2019-04-28T07:22:23Z</time>
      </trkpt>
      <trkpt lat="40.8655720" lon="-4.0512780">
        <ele>1470.4</ele>
        <time>2019-04-28T07:22:24Z</time>
      </trkpt>
      <trkpt lat="40.8655430" lon="-4.0512870">
        <ele>1470.4</ele>
        <time>2019-04-28T07:22:25Z</time>
      </trkpt>
      <trkpt lat="40.8655110" lon="-4.0512990">
        <ele>1470.6</ele>
        <time>2019-04-28T07:22:26Z</time>
      </trkpt>
      <trkpt lat="40.8654850" lon="-4.0513100">
        <ele>1470.8</ele>
        <time>2019-04-28T07:22:27Z</time>
      </trkpt>
      <trkpt lat="40.8654550" lon="-4.0513200">
        <ele>1471.0</ele>
        <time>2019-04-28T07:22:28Z</time>
      </trkpt>
      <trkpt lat="40.8654310" lon="-4.0513360">
        <ele>1471.0</ele>
        <time>2019-04-28T07:22:29Z</time>
      </trkpt>
      <trkpt lat="40.8654020" lon="-4.0513490">
        <ele>1471.2</ele>
        <time>2019-04-28T07:22:30Z</time>
      </trkpt>
      <trkpt lat="40.8653720" lon="-4.0513580">
        <ele>1471.2</ele>
        <time>2019-04-28T07:22:31Z</time>
      </trkpt>
      <trkpt lat="40.8653350" lon="-4.0513630">
        <ele>1471.2</ele>
        <time>2019-04-28T07:22:32Z</time>
      </trkpt>
      <trkpt lat="40.8652990" lon="-4.0513720">
        <ele>1471.2</ele>
        <time>2019-04-28T07:22:33Z</time>
      </trkpt>
      <trkpt lat="40.8652660" lon="-4.0513700">
        <ele>1471.2</ele>
        <time>2019-04-28T07:22:34Z</time>
      </trkpt>
      <trkpt lat="40.8652270" lon="-4.0513670">
        <ele>1471.2</ele>
        <time>2019-04-28T07:22:35Z</time>
      </trkpt>
      <trkpt lat="40.8651960" lon="-4.0513730">
        <ele>1471.2</ele>
        <time>2019-04-28T07:22:36Z</time>
      </trkpt>
      <trkpt lat="40.8651720" lon="-4.0513860">
        <ele>1471.2</ele>
        <time>2019-04-28T07:22:37Z</time>
      </trkpt>
      <trkpt lat="40.8651460" lon="-4.0514000">
        <ele>1471.2</ele>
        <time>2019-04-28T07:22:38Z</time>
      </trkpt>
      <trkpt lat="40.8651070" lon="-4.0514040">
        <ele>1471.2</ele>
        <time>2019-04-28T07:22:39Z</time>
      </trkpt>
      <trkpt lat="40.8650810" lon="-4.0514160">
        <ele>1471.0</ele>
        <time>2019-04-28T07:22:40Z</time>
      </trkpt>
      <trkpt lat="40.8650590" lon="-4.0514300">
        <ele>1471.0</ele>
        <time>2019-04-28T07:22:41Z</time>
      </trkpt>
      <trkpt lat="40.8650340" lon="-4.0514480">
        <ele>1471.2</ele>
        <time>2019-04-28T07:22:42Z</time>
      </trkpt>
      <trkpt lat="40.8650110" lon="-4.0514680">
        <ele>1471.2</ele>
        <time>2019-04-28T07:22:43Z</time>
      </trkpt>
      <trkpt lat="40.8649750" lon="-4.0514800">
        <ele>1471.0</ele>
        <time>2019-04-28T07:22:44Z</time>
      </trkpt>
      <trkpt lat="40.8649370" lon="-4.0514920">
        <ele>1471.0</ele>
        <time>2019-04-28T07:22:45Z</time>
      </trkpt>
      <trkpt lat="40.8649000" lon="-4.0515010">
        <ele>1471.2</ele>
        <time>2019-04-28T07:22:46Z</time>
      </trkpt>
      <trkpt lat="40.8648600" lon="-4.0515020">
        <ele>1471.2</ele>
        <time>2019-04-28T07:22:47Z</time>
      </trkpt>
      <trkpt lat="40.8648230" lon="-4.0515010">
        <ele>1471.2</ele>
        <time>2019-04-28T07:22:48Z</time>
      </trkpt>
      <trkpt lat="40.8647780" lon="-4.0515020">
        <ele>1471.2</ele>
        <time>2019-04-28T07:22:49Z</time>
      </trkpt>
      <trkpt lat="40.8647290" lon="-4.0515110">
        <ele>1471.2</ele>
        <time>2019-04-28T07:22:50Z</time>
      </trkpt>
      <trkpt lat="40.8646880" lon="-4.0515210">
        <ele>1471.2</ele>
        <time>2019-04-28T07:22:51Z</time>
      </trkpt>
      <trkpt lat="40.8646560" lon="-4.0515310">
        <ele>1471.2</ele>
        <time>2019-04-28T07:22:52Z</time>
      </trkpt>
      <trkpt lat="40.8646300" lon="-4.0515510">
        <ele>1471.2</ele>
        <time>2019-04-28T07:22:53Z</time>
      </trkpt>
      <trkpt lat="40.8645910" lon="-4.0515670">
        <ele>1471.0</ele>
        <time>2019-04-28T07:22:54Z</time>
      </trkpt>
      <trkpt lat="40.8645600" lon="-4.0515810">
        <ele>1470.8</ele>
        <time>2019-04-28T07:22:55Z</time>
      </trkpt>
      <trkpt lat="40.8645220" lon="-4.0515860">
        <ele>1470.8</ele>
        <time>2019-04-28T07:22:56Z</time>
      </trkpt>
      <trkpt lat="40.8644780" lon="-4.0515990">
        <ele>1470.6</ele>
        <time>2019-04-28T07:22:57Z</time>
      </trkpt>
      <trkpt lat="40.8644390" lon="-4.0516180">
        <ele>1470.4</ele>
        <time>2019-04-28T07:22:58Z</time>
      </trkpt>
      <trkpt lat="40.8643780" lon="-4.0516280">
        <ele>1470.0</ele>
        <time>2019-04-28T07:22:59Z</time>
      </trkpt>
      <trkpt lat="40.8643230" lon="-4.0516370">
        <ele>1469.8</ele>
        <time>2019-04-28T07:23:00Z</time>
      </trkpt>
      <trkpt lat="40.8642590" lon="-4.0516450">
        <ele>1469.4</ele>
        <time>2019-04-28T07:23:01Z</time>
      </trkpt>
      <trkpt lat="40.8641890" lon="-4.0516560">
        <ele>1469.2</ele>
        <time>2019-04-28T07:23:02Z</time>
      </trkpt>
      <trkpt lat="40.8641260" lon="-4.0516650">
        <ele>1469.0</ele>
        <time>2019-04-28T07:23:03Z</time>
      </trkpt>
      <trkpt lat="40.8640710" lon="-4.0516680">
        <ele>1468.6</ele>
        <time>2019-04-28T07:23:04Z</time>
      </trkpt>
      <trkpt lat="40.8640120" lon="-4.0516830">
        <ele>1468.2</ele>
        <time>2019-04-28T07:23:05Z</time>
      </trkpt>
      <trkpt lat="40.8639780" lon="-4.0517190">
        <ele>1468.0</ele>
        <time>2019-04-28T07:23:06Z</time>
      </trkpt>
      <trkpt lat="40.8639190" lon="-4.0517330">
        <ele>1467.8</ele>
        <time>2019-04-28T07:23:07Z</time>
      </trkpt>
      <trkpt lat="40.8638580" lon="-4.0517510">
        <ele>1467.6</ele>
        <time>2019-04-28T07:23:08Z</time>
      </trkpt>
      <trkpt lat="40.8638040" lon="-4.0517750">
        <ele>1467.6</ele>
        <time>2019-04-28T07:23:09Z</time>
      </trkpt>
      <trkpt lat="40.8637500" lon="-4.0517800">
        <ele>1467.2</ele>
        <time>2019-04-28T07:23:10Z</time>
      </trkpt>
      <trkpt lat="40.8636890" lon="-4.0517740">
        <ele>1467.2</ele>
        <time>2019-04-28T07:23:11Z</time>
      </trkpt>
      <trkpt lat="40.8636210" lon="-4.0517780">
        <ele>1467.2</ele>
        <time>2019-04-28T07:23:12Z</time>
      </trkpt>
      <trkpt lat="40.8635620" lon="-4.0517780">
        <ele>1467.2</ele>
        <time>2019-04-28T07:23:13Z</time>
      </trkpt>
      <trkpt lat="40.8634970" lon="-4.0517780">
        <ele>1467.0</ele>
        <time>2019-04-28T07:23:14Z</time>
      </trkpt>
      <trkpt lat="40.8634210" lon="-4.0517640">
        <ele>1467.0</ele>
        <time>2019-04-28T07:23:15Z</time>
      </trkpt>
      <trkpt lat="40.8633490" lon="-4.0517560">
        <ele>1466.8</ele>
        <time>2019-04-28T07:23:16Z</time>
      </trkpt>
      <trkpt lat="40.8632790" lon="-4.0517490">
        <ele>1466.8</ele>
        <time>2019-04-28T07:23:17Z</time>
      </trkpt>
      <trkpt lat="40.8632120" lon="-4.0517580">
        <ele>1466.6</ele>
        <time>2019-04-28T07:23:18Z</time>
      </trkpt>
      <trkpt lat="40.8631490" lon="-4.0517480">
        <ele>1466.4</ele>
        <time>2019-04-28T07:23:19Z</time>
      </trkpt>
      <trkpt lat="40.8630940" lon="-4.0517410">
        <ele>1466.4</ele>
        <time>2019-04-28T07:23:20Z</time>
      </trkpt>
      <trkpt lat="40.8630300" lon="-4.0517390">
        <ele>1466.4</ele>
        <time>2019-04-28T07:23:21Z</time>
      </trkpt>
      <trkpt lat="40.8629700" lon="-4.0517210">
        <ele>1466.4</ele>
        <time>2019-04-28T07:23:22Z</time>
      </trkpt>
      <trkpt lat="40.8629250" lon="-4.0517080">
        <ele>1466.4</ele>
        <time>2019-04-28T07:23:23Z</time>
      </trkpt>
      <trkpt lat="40.8628810" lon="-4.0516960">
        <ele>1466.6</ele>
        <time>2019-04-28T07:23:24Z</time>
      </trkpt>
      <trkpt lat="40.8628390" lon="-4.0516900">
        <ele>1466.6</ele>
        <time>2019-04-28T07:23:25Z</time>
      </trkpt>
      <trkpt lat="40.8627930" lon="-4.0516790">
        <ele>1466.6</ele>
        <time>2019-04-28T07:23:26Z</time>
      </trkpt>
      <trkpt lat="40.8627520" lon="-4.0516710">
        <ele>1466.6</ele>
        <time>2019-04-28T07:23:27Z</time>
      </trkpt>
      <trkpt lat="40.8626910" lon="-4.0516590">
        <ele>1466.6</ele>
        <time>2019-04-28T07:23:28Z</time>
      </trkpt>
      <trkpt lat="40.8626340" lon="-4.0516480">
        <ele>1466.8</ele>
        <time>2019-04-28T07:23:29Z</time>
      </trkpt>
      <trkpt lat="40.8625930" lon="-4.0516420">
        <ele>1466.8</ele>
        <time>2019-04-28T07:23:30Z</time>
      </trkpt>
      <trkpt lat="40.8625550" lon="-4.0516440">
        <ele>1466.8</ele>
        <time>2019-04-28T07:23:31Z</time>
      </trkpt>
      <trkpt lat="40.8625030" lon="-4.0516390">
        <ele>1466.8</ele>
        <time>2019-04-28T07:23:32Z</time>
      </trkpt>
      <trkpt lat="40.8624520" lon="-4.0516130">
        <ele>1466.8</ele>
        <time>2019-04-28T07:23:33Z</time>
      </trkpt>
      <trkpt lat="40.8624170" lon="-4.0516130">
        <ele>1467.0</ele>
        <time>2019-04-28T07:23:34Z</time>
      </trkpt>
      <trkpt lat="40.8623800" lon="-4.0516010">
        <ele>1467.0</ele>
        <time>2019-04-28T07:23:35Z</time>
      </trkpt>
      <trkpt lat="40.8623230" lon="-4.0515820">
        <ele>1467.0</ele>
        <time>2019-04-28T07:23:36Z</time>
      </trkpt>
      <trkpt lat="40.8622780" lon="-4.0515730">
        <ele>1467.0</ele>
        <time>2019-04-28T07:23:37Z</time>
      </trkpt>
      <trkpt lat="40.8622290" lon="-4.0515660">
        <ele>1467.0</ele>
        <time>2019-04-28T07:23:38Z</time>
      </trkpt>
      <trkpt lat="40.8621750" lon="-4.0515560">
        <ele>1467.2</ele>
        <time>2019-04-28T07:23:39Z</time>
      </trkpt>
      <trkpt lat="40.8621320" lon="-4.0515550">
        <ele>1467.2</ele>
        <time>2019-04-28T07:23:40Z</time>
      </trkpt>
      <trkpt lat="40.8620950" lon="-4.0515460">
        <ele>1467.0</ele>
        <time>2019-04-28T07:23:41Z</time>
      </trkpt>
      <trkpt lat="40.8620530" lon="-4.0515310">
        <ele>1466.4</ele>
        <time>2019-04-28T07:23:42Z</time>
      </trkpt>
      <trkpt lat="40.8620170" lon="-4.0515270">
        <ele>1466.4</ele>
        <time>2019-04-28T07:23:43Z</time>
      </trkpt>
      <trkpt lat="40.8619630" lon="-4.0515240">
        <ele>1466.4</ele>
        <time>2019-04-28T07:23:44Z</time>
      </trkpt>
      <trkpt lat="40.8619340" lon="-4.0515140">
        <ele>1466.4</ele>
        <time>2019-04-28T07:23:45Z</time>
      </trkpt>
      <trkpt lat="40.8618960" lon="-4.0514790">
        <ele>1467.2</ele>
        <time>2019-04-28T07:23:46Z</time>
      </trkpt>
      <trkpt lat="40.8618590" lon="-4.0514640">
        <ele>1467.0</ele>
        <time>2019-04-28T07:23:47Z</time>
      </trkpt>
      <trkpt lat="40.8618080" lon="-4.0514330">
        <ele>1467.0</ele>
        <time>2019-04-28T07:23:48Z</time>
      </trkpt>
      <trkpt lat="40.8617670" lon="-4.0513950">
        <ele>1466.8</ele>
        <time>2019-04-28T07:23:49Z</time>
      </trkpt>
      <trkpt lat="40.8617320" lon="-4.0513580">
        <ele>1467.2</ele>
        <time>2019-04-28T07:23:50Z</time>
      </trkpt>
      <trkpt lat="40.8616920" lon="-4.0513180">
        <ele>1467.2</ele>
        <time>2019-04-28T07:23:51Z</time>
      </trkpt>
      <trkpt lat="40.8616530" lon="-4.0512790">
        <ele>1467.4</ele>
        <time>2019-04-28T07:23:52Z</time>
      </trkpt>
      <trkpt lat="40.8616060" lon="-4.0512370">
        <ele>1467.6</ele>
        <time>2019-04-28T07:23:53Z</time>
      </trkpt>
      <trkpt lat="40.8615840" lon="-4.0512110">
        <ele>1467.8</ele>
        <time>2019-04-28T07:23:54Z</time>
      </trkpt>
      <trkpt lat="40.8615660" lon="-4.0512060">
        <ele>1467.8</ele>
        <time>2019-04-28T07:23:55Z</time>
      </trkpt>
      <trkpt lat="40.8615270" lon="-4.0511930">
        <ele>1468.2</ele>
        <time>2019-04-28T07:23:56Z</time>
      </trkpt>
      <trkpt lat="40.8615000" lon="-4.0511780">
        <ele>1468.4</ele>
        <time>2019-04-28T07:23:57Z</time>
      </trkpt>
      <trkpt lat="40.8614860" lon="-4.0511780">
        <ele>1468.8</ele>
        <time>2019-04-28T07:23:58Z</time>
      </trkpt>
      <trkpt lat="40.8614590" lon="-4.0511670">
        <ele>1469.0</ele>
        <time>2019-04-28T07:23:59Z</time>
      </trkpt>
      <trkpt lat="40.8614220" lon="-4.0511570">
        <ele>1469.4</ele>
        <time>2019-04-28T07:24:00Z</time>
      </trkpt>
      <trkpt lat="40.8614090" lon="-4.0511540">
        <ele>1469.6</ele>
        <time>2019-04-28T07:24:01Z</time>
      </trkpt>
      <trkpt lat="40.8613790" lon="-4.0511480">
        <ele>1469.8</ele>
        <time>2019-04-28T07:24:02Z</time>
      </trkpt>
      <trkpt lat="40.8613450" lon="-4.0511170">
        <ele>1470.0</ele>
        <time>2019-04-28T07:24:03Z</time>
      </trkpt>
      <trkpt lat="40.8613140" lon="-4.0510820">
        <ele>1470.2</ele>
        <time>2019-04-28T07:24:04Z</time>
      </trkpt>
      <trkpt lat="40.8612870" lon="-4.0510600">
        <ele>1470.2</ele>
        <time>2019-04-28T07:24:05Z</time>
      </trkpt>
      <trkpt lat="40.8612700" lon="-4.0510430">
        <ele>1471.0</ele>
        <time>2019-04-28T07:24:06Z</time>
      </trkpt>
      <trkpt lat="40.8612330" lon="-4.0510450">
        <ele>1470.6</ele>
        <time>2019-04-28T07:24:07Z</time>
      </trkpt>
      <trkpt lat="40.8612070" lon="-4.0510350">
        <ele>1470.4</ele>
        <time>2019-04-28T07:24:08Z</time>
      </trkpt>
      <trkpt lat="40.8611940" lon="-4.0510340">
        <ele>1470.4</ele>
        <time>2019-04-28T07:24:09Z</time>
      </trkpt>
      <trkpt lat="40.8611640" lon="-4.0510080">
        <ele>1470.4</ele>
        <time>2019-04-28T07:24:10Z</time>
      </trkpt>
      <trkpt lat="40.8611080" lon="-4.0509480">
        <ele>1470.4</ele>
        <time>2019-04-28T07:24:11Z</time>
      </trkpt>
      <trkpt lat="40.8610560" lon="-4.0508970">
        <ele>1470.6</ele>
        <time>2019-04-28T07:24:12Z</time>
      </trkpt>
      <trkpt lat="40.8610200" lon="-4.0508610">
        <ele>1470.6</ele>
        <time>2019-04-28T07:24:13Z</time>
      </trkpt>
      <trkpt lat="40.8609840" lon="-4.0508380">
        <ele>1470.6</ele>
        <time>2019-04-28T07:24:14Z</time>
      </trkpt>
      <trkpt lat="40.8609510" lon="-4.0508070">
        <ele>1470.6</ele>
        <time>2019-04-28T07:24:15Z</time>
      </trkpt>
      <trkpt lat="40.8609080" lon="-4.0507760">
        <ele>1470.8</ele>
        <time>2019-04-28T07:24:16Z</time>
      </trkpt>
      <trkpt lat="40.8608690" lon="-4.0507410">
        <ele>1470.8</ele>
        <time>2019-04-28T07:24:17Z</time>
      </trkpt>
      <trkpt lat="40.8608410" lon="-4.0507040">
        <ele>1471.0</ele>
        <time>2019-04-28T07:24:18Z</time>
      </trkpt>
      <trkpt lat="40.8608290" lon="-4.0506740">
        <ele>1471.0</ele>
        <time>2019-04-28T07:24:19Z</time>
      </trkpt>
      <trkpt lat="40.8607960" lon="-4.0506490">
        <ele>1471.0</ele>
        <time>2019-04-28T07:24:20Z</time>
      </trkpt>
      <trkpt lat="40.8607630" lon="-4.0506190">
        <ele>1471.0</ele>
        <time>2019-04-28T07:24:21Z</time>
      </trkpt>
      <trkpt lat="40.8607440" lon="-4.0505970">
        <ele>1471.0</ele>
        <time>2019-04-28T07:24:22Z</time>
      </trkpt>
      <trkpt lat="40.8607040" lon="-4.0505660">
        <ele>1471.2</ele>
        <time>2019-04-28T07:24:23Z</time>
      </trkpt>
      <trkpt lat="40.8606770" lon="-4.0505470">
        <ele>1471.2</ele>
        <time>2019-04-28T07:24:24Z</time>
      </trkpt>
      <trkpt lat="40.8606580" lon="-4.0505340">
        <ele>1471.2</ele>
        <time>2019-04-28T07:24:25Z</time>
      </trkpt>
      <trkpt lat="40.8606280" lon="-4.0505130">
        <ele>1471.2</ele>
        <time>2019-04-28T07:24:26Z</time>
      </trkpt>
      <trkpt lat="40.8605980" lon="-4.0505120">
        <ele>1471.4</ele>
        <time>2019-04-28T07:24:27Z</time>
      </trkpt>
      <trkpt lat="40.8605420" lon="-4.0504900">
        <ele>1471.4</ele>
        <time>2019-04-28T07:24:28Z</time>
      </trkpt>
      <trkpt lat="40.8605210" lon="-4.0504780">
        <ele>1471.6</ele>
        <time>2019-04-28T07:24:29Z</time>
      </trkpt>
      <trkpt lat="40.8604830" lon="-4.0504640">
        <ele>1471.6</ele>
        <time>2019-04-28T07:24:30Z</time>
      </trkpt>
      <trkpt lat="40.8604570" lon="-4.0504600">
        <ele>1471.0</ele>
        <time>2019-04-28T07:24:31Z</time>
      </trkpt>
      <trkpt lat="40.8604250" lon="-4.0504570">
        <ele>1471.0</ele>
        <time>2019-04-28T07:24:32Z</time>
      </trkpt>
      <trkpt lat="40.8604100" lon="-4.0504460">
        <ele>1471.0</ele>
        <time>2019-04-28T07:24:33Z</time>
      </trkpt>
      <trkpt lat="40.8603880" lon="-4.0504220">
        <ele>1472.4</ele>
        <time>2019-04-28T07:24:34Z</time>
      </trkpt>
      <trkpt lat="40.8603780" lon="-4.0504010">
        <ele>1472.0</ele>
        <time>2019-04-28T07:24:35Z</time>
      </trkpt>
      <trkpt lat="40.8603560" lon="-4.0503800">
        <ele>1472.2</ele>
        <time>2019-04-28T07:24:36Z</time>
      </trkpt>
      <trkpt lat="40.8603400" lon="-4.0503560">
        <ele>1472.4</ele>
        <time>2019-04-28T07:24:37Z</time>
      </trkpt>
      <trkpt lat="40.8603060" lon="-4.0503360">
        <ele>1472.4</ele>
        <time>2019-04-28T07:24:38Z</time>
      </trkpt>
      <trkpt lat="40.8602730" lon="-4.0503300">
        <ele>1472.6</ele>
        <time>2019-04-28T07:24:39Z</time>
      </trkpt>
      <trkpt lat="40.8602530" lon="-4.0503120">
        <ele>1472.8</ele>
        <time>2019-04-28T07:24:40Z</time>
      </trkpt>
      <trkpt lat="40.8602280" lon="-4.0502980">
        <ele>1472.8</ele>
        <time>2019-04-28T07:24:41Z</time>
      </trkpt>
      <trkpt lat="40.8601930" lon="-4.0502870">
        <ele>1472.8</ele>
        <time>2019-04-28T07:24:42Z</time>
      </trkpt>
      <trkpt lat="40.8601600" lon="-4.0502790">
        <ele>1473.0</ele>
        <time>2019-04-28T07:24:43Z</time>
      </trkpt>
      <trkpt lat="40.8601400" lon="-4.0502780">
        <ele>1473.2</ele>
        <time>2019-04-28T07:24:44Z</time>
      </trkpt>
      <trkpt lat="40.8601140" lon="-4.0502760">
        <ele>1473.4</ele>
        <time>2019-04-28T07:24:45Z</time>
      </trkpt>
      <trkpt lat="40.8600990" lon="-4.0502770">
        <ele>1473.4</ele>
        <time>2019-04-28T07:24:46Z</time>
      </trkpt>
      <trkpt lat="40.8600660" lon="-4.0502930">
        <ele>1473.6</ele>
        <time>2019-04-28T07:24:47Z</time>
      </trkpt>
      <trkpt lat="40.8600370" lon="-4.0502850">
        <ele>1473.8</ele>
        <time>2019-04-28T07:24:48Z</time>
      </trkpt>
      <trkpt lat="40.8600080" lon="-4.0502610">
        <ele>1474.0</ele>
        <time>2019-04-28T07:24:49Z</time>
      </trkpt>
      <trkpt lat="40.8599880" lon="-4.0502440">
        <ele>1474.0</ele>
        <time>2019-04-28T07:24:50Z</time>
      </trkpt>
      <trkpt lat="40.8599460" lon="-4.0502140">
        <ele>1474.2</ele>
        <time>2019-04-28T07:24:51Z</time>
      </trkpt>
      <trkpt lat="40.8599260" lon="-4.0501920">
        <ele>1474.2</ele>
        <time>2019-04-28T07:24:52Z</time>
      </trkpt>
      <trkpt lat="40.8598960" lon="-4.0501730">
        <ele>1474.4</ele>
        <time>2019-04-28T07:24:53Z</time>
      </trkpt>
      <trkpt lat="40.8598460" lon="-4.0501610">
        <ele>1474.6</ele>
        <time>2019-04-28T07:24:54Z</time>
      </trkpt>
      <trkpt lat="40.8598110" lon="-4.0501540">
        <ele>1474.8</ele>
        <time>2019-04-28T07:24:55Z</time>
      </trkpt>
      <trkpt lat="40.8597870" lon="-4.0501440">
        <ele>1474.8</ele>
        <time>2019-04-28T07:24:56Z</time>
      </trkpt>
      <trkpt lat="40.8597600" lon="-4.0501360">
        <ele>1475.0</ele>
        <time>2019-04-28T07:24:57Z</time>
      </trkpt>
      <trkpt lat="40.8597240" lon="-4.0501380">
        <ele>1475.2</ele>
        <time>2019-04-28T07:24:58Z</time>
      </trkpt>
      <trkpt lat="40.8597010" lon="-4.0501360">
        <ele>1475.4</ele>
        <time>2019-04-28T07:24:59Z</time>
      </trkpt>
      <trkpt lat="40.8596650" lon="-4.0501170">
        <ele>1475.6</ele>
        <time>2019-04-28T07:25:00Z</time>
      </trkpt>
      <trkpt lat="40.8596500" lon="-4.0501040">
        <ele>1475.8</ele>
        <time>2019-04-28T07:25:01Z</time>
      </trkpt>
      <trkpt lat="40.8596220" lon="-4.0500830">
        <ele>1476.0</ele>
        <time>2019-04-28T07:25:02Z</time>
      </trkpt>
      <trkpt lat="40.8595970" lon="-4.0500720">
        <ele>1476.2</ele>
        <time>2019-04-28T07:25:03Z</time>
      </trkpt>
      <trkpt lat="40.8595620" lon="-4.0500500">
        <ele>1476.4</ele>
        <time>2019-04-28T07:25:04Z</time>
      </trkpt>
      <trkpt lat="40.8595300" lon="-4.0500320">
        <ele>1476.6</ele>
        <time>2019-04-28T07:25:05Z</time>
      </trkpt>
      <trkpt lat="40.8595070" lon="-4.0500170">
        <ele>1476.8</ele>
        <time>2019-04-28T07:25:06Z</time>
      </trkpt>
      <trkpt lat="40.8594780" lon="-4.0500020">
        <ele>1476.8</ele>
        <time>2019-04-28T07:25:07Z</time>
      </trkpt>
      <trkpt lat="40.8594600" lon="-4.0499950">
        <ele>1476.8</ele>
        <time>2019-04-28T07:25:08Z</time>
      </trkpt>
      <trkpt lat="40.8594330" lon="-4.0499800">
        <ele>1477.0</ele>
        <time>2019-04-28T07:25:09Z</time>
      </trkpt>
      <trkpt lat="40.8594070" lon="-4.0499620">
        <ele>1477.2</ele>
        <time>2019-04-28T07:25:10Z</time>
      </trkpt>
      <trkpt lat="40.8593800" lon="-4.0499550">
        <ele>1477.2</ele>
        <time>2019-04-28T07:25:11Z</time>
      </trkpt>
      <trkpt lat="40.8593350" lon="-4.0499440">
        <ele>1477.4</ele>
        <time>2019-04-28T07:25:12Z</time>
      </trkpt>
      <trkpt lat="40.8593140" lon="-4.0499350">
        <ele>1477.4</ele>
        <time>2019-04-28T07:25:13Z</time>
      </trkpt>
      <trkpt lat="40.8592890" lon="-4.0499370">
        <ele>1477.6</ele>
        <time>2019-04-28T07:25:14Z</time>
      </trkpt>
      <trkpt lat="40.8592550" lon="-4.0499250">
        <ele>1477.6</ele>
        <time>2019-04-28T07:25:15Z</time>
      </trkpt>
      <trkpt lat="40.8592370" lon="-4.0499160">
        <ele>1477.6</ele>
        <time>2019-04-28T07:25:16Z</time>
      </trkpt>
      <trkpt lat="40.8592060" lon="-4.0498970">
        <ele>1477.8</ele>
        <time>2019-04-28T07:25:17Z</time>
      </trkpt>
      <trkpt lat="40.8591720" lon="-4.0498960">
        <ele>1477.8</ele>
        <time>2019-04-28T07:25:18Z</time>
      </trkpt>
      <trkpt lat="40.8591380" lon="-4.0498940">
        <ele>1477.8</ele>
        <time>2019-04-28T07:25:19Z</time>
      </trkpt>
      <trkpt lat="40.8591060" lon="-4.0498880">
        <ele>1478.0</ele>
        <time>2019-04-28T07:25:20Z</time>
      </trkpt>
      <trkpt lat="40.8590760" lon="-4.0498920">
        <ele>1478.0</ele>
        <time>2019-04-28T07:25:21Z</time>
      </trkpt>
      <trkpt lat="40.8590510" lon="-4.0498670">
        <ele>1478.2</ele>
        <time>2019-04-28T07:25:22Z</time>
      </trkpt>
      <trkpt lat="40.8590190" lon="-4.0498550">
        <ele>1478.2</ele>
        <time>2019-04-28T07:25:23Z</time>
      </trkpt>
      <trkpt lat="40.8589810" lon="-4.0498510">
        <ele>1478.4</ele>
        <time>2019-04-28T07:25:24Z</time>
      </trkpt>
      <trkpt lat="40.8589400" lon="-4.0498480">
        <ele>1478.4</ele>
        <time>2019-04-28T07:25:26Z</time>
      </trkpt>
      <trkpt lat="40.8588790" lon="-4.0498480">
        <ele>1478.6</ele>
        <time>2019-04-28T07:25:27Z</time>
      </trkpt>
      <trkpt lat="40.8588500" lon="-4.0498380">
        <ele>1478.6</ele>
        <time>2019-04-28T07:25:28Z</time>
      </trkpt>
      <trkpt lat="40.8587910" lon="-4.0498360">
        <ele>1478.8</ele>
        <time>2019-04-28T07:25:29Z</time>
      </trkpt>
      <trkpt lat="40.8587600" lon="-4.0498410">
        <ele>1478.8</ele>
        <time>2019-04-28T07:25:30Z</time>
      </trkpt>
      <trkpt lat="40.8587200" lon="-4.0498410">
        <ele>1478.8</ele>
        <time>2019-04-28T07:25:31Z</time>
      </trkpt>
      <trkpt lat="40.8586810" lon="-4.0498350">
        <ele>1479.0</ele>
        <time>2019-04-28T07:25:32Z</time>
      </trkpt>
      <trkpt lat="40.8586560" lon="-4.0498330">
        <ele>1479.0</ele>
        <time>2019-04-28T07:25:33Z</time>
      </trkpt>
      <trkpt lat="40.8586280" lon="-4.0498390">
        <ele>1479.2</ele>
        <time>2019-04-28T07:25:34Z</time>
      </trkpt>
      <trkpt lat="40.8586020" lon="-4.0498450">
        <ele>1479.2</ele>
        <time>2019-04-28T07:25:35Z</time>
      </trkpt>
      <trkpt lat="40.8585770" lon="-4.0498430">
        <ele>1479.4</ele>
        <time>2019-04-28T07:25:36Z</time>
      </trkpt>
      <trkpt lat="40.8585470" lon="-4.0498310">
        <ele>1479.4</ele>
        <time>2019-04-28T07:25:37Z</time>
      </trkpt>
      <trkpt lat="40.8585080" lon="-4.0498300">
        <ele>1479.6</ele>
        <time>2019-04-28T07:25:38Z</time>
      </trkpt>
      <trkpt lat="40.8584720" lon="-4.0498320">
        <ele>1479.6</ele>
        <time>2019-04-28T07:25:39Z</time>
      </trkpt>
      <trkpt lat="40.8584530" lon="-4.0498290">
        <ele>1479.6</ele>
        <time>2019-04-28T07:25:40Z</time>
      </trkpt>
      <trkpt lat="40.8584380" lon="-4.0498190">
        <ele>1479.8</ele>
        <time>2019-04-28T07:25:41Z</time>
      </trkpt>
      <trkpt lat="40.8584130" lon="-4.0498080">
        <ele>1480.0</ele>
        <time>2019-04-28T07:25:42Z</time>
      </trkpt>
      <trkpt lat="40.8583900" lon="-4.0498110">
        <ele>1480.0</ele>
        <time>2019-04-28T07:25:43Z</time>
      </trkpt>
      <trkpt lat="40.8583630" lon="-4.0498130">
        <ele>1480.0</ele>
        <time>2019-04-28T07:25:44Z</time>
      </trkpt>
      <trkpt lat="40.8583470" lon="-4.0498120">
        <ele>1480.2</ele>
        <time>2019-04-28T07:25:45Z</time>
      </trkpt>
      <trkpt lat="40.8583090" lon="-4.0498170">
        <ele>1480.4</ele>
        <time>2019-04-28T07:25:46Z</time>
      </trkpt>
      <trkpt lat="40.8582720" lon="-4.0498180">
        <ele>1480.4</ele>
        <time>2019-04-28T07:25:47Z</time>
      </trkpt>
      <trkpt lat="40.8582390" lon="-4.0498200">
        <ele>1480.6</ele>
        <time>2019-04-28T07:25:48Z</time>
      </trkpt>
      <trkpt lat="40.8582170" lon="-4.0498220">
        <ele>1480.8</ele>
        <time>2019-04-28T07:25:49Z</time>
      </trkpt>
      <trkpt lat="40.8581960" lon="-4.0498240">
        <ele>1480.8</ele>
        <time>2019-04-28T07:25:50Z</time>
      </trkpt>
      <trkpt lat="40.8581630" lon="-4.0498210">
        <ele>1481.0</ele>
        <time>2019-04-28T07:25:51Z</time>
      </trkpt>
      <trkpt lat="40.8581520" lon="-4.0498260">
        <ele>1481.0</ele>
        <time>2019-04-28T07:25:52Z</time>
      </trkpt>
      <trkpt lat="40.8581310" lon="-4.0498280">
        <ele>1481.2</ele>
        <time>2019-04-28T07:25:53Z</time>
      </trkpt>
      <trkpt lat="40.8581090" lon="-4.0498300">
        <ele>1481.4</ele>
        <time>2019-04-28T07:25:54Z</time>
      </trkpt>
      <trkpt lat="40.8580850" lon="-4.0498270">
        <ele>1481.6</ele>
        <time>2019-04-28T07:25:55Z</time>
      </trkpt>
      <trkpt lat="40.8580490" lon="-4.0498300">
        <ele>1481.8</ele>
        <time>2019-04-28T07:25:56Z</time>
      </trkpt>
      <trkpt lat="40.8580180" lon="-4.0498440">
        <ele>1482.2</ele>
        <time>2019-04-28T07:25:57Z</time>
      </trkpt>
      <trkpt lat="40.8579880" lon="-4.0498530">
        <ele>1482.4</ele>
        <time>2019-04-28T07:25:58Z</time>
      </trkpt>
      <trkpt lat="40.8579420" lon="-4.0498610">
        <ele>1482.6</ele>
        <time>2019-04-28T07:25:59Z</time>
      </trkpt>
      <trkpt lat="40.8579200" lon="-4.0498630">
        <ele>1482.8</ele>
        <time>2019-04-28T07:26:00Z</time>
      </trkpt>
      <trkpt lat="40.8578800" lon="-4.0498700">
        <ele>1483.0</ele>
        <time>2019-04-28T07:26:01Z</time>
      </trkpt>
      <trkpt lat="40.8578590" lon="-4.0498700">
        <ele>1483.2</ele>
        <time>2019-04-28T07:26:02Z</time>
      </trkpt>
      <trkpt lat="40.8578210" lon="-4.0498730">
        <ele>1483.2</ele>
        <time>2019-04-28T07:26:03Z</time>
      </trkpt>
      <trkpt lat="40.8577820" lon="-4.0498740">
        <ele>1483.4</ele>
        <time>2019-04-28T07:26:04Z</time>
      </trkpt>
      <trkpt lat="40.8577530" lon="-4.0498730">
        <ele>1483.6</ele>
        <time>2019-04-28T07:26:05Z</time>
      </trkpt>
      <trkpt lat="40.8577390" lon="-4.0498880">
        <ele>1483.6</ele>
        <time>2019-04-28T07:26:06Z</time>
      </trkpt>
      <trkpt lat="40.8576960" lon="-4.0498930">
        <ele>1483.8</ele>
        <time>2019-04-28T07:26:07Z</time>
      </trkpt>
      <trkpt lat="40.8576490" lon="-4.0499030">
        <ele>1483.8</ele>
        <time>2019-04-28T07:26:08Z</time>
      </trkpt>
      <trkpt lat="40.8576300" lon="-4.0499080">
        <ele>1484.0</ele>
        <time>2019-04-28T07:26:09Z</time>
      </trkpt>
      <trkpt lat="40.8576090" lon="-4.0499050">
        <ele>1484.0</ele>
        <time>2019-04-28T07:26:10Z</time>
      </trkpt>
      <trkpt lat="40.8575720" lon="-4.0499020">
        <ele>1484.2</ele>
        <time>2019-04-28T07:26:11Z</time>
      </trkpt>
      <trkpt lat="40.8575490" lon="-4.0498990">
        <ele>1484.2</ele>
        <time>2019-04-28T07:26:12Z</time>
      </trkpt>
      <trkpt lat="40.8575000" lon="-4.0499040">
        <ele>1484.4</ele>
        <time>2019-04-28T07:26:13Z</time>
      </trkpt>
      <trkpt lat="40.8574360" lon="-4.0499140">
        <ele>1484.4</ele>
        <time>2019-04-28T07:26:14Z</time>
      </trkpt>
      <trkpt lat="40.8573910" lon="-4.0499220">
        <ele>1484.6</ele>
        <time>2019-04-28T07:26:15Z</time>
      </trkpt>
      <trkpt lat="40.8573590" lon="-4.0499280">
        <ele>1484.6</ele>
        <time>2019-04-28T07:26:16Z</time>
      </trkpt>
      <trkpt lat="40.8573110" lon="-4.0499370">
        <ele>1484.6</ele>
        <time>2019-04-28T07:26:17Z</time>
      </trkpt>
      <trkpt lat="40.8572820" lon="-4.0499460">
        <ele>1484.8</ele>
        <time>2019-04-28T07:26:18Z</time>
      </trkpt>
      <trkpt lat="40.8572380" lon="-4.0499600">
        <ele>1485.0</ele>
        <time>2019-04-28T07:26:19Z</time>
      </trkpt>
      <trkpt lat="40.8572080" lon="-4.0499710">
        <ele>1485.0</ele>
        <time>2019-04-28T07:26:20Z</time>
      </trkpt>
      <trkpt lat="40.8571740" lon="-4.0499800">
        <ele>1485.2</ele>
        <time>2019-04-28T07:26:21Z</time>
      </trkpt>
      <trkpt lat="40.8571440" lon="-4.0499880">
        <ele>1485.4</ele>
        <time>2019-04-28T07:26:22Z</time>
      </trkpt>
      <trkpt lat="40.8570890" lon="-4.0499900">
        <ele>1485.6</ele>
        <time>2019-04-28T07:26:23Z</time>
      </trkpt>
      <trkpt lat="40.8570580" lon="-4.0500000">
        <ele>1485.8</ele>
        <time>2019-04-28T07:26:24Z</time>
      </trkpt>
      <trkpt lat="40.8570220" lon="-4.0500120">
        <ele>1486.0</ele>
        <time>2019-04-28T07:26:25Z</time>
      </trkpt>
      <trkpt lat="40.8569990" lon="-4.0500280">
        <ele>1486.0</ele>
        <time>2019-04-28T07:26:26Z</time>
      </trkpt>
      <trkpt lat="40.8569740" lon="-4.0500470">
        <ele>1486.2</ele>
        <time>2019-04-28T07:26:27Z</time>
      </trkpt>
      <trkpt lat="40.8569570" lon="-4.0500580">
        <ele>1486.4</ele>
        <time>2019-04-28T07:26:28Z</time>
      </trkpt>
      <trkpt lat="40.8569350" lon="-4.0500680">
        <ele>1486.6</ele>
        <time>2019-04-28T07:26:29Z</time>
      </trkpt>
      <trkpt lat="40.8569150" lon="-4.0500800">
        <ele>1486.6</ele>
        <time>2019-04-28T07:26:30Z</time>
      </trkpt>
      <trkpt lat="40.8568970" lon="-4.0500870">
        <ele>1486.8</ele>
        <time>2019-04-28T07:26:31Z</time>
      </trkpt>
      <trkpt lat="40.8568630" lon="-4.0500900">
        <ele>1487.0</ele>
        <time>2019-04-28T07:26:32Z</time>
      </trkpt>
      <trkpt lat="40.8568360" lon="-4.0500910">
        <ele>1487.2</ele>
        <time>2019-04-28T07:26:33Z</time>
      </trkpt>
      <trkpt lat="40.8568050" lon="-4.0500960">
        <ele>1487.4</ele>
        <time>2019-04-28T07:26:34Z</time>
      </trkpt>
      <trkpt lat="40.8567780" lon="-4.0501060">
        <ele>1487.6</ele>
        <time>2019-04-28T07:26:35Z</time>
      </trkpt>
      <trkpt lat="40.8567670" lon="-4.0501150">
        <ele>1487.6</ele>
        <time>2019-04-28T07:26:36Z</time>
      </trkpt>
      <trkpt lat="40.8567590" lon="-4.0501330">
        <ele>1487.8</ele>
        <time>2019-04-28T07:26:37Z</time>
      </trkpt>
      <trkpt lat="40.8567370" lon="-4.0501480">
        <ele>1488.0</ele>
        <time>2019-04-28T07:26:38Z</time>
      </trkpt>
      <trkpt lat="40.8567180" lon="-4.0501560">
        <ele>1488.2</ele>
        <time>2019-04-28T07:26:39Z</time>
      </trkpt>
      <trkpt lat="40.8566880" lon="-4.0501640">
        <ele>1488.4</ele>
        <time>2019-04-28T07:26:40Z</time>
      </trkpt>
      <trkpt lat="40.8566600" lon="-4.0501700">
        <ele>1488.6</ele>
        <time>2019-04-28T07:26:41Z</time>
      </trkpt>
      <trkpt lat="40.8566170" lon="-4.0501840">
        <ele>1488.8</ele>
        <time>2019-04-28T07:26:42Z</time>
      </trkpt>
      <trkpt lat="40.8565930" lon="-4.0502020">
        <ele>1489.2</ele>
        <time>2019-04-28T07:26:43Z</time>
      </trkpt>
      <trkpt lat="40.8565510" lon="-4.0502180">
        <ele>1489.4</ele>
        <time>2019-04-28T07:26:44Z</time>
      </trkpt>
      <trkpt lat="40.8565280" lon="-4.0502240">
        <ele>1489.2</ele>
        <time>2019-04-28T07:26:45Z</time>
      </trkpt>
      <trkpt lat="40.8564940" lon="-4.0502490">
        <ele>1490.4</ele>
        <time>2019-04-28T07:26:46Z</time>
      </trkpt>
      <trkpt lat="40.8564870" lon="-4.0502530">
        <ele>1490.4</ele>
        <time>2019-04-28T07:26:47Z</time>
      </trkpt>
      <trkpt lat="40.8564610" lon="-4.0502540">
        <ele>1492.0</ele>
        <time>2019-04-28T07:26:48Z</time>
      </trkpt>
      <trkpt lat="40.8564280" lon="-4.0502630">
        <ele>1491.2</ele>
        <time>2019-04-28T07:26:49Z</time>
      </trkpt>
      <trkpt lat="40.8564020" lon="-4.0502690">
        <ele>1491.2</ele>
        <time>2019-04-28T07:26:50Z</time>
      </trkpt>
      <trkpt lat="40.8563610" lon="-4.0502620">
        <ele>1491.4</ele>
        <time>2019-04-28T07:26:51Z</time>
      </trkpt>
      <trkpt lat="40.8563290" lon="-4.0502600">
        <ele>1491.4</ele>
        <time>2019-04-28T07:26:52Z</time>
      </trkpt>
      <trkpt lat="40.8562770" lon="-4.0502700">
        <ele>1491.8</ele>
        <time>2019-04-28T07:26:53Z</time>
      </trkpt>
      <trkpt lat="40.8562420" lon="-4.0502830">
        <ele>1491.8</ele>
        <time>2019-04-28T07:26:54Z</time>
      </trkpt>
      <trkpt lat="40.8562190" lon="-4.0502880">
        <ele>1492.0</ele>
        <time>2019-04-28T07:26:55Z</time>
      </trkpt>
      <trkpt lat="40.8562010" lon="-4.0502970">
        <ele>1492.2</ele>
        <time>2019-04-28T07:26:56Z</time>
      </trkpt>
      <trkpt lat="40.8561640" lon="-4.0503140">
        <ele>1492.4</ele>
        <time>2019-04-28T07:26:57Z</time>
      </trkpt>
      <trkpt lat="40.8561360" lon="-4.0503260">
        <ele>1492.4</ele>
        <time>2019-04-28T07:26:58Z</time>
      </trkpt>
      <trkpt lat="40.8561040" lon="-4.0503350">
        <ele>1492.6</ele>
        <time>2019-04-28T07:26:59Z</time>
      </trkpt>
      <trkpt lat="40.8560430" lon="-4.0503530">
        <ele>1492.8</ele>
        <time>2019-04-28T07:27:00Z</time>
      </trkpt>
      <trkpt lat="40.8559820" lon="-4.0503720">
        <ele>1492.8</ele>
        <time>2019-04-28T07:27:01Z</time>
      </trkpt>
      <trkpt lat="40.8559520" lon="-4.0503880">
        <ele>1493.0</ele>
        <time>2019-04-28T07:27:02Z</time>
      </trkpt>
      <trkpt lat="40.8559100" lon="-4.0504040">
        <ele>1493.2</ele>
        <time>2019-04-28T07:27:03Z</time>
      </trkpt>
      <trkpt lat="40.8558790" lon="-4.0504130">
        <ele>1493.2</ele>
        <time>2019-04-28T07:27:04Z</time>
      </trkpt>
      <trkpt lat="40.8558400" lon="-4.0504310">
        <ele>1493.4</ele>
        <time>2019-04-28T07:27:05Z</time>
      </trkpt>
      <trkpt lat="40.8558110" lon="-4.0504420">
        <ele>1493.4</ele>
        <time>2019-04-28T07:27:06Z</time>
      </trkpt>
      <trkpt lat="40.8557580" lon="-4.0504540">
        <ele>1493.6</ele>
        <time>2019-04-28T07:27:07Z</time>
      </trkpt>
      <trkpt lat="40.8557090" lon="-4.0504720">
        <ele>1493.6</ele>
        <time>2019-04-28T07:27:08Z</time>
      </trkpt>
      <trkpt lat="40.8556720" lon="-4.0504910">
        <ele>1493.8</ele>
        <time>2019-04-28T07:27:09Z</time>
      </trkpt>
      <trkpt lat="40.8556580" lon="-4.0505190">
        <ele>1494.0</ele>
        <time>2019-04-28T07:27:10Z</time>
      </trkpt>
      <trkpt lat="40.8556390" lon="-4.0505360">
        <ele>1494.0</ele>
        <time>2019-04-28T07:27:11Z</time>
      </trkpt>
      <trkpt lat="40.8556170" lon="-4.0505400">
        <ele>1494.2</ele>
        <time>2019-04-28T07:27:12Z</time>
      </trkpt>
      <trkpt lat="40.8556060" lon="-4.0505400">
        <ele>1494.4</ele>
        <time>2019-04-28T07:27:13Z</time>
      </trkpt>
      <trkpt lat="40.8555810" lon="-4.0505450">
        <ele>1494.4</ele>
        <time>2019-04-28T07:27:14Z</time>
      </trkpt>
      <trkpt lat="40.8555550" lon="-4.0505580">
        <ele>1494.6</ele>
        <time>2019-04-28T07:27:15Z</time>
      </trkpt>
      <trkpt lat="40.8555310" lon="-4.0505660">
        <ele>1494.8</ele>
        <time>2019-04-28T07:27:16Z</time>
      </trkpt>
      <trkpt lat="40.8555150" lon="-4.0505750">
        <ele>1494.8</ele>
        <time>2019-04-28T07:27:17Z</time>
      </trkpt>
      <trkpt lat="40.8554880" lon="-4.0505870">
        <ele>1495.0</ele>
        <time>2019-04-28T07:27:18Z</time>
      </trkpt>
      <trkpt lat="40.8554730" lon="-4.0505960">
        <ele>1495.2</ele>
        <time>2019-04-28T07:27:19Z</time>
      </trkpt>
      <trkpt lat="40.8554490" lon="-4.0506060">
        <ele>1495.4</ele>
        <time>2019-04-28T07:27:20Z</time>
      </trkpt>
      <trkpt lat="40.8554180" lon="-4.0506110">
        <ele>1495.6</ele>
        <time>2019-04-28T07:27:21Z</time>
      </trkpt>
      <trkpt lat="40.8553900" lon="-4.0506170">
        <ele>1495.8</ele>
        <time>2019-04-28T07:27:22Z</time>
      </trkpt>
      <trkpt lat="40.8553580" lon="-4.0506260">
        <ele>1496.0</ele>
        <time>2019-04-28T07:27:23Z</time>
      </trkpt>
      <trkpt lat="40.8553120" lon="-4.0506510">
        <ele>1496.2</ele>
        <time>2019-04-28T07:27:24Z</time>
      </trkpt>
      <trkpt lat="40.8552720" lon="-4.0506670">
        <ele>1496.2</ele>
        <time>2019-04-28T07:27:25Z</time>
      </trkpt>
      <trkpt lat="40.8552470" lon="-4.0506790">
        <ele>1496.4</ele>
        <time>2019-04-28T07:27:26Z</time>
      </trkpt>
      <trkpt lat="40.8552250" lon="-4.0506880">
        <ele>1496.6</ele>
        <time>2019-04-28T07:27:27Z</time>
      </trkpt>
      <trkpt lat="40.8552040" lon="-4.0506960">
        <ele>1496.8</ele>
        <time>2019-04-28T07:27:28Z</time>
      </trkpt>
      <trkpt lat="40.8551810" lon="-4.0507010">
        <ele>1497.0</ele>
        <time>2019-04-28T07:27:29Z</time>
      </trkpt>
      <trkpt lat="40.8551430" lon="-4.0507100">
        <ele>1497.2</ele>
        <time>2019-04-28T07:27:30Z</time>
      </trkpt>
      <trkpt lat="40.8551240" lon="-4.0507200">
        <ele>1497.6</ele>
        <time>2019-04-28T07:27:31Z</time>
      </trkpt>
      <trkpt lat="40.8551020" lon="-4.0507240">
        <ele>1497.8</ele>
        <time>2019-04-28T07:27:32Z</time>
      </trkpt>
      <trkpt lat="40.8550790" lon="-4.0507240">
        <ele>1498.0</ele>
        <time>2019-04-28T07:27:33Z</time>
      </trkpt>
      <trkpt lat="40.8550550" lon="-4.0507310">
        <ele>1498.4</ele>
        <time>2019-04-28T07:27:34Z</time>
      </trkpt>
      <trkpt lat="40.8550240" lon="-4.0507250">
        <ele>1498.6</ele>
        <time>2019-04-28T07:27:35Z</time>
      </trkpt>
      <trkpt lat="40.8549990" lon="-4.0507220">
        <ele>1499.0</ele>
        <time>2019-04-28T07:27:36Z</time>
      </trkpt>
      <trkpt lat="40.8549810" lon="-4.0507260">
        <ele>1499.2</ele>
        <time>2019-04-28T07:27:37Z</time>
      </trkpt>
      <trkpt lat="40.8549590" lon="-4.0507320">
        <ele>1499.6</ele>
        <time>2019-04-28T07:27:38Z</time>
      </trkpt>
      <trkpt lat="40.8549320" lon="-4.0507420">
        <ele>1499.8</ele>
        <time>2019-04-28T07:27:39Z</time>
      </trkpt>
      <trkpt lat="40.8549160" lon="-4.0507510">
        <ele>1500.0</ele>
        <time>2019-04-28T07:27:40Z</time>
      </trkpt>
      <trkpt lat="40.8549010" lon="-4.0507600">
        <ele>1500.4</ele>
        <time>2019-04-28T07:27:41Z</time>
      </trkpt>
      <trkpt lat="40.8548720" lon="-4.0507640">
        <ele>1500.6</ele>
        <time>2019-04-28T07:27:42Z</time>
      </trkpt>
      <trkpt lat="40.8548420" lon="-4.0507720">
        <ele>1500.8</ele>
        <time>2019-04-28T07:27:43Z</time>
      </trkpt>
      <trkpt lat="40.8548290" lon="-4.0507790">
        <ele>1501.2</ele>
        <time>2019-04-28T07:27:44Z</time>
      </trkpt>
      <trkpt lat="40.8548020" lon="-4.0507820">
        <ele>1501.4</ele>
        <time>2019-04-28T07:27:45Z</time>
      </trkpt>
      <trkpt lat="40.8547720" lon="-4.0507990">
        <ele>1501.8</ele>
        <time>2019-04-28T07:27:46Z</time>
      </trkpt>
      <trkpt lat="40.8547420" lon="-4.0508120">
        <ele>1501.8</ele>
        <time>2019-04-28T07:27:47Z</time>
      </trkpt>
      <trkpt lat="40.8547000" lon="-4.0508170">
        <ele>1502.2</ele>
        <time>2019-04-28T07:27:48Z</time>
      </trkpt>
      <trkpt lat="40.8546820" lon="-4.0508250">
        <ele>1502.4</ele>
        <time>2019-04-28T07:27:49Z</time>
      </trkpt>
      <trkpt lat="40.8546360" lon="-4.0508230">
        <ele>1502.6</ele>
        <time>2019-04-28T07:27:50Z</time>
      </trkpt>
      <trkpt lat="40.8546100" lon="-4.0508270">
        <ele>1502.8</ele>
        <time>2019-04-28T07:27:51Z</time>
      </trkpt>
      <trkpt lat="40.8545640" lon="-4.0508310">
        <ele>1503.0</ele>
        <time>2019-04-28T07:27:52Z</time>
      </trkpt>
      <trkpt lat="40.8545270" lon="-4.0508310">
        <ele>1503.2</ele>
        <time>2019-04-28T07:27:53Z</time>
      </trkpt>
      <trkpt lat="40.8544900" lon="-4.0508340">
        <ele>1503.6</ele>
        <time>2019-04-28T07:27:54Z</time>
      </trkpt>
      <trkpt lat="40.8544500" lon="-4.0508290">
        <ele>1503.6</ele>
        <time>2019-04-28T07:27:55Z</time>
      </trkpt>
      <trkpt lat="40.8544190" lon="-4.0508330">
        <ele>1503.8</ele>
        <time>2019-04-28T07:27:56Z</time>
      </trkpt>
      <trkpt lat="40.8543880" lon="-4.0508310">
        <ele>1504.0</ele>
        <time>2019-04-28T07:27:57Z</time>
      </trkpt>
      <trkpt lat="40.8543660" lon="-4.0508340">
        <ele>1504.2</ele>
        <time>2019-04-28T07:27:58Z</time>
      </trkpt>
      <trkpt lat="40.8543400" lon="-4.0508320">
        <ele>1504.2</ele>
        <time>2019-04-28T07:27:59Z</time>
      </trkpt>
      <trkpt lat="40.8543150" lon="-4.0508360">
        <ele>1504.4</ele>
        <time>2019-04-28T07:28:00Z</time>
      </trkpt>
      <trkpt lat="40.8542750" lon="-4.0508370">
        <ele>1504.4</ele>
        <time>2019-04-28T07:28:01Z</time>
      </trkpt>
      <trkpt lat="40.8542480" lon="-4.0508360">
        <ele>1504.6</ele>
        <time>2019-04-28T07:28:02Z</time>
      </trkpt>
      <trkpt lat="40.8542130" lon="-4.0508330">
        <ele>1504.8</ele>
        <time>2019-04-28T07:28:03Z</time>
      </trkpt>
      <trkpt lat="40.8541840" lon="-4.0508370">
        <ele>1504.8</ele>
        <time>2019-04-28T07:28:04Z</time>
      </trkpt>
      <trkpt lat="40.8541600" lon="-4.0508370">
        <ele>1504.8</ele>
        <time>2019-04-28T07:28:05Z</time>
      </trkpt>
      <trkpt lat="40.8541230" lon="-4.0508410">
        <ele>1505.0</ele>
        <time>2019-04-28T07:28:06Z</time>
      </trkpt>
      <trkpt lat="40.8540930" lon="-4.0508490">
        <ele>1505.0</ele>
        <time>2019-04-28T07:28:07Z</time>
      </trkpt>
      <trkpt lat="40.8540540" lon="-4.0508560">
        <ele>1505.0</ele>
        <time>2019-04-28T07:28:08Z</time>
      </trkpt>
      <trkpt lat="40.8540220" lon="-4.0508600">
        <ele>1505.0</ele>
        <time>2019-04-28T07:28:09Z</time>
      </trkpt>
      <trkpt lat="40.8539950" lon="-4.0508640">
        <ele>1505.0</ele>
        <time>2019-04-28T07:28:10Z</time>
      </trkpt>
      <trkpt lat="40.8539700" lon="-4.0508710">
        <ele>1505.0</ele>
        <time>2019-04-28T07:28:11Z</time>
      </trkpt>
      <trkpt lat="40.8539440" lon="-4.0508730">
        <ele>1505.0</ele>
        <time>2019-04-28T07:28:12Z</time>
      </trkpt>
      <trkpt lat="40.8539160" lon="-4.0508750">
        <ele>1505.0</ele>
        <time>2019-04-28T07:28:13Z</time>
      </trkpt>
      <trkpt lat="40.8538770" lon="-4.0508910">
        <ele>1504.8</ele>
        <time>2019-04-28T07:28:14Z</time>
      </trkpt>
      <trkpt lat="40.8538290" lon="-4.0509080">
        <ele>1504.8</ele>
        <time>2019-04-28T07:28:15Z</time>
      </trkpt>
      <trkpt lat="40.8537890" lon="-4.0509260">
        <ele>1504.6</ele>
        <time>2019-04-28T07:28:16Z</time>
      </trkpt>
      <trkpt lat="40.8537580" lon="-4.0509420">
        <ele>1504.8</ele>
        <time>2019-04-28T07:28:17Z</time>
      </trkpt>
      <trkpt lat="40.8537210" lon="-4.0509570">
        <ele>1504.6</ele>
        <time>2019-04-28T07:28:18Z</time>
      </trkpt>
      <trkpt lat="40.8536880" lon="-4.0509700">
        <ele>1504.6</ele>
        <time>2019-04-28T07:28:19Z</time>
      </trkpt>
      <trkpt lat="40.8536520" lon="-4.0509800">
        <ele>1504.4</ele>
        <time>2019-04-28T07:28:20Z</time>
      </trkpt>
      <trkpt lat="40.8536180" lon="-4.0509900">
        <ele>1504.2</ele>
        <time>2019-04-28T07:28:21Z</time>
      </trkpt>
      <trkpt lat="40.8535830" lon="-4.0510040">
        <ele>1504.2</ele>
        <time>2019-04-28T07:28:22Z</time>
      </trkpt>
      <trkpt lat="40.8535500" lon="-4.0510230">
        <ele>1504.2</ele>
        <time>2019-04-28T07:28:23Z</time>
      </trkpt>
      <trkpt lat="40.8535130" lon="-4.0510400">
        <ele>1504.0</ele>
        <time>2019-04-28T07:28:24Z</time>
      </trkpt>
      <trkpt lat="40.8534750" lon="-4.0510570">
        <ele>1503.8</ele>
        <time>2019-04-28T07:28:25Z</time>
      </trkpt>
      <trkpt lat="40.8534360" lon="-4.0510870">
        <ele>1503.8</ele>
        <time>2019-04-28T07:28:26Z</time>
      </trkpt>
      <trkpt lat="40.8533760" lon="-4.0511090">
        <ele>1503.6</ele>
        <time>2019-04-28T07:28:27Z</time>
      </trkpt>
      <trkpt lat="40.8533390" lon="-4.0511170">
        <ele>1503.6</ele>
        <time>2019-04-28T07:28:28Z</time>
      </trkpt>
      <trkpt lat="40.8533040" lon="-4.0511220">
        <ele>1503.2</ele>
        <time>2019-04-28T07:28:29Z</time>
      </trkpt>
      <trkpt lat="40.8532660" lon="-4.0511230">
        <ele>1503.0</ele>
        <time>2019-04-28T07:28:30Z</time>
      </trkpt>
      <trkpt lat="40.8532190" lon="-4.0511340">
        <ele>1502.8</ele>
        <time>2019-04-28T07:28:31Z</time>
      </trkpt>
      <trkpt lat="40.8531970" lon="-4.0511380">
        <ele>1502.6</ele>
        <time>2019-04-28T07:28:32Z</time>
      </trkpt>
      <trkpt lat="40.8531590" lon="-4.0511490">
        <ele>1502.2</ele>
        <time>2019-04-28T07:28:33Z</time>
      </trkpt>
      <trkpt lat="40.8531210" lon="-4.0511550">
        <ele>1502.0</ele>
        <time>2019-04-28T07:28:34Z</time>
      </trkpt>
      <trkpt lat="40.8530660" lon="-4.0511650">
        <ele>1501.6</ele>
        <time>2019-04-28T07:28:35Z</time>
      </trkpt>
      <trkpt lat="40.8530160" lon="-4.0511710">
        <ele>1501.2</ele>
        <time>2019-04-28T07:28:36Z</time>
      </trkpt>
      <trkpt lat="40.8529720" lon="-4.0511820">
        <ele>1501.0</ele>
        <time>2019-04-28T07:28:37Z</time>
      </trkpt>
      <trkpt lat="40.8529280" lon="-4.0511900">
        <ele>1500.4</ele>
        <time>2019-04-28T07:28:38Z</time>
      </trkpt>
      <trkpt lat="40.8528760" lon="-4.0511990">
        <ele>1500.0</ele>
        <time>2019-04-28T07:28:39Z</time>
      </trkpt>
      <trkpt lat="40.8527940" lon="-4.0512110">
        <ele>1499.6</ele>
        <time>2019-04-28T07:28:40Z</time>
      </trkpt>
      <trkpt lat="40.8527550" lon="-4.0512160">
        <ele>1499.0</ele>
        <time>2019-04-28T07:28:41Z</time>
      </trkpt>
      <trkpt lat="40.8527000" lon="-4.0512220">
        <ele>1498.6</ele>
        <time>2019-04-28T07:28:42Z</time>
      </trkpt>
      <trkpt lat="40.8526520" lon="-4.0512430">
        <ele>1498.2</ele>
        <time>2019-04-28T07:28:43Z</time>
      </trkpt>
      <trkpt lat="40.8525980" lon="-4.0512640">
        <ele>1497.8</ele>
        <time>2019-04-28T07:28:44Z</time>
      </trkpt>
      <trkpt lat="40.8525420" lon="-4.0512770">
        <ele>1497.2</ele>
        <time>2019-04-28T07:28:45Z</time>
      </trkpt>
      <trkpt lat="40.8524950" lon="-4.0512640">
        <ele>1497.0</ele>
        <time>2019-04-28T07:28:46Z</time>
      </trkpt>
      <trkpt lat="40.8524550" lon="-4.0512640">
        <ele>1496.6</ele>
        <time>2019-04-28T07:28:47Z</time>
      </trkpt>
      <trkpt lat="40.8523990" lon="-4.0512920">
        <ele>1496.6</ele>
        <time>2019-04-28T07:28:48Z</time>
      </trkpt>
      <trkpt lat="40.8523110" lon="-4.0513170">
        <ele>1496.2</ele>
        <time>2019-04-28T07:28:49Z</time>
      </trkpt>
      <trkpt lat="40.8522740" lon="-4.0513460">
        <ele>1496.0</ele>
        <time>2019-04-28T07:28:50Z</time>
      </trkpt>
      <trkpt lat="40.8522450" lon="-4.0513540">
        <ele>1495.8</ele>
        <time>2019-04-28T07:28:51Z</time>
      </trkpt>
      <trkpt lat="40.8521810" lon="-4.0513770">
        <ele>1495.4</ele>
        <time>2019-04-28T07:28:52Z</time>
      </trkpt>
      <trkpt lat="40.8520670" lon="-4.0514160">
        <ele>1495.2</ele>
        <time>2019-04-28T07:28:53Z</time>
      </trkpt>
      <trkpt lat="40.8520010" lon="-4.0514550">
        <ele>1495.0</ele>
        <time>2019-04-28T07:28:54Z</time>
      </trkpt>
      <trkpt lat="40.8519390" lon="-4.0514780">
        <ele>1495.0</ele>
        <time>2019-04-28T07:28:55Z</time>
      </trkpt>
      <trkpt lat="40.8519070" lon="-4.0514770">
        <ele>1494.8</ele>
        <time>2019-04-28T07:28:56Z</time>
      </trkpt>
      <trkpt lat="40.8518610" lon="-4.0514970">
        <ele>1494.8</ele>
        <time>2019-04-28T07:28:57Z</time>
      </trkpt>
      <trkpt lat="40.8518180" lon="-4.0515080">
        <ele>1494.8</ele>
        <time>2019-04-28T07:28:58Z</time>
      </trkpt>
      <trkpt lat="40.8517950" lon="-4.0515050">
        <ele>1494.8</ele>
        <time>2019-04-28T07:28:59Z</time>
      </trkpt>
      <trkpt lat="40.8517170" lon="-4.0515150">
        <ele>1494.8</ele>
        <time>2019-04-28T07:29:00Z</time>
      </trkpt>
      <trkpt lat="40.8516720" lon="-4.0515210">
        <ele>1494.8</ele>
        <time>2019-04-28T07:29:01Z</time>
      </trkpt>
      <trkpt lat="40.8516250" lon="-4.0515460">
        <ele>1494.8</ele>
        <time>2019-04-28T07:29:02Z</time>
      </trkpt>
      <trkpt lat="40.8515670" lon="-4.0515720">
        <ele>1494.8</ele>
        <time>2019-04-28T07:29:03Z</time>
      </trkpt>
      <trkpt lat="40.8514970" lon="-4.0515860">
        <ele>1494.8</ele>
        <time>2019-04-28T07:29:04Z</time>
      </trkpt>
      <trkpt lat="40.8514520" lon="-4.0516000">
        <ele>1495.0</ele>
        <time>2019-04-28T07:29:05Z</time>
      </trkpt>
      <trkpt lat="40.8513740" lon="-4.0516200">
        <ele>1495.0</ele>
        <time>2019-04-28T07:29:06Z</time>
      </trkpt>
      <trkpt lat="40.8512890" lon="-4.0516440">
        <ele>1495.0</ele>
        <time>2019-04-28T07:29:07Z</time>
      </trkpt>
      <trkpt lat="40.8512470" lon="-4.0516630">
        <ele>1495.0</ele>
        <time>2019-04-28T07:29:08Z</time>
      </trkpt>
      <trkpt lat="40.8512040" lon="-4.0516790">
        <ele>1495.0</ele>
        <time>2019-04-28T07:29:09Z</time>
      </trkpt>
      <trkpt lat="40.8511230" lon="-4.0517050">
        <ele>1495.0</ele>
        <time>2019-04-28T07:29:10Z</time>
      </trkpt>
      <trkpt lat="40.8510830" lon="-4.0517260">
        <ele>1495.2</ele>
        <time>2019-04-28T07:29:11Z</time>
      </trkpt>
      <trkpt lat="40.8510350" lon="-4.0517490">
        <ele>1495.2</ele>
        <time>2019-04-28T07:29:12Z</time>
      </trkpt>
      <trkpt lat="40.8509940" lon="-4.0517630">
        <ele>1495.4</ele>
        <time>2019-04-28T07:29:13Z</time>
      </trkpt>
      <trkpt lat="40.8509540" lon="-4.0517780">
        <ele>1495.6</ele>
        <time>2019-04-28T07:29:14Z</time>
      </trkpt>
      <trkpt lat="40.8508790" lon="-4.0518070">
        <ele>1495.6</ele>
        <time>2019-04-28T07:29:15Z</time>
      </trkpt>
      <trkpt lat="40.8508670" lon="-4.0518200">
        <ele>1495.8</ele>
        <time>2019-04-28T07:29:16Z</time>
      </trkpt>
      <trkpt lat="40.8508460" lon="-4.0518340">
        <ele>1495.8</ele>
        <time>2019-04-28T07:29:17Z</time>
      </trkpt>
      <trkpt lat="40.8507940" lon="-4.0518540">
        <ele>1496.2</ele>
        <time>2019-04-28T07:29:18Z</time>
      </trkpt>
      <trkpt lat="40.8507080" lon="-4.0518730">
        <ele>1496.2</ele>
        <time>2019-04-28T07:29:19Z</time>
      </trkpt>
      <trkpt lat="40.8506760" lon="-4.0518840">
        <ele>1496.6</ele>
        <time>2019-04-28T07:29:20Z</time>
      </trkpt>
      <trkpt lat="40.8506080" lon="-4.0519050">
        <ele>1496.6</ele>
        <time>2019-04-28T07:29:21Z</time>
      </trkpt>
      <trkpt lat="40.8505540" lon="-4.0519310">
        <ele>1496.8</ele>
        <time>2019-04-28T07:29:22Z</time>
      </trkpt>
      <trkpt lat="40.8505280" lon="-4.0519490">
        <ele>1497.0</ele>
        <time>2019-04-28T07:29:23Z</time>
      </trkpt>
      <trkpt lat="40.8504610" lon="-4.0519820">
        <ele>1497.2</ele>
        <time>2019-04-28T07:29:24Z</time>
      </trkpt>
      <trkpt lat="40.8504370" lon="-4.0519960">
        <ele>1497.4</ele>
        <time>2019-04-28T07:29:25Z</time>
      </trkpt>
      <trkpt lat="40.8503760" lon="-4.0520110">
        <ele>1497.6</ele>
        <time>2019-04-28T07:29:26Z</time>
      </trkpt>
      <trkpt lat="40.8503110" lon="-4.0520250">
        <ele>1497.8</ele>
        <time>2019-04-28T07:29:27Z</time>
      </trkpt>
      <trkpt lat="40.8502600" lon="-4.0520370">
        <ele>1498.0</ele>
        <time>2019-04-28T07:29:28Z</time>
      </trkpt>
      <trkpt lat="40.8502290" lon="-4.0520460">
        <ele>1498.2</ele>
        <time>2019-04-28T07:29:29Z</time>
      </trkpt>
      <trkpt lat="40.8501870" lon="-4.0520520">
        <ele>1498.4</ele>
        <time>2019-04-28T07:29:30Z</time>
      </trkpt>
      <trkpt lat="40.8501340" lon="-4.0520610">
        <ele>1498.4</ele>
        <time>2019-04-28T07:29:31Z</time>
      </trkpt>
      <trkpt lat="40.8500720" lon="-4.0520690">
        <ele>1498.8</ele>
        <time>2019-04-28T07:29:32Z</time>
      </trkpt>
      <trkpt lat="40.8500060" lon="-4.0520790">
        <ele>1499.0</ele>
        <time>2019-04-28T07:29:33Z</time>
      </trkpt>
      <trkpt lat="40.8499610" lon="-4.0520790">
        <ele>1499.2</ele>
        <time>2019-04-28T07:29:34Z</time>
      </trkpt>
      <trkpt lat="40.8498960" lon="-4.0520930">
        <ele>1499.2</ele>
        <time>2019-04-28T07:29:35Z</time>
      </trkpt>
      <trkpt lat="40.8498480" lon="-4.0520960">
        <ele>1499.4</ele>
        <time>2019-04-28T07:29:36Z</time>
      </trkpt>
      <trkpt lat="40.8497840" lon="-4.0520990">
        <ele>1499.4</ele>
        <time>2019-04-28T07:29:37Z</time>
      </trkpt>
      <trkpt lat="40.8497360" lon="-4.0520960">
        <ele>1499.6</ele>
        <time>2019-04-28T07:29:38Z</time>
      </trkpt>
      <trkpt lat="40.8496950" lon="-4.0520910">
        <ele>1499.6</ele>
        <time>2019-04-28T07:29:39Z</time>
      </trkpt>
      <trkpt lat="40.8496530" lon="-4.0520890">
        <ele>1499.8</ele>
        <time>2019-04-28T07:29:40Z</time>
      </trkpt>
      <trkpt lat="40.8496030" lon="-4.0520920">
        <ele>1499.8</ele>
        <time>2019-04-28T07:29:41Z</time>
      </trkpt>
      <trkpt lat="40.8495410" lon="-4.0520900">
        <ele>1500.0</ele>
        <time>2019-04-28T07:29:42Z</time>
      </trkpt>
      <trkpt lat="40.8494840" lon="-4.0520800">
        <ele>1500.0</ele>
        <time>2019-04-28T07:29:43Z</time>
      </trkpt>
      <trkpt lat="40.8494290" lon="-4.0520900">
        <ele>1500.0</ele>
        <time>2019-04-28T07:29:44Z</time>
      </trkpt>
      <trkpt lat="40.8493680" lon="-4.0520960">
        <ele>1500.2</ele>
        <time>2019-04-28T07:29:45Z</time>
      </trkpt>
      <trkpt lat="40.8492790" lon="-4.0521060">
        <ele>1500.4</ele>
        <time>2019-04-28T07:29:46Z</time>
      </trkpt>
      <trkpt lat="40.8492310" lon="-4.0521190">
        <ele>1500.4</ele>
        <time>2019-04-28T07:29:47Z</time>
      </trkpt>
      <trkpt lat="40.8491550" lon="-4.0521300">
        <ele>1500.4</ele>
        <time>2019-04-28T07:29:48Z</time>
      </trkpt>
      <trkpt lat="40.8491090" lon="-4.0521420">
        <ele>1500.6</ele>
        <time>2019-04-28T07:29:49Z</time>
      </trkpt>
      <trkpt lat="40.8490760" lon="-4.0521500">
        <ele>1500.6</ele>
        <time>2019-04-28T07:29:50Z</time>
      </trkpt>
      <trkpt lat="40.8490270" lon="-4.0521560">
        <ele>1500.6</ele>
        <time>2019-04-28T07:29:51Z</time>
      </trkpt>
      <trkpt lat="40.8489810" lon="-4.0521520">
        <ele>1500.8</ele>
        <time>2019-04-28T07:29:52Z</time>
      </trkpt>
      <trkpt lat="40.8489300" lon="-4.0521520">
        <ele>1500.8</ele>
        <time>2019-04-28T07:29:53Z</time>
      </trkpt>
      <trkpt lat="40.8488850" lon="-4.0521500">
        <ele>1501.0</ele>
        <time>2019-04-28T07:29:54Z</time>
      </trkpt>
      <trkpt lat="40.8488460" lon="-4.0521450">
        <ele>1501.0</ele>
        <time>2019-04-28T07:29:55Z</time>
      </trkpt>
      <trkpt lat="40.8488030" lon="-4.0521440">
        <ele>1501.2</ele>
        <time>2019-04-28T07:29:56Z</time>
      </trkpt>
      <trkpt lat="40.8487750" lon="-4.0521390">
        <ele>1501.2</ele>
        <time>2019-04-28T07:29:57Z</time>
      </trkpt>
      <trkpt lat="40.8487480" lon="-4.0521380">
        <ele>1501.4</ele>
        <time>2019-04-28T07:29:58Z</time>
      </trkpt>
      <trkpt lat="40.8487010" lon="-4.0521400">
        <ele>1501.4</ele>
        <time>2019-04-28T07:29:59Z</time>
      </trkpt>
      <trkpt lat="40.8486540" lon="-4.0521260">
        <ele>1501.4</ele>
        <time>2019-04-28T07:30:00Z</time>
      </trkpt>
      <trkpt lat="40.8486140" lon="-4.0521150">
        <ele>1501.6</ele>
        <time>2019-04-28T07:30:01Z</time>
      </trkpt>
      <trkpt lat="40.8485940" lon="-4.0521060">
        <ele>1501.8</ele>
        <time>2019-04-28T07:30:02Z</time>
      </trkpt>
      <trkpt lat="40.8485450" lon="-4.0520990">
        <ele>1501.8</ele>
        <time>2019-04-28T07:30:03Z</time>
      </trkpt>
      <trkpt lat="40.8484930" lon="-4.0520850">
        <ele>1502.0</ele>
        <time>2019-04-28T07:30:04Z</time>
      </trkpt>
      <trkpt lat="40.8484290" lon="-4.0520860">
        <ele>1502.2</ele>
        <time>2019-04-28T07:30:05Z</time>
      </trkpt>
      <trkpt lat="40.8483880" lon="-4.0520700">
        <ele>1502.4</ele>
        <time>2019-04-28T07:30:06Z</time>
      </trkpt>
      <trkpt lat="40.8483480" lon="-4.0520420">
        <ele>1502.4</ele>
        <time>2019-04-28T07:30:07Z</time>
      </trkpt>
      <trkpt lat="40.8483140" lon="-4.0520240">
        <ele>1502.6</ele>
        <time>2019-04-28T07:30:08Z</time>
      </trkpt>
      <trkpt lat="40.8482850" lon="-4.0520110">
        <ele>1502.6</ele>
        <time>2019-04-28T07:30:09Z</time>
      </trkpt>
      <trkpt lat="40.8482510" lon="-4.0519890">
        <ele>1502.8</ele>
        <time>2019-04-28T07:30:10Z</time>
      </trkpt>
      <trkpt lat="40.8482100" lon="-4.0519630">
        <ele>1503.0</ele>
        <time>2019-04-28T07:30:11Z</time>
      </trkpt>
      <trkpt lat="40.8481760" lon="-4.0519410">
        <ele>1503.0</ele>
        <time>2019-04-28T07:30:12Z</time>
      </trkpt>
      <trkpt lat="40.8481400" lon="-4.0519250">
        <ele>1503.2</ele>
        <time>2019-04-28T07:30:13Z</time>
      </trkpt>
      <trkpt lat="40.8480930" lon="-4.0518950">
        <ele>1503.4</ele>
        <time>2019-04-28T07:30:14Z</time>
      </trkpt>
      <trkpt lat="40.8480500" lon="-4.0518700">
        <ele>1503.4</ele>
        <time>2019-04-28T07:30:15Z</time>
      </trkpt>
      <trkpt lat="40.8480070" lon="-4.0518470">
        <ele>1503.6</ele>
        <time>2019-04-28T07:30:16Z</time>
      </trkpt>
      <trkpt lat="40.8479540" lon="-4.0518370">
        <ele>1503.8</ele>
        <time>2019-04-28T07:30:17Z</time>
      </trkpt>
      <trkpt lat="40.8479150" lon="-4.0518090">
        <ele>1503.8</ele>
        <time>2019-04-28T07:30:18Z</time>
      </trkpt>
      <trkpt lat="40.8478840" lon="-4.0517830">
        <ele>1504.0</ele>
        <time>2019-04-28T07:30:19Z</time>
      </trkpt>
      <trkpt lat="40.8478500" lon="-4.0517570">
        <ele>1504.2</ele>
        <time>2019-04-28T07:30:20Z</time>
      </trkpt>
      <trkpt lat="40.8478100" lon="-4.0517320">
        <ele>1504.4</ele>
        <time>2019-04-28T07:30:21Z</time>
      </trkpt>
      <trkpt lat="40.8477800" lon="-4.0517200">
        <ele>1504.4</ele>
        <time>2019-04-28T07:30:22Z</time>
      </trkpt>
      <trkpt lat="40.8477430" lon="-4.0516950">
        <ele>1504.6</ele>
        <time>2019-04-28T07:30:23Z</time>
      </trkpt>
      <trkpt lat="40.8476940" lon="-4.0516640">
        <ele>1504.8</ele>
        <time>2019-04-28T07:30:24Z</time>
      </trkpt>
      <trkpt lat="40.8476640" lon="-4.0516300">
        <ele>1504.8</ele>
        <time>2019-04-28T07:30:25Z</time>
      </trkpt>
      <trkpt lat="40.8476300" lon="-4.0516010">
        <ele>1505.0</ele>
        <time>2019-04-28T07:30:26Z</time>
      </trkpt>
      <trkpt lat="40.8475870" lon="-4.0515680">
        <ele>1505.2</ele>
        <time>2019-04-28T07:30:27Z</time>
      </trkpt>
      <trkpt lat="40.8475490" lon="-4.0515350">
        <ele>1505.2</ele>
        <time>2019-04-28T07:30:28Z</time>
      </trkpt>
      <trkpt lat="40.8475310" lon="-4.0515160">
        <ele>1505.4</ele>
        <time>2019-04-28T07:30:29Z</time>
      </trkpt>
      <trkpt lat="40.8475050" lon="-4.0514910">
        <ele>1505.4</ele>
        <time>2019-04-28T07:30:30Z</time>
      </trkpt>
      <trkpt lat="40.8474890" lon="-4.0514680">
        <ele>1505.6</ele>
        <time>2019-04-28T07:30:31Z</time>
      </trkpt>
      <trkpt lat="40.8474650" lon="-4.0514450">
        <ele>1505.8</ele>
        <time>2019-04-28T07:30:32Z</time>
      </trkpt>
      <trkpt lat="40.8474410" lon="-4.0514090">
        <ele>1506.0</ele>
        <time>2019-04-28T07:30:33Z</time>
      </trkpt>
      <trkpt lat="40.8474130" lon="-4.0513760">
        <ele>1506.0</ele>
        <time>2019-04-28T07:30:34Z</time>
      </trkpt>
      <trkpt lat="40.8473930" lon="-4.0513450">
        <ele>1506.4</ele>
        <time>2019-04-28T07:30:35Z</time>
      </trkpt>
      <trkpt lat="40.8473640" lon="-4.0513300">
        <ele>1506.4</ele>
        <time>2019-04-28T07:30:36Z</time>
      </trkpt>
      <trkpt lat="40.8473270" lon="-4.0513060">
        <ele>1506.6</ele>
        <time>2019-04-28T07:30:37Z</time>
      </trkpt>
      <trkpt lat="40.8473040" lon="-4.0512840">
        <ele>1506.8</ele>
        <time>2019-04-28T07:30:38Z</time>
      </trkpt>
      <trkpt lat="40.8472770" lon="-4.0512630">
        <ele>1507.2</ele>
        <time>2019-04-28T07:30:39Z</time>
      </trkpt>
      <trkpt lat="40.8472450" lon="-4.0512430">
        <ele>1507.4</ele>
        <time>2019-04-28T07:30:40Z</time>
      </trkpt>
      <trkpt lat="40.8472180" lon="-4.0512260">
        <ele>1507.6</ele>
        <time>2019-04-28T07:30:41Z</time>
      </trkpt>
      <trkpt lat="40.8471960" lon="-4.0512040">
        <ele>1507.8</ele>
        <time>2019-04-28T07:30:42Z</time>
      </trkpt>
      <trkpt lat="40.8471700" lon="-4.0511930">
        <ele>1508.0</ele>
        <time>2019-04-28T07:30:43Z</time>
      </trkpt>
      <trkpt lat="40.8471480" lon="-4.0511830">
        <ele>1508.2</ele>
        <time>2019-04-28T07:30:44Z</time>
      </trkpt>
      <trkpt lat="40.8471350" lon="-4.0511780">
        <ele>1508.4</ele>
        <time>2019-04-28T07:30:45Z</time>
      </trkpt>
      <trkpt lat="40.8471110" lon="-4.0511770">
        <ele>1508.6</ele>
        <time>2019-04-28T07:30:46Z</time>
      </trkpt>
      <trkpt lat="40.8470950" lon="-4.0511710">
        <ele>1508.8</ele>
        <time>2019-04-28T07:30:47Z</time>
      </trkpt>
      <trkpt lat="40.8470880" lon="-4.0511590">
        <ele>1509.0</ele>
        <time>2019-04-28T07:30:48Z</time>
      </trkpt>
      <trkpt lat="40.8470770" lon="-4.0511690">
        <ele>1509.2</ele>
        <time>2019-04-28T07:30:49Z</time>
      </trkpt>
      <trkpt lat="40.8470630" lon="-4.0511700">
        <ele>1509.4</ele>
        <time>2019-04-28T07:30:50Z</time>
      </trkpt>
      <trkpt lat="40.8470410" lon="-4.0511750">
        <ele>1509.6</ele>
        <time>2019-04-28T07:30:51Z</time>
      </trkpt>
      <trkpt lat="40.8470160" lon="-4.0511870">
        <ele>1509.8</ele>
        <time>2019-04-28T07:30:52Z</time>
      </trkpt>
      <trkpt lat="40.8469890" lon="-4.0512010">
        <ele>1510.0</ele>
        <time>2019-04-28T07:30:53Z</time>
      </trkpt>
      <trkpt lat="40.8469630" lon="-4.0512220">
        <ele>1510.0</ele>
        <time>2019-04-28T07:30:54Z</time>
      </trkpt>
      <trkpt lat="40.8469390" lon="-4.0512420">
        <ele>1510.2</ele>
        <time>2019-04-28T07:30:55Z</time>
      </trkpt>
      <trkpt lat="40.8469090" lon="-4.0512590">
        <ele>1510.2</ele>
        <time>2019-04-28T07:30:56Z</time>
      </trkpt>
      <trkpt lat="40.8468930" lon="-4.0512700">
        <ele>1510.4</ele>
        <time>2019-04-28T07:30:57Z</time>
      </trkpt>
      <trkpt lat="40.8468570" lon="-4.0512880">
        <ele>1510.4</ele>
        <time>2019-04-28T07:30:58Z</time>
      </trkpt>
      <trkpt lat="40.8467960" lon="-4.0513140">
        <ele>1510.4</ele>
        <time>2019-04-28T07:30:59Z</time>
      </trkpt>
      <trkpt lat="40.8467760" lon="-4.0513290">
        <ele>1510.4</ele>
        <time>2019-04-28T07:31:00Z</time>
      </trkpt>
      <trkpt lat="40.8467480" lon="-4.0513430">
        <ele>1510.6</ele>
        <time>2019-04-28T07:31:01Z</time>
      </trkpt>
      <trkpt lat="40.8467180" lon="-4.0513540">
        <ele>1510.6</ele>
        <time>2019-04-28T07:31:02Z</time>
      </trkpt>
      <trkpt lat="40.8466980" lon="-4.0513650">
        <ele>1510.8</ele>
        <time>2019-04-28T07:31:03Z</time>
      </trkpt>
      <trkpt lat="40.8466840" lon="-4.0513770">
        <ele>1510.8</ele>
        <time>2019-04-28T07:31:04Z</time>
      </trkpt>
      <trkpt lat="40.8466660" lon="-4.0513900">
        <ele>1510.8</ele>
        <time>2019-04-28T07:31:05Z</time>
      </trkpt>
      <trkpt lat="40.8466480" lon="-4.0514080">
        <ele>1511.0</ele>
        <time>2019-04-28T07:31:06Z</time>
      </trkpt>
      <trkpt lat="40.8466250" lon="-4.0514190">
        <ele>1511.0</ele>
        <time>2019-04-28T07:31:07Z</time>
      </trkpt>
      <trkpt lat="40.8465910" lon="-4.0514290">
        <ele>1511.2</ele>
        <time>2019-04-28T07:31:08Z</time>
      </trkpt>
      <trkpt lat="40.8465670" lon="-4.0514430">
        <ele>1511.2</ele>
        <time>2019-04-28T07:31:09Z</time>
      </trkpt>
      <trkpt lat="40.8465410" lon="-4.0514540">
        <ele>1511.4</ele>
        <time>2019-04-28T07:31:10Z</time>
      </trkpt>
      <trkpt lat="40.8465020" lon="-4.0514640">
        <ele>1511.4</ele>
        <time>2019-04-28T07:31:11Z</time>
      </trkpt>
      <trkpt lat="40.8464680" lon="-4.0514750">
        <ele>1511.4</ele>
        <time>2019-04-28T07:31:12Z</time>
      </trkpt>
      <trkpt lat="40.8464380" lon="-4.0514920">
        <ele>1511.6</ele>
        <time>2019-04-28T07:31:13Z</time>
      </trkpt>
      <trkpt lat="40.8464150" lon="-4.0515040">
        <ele>1511.6</ele>
        <time>2019-04-28T07:31:14Z</time>
      </trkpt>
      <trkpt lat="40.8463830" lon="-4.0515080">
        <ele>1511.8</ele>
        <time>2019-04-28T07:31:15Z</time>
      </trkpt>
      <trkpt lat="40.8463560" lon="-4.0515170">
        <ele>1511.8</ele>
        <time>2019-04-28T07:31:16Z</time>
      </trkpt>
      <trkpt lat="40.8463260" lon="-4.0515290">
        <ele>1512.0</ele>
        <time>2019-04-28T07:31:17Z</time>
      </trkpt>
      <trkpt lat="40.8463010" lon="-4.0515460">
        <ele>1512.0</ele>
        <time>2019-04-28T07:31:18Z</time>
      </trkpt>
      <trkpt lat="40.8462640" lon="-4.0515610">
        <ele>1512.2</ele>
        <time>2019-04-28T07:31:19Z</time>
      </trkpt>
      <trkpt lat="40.8462290" lon="-4.0515730">
        <ele>1512.2</ele>
        <time>2019-04-28T07:31:20Z</time>
      </trkpt>
      <trkpt lat="40.8461930" lon="-4.0515860">
        <ele>1512.2</ele>
        <time>2019-04-28T07:31:21Z</time>
      </trkpt>
      <trkpt lat="40.8461620" lon="-4.0516020">
        <ele>1512.4</ele>
        <time>2019-04-28T07:31:22Z</time>
      </trkpt>
      <trkpt lat="40.8461290" lon="-4.0516170">
        <ele>1512.4</ele>
        <time>2019-04-28T07:31:23Z</time>
      </trkpt>
      <trkpt lat="40.8461200" lon="-4.0516310">
        <ele>1512.6</ele>
        <time>2019-04-28T07:31:24Z</time>
      </trkpt>
      <trkpt lat="40.8460850" lon="-4.0516520">
        <ele>1512.6</ele>
        <time>2019-04-28T07:31:25Z</time>
      </trkpt>
      <trkpt lat="40.8460600" lon="-4.0516720">
        <ele>1512.8</ele>
        <time>2019-04-28T07:31:26Z</time>
      </trkpt>
      <trkpt lat="40.8460350" lon="-4.0516870">
        <ele>1512.8</ele>
        <time>2019-04-28T07:31:27Z</time>
      </trkpt>
      <trkpt lat="40.8460090" lon="-4.0517010">
        <ele>1513.0</ele>
        <time>2019-04-28T07:31:28Z</time>
      </trkpt>
      <trkpt lat="40.8459790" lon="-4.0517150">
        <ele>1513.0</ele>
        <time>2019-04-28T07:31:29Z</time>
      </trkpt>
      <trkpt lat="40.8459540" lon="-4.0517280">
        <ele>1513.2</ele>
        <time>2019-04-28T07:31:30Z</time>
      </trkpt>
      <trkpt lat="40.8459100" lon="-4.0517450">
        <ele>1513.2</ele>
        <time>2019-04-28T07:31:31Z</time>
      </trkpt>
      <trkpt lat="40.8458830" lon="-4.0517560">
        <ele>1513.4</ele>
        <time>2019-04-28T07:31:32Z</time>
      </trkpt>
      <trkpt lat="40.8458530" lon="-4.0517690">
        <ele>1513.4</ele>
        <time>2019-04-28T07:31:33Z</time>
      </trkpt>
      <trkpt lat="40.8458200" lon="-4.0517830">
        <ele>1513.6</ele>
        <time>2019-04-28T07:31:34Z</time>
      </trkpt>
      <trkpt lat="40.8458070" lon="-4.0517940">
        <ele>1513.8</ele>
        <time>2019-04-28T07:31:35Z</time>
      </trkpt>
      <trkpt lat="40.8457830" lon="-4.0518050">
        <ele>1513.8</ele>
        <time>2019-04-28T07:31:36Z</time>
      </trkpt>
      <trkpt lat="40.8457480" lon="-4.0518250">
        <ele>1513.8</ele>
        <time>2019-04-28T07:31:37Z</time>
      </trkpt>
      <trkpt lat="40.8457240" lon="-4.0518200">
        <ele>1514.0</ele>
        <time>2019-04-28T07:31:38Z</time>
      </trkpt>
      <trkpt lat="40.8456930" lon="-4.0518200">
        <ele>1514.2</ele>
        <time>2019-04-28T07:31:39Z</time>
      </trkpt>
      <trkpt lat="40.8456680" lon="-4.0518310">
        <ele>1514.2</ele>
        <time>2019-04-28T07:31:40Z</time>
      </trkpt>
      <trkpt lat="40.8456440" lon="-4.0518430">
        <ele>1514.4</ele>
        <time>2019-04-28T07:31:41Z</time>
      </trkpt>
      <trkpt lat="40.8456070" lon="-4.0518630">
        <ele>1514.4</ele>
        <time>2019-04-28T07:31:42Z</time>
      </trkpt>
      <trkpt lat="40.8455680" lon="-4.0518770">
        <ele>1514.6</ele>
        <time>2019-04-28T07:31:43Z</time>
      </trkpt>
      <trkpt lat="40.8455270" lon="-4.0518800">
        <ele>1514.6</ele>
        <time>2019-04-28T07:31:44Z</time>
      </trkpt>
      <trkpt lat="40.8454880" lon="-4.0518840">
        <ele>1514.8</ele>
        <time>2019-04-28T07:31:45Z</time>
      </trkpt>
      <trkpt lat="40.8454570" lon="-4.0518860">
        <ele>1515.0</ele>
        <time>2019-04-28T07:31:46Z</time>
      </trkpt>
      <trkpt lat="40.8454190" lon="-4.0518840">
        <ele>1515.0</ele>
        <time>2019-04-28T07:31:47Z</time>
      </trkpt>
      <trkpt lat="40.8453900" lon="-4.0518770">
        <ele>1515.0</ele>
        <time>2019-04-28T07:31:48Z</time>
      </trkpt>
      <trkpt lat="40.8453510" lon="-4.0518620">
        <ele>1515.2</ele>
        <time>2019-04-28T07:31:49Z</time>
      </trkpt>
      <trkpt lat="40.8453140" lon="-4.0518550">
        <ele>1515.2</ele>
        <time>2019-04-28T07:31:50Z</time>
      </trkpt>
      <trkpt lat="40.8452840" lon="-4.0518520">
        <ele>1515.4</ele>
        <time>2019-04-28T07:31:51Z</time>
      </trkpt>
      <trkpt lat="40.8452560" lon="-4.0518580">
        <ele>1515.4</ele>
        <time>2019-04-28T07:31:52Z</time>
      </trkpt>
      <trkpt lat="40.8452180" lon="-4.0518480">
        <ele>1515.6</ele>
        <time>2019-04-28T07:31:53Z</time>
      </trkpt>
      <trkpt lat="40.8451850" lon="-4.0518330">
        <ele>1515.6</ele>
        <time>2019-04-28T07:31:54Z</time>
      </trkpt>
      <trkpt lat="40.8451520" lon="-4.0518270">
        <ele>1515.6</ele>
        <time>2019-04-28T07:31:55Z</time>
      </trkpt>
      <trkpt lat="40.8451150" lon="-4.0518230">
        <ele>1515.8</ele>
        <time>2019-04-28T07:31:56Z</time>
      </trkpt>
      <trkpt lat="40.8450860" lon="-4.0518230">
        <ele>1515.8</ele>
        <time>2019-04-28T07:31:57Z</time>
      </trkpt>
      <trkpt lat="40.8450660" lon="-4.0518330">
        <ele>1515.8</ele>
        <time>2019-04-28T07:31:58Z</time>
      </trkpt>
      <trkpt lat="40.8450340" lon="-4.0518330">
        <ele>1516.0</ele>
        <time>2019-04-28T07:31:59Z</time>
      </trkpt>
      <trkpt lat="40.8449960" lon="-4.0518350">
        <ele>1516.0</ele>
        <time>2019-04-28T07:32:00Z</time>
      </trkpt>
      <trkpt lat="40.8449570" lon="-4.0518280">
        <ele>1516.0</ele>
        <time>2019-04-28T07:32:01Z</time>
      </trkpt>
      <trkpt lat="40.8449270" lon="-4.0518230">
        <ele>1516.0</ele>
        <time>2019-04-28T07:32:02Z</time>
      </trkpt>
      <trkpt lat="40.8448940" lon="-4.0518170">
        <ele>1516.2</ele>
        <time>2019-04-28T07:32:03Z</time>
      </trkpt>
      <trkpt lat="40.8448540" lon="-4.0518110">
        <ele>1516.2</ele>
        <time>2019-04-28T07:32:04Z</time>
      </trkpt>
      <trkpt lat="40.8448210" lon="-4.0518060">
        <ele>1516.2</ele>
        <time>2019-04-28T07:32:05Z</time>
      </trkpt>
      <trkpt lat="40.8447870" lon="-4.0518010">
        <ele>1516.2</ele>
        <time>2019-04-28T07:32:06Z</time>
      </trkpt>
      <trkpt lat="40.8447490" lon="-4.0517890">
        <ele>1516.4</ele>
        <time>2019-04-28T07:32:07Z</time>
      </trkpt>
      <trkpt lat="40.8446830" lon="-4.0517880">
        <ele>1516.4</ele>
        <time>2019-04-28T07:32:08Z</time>
      </trkpt>
      <trkpt lat="40.8446430" lon="-4.0517830">
        <ele>1516.6</ele>
        <time>2019-04-28T07:32:09Z</time>
      </trkpt>
      <trkpt lat="40.8445900" lon="-4.0517860">
        <ele>1516.6</ele>
        <time>2019-04-28T07:32:10Z</time>
      </trkpt>
      <trkpt lat="40.8445540" lon="-4.0517900">
        <ele>1516.8</ele>
        <time>2019-04-28T07:32:11Z</time>
      </trkpt>
      <trkpt lat="40.8445130" lon="-4.0517630">
        <ele>1517.0</ele>
        <time>2019-04-28T07:32:12Z</time>
      </trkpt>
      <trkpt lat="40.8444700" lon="-4.0517550">
        <ele>1517.2</ele>
        <time>2019-04-28T07:32:13Z</time>
      </trkpt>
      <trkpt lat="40.8444040" lon="-4.0517510">
        <ele>1517.4</ele>
        <time>2019-04-28T07:32:14Z</time>
      </trkpt>
      <trkpt lat="40.8443550" lon="-4.0517430">
        <ele>1517.6</ele>
        <time>2019-04-28T07:32:15Z</time>
      </trkpt>
      <trkpt lat="40.8443020" lon="-4.0517340">
        <ele>1517.6</ele>
        <time>2019-04-28T07:32:16Z</time>
      </trkpt>
      <trkpt lat="40.8442670" lon="-4.0517260">
        <ele>1517.8</ele>
        <time>2019-04-28T07:32:17Z</time>
      </trkpt>
      <trkpt lat="40.8442340" lon="-4.0517070">
        <ele>1518.0</ele>
        <time>2019-04-28T07:32:18Z</time>
      </trkpt>
      <trkpt lat="40.8442000" lon="-4.0516920">
        <ele>1518.2</ele>
        <time>2019-04-28T07:32:19Z</time>
      </trkpt>
      <trkpt lat="40.8441720" lon="-4.0516770">
        <ele>1518.4</ele>
        <time>2019-04-28T07:32:20Z</time>
      </trkpt>
      <trkpt lat="40.8441410" lon="-4.0516600">
        <ele>1518.4</ele>
        <time>2019-04-28T07:32:21Z</time>
      </trkpt>
      <trkpt lat="40.8441130" lon="-4.0516360">
        <ele>1518.6</ele>
        <time>2019-04-28T07:32:22Z</time>
      </trkpt>
      <trkpt lat="40.8440900" lon="-4.0516130">
        <ele>1518.8</ele>
        <time>2019-04-28T07:32:23Z</time>
      </trkpt>
      <trkpt lat="40.8440660" lon="-4.0515890">
        <ele>1519.0</ele>
        <time>2019-04-28T07:32:24Z</time>
      </trkpt>
      <trkpt lat="40.8440380" lon="-4.0515620">
        <ele>1519.0</ele>
        <time>2019-04-28T07:32:25Z</time>
      </trkpt>
      <trkpt lat="40.8440160" lon="-4.0515310">
        <ele>1519.2</ele>
        <time>2019-04-28T07:32:26Z</time>
      </trkpt>
      <trkpt lat="40.8439940" lon="-4.0514970">
        <ele>1519.4</ele>
        <time>2019-04-28T07:32:27Z</time>
      </trkpt>
      <trkpt lat="40.8439730" lon="-4.0514630">
        <ele>1519.6</ele>
        <time>2019-04-28T07:32:28Z</time>
      </trkpt>
      <trkpt lat="40.8439460" lon="-4.0514300">
        <ele>1519.8</ele>
        <time>2019-04-28T07:32:29Z</time>
      </trkpt>
      <trkpt lat="40.8439190" lon="-4.0513870">
        <ele>1519.8</ele>
        <time>2019-04-28T07:32:30Z</time>
      </trkpt>
      <trkpt lat="40.8438980" lon="-4.0513540">
        <ele>1520.2</ele>
        <time>2019-04-28T07:32:31Z</time>
      </trkpt>
      <trkpt lat="40.8438900" lon="-4.0513190">
        <ele>1520.2</ele>
        <time>2019-04-28T07:32:32Z</time>
      </trkpt>
      <trkpt lat="40.8438730" lon="-4.0512770">
        <ele>1520.4</ele>
        <time>2019-04-28T07:32:33Z</time>
      </trkpt>
      <trkpt lat="40.8438650" lon="-4.0512430">
        <ele>1520.6</ele>
        <time>2019-04-28T07:32:34Z</time>
      </trkpt>
      <trkpt lat="40.8438570" lon="-4.0512100">
        <ele>1520.6</ele>
        <time>2019-04-28T07:32:35Z</time>
      </trkpt>
      <trkpt lat="40.8438510" lon="-4.0511730">
        <ele>1520.6</ele>
        <time>2019-04-28T07:32:36Z</time>
      </trkpt>
      <trkpt lat="40.8438390" lon="-4.0511330">
        <ele>1520.6</ele>
        <time>2019-04-28T07:32:37Z</time>
      </trkpt>
      <trkpt lat="40.8438410" lon="-4.0511010">
        <ele>1520.6</ele>
        <time>2019-04-28T07:32:38Z</time>
      </trkpt>
      <trkpt lat="40.8438460" lon="-4.0510720">
        <ele>1520.6</ele>
        <time>2019-04-28T07:32:39Z</time>
      </trkpt>
      <trkpt lat="40.8438460" lon="-4.0510160">
        <ele>1520.4</ele>
        <time>2019-04-28T07:32:40Z</time>
      </trkpt>
      <trkpt lat="40.8438540" lon="-4.0509690">
        <ele>1520.4</ele>
        <time>2019-04-28T07:32:41Z</time>
      </trkpt>
      <trkpt lat="40.8438610" lon="-4.0509270">
        <ele>1520.2</ele>
        <time>2019-04-28T07:32:42Z</time>
      </trkpt>
      <trkpt lat="40.8438580" lon="-4.0508810">
        <ele>1520.2</ele>
        <time>2019-04-28T07:32:43Z</time>
      </trkpt>
      <trkpt lat="40.8438520" lon="-4.0508230">
        <ele>1520.2</ele>
        <time>2019-04-28T07:32:44Z</time>
      </trkpt>
      <trkpt lat="40.8438380" lon="-4.0507670">
        <ele>1520.2</ele>
        <time>2019-04-28T07:32:45Z</time>
      </trkpt>
      <trkpt lat="40.8438280" lon="-4.0507100">
        <ele>1520.2</ele>
        <time>2019-04-28T07:32:46Z</time>
      </trkpt>
      <trkpt lat="40.8438060" lon="-4.0506630">
        <ele>1520.2</ele>
        <time>2019-04-28T07:32:47Z</time>
      </trkpt>
      <trkpt lat="40.8437840" lon="-4.0506210">
        <ele>1520.4</ele>
        <time>2019-04-28T07:32:48Z</time>
      </trkpt>
      <trkpt lat="40.8437690" lon="-4.0505780">
        <ele>1520.6</ele>
        <time>2019-04-28T07:32:49Z</time>
      </trkpt>
      <trkpt lat="40.8437510" lon="-4.0505410">
        <ele>1520.6</ele>
        <time>2019-04-28T07:32:50Z</time>
      </trkpt>
      <trkpt lat="40.8437240" lon="-4.0505080">
        <ele>1520.8</ele>
        <time>2019-04-28T07:32:51Z</time>
      </trkpt>
      <trkpt lat="40.8436970" lon="-4.0504750">
        <ele>1520.8</ele>
        <time>2019-04-28T07:32:52Z</time>
      </trkpt>
      <trkpt lat="40.8436680" lon="-4.0504460">
        <ele>1520.8</ele>
        <time>2019-04-28T07:32:53Z</time>
      </trkpt>
      <trkpt lat="40.8436450" lon="-4.0504290">
        <ele>1520.8</ele>
        <time>2019-04-28T07:32:54Z</time>
      </trkpt>
      <trkpt lat="40.8436200" lon="-4.0503990">
        <ele>1520.8</ele>
        <time>2019-04-28T07:32:55Z</time>
      </trkpt>
      <trkpt lat="40.8435930" lon="-4.0503800">
        <ele>1520.8</ele>
        <time>2019-04-28T07:32:56Z</time>
      </trkpt>
      <trkpt lat="40.8435740" lon="-4.0503860">
        <ele>1520.8</ele>
        <time>2019-04-28T07:32:57Z</time>
      </trkpt>
      <trkpt lat="40.8435510" lon="-4.0503880">
        <ele>1520.8</ele>
        <time>2019-04-28T07:32:58Z</time>
      </trkpt>
      <trkpt lat="40.8435240" lon="-4.0503880">
        <ele>1520.8</ele>
        <time>2019-04-28T07:32:59Z</time>
      </trkpt>
      <trkpt lat="40.8434940" lon="-4.0503880">
        <ele>1520.8</ele>
        <time>2019-04-28T07:33:00Z</time>
      </trkpt>
      <trkpt lat="40.8434640" lon="-4.0503850">
        <ele>1520.8</ele>
        <time>2019-04-28T07:33:01Z</time>
      </trkpt>
      <trkpt lat="40.8434320" lon="-4.0503850">
        <ele>1520.8</ele>
        <time>2019-04-28T07:33:02Z</time>
      </trkpt>
      <trkpt lat="40.8434030" lon="-4.0503830">
        <ele>1520.8</ele>
        <time>2019-04-28T07:33:03Z</time>
      </trkpt>
      <trkpt lat="40.8433730" lon="-4.0503800">
        <ele>1520.8</ele>
        <time>2019-04-28T07:33:04Z</time>
      </trkpt>
      <trkpt lat="40.8433470" lon="-4.0503760">
        <ele>1520.6</ele>
        <time>2019-04-28T07:33:05Z</time>
      </trkpt>
      <trkpt lat="40.8433180" lon="-4.0503720">
        <ele>1520.6</ele>
        <time>2019-04-28T07:33:06Z</time>
      </trkpt>
      <trkpt lat="40.8432970" lon="-4.0503680">
        <ele>1520.6</ele>
        <time>2019-04-28T07:33:07Z</time>
      </trkpt>
      <trkpt lat="40.8432730" lon="-4.0503760">
        <ele>1520.6</ele>
        <time>2019-04-28T07:33:08Z</time>
      </trkpt>
      <trkpt lat="40.8432510" lon="-4.0503790">
        <ele>1520.4</ele>
        <time>2019-04-28T07:33:09Z</time>
      </trkpt>
      <trkpt lat="40.8432140" lon="-4.0503690">
        <ele>1520.4</ele>
        <time>2019-04-28T07:33:10Z</time>
      </trkpt>
      <trkpt lat="40.8431790" lon="-4.0503740">
        <ele>1520.4</ele>
        <time>2019-04-28T07:33:11Z</time>
      </trkpt>
      <trkpt lat="40.8431480" lon="-4.0503750">
        <ele>1520.4</ele>
        <time>2019-04-28T07:33:12Z</time>
      </trkpt>
      <trkpt lat="40.8431240" lon="-4.0503860">
        <ele>1520.4</ele>
        <time>2019-04-28T07:33:13Z</time>
      </trkpt>
      <trkpt lat="40.8430910" lon="-4.0503840">
        <ele>1520.4</ele>
        <time>2019-04-28T07:33:14Z</time>
      </trkpt>
      <trkpt lat="40.8430600" lon="-4.0503810">
        <ele>1520.4</ele>
        <time>2019-04-28T07:33:15Z</time>
      </trkpt>
      <trkpt lat="40.8430260" lon="-4.0503760">
        <ele>1520.4</ele>
        <time>2019-04-28T07:33:16Z</time>
      </trkpt>
      <trkpt lat="40.8429930" lon="-4.0503790">
        <ele>1520.4</ele>
        <time>2019-04-28T07:33:17Z</time>
      </trkpt>
      <trkpt lat="40.8429790" lon="-4.0503820">
        <ele>1520.6</ele>
        <time>2019-04-28T07:33:18Z</time>
      </trkpt>
      <trkpt lat="40.8429530" lon="-4.0503810">
        <ele>1520.4</ele>
        <time>2019-04-28T07:33:19Z</time>
      </trkpt>
      <trkpt lat="40.8429180" lon="-4.0503780">
        <ele>1520.6</ele>
        <time>2019-04-28T07:33:20Z</time>
      </trkpt>
      <trkpt lat="40.8428810" lon="-4.0503700">
        <ele>1520.6</ele>
        <time>2019-04-28T07:33:21Z</time>
      </trkpt>
      <trkpt lat="40.8428440" lon="-4.0503650">
        <ele>1520.6</ele>
        <time>2019-04-28T07:33:22Z</time>
      </trkpt>
      <trkpt lat="40.8428050" lon="-4.0503690">
        <ele>1520.6</ele>
        <time>2019-04-28T07:33:23Z</time>
      </trkpt>
      <trkpt lat="40.8427690" lon="-4.0503800">
        <ele>1520.6</ele>
        <time>2019-04-28T07:33:24Z</time>
      </trkpt>
      <trkpt lat="40.8427330" lon="-4.0503980">
        <ele>1520.6</ele>
        <time>2019-04-28T07:33:25Z</time>
      </trkpt>
      <trkpt lat="40.8426900" lon="-4.0503960">
        <ele>1520.4</ele>
        <time>2019-04-28T07:33:26Z</time>
      </trkpt>
      <trkpt lat="40.8426500" lon="-4.0503820">
        <ele>1520.4</ele>
        <time>2019-04-28T07:33:27Z</time>
      </trkpt>
      <trkpt lat="40.8426130" lon="-4.0503740">
        <ele>1520.4</ele>
        <time>2019-04-28T07:33:28Z</time>
      </trkpt>
      <trkpt lat="40.8425740" lon="-4.0503650">
        <ele>1520.4</ele>
        <time>2019-04-28T07:33:29Z</time>
      </trkpt>
      <trkpt lat="40.8425410" lon="-4.0503550">
        <ele>1520.2</ele>
        <time>2019-04-28T07:33:30Z</time>
      </trkpt>
      <trkpt lat="40.8425500" lon="-4.0503190">
        <ele>1520.2</ele>
        <time>2019-04-28T07:33:31Z</time>
      </trkpt>
      <trkpt lat="40.8425100" lon="-4.0503100">
        <ele>1520.2</ele>
        <time>2019-04-28T07:33:32Z</time>
      </trkpt>
      <trkpt lat="40.8424600" lon="-4.0502980">
        <ele>1520.0</ele>
        <time>2019-04-28T07:33:33Z</time>
      </trkpt>
      <trkpt lat="40.8424160" lon="-4.0502980">
        <ele>1520.0</ele>
        <time>2019-04-28T07:33:34Z</time>
      </trkpt>
      <trkpt lat="40.8423720" lon="-4.0502990">
        <ele>1520.0</ele>
        <time>2019-04-28T07:33:35Z</time>
      </trkpt>
      <trkpt lat="40.8423310" lon="-4.0503140">
        <ele>1519.8</ele>
        <time>2019-04-28T07:33:36Z</time>
      </trkpt>
      <trkpt lat="40.8422910" lon="-4.0503250">
        <ele>1519.8</ele>
        <time>2019-04-28T07:33:37Z</time>
      </trkpt>
      <trkpt lat="40.8422560" lon="-4.0503400">
        <ele>1519.6</ele>
        <time>2019-04-28T07:33:38Z</time>
      </trkpt>
      <trkpt lat="40.8422120" lon="-4.0503520">
        <ele>1519.6</ele>
        <time>2019-04-28T07:33:39Z</time>
      </trkpt>
      <trkpt lat="40.8421620" lon="-4.0503570">
        <ele>1519.6</ele>
        <time>2019-04-28T07:33:40Z</time>
      </trkpt>
      <trkpt lat="40.8421170" lon="-4.0503800">
        <ele>1519.6</ele>
        <time>2019-04-28T07:33:41Z</time>
      </trkpt>
      <trkpt lat="40.8420810" lon="-4.0503890">
        <ele>1519.6</ele>
        <time>2019-04-28T07:33:42Z</time>
      </trkpt>
      <trkpt lat="40.8420350" lon="-4.0503980">
        <ele>1519.6</ele>
        <time>2019-04-28T07:33:43Z</time>
      </trkpt>
      <trkpt lat="40.8419920" lon="-4.0504320">
        <ele>1519.6</ele>
        <time>2019-04-28T07:33:44Z</time>
      </trkpt>
      <trkpt lat="40.8419560" lon="-4.0504610">
        <ele>1519.6</ele>
        <time>2019-04-28T07:33:45Z</time>
      </trkpt>
      <trkpt lat="40.8419260" lon="-4.0504880">
        <ele>1519.6</ele>
        <time>2019-04-28T07:33:46Z</time>
      </trkpt>
      <trkpt lat="40.8418930" lon="-4.0505010">
        <ele>1519.4</ele>
        <time>2019-04-28T07:33:47Z</time>
      </trkpt>
      <trkpt lat="40.8418530" lon="-4.0505260">
        <ele>1519.4</ele>
        <time>2019-04-28T07:33:48Z</time>
      </trkpt>
      <trkpt lat="40.8418220" lon="-4.0505540">
        <ele>1519.4</ele>
        <time>2019-04-28T07:33:49Z</time>
      </trkpt>
      <trkpt lat="40.8417610" lon="-4.0505900">
        <ele>1519.2</ele>
        <time>2019-04-28T07:33:50Z</time>
      </trkpt>
      <trkpt lat="40.8417150" lon="-4.0506120">
        <ele>1519.2</ele>
        <time>2019-04-28T07:33:51Z</time>
      </trkpt>
      <trkpt lat="40.8416880" lon="-4.0506450">
        <ele>1519.0</ele>
        <time>2019-04-28T07:33:52Z</time>
      </trkpt>
      <trkpt lat="40.8416490" lon="-4.0506680">
        <ele>1519.0</ele>
        <time>2019-04-28T07:33:53Z</time>
      </trkpt>
      <trkpt lat="40.8416010" lon="-4.0506830">
        <ele>1518.8</ele>
        <time>2019-04-28T07:33:54Z</time>
      </trkpt>
      <trkpt lat="40.8415500" lon="-4.0507010">
        <ele>1518.8</ele>
        <time>2019-04-28T07:33:55Z</time>
      </trkpt>
      <trkpt lat="40.8414840" lon="-4.0507210">
        <ele>1518.8</ele>
        <time>2019-04-28T07:33:56Z</time>
      </trkpt>
      <trkpt lat="40.8414460" lon="-4.0507230">
        <ele>1518.8</ele>
        <time>2019-04-28T07:33:57Z</time>
      </trkpt>
      <trkpt lat="40.8413920" lon="-4.0507320">
        <ele>1518.8</ele>
        <time>2019-04-28T07:33:58Z</time>
      </trkpt>
      <trkpt lat="40.8413500" lon="-4.0507360">
        <ele>1518.8</ele>
        <time>2019-04-28T07:33:59Z</time>
      </trkpt>
      <trkpt lat="40.8412790" lon="-4.0507700">
        <ele>1518.8</ele>
        <time>2019-04-28T07:34:00Z</time>
      </trkpt>
      <trkpt lat="40.8412170" lon="-4.0508090">
        <ele>1518.8</ele>
        <time>2019-04-28T07:34:01Z</time>
      </trkpt>
      <trkpt lat="40.8411660" lon="-4.0508140">
        <ele>1518.8</ele>
        <time>2019-04-28T07:34:02Z</time>
      </trkpt>
      <trkpt lat="40.8411170" lon="-4.0508240">
        <ele>1519.0</ele>
        <time>2019-04-28T07:34:03Z</time>
      </trkpt>
      <trkpt lat="40.8410620" lon="-4.0508340">
        <ele>1519.0</ele>
        <time>2019-04-28T07:34:04Z</time>
      </trkpt>
      <trkpt lat="40.8410290" lon="-4.0508250">
        <ele>1519.0</ele>
        <time>2019-04-28T07:34:05Z</time>
      </trkpt>
      <trkpt lat="40.8409820" lon="-4.0508300">
        <ele>1519.0</ele>
        <time>2019-04-28T07:34:06Z</time>
      </trkpt>
      <trkpt lat="40.8409470" lon="-4.0508340">
        <ele>1519.0</ele>
        <time>2019-04-28T07:34:07Z</time>
      </trkpt>
      <trkpt lat="40.8409170" lon="-4.0508440">
        <ele>1519.0</ele>
        <time>2019-04-28T07:34:08Z</time>
      </trkpt>
      <trkpt lat="40.8408870" lon="-4.0508200">
        <ele>1519.0</ele>
        <time>2019-04-28T07:34:09Z</time>
      </trkpt>
      <trkpt lat="40.8408510" lon="-4.0508050">
        <ele>1518.8</ele>
        <time>2019-04-28T07:34:10Z</time>
      </trkpt>
      <trkpt lat="40.8408150" lon="-4.0508010">
        <ele>1518.8</ele>
        <time>2019-04-28T07:34:11Z</time>
      </trkpt>
      <trkpt lat="40.8408020" lon="-4.0507880">
        <ele>1518.6</ele>
        <time>2019-04-28T07:34:12Z</time>
      </trkpt>
      <trkpt lat="40.8407660" lon="-4.0507910">
        <ele>1518.6</ele>
        <time>2019-04-28T07:34:13Z</time>
      </trkpt>
      <trkpt lat="40.8407250" lon="-4.0507760">
        <ele>1518.4</ele>
        <time>2019-04-28T07:34:14Z</time>
      </trkpt>
      <trkpt lat="40.8407000" lon="-4.0507460">
        <ele>1518.2</ele>
        <time>2019-04-28T07:34:15Z</time>
      </trkpt>
      <trkpt lat="40.8406600" lon="-4.0507400">
        <ele>1518.2</ele>
        <time>2019-04-28T07:34:16Z</time>
      </trkpt>
      <trkpt lat="40.8406470" lon="-4.0507150">
        <ele>1518.0</ele>
        <time>2019-04-28T07:34:17Z</time>
      </trkpt>
      <trkpt lat="40.8406340" lon="-4.0506950">
        <ele>1518.0</ele>
        <time>2019-04-28T07:34:18Z</time>
      </trkpt>
      <trkpt lat="40.8406030" lon="-4.0506950">
        <ele>1517.8</ele>
        <time>2019-04-28T07:34:19Z</time>
      </trkpt>
      <trkpt lat="40.8405740" lon="-4.0506980">
        <ele>1517.6</ele>
        <time>2019-04-28T07:34:20Z</time>
      </trkpt>
      <trkpt lat="40.8405350" lon="-4.0507110">
        <ele>1517.6</ele>
        <time>2019-04-28T07:34:21Z</time>
      </trkpt>
      <trkpt lat="40.8405000" lon="-4.0507320">
        <ele>1517.4</ele>
        <time>2019-04-28T07:34:22Z</time>
      </trkpt>
      <trkpt lat="40.8404620" lon="-4.0507480">
        <ele>1517.2</ele>
        <time>2019-04-28T07:34:23Z</time>
      </trkpt>
      <trkpt lat="40.8404200" lon="-4.0507690">
        <ele>1517.0</ele>
        <time>2019-04-28T07:34:24Z</time>
      </trkpt>
      <trkpt lat="40.8403920" lon="-4.0507920">
        <ele>1517.0</ele>
        <time>2019-04-28T07:34:25Z</time>
      </trkpt>
      <trkpt lat="40.8403410" lon="-4.0508280">
        <ele>1516.8</ele>
        <time>2019-04-28T07:34:26Z</time>
      </trkpt>
      <trkpt lat="40.8403010" lon="-4.0508600">
        <ele>1516.6</ele>
        <time>2019-04-28T07:34:27Z</time>
      </trkpt>
      <trkpt lat="40.8402620" lon="-4.0509020">
        <ele>1516.2</ele>
        <time>2019-04-28T07:34:28Z</time>
      </trkpt>
      <trkpt lat="40.8402360" lon="-4.0509540">
        <ele>1516.2</ele>
        <time>2019-04-28T07:34:29Z</time>
      </trkpt>
      <trkpt lat="40.8401920" lon="-4.0510140">
        <ele>1516.2</ele>
        <time>2019-04-28T07:34:30Z</time>
      </trkpt>
      <trkpt lat="40.8401790" lon="-4.0510380">
        <ele>1516.2</ele>
        <time>2019-04-28T07:34:31Z</time>
      </trkpt>
      <trkpt lat="40.8401430" lon="-4.0510920">
        <ele>1516.2</ele>
        <time>2019-04-28T07:34:32Z</time>
      </trkpt>
      <trkpt lat="40.8400890" lon="-4.0511300">
        <ele>1516.2</ele>
        <time>2019-04-28T07:34:33Z</time>
      </trkpt>
      <trkpt lat="40.8400130" lon="-4.0511780">
        <ele>1516.0</ele>
        <time>2019-04-28T07:34:34Z</time>
      </trkpt>
      <trkpt lat="40.8399180" lon="-4.0512450">
        <ele>1516.0</ele>
        <time>2019-04-28T07:34:35Z</time>
      </trkpt>
      <trkpt lat="40.8397660" lon="-4.0513210">
        <ele>1515.8</ele>
        <time>2019-04-28T07:34:36Z</time>
      </trkpt>
      <trkpt lat="40.8397270" lon="-4.0513770">
        <ele>1515.6</ele>
        <time>2019-04-28T07:34:37Z</time>
      </trkpt>
      <trkpt lat="40.8396990" lon="-4.0514490">
        <ele>1515.2</ele>
        <time>2019-04-28T07:34:38Z</time>
      </trkpt>
      <trkpt lat="40.8396660" lon="-4.0515270">
        <ele>1515.0</ele>
        <time>2019-04-28T07:34:39Z</time>
      </trkpt>
      <trkpt lat="40.8396230" lon="-4.0516030">
        <ele>1514.8</ele>
        <time>2019-04-28T07:34:40Z</time>
      </trkpt>
      <trkpt lat="40.8395990" lon="-4.0516760">
        <ele>1514.8</ele>
        <time>2019-04-28T07:34:41Z</time>
      </trkpt>
      <trkpt lat="40.8395600" lon="-4.0517430">
        <ele>1514.6</ele>
        <time>2019-04-28T07:34:42Z</time>
      </trkpt>
      <trkpt lat="40.8395330" lon="-4.0517930">
        <ele>1514.6</ele>
        <time>2019-04-28T07:34:43Z</time>
      </trkpt>
      <trkpt lat="40.8395000" lon="-4.0518520">
        <ele>1514.6</ele>
        <time>2019-04-28T07:34:44Z</time>
      </trkpt>
      <trkpt lat="40.8394470" lon="-4.0518740">
        <ele>1514.6</ele>
        <time>2019-04-28T07:34:45Z</time>
      </trkpt>
      <trkpt lat="40.8394130" lon="-4.0519280">
        <ele>1514.8</ele>
        <time>2019-04-28T07:34:46Z</time>
      </trkpt>
      <trkpt lat="40.8393890" lon="-4.0519850">
        <ele>1514.8</ele>
        <time>2019-04-28T07:34:47Z</time>
      </trkpt>
      <trkpt lat="40.8393570" lon="-4.0520310">
        <ele>1515.0</ele>
        <time>2019-04-28T07:34:48Z</time>
      </trkpt>
      <trkpt lat="40.8393300" lon="-4.0520900">
        <ele>1515.0</ele>
        <time>2019-04-28T07:34:49Z</time>
      </trkpt>
      <trkpt lat="40.8392900" lon="-4.0521450">
        <ele>1515.4</ele>
        <time>2019-04-28T07:34:50Z</time>
      </trkpt>
      <trkpt lat="40.8392620" lon="-4.0521840">
        <ele>1515.4</ele>
        <time>2019-04-28T07:34:51Z</time>
      </trkpt>
      <trkpt lat="40.8392190" lon="-4.0522330">
        <ele>1515.8</ele>
        <time>2019-04-28T07:34:52Z</time>
      </trkpt>
      <trkpt lat="40.8391760" lon="-4.0522700">
        <ele>1516.0</ele>
        <time>2019-04-28T07:34:53Z</time>
      </trkpt>
      <trkpt lat="40.8391400" lon="-4.0523030">
        <ele>1516.4</ele>
        <time>2019-04-28T07:34:54Z</time>
      </trkpt>
      <trkpt lat="40.8390880" lon="-4.0523420">
        <ele>1516.6</ele>
        <time>2019-04-28T07:34:55Z</time>
      </trkpt>
      <trkpt lat="40.8390240" lon="-4.0523950">
        <ele>1517.0</ele>
        <time>2019-04-28T07:34:56Z</time>
      </trkpt>
      <trkpt lat="40.8390110" lon="-4.0524170">
        <ele>1517.4</ele>
        <time>2019-04-28T07:34:57Z</time>
      </trkpt>
      <trkpt lat="40.8389580" lon="-4.0524500">
        <ele>1517.6</ele>
        <time>2019-04-28T07:34:58Z</time>
      </trkpt>
      <trkpt lat="40.8389290" lon="-4.0524700">
        <ele>1517.8</ele>
        <time>2019-04-28T07:34:59Z</time>
      </trkpt>
      <trkpt lat="40.8388850" lon="-4.0525080">
        <ele>1518.2</ele>
        <time>2019-04-28T07:35:00Z</time>
      </trkpt>
      <trkpt lat="40.8388470" lon="-4.0525230">
        <ele>1518.4</ele>
        <time>2019-04-28T07:35:01Z</time>
      </trkpt>
      <trkpt lat="40.8388160" lon="-4.0525450">
        <ele>1518.6</ele>
        <time>2019-04-28T07:35:02Z</time>
      </trkpt>
      <trkpt lat="40.8387610" lon="-4.0525560">
        <ele>1519.0</ele>
        <time>2019-04-28T07:35:03Z</time>
      </trkpt>
      <trkpt lat="40.8387210" lon="-4.0525670">
        <ele>1519.2</ele>
        <time>2019-04-28T07:35:04Z</time>
      </trkpt>
      <trkpt lat="40.8386690" lon="-4.0525820">
        <ele>1519.4</ele>
        <time>2019-04-28T07:35:05Z</time>
      </trkpt>
      <trkpt lat="40.8386440" lon="-4.0526010">
        <ele>1519.6</ele>
        <time>2019-04-28T07:35:06Z</time>
      </trkpt>
      <trkpt lat="40.8386230" lon="-4.0525960">
        <ele>1519.6</ele>
        <time>2019-04-28T07:35:07Z</time>
      </trkpt>
      <trkpt lat="40.8385800" lon="-4.0526040">
        <ele>1519.6</ele>
        <time>2019-04-28T07:35:08Z</time>
      </trkpt>
      <trkpt lat="40.8385270" lon="-4.0526240">
        <ele>1519.8</ele>
        <time>2019-04-28T07:35:09Z</time>
      </trkpt>
      <trkpt lat="40.8384910" lon="-4.0526170">
        <ele>1519.8</ele>
        <time>2019-04-28T07:35:10Z</time>
      </trkpt>
      <trkpt lat="40.8384570" lon="-4.0526130">
        <ele>1519.8</ele>
        <time>2019-04-28T07:35:11Z</time>
      </trkpt>
      <trkpt lat="40.8383890" lon="-4.0526180">
        <ele>1519.8</ele>
        <time>2019-04-28T07:35:12Z</time>
      </trkpt>
      <trkpt lat="40.8383470" lon="-4.0526220">
        <ele>1519.8</ele>
        <time>2019-04-28T07:35:13Z</time>
      </trkpt>
      <trkpt lat="40.8383410" lon="-4.0526220">
        <ele>1519.8</ele>
        <time>2019-04-28T07:35:14Z</time>
      </trkpt>
      <trkpt lat="40.8383090" lon="-4.0526200">
        <ele>1519.8</ele>
        <time>2019-04-28T07:35:15Z</time>
      </trkpt>
      <trkpt lat="40.8382490" lon="-4.0526260">
        <ele>1519.8</ele>
        <time>2019-04-28T07:35:16Z</time>
      </trkpt>
      <trkpt lat="40.8382160" lon="-4.0526100">
        <ele>1520.0</ele>
        <time>2019-04-28T07:35:17Z</time>
      </trkpt>
      <trkpt lat="40.8381950" lon="-4.0525970">
        <ele>1520.0</ele>
        <time>2019-04-28T07:35:18Z</time>
      </trkpt>
      <trkpt lat="40.8381690" lon="-4.0525930">
        <ele>1520.0</ele>
        <time>2019-04-28T07:35:19Z</time>
      </trkpt>
      <trkpt lat="40.8380900" lon="-4.0526000">
        <ele>1520.0</ele>
        <time>2019-04-28T07:35:20Z</time>
      </trkpt>
      <trkpt lat="40.8380580" lon="-4.0525880">
        <ele>1520.2</ele>
        <time>2019-04-28T07:35:21Z</time>
      </trkpt>
      <trkpt lat="40.8380150" lon="-4.0525780">
        <ele>1520.2</ele>
        <time>2019-04-28T07:35:22Z</time>
      </trkpt>
      <trkpt lat="40.8379960" lon="-4.0525540">
        <ele>1520.2</ele>
        <time>2019-04-28T07:35:23Z</time>
      </trkpt>
      <trkpt lat="40.8379480" lon="-4.0525530">
        <ele>1520.2</ele>
        <time>2019-04-28T07:35:24Z</time>
      </trkpt>
      <trkpt lat="40.8378850" lon="-4.0525610">
        <ele>1520.4</ele>
        <time>2019-04-28T07:35:25Z</time>
      </trkpt>
      <trkpt lat="40.8378400" lon="-4.0525500">
        <ele>1520.4</ele>
        <time>2019-04-28T07:35:26Z</time>
      </trkpt>
      <trkpt lat="40.8378410" lon="-4.0525290">
        <ele>1520.6</ele>
        <time>2019-04-28T07:35:27Z</time>
      </trkpt>
      <trkpt lat="40.8378270" lon="-4.0525200">
        <ele>1520.8</ele>
        <time>2019-04-28T07:35:28Z</time>
      </trkpt>
      <trkpt lat="40.8378450" lon="-4.0525080">
        <ele>1520.8</ele>
        <time>2019-04-28T07:35:29Z</time>
      </trkpt>
      <trkpt lat="40.8377720" lon="-4.0525260">
        <ele>1520.8</ele>
        <time>2019-04-28T07:35:30Z</time>
      </trkpt>
      <trkpt lat="40.8377750" lon="-4.0524840">
        <ele>1521.0</ele>
        <time>2019-04-28T07:35:31Z</time>
      </trkpt>
      <trkpt lat="40.8377570" lon="-4.0524630">
        <ele>1521.0</ele>
        <time>2019-04-28T07:35:32Z</time>
      </trkpt>
      <trkpt lat="40.8377470" lon="-4.0524410">
        <ele>1521.0</ele>
        <time>2019-04-28T07:35:33Z</time>
      </trkpt>
      <trkpt lat="40.8377350" lon="-4.0524280">
        <ele>1520.8</ele>
        <time>2019-04-28T07:35:34Z</time>
      </trkpt>
      <trkpt lat="40.8376960" lon="-4.0524260">
        <ele>1520.8</ele>
        <time>2019-04-28T07:35:35Z</time>
      </trkpt>
      <trkpt lat="40.8376620" lon="-4.0524110">
        <ele>1520.6</ele>
        <time>2019-04-28T07:35:36Z</time>
      </trkpt>
      <trkpt lat="40.8376260" lon="-4.0523970">
        <ele>1520.2</ele>
        <time>2019-04-28T07:35:37Z</time>
      </trkpt>
      <trkpt lat="40.8376130" lon="-4.0523710">
        <ele>1520.0</ele>
        <time>2019-04-28T07:35:38Z</time>
      </trkpt>
      <trkpt lat="40.8375780" lon="-4.0523560">
        <ele>1519.6</ele>
        <time>2019-04-28T07:35:39Z</time>
      </trkpt>
      <trkpt lat="40.8375440" lon="-4.0523350">
        <ele>1519.6</ele>
        <time>2019-04-28T07:35:40Z</time>
      </trkpt>
      <trkpt lat="40.8375250" lon="-4.0523330">
        <ele>1519.4</ele>
        <time>2019-04-28T07:35:41Z</time>
      </trkpt>
      <trkpt lat="40.8375220" lon="-4.0523450">
        <ele>1519.2</ele>
        <time>2019-04-28T07:35:42Z</time>
      </trkpt>
      <trkpt lat="40.8374890" lon="-4.0523720">
        <ele>1519.0</ele>
        <time>2019-04-28T07:35:43Z</time>
      </trkpt>
      <trkpt lat="40.8374850" lon="-4.0523510">
        <ele>1519.0</ele>
        <time>2019-04-28T07:35:44Z</time>
      </trkpt>
      <trkpt lat="40.8374740" lon="-4.0523340">
        <ele>1519.0</ele>
        <time>2019-04-28T07:35:45Z</time>
      </trkpt>
      <trkpt lat="40.8374540" lon="-4.0523380">
        <ele>1519.0</ele>
        <time>2019-04-28T07:35:46Z</time>
      </trkpt>
      <trkpt lat="40.8374480" lon="-4.0523210">
        <ele>1519.0</ele>
        <time>2019-04-28T07:35:47Z</time>
      </trkpt>
      <trkpt lat="40.8374340" lon="-4.0523190">
        <ele>1519.0</ele>
        <time>2019-04-28T07:35:48Z</time>
      </trkpt>
      <trkpt lat="40.8374320" lon="-4.0523030">
        <ele>1519.0</ele>
        <time>2019-04-28T07:35:49Z</time>
      </trkpt>
      <trkpt lat="40.8374190" lon="-4.0523010">
        <ele>1519.0</ele>
        <time>2019-04-28T07:35:50Z</time>
      </trkpt>
      <trkpt lat="40.8374020" lon="-4.0523310">
        <ele>1518.8</ele>
        <time>2019-04-28T07:35:51Z</time>
      </trkpt>
      <trkpt lat="40.8373540" lon="-4.0523630">
        <ele>1518.8</ele>
        <time>2019-04-28T07:35:52Z</time>
      </trkpt>
      <trkpt lat="40.8373300" lon="-4.0523950">
        <ele>1519.0</ele>
        <time>2019-04-28T07:35:53Z</time>
      </trkpt>
      <trkpt lat="40.8372910" lon="-4.0524350">
        <ele>1519.0</ele>
        <time>2019-04-28T07:35:54Z</time>
      </trkpt>
      <trkpt lat="40.8372970" lon="-4.0524480">
        <ele>1519.2</ele>
        <time>2019-04-28T07:35:55Z</time>
      </trkpt>
      <trkpt lat="40.8372920" lon="-4.0525040">
        <ele>1519.2</ele>
        <time>2019-04-28T07:35:56Z</time>
      </trkpt>
      <trkpt lat="40.8372920" lon="-4.0525310">
        <ele>1519.4</ele>
        <time>2019-04-28T07:35:57Z</time>
      </trkpt>
      <trkpt lat="40.8372870" lon="-4.0525640">
        <ele>1519.6</ele>
        <time>2019-04-28T07:35:58Z</time>
      </trkpt>
      <trkpt lat="40.8372460" lon="-4.0526090">
        <ele>1519.6</ele>
        <time>2019-04-28T07:35:59Z</time>
      </trkpt>
      <trkpt lat="40.8372420" lon="-4.0526390">
        <ele>1519.8</ele>
        <time>2019-04-28T07:36:00Z</time>
      </trkpt>
      <trkpt lat="40.8372060" lon="-4.0526790">
        <ele>1519.8</ele>
        <time>2019-04-28T07:36:01Z</time>
      </trkpt>
      <trkpt lat="40.8372120" lon="-4.0526980">
        <ele>1520.0</ele>
        <time>2019-04-28T07:36:02Z</time>
      </trkpt>
      <trkpt lat="40.8372140" lon="-4.0527090">
        <ele>1520.2</ele>
        <time>2019-04-28T07:36:03Z</time>
      </trkpt>
      <trkpt lat="40.8371890" lon="-4.0527260">
        <ele>1520.4</ele>
        <time>2019-04-28T07:36:04Z</time>
      </trkpt>
      <trkpt lat="40.8371680" lon="-4.0527410">
        <ele>1520.4</ele>
        <time>2019-04-28T07:36:05Z</time>
      </trkpt>
      <trkpt lat="40.8369950" lon="-4.0528070">
        <ele>1520.8</ele>
        <time>2019-04-28T07:36:06Z</time>
      </trkpt>
      <trkpt lat="40.8368210" lon="-4.0528730">
        <ele>1521.0</ele>
        <time>2019-04-28T07:36:07Z</time>
      </trkpt>
      <trkpt lat="40.8366770" lon="-4.0529270">
        <ele>1521.2</ele>
        <time>2019-04-28T07:36:08Z</time>
      </trkpt>
      <trkpt lat="40.8365660" lon="-4.0529830">
        <ele>1521.4</ele>
        <time>2019-04-28T07:36:09Z</time>
      </trkpt>
      <trkpt lat="40.8365510" lon="-4.0530010">
        <ele>1521.8</ele>
        <time>2019-04-28T07:36:10Z</time>
      </trkpt>
      <trkpt lat="40.8365010" lon="-4.0530230">
        <ele>1522.0</ele>
        <time>2019-04-28T07:36:11Z</time>
      </trkpt>
      <trkpt lat="40.8364600" lon="-4.0530350">
        <ele>1522.2</ele>
        <time>2019-04-28T07:36:12Z</time>
      </trkpt>
      <trkpt lat="40.8363780" lon="-4.0530580">
        <ele>1522.4</ele>
        <time>2019-04-28T07:36:13Z</time>
      </trkpt>
      <trkpt lat="40.8362720" lon="-4.0530930">
        <ele>1522.8</ele>
        <time>2019-04-28T07:36:14Z</time>
      </trkpt>
      <trkpt lat="40.8361280" lon="-4.0531440">
        <ele>1523.0</ele>
        <time>2019-04-28T07:36:15Z</time>
      </trkpt>
      <trkpt lat="40.8359560" lon="-4.0531780">
        <ele>1523.2</ele>
        <time>2019-04-28T07:36:16Z</time>
      </trkpt>
      <trkpt lat="40.8359290" lon="-4.0531930">
        <ele>1523.4</ele>
        <time>2019-04-28T07:36:17Z</time>
      </trkpt>
      <trkpt lat="40.8358630" lon="-4.0532230">
        <ele>1523.6</ele>
        <time>2019-04-28T07:36:18Z</time>
      </trkpt>
      <trkpt lat="40.8359720" lon="-4.0532110">
        <ele>1523.8</ele>
        <time>2019-04-28T07:36:19Z</time>
      </trkpt>
      <trkpt lat="40.8360020" lon="-4.0532290">
        <ele>1524.0</ele>
        <time>2019-04-28T07:36:20Z</time>
      </trkpt>
      <trkpt lat="40.8359820" lon="-4.0532370">
        <ele>1524.2</ele>
        <time>2019-04-28T07:36:21Z</time>
      </trkpt>
      <trkpt lat="40.8359460" lon="-4.0532840">
        <ele>1524.4</ele>
        <time>2019-04-28T07:36:22Z</time>
      </trkpt>
      <trkpt lat="40.8359140" lon="-4.0533250">
        <ele>1524.4</ele>
        <time>2019-04-28T07:36:23Z</time>
      </trkpt>
      <trkpt lat="40.8358170" lon="-4.0533710">
        <ele>1524.6</ele>
        <time>2019-04-28T07:36:24Z</time>
      </trkpt>
      <trkpt lat="40.8356480" lon="-4.0534360">
        <ele>1524.8</ele>
        <time>2019-04-28T07:36:25Z</time>
      </trkpt>
      <trkpt lat="40.8354440" lon="-4.0534890">
        <ele>1525.0</ele>
        <time>2019-04-28T07:36:26Z</time>
      </trkpt>
      <trkpt lat="40.8353230" lon="-4.0535320">
        <ele>1525.2</ele>
        <time>2019-04-28T07:36:27Z</time>
      </trkpt>
      <trkpt lat="40.8352470" lon="-4.0535890">
        <ele>1525.4</ele>
        <time>2019-04-28T07:36:28Z</time>
      </trkpt>
      <trkpt lat="40.8352180" lon="-4.0536460">
        <ele>1525.6</ele>
        <time>2019-04-28T07:36:29Z</time>
      </trkpt>
      <trkpt lat="40.8351520" lon="-4.0536840">
        <ele>1525.8</ele>
        <time>2019-04-28T07:36:30Z</time>
      </trkpt>
      <trkpt lat="40.8351370" lon="-4.0537120">
        <ele>1526.0</ele>
        <time>2019-04-28T07:36:31Z</time>
      </trkpt>
      <trkpt lat="40.8351080" lon="-4.0537460">
        <ele>1526.4</ele>
        <time>2019-04-28T07:36:32Z</time>
      </trkpt>
      <trkpt lat="40.8350780" lon="-4.0537850">
        <ele>1526.6</ele>
        <time>2019-04-28T07:36:33Z</time>
      </trkpt>
      <trkpt lat="40.8350310" lon="-4.0538230">
        <ele>1527.0</ele>
        <time>2019-04-28T07:36:34Z</time>
      </trkpt>
      <trkpt lat="40.8349910" lon="-4.0538610">
        <ele>1527.2</ele>
        <time>2019-04-28T07:36:35Z</time>
      </trkpt>
      <trkpt lat="40.8349730" lon="-4.0538960">
        <ele>1527.8</ele>
        <time>2019-04-28T07:36:36Z</time>
      </trkpt>
      <trkpt lat="40.8349290" lon="-4.0539130">
        <ele>1528.0</ele>
        <time>2019-04-28T07:36:37Z</time>
      </trkpt>
      <trkpt lat="40.8349130" lon="-4.0539540">
        <ele>1528.4</ele>
        <time>2019-04-28T07:36:38Z</time>
      </trkpt>
      <trkpt lat="40.8348850" lon="-4.0539910">
        <ele>1528.6</ele>
        <time>2019-04-28T07:36:39Z</time>
      </trkpt>
      <trkpt lat="40.8348430" lon="-4.0540180">
        <ele>1528.8</ele>
        <time>2019-04-28T07:36:40Z</time>
      </trkpt>
      <trkpt lat="40.8348000" lon="-4.0540530">
        <ele>1529.2</ele>
        <time>2019-04-28T07:36:41Z</time>
      </trkpt>
      <trkpt lat="40.8347770" lon="-4.0540850">
        <ele>1529.4</ele>
        <time>2019-04-28T07:36:42Z</time>
      </trkpt>
      <trkpt lat="40.8347620" lon="-4.0541030">
        <ele>1529.8</ele>
        <time>2019-04-28T07:36:43Z</time>
      </trkpt>
      <trkpt lat="40.8347320" lon="-4.0541350">
        <ele>1530.0</ele>
        <time>2019-04-28T07:36:44Z</time>
      </trkpt>
      <trkpt lat="40.8347030" lon="-4.0541780">
        <ele>1530.4</ele>
        <time>2019-04-28T07:36:45Z</time>
      </trkpt>
      <trkpt lat="40.8346780" lon="-4.0542190">
        <ele>1530.6</ele>
        <time>2019-04-28T07:36:46Z</time>
      </trkpt>
      <trkpt lat="40.8346570" lon="-4.0542500">
        <ele>1531.0</ele>
        <time>2019-04-28T07:36:47Z</time>
      </trkpt>
      <trkpt lat="40.8346450" lon="-4.0542770">
        <ele>1531.2</ele>
        <time>2019-04-28T07:36:48Z</time>
      </trkpt>
      <trkpt lat="40.8346450" lon="-4.0543040">
        <ele>1531.2</ele>
        <time>2019-04-28T07:36:49Z</time>
      </trkpt>
      <trkpt lat="40.8346140" lon="-4.0543410">
        <ele>1531.4</ele>
        <time>2019-04-28T07:36:50Z</time>
      </trkpt>
      <trkpt lat="40.8345820" lon="-4.0543740">
        <ele>1531.6</ele>
        <time>2019-04-28T07:36:51Z</time>
      </trkpt>
      <trkpt lat="40.8345600" lon="-4.0544040">
        <ele>1531.6</ele>
        <time>2019-04-28T07:36:52Z</time>
      </trkpt>
      <trkpt lat="40.8345410" lon="-4.0544310">
        <ele>1531.8</ele>
        <time>2019-04-28T07:36:53Z</time>
      </trkpt>
      <trkpt lat="40.8344960" lon="-4.0544660">
        <ele>1531.8</ele>
        <time>2019-04-28T07:36:54Z</time>
      </trkpt>
      <trkpt lat="40.8344760" lon="-4.0544930">
        <ele>1532.0</ele>
        <time>2019-04-28T07:36:55Z</time>
      </trkpt>
      <trkpt lat="40.8344600" lon="-4.0545270">
        <ele>1532.2</ele>
        <time>2019-04-28T07:36:56Z</time>
      </trkpt>
      <trkpt lat="40.8344170" lon="-4.0545670">
        <ele>1532.2</ele>
        <time>2019-04-28T07:36:57Z</time>
      </trkpt>
      <trkpt lat="40.8344050" lon="-4.0545950">
        <ele>1532.4</ele>
        <time>2019-04-28T07:36:58Z</time>
      </trkpt>
      <trkpt lat="40.8343840" lon="-4.0546280">
        <ele>1532.6</ele>
        <time>2019-04-28T07:36:59Z</time>
      </trkpt>
      <trkpt lat="40.8343640" lon="-4.0546540">
        <ele>1532.6</ele>
        <time>2019-04-28T07:37:00Z</time>
      </trkpt>
      <trkpt lat="40.8343360" lon="-4.0546800">
        <ele>1532.8</ele>
        <time>2019-04-28T07:37:01Z</time>
      </trkpt>
      <trkpt lat="40.8343180" lon="-4.0547080">
        <ele>1532.8</ele>
        <time>2019-04-28T07:37:02Z</time>
      </trkpt>
      <trkpt lat="40.8342840" lon="-4.0547400">
        <ele>1533.0</ele>
        <time>2019-04-28T07:37:03Z</time>
      </trkpt>
      <trkpt lat="40.8342650" lon="-4.0547670">
        <ele>1533.2</ele>
        <time>2019-04-28T07:37:04Z</time>
      </trkpt>
      <trkpt lat="40.8342480" lon="-4.0547990">
        <ele>1533.2</ele>
        <time>2019-04-28T07:37:05Z</time>
      </trkpt>
      <trkpt lat="40.8342390" lon="-4.0548220">
        <ele>1533.2</ele>
        <time>2019-04-28T07:37:06Z</time>
      </trkpt>
      <trkpt lat="40.8342190" lon="-4.0548520">
        <ele>1533.4</ele>
        <time>2019-04-28T07:37:07Z</time>
      </trkpt>
      <trkpt lat="40.8342040" lon="-4.0548720">
        <ele>1533.4</ele>
        <time>2019-04-28T07:37:08Z</time>
      </trkpt>
      <trkpt lat="40.8341800" lon="-4.0548780">
        <ele>1533.6</ele>
        <time>2019-04-28T07:37:09Z</time>
      </trkpt>
      <trkpt lat="40.8341570" lon="-4.0548980">
        <ele>1533.6</ele>
        <time>2019-04-28T07:37:10Z</time>
      </trkpt>
      <trkpt lat="40.8341340" lon="-4.0549240">
        <ele>1533.8</ele>
        <time>2019-04-28T07:37:11Z</time>
      </trkpt>
      <trkpt lat="40.8341250" lon="-4.0549460">
        <ele>1533.8</ele>
        <time>2019-04-28T07:37:12Z</time>
      </trkpt>
      <trkpt lat="40.8341100" lon="-4.0549630">
        <ele>1534.0</ele>
        <time>2019-04-28T07:37:13Z</time>
      </trkpt>
      <trkpt lat="40.8341050" lon="-4.0549860">
        <ele>1534.0</ele>
        <time>2019-04-28T07:37:14Z</time>
      </trkpt>
      <trkpt lat="40.8340770" lon="-4.0550070">
        <ele>1534.0</ele>
        <time>2019-04-28T07:37:15Z</time>
      </trkpt>
      <trkpt lat="40.8340600" lon="-4.0550270">
        <ele>1534.2</ele>
        <time>2019-04-28T07:37:16Z</time>
      </trkpt>
      <trkpt lat="40.8340430" lon="-4.0550470">
        <ele>1534.2</ele>
        <time>2019-04-28T07:37:17Z</time>
      </trkpt>
      <trkpt lat="40.8340230" lon="-4.0550480">
        <ele>1534.4</ele>
        <time>2019-04-28T07:37:18Z</time>
      </trkpt>
      <trkpt lat="40.8340010" lon="-4.0550660">
        <ele>1534.4</ele>
        <time>2019-04-28T07:37:19Z</time>
      </trkpt>
      <trkpt lat="40.8339770" lon="-4.0550840">
        <ele>1534.4</ele>
        <time>2019-04-28T07:37:20Z</time>
      </trkpt>
      <trkpt lat="40.8339570" lon="-4.0550950">
        <ele>1534.6</ele>
        <time>2019-04-28T07:37:21Z</time>
      </trkpt>
      <trkpt lat="40.8339400" lon="-4.0551090">
        <ele>1534.6</ele>
        <time>2019-04-28T07:37:22Z</time>
      </trkpt>
      <trkpt lat="40.8339200" lon="-4.0551280">
        <ele>1534.6</ele>
        <time>2019-04-28T07:37:23Z</time>
      </trkpt>
      <trkpt lat="40.8339020" lon="-4.0551450">
        <ele>1534.8</ele>
        <time>2019-04-28T07:37:24Z</time>
      </trkpt>
      <trkpt lat="40.8338810" lon="-4.0551680">
        <ele>1534.8</ele>
        <time>2019-04-28T07:37:25Z</time>
      </trkpt>
      <trkpt lat="40.8338570" lon="-4.0551890">
        <ele>1534.8</ele>
        <time>2019-04-28T07:37:26Z</time>
      </trkpt>
      <trkpt lat="40.8338440" lon="-4.0551910">
        <ele>1535.0</ele>
        <time>2019-04-28T07:37:27Z</time>
      </trkpt>
      <trkpt lat="40.8338240" lon="-4.0552070">
        <ele>1535.0</ele>
        <time>2019-04-28T07:37:28Z</time>
      </trkpt>
      <trkpt lat="40.8338080" lon="-4.0552190">
        <ele>1535.0</ele>
        <time>2019-04-28T07:37:29Z</time>
      </trkpt>
      <trkpt lat="40.8338030" lon="-4.0552240">
        <ele>1535.0</ele>
        <time>2019-04-28T07:37:30Z</time>
      </trkpt>
      <trkpt lat="40.8337930" lon="-4.0552230">
        <ele>1535.2</ele>
        <time>2019-04-28T07:37:31Z</time>
      </trkpt>
      <trkpt lat="40.8337710" lon="-4.0552460">
        <ele>1535.2</ele>
        <time>2019-04-28T07:37:32Z</time>
      </trkpt>
      <trkpt lat="40.8337440" lon="-4.0552670">
        <ele>1535.2</ele>
        <time>2019-04-28T07:37:33Z</time>
      </trkpt>
      <trkpt lat="40.8337220" lon="-4.0552800">
        <ele>1535.4</ele>
        <time>2019-04-28T07:37:34Z</time>
      </trkpt>
      <trkpt lat="40.8337070" lon="-4.0552970">
        <ele>1535.4</ele>
        <time>2019-04-28T07:37:35Z</time>
      </trkpt>
      <trkpt lat="40.8336900" lon="-4.0553160">
        <ele>1535.4</ele>
        <time>2019-04-28T07:37:36Z</time>
      </trkpt>
      <trkpt lat="40.8336740" lon="-4.0552960">
        <ele>1535.6</ele>
        <time>2019-04-28T07:37:37Z</time>
      </trkpt>
      <trkpt lat="40.8336520" lon="-4.0553110">
        <ele>1535.6</ele>
        <time>2019-04-28T07:37:38Z</time>
      </trkpt>
      <trkpt lat="40.8336450" lon="-4.0553280">
        <ele>1535.8</ele>
        <time>2019-04-28T07:37:39Z</time>
      </trkpt>
      <trkpt lat="40.8336370" lon="-4.0553510">
        <ele>1535.8</ele>
        <time>2019-04-28T07:37:40Z</time>
      </trkpt>
      <trkpt lat="40.8336200" lon="-4.0553690">
        <ele>1536.0</ele>
        <time>2019-04-28T07:37:41Z</time>
      </trkpt>
      <trkpt lat="40.8335990" lon="-4.0553840">
        <ele>1536.0</ele>
        <time>2019-04-28T07:37:42Z</time>
      </trkpt>
      <trkpt lat="40.8335780" lon="-4.0554030">
        <ele>1536.2</ele>
        <time>2019-04-28T07:37:43Z</time>
      </trkpt>
      <trkpt lat="40.8335620" lon="-4.0554190">
        <ele>1536.2</ele>
        <time>2019-04-28T07:37:44Z</time>
      </trkpt>
      <trkpt lat="40.8335370" lon="-4.0554370">
        <ele>1536.4</ele>
        <time>2019-04-28T07:37:45Z</time>
      </trkpt>
      <trkpt lat="40.8335160" lon="-4.0554530">
        <ele>1536.4</ele>
        <time>2019-04-28T07:37:46Z</time>
      </trkpt>
      <trkpt lat="40.8334870" lon="-4.0554720">
        <ele>1536.4</ele>
        <time>2019-04-28T07:37:47Z</time>
      </trkpt>
      <trkpt lat="40.8334640" lon="-4.0554860">
        <ele>1536.6</ele>
        <time>2019-04-28T07:37:48Z</time>
      </trkpt>
      <trkpt lat="40.8334390" lon="-4.0555010">
        <ele>1536.6</ele>
        <time>2019-04-28T07:37:49Z</time>
      </trkpt>
      <trkpt lat="40.8334160" lon="-4.0555160">
        <ele>1536.6</ele>
        <time>2019-04-28T07:37:50Z</time>
      </trkpt>
      <trkpt lat="40.8333950" lon="-4.0555330">
        <ele>1536.8</ele>
        <time>2019-04-28T07:37:51Z</time>
      </trkpt>
      <trkpt lat="40.8333790" lon="-4.0555430">
        <ele>1536.8</ele>
        <time>2019-04-28T07:37:52Z</time>
      </trkpt>
      <trkpt lat="40.8333810" lon="-4.0555450">
        <ele>1537.0</ele>
        <time>2019-04-28T07:37:53Z</time>
      </trkpt>
      <trkpt lat="40.8333740" lon="-4.0555500">
        <ele>1537.0</ele>
        <time>2019-04-28T07:37:54Z</time>
      </trkpt>
      <trkpt lat="40.8333460" lon="-4.0555660">
        <ele>1537.0</ele>
        <time>2019-04-28T07:37:55Z</time>
      </trkpt>
      <trkpt lat="40.8333290" lon="-4.0555810">
        <ele>1537.0</ele>
        <time>2019-04-28T07:37:56Z</time>
      </trkpt>
      <trkpt lat="40.8333200" lon="-4.0555820">
        <ele>1537.0</ele>
        <time>2019-04-28T07:37:57Z</time>
      </trkpt>
      <trkpt lat="40.8332970" lon="-4.0555910">
        <ele>1537.0</ele>
        <time>2019-04-28T07:37:58Z</time>
      </trkpt>
      <trkpt lat="40.8332910" lon="-4.0555870">
        <ele>1537.2</ele>
        <time>2019-04-28T07:37:59Z</time>
      </trkpt>
      <trkpt lat="40.8332720" lon="-4.0555780">
        <ele>1537.2</ele>
        <time>2019-04-28T07:38:00Z</time>
      </trkpt>
      <trkpt lat="40.8332560" lon="-4.0555770">
        <ele>1537.2</ele>
        <time>2019-04-28T07:38:01Z</time>
      </trkpt>
      <trkpt lat="40.8332470" lon="-4.0555750">
        <ele>1537.2</ele>
        <time>2019-04-28T07:38:02Z</time>
      </trkpt>
      <trkpt lat="40.8332290" lon="-4.0555730">
        <ele>1537.2</ele>
        <time>2019-04-28T07:38:03Z</time>
      </trkpt>
      <trkpt lat="40.8332150" lon="-4.0555780">
        <ele>1537.2</ele>
        <time>2019-04-28T07:38:04Z</time>
      </trkpt>
      <trkpt lat="40.8332060" lon="-4.0555760">
        <ele>1537.2</ele>
        <time>2019-04-28T07:38:05Z</time>
      </trkpt>
      <trkpt lat="40.8331900" lon="-4.0555870">
        <ele>1537.2</ele>
        <time>2019-04-28T07:38:06Z</time>
      </trkpt>
      <trkpt lat="40.8331780" lon="-4.0555990">
        <ele>1537.2</ele>
        <time>2019-04-28T07:38:07Z</time>
      </trkpt>
      <trkpt lat="40.8331910" lon="-4.0555870">
        <ele>1537.2</ele>
        <time>2019-04-28T07:38:08Z</time>
      </trkpt>
      <trkpt lat="40.8331800" lon="-4.0555920">
        <ele>1537.2</ele>
        <time>2019-04-28T07:38:09Z</time>
      </trkpt>
      <trkpt lat="40.8323900" lon="-4.0558240">
        <ele>1537.2</ele>
        <time>2019-04-28T07:42:34Z</time>
      </trkpt>
      <trkpt lat="40.8323800" lon="-4.0558130">
        <ele>1537.4</ele>
        <time>2019-04-28T07:42:35Z</time>
      </trkpt>
      <trkpt lat="40.8323620" lon="-4.0558080">
        <ele>1537.4</ele>
        <time>2019-04-28T07:42:36Z</time>
      </trkpt>
      <trkpt lat="40.8323530" lon="-4.0557930">
        <ele>1537.6</ele>
        <time>2019-04-28T07:42:37Z</time>
      </trkpt>
      <trkpt lat="40.8323380" lon="-4.0557840">
        <ele>1537.6</ele>
        <time>2019-04-28T07:42:38Z</time>
      </trkpt>
      <trkpt lat="40.8323210" lon="-4.0557750">
        <ele>1537.6</ele>
        <time>2019-04-28T07:42:39Z</time>
      </trkpt>
      <trkpt lat="40.8322960" lon="-4.0557830">
        <ele>1537.8</ele>
        <time>2019-04-28T07:42:40Z</time>
      </trkpt>
      <trkpt lat="40.8322720" lon="-4.0557800">
        <ele>1537.8</ele>
        <time>2019-04-28T07:42:41Z</time>
      </trkpt>
      <trkpt lat="40.8322480" lon="-4.0557780">
        <ele>1537.8</ele>
        <time>2019-04-28T07:42:42Z</time>
      </trkpt>
      <trkpt lat="40.8322010" lon="-4.0557940">
        <ele>1538.0</ele>
        <time>2019-04-28T07:42:43Z</time>
      </trkpt>
      <trkpt lat="40.8321780" lon="-4.0557900">
        <ele>1538.0</ele>
        <time>2019-04-28T07:42:44Z</time>
      </trkpt>
      <trkpt lat="40.8321570" lon="-4.0557820">
        <ele>1538.2</ele>
        <time>2019-04-28T07:42:45Z</time>
      </trkpt>
      <trkpt lat="40.8321410" lon="-4.0557640">
        <ele>1538.2</ele>
        <time>2019-04-28T07:42:46Z</time>
      </trkpt>
      <trkpt lat="40.8321160" lon="-4.0557670">
        <ele>1538.4</ele>
        <time>2019-04-28T07:42:47Z</time>
      </trkpt>
      <trkpt lat="40.8320630" lon="-4.0557620">
        <ele>1538.6</ele>
        <time>2019-04-28T07:42:48Z</time>
      </trkpt>
      <trkpt lat="40.8320320" lon="-4.0557500">
        <ele>1538.6</ele>
        <time>2019-04-28T07:42:49Z</time>
      </trkpt>
      <trkpt lat="40.8320250" lon="-4.0557250">
        <ele>1538.8</ele>
        <time>2019-04-28T07:42:50Z</time>
      </trkpt>
      <trkpt lat="40.8320120" lon="-4.0557060">
        <ele>1538.8</ele>
        <time>2019-04-28T07:42:51Z</time>
      </trkpt>
      <trkpt lat="40.8320040" lon="-4.0557040">
        <ele>1539.0</ele>
        <time>2019-04-28T07:42:52Z</time>
      </trkpt>
      <trkpt lat="40.8319960" lon="-4.0557030">
        <ele>1539.2</ele>
        <time>2019-04-28T07:42:53Z</time>
      </trkpt>
      <trkpt lat="40.8319880" lon="-4.0557010">
        <ele>1539.2</ele>
        <time>2019-04-28T07:42:54Z</time>
      </trkpt>
      <trkpt lat="40.8319800" lon="-4.0556990">
        <ele>1539.4</ele>
        <time>2019-04-28T07:42:55Z</time>
      </trkpt>
      <trkpt lat="40.8319140" lon="-4.0556920">
        <ele>1539.4</ele>
        <time>2019-04-28T07:42:56Z</time>
      </trkpt>
      <trkpt lat="40.8318940" lon="-4.0556820">
        <ele>1539.6</ele>
        <time>2019-04-28T07:42:57Z</time>
      </trkpt>
      <trkpt lat="40.8318730" lon="-4.0556910">
        <ele>1539.6</ele>
        <time>2019-04-28T07:42:58Z</time>
      </trkpt>
      <trkpt lat="40.8318360" lon="-4.0557080">
        <ele>1539.8</ele>
        <time>2019-04-28T07:42:59Z</time>
      </trkpt>
      <trkpt lat="40.8318170" lon="-4.0557170">
        <ele>1539.8</ele>
        <time>2019-04-28T07:43:00Z</time>
      </trkpt>
      <trkpt lat="40.8317900" lon="-4.0557060">
        <ele>1540.0</ele>
        <time>2019-04-28T07:43:01Z</time>
      </trkpt>
      <trkpt lat="40.8317580" lon="-4.0556960">
        <ele>1540.0</ele>
        <time>2019-04-28T07:43:02Z</time>
      </trkpt>
      <trkpt lat="40.8317540" lon="-4.0556750">
        <ele>1540.2</ele>
        <time>2019-04-28T07:43:03Z</time>
      </trkpt>
      <trkpt lat="40.8317450" lon="-4.0556660">
        <ele>1540.2</ele>
        <time>2019-04-28T07:43:04Z</time>
      </trkpt>
      <trkpt lat="40.8317170" lon="-4.0556660">
        <ele>1540.4</ele>
        <time>2019-04-28T07:43:05Z</time>
      </trkpt>
      <trkpt lat="40.8316960" lon="-4.0556580">
        <ele>1540.4</ele>
        <time>2019-04-28T07:43:06Z</time>
      </trkpt>
      <trkpt lat="40.8316460" lon="-4.0556510">
        <ele>1540.6</ele>
        <time>2019-04-28T07:43:07Z</time>
      </trkpt>
      <trkpt lat="40.8316210" lon="-4.0556330">
        <ele>1540.6</ele>
        <time>2019-04-28T07:43:08Z</time>
      </trkpt>
      <trkpt lat="40.8315740" lon="-4.0556170">
        <ele>1540.8</ele>
        <time>2019-04-28T07:43:09Z</time>
      </trkpt>
      <trkpt lat="40.8315580" lon="-4.0555980">
        <ele>1540.8</ele>
        <time>2019-04-28T07:43:10Z</time>
      </trkpt>
      <trkpt lat="40.8315230" lon="-4.0555830">
        <ele>1540.8</ele>
        <time>2019-04-28T07:43:11Z</time>
      </trkpt>
      <trkpt lat="40.8314750" lon="-4.0555620">
        <ele>1541.0</ele>
        <time>2019-04-28T07:43:12Z</time>
      </trkpt>
      <trkpt lat="40.8314270" lon="-4.0555510">
        <ele>1541.0</ele>
        <time>2019-04-28T07:43:13Z</time>
      </trkpt>
      <trkpt lat="40.8313740" lon="-4.0555500">
        <ele>1541.2</ele>
        <time>2019-04-28T07:43:14Z</time>
      </trkpt>
      <trkpt lat="40.8313270" lon="-4.0555340">
        <ele>1541.2</ele>
        <time>2019-04-28T07:43:15Z</time>
      </trkpt>
      <trkpt lat="40.8313030" lon="-4.0555050">
        <ele>1541.2</ele>
        <time>2019-04-28T07:43:16Z</time>
      </trkpt>
      <trkpt lat="40.8312570" lon="-4.0554850">
        <ele>1541.2</ele>
        <time>2019-04-28T07:43:17Z</time>
      </trkpt>
      <trkpt lat="40.8312290" lon="-4.0554670">
        <ele>1541.4</ele>
        <time>2019-04-28T07:43:18Z</time>
      </trkpt>
      <trkpt lat="40.8311790" lon="-4.0554600">
        <ele>1541.4</ele>
        <time>2019-04-28T07:43:19Z</time>
      </trkpt>
      <trkpt lat="40.8311630" lon="-4.0554480">
        <ele>1541.6</ele>
        <time>2019-04-28T07:43:20Z</time>
      </trkpt>
      <trkpt lat="40.8311320" lon="-4.0554430">
        <ele>1541.6</ele>
        <time>2019-04-28T07:43:21Z</time>
      </trkpt>
      <trkpt lat="40.8311060" lon="-4.0554560">
        <ele>1541.8</ele>
        <time>2019-04-28T07:43:22Z</time>
      </trkpt>
      <trkpt lat="40.8310540" lon="-4.0554710">
        <ele>1542.0</ele>
        <time>2019-04-28T07:43:23Z</time>
      </trkpt>
      <trkpt lat="40.8310270" lon="-4.0554650">
        <ele>1542.2</ele>
        <time>2019-04-28T07:43:24Z</time>
      </trkpt>
      <trkpt lat="40.8309820" lon="-4.0554780">
        <ele>1542.4</ele>
        <time>2019-04-28T07:43:25Z</time>
      </trkpt>
      <trkpt lat="40.8309340" lon="-4.0555040">
        <ele>1542.6</ele>
        <time>2019-04-28T07:43:26Z</time>
      </trkpt>
      <trkpt lat="40.8309110" lon="-4.0555200">
        <ele>1542.6</ele>
        <time>2019-04-28T07:43:27Z</time>
      </trkpt>
      <trkpt lat="40.8309010" lon="-4.0555430">
        <ele>1542.8</ele>
        <time>2019-04-28T07:43:28Z</time>
      </trkpt>
      <trkpt lat="40.8308990" lon="-4.0555590">
        <ele>1542.8</ele>
        <time>2019-04-28T07:43:29Z</time>
      </trkpt>
      <trkpt lat="40.8309070" lon="-4.0555780">
        <ele>1542.8</ele>
        <time>2019-04-28T07:43:30Z</time>
      </trkpt>
      <trkpt lat="40.8309270" lon="-4.0555860">
        <ele>1542.8</ele>
        <time>2019-04-28T07:43:31Z</time>
      </trkpt>
      <trkpt lat="40.8309260" lon="-4.0556020">
        <ele>1542.8</ele>
        <time>2019-04-28T07:43:32Z</time>
      </trkpt>
      <trkpt lat="40.8309090" lon="-4.0556240">
        <ele>1542.8</ele>
        <time>2019-04-28T07:43:33Z</time>
      </trkpt>
      <trkpt lat="40.8308730" lon="-4.0556440">
        <ele>1542.8</ele>
        <time>2019-04-28T07:43:34Z</time>
      </trkpt>
      <trkpt lat="40.8308700" lon="-4.0556710">
        <ele>1542.8</ele>
        <time>2019-04-28T07:43:35Z</time>
      </trkpt>
      <trkpt lat="40.8308800" lon="-4.0556970">
        <ele>1542.8</ele>
        <time>2019-04-28T07:43:36Z</time>
      </trkpt>
      <trkpt lat="40.8308620" lon="-4.0557240">
        <ele>1542.8</ele>
        <time>2019-04-28T07:43:37Z</time>
      </trkpt>
      <trkpt lat="40.8308400" lon="-4.0557560">
        <ele>1542.8</ele>
        <time>2019-04-28T07:43:38Z</time>
      </trkpt>
      <trkpt lat="40.8308120" lon="-4.0557830">
        <ele>1542.8</ele>
        <time>2019-04-28T07:43:39Z</time>
      </trkpt>
      <trkpt lat="40.8307600" lon="-4.0558160">
        <ele>1542.8</ele>
        <time>2019-04-28T07:43:40Z</time>
      </trkpt>
      <trkpt lat="40.8307190" lon="-4.0558500">
        <ele>1542.6</ele>
        <time>2019-04-28T07:43:41Z</time>
      </trkpt>
      <trkpt lat="40.8306830" lon="-4.0558830">
        <ele>1542.6</ele>
        <time>2019-04-28T07:43:42Z</time>
      </trkpt>
      <trkpt lat="40.8306490" lon="-4.0559340">
        <ele>1542.2</ele>
        <time>2019-04-28T07:43:43Z</time>
      </trkpt>
      <trkpt lat="40.8306430" lon="-4.0559830">
        <ele>1542.6</ele>
        <time>2019-04-28T07:43:44Z</time>
      </trkpt>
      <trkpt lat="40.8306300" lon="-4.0560160">
        <ele>1542.8</ele>
        <time>2019-04-28T07:43:45Z</time>
      </trkpt>
      <trkpt lat="40.8306040" lon="-4.0560520">
        <ele>1542.8</ele>
        <time>2019-04-28T07:43:46Z</time>
      </trkpt>
      <trkpt lat="40.8305120" lon="-4.0561290">
        <ele>1542.8</ele>
        <time>2019-04-28T07:43:47Z</time>
      </trkpt>
      <trkpt lat="40.8304200" lon="-4.0562060">
        <ele>1542.8</ele>
        <time>2019-04-28T07:43:48Z</time>
      </trkpt>
      <trkpt lat="40.8303190" lon="-4.0562880">
        <ele>1542.8</ele>
        <time>2019-04-28T07:43:49Z</time>
      </trkpt>
      <trkpt lat="40.8302870" lon="-4.0563220">
        <ele>1543.0</ele>
        <time>2019-04-28T07:43:50Z</time>
      </trkpt>
      <trkpt lat="40.8301870" lon="-4.0564130">
        <ele>1543.0</ele>
        <time>2019-04-28T07:43:51Z</time>
      </trkpt>
      <trkpt lat="40.8300870" lon="-4.0565030">
        <ele>1543.2</ele>
        <time>2019-04-28T07:43:52Z</time>
      </trkpt>
      <trkpt lat="40.8299990" lon="-4.0565860">
        <ele>1543.4</ele>
        <time>2019-04-28T07:43:53Z</time>
      </trkpt>
      <trkpt lat="40.8299060" lon="-4.0566840">
        <ele>1543.4</ele>
        <time>2019-04-28T07:43:54Z</time>
      </trkpt>
      <trkpt lat="40.8298520" lon="-4.0567460">
        <ele>1543.4</ele>
        <time>2019-04-28T07:43:55Z</time>
      </trkpt>
      <trkpt lat="40.8297880" lon="-4.0568220">
        <ele>1543.4</ele>
        <time>2019-04-28T07:43:56Z</time>
      </trkpt>
      <trkpt lat="40.8297500" lon="-4.0568810">
        <ele>1543.4</ele>
        <time>2019-04-28T07:43:57Z</time>
      </trkpt>
      <trkpt lat="40.8296940" lon="-4.0569710">
        <ele>1543.4</ele>
        <time>2019-04-28T07:43:58Z</time>
      </trkpt>
      <trkpt lat="40.8296500" lon="-4.0570470">
        <ele>1543.6</ele>
        <time>2019-04-28T07:43:59Z</time>
      </trkpt>
      <trkpt lat="40.8296090" lon="-4.0571140">
        <ele>1543.8</ele>
        <time>2019-04-28T07:44:00Z</time>
      </trkpt>
      <trkpt lat="40.8295650" lon="-4.0571950">
        <ele>1543.8</ele>
        <time>2019-04-28T07:44:01Z</time>
      </trkpt>
      <trkpt lat="40.8295400" lon="-4.0572550">
        <ele>1544.0</ele>
        <time>2019-04-28T07:44:02Z</time>
      </trkpt>
      <trkpt lat="40.8295260" lon="-4.0573070">
        <ele>1544.0</ele>
        <time>2019-04-28T07:44:03Z</time>
      </trkpt>
      <trkpt lat="40.8295040" lon="-4.0573730">
        <ele>1544.0</ele>
        <time>2019-04-28T07:44:04Z</time>
      </trkpt>
      <trkpt lat="40.8294760" lon="-4.0574360">
        <ele>1544.2</ele>
        <time>2019-04-28T07:44:05Z</time>
      </trkpt>
      <trkpt lat="40.8294480" lon="-4.0574820">
        <ele>1544.2</ele>
        <time>2019-04-28T07:44:06Z</time>
      </trkpt>
      <trkpt lat="40.8294220" lon="-4.0575470">
        <ele>1544.2</ele>
        <time>2019-04-28T07:44:07Z</time>
      </trkpt>
      <trkpt lat="40.8293730" lon="-4.0576060">
        <ele>1544.2</ele>
        <time>2019-04-28T07:44:08Z</time>
      </trkpt>
      <trkpt lat="40.8293580" lon="-4.0576490">
        <ele>1544.2</ele>
        <time>2019-04-28T07:44:09Z</time>
      </trkpt>
      <trkpt lat="40.8293410" lon="-4.0576970">
        <ele>1544.2</ele>
        <time>2019-04-28T07:44:10Z</time>
      </trkpt>
      <trkpt lat="40.8293380" lon="-4.0577590">
        <ele>1544.2</ele>
        <time>2019-04-28T07:44:11Z</time>
      </trkpt>
      <trkpt lat="40.8293270" lon="-4.0578250">
        <ele>1544.4</ele>
        <time>2019-04-28T07:44:12Z</time>
      </trkpt>
      <trkpt lat="40.8293070" lon="-4.0578830">
        <ele>1544.4</ele>
        <time>2019-04-28T07:44:13Z</time>
      </trkpt>
      <trkpt lat="40.8293060" lon="-4.0579570">
        <ele>1544.6</ele>
        <time>2019-04-28T07:44:14Z</time>
      </trkpt>
      <trkpt lat="40.8292870" lon="-4.0580190">
        <ele>1544.4</ele>
        <time>2019-04-28T07:44:15Z</time>
      </trkpt>
      <trkpt lat="40.8292590" lon="-4.0580950">
        <ele>1544.4</ele>
        <time>2019-04-28T07:44:16Z</time>
      </trkpt>
      <trkpt lat="40.8292500" lon="-4.0581680">
        <ele>1544.4</ele>
        <time>2019-04-28T07:44:17Z</time>
      </trkpt>
      <trkpt lat="40.8292340" lon="-4.0582330">
        <ele>1544.6</ele>
        <time>2019-04-28T07:44:18Z</time>
      </trkpt>
      <trkpt lat="40.8292240" lon="-4.0582540">
        <ele>1544.8</ele>
        <time>2019-04-28T07:44:19Z</time>
      </trkpt>
      <trkpt lat="40.8292210" lon="-4.0583070">
        <ele>1544.8</ele>
        <time>2019-04-28T07:44:20Z</time>
      </trkpt>
      <trkpt lat="40.8292030" lon="-4.0583630">
        <ele>1544.8</ele>
        <time>2019-04-28T07:44:21Z</time>
      </trkpt>
      <trkpt lat="40.8291780" lon="-4.0584090">
        <ele>1544.8</ele>
        <time>2019-04-28T07:44:22Z</time>
      </trkpt>
      <trkpt lat="40.8291510" lon="-4.0584670">
        <ele>1544.8</ele>
        <time>2019-04-28T07:44:23Z</time>
      </trkpt>
      <trkpt lat="40.8291200" lon="-4.0585210">
        <ele>1544.8</ele>
        <time>2019-04-28T07:44:24Z</time>
      </trkpt>
      <trkpt lat="40.8290990" lon="-4.0585770">
        <ele>1544.8</ele>
        <time>2019-04-28T07:44:25Z</time>
      </trkpt>
      <trkpt lat="40.8290750" lon="-4.0586220">
        <ele>1545.0</ele>
        <time>2019-04-28T07:44:26Z</time>
      </trkpt>
      <trkpt lat="40.8290570" lon="-4.0586630">
        <ele>1545.0</ele>
        <time>2019-04-28T07:44:27Z</time>
      </trkpt>
      <trkpt lat="40.8290370" lon="-4.0586850">
        <ele>1545.2</ele>
        <time>2019-04-28T07:44:28Z</time>
      </trkpt>
      <trkpt lat="40.8290170" lon="-4.0587130">
        <ele>1545.4</ele>
        <time>2019-04-28T07:44:29Z</time>
      </trkpt>
      <trkpt lat="40.8289850" lon="-4.0587320">
        <ele>1545.4</ele>
        <time>2019-04-28T07:44:30Z</time>
      </trkpt>
      <trkpt lat="40.8289650" lon="-4.0587540">
        <ele>1545.4</ele>
        <time>2019-04-28T07:44:31Z</time>
      </trkpt>
      <trkpt lat="40.8289330" lon="-4.0588060">
        <ele>1545.6</ele>
        <time>2019-04-28T07:44:32Z</time>
      </trkpt>
      <trkpt lat="40.8288990" lon="-4.0588400">
        <ele>1545.6</ele>
        <time>2019-04-28T07:44:33Z</time>
      </trkpt>
      <trkpt lat="40.8288680" lon="-4.0588880">
        <ele>1545.8</ele>
        <time>2019-04-28T07:44:34Z</time>
      </trkpt>
      <trkpt lat="40.8288320" lon="-4.0589260">
        <ele>1546.0</ele>
        <time>2019-04-28T07:44:35Z</time>
      </trkpt>
      <trkpt lat="40.8287930" lon="-4.0589450">
        <ele>1546.0</ele>
        <time>2019-04-28T07:44:36Z</time>
      </trkpt>
      <trkpt lat="40.8287530" lon="-4.0589720">
        <ele>1546.0</ele>
        <time>2019-04-28T07:44:37Z</time>
      </trkpt>
      <trkpt lat="40.8287180" lon="-4.0589970">
        <ele>1546.2</ele>
        <time>2019-04-28T07:44:38Z</time>
      </trkpt>
      <trkpt lat="40.8286820" lon="-4.0590190">
        <ele>1546.2</ele>
        <time>2019-04-28T07:44:39Z</time>
      </trkpt>
      <trkpt lat="40.8286530" lon="-4.0590260">
        <ele>1546.2</ele>
        <time>2019-04-28T07:44:40Z</time>
      </trkpt>
      <trkpt lat="40.8286100" lon="-4.0590560">
        <ele>1546.4</ele>
        <time>2019-04-28T07:44:41Z</time>
      </trkpt>
      <trkpt lat="40.8285740" lon="-4.0590830">
        <ele>1546.4</ele>
        <time>2019-04-28T07:44:42Z</time>
      </trkpt>
      <trkpt lat="40.8285470" lon="-4.0591070">
        <ele>1546.6</ele>
        <time>2019-04-28T07:44:43Z</time>
      </trkpt>
      <trkpt lat="40.8285120" lon="-4.0591340">
        <ele>1546.6</ele>
        <time>2019-04-28T07:44:44Z</time>
      </trkpt>
      <trkpt lat="40.8284670" lon="-4.0591540">
        <ele>1546.8</ele>
        <time>2019-04-28T07:44:45Z</time>
      </trkpt>
      <trkpt lat="40.8284210" lon="-4.0591790">
        <ele>1547.0</ele>
        <time>2019-04-28T07:44:46Z</time>
      </trkpt>
      <trkpt lat="40.8283880" lon="-4.0592030">
        <ele>1547.2</ele>
        <time>2019-04-28T07:44:47Z</time>
      </trkpt>
      <trkpt lat="40.8283470" lon="-4.0592430">
        <ele>1547.4</ele>
        <time>2019-04-28T07:44:48Z</time>
      </trkpt>
      <trkpt lat="40.8283080" lon="-4.0592530">
        <ele>1547.6</ele>
        <time>2019-04-28T07:44:49Z</time>
      </trkpt>
      <trkpt lat="40.8282640" lon="-4.0592670">
        <ele>1547.8</ele>
        <time>2019-04-28T07:44:50Z</time>
      </trkpt>
      <trkpt lat="40.8282330" lon="-4.0592880">
        <ele>1548.2</ele>
        <time>2019-04-28T07:44:51Z</time>
      </trkpt>
      <trkpt lat="40.8282140" lon="-4.0592990">
        <ele>1548.4</ele>
        <time>2019-04-28T07:44:52Z</time>
      </trkpt>
      <trkpt lat="40.8281910" lon="-4.0593080">
        <ele>1548.6</ele>
        <time>2019-04-28T07:44:53Z</time>
      </trkpt>
      <trkpt lat="40.8281670" lon="-4.0593550">
        <ele>1549.0</ele>
        <time>2019-04-28T07:44:54Z</time>
      </trkpt>
      <trkpt lat="40.8281320" lon="-4.0593840">
        <ele>1549.2</ele>
        <time>2019-04-28T07:44:55Z</time>
      </trkpt>
      <trkpt lat="40.8281010" lon="-4.0594210">
        <ele>1549.2</ele>
        <time>2019-04-28T07:44:56Z</time>
      </trkpt>
      <trkpt lat="40.8280620" lon="-4.0594390">
        <ele>1549.6</ele>
        <time>2019-04-28T07:44:57Z</time>
      </trkpt>
      <trkpt lat="40.8280240" lon="-4.0594440">
        <ele>1549.8</ele>
        <time>2019-04-28T07:44:58Z</time>
      </trkpt>
      <trkpt lat="40.8279920" lon="-4.0594690">
        <ele>1550.0</ele>
        <time>2019-04-28T07:44:59Z</time>
      </trkpt>
      <trkpt lat="40.8279560" lon="-4.0594830">
        <ele>1550.0</ele>
        <time>2019-04-28T07:45:00Z</time>
      </trkpt>
      <trkpt lat="40.8279150" lon="-4.0594960">
        <ele>1550.2</ele>
        <time>2019-04-28T07:45:01Z</time>
      </trkpt>
      <trkpt lat="40.8278770" lon="-4.0595220">
        <ele>1550.4</ele>
        <time>2019-04-28T07:45:02Z</time>
      </trkpt>
      <trkpt lat="40.8278430" lon="-4.0595340">
        <ele>1550.8</ele>
        <time>2019-04-28T07:45:03Z</time>
      </trkpt>
      <trkpt lat="40.8278110" lon="-4.0595390">
        <ele>1550.8</ele>
        <time>2019-04-28T07:45:04Z</time>
      </trkpt>
      <trkpt lat="40.8277770" lon="-4.0595470">
        <ele>1551.0</ele>
        <time>2019-04-28T07:45:05Z</time>
      </trkpt>
      <trkpt lat="40.8277460" lon="-4.0595510">
        <ele>1551.0</ele>
        <time>2019-04-28T07:45:06Z</time>
      </trkpt>
      <trkpt lat="40.8277030" lon="-4.0595670">
        <ele>1551.2</ele>
        <time>2019-04-28T07:45:07Z</time>
      </trkpt>
      <trkpt lat="40.8276630" lon="-4.0595810">
        <ele>1551.2</ele>
        <time>2019-04-28T07:45:08Z</time>
      </trkpt>
      <trkpt lat="40.8276340" lon="-4.0595840">
        <ele>1551.6</ele>
        <time>2019-04-28T07:45:09Z</time>
      </trkpt>
      <trkpt lat="40.8275920" lon="-4.0595940">
        <ele>1551.8</ele>
        <time>2019-04-28T07:45:10Z</time>
      </trkpt>
      <trkpt lat="40.8275560" lon="-4.0596020">
        <ele>1552.2</ele>
        <time>2019-04-28T07:45:11Z</time>
      </trkpt>
      <trkpt lat="40.8275090" lon="-4.0596170">
        <ele>1552.2</ele>
        <time>2019-04-28T07:45:12Z</time>
      </trkpt>
      <trkpt lat="40.8274750" lon="-4.0596270">
        <ele>1552.4</ele>
        <time>2019-04-28T07:45:13Z</time>
      </trkpt>
      <trkpt lat="40.8274370" lon="-4.0596310">
        <ele>1552.6</ele>
        <time>2019-04-28T07:45:14Z</time>
      </trkpt>
      <trkpt lat="40.8273930" lon="-4.0596370">
        <ele>1552.6</ele>
        <time>2019-04-28T07:45:15Z</time>
      </trkpt>
      <trkpt lat="40.8273590" lon="-4.0596460">
        <ele>1552.8</ele>
        <time>2019-04-28T07:45:16Z</time>
      </trkpt>
      <trkpt lat="40.8273230" lon="-4.0596520">
        <ele>1553.0</ele>
        <time>2019-04-28T07:45:17Z</time>
      </trkpt>
      <trkpt lat="40.8273080" lon="-4.0596490">
        <ele>1553.2</ele>
        <time>2019-04-28T07:45:18Z</time>
      </trkpt>
      <trkpt lat="40.8272750" lon="-4.0596470">
        <ele>1553.4</ele>
        <time>2019-04-28T07:45:19Z</time>
      </trkpt>
      <trkpt lat="40.8272460" lon="-4.0596290">
        <ele>1553.6</ele>
        <time>2019-04-28T07:45:20Z</time>
      </trkpt>
      <trkpt lat="40.8272240" lon="-4.0596280">
        <ele>1553.8</ele>
        <time>2019-04-28T07:45:21Z</time>
      </trkpt>
      <trkpt lat="40.8272100" lon="-4.0596240">
        <ele>1553.8</ele>
        <time>2019-04-28T07:45:22Z</time>
      </trkpt>
      <trkpt lat="40.8271760" lon="-4.0596300">
        <ele>1554.2</ele>
        <time>2019-04-28T07:45:23Z</time>
      </trkpt>
      <trkpt lat="40.8271450" lon="-4.0596390">
        <ele>1554.4</ele>
        <time>2019-04-28T07:45:24Z</time>
      </trkpt>
      <trkpt lat="40.8271280" lon="-4.0596410">
        <ele>1554.6</ele>
        <time>2019-04-28T07:45:25Z</time>
      </trkpt>
      <trkpt lat="40.8271010" lon="-4.0596410">
        <ele>1554.8</ele>
        <time>2019-04-28T07:45:26Z</time>
      </trkpt>
      <trkpt lat="40.8270780" lon="-4.0596450">
        <ele>1555.2</ele>
        <time>2019-04-28T07:45:27Z</time>
      </trkpt>
      <trkpt lat="40.8270450" lon="-4.0596530">
        <ele>1555.2</ele>
        <time>2019-04-28T07:45:28Z</time>
      </trkpt>
      <trkpt lat="40.8270270" lon="-4.0596420">
        <ele>1555.6</ele>
        <time>2019-04-28T07:45:29Z</time>
      </trkpt>
      <trkpt lat="40.8269980" lon="-4.0596470">
        <ele>1555.6</ele>
        <time>2019-04-28T07:45:30Z</time>
      </trkpt>
      <trkpt lat="40.8269750" lon="-4.0596500">
        <ele>1556.0</ele>
        <time>2019-04-28T07:45:31Z</time>
      </trkpt>
      <trkpt lat="40.8269700" lon="-4.0596510">
        <ele>1556.2</ele>
        <time>2019-04-28T07:45:32Z</time>
      </trkpt>
      <trkpt lat="40.8269450" lon="-4.0596560">
        <ele>1556.4</ele>
        <time>2019-04-28T07:45:33Z</time>
      </trkpt>
      <trkpt lat="40.8269210" lon="-4.0596620">
        <ele>1556.6</ele>
        <time>2019-04-28T07:45:34Z</time>
      </trkpt>
      <trkpt lat="40.8268840" lon="-4.0596840">
        <ele>1557.0</ele>
        <time>2019-04-28T07:45:35Z</time>
      </trkpt>
      <trkpt lat="40.8268540" lon="-4.0596970">
        <ele>1557.2</ele>
        <time>2019-04-28T07:45:36Z</time>
      </trkpt>
      <trkpt lat="40.8268260" lon="-4.0597180">
        <ele>1557.2</ele>
        <time>2019-04-28T07:45:37Z</time>
      </trkpt>
      <trkpt lat="40.8267930" lon="-4.0597240">
        <ele>1557.4</ele>
        <time>2019-04-28T07:45:38Z</time>
      </trkpt>
      <trkpt lat="40.8267630" lon="-4.0597250">
        <ele>1557.6</ele>
        <time>2019-04-28T07:45:39Z</time>
      </trkpt>
      <trkpt lat="40.8267680" lon="-4.0597180">
        <ele>1557.8</ele>
        <time>2019-04-28T07:45:40Z</time>
      </trkpt>
      <trkpt lat="40.8267460" lon="-4.0597260">
        <ele>1558.0</ele>
        <time>2019-04-28T07:45:41Z</time>
      </trkpt>
      <trkpt lat="40.8267110" lon="-4.0597400">
        <ele>1558.2</ele>
        <time>2019-04-28T07:45:42Z</time>
      </trkpt>
      <trkpt lat="40.8266940" lon="-4.0597270">
        <ele>1558.4</ele>
        <time>2019-04-28T07:45:43Z</time>
      </trkpt>
      <trkpt lat="40.8266700" lon="-4.0597390">
        <ele>1558.4</ele>
        <time>2019-04-28T07:45:44Z</time>
      </trkpt>
      <trkpt lat="40.8266390" lon="-4.0597500">
        <ele>1558.6</ele>
        <time>2019-04-28T07:45:45Z</time>
      </trkpt>
      <trkpt lat="40.8266070" lon="-4.0597630">
        <ele>1558.8</ele>
        <time>2019-04-28T07:45:46Z</time>
      </trkpt>
      <trkpt lat="40.8265410" lon="-4.0597770">
        <ele>1559.0</ele>
        <time>2019-04-28T07:45:47Z</time>
      </trkpt>
      <trkpt lat="40.8265110" lon="-4.0597690">
        <ele>1559.0</ele>
        <time>2019-04-28T07:45:48Z</time>
      </trkpt>
      <trkpt lat="40.8264600" lon="-4.0597740">
        <ele>1559.2</ele>
        <time>2019-04-28T07:45:49Z</time>
      </trkpt>
      <trkpt lat="40.8264280" lon="-4.0597790">
        <ele>1559.4</ele>
        <time>2019-04-28T07:45:50Z</time>
      </trkpt>
      <trkpt lat="40.8263960" lon="-4.0597800">
        <ele>1559.6</ele>
        <time>2019-04-28T07:45:51Z</time>
      </trkpt>
      <trkpt lat="40.8263510" lon="-4.0597900">
        <ele>1559.6</ele>
        <time>2019-04-28T07:45:52Z</time>
      </trkpt>
      <trkpt lat="40.8263050" lon="-4.0598000">
        <ele>1559.8</ele>
        <time>2019-04-28T07:45:53Z</time>
      </trkpt>
      <trkpt lat="40.8262650" lon="-4.0598080">
        <ele>1560.0</ele>
        <time>2019-04-28T07:45:54Z</time>
      </trkpt>
      <trkpt lat="40.8262280" lon="-4.0598080">
        <ele>1560.2</ele>
        <time>2019-04-28T07:45:55Z</time>
      </trkpt>
      <trkpt lat="40.8261920" lon="-4.0598170">
        <ele>1560.2</ele>
        <time>2019-04-28T07:45:56Z</time>
      </trkpt>
      <trkpt lat="40.8261290" lon="-4.0598310">
        <ele>1560.4</ele>
        <time>2019-04-28T07:45:57Z</time>
      </trkpt>
      <trkpt lat="40.8261070" lon="-4.0598380">
        <ele>1560.6</ele>
        <time>2019-04-28T07:45:58Z</time>
      </trkpt>
      <trkpt lat="40.8260700" lon="-4.0598540">
        <ele>1560.8</ele>
        <time>2019-04-28T07:45:59Z</time>
      </trkpt>
      <trkpt lat="40.8260500" lon="-4.0598550">
        <ele>1561.0</ele>
        <time>2019-04-28T07:46:00Z</time>
      </trkpt>
      <trkpt lat="40.8259760" lon="-4.0598730">
        <ele>1561.2</ele>
        <time>2019-04-28T07:46:01Z</time>
      </trkpt>
      <trkpt lat="40.8258730" lon="-4.0599320">
        <ele>1561.4</ele>
        <time>2019-04-28T07:46:02Z</time>
      </trkpt>
      <trkpt lat="40.8257660" lon="-4.0599720">
        <ele>1561.6</ele>
        <time>2019-04-28T07:46:03Z</time>
      </trkpt>
      <trkpt lat="40.8257310" lon="-4.0599780">
        <ele>1561.6</ele>
        <time>2019-04-28T07:46:04Z</time>
      </trkpt>
      <trkpt lat="40.8257050" lon="-4.0599950">
        <ele>1561.6</ele>
        <time>2019-04-28T07:46:05Z</time>
      </trkpt>
      <trkpt lat="40.8256450" lon="-4.0600040">
        <ele>1561.8</ele>
        <time>2019-04-28T07:46:06Z</time>
      </trkpt>
      <trkpt lat="40.8256060" lon="-4.0599940">
        <ele>1562.0</ele>
        <time>2019-04-28T07:46:07Z</time>
      </trkpt>
      <trkpt lat="40.8255660" lon="-4.0599990">
        <ele>1562.2</ele>
        <time>2019-04-28T07:46:08Z</time>
      </trkpt>
      <trkpt lat="40.8255020" lon="-4.0600120">
        <ele>1562.4</ele>
        <time>2019-04-28T07:46:09Z</time>
      </trkpt>
      <trkpt lat="40.8254570" lon="-4.0600080">
        <ele>1562.6</ele>
        <time>2019-04-28T07:46:10Z</time>
      </trkpt>
      <trkpt lat="40.8254080" lon="-4.0600070">
        <ele>1562.8</ele>
        <time>2019-04-28T07:46:11Z</time>
      </trkpt>
      <trkpt lat="40.8253580" lon="-4.0600020">
        <ele>1563.0</ele>
        <time>2019-04-28T07:46:12Z</time>
      </trkpt>
      <trkpt lat="40.8252990" lon="-4.0600130">
        <ele>1563.0</ele>
        <time>2019-04-28T07:46:13Z</time>
      </trkpt>
      <trkpt lat="40.8252670" lon="-4.0600210">
        <ele>1563.2</ele>
        <time>2019-04-28T07:46:14Z</time>
      </trkpt>
      <trkpt lat="40.8252230" lon="-4.0600280">
        <ele>1563.4</ele>
        <time>2019-04-28T07:46:15Z</time>
      </trkpt>
      <trkpt lat="40.8252000" lon="-4.0600460">
        <ele>1563.6</ele>
        <time>2019-04-28T07:46:16Z</time>
      </trkpt>
      <trkpt lat="40.8251570" lon="-4.0600570">
        <ele>1563.8</ele>
        <time>2019-04-28T07:46:17Z</time>
      </trkpt>
      <trkpt lat="40.8251170" lon="-4.0600640">
        <ele>1563.8</ele>
        <time>2019-04-28T07:46:18Z</time>
      </trkpt>
      <trkpt lat="40.8250670" lon="-4.0600790">
        <ele>1564.0</ele>
        <time>2019-04-28T07:46:19Z</time>
      </trkpt>
      <trkpt lat="40.8250180" lon="-4.0600940">
        <ele>1564.0</ele>
        <time>2019-04-28T07:46:20Z</time>
      </trkpt>
      <trkpt lat="40.8249960" lon="-4.0600950">
        <ele>1564.2</ele>
        <time>2019-04-28T07:46:21Z</time>
      </trkpt>
      <trkpt lat="40.8249650" lon="-4.0601070">
        <ele>1564.4</ele>
        <time>2019-04-28T07:46:22Z</time>
      </trkpt>
      <trkpt lat="40.8249160" lon="-4.0601180">
        <ele>1564.4</ele>
        <time>2019-04-28T07:46:23Z</time>
      </trkpt>
      <trkpt lat="40.8248670" lon="-4.0601230">
        <ele>1564.4</ele>
        <time>2019-04-28T07:46:24Z</time>
      </trkpt>
      <trkpt lat="40.8248190" lon="-4.0601280">
        <ele>1564.6</ele>
        <time>2019-04-28T07:46:25Z</time>
      </trkpt>
      <trkpt lat="40.8248010" lon="-4.0601420">
        <ele>1564.6</ele>
        <time>2019-04-28T07:46:26Z</time>
      </trkpt>
      <trkpt lat="40.8247660" lon="-4.0601500">
        <ele>1564.8</ele>
        <time>2019-04-28T07:46:27Z</time>
      </trkpt>
      <trkpt lat="40.8247400" lon="-4.0601580">
        <ele>1564.8</ele>
        <time>2019-04-28T07:46:28Z</time>
      </trkpt>
      <trkpt lat="40.8246890" lon="-4.0601670">
        <ele>1565.0</ele>
        <time>2019-04-28T07:46:29Z</time>
      </trkpt>
      <trkpt lat="40.8246590" lon="-4.0601720">
        <ele>1565.0</ele>
        <time>2019-04-28T07:46:30Z</time>
      </trkpt>
      <trkpt lat="40.8246360" lon="-4.0601600">
        <ele>1565.2</ele>
        <time>2019-04-28T07:46:31Z</time>
      </trkpt>
      <trkpt lat="40.8246250" lon="-4.0601510">
        <ele>1565.4</ele>
        <time>2019-04-28T07:46:32Z</time>
      </trkpt>
      <trkpt lat="40.8246030" lon="-4.0601470">
        <ele>1565.4</ele>
        <time>2019-04-28T07:46:33Z</time>
      </trkpt>
      <trkpt lat="40.8245630" lon="-4.0601560">
        <ele>1565.6</ele>
        <time>2019-04-28T07:46:34Z</time>
      </trkpt>
      <trkpt lat="40.8245330" lon="-4.0601590">
        <ele>1565.8</ele>
        <time>2019-04-28T07:46:35Z</time>
      </trkpt>
      <trkpt lat="40.8244960" lon="-4.0601650">
        <ele>1565.8</ele>
        <time>2019-04-28T07:46:36Z</time>
      </trkpt>
      <trkpt lat="40.8244590" lon="-4.0601780">
        <ele>1566.0</ele>
        <time>2019-04-28T07:46:37Z</time>
      </trkpt>
      <trkpt lat="40.8244150" lon="-4.0601840">
        <ele>1566.2</ele>
        <time>2019-04-28T07:46:38Z</time>
      </trkpt>
      <trkpt lat="40.8243820" lon="-4.0601850">
        <ele>1566.4</ele>
        <time>2019-04-28T07:46:39Z</time>
      </trkpt>
      <trkpt lat="40.8243410" lon="-4.0601810">
        <ele>1566.6</ele>
        <time>2019-04-28T07:46:40Z</time>
      </trkpt>
      <trkpt lat="40.8243050" lon="-4.0601750">
        <ele>1566.8</ele>
        <time>2019-04-28T07:46:41Z</time>
      </trkpt>
      <trkpt lat="40.8242520" lon="-4.0601830">
        <ele>1567.0</ele>
        <time>2019-04-28T07:46:42Z</time>
      </trkpt>
      <trkpt lat="40.8241980" lon="-4.0601710">
        <ele>1567.0</ele>
        <time>2019-04-28T07:46:43Z</time>
      </trkpt>
      <trkpt lat="40.8241450" lon="-4.0601760">
        <ele>1567.4</ele>
        <time>2019-04-28T07:46:44Z</time>
      </trkpt>
      <trkpt lat="40.8240920" lon="-4.0601820">
        <ele>1567.4</ele>
        <time>2019-04-28T07:46:45Z</time>
      </trkpt>
      <trkpt lat="40.8240460" lon="-4.0601860">
        <ele>1567.6</ele>
        <time>2019-04-28T07:46:46Z</time>
      </trkpt>
      <trkpt lat="40.8240200" lon="-4.0602150">
        <ele>1567.8</ele>
        <time>2019-04-28T07:46:47Z</time>
      </trkpt>
      <trkpt lat="40.8239860" lon="-4.0602070">
        <ele>1568.0</ele>
        <time>2019-04-28T07:46:48Z</time>
      </trkpt>
      <trkpt lat="40.8239520" lon="-4.0602110">
        <ele>1568.0</ele>
        <time>2019-04-28T07:46:49Z</time>
      </trkpt>
      <trkpt lat="40.8239250" lon="-4.0602140">
        <ele>1568.2</ele>
        <time>2019-04-28T07:46:50Z</time>
      </trkpt>
      <trkpt lat="40.8238820" lon="-4.0602190">
        <ele>1568.4</ele>
        <time>2019-04-28T07:46:51Z</time>
      </trkpt>
      <trkpt lat="40.8238450" lon="-4.0602290">
        <ele>1568.6</ele>
        <time>2019-04-28T07:46:52Z</time>
      </trkpt>
      <trkpt lat="40.8238080" lon="-4.0602160">
        <ele>1568.8</ele>
        <time>2019-04-28T07:46:53Z</time>
      </trkpt>
      <trkpt lat="40.8237770" lon="-4.0602120">
        <ele>1569.0</ele>
        <time>2019-04-28T07:46:54Z</time>
      </trkpt>
      <trkpt lat="40.8237410" lon="-4.0601900">
        <ele>1569.2</ele>
        <time>2019-04-28T07:46:55Z</time>
      </trkpt>
      <trkpt lat="40.8237030" lon="-4.0601840">
        <ele>1569.4</ele>
        <time>2019-04-28T07:46:56Z</time>
      </trkpt>
      <trkpt lat="40.8236400" lon="-4.0601750">
        <ele>1569.6</ele>
        <time>2019-04-28T07:46:57Z</time>
      </trkpt>
      <trkpt lat="40.8235840" lon="-4.0601720">
        <ele>1569.8</ele>
        <time>2019-04-28T07:46:58Z</time>
      </trkpt>
      <trkpt lat="40.8235420" lon="-4.0601640">
        <ele>1570.2</ele>
        <time>2019-04-28T07:46:59Z</time>
      </trkpt>
      <trkpt lat="40.8235050" lon="-4.0601500">
        <ele>1570.4</ele>
        <time>2019-04-28T07:47:00Z</time>
      </trkpt>
      <trkpt lat="40.8234750" lon="-4.0601340">
        <ele>1570.6</ele>
        <time>2019-04-28T07:47:01Z</time>
      </trkpt>
      <trkpt lat="40.8234290" lon="-4.0601220">
        <ele>1570.8</ele>
        <time>2019-04-28T07:47:02Z</time>
      </trkpt>
      <trkpt lat="40.8233860" lon="-4.0601170">
        <ele>1571.2</ele>
        <time>2019-04-28T07:47:03Z</time>
      </trkpt>
      <trkpt lat="40.8233480" lon="-4.0601130">
        <ele>1571.6</ele>
        <time>2019-04-28T07:47:04Z</time>
      </trkpt>
      <trkpt lat="40.8232950" lon="-4.0601250">
        <ele>1572.0</ele>
        <time>2019-04-28T07:47:05Z</time>
      </trkpt>
      <trkpt lat="40.8232670" lon="-4.0601200">
        <ele>1572.2</ele>
        <time>2019-04-28T07:47:06Z</time>
      </trkpt>
      <trkpt lat="40.8232350" lon="-4.0601180">
        <ele>1572.4</ele>
        <time>2019-04-28T07:47:07Z</time>
      </trkpt>
      <trkpt lat="40.8232160" lon="-4.0600990">
        <ele>1572.8</ele>
        <time>2019-04-28T07:47:08Z</time>
      </trkpt>
      <trkpt lat="40.8232090" lon="-4.0600840">
        <ele>1573.0</ele>
        <time>2019-04-28T07:47:09Z</time>
      </trkpt>
      <trkpt lat="40.8231830" lon="-4.0600690">
        <ele>1573.4</ele>
        <time>2019-04-28T07:47:10Z</time>
      </trkpt>
      <trkpt lat="40.8231640" lon="-4.0600700">
        <ele>1573.6</ele>
        <time>2019-04-28T07:47:11Z</time>
      </trkpt>
      <trkpt lat="40.8231150" lon="-4.0600640">
        <ele>1573.8</ele>
        <time>2019-04-28T07:47:12Z</time>
      </trkpt>
      <trkpt lat="40.8230790" lon="-4.0600500">
        <ele>1574.2</ele>
        <time>2019-04-28T07:47:13Z</time>
      </trkpt>
      <trkpt lat="40.8230420" lon="-4.0600430">
        <ele>1574.4</ele>
        <time>2019-04-28T07:47:14Z</time>
      </trkpt>
      <trkpt lat="40.8229960" lon="-4.0600300">
        <ele>1574.8</ele>
        <time>2019-04-28T07:47:15Z</time>
      </trkpt>
      <trkpt lat="40.8229690" lon="-4.0600130">
        <ele>1575.0</ele>
        <time>2019-04-28T07:47:16Z</time>
      </trkpt>
      <trkpt lat="40.8229530" lon="-4.0599970">
        <ele>1575.2</ele>
        <time>2019-04-28T07:47:17Z</time>
      </trkpt>
      <trkpt lat="40.8229230" lon="-4.0599940">
        <ele>1575.4</ele>
        <time>2019-04-28T07:47:18Z</time>
      </trkpt>
      <trkpt lat="40.8228930" lon="-4.0599920">
        <ele>1575.6</ele>
        <time>2019-04-28T07:47:19Z</time>
      </trkpt>
      <trkpt lat="40.8228670" lon="-4.0599680">
        <ele>1575.8</ele>
        <time>2019-04-28T07:47:20Z</time>
      </trkpt>
      <trkpt lat="40.8228440" lon="-4.0599490">
        <ele>1576.2</ele>
        <time>2019-04-28T07:47:21Z</time>
      </trkpt>
      <trkpt lat="40.8228080" lon="-4.0599330">
        <ele>1576.6</ele>
        <time>2019-04-28T07:47:22Z</time>
      </trkpt>
      <trkpt lat="40.8227750" lon="-4.0599320">
        <ele>1576.8</ele>
        <time>2019-04-28T07:47:23Z</time>
      </trkpt>
      <trkpt lat="40.8227390" lon="-4.0599230">
        <ele>1577.2</ele>
        <time>2019-04-28T07:47:24Z</time>
      </trkpt>
      <trkpt lat="40.8226930" lon="-4.0599220">
        <ele>1577.4</ele>
        <time>2019-04-28T07:47:25Z</time>
      </trkpt>
      <trkpt lat="40.8226680" lon="-4.0598950">
        <ele>1578.0</ele>
        <time>2019-04-28T07:47:26Z</time>
      </trkpt>
      <trkpt lat="40.8226420" lon="-4.0598760">
        <ele>1578.4</ele>
        <time>2019-04-28T07:47:27Z</time>
      </trkpt>
      <trkpt lat="40.8226450" lon="-4.0598620">
        <ele>1578.6</ele>
        <time>2019-04-28T07:47:28Z</time>
      </trkpt>
      <trkpt lat="40.8226230" lon="-4.0598500">
        <ele>1579.0</ele>
        <time>2019-04-28T07:47:29Z</time>
      </trkpt>
      <trkpt lat="40.8226080" lon="-4.0598320">
        <ele>1579.2</ele>
        <time>2019-04-28T07:47:30Z</time>
      </trkpt>
      <trkpt lat="40.8225780" lon="-4.0598210">
        <ele>1579.4</ele>
        <time>2019-04-28T07:47:31Z</time>
      </trkpt>
      <trkpt lat="40.8225600" lon="-4.0598050">
        <ele>1579.6</ele>
        <time>2019-04-28T07:47:32Z</time>
      </trkpt>
      <trkpt lat="40.8225230" lon="-4.0597900">
        <ele>1579.6</ele>
        <time>2019-04-28T07:47:33Z</time>
      </trkpt>
      <trkpt lat="40.8224990" lon="-4.0597590">
        <ele>1579.8</ele>
        <time>2019-04-28T07:47:34Z</time>
      </trkpt>
      <trkpt lat="40.8224770" lon="-4.0597320">
        <ele>1579.8</ele>
        <time>2019-04-28T07:47:35Z</time>
      </trkpt>
      <trkpt lat="40.8224420" lon="-4.0597020">
        <ele>1579.8</ele>
        <time>2019-04-28T07:47:36Z</time>
      </trkpt>
      <trkpt lat="40.8224130" lon="-4.0596870">
        <ele>1580.0</ele>
        <time>2019-04-28T07:47:37Z</time>
      </trkpt>
      <trkpt lat="40.8223700" lon="-4.0596730">
        <ele>1580.0</ele>
        <time>2019-04-28T07:47:38Z</time>
      </trkpt>
      <trkpt lat="40.8223290" lon="-4.0596440">
        <ele>1580.0</ele>
        <time>2019-04-28T07:47:39Z</time>
      </trkpt>
      <trkpt lat="40.8223000" lon="-4.0596160">
        <ele>1580.0</ele>
        <time>2019-04-28T07:47:40Z</time>
      </trkpt>
      <trkpt lat="40.8222770" lon="-4.0595960">
        <ele>1580.2</ele>
        <time>2019-04-28T07:47:41Z</time>
      </trkpt>
      <trkpt lat="40.8222470" lon="-4.0595660">
        <ele>1580.2</ele>
        <time>2019-04-28T07:47:42Z</time>
      </trkpt>
      <trkpt lat="40.8222230" lon="-4.0595400">
        <ele>1580.2</ele>
        <time>2019-04-28T07:47:43Z</time>
      </trkpt>
      <trkpt lat="40.8221880" lon="-4.0594970">
        <ele>1580.4</ele>
        <time>2019-04-28T07:47:44Z</time>
      </trkpt>
      <trkpt lat="40.8221580" lon="-4.0594700">
        <ele>1580.4</ele>
        <time>2019-04-28T07:47:45Z</time>
      </trkpt>
      <trkpt lat="40.8221090" lon="-4.0594490">
        <ele>1580.4</ele>
        <time>2019-04-28T07:47:46Z</time>
      </trkpt>
      <trkpt lat="40.8220650" lon="-4.0594140">
        <ele>1580.6</ele>
        <time>2019-04-28T07:47:47Z</time>
      </trkpt>
      <trkpt lat="40.8220190" lon="-4.0594000">
        <ele>1580.4</ele>
        <time>2019-04-28T07:47:48Z</time>
      </trkpt>
      <trkpt lat="40.8219950" lon="-4.0593790">
        <ele>1580.4</ele>
        <time>2019-04-28T07:47:49Z</time>
      </trkpt>
      <trkpt lat="40.8219400" lon="-4.0593380">
        <ele>1582.2</ele>
        <time>2019-04-28T07:47:50Z</time>
      </trkpt>
      <trkpt lat="40.8218720" lon="-4.0592780">
        <ele>1582.4</ele>
        <time>2019-04-28T07:47:52Z</time>
      </trkpt>
      <trkpt lat="40.8218530" lon="-4.0592530">
        <ele>1581.4</ele>
        <time>2019-04-28T07:47:53Z</time>
      </trkpt>
      <trkpt lat="40.8218170" lon="-4.0592320">
        <ele>1581.2</ele>
        <time>2019-04-28T07:47:54Z</time>
      </trkpt>
      <trkpt lat="40.8217750" lon="-4.0592000">
        <ele>1581.4</ele>
        <time>2019-04-28T07:47:55Z</time>
      </trkpt>
      <trkpt lat="40.8217430" lon="-4.0591660">
        <ele>1581.4</ele>
        <time>2019-04-28T07:47:56Z</time>
      </trkpt>
      <trkpt lat="40.8217130" lon="-4.0591320">
        <ele>1581.2</ele>
        <time>2019-04-28T07:47:57Z</time>
      </trkpt>
      <trkpt lat="40.8216300" lon="-4.0590410">
        <ele>1582.4</ele>
        <time>2019-04-28T07:47:59Z</time>
      </trkpt>
      <trkpt lat="40.8215990" lon="-4.0589980">
        <ele>1581.6</ele>
        <time>2019-04-28T07:48:00Z</time>
      </trkpt>
      <trkpt lat="40.8215450" lon="-4.0589490">
        <ele>1581.8</ele>
        <time>2019-04-28T07:48:01Z</time>
      </trkpt>
      <trkpt lat="40.8215310" lon="-4.0589110">
        <ele>1580.8</ele>
        <time>2019-04-28T07:48:02Z</time>
      </trkpt>
      <trkpt lat="40.8214930" lon="-4.0588730">
        <ele>1580.8</ele>
        <time>2019-04-28T07:48:03Z</time>
      </trkpt>
      <trkpt lat="40.8214580" lon="-4.0588280">
        <ele>1582.4</ele>
        <time>2019-04-28T07:48:04Z</time>
      </trkpt>
      <trkpt lat="40.8214390" lon="-4.0587820">
        <ele>1583.0</ele>
        <time>2019-04-28T07:48:05Z</time>
      </trkpt>
      <trkpt lat="40.8214160" lon="-4.0587470">
        <ele>1582.8</ele>
        <time>2019-04-28T07:48:06Z</time>
      </trkpt>
      <trkpt lat="40.8213570" lon="-4.0587030">
        <ele>1582.8</ele>
        <time>2019-04-28T07:48:07Z</time>
      </trkpt>
      <trkpt lat="40.8213230" lon="-4.0586580">
        <ele>1582.6</ele>
        <time>2019-04-28T07:48:08Z</time>
      </trkpt>
      <trkpt lat="40.8213000" lon="-4.0586150">
        <ele>1583.0</ele>
        <time>2019-04-28T07:48:09Z</time>
      </trkpt>
      <trkpt lat="40.8212650" lon="-4.0585690">
        <ele>1582.8</ele>
        <time>2019-04-28T07:48:10Z</time>
      </trkpt>
      <trkpt lat="40.8212470" lon="-4.0585310">
        <ele>1583.0</ele>
        <time>2019-04-28T07:48:11Z</time>
      </trkpt>
      <trkpt lat="40.8212270" lon="-4.0584850">
        <ele>1583.2</ele>
        <time>2019-04-28T07:48:12Z</time>
      </trkpt>
      <trkpt lat="40.8211990" lon="-4.0584370">
        <ele>1583.4</ele>
        <time>2019-04-28T07:48:13Z</time>
      </trkpt>
      <trkpt lat="40.8211690" lon="-4.0583900">
        <ele>1583.4</ele>
        <time>2019-04-28T07:48:14Z</time>
      </trkpt>
      <trkpt lat="40.8211300" lon="-4.0583440">
        <ele>1583.4</ele>
        <time>2019-04-28T07:48:15Z</time>
      </trkpt>
      <trkpt lat="40.8210990" lon="-4.0582980">
        <ele>1583.2</ele>
        <time>2019-04-28T07:48:16Z</time>
      </trkpt>
      <trkpt lat="40.8210720" lon="-4.0582550">
        <ele>1584.0</ele>
        <time>2019-04-28T07:48:17Z</time>
      </trkpt>
      <trkpt lat="40.8210450" lon="-4.0582080">
        <ele>1583.6</ele>
        <time>2019-04-28T07:48:18Z</time>
      </trkpt>
      <trkpt lat="40.8210190" lon="-4.0581630">
        <ele>1583.8</ele>
        <time>2019-04-28T07:48:19Z</time>
      </trkpt>
      <trkpt lat="40.8209900" lon="-4.0581160">
        <ele>1583.6</ele>
        <time>2019-04-28T07:48:20Z</time>
      </trkpt>
      <trkpt lat="40.8209660" lon="-4.0580730">
        <ele>1584.6</ele>
        <time>2019-04-28T07:48:21Z</time>
      </trkpt>
      <trkpt lat="40.8209340" lon="-4.0580330">
        <ele>1584.4</ele>
        <time>2019-04-28T07:48:22Z</time>
      </trkpt>
      <trkpt lat="40.8209070" lon="-4.0579950">
        <ele>1584.4</ele>
        <time>2019-04-28T07:48:23Z</time>
      </trkpt>
      <trkpt lat="40.8208820" lon="-4.0579520">
        <ele>1584.4</ele>
        <time>2019-04-28T07:48:24Z</time>
      </trkpt>
      <trkpt lat="40.8208510" lon="-4.0579090">
        <ele>1584.6</ele>
        <time>2019-04-28T07:48:25Z</time>
      </trkpt>
      <trkpt lat="40.8208360" lon="-4.0578660">
        <ele>1584.4</ele>
        <time>2019-04-28T07:48:26Z</time>
      </trkpt>
      <trkpt lat="40.8208080" lon="-4.0578270">
        <ele>1584.2</ele>
        <time>2019-04-28T07:48:27Z</time>
      </trkpt>
      <trkpt lat="40.8207810" lon="-4.0577830">
        <ele>1584.2</ele>
        <time>2019-04-28T07:48:28Z</time>
      </trkpt>
      <trkpt lat="40.8207530" lon="-4.0577440">
        <ele>1585.2</ele>
        <time>2019-04-28T07:48:29Z</time>
      </trkpt>
      <trkpt lat="40.8207130" lon="-4.0577110">
        <ele>1584.4</ele>
        <time>2019-04-28T07:48:30Z</time>
      </trkpt>
      <trkpt lat="40.8206990" lon="-4.0576800">
        <ele>1584.0</ele>
        <time>2019-04-28T07:48:31Z</time>
      </trkpt>
      <trkpt lat="40.8206560" lon="-4.0576220">
        <ele>1585.0</ele>
        <time>2019-04-28T07:48:33Z</time>
      </trkpt>
      <trkpt lat="40.8206400" lon="-4.0576030">
        <ele>1585.0</ele>
        <time>2019-04-28T07:48:34Z</time>
      </trkpt>
      <trkpt lat="40.8206160" lon="-4.0575680">
        <ele>1587.0</ele>
        <time>2019-04-28T07:48:35Z</time>
      </trkpt>
      <trkpt lat="40.8205860" lon="-4.0575340">
        <ele>1586.6</ele>
        <time>2019-04-28T07:48:36Z</time>
      </trkpt>
      <trkpt lat="40.8205610" lon="-4.0574980">
        <ele>1586.2</ele>
        <time>2019-04-28T07:48:37Z</time>
      </trkpt>
      <trkpt lat="40.8205390" lon="-4.0574600">
        <ele>1586.6</ele>
        <time>2019-04-28T07:48:38Z</time>
      </trkpt>
      <trkpt lat="40.8205170" lon="-4.0574300">
        <ele>1586.8</ele>
        <time>2019-04-28T07:48:39Z</time>
      </trkpt>
      <trkpt lat="40.8205070" lon="-4.0574030">
        <ele>1587.0</ele>
        <time>2019-04-28T07:48:40Z</time>
      </trkpt>
      <trkpt lat="40.8204980" lon="-4.0573770">
        <ele>1587.0</ele>
        <time>2019-04-28T07:48:41Z</time>
      </trkpt>
      <trkpt lat="40.8204710" lon="-4.0573500">
        <ele>1587.4</ele>
        <time>2019-04-28T07:48:42Z</time>
      </trkpt>
      <trkpt lat="40.8204560" lon="-4.0573150">
        <ele>1587.4</ele>
        <time>2019-04-28T07:48:43Z</time>
      </trkpt>
      <trkpt lat="40.8204410" lon="-4.0572830">
        <ele>1587.6</ele>
        <time>2019-04-28T07:48:44Z</time>
      </trkpt>
      <trkpt lat="40.8204170" lon="-4.0572490">
        <ele>1587.8</ele>
        <time>2019-04-28T07:48:45Z</time>
      </trkpt>
      <trkpt lat="40.8203890" lon="-4.0572210">
        <ele>1588.0</ele>
        <time>2019-04-28T07:48:46Z</time>
      </trkpt>
      <trkpt lat="40.8203580" lon="-4.0571800">
        <ele>1588.2</ele>
        <time>2019-04-28T07:48:47Z</time>
      </trkpt>
      <trkpt lat="40.8203300" lon="-4.0571500">
        <ele>1588.4</ele>
        <time>2019-04-28T07:48:48Z</time>
      </trkpt>
      <trkpt lat="40.8203170" lon="-4.0571190">
        <ele>1588.6</ele>
        <time>2019-04-28T07:48:49Z</time>
      </trkpt>
      <trkpt lat="40.8203020" lon="-4.0570920">
        <ele>1588.8</ele>
        <time>2019-04-28T07:48:50Z</time>
      </trkpt>
      <trkpt lat="40.8202890" lon="-4.0570600">
        <ele>1589.0</ele>
        <time>2019-04-28T07:48:51Z</time>
      </trkpt>
      <trkpt lat="40.8202700" lon="-4.0570350">
        <ele>1589.2</ele>
        <time>2019-04-28T07:48:52Z</time>
      </trkpt>
      <trkpt lat="40.8202500" lon="-4.0570130">
        <ele>1589.2</ele>
        <time>2019-04-28T07:48:53Z</time>
      </trkpt>
      <trkpt lat="40.8202350" lon="-4.0569890">
        <ele>1589.4</ele>
        <time>2019-04-28T07:48:54Z</time>
      </trkpt>
      <trkpt lat="40.8202160" lon="-4.0569630">
        <ele>1589.6</ele>
        <time>2019-04-28T07:48:55Z</time>
      </trkpt>
      <trkpt lat="40.8201970" lon="-4.0569280">
        <ele>1589.8</ele>
        <time>2019-04-28T07:48:56Z</time>
      </trkpt>
      <trkpt lat="40.8201800" lon="-4.0568980">
        <ele>1590.0</ele>
        <time>2019-04-28T07:48:57Z</time>
      </trkpt>
      <trkpt lat="40.8201600" lon="-4.0568600">
        <ele>1590.0</ele>
        <time>2019-04-28T07:48:58Z</time>
      </trkpt>
      <trkpt lat="40.8201530" lon="-4.0568410">
        <ele>1590.2</ele>
        <time>2019-04-28T07:48:59Z</time>
      </trkpt>
      <trkpt lat="40.8201390" lon="-4.0568180">
        <ele>1590.4</ele>
        <time>2019-04-28T07:49:00Z</time>
      </trkpt>
      <trkpt lat="40.8201250" lon="-4.0567940">
        <ele>1590.4</ele>
        <time>2019-04-28T07:49:01Z</time>
      </trkpt>
      <trkpt lat="40.8201180" lon="-4.0567460">
        <ele>1590.6</ele>
        <time>2019-04-28T07:49:02Z</time>
      </trkpt>
      <trkpt lat="40.8200840" lon="-4.0567050">
        <ele>1590.8</ele>
        <time>2019-04-28T07:49:03Z</time>
      </trkpt>
      <trkpt lat="40.8200710" lon="-4.0566720">
        <ele>1590.8</ele>
        <time>2019-04-28T07:49:04Z</time>
      </trkpt>
      <trkpt lat="40.8200460" lon="-4.0566290">
        <ele>1591.0</ele>
        <time>2019-04-28T07:49:05Z</time>
      </trkpt>
      <trkpt lat="40.8200330" lon="-4.0565950">
        <ele>1591.2</ele>
        <time>2019-04-28T07:49:06Z</time>
      </trkpt>
      <trkpt lat="40.8200300" lon="-4.0565550">
        <ele>1591.4</ele>
        <time>2019-04-28T07:49:07Z</time>
      </trkpt>
      <trkpt lat="40.8200210" lon="-4.0565150">
        <ele>1591.6</ele>
        <time>2019-04-28T07:49:08Z</time>
      </trkpt>
      <trkpt lat="40.8199930" lon="-4.0564740">
        <ele>1591.8</ele>
        <time>2019-04-28T07:49:09Z</time>
      </trkpt>
      <trkpt lat="40.8199780" lon="-4.0564400">
        <ele>1591.8</ele>
        <time>2019-04-28T07:49:10Z</time>
      </trkpt>
      <trkpt lat="40.8199680" lon="-4.0564090">
        <ele>1592.0</ele>
        <time>2019-04-28T07:49:11Z</time>
      </trkpt>
      <trkpt lat="40.8199480" lon="-4.0563720">
        <ele>1592.4</ele>
        <time>2019-04-28T07:49:12Z</time>
      </trkpt>
      <trkpt lat="40.8199280" lon="-4.0563380">
        <ele>1592.6</ele>
        <time>2019-04-28T07:49:13Z</time>
      </trkpt>
      <trkpt lat="40.8198980" lon="-4.0562940">
        <ele>1592.8</ele>
        <time>2019-04-28T07:49:14Z</time>
      </trkpt>
      <trkpt lat="40.8199110" lon="-4.0562680">
        <ele>1593.0</ele>
        <time>2019-04-28T07:49:15Z</time>
      </trkpt>
      <trkpt lat="40.8198930" lon="-4.0562300">
        <ele>1593.2</ele>
        <time>2019-04-28T07:49:16Z</time>
      </trkpt>
      <trkpt lat="40.8198810" lon="-4.0561970">
        <ele>1593.4</ele>
        <time>2019-04-28T07:49:17Z</time>
      </trkpt>
      <trkpt lat="40.8198680" lon="-4.0561650">
        <ele>1593.6</ele>
        <time>2019-04-28T07:49:18Z</time>
      </trkpt>
      <trkpt lat="40.8198500" lon="-4.0561260">
        <ele>1594.0</ele>
        <time>2019-04-28T07:49:19Z</time>
      </trkpt>
      <trkpt lat="40.8198370" lon="-4.0560980">
        <ele>1594.2</ele>
        <time>2019-04-28T07:49:20Z</time>
      </trkpt>
      <trkpt lat="40.8198170" lon="-4.0560540">
        <ele>1594.4</ele>
        <time>2019-04-28T07:49:21Z</time>
      </trkpt>
      <trkpt lat="40.8198130" lon="-4.0560310">
        <ele>1594.6</ele>
        <time>2019-04-28T07:49:22Z</time>
      </trkpt>
      <trkpt lat="40.8197890" lon="-4.0560000">
        <ele>1594.8</ele>
        <time>2019-04-28T07:49:23Z</time>
      </trkpt>
      <trkpt lat="40.8197630" lon="-4.0559580">
        <ele>1595.2</ele>
        <time>2019-04-28T07:49:24Z</time>
      </trkpt>
      <trkpt lat="40.8197440" lon="-4.0559250">
        <ele>1595.4</ele>
        <time>2019-04-28T07:49:25Z</time>
      </trkpt>
      <trkpt lat="40.8197340" lon="-4.0558880">
        <ele>1595.6</ele>
        <time>2019-04-28T07:49:26Z</time>
      </trkpt>
      <trkpt lat="40.8197260" lon="-4.0558540">
        <ele>1595.8</ele>
        <time>2019-04-28T07:49:27Z</time>
      </trkpt>
      <trkpt lat="40.8197090" lon="-4.0558260">
        <ele>1596.0</ele>
        <time>2019-04-28T07:49:28Z</time>
      </trkpt>
      <trkpt lat="40.8196940" lon="-4.0557980">
        <ele>1596.4</ele>
        <time>2019-04-28T07:49:29Z</time>
      </trkpt>
      <trkpt lat="40.8196720" lon="-4.0557740">
        <ele>1596.6</ele>
        <time>2019-04-28T07:49:30Z</time>
      </trkpt>
      <trkpt lat="40.8196660" lon="-4.0557500">
        <ele>1596.8</ele>
        <time>2019-04-28T07:49:31Z</time>
      </trkpt>
      <trkpt lat="40.8196480" lon="-4.0557270">
        <ele>1597.2</ele>
        <time>2019-04-28T07:49:32Z</time>
      </trkpt>
      <trkpt lat="40.8196360" lon="-4.0557030">
        <ele>1597.4</ele>
        <time>2019-04-28T07:49:33Z</time>
      </trkpt>
      <trkpt lat="40.8196260" lon="-4.0556710">
        <ele>1597.8</ele>
        <time>2019-04-28T07:49:34Z</time>
      </trkpt>
      <trkpt lat="40.8196170" lon="-4.0556440">
        <ele>1598.0</ele>
        <time>2019-04-28T07:49:35Z</time>
      </trkpt>
      <trkpt lat="40.8196010" lon="-4.0556160">
        <ele>1598.4</ele>
        <time>2019-04-28T07:49:36Z</time>
      </trkpt>
      <trkpt lat="40.8195910" lon="-4.0555860">
        <ele>1598.6</ele>
        <time>2019-04-28T07:49:37Z</time>
      </trkpt>
      <trkpt lat="40.8195780" lon="-4.0555580">
        <ele>1598.8</ele>
        <time>2019-04-28T07:49:38Z</time>
      </trkpt>
      <trkpt lat="40.8195700" lon="-4.0555260">
        <ele>1599.0</ele>
        <time>2019-04-28T07:49:39Z</time>
      </trkpt>
      <trkpt lat="40.8195620" lon="-4.0554880">
        <ele>1599.4</ele>
        <time>2019-04-28T07:49:40Z</time>
      </trkpt>
      <trkpt lat="40.8195480" lon="-4.0554550">
        <ele>1599.6</ele>
        <time>2019-04-28T07:49:41Z</time>
      </trkpt>
      <trkpt lat="40.8195400" lon="-4.0554190">
        <ele>1599.8</ele>
        <time>2019-04-28T07:49:42Z</time>
      </trkpt>
      <trkpt lat="40.8195400" lon="-4.0553830">
        <ele>1600.0</ele>
        <time>2019-04-28T07:49:43Z</time>
      </trkpt>
      <trkpt lat="40.8195300" lon="-4.0553320">
        <ele>1600.2</ele>
        <time>2019-04-28T07:49:44Z</time>
      </trkpt>
      <trkpt lat="40.8195160" lon="-4.0552950">
        <ele>1600.4</ele>
        <time>2019-04-28T07:49:45Z</time>
      </trkpt>
      <trkpt lat="40.8195140" lon="-4.0552610">
        <ele>1600.6</ele>
        <time>2019-04-28T07:49:46Z</time>
      </trkpt>
      <trkpt lat="40.8195060" lon="-4.0552270">
        <ele>1600.8</ele>
        <time>2019-04-28T07:49:47Z</time>
      </trkpt>
      <trkpt lat="40.8195030" lon="-4.0551920">
        <ele>1601.0</ele>
        <time>2019-04-28T07:49:48Z</time>
      </trkpt>
      <trkpt lat="40.8194980" lon="-4.0551530">
        <ele>1601.2</ele>
        <time>2019-04-28T07:49:49Z</time>
      </trkpt>
      <trkpt lat="40.8195020" lon="-4.0551090">
        <ele>1601.4</ele>
        <time>2019-04-28T07:49:50Z</time>
      </trkpt>
      <trkpt lat="40.8194960" lon="-4.0550770">
        <ele>1601.6</ele>
        <time>2019-04-28T07:49:51Z</time>
      </trkpt>
      <trkpt lat="40.8194810" lon="-4.0550460">
        <ele>1601.8</ele>
        <time>2019-04-28T07:49:52Z</time>
      </trkpt>
      <trkpt lat="40.8194660" lon="-4.0550160">
        <ele>1601.8</ele>
        <time>2019-04-28T07:49:53Z</time>
      </trkpt>
      <trkpt lat="40.8194640" lon="-4.0549760">
        <ele>1602.0</ele>
        <time>2019-04-28T07:49:54Z</time>
      </trkpt>
      <trkpt lat="40.8194610" lon="-4.0549390">
        <ele>1602.2</ele>
        <time>2019-04-28T07:49:55Z</time>
      </trkpt>
      <trkpt lat="40.8194560" lon="-4.0549020">
        <ele>1602.4</ele>
        <time>2019-04-28T07:49:56Z</time>
      </trkpt>
      <trkpt lat="40.8194380" lon="-4.0548340">
        <ele>1602.4</ele>
        <time>2019-04-28T07:49:58Z</time>
      </trkpt>
      <trkpt lat="40.8194380" lon="-4.0548050">
        <ele>1603.0</ele>
        <time>2019-04-28T07:49:59Z</time>
      </trkpt>
      <trkpt lat="40.8194390" lon="-4.0547760">
        <ele>1602.4</ele>
        <time>2019-04-28T07:50:00Z</time>
      </trkpt>
      <trkpt lat="40.8194380" lon="-4.0547360">
        <ele>1602.4</ele>
        <time>2019-04-28T07:50:01Z</time>
      </trkpt>
      <trkpt lat="40.8194280" lon="-4.0546950">
        <ele>1604.4</ele>
        <time>2019-04-28T07:50:02Z</time>
      </trkpt>
      <trkpt lat="40.8194180" lon="-4.0546630">
        <ele>1604.2</ele>
        <time>2019-04-28T07:50:03Z</time>
      </trkpt>
      <trkpt lat="40.8194250" lon="-4.0546340">
        <ele>1604.2</ele>
        <time>2019-04-28T07:50:04Z</time>
      </trkpt>
      <trkpt lat="40.8194220" lon="-4.0546040">
        <ele>1604.6</ele>
        <time>2019-04-28T07:50:05Z</time>
      </trkpt>
      <trkpt lat="40.8194210" lon="-4.0545820">
        <ele>1604.8</ele>
        <time>2019-04-28T07:50:06Z</time>
      </trkpt>
      <trkpt lat="40.8194190" lon="-4.0545640">
        <ele>1605.0</ele>
        <time>2019-04-28T07:50:07Z</time>
      </trkpt>
      <trkpt lat="40.8194120" lon="-4.0545510">
        <ele>1605.4</ele>
        <time>2019-04-28T07:50:08Z</time>
      </trkpt>
      <trkpt lat="40.8193960" lon="-4.0545310">
        <ele>1605.6</ele>
        <time>2019-04-28T07:50:09Z</time>
      </trkpt>
      <trkpt lat="40.8193930" lon="-4.0544960">
        <ele>1606.0</ele>
        <time>2019-04-28T07:50:10Z</time>
      </trkpt>
      <trkpt lat="40.8193890" lon="-4.0544650">
        <ele>1606.4</ele>
        <time>2019-04-28T07:50:11Z</time>
      </trkpt>
      <trkpt lat="40.8193810" lon="-4.0544350">
        <ele>1606.6</ele>
        <time>2019-04-28T07:50:12Z</time>
      </trkpt>
      <trkpt lat="40.8193770" lon="-4.0543950">
        <ele>1607.0</ele>
        <time>2019-04-28T07:50:13Z</time>
      </trkpt>
      <trkpt lat="40.8193670" lon="-4.0543590">
        <ele>1607.2</ele>
        <time>2019-04-28T07:50:14Z</time>
      </trkpt>
      <trkpt lat="40.8193580" lon="-4.0543240">
        <ele>1607.4</ele>
        <time>2019-04-28T07:50:15Z</time>
      </trkpt>
      <trkpt lat="40.8193490" lon="-4.0542950">
        <ele>1607.8</ele>
        <time>2019-04-28T07:50:16Z</time>
      </trkpt>
      <trkpt lat="40.8193380" lon="-4.0542690">
        <ele>1608.2</ele>
        <time>2019-04-28T07:50:17Z</time>
      </trkpt>
      <trkpt lat="40.8193200" lon="-4.0542320">
        <ele>1608.4</ele>
        <time>2019-04-28T07:50:18Z</time>
      </trkpt>
      <trkpt lat="40.8193110" lon="-4.0541960">
        <ele>1608.6</ele>
        <time>2019-04-28T07:50:19Z</time>
      </trkpt>
      <trkpt lat="40.8193090" lon="-4.0541570">
        <ele>1609.0</ele>
        <time>2019-04-28T07:50:20Z</time>
      </trkpt>
      <trkpt lat="40.8193100" lon="-4.0541180">
        <ele>1609.4</ele>
        <time>2019-04-28T07:50:21Z</time>
      </trkpt>
      <trkpt lat="40.8193160" lon="-4.0540840">
        <ele>1609.6</ele>
        <time>2019-04-28T07:50:22Z</time>
      </trkpt>
      <trkpt lat="40.8193230" lon="-4.0540490">
        <ele>1610.0</ele>
        <time>2019-04-28T07:50:23Z</time>
      </trkpt>
      <trkpt lat="40.8193180" lon="-4.0540170">
        <ele>1610.2</ele>
        <time>2019-04-28T07:50:24Z</time>
      </trkpt>
      <trkpt lat="40.8193120" lon="-4.0539940">
        <ele>1610.4</ele>
        <time>2019-04-28T07:50:25Z</time>
      </trkpt>
      <trkpt lat="40.8193150" lon="-4.0539670">
        <ele>1610.8</ele>
        <time>2019-04-28T07:50:26Z</time>
      </trkpt>
      <trkpt lat="40.8193180" lon="-4.0539360">
        <ele>1611.0</ele>
        <time>2019-04-28T07:50:27Z</time>
      </trkpt>
      <trkpt lat="40.8193130" lon="-4.0539030">
        <ele>1611.2</ele>
        <time>2019-04-28T07:50:28Z</time>
      </trkpt>
      <trkpt lat="40.8193120" lon="-4.0538800">
        <ele>1611.2</ele>
        <time>2019-04-28T07:50:29Z</time>
      </trkpt>
      <trkpt lat="40.8193060" lon="-4.0538500">
        <ele>1611.4</ele>
        <time>2019-04-28T07:50:30Z</time>
      </trkpt>
      <trkpt lat="40.8193160" lon="-4.0538180">
        <ele>1611.6</ele>
        <time>2019-04-28T07:50:31Z</time>
      </trkpt>
      <trkpt lat="40.8193140" lon="-4.0537930">
        <ele>1611.8</ele>
        <time>2019-04-28T07:50:32Z</time>
      </trkpt>
      <trkpt lat="40.8193210" lon="-4.0537650">
        <ele>1612.0</ele>
        <time>2019-04-28T07:50:33Z</time>
      </trkpt>
      <trkpt lat="40.8193250" lon="-4.0537310">
        <ele>1612.0</ele>
        <time>2019-04-28T07:50:34Z</time>
      </trkpt>
      <trkpt lat="40.8193370" lon="-4.0536970">
        <ele>1612.2</ele>
        <time>2019-04-28T07:50:35Z</time>
      </trkpt>
      <trkpt lat="40.8193490" lon="-4.0536650">
        <ele>1612.4</ele>
        <time>2019-04-28T07:50:36Z</time>
      </trkpt>
      <trkpt lat="40.8193510" lon="-4.0536360">
        <ele>1612.4</ele>
        <time>2019-04-28T07:50:37Z</time>
      </trkpt>
      <trkpt lat="40.8193510" lon="-4.0536070">
        <ele>1612.6</ele>
        <time>2019-04-28T07:50:38Z</time>
      </trkpt>
      <trkpt lat="40.8193490" lon="-4.0535790">
        <ele>1612.8</ele>
        <time>2019-04-28T07:50:39Z</time>
      </trkpt>
      <trkpt lat="40.8193550" lon="-4.0535680">
        <ele>1613.0</ele>
        <time>2019-04-28T07:50:40Z</time>
      </trkpt>
      <trkpt lat="40.8193500" lon="-4.0535390">
        <ele>1613.2</ele>
        <time>2019-04-28T07:50:41Z</time>
      </trkpt>
      <trkpt lat="40.8193470" lon="-4.0535200">
        <ele>1613.6</ele>
        <time>2019-04-28T07:50:42Z</time>
      </trkpt>
      <trkpt lat="40.8193410" lon="-4.0534910">
        <ele>1613.8</ele>
        <time>2019-04-28T07:50:43Z</time>
      </trkpt>
      <trkpt lat="40.8193490" lon="-4.0534600">
        <ele>1614.0</ele>
        <time>2019-04-28T07:50:44Z</time>
      </trkpt>
      <trkpt lat="40.8193590" lon="-4.0534310">
        <ele>1614.2</ele>
        <time>2019-04-28T07:50:45Z</time>
      </trkpt>
      <trkpt lat="40.8193570" lon="-4.0534050">
        <ele>1614.6</ele>
        <time>2019-04-28T07:50:46Z</time>
      </trkpt>
      <trkpt lat="40.8193490" lon="-4.0533750">
        <ele>1614.8</ele>
        <time>2019-04-28T07:50:47Z</time>
      </trkpt>
      <trkpt lat="40.8193500" lon="-4.0533350">
        <ele>1615.2</ele>
        <time>2019-04-28T07:50:48Z</time>
      </trkpt>
      <trkpt lat="40.8193470" lon="-4.0533040">
        <ele>1615.6</ele>
        <time>2019-04-28T07:50:49Z</time>
      </trkpt>
      <trkpt lat="40.8193680" lon="-4.0532510">
        <ele>1615.8</ele>
        <time>2019-04-28T07:50:51Z</time>
      </trkpt>
      <trkpt lat="40.8193780" lon="-4.0532230">
        <ele>1616.4</ele>
        <time>2019-04-28T07:50:52Z</time>
      </trkpt>
      <trkpt lat="40.8193770" lon="-4.0531910">
        <ele>1616.6</ele>
        <time>2019-04-28T07:50:54Z</time>
      </trkpt>
      <trkpt lat="40.8193930" lon="-4.0531550">
        <ele>1617.0</ele>
        <time>2019-04-28T07:50:55Z</time>
      </trkpt>
      <trkpt lat="40.8193960" lon="-4.0531220">
        <ele>1617.2</ele>
        <time>2019-04-28T07:50:56Z</time>
      </trkpt>
      <trkpt lat="40.8193830" lon="-4.0530940">
        <ele>1617.6</ele>
        <time>2019-04-28T07:50:57Z</time>
      </trkpt>
      <trkpt lat="40.8193650" lon="-4.0530690">
        <ele>1617.8</ele>
        <time>2019-04-28T07:50:58Z</time>
      </trkpt>
      <trkpt lat="40.8193680" lon="-4.0530110">
        <ele>1618.4</ele>
        <time>2019-04-28T07:51:00Z</time>
      </trkpt>
      <trkpt lat="40.8193690" lon="-4.0529820">
        <ele>1618.6</ele>
        <time>2019-04-28T07:51:01Z</time>
      </trkpt>
      <trkpt lat="40.8193700" lon="-4.0529570">
        <ele>1619.0</ele>
        <time>2019-04-28T07:51:02Z</time>
      </trkpt>
      <trkpt lat="40.8193870" lon="-4.0528980">
        <ele>1619.4</ele>
        <time>2019-04-28T07:51:04Z</time>
      </trkpt>
      <trkpt lat="40.8194040" lon="-4.0528280">
        <ele>1619.6</ele>
        <time>2019-04-28T07:51:06Z</time>
      </trkpt>
      <trkpt lat="40.8194300" lon="-4.0527740">
        <ele>1619.6</ele>
        <time>2019-04-28T07:51:08Z</time>
      </trkpt>
      <trkpt lat="40.8194540" lon="-4.0527380">
        <ele>1619.8</ele>
        <time>2019-04-28T07:51:10Z</time>
      </trkpt>
      <trkpt lat="40.8194640" lon="-4.0527080">
        <ele>1619.8</ele>
        <time>2019-04-28T07:51:12Z</time>
      </trkpt>
      <trkpt lat="40.8194940" lon="-4.0526700">
        <ele>1619.8</ele>
        <time>2019-04-28T07:51:14Z</time>
      </trkpt>
      <trkpt lat="40.8195320" lon="-4.0526400">
        <ele>1619.8</ele>
        <time>2019-04-28T07:51:16Z</time>
      </trkpt>
      <trkpt lat="40.8195410" lon="-4.0526270">
        <ele>1619.8</ele>
        <time>2019-04-28T07:51:18Z</time>
      </trkpt>
      <trkpt lat="40.8195650" lon="-4.0526140">
        <ele>1619.6</ele>
        <time>2019-04-28T07:51:20Z</time>
      </trkpt>
      <trkpt lat="40.8195730" lon="-4.0526100">
        <ele>1618.4</ele>
        <time>2019-04-28T07:51:22Z</time>
      </trkpt>
      <trkpt lat="40.8195820" lon="-4.0526080">
        <ele>1618.4</ele>
        <time>2019-04-28T07:51:23Z</time>
      </trkpt>
      <trkpt lat="40.8195830" lon="-4.0526060">
        <ele>1620.2</ele>
        <time>2019-04-28T07:51:24Z</time>
      </trkpt>
      <trkpt lat="40.8195520" lon="-4.0525430">
        <ele>1619.6</ele>
        <time>2019-04-28T07:51:40Z</time>
      </trkpt>
      <trkpt lat="40.8195510" lon="-4.0525410">
        <ele>1619.6</ele>
        <time>2019-04-28T07:51:41Z</time>
      </trkpt>
      <trkpt lat="40.8195490" lon="-4.0525370">
        <ele>1619.6</ele>
        <time>2019-04-28T07:51:42Z</time>
      </trkpt>
      <trkpt lat="40.8195470" lon="-4.0525350">
        <ele>1619.6</ele>
        <time>2019-04-28T07:51:43Z</time>
      </trkpt>
      <trkpt lat="40.8195460" lon="-4.0525290">
        <ele>1619.6</ele>
        <time>2019-04-28T07:51:44Z</time>
      </trkpt>
      <trkpt lat="40.8195410" lon="-4.0525190">
        <ele>1619.6</ele>
        <time>2019-04-28T07:51:45Z</time>
      </trkpt>
      <trkpt lat="40.8195430" lon="-4.0525050">
        <ele>1619.6</ele>
        <time>2019-04-28T07:51:46Z</time>
      </trkpt>
      <trkpt lat="40.8195370" lon="-4.0524940">
        <ele>1619.6</ele>
        <time>2019-04-28T07:51:47Z</time>
      </trkpt>
      <trkpt lat="40.8195370" lon="-4.0524800">
        <ele>1619.6</ele>
        <time>2019-04-28T07:51:48Z</time>
      </trkpt>
      <trkpt lat="40.8195360" lon="-4.0524660">
        <ele>1619.6</ele>
        <time>2019-04-28T07:51:49Z</time>
      </trkpt>
      <trkpt lat="40.8195320" lon="-4.0524520">
        <ele>1619.8</ele>
        <time>2019-04-28T07:51:50Z</time>
      </trkpt>
      <trkpt lat="40.8195290" lon="-4.0524350">
        <ele>1619.8</ele>
        <time>2019-04-28T07:51:51Z</time>
      </trkpt>
      <trkpt lat="40.8195260" lon="-4.0524190">
        <ele>1619.8</ele>
        <time>2019-04-28T07:51:52Z</time>
      </trkpt>
      <trkpt lat="40.8195240" lon="-4.0524000">
        <ele>1619.8</ele>
        <time>2019-04-28T07:51:53Z</time>
      </trkpt>
      <trkpt lat="40.8195220" lon="-4.0523790">
        <ele>1619.8</ele>
        <time>2019-04-28T07:51:54Z</time>
      </trkpt>
      <trkpt lat="40.8195130" lon="-4.0523600">
        <ele>1619.8</ele>
        <time>2019-04-28T07:51:55Z</time>
      </trkpt>
      <trkpt lat="40.8195080" lon="-4.0523410">
        <ele>1619.8</ele>
        <time>2019-04-28T07:51:56Z</time>
      </trkpt>
      <trkpt lat="40.8194950" lon="-4.0523260">
        <ele>1619.8</ele>
        <time>2019-04-28T07:51:57Z</time>
      </trkpt>
      <trkpt lat="40.8194810" lon="-4.0523110">
        <ele>1619.8</ele>
        <time>2019-04-28T07:51:58Z</time>
      </trkpt>
      <trkpt lat="40.8194720" lon="-4.0523030">
        <ele>1619.8</ele>
        <time>2019-04-28T07:51:59Z</time>
      </trkpt>
      <trkpt lat="40.8194560" lon="-4.0522950">
        <ele>1619.8</ele>
        <time>2019-04-28T07:52:00Z</time>
      </trkpt>
      <trkpt lat="40.8194410" lon="-4.0522880">
        <ele>1619.8</ele>
        <time>2019-04-28T07:52:01Z</time>
      </trkpt>
      <trkpt lat="40.8194260" lon="-4.0522820">
        <ele>1619.8</ele>
        <time>2019-04-28T07:52:02Z</time>
      </trkpt>
      <trkpt lat="40.8194060" lon="-4.0522780">
        <ele>1619.8</ele>
        <time>2019-04-28T07:52:03Z</time>
      </trkpt>
      <trkpt lat="40.8193890" lon="-4.0522770">
        <ele>1619.6</ele>
        <time>2019-04-28T07:52:04Z</time>
      </trkpt>
      <trkpt lat="40.8193710" lon="-4.0522790">
        <ele>1619.6</ele>
        <time>2019-04-28T07:52:05Z</time>
      </trkpt>
      <trkpt lat="40.8193520" lon="-4.0522840">
        <ele>1619.6</ele>
        <time>2019-04-28T07:52:06Z</time>
      </trkpt>
      <trkpt lat="40.8193340" lon="-4.0522900">
        <ele>1619.6</ele>
        <time>2019-04-28T07:52:07Z</time>
      </trkpt>
      <trkpt lat="40.8193120" lon="-4.0522970">
        <ele>1619.4</ele>
        <time>2019-04-28T07:52:08Z</time>
      </trkpt>
      <trkpt lat="40.8192900" lon="-4.0523090">
        <ele>1619.4</ele>
        <time>2019-04-28T07:52:09Z</time>
      </trkpt>
      <trkpt lat="40.8192670" lon="-4.0523230">
        <ele>1619.2</ele>
        <time>2019-04-28T07:52:10Z</time>
      </trkpt>
      <trkpt lat="40.8192390" lon="-4.0523380">
        <ele>1619.2</ele>
        <time>2019-04-28T07:52:11Z</time>
      </trkpt>
      <trkpt lat="40.8192120" lon="-4.0523490">
        <ele>1619.0</ele>
        <time>2019-04-28T07:52:12Z</time>
      </trkpt>
      <trkpt lat="40.8191950" lon="-4.0523600">
        <ele>1618.8</ele>
        <time>2019-04-28T07:52:13Z</time>
      </trkpt>
      <trkpt lat="40.8192010" lon="-4.0523660">
        <ele>1618.8</ele>
        <time>2019-04-28T07:52:14Z</time>
      </trkpt>
      <trkpt lat="40.8192220" lon="-4.0523670">
        <ele>1618.8</ele>
        <time>2019-04-28T07:52:15Z</time>
      </trkpt>
      <trkpt lat="40.8192330" lon="-4.0523720">
        <ele>1618.6</ele>
        <time>2019-04-28T07:52:16Z</time>
      </trkpt>
      <trkpt lat="40.8192260" lon="-4.0523810">
        <ele>1618.6</ele>
        <time>2019-04-28T07:52:17Z</time>
      </trkpt>
      <trkpt lat="40.8192310" lon="-4.0523890">
        <ele>1618.6</ele>
        <time>2019-04-28T07:52:18Z</time>
      </trkpt>
      <trkpt lat="40.8192230" lon="-4.0524080">
        <ele>1618.8</ele>
        <time>2019-04-28T07:52:19Z</time>
      </trkpt>
      <trkpt lat="40.8192110" lon="-4.0524300">
        <ele>1618.8</ele>
        <time>2019-04-28T07:52:20Z</time>
      </trkpt>
      <trkpt lat="40.8191930" lon="-4.0524530">
        <ele>1618.8</ele>
        <time>2019-04-28T07:52:21Z</time>
      </trkpt>
      <trkpt lat="40.8191730" lon="-4.0524790">
        <ele>1619.0</ele>
        <time>2019-04-28T07:52:22Z</time>
      </trkpt>
      <trkpt lat="40.8191450" lon="-4.0525060">
        <ele>1619.0</ele>
        <time>2019-04-28T07:52:23Z</time>
      </trkpt>
      <trkpt lat="40.8191280" lon="-4.0525280">
        <ele>1619.2</ele>
        <time>2019-04-28T07:52:24Z</time>
      </trkpt>
      <trkpt lat="40.8191190" lon="-4.0525490">
        <ele>1619.4</ele>
        <time>2019-04-28T07:52:25Z</time>
      </trkpt>
      <trkpt lat="40.8191060" lon="-4.0525730">
        <ele>1619.6</ele>
        <time>2019-04-28T07:52:26Z</time>
      </trkpt>
      <trkpt lat="40.8190860" lon="-4.0525960">
        <ele>1619.6</ele>
        <time>2019-04-28T07:52:27Z</time>
      </trkpt>
      <trkpt lat="40.8190750" lon="-4.0526140">
        <ele>1619.8</ele>
        <time>2019-04-28T07:52:28Z</time>
      </trkpt>
      <trkpt lat="40.8190600" lon="-4.0526330">
        <ele>1620.0</ele>
        <time>2019-04-28T07:52:29Z</time>
      </trkpt>
      <trkpt lat="40.8190460" lon="-4.0526500">
        <ele>1620.2</ele>
        <time>2019-04-28T07:52:30Z</time>
      </trkpt>
      <trkpt lat="40.8190210" lon="-4.0526700">
        <ele>1620.4</ele>
        <time>2019-04-28T07:52:31Z</time>
      </trkpt>
      <trkpt lat="40.8190140" lon="-4.0526880">
        <ele>1620.6</ele>
        <time>2019-04-28T07:52:32Z</time>
      </trkpt>
      <trkpt lat="40.8189920" lon="-4.0527100">
        <ele>1620.8</ele>
        <time>2019-04-28T07:52:33Z</time>
      </trkpt>
      <trkpt lat="40.8189790" lon="-4.0527330">
        <ele>1621.0</ele>
        <time>2019-04-28T07:52:34Z</time>
      </trkpt>
      <trkpt lat="40.8189670" lon="-4.0527510">
        <ele>1621.4</ele>
        <time>2019-04-28T07:52:35Z</time>
      </trkpt>
      <trkpt lat="40.8189540" lon="-4.0527630">
        <ele>1621.6</ele>
        <time>2019-04-28T07:52:36Z</time>
      </trkpt>
      <trkpt lat="40.8189430" lon="-4.0527810">
        <ele>1621.8</ele>
        <time>2019-04-28T07:52:37Z</time>
      </trkpt>
      <trkpt lat="40.8189210" lon="-4.0527990">
        <ele>1622.0</ele>
        <time>2019-04-28T07:52:38Z</time>
      </trkpt>
      <trkpt lat="40.8189040" lon="-4.0528200">
        <ele>1622.4</ele>
        <time>2019-04-28T07:52:39Z</time>
      </trkpt>
      <trkpt lat="40.8188870" lon="-4.0528440">
        <ele>1622.6</ele>
        <time>2019-04-28T07:52:40Z</time>
      </trkpt>
      <trkpt lat="40.8188670" lon="-4.0528730">
        <ele>1623.0</ele>
        <time>2019-04-28T07:52:41Z</time>
      </trkpt>
      <trkpt lat="40.8188520" lon="-4.0528980">
        <ele>1623.2</ele>
        <time>2019-04-28T07:52:42Z</time>
      </trkpt>
      <trkpt lat="40.8188360" lon="-4.0529260">
        <ele>1623.4</ele>
        <time>2019-04-28T07:52:43Z</time>
      </trkpt>
      <trkpt lat="40.8188240" lon="-4.0529530">
        <ele>1623.6</ele>
        <time>2019-04-28T07:52:44Z</time>
      </trkpt>
      <trkpt lat="40.8187860" lon="-4.0529900">
        <ele>1623.8</ele>
        <time>2019-04-28T07:52:45Z</time>
      </trkpt>
      <trkpt lat="40.8187520" lon="-4.0530260">
        <ele>1624.0</ele>
        <time>2019-04-28T07:52:46Z</time>
      </trkpt>
      <trkpt lat="40.8187170" lon="-4.0530590">
        <ele>1624.2</ele>
        <time>2019-04-28T07:52:47Z</time>
      </trkpt>
      <trkpt lat="40.8186970" lon="-4.0530780">
        <ele>1624.4</ele>
        <time>2019-04-28T07:52:48Z</time>
      </trkpt>
      <trkpt lat="40.8186860" lon="-4.0531090">
        <ele>1624.6</ele>
        <time>2019-04-28T07:52:49Z</time>
      </trkpt>
      <trkpt lat="40.8186660" lon="-4.0531410">
        <ele>1624.6</ele>
        <time>2019-04-28T07:52:50Z</time>
      </trkpt>
      <trkpt lat="40.8186400" lon="-4.0531700">
        <ele>1624.8</ele>
        <time>2019-04-28T07:52:51Z</time>
      </trkpt>
      <trkpt lat="40.8186270" lon="-4.0531960">
        <ele>1624.8</ele>
        <time>2019-04-28T07:52:52Z</time>
      </trkpt>
      <trkpt lat="40.8186140" lon="-4.0532260">
        <ele>1624.8</ele>
        <time>2019-04-28T07:52:53Z</time>
      </trkpt>
      <trkpt lat="40.8186050" lon="-4.0532600">
        <ele>1624.8</ele>
        <time>2019-04-28T07:52:54Z</time>
      </trkpt>
      <trkpt lat="40.8185830" lon="-4.0532940">
        <ele>1625.0</ele>
        <time>2019-04-28T07:52:55Z</time>
      </trkpt>
      <trkpt lat="40.8185700" lon="-4.0533270">
        <ele>1625.0</ele>
        <time>2019-04-28T07:52:56Z</time>
      </trkpt>
      <trkpt lat="40.8185550" lon="-4.0533550">
        <ele>1625.0</ele>
        <time>2019-04-28T07:52:57Z</time>
      </trkpt>
      <trkpt lat="40.8185370" lon="-4.0533660">
        <ele>1625.0</ele>
        <time>2019-04-28T07:52:58Z</time>
      </trkpt>
      <trkpt lat="40.8185220" lon="-4.0533880">
        <ele>1625.0</ele>
        <time>2019-04-28T07:52:59Z</time>
      </trkpt>
      <trkpt lat="40.8185160" lon="-4.0534110">
        <ele>1625.0</ele>
        <time>2019-04-28T07:53:00Z</time>
      </trkpt>
      <trkpt lat="40.8184890" lon="-4.0534390">
        <ele>1625.0</ele>
        <time>2019-04-28T07:53:01Z</time>
      </trkpt>
      <trkpt lat="40.8184800" lon="-4.0534670">
        <ele>1625.2</ele>
        <time>2019-04-28T07:53:02Z</time>
      </trkpt>
      <trkpt lat="40.8184460" lon="-4.0535010">
        <ele>1625.2</ele>
        <time>2019-04-28T07:53:03Z</time>
      </trkpt>
      <trkpt lat="40.8184220" lon="-4.0535280">
        <ele>1625.2</ele>
        <time>2019-04-28T07:53:04Z</time>
      </trkpt>
      <trkpt lat="40.8183960" lon="-4.0535570">
        <ele>1625.2</ele>
        <time>2019-04-28T07:53:05Z</time>
      </trkpt>
      <trkpt lat="40.8183790" lon="-4.0535870">
        <ele>1625.4</ele>
        <time>2019-04-28T07:53:06Z</time>
      </trkpt>
      <trkpt lat="40.8183560" lon="-4.0536140">
        <ele>1625.4</ele>
        <time>2019-04-28T07:53:07Z</time>
      </trkpt>
      <trkpt lat="40.8183430" lon="-4.0536440">
        <ele>1625.4</ele>
        <time>2019-04-28T07:53:08Z</time>
      </trkpt>
      <trkpt lat="40.8183170" lon="-4.0536820">
        <ele>1625.6</ele>
        <time>2019-04-28T07:53:09Z</time>
      </trkpt>
      <trkpt lat="40.8183030" lon="-4.0537130">
        <ele>1625.6</ele>
        <time>2019-04-28T07:53:10Z</time>
      </trkpt>
      <trkpt lat="40.8182670" lon="-4.0537490">
        <ele>1625.8</ele>
        <time>2019-04-28T07:53:11Z</time>
      </trkpt>
      <trkpt lat="40.8182490" lon="-4.0537720">
        <ele>1625.8</ele>
        <time>2019-04-28T07:53:12Z</time>
      </trkpt>
      <trkpt lat="40.8182200" lon="-4.0537970">
        <ele>1626.0</ele>
        <time>2019-04-28T07:53:13Z</time>
      </trkpt>
      <trkpt lat="40.8181990" lon="-4.0538210">
        <ele>1626.0</ele>
        <time>2019-04-28T07:53:14Z</time>
      </trkpt>
      <trkpt lat="40.8181720" lon="-4.0538500">
        <ele>1626.2</ele>
        <time>2019-04-28T07:53:15Z</time>
      </trkpt>
      <trkpt lat="40.8181570" lon="-4.0538650">
        <ele>1626.2</ele>
        <time>2019-04-28T07:53:16Z</time>
      </trkpt>
      <trkpt lat="40.8181190" lon="-4.0538920">
        <ele>1626.2</ele>
        <time>2019-04-28T07:53:17Z</time>
      </trkpt>
      <trkpt lat="40.8180880" lon="-4.0539150">
        <ele>1626.4</ele>
        <time>2019-04-28T07:53:18Z</time>
      </trkpt>
      <trkpt lat="40.8180570" lon="-4.0539420">
        <ele>1626.4</ele>
        <time>2019-04-28T07:53:19Z</time>
      </trkpt>
      <trkpt lat="40.8180480" lon="-4.0539550">
        <ele>1626.4</ele>
        <time>2019-04-28T07:53:20Z</time>
      </trkpt>
      <trkpt lat="40.8180240" lon="-4.0539700">
        <ele>1626.6</ele>
        <time>2019-04-28T07:53:21Z</time>
      </trkpt>
      <trkpt lat="40.8180000" lon="-4.0539880">
        <ele>1626.6</ele>
        <time>2019-04-28T07:53:22Z</time>
      </trkpt>
      <trkpt lat="40.8179690" lon="-4.0540100">
        <ele>1626.8</ele>
        <time>2019-04-28T07:53:23Z</time>
      </trkpt>
      <trkpt lat="40.8179560" lon="-4.0540130">
        <ele>1627.0</ele>
        <time>2019-04-28T07:53:24Z</time>
      </trkpt>
      <trkpt lat="40.8179400" lon="-4.0540170">
        <ele>1627.0</ele>
        <time>2019-04-28T07:53:25Z</time>
      </trkpt>
      <trkpt lat="40.8179290" lon="-4.0540280">
        <ele>1627.2</ele>
        <time>2019-04-28T07:53:26Z</time>
      </trkpt>
      <trkpt lat="40.8178980" lon="-4.0540470">
        <ele>1627.4</ele>
        <time>2019-04-28T07:53:27Z</time>
      </trkpt>
      <trkpt lat="40.8178680" lon="-4.0540650">
        <ele>1627.6</ele>
        <time>2019-04-28T07:53:28Z</time>
      </trkpt>
      <trkpt lat="40.8178340" lon="-4.0540740">
        <ele>1627.6</ele>
        <time>2019-04-28T07:53:29Z</time>
      </trkpt>
      <trkpt lat="40.8178190" lon="-4.0540710">
        <ele>1627.8</ele>
        <time>2019-04-28T07:53:30Z</time>
      </trkpt>
      <trkpt lat="40.8178000" lon="-4.0540850">
        <ele>1628.0</ele>
        <time>2019-04-28T07:53:31Z</time>
      </trkpt>
      <trkpt lat="40.8177840" lon="-4.0540960">
        <ele>1628.2</ele>
        <time>2019-04-28T07:53:32Z</time>
      </trkpt>
      <trkpt lat="40.8177720" lon="-4.0541090">
        <ele>1628.4</ele>
        <time>2019-04-28T07:53:33Z</time>
      </trkpt>
      <trkpt lat="40.8177550" lon="-4.0541170">
        <ele>1628.4</ele>
        <time>2019-04-28T07:53:34Z</time>
      </trkpt>
      <trkpt lat="40.8177270" lon="-4.0541220">
        <ele>1628.6</ele>
        <time>2019-04-28T07:53:35Z</time>
      </trkpt>
      <trkpt lat="40.8177050" lon="-4.0541260">
        <ele>1628.6</ele>
        <time>2019-04-28T07:53:36Z</time>
      </trkpt>
      <trkpt lat="40.8176930" lon="-4.0541410">
        <ele>1628.8</ele>
        <time>2019-04-28T07:53:37Z</time>
      </trkpt>
      <trkpt lat="40.8176620" lon="-4.0541600">
        <ele>1629.0</ele>
        <time>2019-04-28T07:53:38Z</time>
      </trkpt>
      <trkpt lat="40.8176340" lon="-4.0541760">
        <ele>1629.0</ele>
        <time>2019-04-28T07:53:39Z</time>
      </trkpt>
      <trkpt lat="40.8176090" lon="-4.0541790">
        <ele>1629.2</ele>
        <time>2019-04-28T07:53:40Z</time>
      </trkpt>
      <trkpt lat="40.8175900" lon="-4.0541810">
        <ele>1629.2</ele>
        <time>2019-04-28T07:53:41Z</time>
      </trkpt>
      <trkpt lat="40.8175730" lon="-4.0541900">
        <ele>1629.4</ele>
        <time>2019-04-28T07:53:42Z</time>
      </trkpt>
      <trkpt lat="40.8175480" lon="-4.0541920">
        <ele>1629.4</ele>
        <time>2019-04-28T07:53:43Z</time>
      </trkpt>
      <trkpt lat="40.8175240" lon="-4.0541870">
        <ele>1629.4</ele>
        <time>2019-04-28T07:53:44Z</time>
      </trkpt>
      <trkpt lat="40.8174960" lon="-4.0541810">
        <ele>1629.4</ele>
        <time>2019-04-28T07:53:45Z</time>
      </trkpt>
      <trkpt lat="40.8174670" lon="-4.0541800">
        <ele>1629.4</ele>
        <time>2019-04-28T07:53:46Z</time>
      </trkpt>
      <trkpt lat="40.8174310" lon="-4.0541900">
        <ele>1629.4</ele>
        <time>2019-04-28T07:53:47Z</time>
      </trkpt>
      <trkpt lat="40.8174060" lon="-4.0541840">
        <ele>1629.4</ele>
        <time>2019-04-28T07:53:48Z</time>
      </trkpt>
      <trkpt lat="40.8173710" lon="-4.0541900">
        <ele>1629.2</ele>
        <time>2019-04-28T07:53:49Z</time>
      </trkpt>
      <trkpt lat="40.8173310" lon="-4.0541830">
        <ele>1629.2</ele>
        <time>2019-04-28T07:53:50Z</time>
      </trkpt>
      <trkpt lat="40.8173000" lon="-4.0541840">
        <ele>1629.2</ele>
        <time>2019-04-28T07:53:51Z</time>
      </trkpt>
      <trkpt lat="40.8172710" lon="-4.0541830">
        <ele>1629.2</ele>
        <time>2019-04-28T07:53:52Z</time>
      </trkpt>
      <trkpt lat="40.8172400" lon="-4.0541780">
        <ele>1629.0</ele>
        <time>2019-04-28T07:53:53Z</time>
      </trkpt>
      <trkpt lat="40.8172060" lon="-4.0541710">
        <ele>1629.0</ele>
        <time>2019-04-28T07:53:54Z</time>
      </trkpt>
      <trkpt lat="40.8171790" lon="-4.0541620">
        <ele>1628.8</ele>
        <time>2019-04-28T07:53:55Z</time>
      </trkpt>
      <trkpt lat="40.8171550" lon="-4.0541690">
        <ele>1628.6</ele>
        <time>2019-04-28T07:53:56Z</time>
      </trkpt>
      <trkpt lat="40.8171250" lon="-4.0541560">
        <ele>1628.4</ele>
        <time>2019-04-28T07:53:57Z</time>
      </trkpt>
      <trkpt lat="40.8170880" lon="-4.0541440">
        <ele>1628.4</ele>
        <time>2019-04-28T07:53:58Z</time>
      </trkpt>
      <trkpt lat="40.8170490" lon="-4.0541260">
        <ele>1628.4</ele>
        <time>2019-04-28T07:53:59Z</time>
      </trkpt>
      <trkpt lat="40.8169970" lon="-4.0541010">
        <ele>1628.2</ele>
        <time>2019-04-28T07:54:00Z</time>
      </trkpt>
      <trkpt lat="40.8169560" lon="-4.0540800">
        <ele>1628.0</ele>
        <time>2019-04-28T07:54:01Z</time>
      </trkpt>
      <trkpt lat="40.8169250" lon="-4.0540480">
        <ele>1627.6</ele>
        <time>2019-04-28T07:54:02Z</time>
      </trkpt>
      <trkpt lat="40.8168930" lon="-4.0540270">
        <ele>1627.2</ele>
        <time>2019-04-28T07:54:03Z</time>
      </trkpt>
      <trkpt lat="40.8168480" lon="-4.0539960">
        <ele>1627.0</ele>
        <time>2019-04-28T07:54:04Z</time>
      </trkpt>
      <trkpt lat="40.8167960" lon="-4.0539660">
        <ele>1626.6</ele>
        <time>2019-04-28T07:54:05Z</time>
      </trkpt>
      <trkpt lat="40.8163930" lon="-4.0539130">
        <ele>1626.0</ele>
        <time>2019-04-28T07:54:06Z</time>
      </trkpt>
      <trkpt lat="40.8159900" lon="-4.0538600">
        <ele>1625.8</ele>
        <time>2019-04-28T07:54:07Z</time>
      </trkpt>
      <trkpt lat="40.8159580" lon="-4.0538530">
        <ele>1625.2</ele>
        <time>2019-04-28T07:54:08Z</time>
      </trkpt>
      <trkpt lat="40.8158990" lon="-4.0538260">
        <ele>1625.0</ele>
        <time>2019-04-28T07:54:09Z</time>
      </trkpt>
      <trkpt lat="40.8158180" lon="-4.0537800">
        <ele>1624.8</ele>
        <time>2019-04-28T07:54:10Z</time>
      </trkpt>
      <trkpt lat="40.8157460" lon="-4.0537450">
        <ele>1624.4</ele>
        <time>2019-04-28T07:54:11Z</time>
      </trkpt>
      <trkpt lat="40.8156800" lon="-4.0537130">
        <ele>1624.2</ele>
        <time>2019-04-28T07:54:12Z</time>
      </trkpt>
      <trkpt lat="40.8156180" lon="-4.0536880">
        <ele>1624.0</ele>
        <time>2019-04-28T07:54:13Z</time>
      </trkpt>
      <trkpt lat="40.8155560" lon="-4.0536620">
        <ele>1623.6</ele>
        <time>2019-04-28T07:54:14Z</time>
      </trkpt>
      <trkpt lat="40.8155020" lon="-4.0536400">
        <ele>1623.4</ele>
        <time>2019-04-28T07:54:15Z</time>
      </trkpt>
      <trkpt lat="40.8154500" lon="-4.0536310">
        <ele>1623.0</ele>
        <time>2019-04-28T07:54:16Z</time>
      </trkpt>
      <trkpt lat="40.8153780" lon="-4.0536220">
        <ele>1622.6</ele>
        <time>2019-04-28T07:54:17Z</time>
      </trkpt>
      <trkpt lat="40.8153010" lon="-4.0536160">
        <ele>1622.4</ele>
        <time>2019-04-28T07:54:18Z</time>
      </trkpt>
      <trkpt lat="40.8152300" lon="-4.0536170">
        <ele>1622.2</ele>
        <time>2019-04-28T07:54:19Z</time>
      </trkpt>
      <trkpt lat="40.8151680" lon="-4.0536160">
        <ele>1622.2</ele>
        <time>2019-04-28T07:54:20Z</time>
      </trkpt>
      <trkpt lat="40.8150940" lon="-4.0536120">
        <ele>1622.2</ele>
        <time>2019-04-28T07:54:21Z</time>
      </trkpt>
      <trkpt lat="40.8150330" lon="-4.0536110">
        <ele>1622.8</ele>
        <time>2019-04-28T07:54:22Z</time>
      </trkpt>
      <trkpt lat="40.8149640" lon="-4.0536150">
        <ele>1623.0</ele>
        <time>2019-04-28T07:54:23Z</time>
      </trkpt>
      <trkpt lat="40.8149050" lon="-4.0536210">
        <ele>1623.2</ele>
        <time>2019-04-28T07:54:24Z</time>
      </trkpt>
      <trkpt lat="40.8148390" lon="-4.0536290">
        <ele>1623.6</ele>
        <time>2019-04-28T07:54:25Z</time>
      </trkpt>
      <trkpt lat="40.8147810" lon="-4.0536410">
        <ele>1623.6</ele>
        <time>2019-04-28T07:54:26Z</time>
      </trkpt>
      <trkpt lat="40.8147240" lon="-4.0536540">
        <ele>1623.8</ele>
        <time>2019-04-28T07:54:27Z</time>
      </trkpt>
      <trkpt lat="40.8146790" lon="-4.0536700">
        <ele>1624.0</ele>
        <time>2019-04-28T07:54:28Z</time>
      </trkpt>
      <trkpt lat="40.8146360" lon="-4.0536910">
        <ele>1624.2</ele>
        <time>2019-04-28T07:54:29Z</time>
      </trkpt>
      <trkpt lat="40.8145920" lon="-4.0537100">
        <ele>1624.4</ele>
        <time>2019-04-28T07:54:30Z</time>
      </trkpt>
      <trkpt lat="40.8145530" lon="-4.0537340">
        <ele>1624.6</ele>
        <time>2019-04-28T07:54:31Z</time>
      </trkpt>
      <trkpt lat="40.8145180" lon="-4.0537590">
        <ele>1624.8</ele>
        <time>2019-04-28T07:54:32Z</time>
      </trkpt>
      <trkpt lat="40.8144870" lon="-4.0537840">
        <ele>1625.0</ele>
        <time>2019-04-28T07:54:33Z</time>
      </trkpt>
      <trkpt lat="40.8144600" lon="-4.0538060">
        <ele>1625.0</ele>
        <time>2019-04-28T07:54:34Z</time>
      </trkpt>
      <trkpt lat="40.8144350" lon="-4.0538260">
        <ele>1625.2</ele>
        <time>2019-04-28T07:54:35Z</time>
      </trkpt>
      <trkpt lat="40.8144120" lon="-4.0538460">
        <ele>1625.4</ele>
        <time>2019-04-28T07:54:36Z</time>
      </trkpt>
      <trkpt lat="40.8143890" lon="-4.0538670">
        <ele>1625.4</ele>
        <time>2019-04-28T07:54:37Z</time>
      </trkpt>
      <trkpt lat="40.8143640" lon="-4.0538890">
        <ele>1625.4</ele>
        <time>2019-04-28T07:54:38Z</time>
      </trkpt>
      <trkpt lat="40.8143370" lon="-4.0539080">
        <ele>1625.4</ele>
        <time>2019-04-28T07:54:39Z</time>
      </trkpt>
      <trkpt lat="40.8143120" lon="-4.0539230">
        <ele>1625.6</ele>
        <time>2019-04-28T07:54:40Z</time>
      </trkpt>
      <trkpt lat="40.8142900" lon="-4.0539370">
        <ele>1625.6</ele>
        <time>2019-04-28T07:54:41Z</time>
      </trkpt>
      <trkpt lat="40.8142730" lon="-4.0539460">
        <ele>1625.8</ele>
        <time>2019-04-28T07:54:42Z</time>
      </trkpt>
      <trkpt lat="40.8142600" lon="-4.0539520">
        <ele>1625.8</ele>
        <time>2019-04-28T07:54:43Z</time>
      </trkpt>
      <trkpt lat="40.8142490" lon="-4.0539600">
        <ele>1625.8</ele>
        <time>2019-04-28T07:54:44Z</time>
      </trkpt>
      <trkpt lat="40.8142390" lon="-4.0539660">
        <ele>1625.8</ele>
        <time>2019-04-28T07:54:45Z</time>
      </trkpt>
      <trkpt lat="40.8142280" lon="-4.0539730">
        <ele>1625.8</ele>
        <time>2019-04-28T07:54:46Z</time>
      </trkpt>
      <trkpt lat="40.8142170" lon="-4.0539790">
        <ele>1626.0</ele>
        <time>2019-04-28T07:54:47Z</time>
      </trkpt>
      <trkpt lat="40.8142070" lon="-4.0539850">
        <ele>1626.0</ele>
        <time>2019-04-28T07:54:48Z</time>
      </trkpt>
      <trkpt lat="40.8142020" lon="-4.0539870">
        <ele>1626.0</ele>
        <time>2019-04-28T07:54:49Z</time>
      </trkpt>
      <trkpt lat="40.8142010" lon="-4.0539870">
        <ele>1626.0</ele>
        <time>2019-04-28T07:54:50Z</time>
      </trkpt>
      <trkpt lat="40.8142000" lon="-4.0539870">
        <ele>1626.0</ele>
        <time>2019-04-28T07:54:51Z</time>
      </trkpt>
      <trkpt lat="40.8141970" lon="-4.0539870">
        <ele>1626.2</ele>
        <time>2019-04-28T07:54:52Z</time>
      </trkpt>
      <trkpt lat="40.8141970" lon="-4.0539880">
        <ele>1626.2</ele>
        <time>2019-04-28T07:54:53Z</time>
      </trkpt>
      <trkpt lat="40.8141970" lon="-4.0539910">
        <ele>1626.2</ele>
        <time>2019-04-28T07:54:54Z</time>
      </trkpt>
      <trkpt lat="40.8141980" lon="-4.0539910">
        <ele>1626.2</ele>
        <time>2019-04-28T07:54:55Z</time>
      </trkpt>
      <trkpt lat="40.8141980" lon="-4.0539930">
        <ele>1626.2</ele>
        <time>2019-04-28T07:54:56Z</time>
      </trkpt>
      <trkpt lat="40.8141290" lon="-4.0540580">
        <ele>1627.0</ele>
        <time>2019-04-28T07:57:27Z</time>
      </trkpt>
      <trkpt lat="40.8141170" lon="-4.0540630">
        <ele>1627.0</ele>
        <time>2019-04-28T07:57:28Z</time>
      </trkpt>
      <trkpt lat="40.8141030" lon="-4.0540720">
        <ele>1627.0</ele>
        <time>2019-04-28T07:57:29Z</time>
      </trkpt>
      <trkpt lat="40.8140870" lon="-4.0540810">
        <ele>1627.2</ele>
        <time>2019-04-28T07:57:30Z</time>
      </trkpt>
      <trkpt lat="40.8140710" lon="-4.0540930">
        <ele>1627.2</ele>
        <time>2019-04-28T07:57:31Z</time>
      </trkpt>
      <trkpt lat="40.8140540" lon="-4.0541050">
        <ele>1627.4</ele>
        <time>2019-04-28T07:57:32Z</time>
      </trkpt>
      <trkpt lat="40.8140370" lon="-4.0541170">
        <ele>1627.4</ele>
        <time>2019-04-28T07:57:33Z</time>
      </trkpt>
      <trkpt lat="40.8140180" lon="-4.0541290">
        <ele>1627.6</ele>
        <time>2019-04-28T07:57:34Z</time>
      </trkpt>
      <trkpt lat="40.8140010" lon="-4.0541430">
        <ele>1627.8</ele>
        <time>2019-04-28T07:57:35Z</time>
      </trkpt>
      <trkpt lat="40.8139820" lon="-4.0541590">
        <ele>1628.0</ele>
        <time>2019-04-28T07:57:36Z</time>
      </trkpt>
      <trkpt lat="40.8139610" lon="-4.0541750">
        <ele>1628.2</ele>
        <time>2019-04-28T07:57:37Z</time>
      </trkpt>
      <trkpt lat="40.8139450" lon="-4.0541840">
        <ele>1628.2</ele>
        <time>2019-04-28T07:57:38Z</time>
      </trkpt>
      <trkpt lat="40.8139240" lon="-4.0541960">
        <ele>1628.4</ele>
        <time>2019-04-28T07:57:39Z</time>
      </trkpt>
      <trkpt lat="40.8139060" lon="-4.0542100">
        <ele>1628.4</ele>
        <time>2019-04-28T07:57:40Z</time>
      </trkpt>
      <trkpt lat="40.8138860" lon="-4.0542270">
        <ele>1628.4</ele>
        <time>2019-04-28T07:57:41Z</time>
      </trkpt>
      <trkpt lat="40.8138640" lon="-4.0542470">
        <ele>1628.6</ele>
        <time>2019-04-28T07:57:42Z</time>
      </trkpt>
      <trkpt lat="40.8138390" lon="-4.0542660">
        <ele>1628.6</ele>
        <time>2019-04-28T07:57:43Z</time>
      </trkpt>
      <trkpt lat="40.8138170" lon="-4.0542880">
        <ele>1628.8</ele>
        <time>2019-04-28T07:57:44Z</time>
      </trkpt>
      <trkpt lat="40.8137950" lon="-4.0543100">
        <ele>1628.8</ele>
        <time>2019-04-28T07:57:45Z</time>
      </trkpt>
      <trkpt lat="40.8137760" lon="-4.0543280">
        <ele>1628.8</ele>
        <time>2019-04-28T07:57:46Z</time>
      </trkpt>
      <trkpt lat="40.8137570" lon="-4.0543480">
        <ele>1628.8</ele>
        <time>2019-04-28T07:57:47Z</time>
      </trkpt>
      <trkpt lat="40.8137360" lon="-4.0543700">
        <ele>1628.8</ele>
        <time>2019-04-28T07:57:48Z</time>
      </trkpt>
      <trkpt lat="40.8137140" lon="-4.0543930">
        <ele>1628.8</ele>
        <time>2019-04-28T07:57:49Z</time>
      </trkpt>
      <trkpt lat="40.8136890" lon="-4.0544180">
        <ele>1628.8</ele>
        <time>2019-04-28T07:57:50Z</time>
      </trkpt>
      <trkpt lat="40.8136640" lon="-4.0544450">
        <ele>1628.8</ele>
        <time>2019-04-28T07:57:51Z</time>
      </trkpt>
      <trkpt lat="40.8136410" lon="-4.0544720">
        <ele>1629.0</ele>
        <time>2019-04-28T07:57:52Z</time>
      </trkpt>
      <trkpt lat="40.8136210" lon="-4.0544960">
        <ele>1629.0</ele>
        <time>2019-04-28T07:57:53Z</time>
      </trkpt>
      <trkpt lat="40.8135930" lon="-4.0545230">
        <ele>1629.0</ele>
        <time>2019-04-28T07:57:54Z</time>
      </trkpt>
      <trkpt lat="40.8135680" lon="-4.0545480">
        <ele>1629.0</ele>
        <time>2019-04-28T07:57:55Z</time>
      </trkpt>
      <trkpt lat="40.8135560" lon="-4.0545730">
        <ele>1629.0</ele>
        <time>2019-04-28T07:57:56Z</time>
      </trkpt>
      <trkpt lat="40.8135520" lon="-4.0545940">
        <ele>1629.2</ele>
        <time>2019-04-28T07:57:57Z</time>
      </trkpt>
      <trkpt lat="40.8135500" lon="-4.0546060">
        <ele>1629.2</ele>
        <time>2019-04-28T07:57:58Z</time>
      </trkpt>
      <trkpt lat="40.8135470" lon="-4.0546050">
        <ele>1629.2</ele>
        <time>2019-04-28T07:57:59Z</time>
      </trkpt>
      <trkpt lat="40.8135510" lon="-4.0546010">
        <ele>1629.0</ele>
        <time>2019-04-28T07:58:00Z</time>
      </trkpt>
      <trkpt lat="40.8135470" lon="-4.0546020">
        <ele>1629.2</ele>
        <time>2019-04-28T07:58:01Z</time>
      </trkpt>
      <trkpt lat="40.8135430" lon="-4.0546070">
        <ele>1629.2</ele>
        <time>2019-04-28T07:58:02Z</time>
      </trkpt>
      <trkpt lat="40.8135440" lon="-4.0546120">
        <ele>1629.0</ele>
        <time>2019-04-28T07:58:03Z</time>
      </trkpt>
      <trkpt lat="40.8135430" lon="-4.0546280">
        <ele>1629.0</ele>
        <time>2019-04-28T07:58:04Z</time>
      </trkpt>
      <trkpt lat="40.8135470" lon="-4.0546590">
        <ele>1629.0</ele>
        <time>2019-04-28T07:58:05Z</time>
      </trkpt>
      <trkpt lat="40.8135270" lon="-4.0546920">
        <ele>1629.0</ele>
        <time>2019-04-28T07:58:06Z</time>
      </trkpt>
      <trkpt lat="40.8135170" lon="-4.0547230">
        <ele>1629.2</ele>
        <time>2019-04-28T07:58:07Z</time>
      </trkpt>
      <trkpt lat="40.8135050" lon="-4.0547510">
        <ele>1629.4</ele>
        <time>2019-04-28T07:58:08Z</time>
      </trkpt>
      <trkpt lat="40.8134780" lon="-4.0547850">
        <ele>1629.4</ele>
        <time>2019-04-28T07:58:09Z</time>
      </trkpt>
      <trkpt lat="40.8134610" lon="-4.0548170">
        <ele>1629.6</ele>
        <time>2019-04-28T07:58:10Z</time>
      </trkpt>
      <trkpt lat="40.8134310" lon="-4.0548480">
        <ele>1629.6</ele>
        <time>2019-04-28T07:58:11Z</time>
      </trkpt>
      <trkpt lat="40.8134120" lon="-4.0548910">
        <ele>1629.8</ele>
        <time>2019-04-28T07:58:12Z</time>
      </trkpt>
      <trkpt lat="40.8133870" lon="-4.0549280">
        <ele>1630.0</ele>
        <time>2019-04-28T07:58:13Z</time>
      </trkpt>
      <trkpt lat="40.8133570" lon="-4.0549740">
        <ele>1630.0</ele>
        <time>2019-04-28T07:58:14Z</time>
      </trkpt>
      <trkpt lat="40.8133400" lon="-4.0550150">
        <ele>1630.0</ele>
        <time>2019-04-28T07:58:15Z</time>
      </trkpt>
      <trkpt lat="40.8133080" lon="-4.0550610">
        <ele>1630.0</ele>
        <time>2019-04-28T07:58:16Z</time>
      </trkpt>
      <trkpt lat="40.8132790" lon="-4.0551260">
        <ele>1630.0</ele>
        <time>2019-04-28T07:58:17Z</time>
      </trkpt>
      <trkpt lat="40.8132430" lon="-4.0551970">
        <ele>1630.0</ele>
        <time>2019-04-28T07:58:18Z</time>
      </trkpt>
      <trkpt lat="40.8132210" lon="-4.0552700">
        <ele>1630.0</ele>
        <time>2019-04-28T07:58:19Z</time>
      </trkpt>
      <trkpt lat="40.8132040" lon="-4.0553440">
        <ele>1630.0</ele>
        <time>2019-04-28T07:58:20Z</time>
      </trkpt>
      <trkpt lat="40.8131860" lon="-4.0554080">
        <ele>1630.0</ele>
        <time>2019-04-28T07:58:21Z</time>
      </trkpt>
      <trkpt lat="40.8131720" lon="-4.0554690">
        <ele>1630.2</ele>
        <time>2019-04-28T07:58:22Z</time>
      </trkpt>
      <trkpt lat="40.8131620" lon="-4.0555060">
        <ele>1630.4</ele>
        <time>2019-04-28T07:58:23Z</time>
      </trkpt>
      <trkpt lat="40.8131510" lon="-4.0555650">
        <ele>1630.8</ele>
        <time>2019-04-28T07:58:24Z</time>
      </trkpt>
      <trkpt lat="40.8131570" lon="-4.0556000">
        <ele>1631.2</ele>
        <time>2019-04-28T07:58:25Z</time>
      </trkpt>
      <trkpt lat="40.8131660" lon="-4.0556290">
        <ele>1631.4</ele>
        <time>2019-04-28T07:58:26Z</time>
      </trkpt>
      <trkpt lat="40.8131700" lon="-4.0556570">
        <ele>1631.6</ele>
        <time>2019-04-28T07:58:27Z</time>
      </trkpt>
      <trkpt lat="40.8131490" lon="-4.0557030">
        <ele>1631.8</ele>
        <time>2019-04-28T07:58:28Z</time>
      </trkpt>
      <trkpt lat="40.8131340" lon="-4.0557390">
        <ele>1632.0</ele>
        <time>2019-04-28T07:58:29Z</time>
      </trkpt>
      <trkpt lat="40.8131340" lon="-4.0557650">
        <ele>1632.2</ele>
        <time>2019-04-28T07:58:30Z</time>
      </trkpt>
      <trkpt lat="40.8131250" lon="-4.0557980">
        <ele>1632.4</ele>
        <time>2019-04-28T07:58:31Z</time>
      </trkpt>
      <trkpt lat="40.8131190" lon="-4.0558370">
        <ele>1632.8</ele>
        <time>2019-04-28T07:58:32Z</time>
      </trkpt>
      <trkpt lat="40.8131120" lon="-4.0558690">
        <ele>1633.0</ele>
        <time>2019-04-28T07:58:33Z</time>
      </trkpt>
      <trkpt lat="40.8130990" lon="-4.0559040">
        <ele>1633.2</ele>
        <time>2019-04-28T07:58:34Z</time>
      </trkpt>
      <trkpt lat="40.8130830" lon="-4.0559380">
        <ele>1633.4</ele>
        <time>2019-04-28T07:58:35Z</time>
      </trkpt>
      <trkpt lat="40.8130520" lon="-4.0559910">
        <ele>1633.6</ele>
        <time>2019-04-28T07:58:36Z</time>
      </trkpt>
      <trkpt lat="40.8130170" lon="-4.0560390">
        <ele>1633.8</ele>
        <time>2019-04-28T07:58:37Z</time>
      </trkpt>
      <trkpt lat="40.8129820" lon="-4.0560880">
        <ele>1634.0</ele>
        <time>2019-04-28T07:58:38Z</time>
      </trkpt>
      <trkpt lat="40.8129490" lon="-4.0561250">
        <ele>1634.4</ele>
        <time>2019-04-28T07:58:39Z</time>
      </trkpt>
      <trkpt lat="40.8129130" lon="-4.0561520">
        <ele>1634.6</ele>
        <time>2019-04-28T07:58:40Z</time>
      </trkpt>
      <trkpt lat="40.8128770" lon="-4.0561870">
        <ele>1635.0</ele>
        <time>2019-04-28T07:58:41Z</time>
      </trkpt>
      <trkpt lat="40.8128530" lon="-4.0562260">
        <ele>1635.4</ele>
        <time>2019-04-28T07:58:42Z</time>
      </trkpt>
      <trkpt lat="40.8128220" lon="-4.0562630">
        <ele>1635.8</ele>
        <time>2019-04-28T07:58:43Z</time>
      </trkpt>
      <trkpt lat="40.8127730" lon="-4.0563160">
        <ele>1636.0</ele>
        <time>2019-04-28T07:58:44Z</time>
      </trkpt>
      <trkpt lat="40.8127710" lon="-4.0563220">
        <ele>1636.2</ele>
        <time>2019-04-28T07:58:45Z</time>
      </trkpt>
      <trkpt lat="40.8127570" lon="-4.0563370">
        <ele>1636.4</ele>
        <time>2019-04-28T07:58:46Z</time>
      </trkpt>
      <trkpt lat="40.8126860" lon="-4.0563950">
        <ele>1636.8</ele>
        <time>2019-04-28T07:58:47Z</time>
      </trkpt>
      <trkpt lat="40.8126300" lon="-4.0564270">
        <ele>1637.0</ele>
        <time>2019-04-28T07:58:48Z</time>
      </trkpt>
      <trkpt lat="40.8125730" lon="-4.0564650">
        <ele>1637.0</ele>
        <time>2019-04-28T07:58:49Z</time>
      </trkpt>
      <trkpt lat="40.8124930" lon="-4.0564980">
        <ele>1637.2</ele>
        <time>2019-04-28T07:58:50Z</time>
      </trkpt>
      <trkpt lat="40.8124650" lon="-4.0565310">
        <ele>1637.4</ele>
        <time>2019-04-28T07:58:51Z</time>
      </trkpt>
      <trkpt lat="40.8124160" lon="-4.0565580">
        <ele>1637.8</ele>
        <time>2019-04-28T07:58:52Z</time>
      </trkpt>
      <trkpt lat="40.8123620" lon="-4.0565810">
        <ele>1638.0</ele>
        <time>2019-04-28T07:58:53Z</time>
      </trkpt>
      <trkpt lat="40.8123380" lon="-4.0565930">
        <ele>1638.2</ele>
        <time>2019-04-28T07:58:54Z</time>
      </trkpt>
      <trkpt lat="40.8123350" lon="-4.0565950">
        <ele>1638.4</ele>
        <time>2019-04-28T07:58:55Z</time>
      </trkpt>
      <trkpt lat="40.8123220" lon="-4.0566050">
        <ele>1638.6</ele>
        <time>2019-04-28T07:58:56Z</time>
      </trkpt>
      <trkpt lat="40.8123100" lon="-4.0566110">
        <ele>1638.6</ele>
        <time>2019-04-28T07:58:57Z</time>
      </trkpt>
      <trkpt lat="40.8122800" lon="-4.0566130">
        <ele>1638.8</ele>
        <time>2019-04-28T07:58:58Z</time>
      </trkpt>
      <trkpt lat="40.8122300" lon="-4.0566120">
        <ele>1639.0</ele>
        <time>2019-04-28T07:58:59Z</time>
      </trkpt>
      <trkpt lat="40.8121960" lon="-4.0566210">
        <ele>1639.2</ele>
        <time>2019-04-28T07:59:00Z</time>
      </trkpt>
      <trkpt lat="40.8121620" lon="-4.0566190">
        <ele>1639.4</ele>
        <time>2019-04-28T07:59:01Z</time>
      </trkpt>
      <trkpt lat="40.8121390" lon="-4.0566240">
        <ele>1639.4</ele>
        <time>2019-04-28T07:59:02Z</time>
      </trkpt>
      <trkpt lat="40.8121190" lon="-4.0566230">
        <ele>1639.8</ele>
        <time>2019-04-28T07:59:03Z</time>
      </trkpt>
      <trkpt lat="40.8121110" lon="-4.0566330">
        <ele>1639.8</ele>
        <time>2019-04-28T07:59:04Z</time>
      </trkpt>
      <trkpt lat="40.8120830" lon="-4.0566260">
        <ele>1640.0</ele>
        <time>2019-04-28T07:59:05Z</time>
      </trkpt>
      <trkpt lat="40.8120650" lon="-4.0566300">
        <ele>1640.2</ele>
        <time>2019-04-28T07:59:06Z</time>
      </trkpt>
      <trkpt lat="40.8120260" lon="-4.0566340">
        <ele>1640.2</ele>
        <time>2019-04-28T07:59:07Z</time>
      </trkpt>
      <trkpt lat="40.8119900" lon="-4.0566360">
        <ele>1640.4</ele>
        <time>2019-04-28T07:59:08Z</time>
      </trkpt>
      <trkpt lat="40.8119550" lon="-4.0566390">
        <ele>1640.6</ele>
        <time>2019-04-28T07:59:09Z</time>
      </trkpt>
      <trkpt lat="40.8119380" lon="-4.0566450">
        <ele>1640.6</ele>
        <time>2019-04-28T07:59:10Z</time>
      </trkpt>
      <trkpt lat="40.8119160" lon="-4.0566500">
        <ele>1640.8</ele>
        <time>2019-04-28T07:59:11Z</time>
      </trkpt>
      <trkpt lat="40.8118910" lon="-4.0566530">
        <ele>1640.8</ele>
        <time>2019-04-28T07:59:12Z</time>
      </trkpt>
      <trkpt lat="40.8118530" lon="-4.0566420">
        <ele>1641.0</ele>
        <time>2019-04-28T07:59:13Z</time>
      </trkpt>
      <trkpt lat="40.8118300" lon="-4.0566330">
        <ele>1641.2</ele>
        <time>2019-04-28T07:59:14Z</time>
      </trkpt>
      <trkpt lat="40.8117860" lon="-4.0566310">
        <ele>1641.2</ele>
        <time>2019-04-28T07:59:15Z</time>
      </trkpt>
      <trkpt lat="40.8117550" lon="-4.0566220">
        <ele>1641.4</ele>
        <time>2019-04-28T07:59:16Z</time>
      </trkpt>
      <trkpt lat="40.8117320" lon="-4.0566130">
        <ele>1641.6</ele>
        <time>2019-04-28T07:59:17Z</time>
      </trkpt>
      <trkpt lat="40.8117120" lon="-4.0566030">
        <ele>1641.8</ele>
        <time>2019-04-28T07:59:18Z</time>
      </trkpt>
      <trkpt lat="40.8116950" lon="-4.0565970">
        <ele>1641.8</ele>
        <time>2019-04-28T07:59:19Z</time>
      </trkpt>
      <trkpt lat="40.8116820" lon="-4.0565970">
        <ele>1642.0</ele>
        <time>2019-04-28T07:59:20Z</time>
      </trkpt>
      <trkpt lat="40.8116680" lon="-4.0565920">
        <ele>1642.2</ele>
        <time>2019-04-28T07:59:21Z</time>
      </trkpt>
      <trkpt lat="40.8116460" lon="-4.0565780">
        <ele>1642.2</ele>
        <time>2019-04-28T07:59:22Z</time>
      </trkpt>
      <trkpt lat="40.8115900" lon="-4.0565750">
        <ele>1642.4</ele>
        <time>2019-04-28T07:59:23Z</time>
      </trkpt>
      <trkpt lat="40.8115790" lon="-4.0565670">
        <ele>1642.4</ele>
        <time>2019-04-28T07:59:24Z</time>
      </trkpt>
      <trkpt lat="40.8115660" lon="-4.0565730">
        <ele>1642.6</ele>
        <time>2019-04-28T07:59:25Z</time>
      </trkpt>
      <trkpt lat="40.8115320" lon="-4.0565620">
        <ele>1642.8</ele>
        <time>2019-04-28T07:59:26Z</time>
      </trkpt>
      <trkpt lat="40.8114960" lon="-4.0565520">
        <ele>1642.8</ele>
        <time>2019-04-28T07:59:27Z</time>
      </trkpt>
      <trkpt lat="40.8114670" lon="-4.0565510">
        <ele>1643.0</ele>
        <time>2019-04-28T07:59:28Z</time>
      </trkpt>
      <trkpt lat="40.8114450" lon="-4.0565430">
        <ele>1643.2</ele>
        <time>2019-04-28T07:59:29Z</time>
      </trkpt>
      <trkpt lat="40.8114190" lon="-4.0565440">
        <ele>1643.4</ele>
        <time>2019-04-28T07:59:30Z</time>
      </trkpt>
      <trkpt lat="40.8114010" lon="-4.0565370">
        <ele>1643.4</ele>
        <time>2019-04-28T07:59:31Z</time>
      </trkpt>
      <trkpt lat="40.8113810" lon="-4.0565280">
        <ele>1643.6</ele>
        <time>2019-04-28T07:59:32Z</time>
      </trkpt>
      <trkpt lat="40.8113480" lon="-4.0565220">
        <ele>1643.6</ele>
        <time>2019-04-28T07:59:33Z</time>
      </trkpt>
      <trkpt lat="40.8113170" lon="-4.0565080">
        <ele>1643.8</ele>
        <time>2019-04-28T07:59:34Z</time>
      </trkpt>
      <trkpt lat="40.8112930" lon="-4.0565010">
        <ele>1644.0</ele>
        <time>2019-04-28T07:59:35Z</time>
      </trkpt>
      <trkpt lat="40.8112690" lon="-4.0564980">
        <ele>1644.2</ele>
        <time>2019-04-28T07:59:36Z</time>
      </trkpt>
      <trkpt lat="40.8112500" lon="-4.0565000">
        <ele>1644.4</ele>
        <time>2019-04-28T07:59:37Z</time>
      </trkpt>
      <trkpt lat="40.8112410" lon="-4.0564960">
        <ele>1644.6</ele>
        <time>2019-04-28T07:59:38Z</time>
      </trkpt>
      <trkpt lat="40.8112280" lon="-4.0564910">
        <ele>1644.8</ele>
        <time>2019-04-28T07:59:39Z</time>
      </trkpt>
      <trkpt lat="40.8112200" lon="-4.0564870">
        <ele>1645.0</ele>
        <time>2019-04-28T07:59:40Z</time>
      </trkpt>
      <trkpt lat="40.8112040" lon="-4.0564700">
        <ele>1645.2</ele>
        <time>2019-04-28T07:59:41Z</time>
      </trkpt>
      <trkpt lat="40.8111750" lon="-4.0564520">
        <ele>1645.2</ele>
        <time>2019-04-28T07:59:42Z</time>
      </trkpt>
      <trkpt lat="40.8111600" lon="-4.0564500">
        <ele>1645.4</ele>
        <time>2019-04-28T07:59:43Z</time>
      </trkpt>
      <trkpt lat="40.8111550" lon="-4.0564540">
        <ele>1645.6</ele>
        <time>2019-04-28T07:59:44Z</time>
      </trkpt>
      <trkpt lat="40.8111480" lon="-4.0564450">
        <ele>1645.8</ele>
        <time>2019-04-28T07:59:45Z</time>
      </trkpt>
      <trkpt lat="40.8111290" lon="-4.0564390">
        <ele>1646.0</ele>
        <time>2019-04-28T07:59:46Z</time>
      </trkpt>
      <trkpt lat="40.8111050" lon="-4.0564300">
        <ele>1646.2</ele>
        <time>2019-04-28T07:59:47Z</time>
      </trkpt>
      <trkpt lat="40.8110830" lon="-4.0564280">
        <ele>1646.4</ele>
        <time>2019-04-28T07:59:48Z</time>
      </trkpt>
      <trkpt lat="40.8110630" lon="-4.0564230">
        <ele>1646.4</ele>
        <time>2019-04-28T07:59:49Z</time>
      </trkpt>
      <trkpt lat="40.8110550" lon="-4.0564370">
        <ele>1646.6</ele>
        <time>2019-04-28T07:59:50Z</time>
      </trkpt>
      <trkpt lat="40.8110180" lon="-4.0564410">
        <ele>1646.6</ele>
        <time>2019-04-28T07:59:51Z</time>
      </trkpt>
      <trkpt lat="40.8110020" lon="-4.0564340">
        <ele>1646.8</ele>
        <time>2019-04-28T07:59:52Z</time>
      </trkpt>
      <trkpt lat="40.8109850" lon="-4.0564310">
        <ele>1647.0</ele>
        <time>2019-04-28T07:59:53Z</time>
      </trkpt>
      <trkpt lat="40.8109630" lon="-4.0564370">
        <ele>1647.2</ele>
        <time>2019-04-28T07:59:54Z</time>
      </trkpt>
      <trkpt lat="40.8109380" lon="-4.0564370">
        <ele>1647.4</ele>
        <time>2019-04-28T07:59:55Z</time>
      </trkpt>
      <trkpt lat="40.8109110" lon="-4.0564440">
        <ele>1647.4</ele>
        <time>2019-04-28T07:59:56Z</time>
      </trkpt>
      <trkpt lat="40.8108920" lon="-4.0564490">
        <ele>1647.6</ele>
        <time>2019-04-28T07:59:57Z</time>
      </trkpt>
      <trkpt lat="40.8108570" lon="-4.0564490">
        <ele>1647.8</ele>
        <time>2019-04-28T07:59:58Z</time>
      </trkpt>
      <trkpt lat="40.8108270" lon="-4.0564550">
        <ele>1647.8</ele>
        <time>2019-04-28T07:59:59Z</time>
      </trkpt>
      <trkpt lat="40.8107990" lon="-4.0564570">
        <ele>1648.0</ele>
        <time>2019-04-28T08:00:00Z</time>
      </trkpt>
      <trkpt lat="40.8107710" lon="-4.0564630">
        <ele>1648.2</ele>
        <time>2019-04-28T08:00:01Z</time>
      </trkpt>
      <trkpt lat="40.8107410" lon="-4.0564710">
        <ele>1648.2</ele>
        <time>2019-04-28T08:00:02Z</time>
      </trkpt>
      <trkpt lat="40.8107100" lon="-4.0564760">
        <ele>1648.4</ele>
        <time>2019-04-28T08:00:03Z</time>
      </trkpt>
      <trkpt lat="40.8106830" lon="-4.0564860">
        <ele>1648.4</ele>
        <time>2019-04-28T08:00:04Z</time>
      </trkpt>
      <trkpt lat="40.8106580" lon="-4.0564960">
        <ele>1648.6</ele>
        <time>2019-04-28T08:00:05Z</time>
      </trkpt>
      <trkpt lat="40.8106360" lon="-4.0565020">
        <ele>1648.6</ele>
        <time>2019-04-28T08:00:06Z</time>
      </trkpt>
      <trkpt lat="40.8106090" lon="-4.0565120">
        <ele>1648.8</ele>
        <time>2019-04-28T08:00:07Z</time>
      </trkpt>
      <trkpt lat="40.8105800" lon="-4.0565230">
        <ele>1648.8</ele>
        <time>2019-04-28T08:00:08Z</time>
      </trkpt>
      <trkpt lat="40.8105600" lon="-4.0565430">
        <ele>1649.0</ele>
        <time>2019-04-28T08:00:09Z</time>
      </trkpt>
      <trkpt lat="40.8105330" lon="-4.0565410">
        <ele>1649.2</ele>
        <time>2019-04-28T08:00:10Z</time>
      </trkpt>
      <trkpt lat="40.8105160" lon="-4.0565520">
        <ele>1649.2</ele>
        <time>2019-04-28T08:00:11Z</time>
      </trkpt>
      <trkpt lat="40.8104950" lon="-4.0565690">
        <ele>1649.4</ele>
        <time>2019-04-28T08:00:12Z</time>
      </trkpt>
      <trkpt lat="40.8104650" lon="-4.0565800">
        <ele>1649.4</ele>
        <time>2019-04-28T08:00:13Z</time>
      </trkpt>
      <trkpt lat="40.8104340" lon="-4.0565900">
        <ele>1649.6</ele>
        <time>2019-04-28T08:00:14Z</time>
      </trkpt>
      <trkpt lat="40.8104070" lon="-4.0565950">
        <ele>1649.8</ele>
        <time>2019-04-28T08:00:15Z</time>
      </trkpt>
      <trkpt lat="40.8103830" lon="-4.0565990">
        <ele>1650.0</ele>
        <time>2019-04-28T08:00:16Z</time>
      </trkpt>
      <trkpt lat="40.8103530" lon="-4.0566040">
        <ele>1650.2</ele>
        <time>2019-04-28T08:00:17Z</time>
      </trkpt>
      <trkpt lat="40.8103240" lon="-4.0565980">
        <ele>1650.4</ele>
        <time>2019-04-28T08:00:18Z</time>
      </trkpt>
      <trkpt lat="40.8102980" lon="-4.0565940">
        <ele>1650.4</ele>
        <time>2019-04-28T08:00:19Z</time>
      </trkpt>
      <trkpt lat="40.8102770" lon="-4.0565910">
        <ele>1650.6</ele>
        <time>2019-04-28T08:00:20Z</time>
      </trkpt>
      <trkpt lat="40.8102480" lon="-4.0565830">
        <ele>1650.6</ele>
        <time>2019-04-28T08:00:21Z</time>
      </trkpt>
      <trkpt lat="40.8102100" lon="-4.0565700">
        <ele>1650.8</ele>
        <time>2019-04-28T08:00:22Z</time>
      </trkpt>
      <trkpt lat="40.8101810" lon="-4.0565660">
        <ele>1650.8</ele>
        <time>2019-04-28T08:00:23Z</time>
      </trkpt>
      <trkpt lat="40.8101520" lon="-4.0565550">
        <ele>1651.0</ele>
        <time>2019-04-28T08:00:24Z</time>
      </trkpt>
      <trkpt lat="40.8101150" lon="-4.0565460">
        <ele>1651.2</ele>
        <time>2019-04-28T08:00:25Z</time>
      </trkpt>
      <trkpt lat="40.8100910" lon="-4.0565420">
        <ele>1651.2</ele>
        <time>2019-04-28T08:00:26Z</time>
      </trkpt>
      <trkpt lat="40.8100930" lon="-4.0565370">
        <ele>1651.4</ele>
        <time>2019-04-28T08:00:27Z</time>
      </trkpt>
      <trkpt lat="40.8100550" lon="-4.0565270">
        <ele>1651.4</ele>
        <time>2019-04-28T08:00:28Z</time>
      </trkpt>
      <trkpt lat="40.8100580" lon="-4.0564980">
        <ele>1651.6</ele>
        <time>2019-04-28T08:00:29Z</time>
      </trkpt>
      <trkpt lat="40.8100100" lon="-4.0564950">
        <ele>1651.6</ele>
        <time>2019-04-28T08:00:30Z</time>
      </trkpt>
      <trkpt lat="40.8099820" lon="-4.0564890">
        <ele>1651.6</ele>
        <time>2019-04-28T08:00:31Z</time>
      </trkpt>
      <trkpt lat="40.8099470" lon="-4.0564820">
        <ele>1651.6</ele>
        <time>2019-04-28T08:00:32Z</time>
      </trkpt>
      <trkpt lat="40.8099120" lon="-4.0564680">
        <ele>1651.8</ele>
        <time>2019-04-28T08:00:33Z</time>
      </trkpt>
      <trkpt lat="40.8098850" lon="-4.0564560">
        <ele>1652.0</ele>
        <time>2019-04-28T08:00:34Z</time>
      </trkpt>
      <trkpt lat="40.8098530" lon="-4.0564340">
        <ele>1652.2</ele>
        <time>2019-04-28T08:00:35Z</time>
      </trkpt>
      <trkpt lat="40.8098230" lon="-4.0564130">
        <ele>1652.2</ele>
        <time>2019-04-28T08:00:36Z</time>
      </trkpt>
      <trkpt lat="40.8097960" lon="-4.0563910">
        <ele>1652.4</ele>
        <time>2019-04-28T08:00:37Z</time>
      </trkpt>
      <trkpt lat="40.8097790" lon="-4.0563790">
        <ele>1652.6</ele>
        <time>2019-04-28T08:00:38Z</time>
      </trkpt>
      <trkpt lat="40.8097620" lon="-4.0563650">
        <ele>1652.6</ele>
        <time>2019-04-28T08:00:39Z</time>
      </trkpt>
      <trkpt lat="40.8097480" lon="-4.0563480">
        <ele>1652.8</ele>
        <time>2019-04-28T08:00:40Z</time>
      </trkpt>
      <trkpt lat="40.8097450" lon="-4.0563330">
        <ele>1652.8</ele>
        <time>2019-04-28T08:00:41Z</time>
      </trkpt>
      <trkpt lat="40.8097310" lon="-4.0563320">
        <ele>1653.2</ele>
        <time>2019-04-28T08:00:42Z</time>
      </trkpt>
      <trkpt lat="40.8097090" lon="-4.0563170">
        <ele>1653.2</ele>
        <time>2019-04-28T08:00:43Z</time>
      </trkpt>
      <trkpt lat="40.8097020" lon="-4.0562940">
        <ele>1653.4</ele>
        <time>2019-04-28T08:00:44Z</time>
      </trkpt>
      <trkpt lat="40.8096870" lon="-4.0562760">
        <ele>1653.6</ele>
        <time>2019-04-28T08:00:45Z</time>
      </trkpt>
      <trkpt lat="40.8096620" lon="-4.0562600">
        <ele>1653.6</ele>
        <time>2019-04-28T08:00:46Z</time>
      </trkpt>
      <trkpt lat="40.8096520" lon="-4.0562400">
        <ele>1653.8</ele>
        <time>2019-04-28T08:00:47Z</time>
      </trkpt>
      <trkpt lat="40.8096510" lon="-4.0562260">
        <ele>1654.0</ele>
        <time>2019-04-28T08:00:48Z</time>
      </trkpt>
      <trkpt lat="40.8096310" lon="-4.0562110">
        <ele>1654.2</ele>
        <time>2019-04-28T08:00:49Z</time>
      </trkpt>
      <trkpt lat="40.8096120" lon="-4.0561930">
        <ele>1654.2</ele>
        <time>2019-04-28T08:00:50Z</time>
      </trkpt>
      <trkpt lat="40.8095750" lon="-4.0561680">
        <ele>1654.4</ele>
        <time>2019-04-28T08:00:51Z</time>
      </trkpt>
      <trkpt lat="40.8095620" lon="-4.0561460">
        <ele>1654.6</ele>
        <time>2019-04-28T08:00:52Z</time>
      </trkpt>
      <trkpt lat="40.8095200" lon="-4.0561400">
        <ele>1654.8</ele>
        <time>2019-04-28T08:00:53Z</time>
      </trkpt>
      <trkpt lat="40.8094650" lon="-4.0561190">
        <ele>1654.8</ele>
        <time>2019-04-28T08:00:54Z</time>
      </trkpt>
      <trkpt lat="40.8094420" lon="-4.0561040">
        <ele>1654.6</ele>
        <time>2019-04-28T08:00:55Z</time>
      </trkpt>
      <trkpt lat="40.8094230" lon="-4.0560870">
        <ele>1656.4</ele>
        <time>2019-04-28T08:00:56Z</time>
      </trkpt>
      <trkpt lat="40.8093690" lon="-4.0560690">
        <ele>1656.4</ele>
        <time>2019-04-28T08:00:57Z</time>
      </trkpt>
      <trkpt lat="40.8093210" lon="-4.0560500">
        <ele>1655.8</ele>
        <time>2019-04-28T08:00:58Z</time>
      </trkpt>
      <trkpt lat="40.8092870" lon="-4.0560310">
        <ele>1655.6</ele>
        <time>2019-04-28T08:00:59Z</time>
      </trkpt>
      <trkpt lat="40.8092410" lon="-4.0560140">
        <ele>1655.8</ele>
        <time>2019-04-28T08:01:00Z</time>
      </trkpt>
      <trkpt lat="40.8092100" lon="-4.0560110">
        <ele>1656.0</ele>
        <time>2019-04-28T08:01:01Z</time>
      </trkpt>
      <trkpt lat="40.8091800" lon="-4.0559960">
        <ele>1656.0</ele>
        <time>2019-04-28T08:01:02Z</time>
      </trkpt>
      <trkpt lat="40.8091480" lon="-4.0559770">
        <ele>1656.2</ele>
        <time>2019-04-28T08:01:03Z</time>
      </trkpt>
      <trkpt lat="40.8091120" lon="-4.0559540">
        <ele>1656.4</ele>
        <time>2019-04-28T08:01:04Z</time>
      </trkpt>
      <trkpt lat="40.8090830" lon="-4.0559420">
        <ele>1656.6</ele>
        <time>2019-04-28T08:01:05Z</time>
      </trkpt>
      <trkpt lat="40.8090490" lon="-4.0559350">
        <ele>1656.6</ele>
        <time>2019-04-28T08:01:06Z</time>
      </trkpt>
      <trkpt lat="40.8090360" lon="-4.0559120">
        <ele>1656.8</ele>
        <time>2019-04-28T08:01:07Z</time>
      </trkpt>
      <trkpt lat="40.8090030" lon="-4.0559070">
        <ele>1657.0</ele>
        <time>2019-04-28T08:01:08Z</time>
      </trkpt>
      <trkpt lat="40.8089730" lon="-4.0559040">
        <ele>1657.0</ele>
        <time>2019-04-28T08:01:09Z</time>
      </trkpt>
      <trkpt lat="40.8089330" lon="-4.0558850">
        <ele>1657.2</ele>
        <time>2019-04-28T08:01:10Z</time>
      </trkpt>
      <trkpt lat="40.8089090" lon="-4.0558770">
        <ele>1657.4</ele>
        <time>2019-04-28T08:01:11Z</time>
      </trkpt>
      <trkpt lat="40.8088890" lon="-4.0558720">
        <ele>1657.4</ele>
        <time>2019-04-28T08:01:12Z</time>
      </trkpt>
      <trkpt lat="40.8088380" lon="-4.0558830">
        <ele>1657.6</ele>
        <time>2019-04-28T08:01:13Z</time>
      </trkpt>
      <trkpt lat="40.8088110" lon="-4.0558680">
        <ele>1657.8</ele>
        <time>2019-04-28T08:01:14Z</time>
      </trkpt>
      <trkpt lat="40.8087790" lon="-4.0558480">
        <ele>1658.0</ele>
        <time>2019-04-28T08:01:15Z</time>
      </trkpt>
      <trkpt lat="40.8087530" lon="-4.0558380">
        <ele>1658.0</ele>
        <time>2019-04-28T08:01:16Z</time>
      </trkpt>
      <trkpt lat="40.8087360" lon="-4.0558220">
        <ele>1658.2</ele>
        <time>2019-04-28T08:01:17Z</time>
      </trkpt>
      <trkpt lat="40.8087000" lon="-4.0557970">
        <ele>1658.4</ele>
        <time>2019-04-28T08:01:19Z</time>
      </trkpt>
      <trkpt lat="40.8086700" lon="-4.0557900">
        <ele>1658.6</ele>
        <time>2019-04-28T08:01:20Z</time>
      </trkpt>
      <trkpt lat="40.8086520" lon="-4.0557880">
        <ele>1658.6</ele>
        <time>2019-04-28T08:01:21Z</time>
      </trkpt>
      <trkpt lat="40.8086050" lon="-4.0557830">
        <ele>1659.0</ele>
        <time>2019-04-28T08:01:23Z</time>
      </trkpt>
      <trkpt lat="40.8085880" lon="-4.0557680">
        <ele>1659.0</ele>
        <time>2019-04-28T08:01:24Z</time>
      </trkpt>
      <trkpt lat="40.8085510" lon="-4.0557590">
        <ele>1659.2</ele>
        <time>2019-04-28T08:01:25Z</time>
      </trkpt>
      <trkpt lat="40.8085060" lon="-4.0557390">
        <ele>1659.4</ele>
        <time>2019-04-28T08:01:27Z</time>
      </trkpt>
      <trkpt lat="40.8084610" lon="-4.0557330">
        <ele>1659.6</ele>
        <time>2019-04-28T08:01:29Z</time>
      </trkpt>
      <trkpt lat="40.8084310" lon="-4.0557240">
        <ele>1659.8</ele>
        <time>2019-04-28T08:01:30Z</time>
      </trkpt>
      <trkpt lat="40.8084070" lon="-4.0557050">
        <ele>1660.0</ele>
        <time>2019-04-28T08:01:31Z</time>
      </trkpt>
      <trkpt lat="40.8083850" lon="-4.0557000">
        <ele>1660.2</ele>
        <time>2019-04-28T08:01:32Z</time>
      </trkpt>
      <trkpt lat="40.8083710" lon="-4.0556920">
        <ele>1660.2</ele>
        <time>2019-04-28T08:01:33Z</time>
      </trkpt>
      <trkpt lat="40.8083450" lon="-4.0556860">
        <ele>1660.4</ele>
        <time>2019-04-28T08:01:34Z</time>
      </trkpt>
      <trkpt lat="40.8083170" lon="-4.0556750">
        <ele>1660.6</ele>
        <time>2019-04-28T08:01:35Z</time>
      </trkpt>
      <trkpt lat="40.8082960" lon="-4.0556680">
        <ele>1660.6</ele>
        <time>2019-04-28T08:01:36Z</time>
      </trkpt>
      <trkpt lat="40.8082720" lon="-4.0556610">
        <ele>1660.8</ele>
        <time>2019-04-28T08:01:37Z</time>
      </trkpt>
      <trkpt lat="40.8082410" lon="-4.0556500">
        <ele>1661.0</ele>
        <time>2019-04-28T08:01:38Z</time>
      </trkpt>
      <trkpt lat="40.8082000" lon="-4.0556350">
        <ele>1661.4</ele>
        <time>2019-04-28T08:01:40Z</time>
      </trkpt>
      <trkpt lat="40.8081680" lon="-4.0556320">
        <ele>1661.4</ele>
        <time>2019-04-28T08:01:41Z</time>
      </trkpt>
      <trkpt lat="40.8081360" lon="-4.0556190">
        <ele>1661.6</ele>
        <time>2019-04-28T08:01:42Z</time>
      </trkpt>
      <trkpt lat="40.8081130" lon="-4.0556080">
        <ele>1661.8</ele>
        <time>2019-04-28T08:01:43Z</time>
      </trkpt>
      <trkpt lat="40.8080970" lon="-4.0556020">
        <ele>1662.0</ele>
        <time>2019-04-28T08:01:44Z</time>
      </trkpt>
      <trkpt lat="40.8080880" lon="-4.0555960">
        <ele>1662.2</ele>
        <time>2019-04-28T08:01:45Z</time>
      </trkpt>
      <trkpt lat="40.8080650" lon="-4.0555870">
        <ele>1662.4</ele>
        <time>2019-04-28T08:01:46Z</time>
      </trkpt>
      <trkpt lat="40.8080300" lon="-4.0555580">
        <ele>1662.8</ele>
        <time>2019-04-28T08:01:48Z</time>
      </trkpt>
      <trkpt lat="40.8080000" lon="-4.0555530">
        <ele>1663.0</ele>
        <time>2019-04-28T08:01:49Z</time>
      </trkpt>
      <trkpt lat="40.8079720" lon="-4.0555460">
        <ele>1663.0</ele>
        <time>2019-04-28T08:01:50Z</time>
      </trkpt>
      <trkpt lat="40.8079510" lon="-4.0555300">
        <ele>1663.2</ele>
        <time>2019-04-28T08:01:51Z</time>
      </trkpt>
      <trkpt lat="40.8079250" lon="-4.0555210">
        <ele>1663.4</ele>
        <time>2019-04-28T08:01:52Z</time>
      </trkpt>
      <trkpt lat="40.8078720" lon="-4.0554990">
        <ele>1663.6</ele>
        <time>2019-04-28T08:01:54Z</time>
      </trkpt>
      <trkpt lat="40.8078510" lon="-4.0554820">
        <ele>1663.8</ele>
        <time>2019-04-28T08:01:55Z</time>
      </trkpt>
      <trkpt lat="40.8078220" lon="-4.0554630">
        <ele>1664.0</ele>
        <time>2019-04-28T08:01:56Z</time>
      </trkpt>
      <trkpt lat="40.8077960" lon="-4.0554390">
        <ele>1664.0</ele>
        <time>2019-04-28T08:01:57Z</time>
      </trkpt>
      <trkpt lat="40.8077670" lon="-4.0554120">
        <ele>1664.2</ele>
        <time>2019-04-28T08:01:58Z</time>
      </trkpt>
      <trkpt lat="40.8076950" lon="-4.0553610">
        <ele>1664.6</ele>
        <time>2019-04-28T08:02:00Z</time>
      </trkpt>
      <trkpt lat="40.8076640" lon="-4.0553320">
        <ele>1664.8</ele>
        <time>2019-04-28T08:02:01Z</time>
      </trkpt>
      <trkpt lat="40.8076340" lon="-4.0553020">
        <ele>1665.0</ele>
        <time>2019-04-28T08:02:02Z</time>
      </trkpt>
      <trkpt lat="40.8076060" lon="-4.0552690">
        <ele>1665.2</ele>
        <time>2019-04-28T08:02:03Z</time>
      </trkpt>
      <trkpt lat="40.8075850" lon="-4.0552310">
        <ele>1665.4</ele>
        <time>2019-04-28T08:02:04Z</time>
      </trkpt>
      <trkpt lat="40.8075630" lon="-4.0551850">
        <ele>1665.4</ele>
        <time>2019-04-28T08:02:05Z</time>
      </trkpt>
      <trkpt lat="40.8075410" lon="-4.0551530">
        <ele>1665.6</ele>
        <time>2019-04-28T08:02:06Z</time>
      </trkpt>
      <trkpt lat="40.8075230" lon="-4.0551130">
        <ele>1665.8</ele>
        <time>2019-04-28T08:02:07Z</time>
      </trkpt>
      <trkpt lat="40.8074970" lon="-4.0550190">
        <ele>1665.8</ele>
        <time>2019-04-28T08:02:09Z</time>
      </trkpt>
      <trkpt lat="40.8074850" lon="-4.0549780">
        <ele>1666.2</ele>
        <time>2019-04-28T08:02:10Z</time>
      </trkpt>
      <trkpt lat="40.8074770" lon="-4.0549380">
        <ele>1666.2</ele>
        <time>2019-04-28T08:02:11Z</time>
      </trkpt>
      <trkpt lat="40.8074650" lon="-4.0548540">
        <ele>1666.4</ele>
        <time>2019-04-28T08:02:13Z</time>
      </trkpt>
      <trkpt lat="40.8074560" lon="-4.0548120">
        <ele>1666.6</ele>
        <time>2019-04-28T08:02:14Z</time>
      </trkpt>
      <trkpt lat="40.8074450" lon="-4.0547720">
        <ele>1666.8</ele>
        <time>2019-04-28T08:02:15Z</time>
      </trkpt>
      <trkpt lat="40.8074320" lon="-4.0547270">
        <ele>1667.0</ele>
        <time>2019-04-28T08:02:16Z</time>
      </trkpt>
      <trkpt lat="40.8074240" lon="-4.0546830">
        <ele>1667.0</ele>
        <time>2019-04-28T08:02:17Z</time>
      </trkpt>
      <trkpt lat="40.8074170" lon="-4.0546330">
        <ele>1667.2</ele>
        <time>2019-04-28T08:02:18Z</time>
      </trkpt>
      <trkpt lat="40.8074050" lon="-4.0546020">
        <ele>1667.4</ele>
        <time>2019-04-28T08:02:19Z</time>
      </trkpt>
      <trkpt lat="40.8073940" lon="-4.0545600">
        <ele>1667.4</ele>
        <time>2019-04-28T08:02:20Z</time>
      </trkpt>
      <trkpt lat="40.8073870" lon="-4.0545260">
        <ele>1667.6</ele>
        <time>2019-04-28T08:02:21Z</time>
      </trkpt>
      <trkpt lat="40.8073760" lon="-4.0544880">
        <ele>1667.8</ele>
        <time>2019-04-28T08:02:22Z</time>
      </trkpt>
      <trkpt lat="40.8073680" lon="-4.0544490">
        <ele>1668.0</ele>
        <time>2019-04-28T08:02:23Z</time>
      </trkpt>
      <trkpt lat="40.8073590" lon="-4.0544110">
        <ele>1668.0</ele>
        <time>2019-04-28T08:02:24Z</time>
      </trkpt>
      <trkpt lat="40.8073370" lon="-4.0543400">
        <ele>1668.2</ele>
        <time>2019-04-28T08:02:26Z</time>
      </trkpt>
      <trkpt lat="40.8073260" lon="-4.0543060">
        <ele>1668.4</ele>
        <time>2019-04-28T08:02:27Z</time>
      </trkpt>
      <trkpt lat="40.8073140" lon="-4.0542750">
        <ele>1668.6</ele>
        <time>2019-04-28T08:02:28Z</time>
      </trkpt>
      <trkpt lat="40.8072980" lon="-4.0542470">
        <ele>1668.8</ele>
        <time>2019-04-28T08:02:29Z</time>
      </trkpt>
      <trkpt lat="40.8072870" lon="-4.0542130">
        <ele>1669.0</ele>
        <time>2019-04-28T08:02:30Z</time>
      </trkpt>
      <trkpt lat="40.8072770" lon="-4.0541690">
        <ele>1669.2</ele>
        <time>2019-04-28T08:02:31Z</time>
      </trkpt>
      <trkpt lat="40.8072630" lon="-4.0541330">
        <ele>1669.2</ele>
        <time>2019-04-28T08:02:32Z</time>
      </trkpt>
      <trkpt lat="40.8072430" lon="-4.0540610">
        <ele>1669.6</ele>
        <time>2019-04-28T08:02:34Z</time>
      </trkpt>
      <trkpt lat="40.8072270" lon="-4.0539940">
        <ele>1670.0</ele>
        <time>2019-04-28T08:02:36Z</time>
      </trkpt>
      <trkpt lat="40.8072180" lon="-4.0539670">
        <ele>1670.0</ele>
        <time>2019-04-28T08:02:37Z</time>
      </trkpt>
      <trkpt lat="40.8072100" lon="-4.0539350">
        <ele>1670.2</ele>
        <time>2019-04-28T08:02:38Z</time>
      </trkpt>
      <trkpt lat="40.8072030" lon="-4.0538950">
        <ele>1670.4</ele>
        <time>2019-04-28T08:02:39Z</time>
      </trkpt>
      <trkpt lat="40.8071930" lon="-4.0538570">
        <ele>1670.6</ele>
        <time>2019-04-28T08:02:40Z</time>
      </trkpt>
      <trkpt lat="40.8071830" lon="-4.0538170">
        <ele>1670.8</ele>
        <time>2019-04-28T08:02:41Z</time>
      </trkpt>
      <trkpt lat="40.8071670" lon="-4.0537420">
        <ele>1671.0</ele>
        <time>2019-04-28T08:02:43Z</time>
      </trkpt>
      <trkpt lat="40.8071570" lon="-4.0537040">
        <ele>1671.2</ele>
        <time>2019-04-28T08:02:44Z</time>
      </trkpt>
      <trkpt lat="40.8071460" lon="-4.0536680">
        <ele>1671.4</ele>
        <time>2019-04-28T08:02:45Z</time>
      </trkpt>
      <trkpt lat="40.8071360" lon="-4.0536380">
        <ele>1671.6</ele>
        <time>2019-04-28T08:02:46Z</time>
      </trkpt>
      <trkpt lat="40.8071280" lon="-4.0536110">
        <ele>1671.6</ele>
        <time>2019-04-28T08:02:47Z</time>
      </trkpt>
      <trkpt lat="40.8071140" lon="-4.0535850">
        <ele>1672.0</ele>
        <time>2019-04-28T08:02:48Z</time>
      </trkpt>
      <trkpt lat="40.8071100" lon="-4.0535470">
        <ele>1672.0</ele>
        <time>2019-04-28T08:02:49Z</time>
      </trkpt>
      <trkpt lat="40.8071100" lon="-4.0535080">
        <ele>1672.2</ele>
        <time>2019-04-28T08:02:50Z</time>
      </trkpt>
      <trkpt lat="40.8071070" lon="-4.0534700">
        <ele>1672.4</ele>
        <time>2019-04-28T08:02:51Z</time>
      </trkpt>
      <trkpt lat="40.8071000" lon="-4.0534300">
        <ele>1672.6</ele>
        <time>2019-04-28T08:02:52Z</time>
      </trkpt>
      <trkpt lat="40.8070940" lon="-4.0533930">
        <ele>1672.8</ele>
        <time>2019-04-28T08:02:53Z</time>
      </trkpt>
      <trkpt lat="40.8070780" lon="-4.0533340">
        <ele>1673.2</ele>
        <time>2019-04-28T08:02:55Z</time>
      </trkpt>
      <trkpt lat="40.8070710" lon="-4.0532990">
        <ele>1673.4</ele>
        <time>2019-04-28T08:02:56Z</time>
      </trkpt>
      <trkpt lat="40.8070630" lon="-4.0532680">
        <ele>1673.4</ele>
        <time>2019-04-28T08:02:57Z</time>
      </trkpt>
      <trkpt lat="40.8070550" lon="-4.0532290">
        <ele>1673.8</ele>
        <time>2019-04-28T08:02:58Z</time>
      </trkpt>
      <trkpt lat="40.8070530" lon="-4.0531910">
        <ele>1673.8</ele>
        <time>2019-04-28T08:02:59Z</time>
      </trkpt>
      <trkpt lat="40.8070450" lon="-4.0531560">
        <ele>1674.0</ele>
        <time>2019-04-28T08:03:00Z</time>
      </trkpt>
      <trkpt lat="40.8070390" lon="-4.0531170">
        <ele>1674.2</ele>
        <time>2019-04-28T08:03:01Z</time>
      </trkpt>
      <trkpt lat="40.8070320" lon="-4.0530800">
        <ele>1674.4</ele>
        <time>2019-04-28T08:03:02Z</time>
      </trkpt>
      <trkpt lat="40.8070300" lon="-4.0530410">
        <ele>1674.6</ele>
        <time>2019-04-28T08:03:03Z</time>
      </trkpt>
      <trkpt lat="40.8070230" lon="-4.0530030">
        <ele>1674.6</ele>
        <time>2019-04-28T08:03:04Z</time>
      </trkpt>
      <trkpt lat="40.8070120" lon="-4.0529210">
        <ele>1675.0</ele>
        <time>2019-04-28T08:03:06Z</time>
      </trkpt>
      <trkpt lat="40.8070050" lon="-4.0528830">
        <ele>1675.2</ele>
        <time>2019-04-28T08:03:07Z</time>
      </trkpt>
      <trkpt lat="40.8069980" lon="-4.0528480">
        <ele>1675.4</ele>
        <time>2019-04-28T08:03:08Z</time>
      </trkpt>
      <trkpt lat="40.8069930" lon="-4.0528200">
        <ele>1675.6</ele>
        <time>2019-04-28T08:03:09Z</time>
      </trkpt>
      <trkpt lat="40.8069920" lon="-4.0527870">
        <ele>1675.6</ele>
        <time>2019-04-28T08:03:10Z</time>
      </trkpt>
      <trkpt lat="40.8069820" lon="-4.0527530">
        <ele>1675.8</ele>
        <time>2019-04-28T08:03:11Z</time>
      </trkpt>
      <trkpt lat="40.8069700" lon="-4.0527160">
        <ele>1676.0</ele>
        <time>2019-04-28T08:03:12Z</time>
      </trkpt>
      <trkpt lat="40.8069630" lon="-4.0526730">
        <ele>1676.2</ele>
        <time>2019-04-28T08:03:13Z</time>
      </trkpt>
      <trkpt lat="40.8069560" lon="-4.0526340">
        <ele>1676.2</ele>
        <time>2019-04-28T08:03:14Z</time>
      </trkpt>
      <trkpt lat="40.8069430" lon="-4.0525520">
        <ele>1676.6</ele>
        <time>2019-04-28T08:03:16Z</time>
      </trkpt>
      <trkpt lat="40.8069340" lon="-4.0525120">
        <ele>1676.8</ele>
        <time>2019-04-28T08:03:17Z</time>
      </trkpt>
      <trkpt lat="40.8069240" lon="-4.0524770">
        <ele>1677.0</ele>
        <time>2019-04-28T08:03:18Z</time>
      </trkpt>
      <trkpt lat="40.8069060" lon="-4.0524000">
        <ele>1677.2</ele>
        <time>2019-04-28T08:03:20Z</time>
      </trkpt>
      <trkpt lat="40.8068990" lon="-4.0523640">
        <ele>1677.4</ele>
        <time>2019-04-28T08:03:21Z</time>
      </trkpt>
      <trkpt lat="40.8068840" lon="-4.0523300">
        <ele>1677.6</ele>
        <time>2019-04-28T08:03:22Z</time>
      </trkpt>
      <trkpt lat="40.8068700" lon="-4.0522990">
        <ele>1677.8</ele>
        <time>2019-04-28T08:03:23Z</time>
      </trkpt>
      <trkpt lat="40.8068550" lon="-4.0522680">
        <ele>1677.8</ele>
        <time>2019-04-28T08:03:24Z</time>
      </trkpt>
      <trkpt lat="40.8068420" lon="-4.0522460">
        <ele>1678.0</ele>
        <time>2019-04-28T08:03:25Z</time>
      </trkpt>
      <trkpt lat="40.8068290" lon="-4.0522180">
        <ele>1678.2</ele>
        <time>2019-04-28T08:03:26Z</time>
      </trkpt>
      <trkpt lat="40.8068120" lon="-4.0521980">
        <ele>1678.4</ele>
        <time>2019-04-28T08:03:27Z</time>
      </trkpt>
      <trkpt lat="40.8068020" lon="-4.0521620">
        <ele>1678.6</ele>
        <time>2019-04-28T08:03:28Z</time>
      </trkpt>
      <trkpt lat="40.8067740" lon="-4.0520940">
        <ele>1678.8</ele>
        <time>2019-04-28T08:03:30Z</time>
      </trkpt>
      <trkpt lat="40.8067630" lon="-4.0520620">
        <ele>1679.0</ele>
        <time>2019-04-28T08:03:31Z</time>
      </trkpt>
      <trkpt lat="40.8067500" lon="-4.0520390">
        <ele>1679.0</ele>
        <time>2019-04-28T08:03:32Z</time>
      </trkpt>
      <trkpt lat="40.8067430" lon="-4.0520130">
        <ele>1679.2</ele>
        <time>2019-04-28T08:03:33Z</time>
      </trkpt>
      <trkpt lat="40.8067300" lon="-4.0519900">
        <ele>1679.2</ele>
        <time>2019-04-28T08:03:34Z</time>
      </trkpt>
      <trkpt lat="40.8067200" lon="-4.0519600">
        <ele>1679.4</ele>
        <time>2019-04-28T08:03:35Z</time>
      </trkpt>
      <trkpt lat="40.8067080" lon="-4.0519290">
        <ele>1679.6</ele>
        <time>2019-04-28T08:03:36Z</time>
      </trkpt>
      <trkpt lat="40.8066980" lon="-4.0518950">
        <ele>1679.8</ele>
        <time>2019-04-28T08:03:37Z</time>
      </trkpt>
      <trkpt lat="40.8066840" lon="-4.0518700">
        <ele>1679.8</ele>
        <time>2019-04-28T08:03:38Z</time>
      </trkpt>
      <trkpt lat="40.8066620" lon="-4.0518040">
        <ele>1680.2</ele>
        <time>2019-04-28T08:03:40Z</time>
      </trkpt>
      <trkpt lat="40.8066510" lon="-4.0517670">
        <ele>1680.4</ele>
        <time>2019-04-28T08:03:41Z</time>
      </trkpt>
      <trkpt lat="40.8066370" lon="-4.0517340">
        <ele>1680.4</ele>
        <time>2019-04-28T08:03:42Z</time>
      </trkpt>
      <trkpt lat="40.8066140" lon="-4.0516600">
        <ele>1680.8</ele>
        <time>2019-04-28T08:03:44Z</time>
      </trkpt>
      <trkpt lat="40.8066030" lon="-4.0516280">
        <ele>1682.6</ele>
        <time>2019-04-28T08:03:45Z</time>
      </trkpt>
      <trkpt lat="40.8065930" lon="-4.0515970">
        <ele>1681.8</ele>
        <time>2019-04-28T08:03:46Z</time>
      </trkpt>
      <trkpt lat="40.8065820" lon="-4.0515620">
        <ele>1681.8</ele>
        <time>2019-04-28T08:03:47Z</time>
      </trkpt>
      <trkpt lat="40.8065700" lon="-4.0515270">
        <ele>1683.6</ele>
        <time>2019-04-28T08:03:48Z</time>
      </trkpt>
      <trkpt lat="40.8065540" lon="-4.0514970">
        <ele>1682.2</ele>
        <time>2019-04-28T08:03:49Z</time>
      </trkpt>
      <trkpt lat="40.8065340" lon="-4.0514730">
        <ele>1682.0</ele>
        <time>2019-04-28T08:03:50Z</time>
      </trkpt>
      <trkpt lat="40.8065170" lon="-4.0514640">
        <ele>1682.0</ele>
        <time>2019-04-28T08:03:51Z</time>
      </trkpt>
      <trkpt lat="40.8065060" lon="-4.0514300">
        <ele>1682.2</ele>
        <time>2019-04-28T08:03:52Z</time>
      </trkpt>
      <trkpt lat="40.8064850" lon="-4.0514030">
        <ele>1682.2</ele>
        <time>2019-04-28T08:03:53Z</time>
      </trkpt>
      <trkpt lat="40.8064640" lon="-4.0513740">
        <ele>1682.4</ele>
        <time>2019-04-28T08:03:54Z</time>
      </trkpt>
      <trkpt lat="40.8064440" lon="-4.0513460">
        <ele>1682.6</ele>
        <time>2019-04-28T08:03:55Z</time>
      </trkpt>
      <trkpt lat="40.8064280" lon="-4.0513310">
        <ele>1682.6</ele>
        <time>2019-04-28T08:03:56Z</time>
      </trkpt>
      <trkpt lat="40.8064100" lon="-4.0513020">
        <ele>1683.0</ele>
        <time>2019-04-28T08:03:57Z</time>
      </trkpt>
      <trkpt lat="40.8063920" lon="-4.0512750">
        <ele>1683.0</ele>
        <time>2019-04-28T08:03:58Z</time>
      </trkpt>
      <trkpt lat="40.8063750" lon="-4.0512440">
        <ele>1683.2</ele>
        <time>2019-04-28T08:03:59Z</time>
      </trkpt>
      <trkpt lat="40.8063590" lon="-4.0512140">
        <ele>1683.4</ele>
        <time>2019-04-28T08:04:00Z</time>
      </trkpt>
      <trkpt lat="40.8063490" lon="-4.0511850">
        <ele>1683.6</ele>
        <time>2019-04-28T08:04:01Z</time>
      </trkpt>
      <trkpt lat="40.8063380" lon="-4.0511520">
        <ele>1683.8</ele>
        <time>2019-04-28T08:04:02Z</time>
      </trkpt>
      <trkpt lat="40.8063210" lon="-4.0511250">
        <ele>1683.8</ele>
        <time>2019-04-28T08:04:03Z</time>
      </trkpt>
      <trkpt lat="40.8063050" lon="-4.0511090">
        <ele>1684.0</ele>
        <time>2019-04-28T08:04:04Z</time>
      </trkpt>
      <trkpt lat="40.8062960" lon="-4.0511080">
        <ele>1684.4</ele>
        <time>2019-04-28T08:04:05Z</time>
      </trkpt>
      <trkpt lat="40.8062790" lon="-4.0510960">
        <ele>1684.4</ele>
        <time>2019-04-28T08:04:06Z</time>
      </trkpt>
      <trkpt lat="40.8062480" lon="-4.0510860">
        <ele>1684.6</ele>
        <time>2019-04-28T08:04:07Z</time>
      </trkpt>
      <trkpt lat="40.8062300" lon="-4.0510700">
        <ele>1684.8</ele>
        <time>2019-04-28T08:04:08Z</time>
      </trkpt>
      <trkpt lat="40.8062050" lon="-4.0510550">
        <ele>1685.0</ele>
        <time>2019-04-28T08:04:09Z</time>
      </trkpt>
      <trkpt lat="40.8061850" lon="-4.0510280">
        <ele>1685.2</ele>
        <time>2019-04-28T08:04:10Z</time>
      </trkpt>
      <trkpt lat="40.8061640" lon="-4.0509860">
        <ele>1685.4</ele>
        <time>2019-04-28T08:04:11Z</time>
      </trkpt>
      <trkpt lat="40.8061550" lon="-4.0509600">
        <ele>1685.6</ele>
        <time>2019-04-28T08:04:12Z</time>
      </trkpt>
      <trkpt lat="40.8061370" lon="-4.0509420">
        <ele>1685.8</ele>
        <time>2019-04-28T08:04:13Z</time>
      </trkpt>
      <trkpt lat="40.8061390" lon="-4.0509050">
        <ele>1686.0</ele>
        <time>2019-04-28T08:04:14Z</time>
      </trkpt>
      <trkpt lat="40.8061190" lon="-4.0509040">
        <ele>1686.2</ele>
        <time>2019-04-28T08:04:15Z</time>
      </trkpt>
      <trkpt lat="40.8060980" lon="-4.0509100">
        <ele>1686.4</ele>
        <time>2019-04-28T08:04:16Z</time>
      </trkpt>
      <trkpt lat="40.8060770" lon="-4.0509080">
        <ele>1686.6</ele>
        <time>2019-04-28T08:04:17Z</time>
      </trkpt>
      <trkpt lat="40.8060600" lon="-4.0508970">
        <ele>1686.6</ele>
        <time>2019-04-28T08:04:18Z</time>
      </trkpt>
      <trkpt lat="40.8060410" lon="-4.0508950">
        <ele>1686.8</ele>
        <time>2019-04-28T08:04:19Z</time>
      </trkpt>
      <trkpt lat="40.8060190" lon="-4.0508900">
        <ele>1687.0</ele>
        <time>2019-04-28T08:04:20Z</time>
      </trkpt>
      <trkpt lat="40.8059980" lon="-4.0508870">
        <ele>1687.0</ele>
        <time>2019-04-28T08:04:21Z</time>
      </trkpt>
      <trkpt lat="40.8059730" lon="-4.0508930">
        <ele>1687.2</ele>
        <time>2019-04-28T08:04:22Z</time>
      </trkpt>
      <trkpt lat="40.8059610" lon="-4.0508970">
        <ele>1687.4</ele>
        <time>2019-04-28T08:04:23Z</time>
      </trkpt>
      <trkpt lat="40.8059520" lon="-4.0509070">
        <ele>1687.6</ele>
        <time>2019-04-28T08:04:24Z</time>
      </trkpt>
      <trkpt lat="40.8059390" lon="-4.0509120">
        <ele>1687.8</ele>
        <time>2019-04-28T08:04:25Z</time>
      </trkpt>
      <trkpt lat="40.8059180" lon="-4.0509220">
        <ele>1687.8</ele>
        <time>2019-04-28T08:04:26Z</time>
      </trkpt>
      <trkpt lat="40.8058990" lon="-4.0509240">
        <ele>1687.8</ele>
        <time>2019-04-28T08:04:27Z</time>
      </trkpt>
      <trkpt lat="40.8058820" lon="-4.0509310">
        <ele>1688.0</ele>
        <time>2019-04-28T08:04:28Z</time>
      </trkpt>
      <trkpt lat="40.8058660" lon="-4.0509410">
        <ele>1688.2</ele>
        <time>2019-04-28T08:04:29Z</time>
      </trkpt>
      <trkpt lat="40.8058570" lon="-4.0509570">
        <ele>1688.4</ele>
        <time>2019-04-28T08:04:30Z</time>
      </trkpt>
      <trkpt lat="40.8058450" lon="-4.0509700">
        <ele>1688.6</ele>
        <time>2019-04-28T08:04:31Z</time>
      </trkpt>
      <trkpt lat="40.8058370" lon="-4.0509790">
        <ele>1688.6</ele>
        <time>2019-04-28T08:04:32Z</time>
      </trkpt>
      <trkpt lat="40.8058310" lon="-4.0509830">
        <ele>1688.8</ele>
        <time>2019-04-28T08:04:33Z</time>
      </trkpt>
      <trkpt lat="40.8058250" lon="-4.0509890">
        <ele>1689.0</ele>
        <time>2019-04-28T08:04:34Z</time>
      </trkpt>
      <trkpt lat="40.8058280" lon="-4.0510050">
        <ele>1689.0</ele>
        <time>2019-04-28T08:04:35Z</time>
      </trkpt>
      <trkpt lat="40.8058210" lon="-4.0510220">
        <ele>1689.2</ele>
        <time>2019-04-28T08:04:36Z</time>
      </trkpt>
      <trkpt lat="40.8058140" lon="-4.0510460">
        <ele>1689.2</ele>
        <time>2019-04-28T08:04:37Z</time>
      </trkpt>
      <trkpt lat="40.8058100" lon="-4.0510710">
        <ele>1689.2</ele>
        <time>2019-04-28T08:04:38Z</time>
      </trkpt>
      <trkpt lat="40.8058080" lon="-4.0510850">
        <ele>1689.4</ele>
        <time>2019-04-28T08:04:39Z</time>
      </trkpt>
      <trkpt lat="40.8058040" lon="-4.0510980">
        <ele>1689.4</ele>
        <time>2019-04-28T08:04:40Z</time>
      </trkpt>
      <trkpt lat="40.8058030" lon="-4.0511150">
        <ele>1689.6</ele>
        <time>2019-04-28T08:04:41Z</time>
      </trkpt>
      <trkpt lat="40.8057950" lon="-4.0511380">
        <ele>1689.8</ele>
        <time>2019-04-28T08:04:42Z</time>
      </trkpt>
      <trkpt lat="40.8057880" lon="-4.0511650">
        <ele>1690.0</ele>
        <time>2019-04-28T08:04:43Z</time>
      </trkpt>
      <trkpt lat="40.8057840" lon="-4.0511870">
        <ele>1690.0</ele>
        <time>2019-04-28T08:04:44Z</time>
      </trkpt>
      <trkpt lat="40.8057860" lon="-4.0512070">
        <ele>1690.2</ele>
        <time>2019-04-28T08:04:45Z</time>
      </trkpt>
      <trkpt lat="40.8058070" lon="-4.0512140">
        <ele>1690.4</ele>
        <time>2019-04-28T08:04:46Z</time>
      </trkpt>
      <trkpt lat="40.8058110" lon="-4.0512300">
        <ele>1690.4</ele>
        <time>2019-04-28T08:04:47Z</time>
      </trkpt>
      <trkpt lat="40.8058100" lon="-4.0512520">
        <ele>1690.6</ele>
        <time>2019-04-28T08:04:48Z</time>
      </trkpt>
      <trkpt lat="40.8057990" lon="-4.0512770">
        <ele>1690.6</ele>
        <time>2019-04-28T08:04:49Z</time>
      </trkpt>
      <trkpt lat="40.8058010" lon="-4.0513080">
        <ele>1690.8</ele>
        <time>2019-04-28T08:04:50Z</time>
      </trkpt>
      <trkpt lat="40.8057950" lon="-4.0513360">
        <ele>1691.0</ele>
        <time>2019-04-28T08:04:51Z</time>
      </trkpt>
      <trkpt lat="40.8057870" lon="-4.0513620">
        <ele>1691.0</ele>
        <time>2019-04-28T08:04:52Z</time>
      </trkpt>
      <trkpt lat="40.8057830" lon="-4.0513870">
        <ele>1691.2</ele>
        <time>2019-04-28T08:04:53Z</time>
      </trkpt>
      <trkpt lat="40.8057760" lon="-4.0514160">
        <ele>1691.4</ele>
        <time>2019-04-28T08:04:54Z</time>
      </trkpt>
      <trkpt lat="40.8057750" lon="-4.0514400">
        <ele>1691.6</ele>
        <time>2019-04-28T08:04:55Z</time>
      </trkpt>
      <trkpt lat="40.8057750" lon="-4.0514680">
        <ele>1691.6</ele>
        <time>2019-04-28T08:04:56Z</time>
      </trkpt>
      <trkpt lat="40.8057710" lon="-4.0514870">
        <ele>1691.8</ele>
        <time>2019-04-28T08:04:57Z</time>
      </trkpt>
      <trkpt lat="40.8057670" lon="-4.0515090">
        <ele>1692.0</ele>
        <time>2019-04-28T08:04:58Z</time>
      </trkpt>
      <trkpt lat="40.8057630" lon="-4.0515380">
        <ele>1692.2</ele>
        <time>2019-04-28T08:04:59Z</time>
      </trkpt>
      <trkpt lat="40.8057690" lon="-4.0515630">
        <ele>1692.2</ele>
        <time>2019-04-28T08:05:00Z</time>
      </trkpt>
      <trkpt lat="40.8057760" lon="-4.0515890">
        <ele>1692.4</ele>
        <time>2019-04-28T08:05:01Z</time>
      </trkpt>
      <trkpt lat="40.8057850" lon="-4.0516150">
        <ele>1692.6</ele>
        <time>2019-04-28T08:05:02Z</time>
      </trkpt>
      <trkpt lat="40.8057860" lon="-4.0516500">
        <ele>1692.8</ele>
        <time>2019-04-28T08:05:03Z</time>
      </trkpt>
      <trkpt lat="40.8057830" lon="-4.0516860">
        <ele>1693.0</ele>
        <time>2019-04-28T08:05:04Z</time>
      </trkpt>
      <trkpt lat="40.8057850" lon="-4.0517170">
        <ele>1693.0</ele>
        <time>2019-04-28T08:05:05Z</time>
      </trkpt>
      <trkpt lat="40.8057920" lon="-4.0517450">
        <ele>1693.2</ele>
        <time>2019-04-28T08:05:06Z</time>
      </trkpt>
      <trkpt lat="40.8058030" lon="-4.0517740">
        <ele>1693.4</ele>
        <time>2019-04-28T08:05:07Z</time>
      </trkpt>
      <trkpt lat="40.8057970" lon="-4.0518170">
        <ele>1693.4</ele>
        <time>2019-04-28T08:05:08Z</time>
      </trkpt>
      <trkpt lat="40.8058010" lon="-4.0518480">
        <ele>1693.6</ele>
        <time>2019-04-28T08:05:09Z</time>
      </trkpt>
      <trkpt lat="40.8058040" lon="-4.0518890">
        <ele>1693.8</ele>
        <time>2019-04-28T08:05:10Z</time>
      </trkpt>
      <trkpt lat="40.8058050" lon="-4.0519260">
        <ele>1693.8</ele>
        <time>2019-04-28T08:05:11Z</time>
      </trkpt>
      <trkpt lat="40.8058110" lon="-4.0519550">
        <ele>1694.0</ele>
        <time>2019-04-28T08:05:12Z</time>
      </trkpt>
      <trkpt lat="40.8058150" lon="-4.0519730">
        <ele>1694.2</ele>
        <time>2019-04-28T08:05:13Z</time>
      </trkpt>
      <trkpt lat="40.8058210" lon="-4.0519980">
        <ele>1694.2</ele>
        <time>2019-04-28T08:05:14Z</time>
      </trkpt>
      <trkpt lat="40.8058250" lon="-4.0520290">
        <ele>1694.4</ele>
        <time>2019-04-28T08:05:15Z</time>
      </trkpt>
      <trkpt lat="40.8058230" lon="-4.0520640">
        <ele>1694.6</ele>
        <time>2019-04-28T08:05:16Z</time>
      </trkpt>
      <trkpt lat="40.8058220" lon="-4.0520950">
        <ele>1694.6</ele>
        <time>2019-04-28T08:05:17Z</time>
      </trkpt>
      <trkpt lat="40.8058300" lon="-4.0521250">
        <ele>1694.8</ele>
        <time>2019-04-28T08:05:18Z</time>
      </trkpt>
      <trkpt lat="40.8058350" lon="-4.0521600">
        <ele>1695.0</ele>
        <time>2019-04-28T08:05:19Z</time>
      </trkpt>
      <trkpt lat="40.8058440" lon="-4.0521890">
        <ele>1695.2</ele>
        <time>2019-04-28T08:05:20Z</time>
      </trkpt>
      <trkpt lat="40.8058380" lon="-4.0522360">
        <ele>1695.4</ele>
        <time>2019-04-28T08:05:21Z</time>
      </trkpt>
      <trkpt lat="40.8058400" lon="-4.0522720">
        <ele>1695.6</ele>
        <time>2019-04-28T08:05:22Z</time>
      </trkpt>
      <trkpt lat="40.8058480" lon="-4.0523070">
        <ele>1695.8</ele>
        <time>2019-04-28T08:05:23Z</time>
      </trkpt>
      <trkpt lat="40.8058490" lon="-4.0523510">
        <ele>1695.8</ele>
        <time>2019-04-28T08:05:24Z</time>
      </trkpt>
      <trkpt lat="40.8058590" lon="-4.0523810">
        <ele>1696.0</ele>
        <time>2019-04-28T08:05:25Z</time>
      </trkpt>
      <trkpt lat="40.8058660" lon="-4.0524140">
        <ele>1696.0</ele>
        <time>2019-04-28T08:05:26Z</time>
      </trkpt>
      <trkpt lat="40.8058760" lon="-4.0524480">
        <ele>1696.2</ele>
        <time>2019-04-28T08:05:27Z</time>
      </trkpt>
      <trkpt lat="40.8058850" lon="-4.0524830">
        <ele>1696.2</ele>
        <time>2019-04-28T08:05:28Z</time>
      </trkpt>
      <trkpt lat="40.8058910" lon="-4.0525170">
        <ele>1696.4</ele>
        <time>2019-04-28T08:05:29Z</time>
      </trkpt>
      <trkpt lat="40.8058970" lon="-4.0525550">
        <ele>1696.6</ele>
        <time>2019-04-28T08:05:30Z</time>
      </trkpt>
      <trkpt lat="40.8058860" lon="-4.0525910">
        <ele>1696.8</ele>
        <time>2019-04-28T08:05:31Z</time>
      </trkpt>
      <trkpt lat="40.8058920" lon="-4.0526270">
        <ele>1697.0</ele>
        <time>2019-04-28T08:05:32Z</time>
      </trkpt>
      <trkpt lat="40.8058990" lon="-4.0526680">
        <ele>1697.2</ele>
        <time>2019-04-28T08:05:33Z</time>
      </trkpt>
      <trkpt lat="40.8058920" lon="-4.0527450">
        <ele>1697.2</ele>
        <time>2019-04-28T08:05:34Z</time>
      </trkpt>
      <trkpt lat="40.8058970" lon="-4.0527830">
        <ele>1697.4</ele>
        <time>2019-04-28T08:05:35Z</time>
      </trkpt>
      <trkpt lat="40.8059040" lon="-4.0528300">
        <ele>1697.4</ele>
        <time>2019-04-28T08:05:36Z</time>
      </trkpt>
      <trkpt lat="40.8059070" lon="-4.0528780">
        <ele>1697.6</ele>
        <time>2019-04-28T08:05:37Z</time>
      </trkpt>
      <trkpt lat="40.8059140" lon="-4.0529190">
        <ele>1697.8</ele>
        <time>2019-04-28T08:05:38Z</time>
      </trkpt>
      <trkpt lat="40.8059210" lon="-4.0529580">
        <ele>1698.0</ele>
        <time>2019-04-28T08:05:39Z</time>
      </trkpt>
      <trkpt lat="40.8059300" lon="-4.0529890">
        <ele>1698.2</ele>
        <time>2019-04-28T08:05:40Z</time>
      </trkpt>
      <trkpt lat="40.8059370" lon="-4.0530300">
        <ele>1698.4</ele>
        <time>2019-04-28T08:05:41Z</time>
      </trkpt>
      <trkpt lat="40.8059440" lon="-4.0530700">
        <ele>1698.6</ele>
        <time>2019-04-28T08:05:42Z</time>
      </trkpt>
      <trkpt lat="40.8059530" lon="-4.0531090">
        <ele>1698.6</ele>
        <time>2019-04-28T08:05:43Z</time>
      </trkpt>
      <trkpt lat="40.8059570" lon="-4.0531490">
        <ele>1698.8</ele>
        <time>2019-04-28T08:05:44Z</time>
      </trkpt>
      <trkpt lat="40.8059610" lon="-4.0531930">
        <ele>1699.0</ele>
        <time>2019-04-28T08:05:45Z</time>
      </trkpt>
      <trkpt lat="40.8059690" lon="-4.0532260">
        <ele>1699.2</ele>
        <time>2019-04-28T08:05:46Z</time>
      </trkpt>
      <trkpt lat="40.8059710" lon="-4.0532650">
        <ele>1699.4</ele>
        <time>2019-04-28T08:05:47Z</time>
      </trkpt>
      <trkpt lat="40.8059730" lon="-4.0533030">
        <ele>1699.6</ele>
        <time>2019-04-28T08:05:48Z</time>
      </trkpt>
      <trkpt lat="40.8059720" lon="-4.0533340">
        <ele>1699.8</ele>
        <time>2019-04-28T08:05:49Z</time>
      </trkpt>
      <trkpt lat="40.8059690" lon="-4.0533680">
        <ele>1699.8</ele>
        <time>2019-04-28T08:05:50Z</time>
      </trkpt>
      <trkpt lat="40.8059660" lon="-4.0534040">
        <ele>1700.0</ele>
        <time>2019-04-28T08:05:51Z</time>
      </trkpt>
      <trkpt lat="40.8059570" lon="-4.0534360">
        <ele>1700.0</ele>
        <time>2019-04-28T08:05:52Z</time>
      </trkpt>
      <trkpt lat="40.8059560" lon="-4.0534710">
        <ele>1700.2</ele>
        <time>2019-04-28T08:05:53Z</time>
      </trkpt>
      <trkpt lat="40.8059510" lon="-4.0535090">
        <ele>1700.4</ele>
        <time>2019-04-28T08:05:54Z</time>
      </trkpt>
      <trkpt lat="40.8059420" lon="-4.0535330">
        <ele>1700.6</ele>
        <time>2019-04-28T08:05:55Z</time>
      </trkpt>
      <trkpt lat="40.8059320" lon="-4.0535710">
        <ele>1700.8</ele>
        <time>2019-04-28T08:05:56Z</time>
      </trkpt>
      <trkpt lat="40.8059270" lon="-4.0536010">
        <ele>1700.8</ele>
        <time>2019-04-28T08:05:57Z</time>
      </trkpt>
      <trkpt lat="40.8059270" lon="-4.0536230">
        <ele>1701.0</ele>
        <time>2019-04-28T08:05:58Z</time>
      </trkpt>
      <trkpt lat="40.8059220" lon="-4.0536430">
        <ele>1701.2</ele>
        <time>2019-04-28T08:05:59Z</time>
      </trkpt>
      <trkpt lat="40.8059130" lon="-4.0536610">
        <ele>1701.4</ele>
        <time>2019-04-28T08:06:00Z</time>
      </trkpt>
      <trkpt lat="40.8059090" lon="-4.0536770">
        <ele>1701.4</ele>
        <time>2019-04-28T08:06:01Z</time>
      </trkpt>
      <trkpt lat="40.8059060" lon="-4.0536980">
        <ele>1701.4</ele>
        <time>2019-04-28T08:06:02Z</time>
      </trkpt>
      <trkpt lat="40.8059170" lon="-4.0537090">
        <ele>1701.6</ele>
        <time>2019-04-28T08:06:03Z</time>
      </trkpt>
      <trkpt lat="40.8059150" lon="-4.0537210">
        <ele>1701.6</ele>
        <time>2019-04-28T08:06:04Z</time>
      </trkpt>
      <trkpt lat="40.8059120" lon="-4.0537480">
        <ele>1701.8</ele>
        <time>2019-04-28T08:06:05Z</time>
      </trkpt>
      <trkpt lat="40.8059100" lon="-4.0537760">
        <ele>1702.0</ele>
        <time>2019-04-28T08:06:06Z</time>
      </trkpt>
      <trkpt lat="40.8059070" lon="-4.0538190">
        <ele>1702.0</ele>
        <time>2019-04-28T08:06:07Z</time>
      </trkpt>
      <trkpt lat="40.8059020" lon="-4.0538600">
        <ele>1702.2</ele>
        <time>2019-04-28T08:06:08Z</time>
      </trkpt>
      <trkpt lat="40.8059000" lon="-4.0538910">
        <ele>1702.2</ele>
        <time>2019-04-28T08:06:09Z</time>
      </trkpt>
      <trkpt lat="40.8058980" lon="-4.0539200">
        <ele>1702.4</ele>
        <time>2019-04-28T08:06:10Z</time>
      </trkpt>
      <trkpt lat="40.8058930" lon="-4.0539550">
        <ele>1702.6</ele>
        <time>2019-04-28T08:06:11Z</time>
      </trkpt>
      <trkpt lat="40.8058880" lon="-4.0539910">
        <ele>1702.8</ele>
        <time>2019-04-28T08:06:12Z</time>
      </trkpt>
      <trkpt lat="40.8058710" lon="-4.0540250">
        <ele>1703.0</ele>
        <time>2019-04-28T08:06:13Z</time>
      </trkpt>
      <trkpt lat="40.8058590" lon="-4.0540630">
        <ele>1703.0</ele>
        <time>2019-04-28T08:06:14Z</time>
      </trkpt>
      <trkpt lat="40.8058550" lon="-4.0540920">
        <ele>1703.2</ele>
        <time>2019-04-28T08:06:15Z</time>
      </trkpt>
      <trkpt lat="40.8058490" lon="-4.0541130">
        <ele>1703.4</ele>
        <time>2019-04-28T08:06:16Z</time>
      </trkpt>
      <trkpt lat="40.8058520" lon="-4.0541320">
        <ele>1703.6</ele>
        <time>2019-04-28T08:06:17Z</time>
      </trkpt>
      <trkpt lat="40.8058440" lon="-4.0541590">
        <ele>1703.6</ele>
        <time>2019-04-28T08:06:18Z</time>
      </trkpt>
      <trkpt lat="40.8058360" lon="-4.0541840">
        <ele>1703.8</ele>
        <time>2019-04-28T08:06:19Z</time>
      </trkpt>
      <trkpt lat="40.8058330" lon="-4.0542090">
        <ele>1704.0</ele>
        <time>2019-04-28T08:06:20Z</time>
      </trkpt>
      <trkpt lat="40.8058260" lon="-4.0542360">
        <ele>1704.2</ele>
        <time>2019-04-28T08:06:21Z</time>
      </trkpt>
      <trkpt lat="40.8058210" lon="-4.0542660">
        <ele>1704.2</ele>
        <time>2019-04-28T08:06:22Z</time>
      </trkpt>
      <trkpt lat="40.8058160" lon="-4.0542970">
        <ele>1704.4</ele>
        <time>2019-04-28T08:06:23Z</time>
      </trkpt>
      <trkpt lat="40.8058080" lon="-4.0543260">
        <ele>1704.6</ele>
        <time>2019-04-28T08:06:24Z</time>
      </trkpt>
      <trkpt lat="40.8058020" lon="-4.0543570">
        <ele>1704.8</ele>
        <time>2019-04-28T08:06:25Z</time>
      </trkpt>
      <trkpt lat="40.8058000" lon="-4.0543930">
        <ele>1704.8</ele>
        <time>2019-04-28T08:06:26Z</time>
      </trkpt>
      <trkpt lat="40.8057980" lon="-4.0544180">
        <ele>1705.0</ele>
        <time>2019-04-28T08:06:27Z</time>
      </trkpt>
      <trkpt lat="40.8057950" lon="-4.0544390">
        <ele>1705.2</ele>
        <time>2019-04-28T08:06:28Z</time>
      </trkpt>
      <trkpt lat="40.8057880" lon="-4.0544650">
        <ele>1705.2</ele>
        <time>2019-04-28T08:06:29Z</time>
      </trkpt>
      <trkpt lat="40.8057730" lon="-4.0544880">
        <ele>1705.4</ele>
        <time>2019-04-28T08:06:30Z</time>
      </trkpt>
      <trkpt lat="40.8057580" lon="-4.0545140">
        <ele>1705.6</ele>
        <time>2019-04-28T08:06:31Z</time>
      </trkpt>
      <trkpt lat="40.8057470" lon="-4.0545450">
        <ele>1705.8</ele>
        <time>2019-04-28T08:06:32Z</time>
      </trkpt>
      <trkpt lat="40.8057380" lon="-4.0545700">
        <ele>1705.8</ele>
        <time>2019-04-28T08:06:33Z</time>
      </trkpt>
      <trkpt lat="40.8057480" lon="-4.0545830">
        <ele>1706.0</ele>
        <time>2019-04-28T08:06:34Z</time>
      </trkpt>
      <trkpt lat="40.8057460" lon="-4.0546110">
        <ele>1706.0</ele>
        <time>2019-04-28T08:06:35Z</time>
      </trkpt>
      <trkpt lat="40.8057400" lon="-4.0546440">
        <ele>1706.2</ele>
        <time>2019-04-28T08:06:36Z</time>
      </trkpt>
      <trkpt lat="40.8057270" lon="-4.0546840">
        <ele>1706.2</ele>
        <time>2019-04-28T08:06:37Z</time>
      </trkpt>
      <trkpt lat="40.8057240" lon="-4.0547150">
        <ele>1706.4</ele>
        <time>2019-04-28T08:06:38Z</time>
      </trkpt>
      <trkpt lat="40.8057000" lon="-4.0547520">
        <ele>1706.6</ele>
        <time>2019-04-28T08:06:39Z</time>
      </trkpt>
      <trkpt lat="40.8056850" lon="-4.0547860">
        <ele>1706.6</ele>
        <time>2019-04-28T08:06:40Z</time>
      </trkpt>
      <trkpt lat="40.8056620" lon="-4.0548210">
        <ele>1706.8</ele>
        <time>2019-04-28T08:06:41Z</time>
      </trkpt>
      <trkpt lat="40.8056480" lon="-4.0548460">
        <ele>1706.8</ele>
        <time>2019-04-28T08:06:42Z</time>
      </trkpt>
      <trkpt lat="40.8056300" lon="-4.0548740">
        <ele>1706.8</ele>
        <time>2019-04-28T08:06:43Z</time>
      </trkpt>
      <trkpt lat="40.8056110" lon="-4.0549050">
        <ele>1707.0</ele>
        <time>2019-04-28T08:06:44Z</time>
      </trkpt>
      <trkpt lat="40.8055990" lon="-4.0549260">
        <ele>1707.2</ele>
        <time>2019-04-28T08:06:45Z</time>
      </trkpt>
      <trkpt lat="40.8055830" lon="-4.0549530">
        <ele>1707.4</ele>
        <time>2019-04-28T08:06:46Z</time>
      </trkpt>
      <trkpt lat="40.8055690" lon="-4.0549730">
        <ele>1707.6</ele>
        <time>2019-04-28T08:06:47Z</time>
      </trkpt>
      <trkpt lat="40.8055550" lon="-4.0549920">
        <ele>1707.6</ele>
        <time>2019-04-28T08:06:48Z</time>
      </trkpt>
      <trkpt lat="40.8055340" lon="-4.0550240">
        <ele>1707.8</ele>
        <time>2019-04-28T08:06:49Z</time>
      </trkpt>
      <trkpt lat="40.8055260" lon="-4.0550460">
        <ele>1707.8</ele>
        <time>2019-04-28T08:06:50Z</time>
      </trkpt>
      <trkpt lat="40.8055210" lon="-4.0550650">
        <ele>1708.0</ele>
        <time>2019-04-28T08:06:51Z</time>
      </trkpt>
      <trkpt lat="40.8054870" lon="-4.0550950">
        <ele>1708.2</ele>
        <time>2019-04-28T08:06:52Z</time>
      </trkpt>
      <trkpt lat="40.8054660" lon="-4.0551230">
        <ele>1708.4</ele>
        <time>2019-04-28T08:06:53Z</time>
      </trkpt>
      <trkpt lat="40.8054400" lon="-4.0551600">
        <ele>1708.4</ele>
        <time>2019-04-28T08:06:54Z</time>
      </trkpt>
      <trkpt lat="40.8054160" lon="-4.0551900">
        <ele>1708.6</ele>
        <time>2019-04-28T08:06:55Z</time>
      </trkpt>
      <trkpt lat="40.8053900" lon="-4.0552260">
        <ele>1708.8</ele>
        <time>2019-04-28T08:06:56Z</time>
      </trkpt>
      <trkpt lat="40.8053700" lon="-4.0552460">
        <ele>1709.0</ele>
        <time>2019-04-28T08:06:57Z</time>
      </trkpt>
      <trkpt lat="40.8053460" lon="-4.0552750">
        <ele>1709.0</ele>
        <time>2019-04-28T08:06:58Z</time>
      </trkpt>
      <trkpt lat="40.8053220" lon="-4.0553080">
        <ele>1709.2</ele>
        <time>2019-04-28T08:06:59Z</time>
      </trkpt>
      <trkpt lat="40.8052970" lon="-4.0553400">
        <ele>1709.4</ele>
        <time>2019-04-28T08:07:00Z</time>
      </trkpt>
      <trkpt lat="40.8052800" lon="-4.0553740">
        <ele>1709.4</ele>
        <time>2019-04-28T08:07:01Z</time>
      </trkpt>
      <trkpt lat="40.8052560" lon="-4.0554080">
        <ele>1709.6</ele>
        <time>2019-04-28T08:07:02Z</time>
      </trkpt>
      <trkpt lat="40.8052480" lon="-4.0554270">
        <ele>1709.6</ele>
        <time>2019-04-28T08:07:03Z</time>
      </trkpt>
      <trkpt lat="40.8052400" lon="-4.0554470">
        <ele>1709.8</ele>
        <time>2019-04-28T08:07:04Z</time>
      </trkpt>
      <trkpt lat="40.8052350" lon="-4.0554670">
        <ele>1710.0</ele>
        <time>2019-04-28T08:07:05Z</time>
      </trkpt>
      <trkpt lat="40.8052330" lon="-4.0554820">
        <ele>1710.0</ele>
        <time>2019-04-28T08:07:06Z</time>
      </trkpt>
      <trkpt lat="40.8052030" lon="-4.0555190">
        <ele>1710.2</ele>
        <time>2019-04-28T08:07:07Z</time>
      </trkpt>
      <trkpt lat="40.8051820" lon="-4.0555480">
        <ele>1710.2</ele>
        <time>2019-04-28T08:07:08Z</time>
      </trkpt>
      <trkpt lat="40.8051780" lon="-4.0555700">
        <ele>1710.4</ele>
        <time>2019-04-28T08:07:09Z</time>
      </trkpt>
      <trkpt lat="40.8051630" lon="-4.0555950">
        <ele>1710.4</ele>
        <time>2019-04-28T08:07:10Z</time>
      </trkpt>
      <trkpt lat="40.8051460" lon="-4.0556280">
        <ele>1710.6</ele>
        <time>2019-04-28T08:07:11Z</time>
      </trkpt>
      <trkpt lat="40.8051360" lon="-4.0556550">
        <ele>1710.8</ele>
        <time>2019-04-28T08:07:12Z</time>
      </trkpt>
      <trkpt lat="40.8051250" lon="-4.0556780">
        <ele>1710.8</ele>
        <time>2019-04-28T08:07:13Z</time>
      </trkpt>
      <trkpt lat="40.8051040" lon="-4.0556960">
        <ele>1711.0</ele>
        <time>2019-04-28T08:07:14Z</time>
      </trkpt>
      <trkpt lat="40.8050910" lon="-4.0557190">
        <ele>1711.0</ele>
        <time>2019-04-28T08:07:15Z</time>
      </trkpt>
      <trkpt lat="40.8050690" lon="-4.0557490">
        <ele>1711.2</ele>
        <time>2019-04-28T08:07:16Z</time>
      </trkpt>
      <trkpt lat="40.8050480" lon="-4.0557810">
        <ele>1711.4</ele>
        <time>2019-04-28T08:07:17Z</time>
      </trkpt>
      <trkpt lat="40.8050310" lon="-4.0558140">
        <ele>1711.4</ele>
        <time>2019-04-28T08:07:18Z</time>
      </trkpt>
      <trkpt lat="40.8050070" lon="-4.0558470">
        <ele>1711.6</ele>
        <time>2019-04-28T08:07:19Z</time>
      </trkpt>
      <trkpt lat="40.8049880" lon="-4.0558640">
        <ele>1711.6</ele>
        <time>2019-04-28T08:07:20Z</time>
      </trkpt>
      <trkpt lat="40.8049740" lon="-4.0558910">
        <ele>1711.8</ele>
        <time>2019-04-28T08:07:21Z</time>
      </trkpt>
      <trkpt lat="40.8049510" lon="-4.0559230">
        <ele>1712.0</ele>
        <time>2019-04-28T08:07:22Z</time>
      </trkpt>
      <trkpt lat="40.8049320" lon="-4.0559530">
        <ele>1712.0</ele>
        <time>2019-04-28T08:07:23Z</time>
      </trkpt>
      <trkpt lat="40.8049180" lon="-4.0559940">
        <ele>1712.2</ele>
        <time>2019-04-28T08:07:24Z</time>
      </trkpt>
      <trkpt lat="40.8049040" lon="-4.0560240">
        <ele>1712.2</ele>
        <time>2019-04-28T08:07:25Z</time>
      </trkpt>
      <trkpt lat="40.8048900" lon="-4.0560330">
        <ele>1712.4</ele>
        <time>2019-04-28T08:07:26Z</time>
      </trkpt>
      <trkpt lat="40.8048660" lon="-4.0560720">
        <ele>1712.6</ele>
        <time>2019-04-28T08:07:27Z</time>
      </trkpt>
      <trkpt lat="40.8048500" lon="-4.0561010">
        <ele>1712.8</ele>
        <time>2019-04-28T08:07:28Z</time>
      </trkpt>
      <trkpt lat="40.8048390" lon="-4.0561280">
        <ele>1713.0</ele>
        <time>2019-04-28T08:07:29Z</time>
      </trkpt>
      <trkpt lat="40.8048220" lon="-4.0561590">
        <ele>1713.0</ele>
        <time>2019-04-28T08:07:30Z</time>
      </trkpt>
      <trkpt lat="40.8047990" lon="-4.0561970">
        <ele>1713.2</ele>
        <time>2019-04-28T08:07:31Z</time>
      </trkpt>
      <trkpt lat="40.8047880" lon="-4.0562260">
        <ele>1713.4</ele>
        <time>2019-04-28T08:07:32Z</time>
      </trkpt>
      <trkpt lat="40.8047740" lon="-4.0562490">
        <ele>1713.4</ele>
        <time>2019-04-28T08:07:33Z</time>
      </trkpt>
      <trkpt lat="40.8047640" lon="-4.0562650">
        <ele>1713.6</ele>
        <time>2019-04-28T08:07:34Z</time>
      </trkpt>
      <trkpt lat="40.8047550" lon="-4.0562920">
        <ele>1713.6</ele>
        <time>2019-04-28T08:07:35Z</time>
      </trkpt>
      <trkpt lat="40.8047440" lon="-4.0563200">
        <ele>1713.8</ele>
        <time>2019-04-28T08:07:36Z</time>
      </trkpt>
      <trkpt lat="40.8047260" lon="-4.0563390">
        <ele>1714.0</ele>
        <time>2019-04-28T08:07:37Z</time>
      </trkpt>
      <trkpt lat="40.8047150" lon="-4.0563580">
        <ele>1714.0</ele>
        <time>2019-04-28T08:07:38Z</time>
      </trkpt>
      <trkpt lat="40.8047010" lon="-4.0563830">
        <ele>1714.2</ele>
        <time>2019-04-28T08:07:39Z</time>
      </trkpt>
      <trkpt lat="40.8046890" lon="-4.0564090">
        <ele>1714.4</ele>
        <time>2019-04-28T08:07:40Z</time>
      </trkpt>
      <trkpt lat="40.8046650" lon="-4.0564170">
        <ele>1714.4</ele>
        <time>2019-04-28T08:07:41Z</time>
      </trkpt>
      <trkpt lat="40.8046560" lon="-4.0564530">
        <ele>1714.6</ele>
        <time>2019-04-28T08:07:42Z</time>
      </trkpt>
      <trkpt lat="40.8046510" lon="-4.0564760">
        <ele>1714.8</ele>
        <time>2019-04-28T08:07:43Z</time>
      </trkpt>
      <trkpt lat="40.8046430" lon="-4.0565000">
        <ele>1714.8</ele>
        <time>2019-04-28T08:07:44Z</time>
      </trkpt>
      <trkpt lat="40.8046440" lon="-4.0565370">
        <ele>1715.0</ele>
        <time>2019-04-28T08:07:45Z</time>
      </trkpt>
      <trkpt lat="40.8046380" lon="-4.0565660">
        <ele>1715.2</ele>
        <time>2019-04-28T08:07:46Z</time>
      </trkpt>
      <trkpt lat="40.8046300" lon="-4.0565990">
        <ele>1715.2</ele>
        <time>2019-04-28T08:07:47Z</time>
      </trkpt>
      <trkpt lat="40.8046280" lon="-4.0566230">
        <ele>1715.2</ele>
        <time>2019-04-28T08:07:48Z</time>
      </trkpt>
      <trkpt lat="40.8046250" lon="-4.0566420">
        <ele>1715.4</ele>
        <time>2019-04-28T08:07:49Z</time>
      </trkpt>
      <trkpt lat="40.8045920" lon="-4.0566850">
        <ele>1715.6</ele>
        <time>2019-04-28T08:07:50Z</time>
      </trkpt>
      <trkpt lat="40.8045640" lon="-4.0567140">
        <ele>1715.8</ele>
        <time>2019-04-28T08:07:51Z</time>
      </trkpt>
      <trkpt lat="40.8045580" lon="-4.0567500">
        <ele>1716.0</ele>
        <time>2019-04-28T08:07:52Z</time>
      </trkpt>
      <trkpt lat="40.8045340" lon="-4.0567940">
        <ele>1716.0</ele>
        <time>2019-04-28T08:07:53Z</time>
      </trkpt>
      <trkpt lat="40.8045130" lon="-4.0568420">
        <ele>1716.2</ele>
        <time>2019-04-28T08:07:54Z</time>
      </trkpt>
      <trkpt lat="40.8044980" lon="-4.0568780">
        <ele>1716.4</ele>
        <time>2019-04-28T08:07:55Z</time>
      </trkpt>
      <trkpt lat="40.8044770" lon="-4.0569210">
        <ele>1716.4</ele>
        <time>2019-04-28T08:07:56Z</time>
      </trkpt>
      <trkpt lat="40.8044440" lon="-4.0569550">
        <ele>1716.6</ele>
        <time>2019-04-28T08:07:57Z</time>
      </trkpt>
      <trkpt lat="40.8044200" lon="-4.0569910">
        <ele>1716.8</ele>
        <time>2019-04-28T08:07:58Z</time>
      </trkpt>
      <trkpt lat="40.8043950" lon="-4.0570240">
        <ele>1716.8</ele>
        <time>2019-04-28T08:07:59Z</time>
      </trkpt>
      <trkpt lat="40.8043720" lon="-4.0570580">
        <ele>1717.0</ele>
        <time>2019-04-28T08:08:00Z</time>
      </trkpt>
      <trkpt lat="40.8043660" lon="-4.0570890">
        <ele>1717.2</ele>
        <time>2019-04-28T08:08:01Z</time>
      </trkpt>
      <trkpt lat="40.8043530" lon="-4.0571210">
        <ele>1717.4</ele>
        <time>2019-04-28T08:08:02Z</time>
      </trkpt>
      <trkpt lat="40.8043370" lon="-4.0571580">
        <ele>1717.4</ele>
        <time>2019-04-28T08:08:03Z</time>
      </trkpt>
      <trkpt lat="40.8043270" lon="-4.0571940">
        <ele>1717.6</ele>
        <time>2019-04-28T08:08:04Z</time>
      </trkpt>
      <trkpt lat="40.8043300" lon="-4.0572370">
        <ele>1717.8</ele>
        <time>2019-04-28T08:08:05Z</time>
      </trkpt>
      <trkpt lat="40.8043150" lon="-4.0572750">
        <ele>1718.0</ele>
        <time>2019-04-28T08:08:06Z</time>
      </trkpt>
      <trkpt lat="40.8043000" lon="-4.0573080">
        <ele>1718.2</ele>
        <time>2019-04-28T08:08:07Z</time>
      </trkpt>
      <trkpt lat="40.8042870" lon="-4.0573350">
        <ele>1718.2</ele>
        <time>2019-04-28T08:08:08Z</time>
      </trkpt>
      <trkpt lat="40.8042720" lon="-4.0573670">
        <ele>1718.4</ele>
        <time>2019-04-28T08:08:09Z</time>
      </trkpt>
      <trkpt lat="40.8042520" lon="-4.0574030">
        <ele>1718.6</ele>
        <time>2019-04-28T08:08:10Z</time>
      </trkpt>
      <trkpt lat="40.8042310" lon="-4.0574390">
        <ele>1718.8</ele>
        <time>2019-04-28T08:08:11Z</time>
      </trkpt>
      <trkpt lat="40.8042350" lon="-4.0574680">
        <ele>1719.0</ele>
        <time>2019-04-28T08:08:12Z</time>
      </trkpt>
      <trkpt lat="40.8042310" lon="-4.0574960">
        <ele>1719.2</ele>
        <time>2019-04-28T08:08:13Z</time>
      </trkpt>
      <trkpt lat="40.8042180" lon="-4.0575190">
        <ele>1719.4</ele>
        <time>2019-04-28T08:08:14Z</time>
      </trkpt>
      <trkpt lat="40.8042110" lon="-4.0575390">
        <ele>1719.4</ele>
        <time>2019-04-28T08:08:15Z</time>
      </trkpt>
      <trkpt lat="40.8042010" lon="-4.0575630">
        <ele>1719.6</ele>
        <time>2019-04-28T08:08:16Z</time>
      </trkpt>
      <trkpt lat="40.8041920" lon="-4.0575860">
        <ele>1719.8</ele>
        <time>2019-04-28T08:08:17Z</time>
      </trkpt>
      <trkpt lat="40.8041820" lon="-4.0576050">
        <ele>1720.0</ele>
        <time>2019-04-28T08:08:18Z</time>
      </trkpt>
      <trkpt lat="40.8041650" lon="-4.0576290">
        <ele>1720.2</ele>
        <time>2019-04-28T08:08:19Z</time>
      </trkpt>
      <trkpt lat="40.8041520" lon="-4.0576560">
        <ele>1720.4</ele>
        <time>2019-04-28T08:08:20Z</time>
      </trkpt>
      <trkpt lat="40.8041290" lon="-4.0576860">
        <ele>1720.6</ele>
        <time>2019-04-28T08:08:21Z</time>
      </trkpt>
      <trkpt lat="40.8041220" lon="-4.0577170">
        <ele>1720.6</ele>
        <time>2019-04-28T08:08:22Z</time>
      </trkpt>
      <trkpt lat="40.8040950" lon="-4.0577570">
        <ele>1720.8</ele>
        <time>2019-04-28T08:08:23Z</time>
      </trkpt>
      <trkpt lat="40.8040660" lon="-4.0577950">
        <ele>1721.0</ele>
        <time>2019-04-28T08:08:24Z</time>
      </trkpt>
      <trkpt lat="40.8040390" lon="-4.0578290">
        <ele>1721.2</ele>
        <time>2019-04-28T08:08:25Z</time>
      </trkpt>
      <trkpt lat="40.8040190" lon="-4.0578580">
        <ele>1721.4</ele>
        <time>2019-04-28T08:08:26Z</time>
      </trkpt>
      <trkpt lat="40.8039960" lon="-4.0578820">
        <ele>1721.6</ele>
        <time>2019-04-28T08:08:27Z</time>
      </trkpt>
      <trkpt lat="40.8039950" lon="-4.0579300">
        <ele>1721.6</ele>
        <time>2019-04-28T08:08:28Z</time>
      </trkpt>
      <trkpt lat="40.8039730" lon="-4.0579650">
        <ele>1721.6</ele>
        <time>2019-04-28T08:08:29Z</time>
      </trkpt>
      <trkpt lat="40.8039510" lon="-4.0579940">
        <ele>1721.8</ele>
        <time>2019-04-28T08:08:30Z</time>
      </trkpt>
      <trkpt lat="40.8039210" lon="-4.0580150">
        <ele>1722.0</ele>
        <time>2019-04-28T08:08:31Z</time>
      </trkpt>
      <trkpt lat="40.8038890" lon="-4.0580350">
        <ele>1722.0</ele>
        <time>2019-04-28T08:08:32Z</time>
      </trkpt>
      <trkpt lat="40.8038610" lon="-4.0580640">
        <ele>1722.2</ele>
        <time>2019-04-28T08:08:33Z</time>
      </trkpt>
      <trkpt lat="40.8038300" lon="-4.0580880">
        <ele>1722.4</ele>
        <time>2019-04-28T08:08:34Z</time>
      </trkpt>
      <trkpt lat="40.8038120" lon="-4.0581060">
        <ele>1722.4</ele>
        <time>2019-04-28T08:08:35Z</time>
      </trkpt>
      <trkpt lat="40.8037770" lon="-4.0581270">
        <ele>1722.6</ele>
        <time>2019-04-28T08:08:36Z</time>
      </trkpt>
      <trkpt lat="40.8037440" lon="-4.0581440">
        <ele>1722.6</ele>
        <time>2019-04-28T08:08:37Z</time>
      </trkpt>
      <trkpt lat="40.8037120" lon="-4.0581670">
        <ele>1722.6</ele>
        <time>2019-04-28T08:08:38Z</time>
      </trkpt>
      <trkpt lat="40.8036790" lon="-4.0581880">
        <ele>1722.8</ele>
        <time>2019-04-28T08:08:39Z</time>
      </trkpt>
      <trkpt lat="40.8036360" lon="-4.0582170">
        <ele>1722.8</ele>
        <time>2019-04-28T08:08:40Z</time>
      </trkpt>
      <trkpt lat="40.8036050" lon="-4.0582450">
        <ele>1723.0</ele>
        <time>2019-04-28T08:08:41Z</time>
      </trkpt>
      <trkpt lat="40.8035640" lon="-4.0582720">
        <ele>1723.2</ele>
        <time>2019-04-28T08:08:42Z</time>
      </trkpt>
      <trkpt lat="40.8035400" lon="-4.0582920">
        <ele>1723.2</ele>
        <time>2019-04-28T08:08:43Z</time>
      </trkpt>
      <trkpt lat="40.8034940" lon="-4.0583080">
        <ele>1723.4</ele>
        <time>2019-04-28T08:08:44Z</time>
      </trkpt>
      <trkpt lat="40.8034710" lon="-4.0583240">
        <ele>1723.6</ele>
        <time>2019-04-28T08:08:45Z</time>
      </trkpt>
      <trkpt lat="40.8034410" lon="-4.0583430">
        <ele>1723.8</ele>
        <time>2019-04-28T08:08:46Z</time>
      </trkpt>
      <trkpt lat="40.8034140" lon="-4.0583650">
        <ele>1723.8</ele>
        <time>2019-04-28T08:08:47Z</time>
      </trkpt>
      <trkpt lat="40.8033800" lon="-4.0583770">
        <ele>1724.0</ele>
        <time>2019-04-28T08:08:48Z</time>
      </trkpt>
      <trkpt lat="40.8033610" lon="-4.0583950">
        <ele>1724.2</ele>
        <time>2019-04-28T08:08:49Z</time>
      </trkpt>
      <trkpt lat="40.8033370" lon="-4.0584120">
        <ele>1724.2</ele>
        <time>2019-04-28T08:08:50Z</time>
      </trkpt>
      <trkpt lat="40.8033070" lon="-4.0584260">
        <ele>1724.2</ele>
        <time>2019-04-28T08:08:51Z</time>
      </trkpt>
      <trkpt lat="40.8032840" lon="-4.0584440">
        <ele>1724.4</ele>
        <time>2019-04-28T08:08:52Z</time>
      </trkpt>
      <trkpt lat="40.8032560" lon="-4.0584630">
        <ele>1724.6</ele>
        <time>2019-04-28T08:08:53Z</time>
      </trkpt>
      <trkpt lat="40.8032380" lon="-4.0584880">
        <ele>1724.6</ele>
        <time>2019-04-28T08:08:54Z</time>
      </trkpt>
      <trkpt lat="40.8032260" lon="-4.0585030">
        <ele>1724.8</ele>
        <time>2019-04-28T08:08:55Z</time>
      </trkpt>
      <trkpt lat="40.8032060" lon="-4.0585200">
        <ele>1724.8</ele>
        <time>2019-04-28T08:08:56Z</time>
      </trkpt>
      <trkpt lat="40.8031740" lon="-4.0585370">
        <ele>1725.0</ele>
        <time>2019-04-28T08:08:57Z</time>
      </trkpt>
      <trkpt lat="40.8031450" lon="-4.0585540">
        <ele>1725.2</ele>
        <time>2019-04-28T08:08:58Z</time>
      </trkpt>
      <trkpt lat="40.8031280" lon="-4.0585720">
        <ele>1725.2</ele>
        <time>2019-04-28T08:08:59Z</time>
      </trkpt>
      <trkpt lat="40.8031100" lon="-4.0585870">
        <ele>1725.4</ele>
        <time>2019-04-28T08:09:00Z</time>
      </trkpt>
      <trkpt lat="40.8030800" lon="-4.0585970">
        <ele>1725.6</ele>
        <time>2019-04-28T08:09:01Z</time>
      </trkpt>
      <trkpt lat="40.8030570" lon="-4.0586150">
        <ele>1725.6</ele>
        <time>2019-04-28T08:09:02Z</time>
      </trkpt>
      <trkpt lat="40.8030450" lon="-4.0586310">
        <ele>1725.8</ele>
        <time>2019-04-28T08:09:03Z</time>
      </trkpt>
      <trkpt lat="40.8030200" lon="-4.0586370">
        <ele>1726.0</ele>
        <time>2019-04-28T08:09:04Z</time>
      </trkpt>
      <trkpt lat="40.8029870" lon="-4.0586400">
        <ele>1726.2</ele>
        <time>2019-04-28T08:09:05Z</time>
      </trkpt>
      <trkpt lat="40.8029420" lon="-4.0586530">
        <ele>1726.4</ele>
        <time>2019-04-28T08:09:06Z</time>
      </trkpt>
      <trkpt lat="40.8028990" lon="-4.0586640">
        <ele>1726.6</ele>
        <time>2019-04-28T08:09:07Z</time>
      </trkpt>
      <trkpt lat="40.8028630" lon="-4.0586680">
        <ele>1726.6</ele>
        <time>2019-04-28T08:09:08Z</time>
      </trkpt>
      <trkpt lat="40.8028230" lon="-4.0586770">
        <ele>1726.8</ele>
        <time>2019-04-28T08:09:09Z</time>
      </trkpt>
      <trkpt lat="40.8027950" lon="-4.0586960">
        <ele>1727.0</ele>
        <time>2019-04-28T08:09:10Z</time>
      </trkpt>
      <trkpt lat="40.8027650" lon="-4.0586990">
        <ele>1727.0</ele>
        <time>2019-04-28T08:09:11Z</time>
      </trkpt>
      <trkpt lat="40.8027310" lon="-4.0587000">
        <ele>1727.2</ele>
        <time>2019-04-28T08:09:12Z</time>
      </trkpt>
      <trkpt lat="40.8027050" lon="-4.0587030">
        <ele>1727.2</ele>
        <time>2019-04-28T08:09:13Z</time>
      </trkpt>
      <trkpt lat="40.8026690" lon="-4.0587020">
        <ele>1727.4</ele>
        <time>2019-04-28T08:09:14Z</time>
      </trkpt>
      <trkpt lat="40.8026500" lon="-4.0586940">
        <ele>1727.6</ele>
        <time>2019-04-28T08:09:15Z</time>
      </trkpt>
      <trkpt lat="40.8026230" lon="-4.0586870">
        <ele>1727.6</ele>
        <time>2019-04-28T08:09:16Z</time>
      </trkpt>
      <trkpt lat="40.8025840" lon="-4.0586770">
        <ele>1727.8</ele>
        <time>2019-04-28T08:09:17Z</time>
      </trkpt>
      <trkpt lat="40.8025490" lon="-4.0586680">
        <ele>1727.8</ele>
        <time>2019-04-28T08:09:18Z</time>
      </trkpt>
      <trkpt lat="40.8025170" lon="-4.0586570">
        <ele>1728.0</ele>
        <time>2019-04-28T08:09:19Z</time>
      </trkpt>
      <trkpt lat="40.8024880" lon="-4.0586480">
        <ele>1728.2</ele>
        <time>2019-04-28T08:09:20Z</time>
      </trkpt>
      <trkpt lat="40.8024630" lon="-4.0586410">
        <ele>1728.2</ele>
        <time>2019-04-28T08:09:21Z</time>
      </trkpt>
      <trkpt lat="40.8024370" lon="-4.0586370">
        <ele>1728.4</ele>
        <time>2019-04-28T08:09:22Z</time>
      </trkpt>
      <trkpt lat="40.8024140" lon="-4.0586210">
        <ele>1728.4</ele>
        <time>2019-04-28T08:09:23Z</time>
      </trkpt>
      <trkpt lat="40.8023930" lon="-4.0586170">
        <ele>1728.6</ele>
        <time>2019-04-28T08:09:24Z</time>
      </trkpt>
      <trkpt lat="40.8023710" lon="-4.0586150">
        <ele>1728.6</ele>
        <time>2019-04-28T08:09:25Z</time>
      </trkpt>
      <trkpt lat="40.8023390" lon="-4.0585990">
        <ele>1728.8</ele>
        <time>2019-04-28T08:09:26Z</time>
      </trkpt>
      <trkpt lat="40.8023100" lon="-4.0585920">
        <ele>1728.8</ele>
        <time>2019-04-28T08:09:27Z</time>
      </trkpt>
      <trkpt lat="40.8022820" lon="-4.0585820">
        <ele>1729.0</ele>
        <time>2019-04-28T08:09:28Z</time>
      </trkpt>
      <trkpt lat="40.8022510" lon="-4.0585700">
        <ele>1729.0</ele>
        <time>2019-04-28T08:09:29Z</time>
      </trkpt>
      <trkpt lat="40.8022270" lon="-4.0585680">
        <ele>1729.2</ele>
        <time>2019-04-28T08:09:30Z</time>
      </trkpt>
      <trkpt lat="40.8022060" lon="-4.0585640">
        <ele>1729.6</ele>
        <time>2019-04-28T08:09:31Z</time>
      </trkpt>
      <trkpt lat="40.8021800" lon="-4.0585620">
        <ele>1729.8</ele>
        <time>2019-04-28T08:09:32Z</time>
      </trkpt>
      <trkpt lat="40.8021500" lon="-4.0585580">
        <ele>1729.8</ele>
        <time>2019-04-28T08:09:33Z</time>
      </trkpt>
      <trkpt lat="40.8021290" lon="-4.0585520">
        <ele>1730.0</ele>
        <time>2019-04-28T08:09:34Z</time>
      </trkpt>
      <trkpt lat="40.8021020" lon="-4.0585510">
        <ele>1730.0</ele>
        <time>2019-04-28T08:09:35Z</time>
      </trkpt>
      <trkpt lat="40.8020860" lon="-4.0585500">
        <ele>1730.2</ele>
        <time>2019-04-28T08:09:36Z</time>
      </trkpt>
      <trkpt lat="40.8020740" lon="-4.0585420">
        <ele>1730.4</ele>
        <time>2019-04-28T08:09:37Z</time>
      </trkpt>
      <trkpt lat="40.8020510" lon="-4.0585420">
        <ele>1730.4</ele>
        <time>2019-04-28T08:09:38Z</time>
      </trkpt>
      <trkpt lat="40.8020330" lon="-4.0585410">
        <ele>1730.6</ele>
        <time>2019-04-28T08:09:39Z</time>
      </trkpt>
      <trkpt lat="40.8020080" lon="-4.0585420">
        <ele>1730.8</ele>
        <time>2019-04-28T08:09:40Z</time>
      </trkpt>
      <trkpt lat="40.8019890" lon="-4.0585560">
        <ele>1730.8</ele>
        <time>2019-04-28T08:09:41Z</time>
      </trkpt>
      <trkpt lat="40.8019650" lon="-4.0585590">
        <ele>1731.0</ele>
        <time>2019-04-28T08:09:42Z</time>
      </trkpt>
      <trkpt lat="40.8019410" lon="-4.0585540">
        <ele>1731.2</ele>
        <time>2019-04-28T08:09:43Z</time>
      </trkpt>
      <trkpt lat="40.8019250" lon="-4.0585570">
        <ele>1731.2</ele>
        <time>2019-04-28T08:09:44Z</time>
      </trkpt>
      <trkpt lat="40.8019050" lon="-4.0585640">
        <ele>1731.4</ele>
        <time>2019-04-28T08:09:45Z</time>
      </trkpt>
      <trkpt lat="40.8018890" lon="-4.0585830">
        <ele>1731.6</ele>
        <time>2019-04-28T08:09:46Z</time>
      </trkpt>
      <trkpt lat="40.8018840" lon="-4.0585930">
        <ele>1731.8</ele>
        <time>2019-04-28T08:09:47Z</time>
      </trkpt>
      <trkpt lat="40.8018630" lon="-4.0586050">
        <ele>1732.0</ele>
        <time>2019-04-28T08:09:48Z</time>
      </trkpt>
      <trkpt lat="40.8018380" lon="-4.0586150">
        <ele>1732.0</ele>
        <time>2019-04-28T08:09:49Z</time>
      </trkpt>
      <trkpt lat="40.8018080" lon="-4.0586180">
        <ele>1732.2</ele>
        <time>2019-04-28T08:09:50Z</time>
      </trkpt>
      <trkpt lat="40.8017830" lon="-4.0586240">
        <ele>1732.4</ele>
        <time>2019-04-28T08:09:51Z</time>
      </trkpt>
      <trkpt lat="40.8017630" lon="-4.0586360">
        <ele>1732.6</ele>
        <time>2019-04-28T08:09:52Z</time>
      </trkpt>
      <trkpt lat="40.8017400" lon="-4.0586460">
        <ele>1732.6</ele>
        <time>2019-04-28T08:09:53Z</time>
      </trkpt>
      <trkpt lat="40.8017190" lon="-4.0586600">
        <ele>1732.8</ele>
        <time>2019-04-28T08:09:54Z</time>
      </trkpt>
      <trkpt lat="40.8017150" lon="-4.0586900">
        <ele>1733.0</ele>
        <time>2019-04-28T08:09:55Z</time>
      </trkpt>
      <trkpt lat="40.8016930" lon="-4.0586980">
        <ele>1733.0</ele>
        <time>2019-04-28T08:09:56Z</time>
      </trkpt>
      <trkpt lat="40.8016720" lon="-4.0587130">
        <ele>1733.2</ele>
        <time>2019-04-28T08:09:57Z</time>
      </trkpt>
      <trkpt lat="40.8016480" lon="-4.0587230">
        <ele>1733.4</ele>
        <time>2019-04-28T08:09:58Z</time>
      </trkpt>
      <trkpt lat="40.8016260" lon="-4.0587350">
        <ele>1733.4</ele>
        <time>2019-04-28T08:09:59Z</time>
      </trkpt>
      <trkpt lat="40.8016070" lon="-4.0587500">
        <ele>1733.6</ele>
        <time>2019-04-28T08:10:00Z</time>
      </trkpt>
      <trkpt lat="40.8015870" lon="-4.0587620">
        <ele>1733.8</ele>
        <time>2019-04-28T08:10:01Z</time>
      </trkpt>
      <trkpt lat="40.8015700" lon="-4.0587800">
        <ele>1733.8</ele>
        <time>2019-04-28T08:10:02Z</time>
      </trkpt>
      <trkpt lat="40.8015530" lon="-4.0587920">
        <ele>1734.0</ele>
        <time>2019-04-28T08:10:03Z</time>
      </trkpt>
      <trkpt lat="40.8015330" lon="-4.0588080">
        <ele>1734.0</ele>
        <time>2019-04-28T08:10:04Z</time>
      </trkpt>
      <trkpt lat="40.8015180" lon="-4.0588230">
        <ele>1734.2</ele>
        <time>2019-04-28T08:10:05Z</time>
      </trkpt>
      <trkpt lat="40.8014970" lon="-4.0588310">
        <ele>1734.2</ele>
        <time>2019-04-28T08:10:06Z</time>
      </trkpt>
      <trkpt lat="40.8014770" lon="-4.0588450">
        <ele>1734.4</ele>
        <time>2019-04-28T08:10:07Z</time>
      </trkpt>
      <trkpt lat="40.8014570" lon="-4.0588570">
        <ele>1734.4</ele>
        <time>2019-04-28T08:10:08Z</time>
      </trkpt>
      <trkpt lat="40.8014340" lon="-4.0588710">
        <ele>1734.6</ele>
        <time>2019-04-28T08:10:09Z</time>
      </trkpt>
      <trkpt lat="40.8014140" lon="-4.0588780">
        <ele>1734.8</ele>
        <time>2019-04-28T08:10:10Z</time>
      </trkpt>
      <trkpt lat="40.8013940" lon="-4.0588980">
        <ele>1734.8</ele>
        <time>2019-04-28T08:10:11Z</time>
      </trkpt>
      <trkpt lat="40.8013720" lon="-4.0589170">
        <ele>1735.0</ele>
        <time>2019-04-28T08:10:12Z</time>
      </trkpt>
      <trkpt lat="40.8013450" lon="-4.0589310">
        <ele>1735.0</ele>
        <time>2019-04-28T08:10:13Z</time>
      </trkpt>
      <trkpt lat="40.8013260" lon="-4.0589460">
        <ele>1735.2</ele>
        <time>2019-04-28T08:10:14Z</time>
      </trkpt>
      <trkpt lat="40.8012990" lon="-4.0589600">
        <ele>1735.4</ele>
        <time>2019-04-28T08:10:15Z</time>
      </trkpt>
      <trkpt lat="40.8012840" lon="-4.0589760">
        <ele>1735.4</ele>
        <time>2019-04-28T08:10:16Z</time>
      </trkpt>
      <trkpt lat="40.8012600" lon="-4.0589910">
        <ele>1735.6</ele>
        <time>2019-04-28T08:10:17Z</time>
      </trkpt>
      <trkpt lat="40.8012380" lon="-4.0590120">
        <ele>1735.8</ele>
        <time>2019-04-28T08:10:18Z</time>
      </trkpt>
      <trkpt lat="40.8012110" lon="-4.0590280">
        <ele>1735.8</ele>
        <time>2019-04-28T08:10:19Z</time>
      </trkpt>
      <trkpt lat="40.8011930" lon="-4.0590430">
        <ele>1736.0</ele>
        <time>2019-04-28T08:10:20Z</time>
      </trkpt>
      <trkpt lat="40.8011730" lon="-4.0590570">
        <ele>1736.0</ele>
        <time>2019-04-28T08:10:21Z</time>
      </trkpt>
      <trkpt lat="40.8011520" lon="-4.0590840">
        <ele>1736.2</ele>
        <time>2019-04-28T08:10:22Z</time>
      </trkpt>
      <trkpt lat="40.8011400" lon="-4.0591080">
        <ele>1736.4</ele>
        <time>2019-04-28T08:10:23Z</time>
      </trkpt>
      <trkpt lat="40.8011240" lon="-4.0591430">
        <ele>1736.4</ele>
        <time>2019-04-28T08:10:24Z</time>
      </trkpt>
      <trkpt lat="40.8011050" lon="-4.0591730">
        <ele>1736.6</ele>
        <time>2019-04-28T08:10:25Z</time>
      </trkpt>
      <trkpt lat="40.8010890" lon="-4.0591940">
        <ele>1736.8</ele>
        <time>2019-04-28T08:10:26Z</time>
      </trkpt>
      <trkpt lat="40.8010720" lon="-4.0592140">
        <ele>1737.0</ele>
        <time>2019-04-28T08:10:27Z</time>
      </trkpt>
      <trkpt lat="40.8010490" lon="-4.0592350">
        <ele>1737.0</ele>
        <time>2019-04-28T08:10:28Z</time>
      </trkpt>
      <trkpt lat="40.8010220" lon="-4.0592610">
        <ele>1737.2</ele>
        <time>2019-04-28T08:10:29Z</time>
      </trkpt>
      <trkpt lat="40.8009950" lon="-4.0592850">
        <ele>1737.4</ele>
        <time>2019-04-28T08:10:30Z</time>
      </trkpt>
      <trkpt lat="40.8009770" lon="-4.0593100">
        <ele>1737.4</ele>
        <time>2019-04-28T08:10:31Z</time>
      </trkpt>
      <trkpt lat="40.8009670" lon="-4.0593310">
        <ele>1737.6</ele>
        <time>2019-04-28T08:10:32Z</time>
      </trkpt>
      <trkpt lat="40.8009480" lon="-4.0593530">
        <ele>1737.6</ele>
        <time>2019-04-28T08:10:33Z</time>
      </trkpt>
      <trkpt lat="40.8009270" lon="-4.0593730">
        <ele>1737.8</ele>
        <time>2019-04-28T08:10:34Z</time>
      </trkpt>
      <trkpt lat="40.8009100" lon="-4.0593990">
        <ele>1738.0</ele>
        <time>2019-04-28T08:10:35Z</time>
      </trkpt>
      <trkpt lat="40.8008960" lon="-4.0594290">
        <ele>1738.2</ele>
        <time>2019-04-28T08:10:36Z</time>
      </trkpt>
      <trkpt lat="40.8008730" lon="-4.0594390">
        <ele>1738.2</ele>
        <time>2019-04-28T08:10:37Z</time>
      </trkpt>
      <trkpt lat="40.8008480" lon="-4.0594610">
        <ele>1738.4</ele>
        <time>2019-04-28T08:10:38Z</time>
      </trkpt>
      <trkpt lat="40.8008260" lon="-4.0594870">
        <ele>1738.6</ele>
        <time>2019-04-28T08:10:39Z</time>
      </trkpt>
      <trkpt lat="40.8008030" lon="-4.0595140">
        <ele>1738.6</ele>
        <time>2019-04-28T08:10:40Z</time>
      </trkpt>
      <trkpt lat="40.8007800" lon="-4.0595410">
        <ele>1738.6</ele>
        <time>2019-04-28T08:10:41Z</time>
      </trkpt>
      <trkpt lat="40.8007560" lon="-4.0595600">
        <ele>1738.8</ele>
        <time>2019-04-28T08:10:42Z</time>
      </trkpt>
      <trkpt lat="40.8007290" lon="-4.0595790">
        <ele>1739.0</ele>
        <time>2019-04-28T08:10:43Z</time>
      </trkpt>
      <trkpt lat="40.8007060" lon="-4.0595950">
        <ele>1739.0</ele>
        <time>2019-04-28T08:10:44Z</time>
      </trkpt>
      <trkpt lat="40.8006860" lon="-4.0596120">
        <ele>1739.2</ele>
        <time>2019-04-28T08:10:45Z</time>
      </trkpt>
      <trkpt lat="40.8006460" lon="-4.0596310">
        <ele>1739.2</ele>
        <time>2019-04-28T08:10:46Z</time>
      </trkpt>
      <trkpt lat="40.8006020" lon="-4.0596540">
        <ele>1739.4</ele>
        <time>2019-04-28T08:10:47Z</time>
      </trkpt>
      <trkpt lat="40.8005580" lon="-4.0596800">
        <ele>1739.2</ele>
        <time>2019-04-28T08:10:48Z</time>
      </trkpt>
      <trkpt lat="40.8005260" lon="-4.0596940">
        <ele>1739.4</ele>
        <time>2019-04-28T08:10:49Z</time>
      </trkpt>
      <trkpt lat="40.8004910" lon="-4.0597140">
        <ele>1739.6</ele>
        <time>2019-04-28T08:10:50Z</time>
      </trkpt>
      <trkpt lat="40.8004620" lon="-4.0597280">
        <ele>1739.6</ele>
        <time>2019-04-28T08:10:51Z</time>
      </trkpt>
      <trkpt lat="40.8004240" lon="-4.0597450">
        <ele>1739.8</ele>
        <time>2019-04-28T08:10:52Z</time>
      </trkpt>
      <trkpt lat="40.8004020" lon="-4.0597550">
        <ele>1739.8</ele>
        <time>2019-04-28T08:10:53Z</time>
      </trkpt>
      <trkpt lat="40.8003790" lon="-4.0597670">
        <ele>1740.0</ele>
        <time>2019-04-28T08:10:54Z</time>
      </trkpt>
      <trkpt lat="40.8003470" lon="-4.0597780">
        <ele>1740.0</ele>
        <time>2019-04-28T08:10:55Z</time>
      </trkpt>
      <trkpt lat="40.8003050" lon="-4.0597860">
        <ele>1740.0</ele>
        <time>2019-04-28T08:10:56Z</time>
      </trkpt>
      <trkpt lat="40.8002690" lon="-4.0598050">
        <ele>1740.0</ele>
        <time>2019-04-28T08:10:57Z</time>
      </trkpt>
      <trkpt lat="40.8002360" lon="-4.0598230">
        <ele>1740.2</ele>
        <time>2019-04-28T08:10:58Z</time>
      </trkpt>
      <trkpt lat="40.8002060" lon="-4.0598350">
        <ele>1740.2</ele>
        <time>2019-04-28T08:10:59Z</time>
      </trkpt>
      <trkpt lat="40.8001780" lon="-4.0598510">
        <ele>1740.4</ele>
        <time>2019-04-28T08:11:00Z</time>
      </trkpt>
      <trkpt lat="40.8001410" lon="-4.0598700">
        <ele>1740.4</ele>
        <time>2019-04-28T08:11:01Z</time>
      </trkpt>
      <trkpt lat="40.8001250" lon="-4.0598760">
        <ele>1740.6</ele>
        <time>2019-04-28T08:11:02Z</time>
      </trkpt>
      <trkpt lat="40.8000950" lon="-4.0598780">
        <ele>1740.6</ele>
        <time>2019-04-28T08:11:03Z</time>
      </trkpt>
      <trkpt lat="40.8000720" lon="-4.0598870">
        <ele>1740.8</ele>
        <time>2019-04-28T08:11:04Z</time>
      </trkpt>
      <trkpt lat="40.8000430" lon="-4.0598980">
        <ele>1740.8</ele>
        <time>2019-04-28T08:11:05Z</time>
      </trkpt>
      <trkpt lat="40.8000190" lon="-4.0599110">
        <ele>1741.0</ele>
        <time>2019-04-28T08:11:06Z</time>
      </trkpt>
      <trkpt lat="40.7999990" lon="-4.0599200">
        <ele>1741.0</ele>
        <time>2019-04-28T08:11:07Z</time>
      </trkpt>
      <trkpt lat="40.7999710" lon="-4.0599310">
        <ele>1741.2</ele>
        <time>2019-04-28T08:11:08Z</time>
      </trkpt>
      <trkpt lat="40.7999490" lon="-4.0599370">
        <ele>1741.4</ele>
        <time>2019-04-28T08:11:09Z</time>
      </trkpt>
      <trkpt lat="40.7999120" lon="-4.0599500">
        <ele>1741.4</ele>
        <time>2019-04-28T08:11:10Z</time>
      </trkpt>
      <trkpt lat="40.7998770" lon="-4.0599640">
        <ele>1741.6</ele>
        <time>2019-04-28T08:11:11Z</time>
      </trkpt>
      <trkpt lat="40.7998540" lon="-4.0599760">
        <ele>1741.8</ele>
        <time>2019-04-28T08:11:12Z</time>
      </trkpt>
      <trkpt lat="40.7998410" lon="-4.0599950">
        <ele>1741.8</ele>
        <time>2019-04-28T08:11:13Z</time>
      </trkpt>
      <trkpt lat="40.7998250" lon="-4.0600190">
        <ele>1742.0</ele>
        <time>2019-04-28T08:11:14Z</time>
      </trkpt>
      <trkpt lat="40.7997910" lon="-4.0600360">
        <ele>1742.2</ele>
        <time>2019-04-28T08:11:15Z</time>
      </trkpt>
      <trkpt lat="40.7997600" lon="-4.0600500">
        <ele>1742.2</ele>
        <time>2019-04-28T08:11:16Z</time>
      </trkpt>
      <trkpt lat="40.7997430" lon="-4.0600690">
        <ele>1742.4</ele>
        <time>2019-04-28T08:11:17Z</time>
      </trkpt>
      <trkpt lat="40.7997260" lon="-4.0600880">
        <ele>1742.6</ele>
        <time>2019-04-28T08:11:18Z</time>
      </trkpt>
      <trkpt lat="40.7997000" lon="-4.0601060">
        <ele>1742.6</ele>
        <time>2019-04-28T08:11:19Z</time>
      </trkpt>
      <trkpt lat="40.7996740" lon="-4.0601310">
        <ele>1742.8</ele>
        <time>2019-04-28T08:11:20Z</time>
      </trkpt>
      <trkpt lat="40.7996510" lon="-4.0601470">
        <ele>1743.0</ele>
        <time>2019-04-28T08:11:21Z</time>
      </trkpt>
      <trkpt lat="40.7996470" lon="-4.0601600">
        <ele>1743.2</ele>
        <time>2019-04-28T08:11:22Z</time>
      </trkpt>
      <trkpt lat="40.7996370" lon="-4.0601900">
        <ele>1743.4</ele>
        <time>2019-04-28T08:11:23Z</time>
      </trkpt>
      <trkpt lat="40.7996220" lon="-4.0602110">
        <ele>1743.4</ele>
        <time>2019-04-28T08:11:24Z</time>
      </trkpt>
      <trkpt lat="40.7995990" lon="-4.0602280">
        <ele>1743.6</ele>
        <time>2019-04-28T08:11:25Z</time>
      </trkpt>
      <trkpt lat="40.7995830" lon="-4.0602420">
        <ele>1743.8</ele>
        <time>2019-04-28T08:11:26Z</time>
      </trkpt>
      <trkpt lat="40.7995640" lon="-4.0602600">
        <ele>1744.0</ele>
        <time>2019-04-28T08:11:27Z</time>
      </trkpt>
      <trkpt lat="40.7995590" lon="-4.0602690">
        <ele>1744.0</ele>
        <time>2019-04-28T08:11:28Z</time>
      </trkpt>
      <trkpt lat="40.7995530" lon="-4.0602820">
        <ele>1744.2</ele>
        <time>2019-04-28T08:11:29Z</time>
      </trkpt>
      <trkpt lat="40.7995540" lon="-4.0602870">
        <ele>1744.2</ele>
        <time>2019-04-28T08:11:30Z</time>
      </trkpt>
      <trkpt lat="40.7995500" lon="-4.0603040">
        <ele>1744.4</ele>
        <time>2019-04-28T08:11:31Z</time>
      </trkpt>
      <trkpt lat="40.7995230" lon="-4.0603240">
        <ele>1744.6</ele>
        <time>2019-04-28T08:11:32Z</time>
      </trkpt>
      <trkpt lat="40.7995070" lon="-4.0603460">
        <ele>1744.8</ele>
        <time>2019-04-28T08:11:33Z</time>
      </trkpt>
      <trkpt lat="40.7994870" lon="-4.0603640">
        <ele>1744.8</ele>
        <time>2019-04-28T08:11:34Z</time>
      </trkpt>
      <trkpt lat="40.7994690" lon="-4.0603720">
        <ele>1745.0</ele>
        <time>2019-04-28T08:11:35Z</time>
      </trkpt>
      <trkpt lat="40.7994600" lon="-4.0603870">
        <ele>1745.2</ele>
        <time>2019-04-28T08:11:36Z</time>
      </trkpt>
      <trkpt lat="40.7994480" lon="-4.0604170">
        <ele>1745.2</ele>
        <time>2019-04-28T08:11:37Z</time>
      </trkpt>
      <trkpt lat="40.7994230" lon="-4.0604280">
        <ele>1745.4</ele>
        <time>2019-04-28T08:11:38Z</time>
      </trkpt>
      <trkpt lat="40.7994120" lon="-4.0604440">
        <ele>1745.6</ele>
        <time>2019-04-28T08:11:39Z</time>
      </trkpt>
      <trkpt lat="40.7994020" lon="-4.0604590">
        <ele>1745.8</ele>
        <time>2019-04-28T08:11:40Z</time>
      </trkpt>
      <trkpt lat="40.7993820" lon="-4.0604820">
        <ele>1746.0</ele>
        <time>2019-04-28T08:11:41Z</time>
      </trkpt>
      <trkpt lat="40.7993760" lon="-4.0605020">
        <ele>1746.2</ele>
        <time>2019-04-28T08:11:42Z</time>
      </trkpt>
      <trkpt lat="40.7993610" lon="-4.0605270">
        <ele>1746.4</ele>
        <time>2019-04-28T08:11:43Z</time>
      </trkpt>
      <trkpt lat="40.7993450" lon="-4.0605530">
        <ele>1746.6</ele>
        <time>2019-04-28T08:11:44Z</time>
      </trkpt>
      <trkpt lat="40.7993360" lon="-4.0605710">
        <ele>1746.8</ele>
        <time>2019-04-28T08:11:45Z</time>
      </trkpt>
      <trkpt lat="40.7993270" lon="-4.0605780">
        <ele>1746.8</ele>
        <time>2019-04-28T08:11:46Z</time>
      </trkpt>
      <trkpt lat="40.7993140" lon="-4.0606020">
        <ele>1747.0</ele>
        <time>2019-04-28T08:11:47Z</time>
      </trkpt>
      <trkpt lat="40.7993000" lon="-4.0606360">
        <ele>1747.2</ele>
        <time>2019-04-28T08:11:48Z</time>
      </trkpt>
      <trkpt lat="40.7992860" lon="-4.0606630">
        <ele>1747.2</ele>
        <time>2019-04-28T08:11:49Z</time>
      </trkpt>
      <trkpt lat="40.7992720" lon="-4.0606810">
        <ele>1747.4</ele>
        <time>2019-04-28T08:11:50Z</time>
      </trkpt>
      <trkpt lat="40.7992550" lon="-4.0607100">
        <ele>1747.4</ele>
        <time>2019-04-28T08:11:51Z</time>
      </trkpt>
      <trkpt lat="40.7992390" lon="-4.0607430">
        <ele>1747.6</ele>
        <time>2019-04-28T08:11:52Z</time>
      </trkpt>
      <trkpt lat="40.7992210" lon="-4.0607750">
        <ele>1747.8</ele>
        <time>2019-04-28T08:11:53Z</time>
      </trkpt>
      <trkpt lat="40.7992020" lon="-4.0607850">
        <ele>1748.0</ele>
        <time>2019-04-28T08:11:54Z</time>
      </trkpt>
      <trkpt lat="40.7991950" lon="-4.0608060">
        <ele>1748.2</ele>
        <time>2019-04-28T08:11:55Z</time>
      </trkpt>
      <trkpt lat="40.7991770" lon="-4.0608400">
        <ele>1748.4</ele>
        <time>2019-04-28T08:11:56Z</time>
      </trkpt>
      <trkpt lat="40.7991670" lon="-4.0608740">
        <ele>1748.6</ele>
        <time>2019-04-28T08:11:57Z</time>
      </trkpt>
      <trkpt lat="40.7991560" lon="-4.0609030">
        <ele>1748.8</ele>
        <time>2019-04-28T08:11:58Z</time>
      </trkpt>
      <trkpt lat="40.7991630" lon="-4.0609240">
        <ele>1748.8</ele>
        <time>2019-04-28T08:11:59Z</time>
      </trkpt>
      <trkpt lat="40.7991340" lon="-4.0609510">
        <ele>1748.8</ele>
        <time>2019-04-28T08:12:00Z</time>
      </trkpt>
      <trkpt lat="40.7991040" lon="-4.0609760">
        <ele>1749.0</ele>
        <time>2019-04-28T08:12:01Z</time>
      </trkpt>
      <trkpt lat="40.7990830" lon="-4.0609960">
        <ele>1749.2</ele>
        <time>2019-04-28T08:12:02Z</time>
      </trkpt>
      <trkpt lat="40.7990520" lon="-4.0610190">
        <ele>1749.4</ele>
        <time>2019-04-28T08:12:03Z</time>
      </trkpt>
      <trkpt lat="40.7990200" lon="-4.0610440">
        <ele>1749.6</ele>
        <time>2019-04-28T08:12:04Z</time>
      </trkpt>
      <trkpt lat="40.7989890" lon="-4.0610640">
        <ele>1749.6</ele>
        <time>2019-04-28T08:12:05Z</time>
      </trkpt>
      <trkpt lat="40.7989620" lon="-4.0610790">
        <ele>1749.8</ele>
        <time>2019-04-28T08:12:06Z</time>
      </trkpt>
      <trkpt lat="40.7989350" lon="-4.0611000">
        <ele>1750.0</ele>
        <time>2019-04-28T08:12:07Z</time>
      </trkpt>
      <trkpt lat="40.7989070" lon="-4.0611210">
        <ele>1750.0</ele>
        <time>2019-04-28T08:12:08Z</time>
      </trkpt>
      <trkpt lat="40.7988780" lon="-4.0611390">
        <ele>1750.2</ele>
        <time>2019-04-28T08:12:09Z</time>
      </trkpt>
      <trkpt lat="40.7988570" lon="-4.0611530">
        <ele>1750.4</ele>
        <time>2019-04-28T08:12:10Z</time>
      </trkpt>
      <trkpt lat="40.7988330" lon="-4.0611720">
        <ele>1750.4</ele>
        <time>2019-04-28T08:12:11Z</time>
      </trkpt>
      <trkpt lat="40.7988190" lon="-4.0611890">
        <ele>1750.6</ele>
        <time>2019-04-28T08:12:12Z</time>
      </trkpt>
      <trkpt lat="40.7987950" lon="-4.0612060">
        <ele>1750.6</ele>
        <time>2019-04-28T08:12:13Z</time>
      </trkpt>
      <trkpt lat="40.7987900" lon="-4.0612210">
        <ele>1750.8</ele>
        <time>2019-04-28T08:12:14Z</time>
      </trkpt>
      <trkpt lat="40.7987680" lon="-4.0612380">
        <ele>1751.0</ele>
        <time>2019-04-28T08:12:15Z</time>
      </trkpt>
      <trkpt lat="40.7987470" lon="-4.0612500">
        <ele>1751.0</ele>
        <time>2019-04-28T08:12:16Z</time>
      </trkpt>
      <trkpt lat="40.7987360" lon="-4.0612450">
        <ele>1751.2</ele>
        <time>2019-04-28T08:12:17Z</time>
      </trkpt>
      <trkpt lat="40.7987130" lon="-4.0612530">
        <ele>1751.4</ele>
        <time>2019-04-28T08:12:18Z</time>
      </trkpt>
      <trkpt lat="40.7986890" lon="-4.0612610">
        <ele>1751.6</ele>
        <time>2019-04-28T08:12:19Z</time>
      </trkpt>
      <trkpt lat="40.7986680" lon="-4.0612700">
        <ele>1751.6</ele>
        <time>2019-04-28T08:12:20Z</time>
      </trkpt>
      <trkpt lat="40.7986370" lon="-4.0612910">
        <ele>1751.6</ele>
        <time>2019-04-28T08:12:21Z</time>
      </trkpt>
      <trkpt lat="40.7986140" lon="-4.0613110">
        <ele>1751.6</ele>
        <time>2019-04-28T08:12:22Z</time>
      </trkpt>
      <trkpt lat="40.7985920" lon="-4.0613270">
        <ele>1751.6</ele>
        <time>2019-04-28T08:12:23Z</time>
      </trkpt>
      <trkpt lat="40.7985970" lon="-4.0613260">
        <ele>1751.8</ele>
        <time>2019-04-28T08:12:24Z</time>
      </trkpt>
      <trkpt lat="40.7985720" lon="-4.0613390">
        <ele>1751.8</ele>
        <time>2019-04-28T08:12:25Z</time>
      </trkpt>
      <trkpt lat="40.7985380" lon="-4.0613590">
        <ele>1752.0</ele>
        <time>2019-04-28T08:12:26Z</time>
      </trkpt>
      <trkpt lat="40.7985120" lon="-4.0613680">
        <ele>1752.2</ele>
        <time>2019-04-28T08:12:27Z</time>
      </trkpt>
      <trkpt lat="40.7984870" lon="-4.0613870">
        <ele>1752.2</ele>
        <time>2019-04-28T08:12:28Z</time>
      </trkpt>
      <trkpt lat="40.7984650" lon="-4.0613980">
        <ele>1752.4</ele>
        <time>2019-04-28T08:12:29Z</time>
      </trkpt>
      <trkpt lat="40.7984440" lon="-4.0614180">
        <ele>1752.6</ele>
        <time>2019-04-28T08:12:30Z</time>
      </trkpt>
      <trkpt lat="40.7984090" lon="-4.0614320">
        <ele>1752.6</ele>
        <time>2019-04-28T08:12:31Z</time>
      </trkpt>
      <trkpt lat="40.7983840" lon="-4.0614420">
        <ele>1752.6</ele>
        <time>2019-04-28T08:12:32Z</time>
      </trkpt>
      <trkpt lat="40.7983460" lon="-4.0614610">
        <ele>1752.8</ele>
        <time>2019-04-28T08:12:33Z</time>
      </trkpt>
      <trkpt lat="40.7983210" lon="-4.0614750">
        <ele>1753.0</ele>
        <time>2019-04-28T08:12:34Z</time>
      </trkpt>
      <trkpt lat="40.7983060" lon="-4.0614980">
        <ele>1753.0</ele>
        <time>2019-04-28T08:12:35Z</time>
      </trkpt>
      <trkpt lat="40.7982730" lon="-4.0615140">
        <ele>1753.2</ele>
        <time>2019-04-28T08:12:36Z</time>
      </trkpt>
      <trkpt lat="40.7982410" lon="-4.0615310">
        <ele>1753.4</ele>
        <time>2019-04-28T08:12:37Z</time>
      </trkpt>
      <trkpt lat="40.7982160" lon="-4.0615500">
        <ele>1753.6</ele>
        <time>2019-04-28T08:12:38Z</time>
      </trkpt>
      <trkpt lat="40.7981920" lon="-4.0615640">
        <ele>1753.8</ele>
        <time>2019-04-28T08:12:39Z</time>
      </trkpt>
      <trkpt lat="40.7981660" lon="-4.0615720">
        <ele>1754.0</ele>
        <time>2019-04-28T08:12:40Z</time>
      </trkpt>
      <trkpt lat="40.7981370" lon="-4.0615790">
        <ele>1754.2</ele>
        <time>2019-04-28T08:12:41Z</time>
      </trkpt>
      <trkpt lat="40.7981080" lon="-4.0615860">
        <ele>1754.4</ele>
        <time>2019-04-28T08:12:42Z</time>
      </trkpt>
      <trkpt lat="40.7980740" lon="-4.0615970">
        <ele>1754.6</ele>
        <time>2019-04-28T08:12:43Z</time>
      </trkpt>
      <trkpt lat="40.7980500" lon="-4.0616030">
        <ele>1754.6</ele>
        <time>2019-04-28T08:12:44Z</time>
      </trkpt>
      <trkpt lat="40.7980210" lon="-4.0616190">
        <ele>1754.8</ele>
        <time>2019-04-28T08:12:45Z</time>
      </trkpt>
      <trkpt lat="40.7979930" lon="-4.0616360">
        <ele>1754.8</ele>
        <time>2019-04-28T08:12:46Z</time>
      </trkpt>
      <trkpt lat="40.7979600" lon="-4.0616520">
        <ele>1755.0</ele>
        <time>2019-04-28T08:12:47Z</time>
      </trkpt>
      <trkpt lat="40.7979350" lon="-4.0616680">
        <ele>1755.2</ele>
        <time>2019-04-28T08:12:48Z</time>
      </trkpt>
      <trkpt lat="40.7979160" lon="-4.0616860">
        <ele>1755.4</ele>
        <time>2019-04-28T08:12:49Z</time>
      </trkpt>
      <trkpt lat="40.7978960" lon="-4.0616960">
        <ele>1755.6</ele>
        <time>2019-04-28T08:12:50Z</time>
      </trkpt>
      <trkpt lat="40.7978740" lon="-4.0617090">
        <ele>1755.8</ele>
        <time>2019-04-28T08:12:51Z</time>
      </trkpt>
      <trkpt lat="40.7978490" lon="-4.0617230">
        <ele>1755.8</ele>
        <time>2019-04-28T08:12:52Z</time>
      </trkpt>
      <trkpt lat="40.7978240" lon="-4.0617340">
        <ele>1756.0</ele>
        <time>2019-04-28T08:12:53Z</time>
      </trkpt>
      <trkpt lat="40.7978010" lon="-4.0617500">
        <ele>1756.4</ele>
        <time>2019-04-28T08:12:54Z</time>
      </trkpt>
      <trkpt lat="40.7977780" lon="-4.0617680">
        <ele>1756.4</ele>
        <time>2019-04-28T08:12:55Z</time>
      </trkpt>
      <trkpt lat="40.7977550" lon="-4.0617840">
        <ele>1756.6</ele>
        <time>2019-04-28T08:12:56Z</time>
      </trkpt>
      <trkpt lat="40.7977350" lon="-4.0618060">
        <ele>1756.8</ele>
        <time>2019-04-28T08:12:57Z</time>
      </trkpt>
      <trkpt lat="40.7977170" lon="-4.0618310">
        <ele>1756.8</ele>
        <time>2019-04-28T08:12:58Z</time>
      </trkpt>
      <trkpt lat="40.7977040" lon="-4.0618580">
        <ele>1757.0</ele>
        <time>2019-04-28T08:12:59Z</time>
      </trkpt>
      <trkpt lat="40.7976890" lon="-4.0618840">
        <ele>1757.2</ele>
        <time>2019-04-28T08:13:00Z</time>
      </trkpt>
      <trkpt lat="40.7976760" lon="-4.0619100">
        <ele>1757.2</ele>
        <time>2019-04-28T08:13:01Z</time>
      </trkpt>
      <trkpt lat="40.7976610" lon="-4.0619320">
        <ele>1757.4</ele>
        <time>2019-04-28T08:13:02Z</time>
      </trkpt>
      <trkpt lat="40.7976500" lon="-4.0619580">
        <ele>1757.6</ele>
        <time>2019-04-28T08:13:03Z</time>
      </trkpt>
      <trkpt lat="40.7976290" lon="-4.0619810">
        <ele>1757.8</ele>
        <time>2019-04-28T08:13:04Z</time>
      </trkpt>
      <trkpt lat="40.7976240" lon="-4.0619930">
        <ele>1757.8</ele>
        <time>2019-04-28T08:13:05Z</time>
      </trkpt>
      <trkpt lat="40.7976100" lon="-4.0620140">
        <ele>1758.0</ele>
        <time>2019-04-28T08:13:06Z</time>
      </trkpt>
      <trkpt lat="40.7975990" lon="-4.0620380">
        <ele>1758.2</ele>
        <time>2019-04-28T08:13:07Z</time>
      </trkpt>
      <trkpt lat="40.7975920" lon="-4.0620490">
        <ele>1758.2</ele>
        <time>2019-04-28T08:13:08Z</time>
      </trkpt>
      <trkpt lat="40.7975910" lon="-4.0620700">
        <ele>1758.4</ele>
        <time>2019-04-28T08:13:09Z</time>
      </trkpt>
      <trkpt lat="40.7975790" lon="-4.0620970">
        <ele>1758.6</ele>
        <time>2019-04-28T08:13:10Z</time>
      </trkpt>
      <trkpt lat="40.7975720" lon="-4.0621220">
        <ele>1758.6</ele>
        <time>2019-04-28T08:13:11Z</time>
      </trkpt>
      <trkpt lat="40.7975700" lon="-4.0621530">
        <ele>1758.8</ele>
        <time>2019-04-28T08:13:12Z</time>
      </trkpt>
      <trkpt lat="40.7975510" lon="-4.0621870">
        <ele>1759.0</ele>
        <time>2019-04-28T08:13:13Z</time>
      </trkpt>
      <trkpt lat="40.7975350" lon="-4.0622110">
        <ele>1759.0</ele>
        <time>2019-04-28T08:13:14Z</time>
      </trkpt>
      <trkpt lat="40.7975180" lon="-4.0622360">
        <ele>1759.2</ele>
        <time>2019-04-28T08:13:15Z</time>
      </trkpt>
      <trkpt lat="40.7975100" lon="-4.0622690">
        <ele>1759.4</ele>
        <time>2019-04-28T08:13:16Z</time>
      </trkpt>
      <trkpt lat="40.7975010" lon="-4.0623070">
        <ele>1759.4</ele>
        <time>2019-04-28T08:13:17Z</time>
      </trkpt>
      <trkpt lat="40.7974850" lon="-4.0623380">
        <ele>1759.6</ele>
        <time>2019-04-28T08:13:18Z</time>
      </trkpt>
      <trkpt lat="40.7974710" lon="-4.0623690">
        <ele>1759.6</ele>
        <time>2019-04-28T08:13:19Z</time>
      </trkpt>
      <trkpt lat="40.7974550" lon="-4.0623940">
        <ele>1759.8</ele>
        <time>2019-04-28T08:13:20Z</time>
      </trkpt>
      <trkpt lat="40.7974440" lon="-4.0624150">
        <ele>1760.0</ele>
        <time>2019-04-28T08:13:21Z</time>
      </trkpt>
      <trkpt lat="40.7974310" lon="-4.0624320">
        <ele>1760.0</ele>
        <time>2019-04-28T08:13:22Z</time>
      </trkpt>
      <trkpt lat="40.7974190" lon="-4.0624580">
        <ele>1760.4</ele>
        <time>2019-04-28T08:13:23Z</time>
      </trkpt>
      <trkpt lat="40.7974000" lon="-4.0624710">
        <ele>1760.4</ele>
        <time>2019-04-28T08:13:24Z</time>
      </trkpt>
      <trkpt lat="40.7973880" lon="-4.0624900">
        <ele>1760.6</ele>
        <time>2019-04-28T08:13:25Z</time>
      </trkpt>
      <trkpt lat="40.7973720" lon="-4.0625120">
        <ele>1760.8</ele>
        <time>2019-04-28T08:13:26Z</time>
      </trkpt>
      <trkpt lat="40.7973570" lon="-4.0625340">
        <ele>1760.8</ele>
        <time>2019-04-28T08:13:27Z</time>
      </trkpt>
      <trkpt lat="40.7973460" lon="-4.0625560">
        <ele>1761.0</ele>
        <time>2019-04-28T08:13:28Z</time>
      </trkpt>
      <trkpt lat="40.7973370" lon="-4.0625700">
        <ele>1761.0</ele>
        <time>2019-04-28T08:13:29Z</time>
      </trkpt>
      <trkpt lat="40.7973260" lon="-4.0625990">
        <ele>1761.2</ele>
        <time>2019-04-28T08:13:30Z</time>
      </trkpt>
      <trkpt lat="40.7973170" lon="-4.0626260">
        <ele>1761.2</ele>
        <time>2019-04-28T08:13:31Z</time>
      </trkpt>
      <trkpt lat="40.7973030" lon="-4.0626600">
        <ele>1761.4</ele>
        <time>2019-04-28T08:13:32Z</time>
      </trkpt>
      <trkpt lat="40.7972960" lon="-4.0626920">
        <ele>1761.6</ele>
        <time>2019-04-28T08:13:33Z</time>
      </trkpt>
      <trkpt lat="40.7972940" lon="-4.0627180">
        <ele>1761.8</ele>
        <time>2019-04-28T08:13:34Z</time>
      </trkpt>
      <trkpt lat="40.7972790" lon="-4.0627350">
        <ele>1762.0</ele>
        <time>2019-04-28T08:13:35Z</time>
      </trkpt>
      <trkpt lat="40.7972620" lon="-4.0627590">
        <ele>1762.0</ele>
        <time>2019-04-28T08:13:36Z</time>
      </trkpt>
      <trkpt lat="40.7972470" lon="-4.0627840">
        <ele>1762.2</ele>
        <time>2019-04-28T08:13:37Z</time>
      </trkpt>
      <trkpt lat="40.7972370" lon="-4.0628120">
        <ele>1762.4</ele>
        <time>2019-04-28T08:13:38Z</time>
      </trkpt>
      <trkpt lat="40.7972230" lon="-4.0628360">
        <ele>1762.6</ele>
        <time>2019-04-28T08:13:39Z</time>
      </trkpt>
      <trkpt lat="40.7972160" lon="-4.0628640">
        <ele>1762.8</ele>
        <time>2019-04-28T08:13:40Z</time>
      </trkpt>
      <trkpt lat="40.7971930" lon="-4.0628950">
        <ele>1762.8</ele>
        <time>2019-04-28T08:13:41Z</time>
      </trkpt>
      <trkpt lat="40.7971820" lon="-4.0629090">
        <ele>1763.0</ele>
        <time>2019-04-28T08:13:42Z</time>
      </trkpt>
      <trkpt lat="40.7971690" lon="-4.0629310">
        <ele>1763.2</ele>
        <time>2019-04-28T08:13:43Z</time>
      </trkpt>
      <trkpt lat="40.7971600" lon="-4.0629500">
        <ele>1763.2</ele>
        <time>2019-04-28T08:13:44Z</time>
      </trkpt>
      <trkpt lat="40.7971370" lon="-4.0629710">
        <ele>1763.4</ele>
        <time>2019-04-28T08:13:45Z</time>
      </trkpt>
      <trkpt lat="40.7971160" lon="-4.0629970">
        <ele>1763.4</ele>
        <time>2019-04-28T08:13:46Z</time>
      </trkpt>
      <trkpt lat="40.7971030" lon="-4.0630300">
        <ele>1763.6</ele>
        <time>2019-04-28T08:13:47Z</time>
      </trkpt>
      <trkpt lat="40.7970860" lon="-4.0630600">
        <ele>1763.6</ele>
        <time>2019-04-28T08:13:48Z</time>
      </trkpt>
      <trkpt lat="40.7970680" lon="-4.0630820">
        <ele>1763.8</ele>
        <time>2019-04-28T08:13:49Z</time>
      </trkpt>
      <trkpt lat="40.7970370" lon="-4.0631050">
        <ele>1763.8</ele>
        <time>2019-04-28T08:13:50Z</time>
      </trkpt>
      <trkpt lat="40.7970150" lon="-4.0631280">
        <ele>1764.0</ele>
        <time>2019-04-28T08:13:51Z</time>
      </trkpt>
      <trkpt lat="40.7969960" lon="-4.0631460">
        <ele>1764.0</ele>
        <time>2019-04-28T08:13:52Z</time>
      </trkpt>
      <trkpt lat="40.7969740" lon="-4.0631690">
        <ele>1764.2</ele>
        <time>2019-04-28T08:13:53Z</time>
      </trkpt>
      <trkpt lat="40.7969620" lon="-4.0631750">
        <ele>1764.2</ele>
        <time>2019-04-28T08:13:54Z</time>
      </trkpt>
      <trkpt lat="40.7969420" lon="-4.0631860">
        <ele>1764.4</ele>
        <time>2019-04-28T08:13:55Z</time>
      </trkpt>
      <trkpt lat="40.7969190" lon="-4.0631970">
        <ele>1764.4</ele>
        <time>2019-04-28T08:13:56Z</time>
      </trkpt>
      <trkpt lat="40.7969090" lon="-4.0632000">
        <ele>1764.4</ele>
        <time>2019-04-28T08:13:57Z</time>
      </trkpt>
      <trkpt lat="40.7968940" lon="-4.0632080">
        <ele>1764.6</ele>
        <time>2019-04-28T08:13:58Z</time>
      </trkpt>
      <trkpt lat="40.7968920" lon="-4.0632110">
        <ele>1764.8</ele>
        <time>2019-04-28T08:13:59Z</time>
      </trkpt>
      <trkpt lat="40.7968760" lon="-4.0632170">
        <ele>1764.8</ele>
        <time>2019-04-28T08:14:00Z</time>
      </trkpt>
      <trkpt lat="40.7968470" lon="-4.0632280">
        <ele>1764.8</ele>
        <time>2019-04-28T08:14:01Z</time>
      </trkpt>
      <trkpt lat="40.7968290" lon="-4.0632280">
        <ele>1765.0</ele>
        <time>2019-04-28T08:14:02Z</time>
      </trkpt>
      <trkpt lat="40.7967890" lon="-4.0632450">
        <ele>1765.0</ele>
        <time>2019-04-28T08:14:03Z</time>
      </trkpt>
      <trkpt lat="40.7967570" lon="-4.0632610">
        <ele>1765.2</ele>
        <time>2019-04-28T08:14:04Z</time>
      </trkpt>
      <trkpt lat="40.7967160" lon="-4.0632830">
        <ele>1765.4</ele>
        <time>2019-04-28T08:14:05Z</time>
      </trkpt>
      <trkpt lat="40.7966810" lon="-4.0632990">
        <ele>1765.4</ele>
        <time>2019-04-28T08:14:06Z</time>
      </trkpt>
      <trkpt lat="40.7966530" lon="-4.0633150">
        <ele>1765.6</ele>
        <time>2019-04-28T08:14:07Z</time>
      </trkpt>
      <trkpt lat="40.7966100" lon="-4.0633440">
        <ele>1765.8</ele>
        <time>2019-04-28T08:14:08Z</time>
      </trkpt>
      <trkpt lat="40.7965710" lon="-4.0633590">
        <ele>1766.0</ele>
        <time>2019-04-28T08:14:09Z</time>
      </trkpt>
      <trkpt lat="40.7965390" lon="-4.0633730">
        <ele>1766.2</ele>
        <time>2019-04-28T08:14:10Z</time>
      </trkpt>
      <trkpt lat="40.7965150" lon="-4.0633870">
        <ele>1766.2</ele>
        <time>2019-04-28T08:14:11Z</time>
      </trkpt>
      <trkpt lat="40.7964960" lon="-4.0634010">
        <ele>1766.4</ele>
        <time>2019-04-28T08:14:12Z</time>
      </trkpt>
      <trkpt lat="40.7964640" lon="-4.0634090">
        <ele>1766.6</ele>
        <time>2019-04-28T08:14:13Z</time>
      </trkpt>
      <trkpt lat="40.7964420" lon="-4.0634150">
        <ele>1767.0</ele>
        <time>2019-04-28T08:14:14Z</time>
      </trkpt>
      <trkpt lat="40.7964090" lon="-4.0634190">
        <ele>1767.2</ele>
        <time>2019-04-28T08:14:15Z</time>
      </trkpt>
      <trkpt lat="40.7963740" lon="-4.0634200">
        <ele>1767.4</ele>
        <time>2019-04-28T08:14:16Z</time>
      </trkpt>
      <trkpt lat="40.7963350" lon="-4.0634270">
        <ele>1767.6</ele>
        <time>2019-04-28T08:14:17Z</time>
      </trkpt>
      <trkpt lat="40.7963030" lon="-4.0634310">
        <ele>1767.8</ele>
        <time>2019-04-28T08:14:18Z</time>
      </trkpt>
      <trkpt lat="40.7962570" lon="-4.0634430">
        <ele>1768.0</ele>
        <time>2019-04-28T08:14:19Z</time>
      </trkpt>
      <trkpt lat="40.7962260" lon="-4.0634600">
        <ele>1768.2</ele>
        <time>2019-04-28T08:14:20Z</time>
      </trkpt>
      <trkpt lat="40.7962060" lon="-4.0634710">
        <ele>1768.2</ele>
        <time>2019-04-28T08:14:21Z</time>
      </trkpt>
      <trkpt lat="40.7961810" lon="-4.0634780">
        <ele>1768.4</ele>
        <time>2019-04-28T08:14:22Z</time>
      </trkpt>
      <trkpt lat="40.7961580" lon="-4.0634750">
        <ele>1768.4</ele>
        <time>2019-04-28T08:14:23Z</time>
      </trkpt>
      <trkpt lat="40.7961240" lon="-4.0634710">
        <ele>1768.8</ele>
        <time>2019-04-28T08:14:24Z</time>
      </trkpt>
      <trkpt lat="40.7960950" lon="-4.0634790">
        <ele>1769.0</ele>
        <time>2019-04-28T08:14:25Z</time>
      </trkpt>
      <trkpt lat="40.7960700" lon="-4.0634870">
        <ele>1769.2</ele>
        <time>2019-04-28T08:14:26Z</time>
      </trkpt>
      <trkpt lat="40.7960410" lon="-4.0634990">
        <ele>1769.4</ele>
        <time>2019-04-28T08:14:27Z</time>
      </trkpt>
      <trkpt lat="40.7960190" lon="-4.0635090">
        <ele>1769.6</ele>
        <time>2019-04-28T08:14:28Z</time>
      </trkpt>
      <trkpt lat="40.7959930" lon="-4.0635160">
        <ele>1769.6</ele>
        <time>2019-04-28T08:14:29Z</time>
      </trkpt>
      <trkpt lat="40.7959780" lon="-4.0635210">
        <ele>1769.8</ele>
        <time>2019-04-28T08:14:30Z</time>
      </trkpt>
      <trkpt lat="40.7959720" lon="-4.0635260">
        <ele>1769.8</ele>
        <time>2019-04-28T08:14:31Z</time>
      </trkpt>
      <trkpt lat="40.7959450" lon="-4.0635250">
        <ele>1770.0</ele>
        <time>2019-04-28T08:14:32Z</time>
      </trkpt>
      <trkpt lat="40.7959150" lon="-4.0635230">
        <ele>1770.2</ele>
        <time>2019-04-28T08:14:33Z</time>
      </trkpt>
      <trkpt lat="40.7958880" lon="-4.0635280">
        <ele>1770.4</ele>
        <time>2019-04-28T08:14:34Z</time>
      </trkpt>
      <trkpt lat="40.7958660" lon="-4.0635280">
        <ele>1770.4</ele>
        <time>2019-04-28T08:14:35Z</time>
      </trkpt>
      <trkpt lat="40.7958430" lon="-4.0635300">
        <ele>1770.6</ele>
        <time>2019-04-28T08:14:36Z</time>
      </trkpt>
      <trkpt lat="40.7958260" lon="-4.0635280">
        <ele>1770.8</ele>
        <time>2019-04-28T08:14:37Z</time>
      </trkpt>
      <trkpt lat="40.7958050" lon="-4.0635280">
        <ele>1771.0</ele>
        <time>2019-04-28T08:14:38Z</time>
      </trkpt>
      <trkpt lat="40.7957760" lon="-4.0635220">
        <ele>1771.2</ele>
        <time>2019-04-28T08:14:39Z</time>
      </trkpt>
      <trkpt lat="40.7957470" lon="-4.0635170">
        <ele>1771.4</ele>
        <time>2019-04-28T08:14:40Z</time>
      </trkpt>
      <trkpt lat="40.7957270" lon="-4.0635060">
        <ele>1771.6</ele>
        <time>2019-04-28T08:14:41Z</time>
      </trkpt>
      <trkpt lat="40.7956910" lon="-4.0634910">
        <ele>1771.8</ele>
        <time>2019-04-28T08:14:42Z</time>
      </trkpt>
      <trkpt lat="40.7956720" lon="-4.0634750">
        <ele>1771.8</ele>
        <time>2019-04-28T08:14:43Z</time>
      </trkpt>
      <trkpt lat="40.7956740" lon="-4.0634610">
        <ele>1772.0</ele>
        <time>2019-04-28T08:14:44Z</time>
      </trkpt>
      <trkpt lat="40.7956680" lon="-4.0634460">
        <ele>1772.2</ele>
        <time>2019-04-28T08:14:45Z</time>
      </trkpt>
      <trkpt lat="40.7956400" lon="-4.0634330">
        <ele>1772.2</ele>
        <time>2019-04-28T08:14:46Z</time>
      </trkpt>
      <trkpt lat="40.7956150" lon="-4.0634150">
        <ele>1772.4</ele>
        <time>2019-04-28T08:14:47Z</time>
      </trkpt>
      <trkpt lat="40.7955800" lon="-4.0634020">
        <ele>1772.6</ele>
        <time>2019-04-28T08:14:48Z</time>
      </trkpt>
      <trkpt lat="40.7955540" lon="-4.0633900">
        <ele>1772.6</ele>
        <time>2019-04-28T08:14:49Z</time>
      </trkpt>
      <trkpt lat="40.7955300" lon="-4.0633730">
        <ele>1772.8</ele>
        <time>2019-04-28T08:14:50Z</time>
      </trkpt>
      <trkpt lat="40.7955070" lon="-4.0633520">
        <ele>1772.8</ele>
        <time>2019-04-28T08:14:51Z</time>
      </trkpt>
      <trkpt lat="40.7954830" lon="-4.0633300">
        <ele>1772.8</ele>
        <time>2019-04-28T08:14:52Z</time>
      </trkpt>
      <trkpt lat="40.7954550" lon="-4.0633030">
        <ele>1773.0</ele>
        <time>2019-04-28T08:14:53Z</time>
      </trkpt>
      <trkpt lat="40.7954280" lon="-4.0632760">
        <ele>1773.0</ele>
        <time>2019-04-28T08:14:54Z</time>
      </trkpt>
      <trkpt lat="40.7953970" lon="-4.0632510">
        <ele>1773.2</ele>
        <time>2019-04-28T08:14:55Z</time>
      </trkpt>
      <trkpt lat="40.7953700" lon="-4.0632280">
        <ele>1773.2</ele>
        <time>2019-04-28T08:14:56Z</time>
      </trkpt>
      <trkpt lat="40.7953450" lon="-4.0632080">
        <ele>1773.4</ele>
        <time>2019-04-28T08:14:57Z</time>
      </trkpt>
      <trkpt lat="40.7953230" lon="-4.0631830">
        <ele>1773.4</ele>
        <time>2019-04-28T08:14:58Z</time>
      </trkpt>
      <trkpt lat="40.7953010" lon="-4.0631550">
        <ele>1773.6</ele>
        <time>2019-04-28T08:14:59Z</time>
      </trkpt>
      <trkpt lat="40.7952790" lon="-4.0631250">
        <ele>1773.6</ele>
        <time>2019-04-28T08:15:00Z</time>
      </trkpt>
      <trkpt lat="40.7952550" lon="-4.0630940">
        <ele>1773.8</ele>
        <time>2019-04-28T08:15:01Z</time>
      </trkpt>
      <trkpt lat="40.7952300" lon="-4.0630680">
        <ele>1773.8</ele>
        <time>2019-04-28T08:15:02Z</time>
      </trkpt>
      <trkpt lat="40.7952050" lon="-4.0630380">
        <ele>1774.0</ele>
        <time>2019-04-28T08:15:03Z</time>
      </trkpt>
      <trkpt lat="40.7951790" lon="-4.0630120">
        <ele>1774.2</ele>
        <time>2019-04-28T08:15:04Z</time>
      </trkpt>
      <trkpt lat="40.7951520" lon="-4.0629860">
        <ele>1774.2</ele>
        <time>2019-04-28T08:15:05Z</time>
      </trkpt>
      <trkpt lat="40.7951300" lon="-4.0629630">
        <ele>1774.4</ele>
        <time>2019-04-28T08:15:06Z</time>
      </trkpt>
      <trkpt lat="40.7951110" lon="-4.0629320">
        <ele>1774.4</ele>
        <time>2019-04-28T08:15:07Z</time>
      </trkpt>
      <trkpt lat="40.7950870" lon="-4.0629070">
        <ele>1774.6</ele>
        <time>2019-04-28T08:15:08Z</time>
      </trkpt>
      <trkpt lat="40.7950680" lon="-4.0628840">
        <ele>1774.8</ele>
        <time>2019-04-28T08:15:09Z</time>
      </trkpt>
      <trkpt lat="40.7950540" lon="-4.0628520">
        <ele>1775.0</ele>
        <time>2019-04-28T08:15:10Z</time>
      </trkpt>
      <trkpt lat="40.7950360" lon="-4.0628210">
        <ele>1775.0</ele>
        <time>2019-04-28T08:15:11Z</time>
      </trkpt>
      <trkpt lat="40.7950200" lon="-4.0627970">
        <ele>1775.2</ele>
        <time>2019-04-28T08:15:12Z</time>
      </trkpt>
      <trkpt lat="40.7949940" lon="-4.0627680">
        <ele>1775.4</ele>
        <time>2019-04-28T08:15:13Z</time>
      </trkpt>
      <trkpt lat="40.7949730" lon="-4.0627440">
        <ele>1775.4</ele>
        <time>2019-04-28T08:15:14Z</time>
      </trkpt>
      <trkpt lat="40.7949520" lon="-4.0627170">
        <ele>1775.6</ele>
        <time>2019-04-28T08:15:15Z</time>
      </trkpt>
      <trkpt lat="40.7949340" lon="-4.0626890">
        <ele>1775.8</ele>
        <time>2019-04-28T08:15:16Z</time>
      </trkpt>
      <trkpt lat="40.7949140" lon="-4.0626650">
        <ele>1776.0</ele>
        <time>2019-04-28T08:15:17Z</time>
      </trkpt>
      <trkpt lat="40.7949000" lon="-4.0626370">
        <ele>1776.0</ele>
        <time>2019-04-28T08:15:18Z</time>
      </trkpt>
      <trkpt lat="40.7948790" lon="-4.0626210">
        <ele>1776.2</ele>
        <time>2019-04-28T08:15:19Z</time>
      </trkpt>
      <trkpt lat="40.7948670" lon="-4.0625930">
        <ele>1776.2</ele>
        <time>2019-04-28T08:15:20Z</time>
      </trkpt>
      <trkpt lat="40.7948520" lon="-4.0625670">
        <ele>1776.4</ele>
        <time>2019-04-28T08:15:21Z</time>
      </trkpt>
      <trkpt lat="40.7948340" lon="-4.0625420">
        <ele>1776.6</ele>
        <time>2019-04-28T08:15:22Z</time>
      </trkpt>
      <trkpt lat="40.7948150" lon="-4.0625220">
        <ele>1776.6</ele>
        <time>2019-04-28T08:15:23Z</time>
      </trkpt>
      <trkpt lat="40.7947930" lon="-4.0624960">
        <ele>1776.8</ele>
        <time>2019-04-28T08:15:24Z</time>
      </trkpt>
      <trkpt lat="40.7947700" lon="-4.0624680">
        <ele>1776.8</ele>
        <time>2019-04-28T08:15:25Z</time>
      </trkpt>
      <trkpt lat="40.7947510" lon="-4.0624480">
        <ele>1777.0</ele>
        <time>2019-04-28T08:15:26Z</time>
      </trkpt>
      <trkpt lat="40.7947350" lon="-4.0624180">
        <ele>1777.0</ele>
        <time>2019-04-28T08:15:27Z</time>
      </trkpt>
      <trkpt lat="40.7947190" lon="-4.0623920">
        <ele>1777.0</ele>
        <time>2019-04-28T08:15:28Z</time>
      </trkpt>
      <trkpt lat="40.7946980" lon="-4.0623730">
        <ele>1777.2</ele>
        <time>2019-04-28T08:15:29Z</time>
      </trkpt>
      <trkpt lat="40.7946740" lon="-4.0623480">
        <ele>1777.2</ele>
        <time>2019-04-28T08:15:30Z</time>
      </trkpt>
      <trkpt lat="40.7946520" lon="-4.0623220">
        <ele>1777.4</ele>
        <time>2019-04-28T08:15:31Z</time>
      </trkpt>
      <trkpt lat="40.7946270" lon="-4.0622990">
        <ele>1777.4</ele>
        <time>2019-04-28T08:15:32Z</time>
      </trkpt>
      <trkpt lat="40.7946010" lon="-4.0622730">
        <ele>1777.4</ele>
        <time>2019-04-28T08:15:33Z</time>
      </trkpt>
      <trkpt lat="40.7945730" lon="-4.0622550">
        <ele>1777.6</ele>
        <time>2019-04-28T08:15:34Z</time>
      </trkpt>
      <trkpt lat="40.7945530" lon="-4.0622380">
        <ele>1777.6</ele>
        <time>2019-04-28T08:15:35Z</time>
      </trkpt>
      <trkpt lat="40.7945320" lon="-4.0622150">
        <ele>1777.6</ele>
        <time>2019-04-28T08:15:36Z</time>
      </trkpt>
      <trkpt lat="40.7945100" lon="-4.0621940">
        <ele>1777.6</ele>
        <time>2019-04-28T08:15:37Z</time>
      </trkpt>
      <trkpt lat="40.7944850" lon="-4.0621710">
        <ele>1777.8</ele>
        <time>2019-04-28T08:15:38Z</time>
      </trkpt>
      <trkpt lat="40.7944600" lon="-4.0621510">
        <ele>1777.8</ele>
        <time>2019-04-28T08:15:39Z</time>
      </trkpt>
      <trkpt lat="40.7944280" lon="-4.0621290">
        <ele>1777.8</ele>
        <time>2019-04-28T08:15:40Z</time>
      </trkpt>
      <trkpt lat="40.7943980" lon="-4.0621100">
        <ele>1777.8</ele>
        <time>2019-04-28T08:15:41Z</time>
      </trkpt>
      <trkpt lat="40.7943670" lon="-4.0620880">
        <ele>1778.0</ele>
        <time>2019-04-28T08:15:42Z</time>
      </trkpt>
      <trkpt lat="40.7943320" lon="-4.0620690">
        <ele>1777.8</ele>
        <time>2019-04-28T08:15:43Z</time>
      </trkpt>
      <trkpt lat="40.7943000" lon="-4.0620550">
        <ele>1777.6</ele>
        <time>2019-04-28T08:15:44Z</time>
      </trkpt>
      <trkpt lat="40.7942760" lon="-4.0620320">
        <ele>1777.8</ele>
        <time>2019-04-28T08:15:45Z</time>
      </trkpt>
      <trkpt lat="40.7942480" lon="-4.0620050">
        <ele>1778.0</ele>
        <time>2019-04-28T08:15:46Z</time>
      </trkpt>
      <trkpt lat="40.7942180" lon="-4.0619820">
        <ele>1778.0</ele>
        <time>2019-04-28T08:15:47Z</time>
      </trkpt>
      <trkpt lat="40.7941890" lon="-4.0619720">
        <ele>1778.2</ele>
        <time>2019-04-28T08:15:48Z</time>
      </trkpt>
      <trkpt lat="40.7941600" lon="-4.0619510">
        <ele>1778.2</ele>
        <time>2019-04-28T08:15:49Z</time>
      </trkpt>
      <trkpt lat="40.7941280" lon="-4.0619420">
        <ele>1778.2</ele>
        <time>2019-04-28T08:15:50Z</time>
      </trkpt>
      <trkpt lat="40.7941040" lon="-4.0619260">
        <ele>1778.2</ele>
        <time>2019-04-28T08:15:51Z</time>
      </trkpt>
      <trkpt lat="40.7940830" lon="-4.0619130">
        <ele>1778.4</ele>
        <time>2019-04-28T08:15:52Z</time>
      </trkpt>
      <trkpt lat="40.7940590" lon="-4.0618870">
        <ele>1778.4</ele>
        <time>2019-04-28T08:15:53Z</time>
      </trkpt>
      <trkpt lat="40.7940350" lon="-4.0618640">
        <ele>1778.4</ele>
        <time>2019-04-28T08:15:54Z</time>
      </trkpt>
      <trkpt lat="40.7940070" lon="-4.0618420">
        <ele>1778.4</ele>
        <time>2019-04-28T08:15:55Z</time>
      </trkpt>
      <trkpt lat="40.7939770" lon="-4.0618220">
        <ele>1778.4</ele>
        <time>2019-04-28T08:15:56Z</time>
      </trkpt>
      <trkpt lat="40.7939490" lon="-4.0618040">
        <ele>1778.6</ele>
        <time>2019-04-28T08:15:57Z</time>
      </trkpt>
      <trkpt lat="40.7939250" lon="-4.0617710">
        <ele>1778.6</ele>
        <time>2019-04-28T08:15:58Z</time>
      </trkpt>
      <trkpt lat="40.7938980" lon="-4.0617450">
        <ele>1778.6</ele>
        <time>2019-04-28T08:15:59Z</time>
      </trkpt>
      <trkpt lat="40.7938650" lon="-4.0617220">
        <ele>1778.6</ele>
        <time>2019-04-28T08:16:00Z</time>
      </trkpt>
      <trkpt lat="40.7938340" lon="-4.0616990">
        <ele>1778.6</ele>
        <time>2019-04-28T08:16:01Z</time>
      </trkpt>
      <trkpt lat="40.7938070" lon="-4.0616710">
        <ele>1778.6</ele>
        <time>2019-04-28T08:16:02Z</time>
      </trkpt>
      <trkpt lat="40.7937860" lon="-4.0616460">
        <ele>1778.8</ele>
        <time>2019-04-28T08:16:03Z</time>
      </trkpt>
      <trkpt lat="40.7937560" lon="-4.0616350">
        <ele>1778.8</ele>
        <time>2019-04-28T08:16:04Z</time>
      </trkpt>
      <trkpt lat="40.7937290" lon="-4.0616220">
        <ele>1779.0</ele>
        <time>2019-04-28T08:16:05Z</time>
      </trkpt>
      <trkpt lat="40.7937080" lon="-4.0615900">
        <ele>1779.0</ele>
        <time>2019-04-28T08:16:06Z</time>
      </trkpt>
      <trkpt lat="40.7936880" lon="-4.0615700">
        <ele>1779.0</ele>
        <time>2019-04-28T08:16:07Z</time>
      </trkpt>
      <trkpt lat="40.7936600" lon="-4.0615490">
        <ele>1779.0</ele>
        <time>2019-04-28T08:16:08Z</time>
      </trkpt>
      <trkpt lat="40.7936510" lon="-4.0615170">
        <ele>1778.8</ele>
        <time>2019-04-28T08:16:09Z</time>
      </trkpt>
      <trkpt lat="40.7936310" lon="-4.0615030">
        <ele>1778.8</ele>
        <time>2019-04-28T08:16:10Z</time>
      </trkpt>
      <trkpt lat="40.7936080" lon="-4.0614860">
        <ele>1779.0</ele>
        <time>2019-04-28T08:16:11Z</time>
      </trkpt>
      <trkpt lat="40.7935820" lon="-4.0614650">
        <ele>1779.0</ele>
        <time>2019-04-28T08:16:12Z</time>
      </trkpt>
      <trkpt lat="40.7935560" lon="-4.0614460">
        <ele>1779.0</ele>
        <time>2019-04-28T08:16:13Z</time>
      </trkpt>
      <trkpt lat="40.7935440" lon="-4.0614320">
        <ele>1779.2</ele>
        <time>2019-04-28T08:16:14Z</time>
      </trkpt>
      <trkpt lat="40.7935300" lon="-4.0614080">
        <ele>1779.2</ele>
        <time>2019-04-28T08:16:15Z</time>
      </trkpt>
      <trkpt lat="40.7935090" lon="-4.0613830">
        <ele>1779.4</ele>
        <time>2019-04-28T08:16:16Z</time>
      </trkpt>
      <trkpt lat="40.7934810" lon="-4.0613560">
        <ele>1779.4</ele>
        <time>2019-04-28T08:16:17Z</time>
      </trkpt>
      <trkpt lat="40.7934550" lon="-4.0613250">
        <ele>1779.6</ele>
        <time>2019-04-28T08:16:18Z</time>
      </trkpt>
      <trkpt lat="40.7934260" lon="-4.0613000">
        <ele>1779.6</ele>
        <time>2019-04-28T08:16:19Z</time>
      </trkpt>
      <trkpt lat="40.7933920" lon="-4.0612810">
        <ele>1779.6</ele>
        <time>2019-04-28T08:16:20Z</time>
      </trkpt>
      <trkpt lat="40.7933670" lon="-4.0612500">
        <ele>1779.6</ele>
        <time>2019-04-28T08:16:21Z</time>
      </trkpt>
      <trkpt lat="40.7933420" lon="-4.0612270">
        <ele>1779.8</ele>
        <time>2019-04-28T08:16:22Z</time>
      </trkpt>
      <trkpt lat="40.7933040" lon="-4.0612170">
        <ele>1779.8</ele>
        <time>2019-04-28T08:16:23Z</time>
      </trkpt>
      <trkpt lat="40.7932790" lon="-4.0612000">
        <ele>1779.8</ele>
        <time>2019-04-28T08:16:24Z</time>
      </trkpt>
      <trkpt lat="40.7932510" lon="-4.0611750">
        <ele>1779.8</ele>
        <time>2019-04-28T08:16:25Z</time>
      </trkpt>
      <trkpt lat="40.7932220" lon="-4.0611480">
        <ele>1780.0</ele>
        <time>2019-04-28T08:16:26Z</time>
      </trkpt>
      <trkpt lat="40.7932000" lon="-4.0611280">
        <ele>1780.0</ele>
        <time>2019-04-28T08:16:27Z</time>
      </trkpt>
      <trkpt lat="40.7931810" lon="-4.0611030">
        <ele>1780.2</ele>
        <time>2019-04-28T08:16:28Z</time>
      </trkpt>
      <trkpt lat="40.7931560" lon="-4.0610810">
        <ele>1780.6</ele>
        <time>2019-04-28T08:16:29Z</time>
      </trkpt>
      <trkpt lat="40.7931410" lon="-4.0610370">
        <ele>1780.6</ele>
        <time>2019-04-28T08:16:30Z</time>
      </trkpt>
      <trkpt lat="40.7931160" lon="-4.0610020">
        <ele>1780.8</ele>
        <time>2019-04-28T08:16:31Z</time>
      </trkpt>
      <trkpt lat="40.7930880" lon="-4.0609630">
        <ele>1780.8</ele>
        <time>2019-04-28T08:16:32Z</time>
      </trkpt>
      <trkpt lat="40.7930560" lon="-4.0609410">
        <ele>1780.8</ele>
        <time>2019-04-28T08:16:33Z</time>
      </trkpt>
      <trkpt lat="40.7930350" lon="-4.0608990">
        <ele>1781.0</ele>
        <time>2019-04-28T08:16:34Z</time>
      </trkpt>
      <trkpt lat="40.7930200" lon="-4.0608530">
        <ele>1781.2</ele>
        <time>2019-04-28T08:16:35Z</time>
      </trkpt>
      <trkpt lat="40.7930130" lon="-4.0607960">
        <ele>1781.2</ele>
        <time>2019-04-28T08:16:36Z</time>
      </trkpt>
      <trkpt lat="40.7930010" lon="-4.0607420">
        <ele>1781.2</ele>
        <time>2019-04-28T08:16:37Z</time>
      </trkpt>
      <trkpt lat="40.7929920" lon="-4.0606830">
        <ele>1781.2</ele>
        <time>2019-04-28T08:16:38Z</time>
      </trkpt>
      <trkpt lat="40.7929780" lon="-4.0606400">
        <ele>1781.4</ele>
        <time>2019-04-28T08:16:39Z</time>
      </trkpt>
      <trkpt lat="40.7929600" lon="-4.0605990">
        <ele>1781.2</ele>
        <time>2019-04-28T08:16:40Z</time>
      </trkpt>
      <trkpt lat="40.7929470" lon="-4.0605480">
        <ele>1781.4</ele>
        <time>2019-04-28T08:16:41Z</time>
      </trkpt>
      <trkpt lat="40.7929330" lon="-4.0605070">
        <ele>1781.6</ele>
        <time>2019-04-28T08:16:42Z</time>
      </trkpt>
      <trkpt lat="40.7929160" lon="-4.0604670">
        <ele>1781.6</ele>
        <time>2019-04-28T08:16:43Z</time>
      </trkpt>
      <trkpt lat="40.7929030" lon="-4.0604200">
        <ele>1781.6</ele>
        <time>2019-04-28T08:16:44Z</time>
      </trkpt>
      <trkpt lat="40.7928920" lon="-4.0603700">
        <ele>1781.6</ele>
        <time>2019-04-28T08:16:45Z</time>
      </trkpt>
      <trkpt lat="40.7928780" lon="-4.0603250">
        <ele>1781.8</ele>
        <time>2019-04-28T08:16:46Z</time>
      </trkpt>
      <trkpt lat="40.7928650" lon="-4.0602850">
        <ele>1782.0</ele>
        <time>2019-04-28T08:16:47Z</time>
      </trkpt>
      <trkpt lat="40.7928530" lon="-4.0602480">
        <ele>1782.0</ele>
        <time>2019-04-28T08:16:48Z</time>
      </trkpt>
      <trkpt lat="40.7928420" lon="-4.0602190">
        <ele>1782.4</ele>
        <time>2019-04-28T08:16:49Z</time>
      </trkpt>
      <trkpt lat="40.7928280" lon="-4.0601910">
        <ele>1782.6</ele>
        <time>2019-04-28T08:16:50Z</time>
      </trkpt>
      <trkpt lat="40.7928180" lon="-4.0601660">
        <ele>1782.8</ele>
        <time>2019-04-28T08:16:51Z</time>
      </trkpt>
      <trkpt lat="40.7928050" lon="-4.0601450">
        <ele>1782.8</ele>
        <time>2019-04-28T08:16:52Z</time>
      </trkpt>
      <trkpt lat="40.7927920" lon="-4.0601240">
        <ele>1783.0</ele>
        <time>2019-04-28T08:16:53Z</time>
      </trkpt>
      <trkpt lat="40.7927800" lon="-4.0601060">
        <ele>1783.0</ele>
        <time>2019-04-28T08:16:54Z</time>
      </trkpt>
      <trkpt lat="40.7927640" lon="-4.0600930">
        <ele>1783.0</ele>
        <time>2019-04-28T08:16:55Z</time>
      </trkpt>
      <trkpt lat="40.7927500" lon="-4.0600770">
        <ele>1783.2</ele>
        <time>2019-04-28T08:16:56Z</time>
      </trkpt>
      <trkpt lat="40.7927460" lon="-4.0600660">
        <ele>1783.2</ele>
        <time>2019-04-28T08:16:57Z</time>
      </trkpt>
      <trkpt lat="40.7927420" lon="-4.0600560">
        <ele>1783.2</ele>
        <time>2019-04-28T08:16:58Z</time>
      </trkpt>
      <trkpt lat="40.7927420" lon="-4.0600530">
        <ele>1783.2</ele>
        <time>2019-04-28T08:16:59Z</time>
      </trkpt>
      <trkpt lat="40.7927370" lon="-4.0600560">
        <ele>1783.2</ele>
        <time>2019-04-28T08:17:00Z</time>
      </trkpt>
      <trkpt lat="40.7927380" lon="-4.0600480">
        <ele>1783.2</ele>
        <time>2019-04-28T08:17:01Z</time>
      </trkpt>
      <trkpt lat="40.7927430" lon="-4.0600360">
        <ele>1783.0</ele>
        <time>2019-04-28T08:17:02Z</time>
      </trkpt>
      <trkpt lat="40.7927430" lon="-4.0600320">
        <ele>1783.0</ele>
        <time>2019-04-28T08:17:03Z</time>
      </trkpt>
      <trkpt lat="40.7927420" lon="-4.0600300">
        <ele>1783.0</ele>
        <time>2019-04-28T08:17:04Z</time>
      </trkpt>
      <trkpt lat="40.7927410" lon="-4.0600230">
        <ele>1783.0</ele>
        <time>2019-04-28T08:17:05Z</time>
      </trkpt>
      <trkpt lat="40.7927390" lon="-4.0600230">
        <ele>1783.0</ele>
        <time>2019-04-28T08:17:06Z</time>
      </trkpt>
      <trkpt lat="40.7927370" lon="-4.0600200">
        <ele>1783.0</ele>
        <time>2019-04-28T08:17:07Z</time>
      </trkpt>
      <trkpt lat="40.7927350" lon="-4.0600150">
        <ele>1783.0</ele>
        <time>2019-04-28T08:17:08Z</time>
      </trkpt>
      <trkpt lat="40.7927470" lon="-4.0598170">
        <ele>1783.4</ele>
        <time>2019-04-28T08:18:37Z</time>
      </trkpt>
      <trkpt lat="40.7927430" lon="-4.0598160">
        <ele>1783.4</ele>
        <time>2019-04-28T08:18:38Z</time>
      </trkpt>
      <trkpt lat="40.7927410" lon="-4.0598160">
        <ele>1783.4</ele>
        <time>2019-04-28T08:18:39Z</time>
      </trkpt>
      <trkpt lat="40.7927370" lon="-4.0598160">
        <ele>1783.4</ele>
        <time>2019-04-28T08:18:40Z</time>
      </trkpt>
      <trkpt lat="40.7927320" lon="-4.0598150">
        <ele>1783.4</ele>
        <time>2019-04-28T08:18:41Z</time>
      </trkpt>
      <trkpt lat="40.7924000" lon="-4.0598570">
        <ele>1783.2</ele>
        <time>2019-04-28T08:23:44Z</time>
      </trkpt>
      <trkpt lat="40.7923680" lon="-4.0598580">
        <ele>1783.2</ele>
        <time>2019-04-28T08:23:45Z</time>
      </trkpt>
      <trkpt lat="40.7923330" lon="-4.0598550">
        <ele>1783.2</ele>
        <time>2019-04-28T08:23:46Z</time>
      </trkpt>
      <trkpt lat="40.7922940" lon="-4.0598540">
        <ele>1783.4</ele>
        <time>2019-04-28T08:23:47Z</time>
      </trkpt>
      <trkpt lat="40.7922590" lon="-4.0598450">
        <ele>1783.8</ele>
        <time>2019-04-28T08:23:48Z</time>
      </trkpt>
      <trkpt lat="40.7922330" lon="-4.0598260">
        <ele>1784.2</ele>
        <time>2019-04-28T08:23:49Z</time>
      </trkpt>
      <trkpt lat="40.7922140" lon="-4.0598050">
        <ele>1784.2</ele>
        <time>2019-04-28T08:23:50Z</time>
      </trkpt>
      <trkpt lat="40.7921980" lon="-4.0597860">
        <ele>1784.2</ele>
        <time>2019-04-28T08:23:51Z</time>
      </trkpt>
      <trkpt lat="40.7921850" lon="-4.0597630">
        <ele>1784.2</ele>
        <time>2019-04-28T08:23:52Z</time>
      </trkpt>
      <trkpt lat="40.7921760" lon="-4.0597430">
        <ele>1784.0</ele>
        <time>2019-04-28T08:23:53Z</time>
      </trkpt>
      <trkpt lat="40.7921680" lon="-4.0597220">
        <ele>1784.0</ele>
        <time>2019-04-28T08:23:54Z</time>
      </trkpt>
      <trkpt lat="40.7921570" lon="-4.0597040">
        <ele>1784.0</ele>
        <time>2019-04-28T08:23:55Z</time>
      </trkpt>
      <trkpt lat="40.7921430" lon="-4.0596970">
        <ele>1783.8</ele>
        <time>2019-04-28T08:23:56Z</time>
      </trkpt>
      <trkpt lat="40.7921310" lon="-4.0596880">
        <ele>1783.8</ele>
        <time>2019-04-28T08:23:57Z</time>
      </trkpt>
      <trkpt lat="40.7921140" lon="-4.0596750">
        <ele>1783.6</ele>
        <time>2019-04-28T08:23:58Z</time>
      </trkpt>
      <trkpt lat="40.7920910" lon="-4.0596580">
        <ele>1783.6</ele>
        <time>2019-04-28T08:23:59Z</time>
      </trkpt>
      <trkpt lat="40.7920640" lon="-4.0596540">
        <ele>1783.6</ele>
        <time>2019-04-28T08:24:00Z</time>
      </trkpt>
      <trkpt lat="40.7920340" lon="-4.0596550">
        <ele>1783.4</ele>
        <time>2019-04-28T08:24:01Z</time>
      </trkpt>
      <trkpt lat="40.7920050" lon="-4.0596510">
        <ele>1783.2</ele>
        <time>2019-04-28T08:24:02Z</time>
      </trkpt>
      <trkpt lat="40.7919780" lon="-4.0596460">
        <ele>1783.0</ele>
        <time>2019-04-28T08:24:03Z</time>
      </trkpt>
      <trkpt lat="40.7919480" lon="-4.0596420">
        <ele>1783.0</ele>
        <time>2019-04-28T08:24:04Z</time>
      </trkpt>
      <trkpt lat="40.7919150" lon="-4.0596330">
        <ele>1782.6</ele>
        <time>2019-04-28T08:24:05Z</time>
      </trkpt>
      <trkpt lat="40.7918790" lon="-4.0596240">
        <ele>1782.4</ele>
        <time>2019-04-28T08:24:06Z</time>
      </trkpt>
      <trkpt lat="40.7918440" lon="-4.0596140">
        <ele>1782.2</ele>
        <time>2019-04-28T08:24:07Z</time>
      </trkpt>
      <trkpt lat="40.7918080" lon="-4.0596020">
        <ele>1782.0</ele>
        <time>2019-04-28T08:24:08Z</time>
      </trkpt>
      <trkpt lat="40.7917620" lon="-4.0595920">
        <ele>1781.8</ele>
        <time>2019-04-28T08:24:09Z</time>
      </trkpt>
      <trkpt lat="40.7917300" lon="-4.0595830">
        <ele>1781.4</ele>
        <time>2019-04-28T08:24:10Z</time>
      </trkpt>
      <trkpt lat="40.7916860" lon="-4.0595710">
        <ele>1781.4</ele>
        <time>2019-04-28T08:24:11Z</time>
      </trkpt>
      <trkpt lat="40.7916400" lon="-4.0595540">
        <ele>1781.0</ele>
        <time>2019-04-28T08:24:12Z</time>
      </trkpt>
      <trkpt lat="40.7915890" lon="-4.0595390">
        <ele>1780.8</ele>
        <time>2019-04-28T08:24:13Z</time>
      </trkpt>
      <trkpt lat="40.7915350" lon="-4.0595180">
        <ele>1780.4</ele>
        <time>2019-04-28T08:24:14Z</time>
      </trkpt>
      <trkpt lat="40.7914860" lon="-4.0595050">
        <ele>1780.0</ele>
        <time>2019-04-28T08:24:15Z</time>
      </trkpt>
      <trkpt lat="40.7914400" lon="-4.0594890">
        <ele>1779.6</ele>
        <time>2019-04-28T08:24:16Z</time>
      </trkpt>
      <trkpt lat="40.7913860" lon="-4.0594740">
        <ele>1779.2</ele>
        <time>2019-04-28T08:24:17Z</time>
      </trkpt>
      <trkpt lat="40.7913250" lon="-4.0594660">
        <ele>1778.8</ele>
        <time>2019-04-28T08:24:18Z</time>
      </trkpt>
      <trkpt lat="40.7912540" lon="-4.0594500">
        <ele>1778.4</ele>
        <time>2019-04-28T08:24:19Z</time>
      </trkpt>
      <trkpt lat="40.7911880" lon="-4.0594320">
        <ele>1778.0</ele>
        <time>2019-04-28T08:24:20Z</time>
      </trkpt>
      <trkpt lat="40.7911250" lon="-4.0594100">
        <ele>1777.6</ele>
        <time>2019-04-28T08:24:21Z</time>
      </trkpt>
      <trkpt lat="40.7910560" lon="-4.0593960">
        <ele>1777.2</ele>
        <time>2019-04-28T08:24:22Z</time>
      </trkpt>
      <trkpt lat="40.7909880" lon="-4.0593750">
        <ele>1776.8</ele>
        <time>2019-04-28T08:24:23Z</time>
      </trkpt>
      <trkpt lat="40.7909370" lon="-4.0593620">
        <ele>1776.2</ele>
        <time>2019-04-28T08:24:24Z</time>
      </trkpt>
      <trkpt lat="40.7908850" lon="-4.0593490">
        <ele>1775.8</ele>
        <time>2019-04-28T08:24:25Z</time>
      </trkpt>
      <trkpt lat="40.7908000" lon="-4.0593300">
        <ele>1775.4</ele>
        <time>2019-04-28T08:24:26Z</time>
      </trkpt>
      <trkpt lat="40.7907240" lon="-4.0593110">
        <ele>1775.0</ele>
        <time>2019-04-28T08:24:27Z</time>
      </trkpt>
      <trkpt lat="40.7906430" lon="-4.0592860">
        <ele>1774.6</ele>
        <time>2019-04-28T08:24:28Z</time>
      </trkpt>
      <trkpt lat="40.7905640" lon="-4.0592740">
        <ele>1774.2</ele>
        <time>2019-04-28T08:24:29Z</time>
      </trkpt>
      <trkpt lat="40.7904730" lon="-4.0592610">
        <ele>1774.0</ele>
        <time>2019-04-28T08:24:30Z</time>
      </trkpt>
      <trkpt lat="40.7903780" lon="-4.0592470">
        <ele>1773.6</ele>
        <time>2019-04-28T08:24:31Z</time>
      </trkpt>
      <trkpt lat="40.7902850" lon="-4.0592340">
        <ele>1773.2</ele>
        <time>2019-04-28T08:24:32Z</time>
      </trkpt>
      <trkpt lat="40.7901940" lon="-4.0592240">
        <ele>1773.0</ele>
        <time>2019-04-28T08:24:33Z</time>
      </trkpt>
      <trkpt lat="40.7901150" lon="-4.0592190">
        <ele>1772.6</ele>
        <time>2019-04-28T08:24:34Z</time>
      </trkpt>
      <trkpt lat="40.7900480" lon="-4.0592190">
        <ele>1772.2</ele>
        <time>2019-04-28T08:24:35Z</time>
      </trkpt>
      <trkpt lat="40.7899770" lon="-4.0592210">
        <ele>1771.8</ele>
        <time>2019-04-28T08:24:36Z</time>
      </trkpt>
      <trkpt lat="40.7899090" lon="-4.0592290">
        <ele>1771.4</ele>
        <time>2019-04-28T08:24:37Z</time>
      </trkpt>
      <trkpt lat="40.7898320" lon="-4.0592320">
        <ele>1771.0</ele>
        <time>2019-04-28T08:24:38Z</time>
      </trkpt>
      <trkpt lat="40.7897390" lon="-4.0592340">
        <ele>1770.4</ele>
        <time>2019-04-28T08:24:39Z</time>
      </trkpt>
      <trkpt lat="40.7896610" lon="-4.0592360">
        <ele>1769.6</ele>
        <time>2019-04-28T08:24:40Z</time>
      </trkpt>
      <trkpt lat="40.7896030" lon="-4.0592540">
        <ele>1769.0</ele>
        <time>2019-04-28T08:24:41Z</time>
      </trkpt>
      <trkpt lat="40.7895270" lon="-4.0592570">
        <ele>1768.6</ele>
        <time>2019-04-28T08:24:42Z</time>
      </trkpt>
      <trkpt lat="40.7894520" lon="-4.0592610">
        <ele>1768.4</ele>
        <time>2019-04-28T08:24:43Z</time>
      </trkpt>
      <trkpt lat="40.7893760" lon="-4.0592630">
        <ele>1768.0</ele>
        <time>2019-04-28T08:24:44Z</time>
      </trkpt>
      <trkpt lat="40.7893030" lon="-4.0592530">
        <ele>1767.4</ele>
        <time>2019-04-28T08:24:45Z</time>
      </trkpt>
      <trkpt lat="40.7892070" lon="-4.0592430">
        <ele>1766.8</ele>
        <time>2019-04-28T08:24:46Z</time>
      </trkpt>
      <trkpt lat="40.7891740" lon="-4.0592270">
        <ele>1766.2</ele>
        <time>2019-04-28T08:24:47Z</time>
      </trkpt>
      <trkpt lat="40.7890910" lon="-4.0592010">
        <ele>1765.4</ele>
        <time>2019-04-28T08:24:48Z</time>
      </trkpt>
      <trkpt lat="40.7889910" lon="-4.0591890">
        <ele>1765.0</ele>
        <time>2019-04-28T08:24:49Z</time>
      </trkpt>
      <trkpt lat="40.7889030" lon="-4.0592020">
        <ele>1764.4</ele>
        <time>2019-04-28T08:24:50Z</time>
      </trkpt>
      <trkpt lat="40.7887890" lon="-4.0592080">
        <ele>1763.4</ele>
        <time>2019-04-28T08:24:51Z</time>
      </trkpt>
      <trkpt lat="40.7886900" lon="-4.0592010">
        <ele>1762.6</ele>
        <time>2019-04-28T08:24:52Z</time>
      </trkpt>
      <trkpt lat="40.7885870" lon="-4.0592050">
        <ele>1761.8</ele>
        <time>2019-04-28T08:24:53Z</time>
      </trkpt>
      <trkpt lat="40.7885250" lon="-4.0592120">
        <ele>1761.2</ele>
        <time>2019-04-28T08:24:54Z</time>
      </trkpt>
      <trkpt lat="40.7884530" lon="-4.0592270">
        <ele>1760.8</ele>
        <time>2019-04-28T08:24:55Z</time>
      </trkpt>
      <trkpt lat="40.7883590" lon="-4.0592220">
        <ele>1760.2</ele>
        <time>2019-04-28T08:24:56Z</time>
      </trkpt>
      <trkpt lat="40.7882960" lon="-4.0592140">
        <ele>1759.6</ele>
        <time>2019-04-28T08:24:57Z</time>
      </trkpt>
      <trkpt lat="40.7882020" lon="-4.0591930">
        <ele>1758.8</ele>
        <time>2019-04-28T08:24:58Z</time>
      </trkpt>
      <trkpt lat="40.7881430" lon="-4.0591700">
        <ele>1757.6</ele>
        <time>2019-04-28T08:24:59Z</time>
      </trkpt>
      <trkpt lat="40.7880550" lon="-4.0591290">
        <ele>1757.6</ele>
        <time>2019-04-28T08:25:00Z</time>
      </trkpt>
      <trkpt lat="40.7879470" lon="-4.0590930">
        <ele>1758.2</ele>
        <time>2019-04-28T08:25:01Z</time>
      </trkpt>
      <trkpt lat="40.7878190" lon="-4.0590570">
        <ele>1757.2</ele>
        <time>2019-04-28T08:25:02Z</time>
      </trkpt>
      <trkpt lat="40.7876940" lon="-4.0590170">
        <ele>1756.6</ele>
        <time>2019-04-28T08:25:03Z</time>
      </trkpt>
      <trkpt lat="40.7876020" lon="-4.0589850">
        <ele>1756.0</ele>
        <time>2019-04-28T08:25:04Z</time>
      </trkpt>
      <trkpt lat="40.7875080" lon="-4.0589480">
        <ele>1755.4</ele>
        <time>2019-04-28T08:25:05Z</time>
      </trkpt>
      <trkpt lat="40.7874140" lon="-4.0589100">
        <ele>1754.4</ele>
        <time>2019-04-28T08:25:06Z</time>
      </trkpt>
      <trkpt lat="40.7873300" lon="-4.0588700">
        <ele>1753.8</ele>
        <time>2019-04-28T08:25:07Z</time>
      </trkpt>
      <trkpt lat="40.7871710" lon="-4.0588310">
        <ele>1753.0</ele>
        <time>2019-04-28T08:25:08Z</time>
      </trkpt>
      <trkpt lat="40.7870300" lon="-4.0587870">
        <ele>1752.4</ele>
        <time>2019-04-28T08:25:09Z</time>
      </trkpt>
      <trkpt lat="40.7869030" lon="-4.0587350">
        <ele>1751.6</ele>
        <time>2019-04-28T08:25:10Z</time>
      </trkpt>
      <trkpt lat="40.7868000" lon="-4.0586760">
        <ele>1751.2</ele>
        <time>2019-04-28T08:25:11Z</time>
      </trkpt>
      <trkpt lat="40.7867050" lon="-4.0586130">
        <ele>1750.8</ele>
        <time>2019-04-28T08:25:12Z</time>
      </trkpt>
      <trkpt lat="40.7866060" lon="-4.0585300">
        <ele>1750.8</ele>
        <time>2019-04-28T08:25:13Z</time>
      </trkpt>
      <trkpt lat="40.7864680" lon="-4.0584170">
        <ele>1750.4</ele>
        <time>2019-04-28T08:25:14Z</time>
      </trkpt>
      <trkpt lat="40.7863810" lon="-4.0583140">
        <ele>1750.2</ele>
        <time>2019-04-28T08:25:15Z</time>
      </trkpt>
      <trkpt lat="40.7862880" lon="-4.0582040">
        <ele>1749.8</ele>
        <time>2019-04-28T08:25:16Z</time>
      </trkpt>
      <trkpt lat="40.7862020" lon="-4.0580920">
        <ele>1749.6</ele>
        <time>2019-04-28T08:25:17Z</time>
      </trkpt>
      <trkpt lat="40.7861190" lon="-4.0579750">
        <ele>1749.0</ele>
        <time>2019-04-28T08:25:18Z</time>
      </trkpt>
      <trkpt lat="40.7860400" lon="-4.0578530">
        <ele>1748.6</ele>
        <time>2019-04-28T08:25:19Z</time>
      </trkpt>
      <trkpt lat="40.7859770" lon="-4.0577280">
        <ele>1748.4</ele>
        <time>2019-04-28T08:25:20Z</time>
      </trkpt>
      <trkpt lat="40.7859200" lon="-4.0576060">
        <ele>1748.0</ele>
        <time>2019-04-28T08:25:21Z</time>
      </trkpt>
      <trkpt lat="40.7858740" lon="-4.0574840">
        <ele>1747.6</ele>
        <time>2019-04-28T08:25:22Z</time>
      </trkpt>
      <trkpt lat="40.7858390" lon="-4.0573650">
        <ele>1747.2</ele>
        <time>2019-04-28T08:25:23Z</time>
      </trkpt>
      <trkpt lat="40.7858110" lon="-4.0572490">
        <ele>1747.0</ele>
        <time>2019-04-28T08:25:24Z</time>
      </trkpt>
      <trkpt lat="40.7857850" lon="-4.0571480">
        <ele>1747.0</ele>
        <time>2019-04-28T08:25:25Z</time>
      </trkpt>
      <trkpt lat="40.7857740" lon="-4.0570320">
        <ele>1746.6</ele>
        <time>2019-04-28T08:25:26Z</time>
      </trkpt>
      <trkpt lat="40.7857700" lon="-4.0569180">
        <ele>1746.2</ele>
        <time>2019-04-28T08:25:27Z</time>
      </trkpt>
      <trkpt lat="40.7857740" lon="-4.0568010">
        <ele>1746.0</ele>
        <time>2019-04-28T08:25:28Z</time>
      </trkpt>
      <trkpt lat="40.7857790" lon="-4.0566850">
        <ele>1745.6</ele>
        <time>2019-04-28T08:25:29Z</time>
      </trkpt>
      <trkpt lat="40.7857870" lon="-4.0565670">
        <ele>1745.6</ele>
        <time>2019-04-28T08:25:30Z</time>
      </trkpt>
      <trkpt lat="40.7857960" lon="-4.0564600">
        <ele>1745.2</ele>
        <time>2019-04-28T08:25:31Z</time>
      </trkpt>
      <trkpt lat="40.7858070" lon="-4.0563450">
        <ele>1745.0</ele>
        <time>2019-04-28T08:25:32Z</time>
      </trkpt>
      <trkpt lat="40.7858190" lon="-4.0562300">
        <ele>1744.8</ele>
        <time>2019-04-28T08:25:33Z</time>
      </trkpt>
      <trkpt lat="40.7858390" lon="-4.0561180">
        <ele>1744.8</ele>
        <time>2019-04-28T08:25:34Z</time>
      </trkpt>
      <trkpt lat="40.7858670" lon="-4.0560150">
        <ele>1744.6</ele>
        <time>2019-04-28T08:25:35Z</time>
      </trkpt>
      <trkpt lat="40.7858970" lon="-4.0559170">
        <ele>1744.4</ele>
        <time>2019-04-28T08:25:36Z</time>
      </trkpt>
      <trkpt lat="40.7859310" lon="-4.0558170">
        <ele>1744.0</ele>
        <time>2019-04-28T08:25:37Z</time>
      </trkpt>
      <trkpt lat="40.7859650" lon="-4.0557170">
        <ele>1743.8</ele>
        <time>2019-04-28T08:25:38Z</time>
      </trkpt>
      <trkpt lat="40.7860000" lon="-4.0556220">
        <ele>1743.4</ele>
        <time>2019-04-28T08:25:39Z</time>
      </trkpt>
      <trkpt lat="40.7860340" lon="-4.0555250">
        <ele>1743.4</ele>
        <time>2019-04-28T08:25:40Z</time>
      </trkpt>
      <trkpt lat="40.7860560" lon="-4.0554300">
        <ele>1743.4</ele>
        <time>2019-04-28T08:25:41Z</time>
      </trkpt>
      <trkpt lat="40.7860730" lon="-4.0553340">
        <ele>1743.4</ele>
        <time>2019-04-28T08:25:42Z</time>
      </trkpt>
      <trkpt lat="40.7860900" lon="-4.0552440">
        <ele>1743.6</ele>
        <time>2019-04-28T08:25:43Z</time>
      </trkpt>
      <trkpt lat="40.7861120" lon="-4.0551570">
        <ele>1743.6</ele>
        <time>2019-04-28T08:25:44Z</time>
      </trkpt>
      <trkpt lat="40.7861160" lon="-4.0550610">
        <ele>1743.4</ele>
        <time>2019-04-28T08:25:45Z</time>
      </trkpt>
      <trkpt lat="40.7861350" lon="-4.0549720">
        <ele>1743.4</ele>
        <time>2019-04-28T08:25:46Z</time>
      </trkpt>
      <trkpt lat="40.7861490" lon="-4.0548820">
        <ele>1743.4</ele>
        <time>2019-04-28T08:25:47Z</time>
      </trkpt>
      <trkpt lat="40.7861700" lon="-4.0548050">
        <ele>1743.4</ele>
        <time>2019-04-28T08:25:48Z</time>
      </trkpt>
      <trkpt lat="40.7861830" lon="-4.0547250">
        <ele>1743.4</ele>
        <time>2019-04-28T08:25:49Z</time>
      </trkpt>
      <trkpt lat="40.7862080" lon="-4.0546630">
        <ele>1743.4</ele>
        <time>2019-04-28T08:25:50Z</time>
      </trkpt>
      <trkpt lat="40.7862090" lon="-4.0545890">
        <ele>1743.4</ele>
        <time>2019-04-28T08:25:51Z</time>
      </trkpt>
      <trkpt lat="40.7862180" lon="-4.0545110">
        <ele>1743.4</ele>
        <time>2019-04-28T08:25:52Z</time>
      </trkpt>
      <trkpt lat="40.7862280" lon="-4.0544570">
        <ele>1743.4</ele>
        <time>2019-04-28T08:25:53Z</time>
      </trkpt>
      <trkpt lat="40.7862290" lon="-4.0544140">
        <ele>1743.2</ele>
        <time>2019-04-28T08:25:54Z</time>
      </trkpt>
      <trkpt lat="40.7862400" lon="-4.0543580">
        <ele>1743.2</ele>
        <time>2019-04-28T08:25:55Z</time>
      </trkpt>
      <trkpt lat="40.7862420" lon="-4.0543040">
        <ele>1743.4</ele>
        <time>2019-04-28T08:25:56Z</time>
      </trkpt>
      <trkpt lat="40.7862480" lon="-4.0542310">
        <ele>1743.2</ele>
        <time>2019-04-28T08:25:57Z</time>
      </trkpt>
      <trkpt lat="40.7862500" lon="-4.0541580">
        <ele>1743.2</ele>
        <time>2019-04-28T08:25:58Z</time>
      </trkpt>
      <trkpt lat="40.7862570" lon="-4.0540820">
        <ele>1743.0</ele>
        <time>2019-04-28T08:25:59Z</time>
      </trkpt>
      <trkpt lat="40.7862540" lon="-4.0540090">
        <ele>1743.0</ele>
        <time>2019-04-28T08:26:00Z</time>
      </trkpt>
      <trkpt lat="40.7862390" lon="-4.0539240">
        <ele>1743.0</ele>
        <time>2019-04-28T08:26:01Z</time>
      </trkpt>
      <trkpt lat="40.7862230" lon="-4.0538450">
        <ele>1743.0</ele>
        <time>2019-04-28T08:26:02Z</time>
      </trkpt>
      <trkpt lat="40.7862000" lon="-4.0537800">
        <ele>1743.0</ele>
        <time>2019-04-28T08:26:03Z</time>
      </trkpt>
      <trkpt lat="40.7861920" lon="-4.0537040">
        <ele>1742.8</ele>
        <time>2019-04-28T08:26:04Z</time>
      </trkpt>
      <trkpt lat="40.7861770" lon="-4.0536410">
        <ele>1742.6</ele>
        <time>2019-04-28T08:26:05Z</time>
      </trkpt>
      <trkpt lat="40.7861700" lon="-4.0535630">
        <ele>1742.4</ele>
        <time>2019-04-28T08:26:06Z</time>
      </trkpt>
      <trkpt lat="40.7861650" lon="-4.0534830">
        <ele>1742.2</ele>
        <time>2019-04-28T08:26:07Z</time>
      </trkpt>
      <trkpt lat="40.7861590" lon="-4.0534040">
        <ele>1742.0</ele>
        <time>2019-04-28T08:26:08Z</time>
      </trkpt>
      <trkpt lat="40.7861660" lon="-4.0533300">
        <ele>1741.8</ele>
        <time>2019-04-28T08:26:09Z</time>
      </trkpt>
      <trkpt lat="40.7861540" lon="-4.0532440">
        <ele>1741.4</ele>
        <time>2019-04-28T08:26:10Z</time>
      </trkpt>
      <trkpt lat="40.7861530" lon="-4.0531610">
        <ele>1741.2</ele>
        <time>2019-04-28T08:26:11Z</time>
      </trkpt>
      <trkpt lat="40.7861330" lon="-4.0530820">
        <ele>1740.8</ele>
        <time>2019-04-28T08:26:12Z</time>
      </trkpt>
      <trkpt lat="40.7861440" lon="-4.0529860">
        <ele>1740.4</ele>
        <time>2019-04-28T08:26:13Z</time>
      </trkpt>
      <trkpt lat="40.7861280" lon="-4.0528930">
        <ele>1740.0</ele>
        <time>2019-04-28T08:26:14Z</time>
      </trkpt>
      <trkpt lat="40.7861010" lon="-4.0528010">
        <ele>1739.6</ele>
        <time>2019-04-28T08:26:15Z</time>
      </trkpt>
      <trkpt lat="40.7860940" lon="-4.0527140">
        <ele>1739.2</ele>
        <time>2019-04-28T08:26:16Z</time>
      </trkpt>
      <trkpt lat="40.7860750" lon="-4.0526130">
        <ele>1738.8</ele>
        <time>2019-04-28T08:26:17Z</time>
      </trkpt>
      <trkpt lat="40.7860530" lon="-4.0525210">
        <ele>1738.4</ele>
        <time>2019-04-28T08:26:18Z</time>
      </trkpt>
      <trkpt lat="40.7860260" lon="-4.0524180">
        <ele>1737.6</ele>
        <time>2019-04-28T08:26:19Z</time>
      </trkpt>
      <trkpt lat="40.7859900" lon="-4.0523050">
        <ele>1737.2</ele>
        <time>2019-04-28T08:26:20Z</time>
      </trkpt>
      <trkpt lat="40.7859600" lon="-4.0521830">
        <ele>1736.8</ele>
        <time>2019-04-28T08:26:21Z</time>
      </trkpt>
      <trkpt lat="40.7859360" lon="-4.0520730">
        <ele>1736.4</ele>
        <time>2019-04-28T08:26:22Z</time>
      </trkpt>
      <trkpt lat="40.7859070" lon="-4.0519630">
        <ele>1736.0</ele>
        <time>2019-04-28T08:26:23Z</time>
      </trkpt>
      <trkpt lat="40.7858620" lon="-4.0518540">
        <ele>1735.6</ele>
        <time>2019-04-28T08:26:24Z</time>
      </trkpt>
      <trkpt lat="40.7858320" lon="-4.0517390">
        <ele>1735.2</ele>
        <time>2019-04-28T08:26:25Z</time>
      </trkpt>
      <trkpt lat="40.7857790" lon="-4.0516260">
        <ele>1734.6</ele>
        <time>2019-04-28T08:26:26Z</time>
      </trkpt>
      <trkpt lat="40.7857460" lon="-4.0515240">
        <ele>1734.4</ele>
        <time>2019-04-28T08:26:27Z</time>
      </trkpt>
      <trkpt lat="40.7857140" lon="-4.0514180">
        <ele>1733.8</ele>
        <time>2019-04-28T08:26:28Z</time>
      </trkpt>
      <trkpt lat="40.7856640" lon="-4.0513000">
        <ele>1733.4</ele>
        <time>2019-04-28T08:26:29Z</time>
      </trkpt>
      <trkpt lat="40.7856080" lon="-4.0511830">
        <ele>1732.8</ele>
        <time>2019-04-28T08:26:30Z</time>
      </trkpt>
      <trkpt lat="40.7855330" lon="-4.0510960">
        <ele>1732.2</ele>
        <time>2019-04-28T08:26:31Z</time>
      </trkpt>
      <trkpt lat="40.7854420" lon="-4.0510230">
        <ele>1731.8</ele>
        <time>2019-04-28T08:26:32Z</time>
      </trkpt>
      <trkpt lat="40.7853390" lon="-4.0509780">
        <ele>1731.6</ele>
        <time>2019-04-28T08:26:33Z</time>
      </trkpt>
      <trkpt lat="40.7852940" lon="-4.0509370">
        <ele>1730.8</ele>
        <time>2019-04-28T08:26:34Z</time>
      </trkpt>
      <trkpt lat="40.7852320" lon="-4.0509140">
        <ele>1730.4</ele>
        <time>2019-04-28T08:26:35Z</time>
      </trkpt>
      <trkpt lat="40.7851660" lon="-4.0509100">
        <ele>1729.8</ele>
        <time>2019-04-28T08:26:36Z</time>
      </trkpt>
      <trkpt lat="40.7851100" lon="-4.0509050">
        <ele>1729.2</ele>
        <time>2019-04-28T08:26:37Z</time>
      </trkpt>
      <trkpt lat="40.7850520" lon="-4.0509020">
        <ele>1728.6</ele>
        <time>2019-04-28T08:26:38Z</time>
      </trkpt>
      <trkpt lat="40.7849740" lon="-4.0508950">
        <ele>1728.4</ele>
        <time>2019-04-28T08:26:39Z</time>
      </trkpt>
      <trkpt lat="40.7849430" lon="-4.0508430">
        <ele>1727.8</ele>
        <time>2019-04-28T08:26:40Z</time>
      </trkpt>
      <trkpt lat="40.7848560" lon="-4.0508290">
        <ele>1727.2</ele>
        <time>2019-04-28T08:26:41Z</time>
      </trkpt>
      <trkpt lat="40.7847720" lon="-4.0508230">
        <ele>1726.8</ele>
        <time>2019-04-28T08:26:42Z</time>
      </trkpt>
      <trkpt lat="40.7846860" lon="-4.0508240">
        <ele>1726.4</ele>
        <time>2019-04-28T08:26:43Z</time>
      </trkpt>
      <trkpt lat="40.7845890" lon="-4.0508330">
        <ele>1725.8</ele>
        <time>2019-04-28T08:26:44Z</time>
      </trkpt>
      <trkpt lat="40.7844750" lon="-4.0508540">
        <ele>1725.2</ele>
        <time>2019-04-28T08:26:45Z</time>
      </trkpt>
      <trkpt lat="40.7843780" lon="-4.0508770">
        <ele>1724.6</ele>
        <time>2019-04-28T08:26:46Z</time>
      </trkpt>
      <trkpt lat="40.7842770" lon="-4.0509360">
        <ele>1724.0</ele>
        <time>2019-04-28T08:26:47Z</time>
      </trkpt>
      <trkpt lat="40.7842010" lon="-4.0509960">
        <ele>1723.4</ele>
        <time>2019-04-28T08:26:48Z</time>
      </trkpt>
      <trkpt lat="40.7840890" lon="-4.0510340">
        <ele>1722.8</ele>
        <time>2019-04-28T08:26:49Z</time>
      </trkpt>
      <trkpt lat="40.7839750" lon="-4.0510790">
        <ele>1722.2</ele>
        <time>2019-04-28T08:26:50Z</time>
      </trkpt>
      <trkpt lat="40.7838630" lon="-4.0511390">
        <ele>1721.6</ele>
        <time>2019-04-28T08:26:51Z</time>
      </trkpt>
      <trkpt lat="40.7837560" lon="-4.0512170">
        <ele>1721.0</ele>
        <time>2019-04-28T08:26:52Z</time>
      </trkpt>
      <trkpt lat="40.7836670" lon="-4.0513240">
        <ele>1720.0</ele>
        <time>2019-04-28T08:26:53Z</time>
      </trkpt>
      <trkpt lat="40.7835740" lon="-4.0514370">
        <ele>1719.2</ele>
        <time>2019-04-28T08:26:54Z</time>
      </trkpt>
      <trkpt lat="40.7834860" lon="-4.0515560">
        <ele>1718.6</ele>
        <time>2019-04-28T08:26:55Z</time>
      </trkpt>
      <trkpt lat="40.7834080" lon="-4.0516680">
        <ele>1717.6</ele>
        <time>2019-04-28T08:26:56Z</time>
      </trkpt>
      <trkpt lat="40.7833180" lon="-4.0517800">
        <ele>1717.0</ele>
        <time>2019-04-28T08:26:57Z</time>
      </trkpt>
      <trkpt lat="40.7832170" lon="-4.0518810">
        <ele>1716.4</ele>
        <time>2019-04-28T08:26:58Z</time>
      </trkpt>
      <trkpt lat="40.7831160" lon="-4.0519880">
        <ele>1715.4</ele>
        <time>2019-04-28T08:26:59Z</time>
      </trkpt>
      <trkpt lat="40.7830110" lon="-4.0520830">
        <ele>1715.0</ele>
        <time>2019-04-28T08:27:00Z</time>
      </trkpt>
      <trkpt lat="40.7829030" lon="-4.0521750">
        <ele>1714.2</ele>
        <time>2019-04-28T08:27:01Z</time>
      </trkpt>
      <trkpt lat="40.7828000" lon="-4.0522660">
        <ele>1713.2</ele>
        <time>2019-04-28T08:27:02Z</time>
      </trkpt>
      <trkpt lat="40.7826890" lon="-4.0523550">
        <ele>1712.6</ele>
        <time>2019-04-28T08:27:03Z</time>
      </trkpt>
      <trkpt lat="40.7825760" lon="-4.0524440">
        <ele>1711.8</ele>
        <time>2019-04-28T08:27:04Z</time>
      </trkpt>
      <trkpt lat="40.7824690" lon="-4.0525360">
        <ele>1711.0</ele>
        <time>2019-04-28T08:27:05Z</time>
      </trkpt>
      <trkpt lat="40.7823730" lon="-4.0526410">
        <ele>1710.2</ele>
        <time>2019-04-28T08:27:06Z</time>
      </trkpt>
      <trkpt lat="40.7822840" lon="-4.0527500">
        <ele>1709.6</ele>
        <time>2019-04-28T08:27:07Z</time>
      </trkpt>
      <trkpt lat="40.7822030" lon="-4.0528660">
        <ele>1709.0</ele>
        <time>2019-04-28T08:27:08Z</time>
      </trkpt>
      <trkpt lat="40.7821250" lon="-4.0529790">
        <ele>1708.4</ele>
        <time>2019-04-28T08:27:09Z</time>
      </trkpt>
      <trkpt lat="40.7820370" lon="-4.0531000">
        <ele>1707.6</ele>
        <time>2019-04-28T08:27:10Z</time>
      </trkpt>
      <trkpt lat="40.7819550" lon="-4.0532100">
        <ele>1707.2</ele>
        <time>2019-04-28T08:27:11Z</time>
      </trkpt>
      <trkpt lat="40.7818760" lon="-4.0533270">
        <ele>1706.8</ele>
        <time>2019-04-28T08:27:12Z</time>
      </trkpt>
      <trkpt lat="40.7817970" lon="-4.0534430">
        <ele>1706.2</ele>
        <time>2019-04-28T08:27:13Z</time>
      </trkpt>
      <trkpt lat="40.7817200" lon="-4.0535630">
        <ele>1705.8</ele>
        <time>2019-04-28T08:27:14Z</time>
      </trkpt>
      <trkpt lat="40.7816440" lon="-4.0536800">
        <ele>1705.4</ele>
        <time>2019-04-28T08:27:15Z</time>
      </trkpt>
      <trkpt lat="40.7815640" lon="-4.0538010">
        <ele>1705.0</ele>
        <time>2019-04-28T08:27:16Z</time>
      </trkpt>
      <trkpt lat="40.7814830" lon="-4.0539180">
        <ele>1704.4</ele>
        <time>2019-04-28T08:27:17Z</time>
      </trkpt>
      <trkpt lat="40.7814020" lon="-4.0540360">
        <ele>1704.0</ele>
        <time>2019-04-28T08:27:18Z</time>
      </trkpt>
      <trkpt lat="40.7813220" lon="-4.0541540">
        <ele>1703.6</ele>
        <time>2019-04-28T08:27:19Z</time>
      </trkpt>
      <trkpt lat="40.7812440" lon="-4.0542560">
        <ele>1703.2</ele>
        <time>2019-04-28T08:27:20Z</time>
      </trkpt>
      <trkpt lat="40.7811620" lon="-4.0543600">
        <ele>1702.8</ele>
        <time>2019-04-28T08:27:21Z</time>
      </trkpt>
      <trkpt lat="40.7810800" lon="-4.0544550">
        <ele>1702.6</ele>
        <time>2019-04-28T08:27:22Z</time>
      </trkpt>
      <trkpt lat="40.7809980" lon="-4.0545560">
        <ele>1702.0</ele>
        <time>2019-04-28T08:27:23Z</time>
      </trkpt>
      <trkpt lat="40.7809180" lon="-4.0546580">
        <ele>1701.6</ele>
        <time>2019-04-28T08:27:24Z</time>
      </trkpt>
      <trkpt lat="40.7808410" lon="-4.0547700">
        <ele>1701.2</ele>
        <time>2019-04-28T08:27:25Z</time>
      </trkpt>
      <trkpt lat="40.7807660" lon="-4.0549020">
        <ele>1701.0</ele>
        <time>2019-04-28T08:27:26Z</time>
      </trkpt>
      <trkpt lat="40.7807040" lon="-4.0550290">
        <ele>1700.6</ele>
        <time>2019-04-28T08:27:27Z</time>
      </trkpt>
      <trkpt lat="40.7806470" lon="-4.0551540">
        <ele>1700.2</ele>
        <time>2019-04-28T08:27:28Z</time>
      </trkpt>
      <trkpt lat="40.7805800" lon="-4.0553080">
        <ele>1699.6</ele>
        <time>2019-04-28T08:27:29Z</time>
      </trkpt>
      <trkpt lat="40.7805280" lon="-4.0554390">
        <ele>1699.2</ele>
        <time>2019-04-28T08:27:30Z</time>
      </trkpt>
      <trkpt lat="40.7804710" lon="-4.0555920">
        <ele>1698.6</ele>
        <time>2019-04-28T08:27:31Z</time>
      </trkpt>
      <trkpt lat="40.7804240" lon="-4.0557380">
        <ele>1698.4</ele>
        <time>2019-04-28T08:27:32Z</time>
      </trkpt>
      <trkpt lat="40.7803900" lon="-4.0558710">
        <ele>1698.0</ele>
        <time>2019-04-28T08:27:33Z</time>
      </trkpt>
      <trkpt lat="40.7803600" lon="-4.0560030">
        <ele>1697.8</ele>
        <time>2019-04-28T08:27:34Z</time>
      </trkpt>
      <trkpt lat="40.7803170" lon="-4.0561250">
        <ele>1697.4</ele>
        <time>2019-04-28T08:27:35Z</time>
      </trkpt>
      <trkpt lat="40.7802640" lon="-4.0562400">
        <ele>1697.0</ele>
        <time>2019-04-28T08:27:36Z</time>
      </trkpt>
      <trkpt lat="40.7802030" lon="-4.0563540">
        <ele>1696.8</ele>
        <time>2019-04-28T08:27:37Z</time>
      </trkpt>
      <trkpt lat="40.7801310" lon="-4.0564410">
        <ele>1696.2</ele>
        <time>2019-04-28T08:27:38Z</time>
      </trkpt>
      <trkpt lat="40.7800450" lon="-4.0565180">
        <ele>1696.0</ele>
        <time>2019-04-28T08:27:39Z</time>
      </trkpt>
      <trkpt lat="40.7799560" lon="-4.0565650">
        <ele>1695.6</ele>
        <time>2019-04-28T08:27:40Z</time>
      </trkpt>
      <trkpt lat="40.7798730" lon="-4.0565940">
        <ele>1695.4</ele>
        <time>2019-04-28T08:27:41Z</time>
      </trkpt>
      <trkpt lat="40.7797810" lon="-4.0566180">
        <ele>1695.2</ele>
        <time>2019-04-28T08:27:42Z</time>
      </trkpt>
      <trkpt lat="40.7796780" lon="-4.0566200">
        <ele>1694.8</ele>
        <time>2019-04-28T08:27:43Z</time>
      </trkpt>
      <trkpt lat="40.7795740" lon="-4.0566120">
        <ele>1694.2</ele>
        <time>2019-04-28T08:27:44Z</time>
      </trkpt>
      <trkpt lat="40.7794800" lon="-4.0566160">
        <ele>1693.6</ele>
        <time>2019-04-28T08:27:45Z</time>
      </trkpt>
      <trkpt lat="40.7793810" lon="-4.0566220">
        <ele>1693.6</ele>
        <time>2019-04-28T08:27:46Z</time>
      </trkpt>
      <trkpt lat="40.7792670" lon="-4.0566240">
        <ele>1693.2</ele>
        <time>2019-04-28T08:27:47Z</time>
      </trkpt>
      <trkpt lat="40.7791580" lon="-4.0566220">
        <ele>1693.0</ele>
        <time>2019-04-28T08:27:48Z</time>
      </trkpt>
      <trkpt lat="40.7790640" lon="-4.0566160">
        <ele>1692.4</ele>
        <time>2019-04-28T08:27:49Z</time>
      </trkpt>
      <trkpt lat="40.7789740" lon="-4.0566120">
        <ele>1692.2</ele>
        <time>2019-04-28T08:27:50Z</time>
      </trkpt>
      <trkpt lat="40.7788710" lon="-4.0565890">
        <ele>1691.4</ele>
        <time>2019-04-28T08:27:51Z</time>
      </trkpt>
      <trkpt lat="40.7787590" lon="-4.0565450">
        <ele>1691.0</ele>
        <time>2019-04-28T08:27:52Z</time>
      </trkpt>
      <trkpt lat="40.7786560" lon="-4.0564890">
        <ele>1690.2</ele>
        <time>2019-04-28T08:27:53Z</time>
      </trkpt>
      <trkpt lat="40.7785570" lon="-4.0564250">
        <ele>1689.8</ele>
        <time>2019-04-28T08:27:54Z</time>
      </trkpt>
      <trkpt lat="40.7784590" lon="-4.0563650">
        <ele>1689.0</ele>
        <time>2019-04-28T08:27:55Z</time>
      </trkpt>
      <trkpt lat="40.7783580" lon="-4.0563040">
        <ele>1688.6</ele>
        <time>2019-04-28T08:27:56Z</time>
      </trkpt>
      <trkpt lat="40.7782560" lon="-4.0562390">
        <ele>1688.0</ele>
        <time>2019-04-28T08:27:57Z</time>
      </trkpt>
      <trkpt lat="40.7781540" lon="-4.0561740">
        <ele>1687.4</ele>
        <time>2019-04-28T08:27:58Z</time>
      </trkpt>
      <trkpt lat="40.7780580" lon="-4.0561040">
        <ele>1687.0</ele>
        <time>2019-04-28T08:27:59Z</time>
      </trkpt>
      <trkpt lat="40.7779610" lon="-4.0560280">
        <ele>1686.4</ele>
        <time>2019-04-28T08:28:00Z</time>
      </trkpt>
      <trkpt lat="40.7778620" lon="-4.0559530">
        <ele>1685.8</ele>
        <time>2019-04-28T08:28:01Z</time>
      </trkpt>
      <trkpt lat="40.7777540" lon="-4.0558850">
        <ele>1685.2</ele>
        <time>2019-04-28T08:28:02Z</time>
      </trkpt>
      <trkpt lat="40.7776480" lon="-4.0558140">
        <ele>1684.8</ele>
        <time>2019-04-28T08:28:03Z</time>
      </trkpt>
      <trkpt lat="40.7775470" lon="-4.0557530">
        <ele>1684.4</ele>
        <time>2019-04-28T08:28:04Z</time>
      </trkpt>
      <trkpt lat="40.7774400" lon="-4.0556930">
        <ele>1684.0</ele>
        <time>2019-04-28T08:28:05Z</time>
      </trkpt>
      <trkpt lat="40.7773340" lon="-4.0556530">
        <ele>1683.8</ele>
        <time>2019-04-28T08:28:06Z</time>
      </trkpt>
      <trkpt lat="40.7772440" lon="-4.0556360">
        <ele>1683.4</ele>
        <time>2019-04-28T08:28:07Z</time>
      </trkpt>
      <trkpt lat="40.7771500" lon="-4.0556140">
        <ele>1683.2</ele>
        <time>2019-04-28T08:28:08Z</time>
      </trkpt>
      <trkpt lat="40.7770400" lon="-4.0555890">
        <ele>1682.8</ele>
        <time>2019-04-28T08:28:09Z</time>
      </trkpt>
      <trkpt lat="40.7769230" lon="-4.0555720">
        <ele>1682.6</ele>
        <time>2019-04-28T08:28:10Z</time>
      </trkpt>
      <trkpt lat="40.7768100" lon="-4.0555500">
        <ele>1682.2</ele>
        <time>2019-04-28T08:28:11Z</time>
      </trkpt>
      <trkpt lat="40.7767090" lon="-4.0555370">
        <ele>1681.6</ele>
        <time>2019-04-28T08:28:12Z</time>
      </trkpt>
      <trkpt lat="40.7766200" lon="-4.0555350">
        <ele>1681.2</ele>
        <time>2019-04-28T08:28:13Z</time>
      </trkpt>
      <trkpt lat="40.7765160" lon="-4.0555210">
        <ele>1681.0</ele>
        <time>2019-04-28T08:28:14Z</time>
      </trkpt>
      <trkpt lat="40.7764110" lon="-4.0555020">
        <ele>1680.8</ele>
        <time>2019-04-28T08:28:15Z</time>
      </trkpt>
      <trkpt lat="40.7763030" lon="-4.0554750">
        <ele>1680.4</ele>
        <time>2019-04-28T08:28:16Z</time>
      </trkpt>
      <trkpt lat="40.7762030" lon="-4.0554510">
        <ele>1680.0</ele>
        <time>2019-04-28T08:28:17Z</time>
      </trkpt>
      <trkpt lat="40.7761080" lon="-4.0554180">
        <ele>1679.6</ele>
        <time>2019-04-28T08:28:18Z</time>
      </trkpt>
      <trkpt lat="40.7759980" lon="-4.0553960">
        <ele>1679.4</ele>
        <time>2019-04-28T08:28:19Z</time>
      </trkpt>
      <trkpt lat="40.7758940" lon="-4.0553730">
        <ele>1679.2</ele>
        <time>2019-04-28T08:28:20Z</time>
      </trkpt>
      <trkpt lat="40.7757740" lon="-4.0553400">
        <ele>1678.6</ele>
        <time>2019-04-28T08:28:21Z</time>
      </trkpt>
      <trkpt lat="40.7756590" lon="-4.0553050">
        <ele>1678.2</ele>
        <time>2019-04-28T08:28:22Z</time>
      </trkpt>
      <trkpt lat="40.7755520" lon="-4.0552710">
        <ele>1678.0</ele>
        <time>2019-04-28T08:28:23Z</time>
      </trkpt>
      <trkpt lat="40.7754370" lon="-4.0552450">
        <ele>1677.6</ele>
        <time>2019-04-28T08:28:24Z</time>
      </trkpt>
      <trkpt lat="40.7753290" lon="-4.0552080">
        <ele>1677.4</ele>
        <time>2019-04-28T08:28:25Z</time>
      </trkpt>
      <trkpt lat="40.7752210" lon="-4.0551720">
        <ele>1677.0</ele>
        <time>2019-04-28T08:28:26Z</time>
      </trkpt>
      <trkpt lat="40.7751200" lon="-4.0551280">
        <ele>1676.6</ele>
        <time>2019-04-28T08:28:27Z</time>
      </trkpt>
      <trkpt lat="40.7750210" lon="-4.0550730">
        <ele>1676.4</ele>
        <time>2019-04-28T08:28:28Z</time>
      </trkpt>
      <trkpt lat="40.7749240" lon="-4.0550070">
        <ele>1676.4</ele>
        <time>2019-04-28T08:28:29Z</time>
      </trkpt>
      <trkpt lat="40.7748470" lon="-4.0549410">
        <ele>1675.8</ele>
        <time>2019-04-28T08:28:30Z</time>
      </trkpt>
      <trkpt lat="40.7747690" lon="-4.0548630">
        <ele>1675.4</ele>
        <time>2019-04-28T08:28:31Z</time>
      </trkpt>
      <trkpt lat="40.7746930" lon="-4.0547820">
        <ele>1674.8</ele>
        <time>2019-04-28T08:28:32Z</time>
      </trkpt>
      <trkpt lat="40.7746140" lon="-4.0546980">
        <ele>1674.4</ele>
        <time>2019-04-28T08:28:33Z</time>
      </trkpt>
      <trkpt lat="40.7745250" lon="-4.0546230">
        <ele>1674.0</ele>
        <time>2019-04-28T08:28:34Z</time>
      </trkpt>
      <trkpt lat="40.7744420" lon="-4.0545330">
        <ele>1673.8</ele>
        <time>2019-04-28T08:28:35Z</time>
      </trkpt>
      <trkpt lat="40.7743480" lon="-4.0544580">
        <ele>1673.2</ele>
        <time>2019-04-28T08:28:36Z</time>
      </trkpt>
      <trkpt lat="40.7742590" lon="-4.0543740">
        <ele>1672.8</ele>
        <time>2019-04-28T08:28:37Z</time>
      </trkpt>
      <trkpt lat="40.7741700" lon="-4.0542910">
        <ele>1672.2</ele>
        <time>2019-04-28T08:28:38Z</time>
      </trkpt>
      <trkpt lat="40.7740900" lon="-4.0542010">
        <ele>1672.0</ele>
        <time>2019-04-28T08:28:39Z</time>
      </trkpt>
      <trkpt lat="40.7740050" lon="-4.0541210">
        <ele>1671.8</ele>
        <time>2019-04-28T08:28:40Z</time>
      </trkpt>
      <trkpt lat="40.7739180" lon="-4.0540310">
        <ele>1671.6</ele>
        <time>2019-04-28T08:28:41Z</time>
      </trkpt>
      <trkpt lat="40.7738420" lon="-4.0539230">
        <ele>1671.0</ele>
        <time>2019-04-28T08:28:42Z</time>
      </trkpt>
      <trkpt lat="40.7737690" lon="-4.0538140">
        <ele>1670.6</ele>
        <time>2019-04-28T08:28:43Z</time>
      </trkpt>
      <trkpt lat="40.7736860" lon="-4.0537180">
        <ele>1670.4</ele>
        <time>2019-04-28T08:28:44Z</time>
      </trkpt>
      <trkpt lat="40.7736100" lon="-4.0536150">
        <ele>1669.8</ele>
        <time>2019-04-28T08:28:45Z</time>
      </trkpt>
      <trkpt lat="40.7735340" lon="-4.0535350">
        <ele>1669.2</ele>
        <time>2019-04-28T08:28:46Z</time>
      </trkpt>
      <trkpt lat="40.7734560" lon="-4.0534440">
        <ele>1669.2</ele>
        <time>2019-04-28T08:28:47Z</time>
      </trkpt>
      <trkpt lat="40.7733830" lon="-4.0533620">
        <ele>1668.8</ele>
        <time>2019-04-28T08:28:48Z</time>
      </trkpt>
      <trkpt lat="40.7732940" lon="-4.0532780">
        <ele>1668.4</ele>
        <time>2019-04-28T08:28:49Z</time>
      </trkpt>
      <trkpt lat="40.7732040" lon="-4.0531980">
        <ele>1668.4</ele>
        <time>2019-04-28T08:28:50Z</time>
      </trkpt>
      <trkpt lat="40.7731110" lon="-4.0531220">
        <ele>1668.2</ele>
        <time>2019-04-28T08:28:51Z</time>
      </trkpt>
      <trkpt lat="40.7730150" lon="-4.0530490">
        <ele>1668.2</ele>
        <time>2019-04-28T08:28:52Z</time>
      </trkpt>
      <trkpt lat="40.7729220" lon="-4.0529810">
        <ele>1668.0</ele>
        <time>2019-04-28T08:28:53Z</time>
      </trkpt>
      <trkpt lat="40.7728260" lon="-4.0529100">
        <ele>1667.8</ele>
        <time>2019-04-28T08:28:54Z</time>
      </trkpt>
      <trkpt lat="40.7727330" lon="-4.0528500">
        <ele>1667.4</ele>
        <time>2019-04-28T08:28:55Z</time>
      </trkpt>
      <trkpt lat="40.7726330" lon="-4.0528000">
        <ele>1667.0</ele>
        <time>2019-04-28T08:28:56Z</time>
      </trkpt>
      <trkpt lat="40.7725330" lon="-4.0527520">
        <ele>1666.8</ele>
        <time>2019-04-28T08:28:57Z</time>
      </trkpt>
      <trkpt lat="40.7724320" lon="-4.0527040">
        <ele>1666.4</ele>
        <time>2019-04-28T08:28:58Z</time>
      </trkpt>
      <trkpt lat="40.7723360" lon="-4.0526570">
        <ele>1666.2</ele>
        <time>2019-04-28T08:28:59Z</time>
      </trkpt>
      <trkpt lat="40.7722420" lon="-4.0526040">
        <ele>1666.0</ele>
        <time>2019-04-28T08:29:00Z</time>
      </trkpt>
      <trkpt lat="40.7721560" lon="-4.0525430">
        <ele>1665.8</ele>
        <time>2019-04-28T08:29:01Z</time>
      </trkpt>
      <trkpt lat="40.7720690" lon="-4.0524790">
        <ele>1665.6</ele>
        <time>2019-04-28T08:29:02Z</time>
      </trkpt>
      <trkpt lat="40.7719840" lon="-4.0524100">
        <ele>1665.4</ele>
        <time>2019-04-28T08:29:03Z</time>
      </trkpt>
      <trkpt lat="40.7719010" lon="-4.0523390">
        <ele>1665.0</ele>
        <time>2019-04-28T08:29:04Z</time>
      </trkpt>
      <trkpt lat="40.7718090" lon="-4.0522710">
        <ele>1665.0</ele>
        <time>2019-04-28T08:29:05Z</time>
      </trkpt>
      <trkpt lat="40.7717320" lon="-4.0522040">
        <ele>1664.6</ele>
        <time>2019-04-28T08:29:06Z</time>
      </trkpt>
      <trkpt lat="40.7716570" lon="-4.0521580">
        <ele>1664.4</ele>
        <time>2019-04-28T08:29:07Z</time>
      </trkpt>
      <trkpt lat="40.7715760" lon="-4.0521210">
        <ele>1664.0</ele>
        <time>2019-04-28T08:29:08Z</time>
      </trkpt>
      <trkpt lat="40.7714920" lon="-4.0520950">
        <ele>1663.6</ele>
        <time>2019-04-28T08:29:09Z</time>
      </trkpt>
      <trkpt lat="40.7713900" lon="-4.0520500">
        <ele>1663.4</ele>
        <time>2019-04-28T08:29:10Z</time>
      </trkpt>
      <trkpt lat="40.7713250" lon="-4.0520270">
        <ele>1663.2</ele>
        <time>2019-04-28T08:29:11Z</time>
      </trkpt>
      <trkpt lat="40.7712220" lon="-4.0519800">
        <ele>1663.0</ele>
        <time>2019-04-28T08:29:12Z</time>
      </trkpt>
      <trkpt lat="40.7711360" lon="-4.0519270">
        <ele>1662.6</ele>
        <time>2019-04-28T08:29:13Z</time>
      </trkpt>
      <trkpt lat="40.7710510" lon="-4.0518780">
        <ele>1662.4</ele>
        <time>2019-04-28T08:29:14Z</time>
      </trkpt>
      <trkpt lat="40.7709520" lon="-4.0518260">
        <ele>1662.0</ele>
        <time>2019-04-28T08:29:15Z</time>
      </trkpt>
      <trkpt lat="40.7708590" lon="-4.0517770">
        <ele>1661.8</ele>
        <time>2019-04-28T08:29:16Z</time>
      </trkpt>
      <trkpt lat="40.7707740" lon="-4.0517210">
        <ele>1661.6</ele>
        <time>2019-04-28T08:29:17Z</time>
      </trkpt>
      <trkpt lat="40.7706760" lon="-4.0516930">
        <ele>1661.2</ele>
        <time>2019-04-28T08:29:18Z</time>
      </trkpt>
      <trkpt lat="40.7705810" lon="-4.0516900">
        <ele>1661.0</ele>
        <time>2019-04-28T08:29:19Z</time>
      </trkpt>
      <trkpt lat="40.7705040" lon="-4.0516880">
        <ele>1660.4</ele>
        <time>2019-04-28T08:29:20Z</time>
      </trkpt>
      <trkpt lat="40.7704130" lon="-4.0516820">
        <ele>1660.2</ele>
        <time>2019-04-28T08:29:21Z</time>
      </trkpt>
      <trkpt lat="40.7703320" lon="-4.0516900">
        <ele>1660.0</ele>
        <time>2019-04-28T08:29:22Z</time>
      </trkpt>
      <trkpt lat="40.7702330" lon="-4.0516790">
        <ele>1659.8</ele>
        <time>2019-04-28T08:29:23Z</time>
      </trkpt>
      <trkpt lat="40.7701550" lon="-4.0516660">
        <ele>1659.4</ele>
        <time>2019-04-28T08:29:24Z</time>
      </trkpt>
      <trkpt lat="40.7700690" lon="-4.0516320">
        <ele>1659.2</ele>
        <time>2019-04-28T08:29:25Z</time>
      </trkpt>
      <trkpt lat="40.7699650" lon="-4.0515850">
        <ele>1659.0</ele>
        <time>2019-04-28T08:29:26Z</time>
      </trkpt>
      <trkpt lat="40.7698630" lon="-4.0515290">
        <ele>1658.6</ele>
        <time>2019-04-28T08:29:27Z</time>
      </trkpt>
      <trkpt lat="40.7697690" lon="-4.0514680">
        <ele>1658.2</ele>
        <time>2019-04-28T08:29:28Z</time>
      </trkpt>
      <trkpt lat="40.7696720" lon="-4.0514070">
        <ele>1658.2</ele>
        <time>2019-04-28T08:29:29Z</time>
      </trkpt>
      <trkpt lat="40.7695730" lon="-4.0513530">
        <ele>1657.6</ele>
        <time>2019-04-28T08:29:30Z</time>
      </trkpt>
      <trkpt lat="40.7694730" lon="-4.0513020">
        <ele>1657.2</ele>
        <time>2019-04-28T08:29:31Z</time>
      </trkpt>
      <trkpt lat="40.7693760" lon="-4.0512540">
        <ele>1656.8</ele>
        <time>2019-04-28T08:29:32Z</time>
      </trkpt>
      <trkpt lat="40.7692810" lon="-4.0512230">
        <ele>1656.4</ele>
        <time>2019-04-28T08:29:33Z</time>
      </trkpt>
      <trkpt lat="40.7691830" lon="-4.0512080">
        <ele>1655.8</ele>
        <time>2019-04-28T08:29:34Z</time>
      </trkpt>
      <trkpt lat="40.7690890" lon="-4.0512080">
        <ele>1655.8</ele>
        <time>2019-04-28T08:29:35Z</time>
      </trkpt>
      <trkpt lat="40.7689990" lon="-4.0512190">
        <ele>1655.4</ele>
        <time>2019-04-28T08:29:36Z</time>
      </trkpt>
      <trkpt lat="40.7689210" lon="-4.0512340">
        <ele>1655.2</ele>
        <time>2019-04-28T08:29:37Z</time>
      </trkpt>
      <trkpt lat="40.7688390" lon="-4.0512520">
        <ele>1655.6</ele>
        <time>2019-04-28T08:29:38Z</time>
      </trkpt>
      <trkpt lat="40.7687570" lon="-4.0512860">
        <ele>1655.8</ele>
        <time>2019-04-28T08:29:39Z</time>
      </trkpt>
      <trkpt lat="40.7686870" lon="-4.0513460">
        <ele>1655.8</ele>
        <time>2019-04-28T08:29:40Z</time>
      </trkpt>
      <trkpt lat="40.7686220" lon="-4.0514180">
        <ele>1656.0</ele>
        <time>2019-04-28T08:29:41Z</time>
      </trkpt>
      <trkpt lat="40.7685650" lon="-4.0514940">
        <ele>1656.6</ele>
        <time>2019-04-28T08:29:42Z</time>
      </trkpt>
      <trkpt lat="40.7685190" lon="-4.0515750">
        <ele>1656.6</ele>
        <time>2019-04-28T08:29:43Z</time>
      </trkpt>
      <trkpt lat="40.7684830" lon="-4.0516550">
        <ele>1656.6</ele>
        <time>2019-04-28T08:29:44Z</time>
      </trkpt>
      <trkpt lat="40.7684470" lon="-4.0517180">
        <ele>1656.6</ele>
        <time>2019-04-28T08:29:45Z</time>
      </trkpt>
      <trkpt lat="40.7684140" lon="-4.0517910">
        <ele>1656.4</ele>
        <time>2019-04-28T08:29:46Z</time>
      </trkpt>
      <trkpt lat="40.7683890" lon="-4.0518660">
        <ele>1656.2</ele>
        <time>2019-04-28T08:29:47Z</time>
      </trkpt>
      <trkpt lat="40.7683630" lon="-4.0519410">
        <ele>1656.0</ele>
        <time>2019-04-28T08:29:48Z</time>
      </trkpt>
      <trkpt lat="40.7683380" lon="-4.0520140">
        <ele>1655.8</ele>
        <time>2019-04-28T08:29:49Z</time>
      </trkpt>
      <trkpt lat="40.7683090" lon="-4.0520890">
        <ele>1655.6</ele>
        <time>2019-04-28T08:29:50Z</time>
      </trkpt>
      <trkpt lat="40.7682770" lon="-4.0521490">
        <ele>1655.6</ele>
        <time>2019-04-28T08:29:51Z</time>
      </trkpt>
      <trkpt lat="40.7682230" lon="-4.0522090">
        <ele>1655.6</ele>
        <time>2019-04-28T08:29:52Z</time>
      </trkpt>
      <trkpt lat="40.7681700" lon="-4.0522750">
        <ele>1655.8</ele>
        <time>2019-04-28T08:29:53Z</time>
      </trkpt>
      <trkpt lat="40.7681180" lon="-4.0523500">
        <ele>1656.0</ele>
        <time>2019-04-28T08:29:54Z</time>
      </trkpt>
      <trkpt lat="40.7680600" lon="-4.0524280">
        <ele>1656.0</ele>
        <time>2019-04-28T08:29:55Z</time>
      </trkpt>
      <trkpt lat="40.7680030" lon="-4.0525110">
        <ele>1656.0</ele>
        <time>2019-04-28T08:29:56Z</time>
      </trkpt>
      <trkpt lat="40.7679400" lon="-4.0525990">
        <ele>1656.0</ele>
        <time>2019-04-28T08:29:57Z</time>
      </trkpt>
      <trkpt lat="40.7678870" lon="-4.0526790">
        <ele>1655.8</ele>
        <time>2019-04-28T08:29:58Z</time>
      </trkpt>
      <trkpt lat="40.7678330" lon="-4.0527640">
        <ele>1655.6</ele>
        <time>2019-04-28T08:29:59Z</time>
      </trkpt>
      <trkpt lat="40.7677760" lon="-4.0528470">
        <ele>1655.4</ele>
        <time>2019-04-28T08:30:00Z</time>
      </trkpt>
      <trkpt lat="40.7677190" lon="-4.0529090">
        <ele>1655.4</ele>
        <time>2019-04-28T08:30:01Z</time>
      </trkpt>
      <trkpt lat="40.7676610" lon="-4.0529800">
        <ele>1655.4</ele>
        <time>2019-04-28T08:30:02Z</time>
      </trkpt>
      <trkpt lat="40.7675990" lon="-4.0530460">
        <ele>1655.0</ele>
        <time>2019-04-28T08:30:03Z</time>
      </trkpt>
      <trkpt lat="40.7675310" lon="-4.0530940">
        <ele>1654.8</ele>
        <time>2019-04-28T08:30:04Z</time>
      </trkpt>
      <trkpt lat="40.7674610" lon="-4.0531250">
        <ele>1654.8</ele>
        <time>2019-04-28T08:30:05Z</time>
      </trkpt>
      <trkpt lat="40.7673910" lon="-4.0531400">
        <ele>1655.4</ele>
        <time>2019-04-28T08:30:06Z</time>
      </trkpt>
      <trkpt lat="40.7673230" lon="-4.0531390">
        <ele>1656.0</ele>
        <time>2019-04-28T08:30:07Z</time>
      </trkpt>
      <trkpt lat="40.7672500" lon="-4.0531310">
        <ele>1656.6</ele>
        <time>2019-04-28T08:30:08Z</time>
      </trkpt>
      <trkpt lat="40.7671860" lon="-4.0531240">
        <ele>1657.0</ele>
        <time>2019-04-28T08:30:09Z</time>
      </trkpt>
      <trkpt lat="40.7671310" lon="-4.0531240">
        <ele>1657.0</ele>
        <time>2019-04-28T08:30:10Z</time>
      </trkpt>
      <trkpt lat="40.7670650" lon="-4.0531260">
        <ele>1656.8</ele>
        <time>2019-04-28T08:30:11Z</time>
      </trkpt>
      <trkpt lat="40.7670010" lon="-4.0531370">
        <ele>1656.8</ele>
        <time>2019-04-28T08:30:12Z</time>
      </trkpt>
      <trkpt lat="40.7669330" lon="-4.0531600">
        <ele>1656.8</ele>
        <time>2019-04-28T08:30:13Z</time>
      </trkpt>
      <trkpt lat="40.7668690" lon="-4.0531910">
        <ele>1657.0</ele>
        <time>2019-04-28T08:30:14Z</time>
      </trkpt>
      <trkpt lat="40.7668100" lon="-4.0532320">
        <ele>1657.0</ele>
        <time>2019-04-28T08:30:15Z</time>
      </trkpt>
      <trkpt lat="40.7667590" lon="-4.0532750">
        <ele>1657.0</ele>
        <time>2019-04-28T08:30:16Z</time>
      </trkpt>
      <trkpt lat="40.7667060" lon="-4.0533210">
        <ele>1657.0</ele>
        <time>2019-04-28T08:30:17Z</time>
      </trkpt>
      <trkpt lat="40.7666590" lon="-4.0533740">
        <ele>1657.2</ele>
        <time>2019-04-28T08:30:18Z</time>
      </trkpt>
      <trkpt lat="40.7666140" lon="-4.0534230">
        <ele>1657.2</ele>
        <time>2019-04-28T08:30:19Z</time>
      </trkpt>
      <trkpt lat="40.7665700" lon="-4.0534800">
        <ele>1657.4</ele>
        <time>2019-04-28T08:30:20Z</time>
      </trkpt>
      <trkpt lat="40.7665320" lon="-4.0535370">
        <ele>1657.6</ele>
        <time>2019-04-28T08:30:21Z</time>
      </trkpt>
      <trkpt lat="40.7664930" lon="-4.0536010">
        <ele>1657.4</ele>
        <time>2019-04-28T08:30:22Z</time>
      </trkpt>
      <trkpt lat="40.7664540" lon="-4.0536530">
        <ele>1657.4</ele>
        <time>2019-04-28T08:30:23Z</time>
      </trkpt>
      <trkpt lat="40.7664220" lon="-4.0536850">
        <ele>1657.6</ele>
        <time>2019-04-28T08:30:24Z</time>
      </trkpt>
      <trkpt lat="40.7663830" lon="-4.0537250">
        <ele>1657.8</ele>
        <time>2019-04-28T08:30:25Z</time>
      </trkpt>
      <trkpt lat="40.7663450" lon="-4.0537830">
        <ele>1657.8</ele>
        <time>2019-04-28T08:30:26Z</time>
      </trkpt>
      <trkpt lat="40.7663030" lon="-4.0538520">
        <ele>1658.0</ele>
        <time>2019-04-28T08:30:27Z</time>
      </trkpt>
      <trkpt lat="40.7662690" lon="-4.0539140">
        <ele>1658.0</ele>
        <time>2019-04-28T08:30:28Z</time>
      </trkpt>
      <trkpt lat="40.7662350" lon="-4.0539690">
        <ele>1658.0</ele>
        <time>2019-04-28T08:30:29Z</time>
      </trkpt>
      <trkpt lat="40.7662030" lon="-4.0540270">
        <ele>1658.0</ele>
        <time>2019-04-28T08:30:30Z</time>
      </trkpt>
      <trkpt lat="40.7661710" lon="-4.0540790">
        <ele>1658.0</ele>
        <time>2019-04-28T08:30:31Z</time>
      </trkpt>
      <trkpt lat="40.7661430" lon="-4.0541350">
        <ele>1658.2</ele>
        <time>2019-04-28T08:30:32Z</time>
      </trkpt>
      <trkpt lat="40.7661060" lon="-4.0541980">
        <ele>1658.4</ele>
        <time>2019-04-28T08:30:33Z</time>
      </trkpt>
      <trkpt lat="40.7660850" lon="-4.0542580">
        <ele>1658.4</ele>
        <time>2019-04-28T08:30:34Z</time>
      </trkpt>
      <trkpt lat="40.7660620" lon="-4.0543100">
        <ele>1658.2</ele>
        <time>2019-04-28T08:30:35Z</time>
      </trkpt>
      <trkpt lat="40.7660390" lon="-4.0543480">
        <ele>1658.4</ele>
        <time>2019-04-28T08:30:36Z</time>
      </trkpt>
      <trkpt lat="40.7660170" lon="-4.0543860">
        <ele>1658.4</ele>
        <time>2019-04-28T08:30:37Z</time>
      </trkpt>
      <trkpt lat="40.7659850" lon="-4.0544420">
        <ele>1658.4</ele>
        <time>2019-04-28T08:30:38Z</time>
      </trkpt>
      <trkpt lat="40.7659700" lon="-4.0544870">
        <ele>1658.2</ele>
        <time>2019-04-28T08:30:39Z</time>
      </trkpt>
      <trkpt lat="40.7659300" lon="-4.0545510">
        <ele>1658.2</ele>
        <time>2019-04-28T08:30:40Z</time>
      </trkpt>
      <trkpt lat="40.7658920" lon="-4.0546020">
        <ele>1658.2</ele>
        <time>2019-04-28T08:30:41Z</time>
      </trkpt>
      <trkpt lat="40.7658620" lon="-4.0546570">
        <ele>1658.2</ele>
        <time>2019-04-28T08:30:42Z</time>
      </trkpt>
      <trkpt lat="40.7658340" lon="-4.0546950">
        <ele>1658.2</ele>
        <time>2019-04-28T08:30:43Z</time>
      </trkpt>
      <trkpt lat="40.7657910" lon="-4.0547750">
        <ele>1658.2</ele>
        <time>2019-04-28T08:30:44Z</time>
      </trkpt>
      <trkpt lat="40.7657560" lon="-4.0548280">
        <ele>1658.2</ele>
        <time>2019-04-28T08:30:45Z</time>
      </trkpt>
      <trkpt lat="40.7657220" lon="-4.0548880">
        <ele>1658.0</ele>
        <time>2019-04-28T08:30:46Z</time>
      </trkpt>
      <trkpt lat="40.7656920" lon="-4.0549500">
        <ele>1657.8</ele>
        <time>2019-04-28T08:30:47Z</time>
      </trkpt>
      <trkpt lat="40.7656570" lon="-4.0550180">
        <ele>1657.6</ele>
        <time>2019-04-28T08:30:48Z</time>
      </trkpt>
      <trkpt lat="40.7656230" lon="-4.0550840">
        <ele>1657.8</ele>
        <time>2019-04-28T08:30:49Z</time>
      </trkpt>
      <trkpt lat="40.7655860" lon="-4.0551510">
        <ele>1658.2</ele>
        <time>2019-04-28T08:30:50Z</time>
      </trkpt>
      <trkpt lat="40.7655560" lon="-4.0552050">
        <ele>1658.4</ele>
        <time>2019-04-28T08:30:51Z</time>
      </trkpt>
      <trkpt lat="40.7655150" lon="-4.0552650">
        <ele>1658.4</ele>
        <time>2019-04-28T08:30:52Z</time>
      </trkpt>
      <trkpt lat="40.7654730" lon="-4.0553190">
        <ele>1658.4</ele>
        <time>2019-04-28T08:30:53Z</time>
      </trkpt>
      <trkpt lat="40.7654260" lon="-4.0553710">
        <ele>1658.6</ele>
        <time>2019-04-28T08:30:54Z</time>
      </trkpt>
      <trkpt lat="40.7653770" lon="-4.0554210">
        <ele>1658.8</ele>
        <time>2019-04-28T08:30:55Z</time>
      </trkpt>
      <trkpt lat="40.7653300" lon="-4.0554720">
        <ele>1659.4</ele>
        <time>2019-04-28T08:30:56Z</time>
      </trkpt>
      <trkpt lat="40.7652820" lon="-4.0555260">
        <ele>1659.6</ele>
        <time>2019-04-28T08:30:57Z</time>
      </trkpt>
      <trkpt lat="40.7652310" lon="-4.0555830">
        <ele>1659.8</ele>
        <time>2019-04-28T08:30:58Z</time>
      </trkpt>
      <trkpt lat="40.7651910" lon="-4.0556410">
        <ele>1660.2</ele>
        <time>2019-04-28T08:30:59Z</time>
      </trkpt>
      <trkpt lat="40.7651530" lon="-4.0557110">
        <ele>1660.6</ele>
        <time>2019-04-28T08:31:00Z</time>
      </trkpt>
      <trkpt lat="40.7651200" lon="-4.0557720">
        <ele>1660.6</ele>
        <time>2019-04-28T08:31:01Z</time>
      </trkpt>
      <trkpt lat="40.7650930" lon="-4.0558300">
        <ele>1661.0</ele>
        <time>2019-04-28T08:31:02Z</time>
      </trkpt>
      <trkpt lat="40.7650690" lon="-4.0558940">
        <ele>1661.2</ele>
        <time>2019-04-28T08:31:03Z</time>
      </trkpt>
      <trkpt lat="40.7650460" lon="-4.0559580">
        <ele>1661.4</ele>
        <time>2019-04-28T08:31:04Z</time>
      </trkpt>
      <trkpt lat="40.7650220" lon="-4.0560280">
        <ele>1661.4</ele>
        <time>2019-04-28T08:31:05Z</time>
      </trkpt>
      <trkpt lat="40.7649980" lon="-4.0560970">
        <ele>1661.8</ele>
        <time>2019-04-28T08:31:06Z</time>
      </trkpt>
      <trkpt lat="40.7649750" lon="-4.0561610">
        <ele>1661.8</ele>
        <time>2019-04-28T08:31:07Z</time>
      </trkpt>
      <trkpt lat="40.7649470" lon="-4.0562360">
        <ele>1661.6</ele>
        <time>2019-04-28T08:31:08Z</time>
      </trkpt>
      <trkpt lat="40.7649250" lon="-4.0563060">
        <ele>1661.6</ele>
        <time>2019-04-28T08:31:09Z</time>
      </trkpt>
      <trkpt lat="40.7649070" lon="-4.0563770">
        <ele>1661.6</ele>
        <time>2019-04-28T08:31:10Z</time>
      </trkpt>
      <trkpt lat="40.7648920" lon="-4.0564450">
        <ele>1661.6</ele>
        <time>2019-04-28T08:31:11Z</time>
      </trkpt>
      <trkpt lat="40.7648900" lon="-4.0565160">
        <ele>1661.2</ele>
        <time>2019-04-28T08:31:12Z</time>
      </trkpt>
      <trkpt lat="40.7649020" lon="-4.0565900">
        <ele>1661.0</ele>
        <time>2019-04-28T08:31:13Z</time>
      </trkpt>
      <trkpt lat="40.7649320" lon="-4.0566570">
        <ele>1660.8</ele>
        <time>2019-04-28T08:31:14Z</time>
      </trkpt>
      <trkpt lat="40.7649800" lon="-4.0566970">
        <ele>1660.2</ele>
        <time>2019-04-28T08:31:15Z</time>
      </trkpt>
      <trkpt lat="40.7650330" lon="-4.0567060">
        <ele>1660.0</ele>
        <time>2019-04-28T08:31:16Z</time>
      </trkpt>
      <trkpt lat="40.7650740" lon="-4.0567020">
        <ele>1660.0</ele>
        <time>2019-04-28T08:31:17Z</time>
      </trkpt>
      <trkpt lat="40.7651060" lon="-4.0566940">
        <ele>1659.8</ele>
        <time>2019-04-28T08:31:18Z</time>
      </trkpt>
      <trkpt lat="40.7651450" lon="-4.0566620">
        <ele>1659.6</ele>
        <time>2019-04-28T08:31:19Z</time>
      </trkpt>
      <trkpt lat="40.7651930" lon="-4.0565990">
        <ele>1659.2</ele>
        <time>2019-04-28T08:31:20Z</time>
      </trkpt>
      <trkpt lat="40.7652370" lon="-4.0565420">
        <ele>1658.8</ele>
        <time>2019-04-28T08:31:21Z</time>
      </trkpt>
      <trkpt lat="40.7652810" lon="-4.0564860">
        <ele>1658.2</ele>
        <time>2019-04-28T08:31:22Z</time>
      </trkpt>
      <trkpt lat="40.7653290" lon="-4.0564250">
        <ele>1657.8</ele>
        <time>2019-04-28T08:31:23Z</time>
      </trkpt>
      <trkpt lat="40.7653810" lon="-4.0563760">
        <ele>1657.4</ele>
        <time>2019-04-28T08:31:24Z</time>
      </trkpt>
      <trkpt lat="40.7654390" lon="-4.0563260">
        <ele>1656.8</ele>
        <time>2019-04-28T08:31:25Z</time>
      </trkpt>
      <trkpt lat="40.7654990" lon="-4.0562760">
        <ele>1656.4</ele>
        <time>2019-04-28T08:31:26Z</time>
      </trkpt>
      <trkpt lat="40.7655690" lon="-4.0562130">
        <ele>1656.0</ele>
        <time>2019-04-28T08:31:27Z</time>
      </trkpt>
      <trkpt lat="40.7656470" lon="-4.0561660">
        <ele>1655.4</ele>
        <time>2019-04-28T08:31:28Z</time>
      </trkpt>
      <trkpt lat="40.7657240" lon="-4.0561230">
        <ele>1654.6</ele>
        <time>2019-04-28T08:31:29Z</time>
      </trkpt>
      <trkpt lat="40.7658060" lon="-4.0560660">
        <ele>1654.0</ele>
        <time>2019-04-28T08:31:30Z</time>
      </trkpt>
      <trkpt lat="40.7658870" lon="-4.0560140">
        <ele>1653.8</ele>
        <time>2019-04-28T08:31:31Z</time>
      </trkpt>
      <trkpt lat="40.7659690" lon="-4.0559630">
        <ele>1652.8</ele>
        <time>2019-04-28T08:31:32Z</time>
      </trkpt>
      <trkpt lat="40.7660560" lon="-4.0559250">
        <ele>1652.0</ele>
        <time>2019-04-28T08:31:33Z</time>
      </trkpt>
      <trkpt lat="40.7661460" lon="-4.0558660">
        <ele>1651.6</ele>
        <time>2019-04-28T08:31:34Z</time>
      </trkpt>
      <trkpt lat="40.7662380" lon="-4.0558120">
        <ele>1651.0</ele>
        <time>2019-04-28T08:31:35Z</time>
      </trkpt>
      <trkpt lat="40.7663300" lon="-4.0557460">
        <ele>1650.6</ele>
        <time>2019-04-28T08:31:36Z</time>
      </trkpt>
      <trkpt lat="40.7664240" lon="-4.0556750">
        <ele>1650.0</ele>
        <time>2019-04-28T08:31:37Z</time>
      </trkpt>
      <trkpt lat="40.7665210" lon="-4.0556060">
        <ele>1649.2</ele>
        <time>2019-04-28T08:31:38Z</time>
      </trkpt>
      <trkpt lat="40.7666170" lon="-4.0555420">
        <ele>1648.4</ele>
        <time>2019-04-28T08:31:39Z</time>
      </trkpt>
      <trkpt lat="40.7667160" lon="-4.0554710">
        <ele>1647.8</ele>
        <time>2019-04-28T08:31:40Z</time>
      </trkpt>
      <trkpt lat="40.7668170" lon="-4.0553990">
        <ele>1647.0</ele>
        <time>2019-04-28T08:31:41Z</time>
      </trkpt>
      <trkpt lat="40.7669190" lon="-4.0553300">
        <ele>1646.4</ele>
        <time>2019-04-28T08:31:42Z</time>
      </trkpt>
      <trkpt lat="40.7670170" lon="-4.0552640">
        <ele>1645.8</ele>
        <time>2019-04-28T08:31:43Z</time>
      </trkpt>
      <trkpt lat="40.7671140" lon="-4.0551930">
        <ele>1645.0</ele>
        <time>2019-04-28T08:31:44Z</time>
      </trkpt>
      <trkpt lat="40.7672120" lon="-4.0551210">
        <ele>1644.4</ele>
        <time>2019-04-28T08:31:45Z</time>
      </trkpt>
      <trkpt lat="40.7673100" lon="-4.0550490">
        <ele>1643.6</ele>
        <time>2019-04-28T08:31:46Z</time>
      </trkpt>
      <trkpt lat="40.7674100" lon="-4.0549720">
        <ele>1643.0</ele>
        <time>2019-04-28T08:31:47Z</time>
      </trkpt>
      <trkpt lat="40.7675120" lon="-4.0549030">
        <ele>1642.2</ele>
        <time>2019-04-28T08:31:48Z</time>
      </trkpt>
      <trkpt lat="40.7676140" lon="-4.0548330">
        <ele>1641.2</ele>
        <time>2019-04-28T08:31:49Z</time>
      </trkpt>
      <trkpt lat="40.7677180" lon="-4.0547650">
        <ele>1640.6</ele>
        <time>2019-04-28T08:31:50Z</time>
      </trkpt>
      <trkpt lat="40.7678230" lon="-4.0547030">
        <ele>1640.0</ele>
        <time>2019-04-28T08:31:51Z</time>
      </trkpt>
      <trkpt lat="40.7679280" lon="-4.0546590">
        <ele>1639.2</ele>
        <time>2019-04-28T08:31:52Z</time>
      </trkpt>
      <trkpt lat="40.7680320" lon="-4.0546010">
        <ele>1638.4</ele>
        <time>2019-04-28T08:31:53Z</time>
      </trkpt>
      <trkpt lat="40.7681360" lon="-4.0545390">
        <ele>1637.8</ele>
        <time>2019-04-28T08:31:54Z</time>
      </trkpt>
      <trkpt lat="40.7682400" lon="-4.0544810">
        <ele>1637.0</ele>
        <time>2019-04-28T08:31:55Z</time>
      </trkpt>
      <trkpt lat="40.7683610" lon="-4.0544350">
        <ele>1636.6</ele>
        <time>2019-04-28T08:31:56Z</time>
      </trkpt>
      <trkpt lat="40.7684770" lon="-4.0543980">
        <ele>1635.8</ele>
        <time>2019-04-28T08:31:57Z</time>
      </trkpt>
      <trkpt lat="40.7685800" lon="-4.0543570">
        <ele>1635.6</ele>
        <time>2019-04-28T08:31:58Z</time>
      </trkpt>
      <trkpt lat="40.7686690" lon="-4.0543340">
        <ele>1635.0</ele>
        <time>2019-04-28T08:31:59Z</time>
      </trkpt>
      <trkpt lat="40.7687520" lon="-4.0542940">
        <ele>1634.6</ele>
        <time>2019-04-28T08:32:00Z</time>
      </trkpt>
      <trkpt lat="40.7688410" lon="-4.0542400">
        <ele>1634.0</ele>
        <time>2019-04-28T08:32:01Z</time>
      </trkpt>
      <trkpt lat="40.7689170" lon="-4.0541760">
        <ele>1633.4</ele>
        <time>2019-04-28T08:32:02Z</time>
      </trkpt>
      <trkpt lat="40.7689950" lon="-4.0541010">
        <ele>1632.6</ele>
        <time>2019-04-28T08:32:03Z</time>
      </trkpt>
      <trkpt lat="40.7690690" lon="-4.0540090">
        <ele>1632.0</ele>
        <time>2019-04-28T08:32:04Z</time>
      </trkpt>
      <trkpt lat="40.7691390" lon="-4.0539130">
        <ele>1631.4</ele>
        <time>2019-04-28T08:32:05Z</time>
      </trkpt>
      <trkpt lat="40.7692100" lon="-4.0538200">
        <ele>1630.6</ele>
        <time>2019-04-28T08:32:06Z</time>
      </trkpt>
      <trkpt lat="40.7692870" lon="-4.0537340">
        <ele>1630.2</ele>
        <time>2019-04-28T08:32:07Z</time>
      </trkpt>
      <trkpt lat="40.7693770" lon="-4.0536550">
        <ele>1629.4</ele>
        <time>2019-04-28T08:32:08Z</time>
      </trkpt>
      <trkpt lat="40.7694660" lon="-4.0535960">
        <ele>1628.8</ele>
        <time>2019-04-28T08:32:09Z</time>
      </trkpt>
      <trkpt lat="40.7695500" lon="-4.0535390">
        <ele>1628.0</ele>
        <time>2019-04-28T08:32:10Z</time>
      </trkpt>
      <trkpt lat="40.7696610" lon="-4.0534920">
        <ele>1627.4</ele>
        <time>2019-04-28T08:32:11Z</time>
      </trkpt>
      <trkpt lat="40.7697870" lon="-4.0534400">
        <ele>1627.0</ele>
        <time>2019-04-28T08:32:12Z</time>
      </trkpt>
      <trkpt lat="40.7699060" lon="-4.0534260">
        <ele>1626.6</ele>
        <time>2019-04-28T08:32:13Z</time>
      </trkpt>
      <trkpt lat="40.7700120" lon="-4.0534260">
        <ele>1626.4</ele>
        <time>2019-04-28T08:32:14Z</time>
      </trkpt>
      <trkpt lat="40.7701210" lon="-4.0534300">
        <ele>1626.0</ele>
        <time>2019-04-28T08:32:15Z</time>
      </trkpt>
      <trkpt lat="40.7702310" lon="-4.0534230">
        <ele>1625.6</ele>
        <time>2019-04-28T08:32:16Z</time>
      </trkpt>
      <trkpt lat="40.7703440" lon="-4.0534250">
        <ele>1625.0</ele>
        <time>2019-04-28T08:32:17Z</time>
      </trkpt>
      <trkpt lat="40.7704570" lon="-4.0534250">
        <ele>1624.2</ele>
        <time>2019-04-28T08:32:18Z</time>
      </trkpt>
      <trkpt lat="40.7705720" lon="-4.0534280">
        <ele>1623.4</ele>
        <time>2019-04-28T08:32:19Z</time>
      </trkpt>
      <trkpt lat="40.7706950" lon="-4.0534360">
        <ele>1622.8</ele>
        <time>2019-04-28T08:32:20Z</time>
      </trkpt>
      <trkpt lat="40.7708170" lon="-4.0534390">
        <ele>1622.6</ele>
        <time>2019-04-28T08:32:21Z</time>
      </trkpt>
      <trkpt lat="40.7709440" lon="-4.0534310">
        <ele>1622.0</ele>
        <time>2019-04-28T08:32:22Z</time>
      </trkpt>
      <trkpt lat="40.7710670" lon="-4.0534270">
        <ele>1621.4</ele>
        <time>2019-04-28T08:32:23Z</time>
      </trkpt>
      <trkpt lat="40.7711870" lon="-4.0534410">
        <ele>1621.0</ele>
        <time>2019-04-28T08:32:24Z</time>
      </trkpt>
      <trkpt lat="40.7713040" lon="-4.0534570">
        <ele>1620.6</ele>
        <time>2019-04-28T08:32:25Z</time>
      </trkpt>
      <trkpt lat="40.7714130" lon="-4.0534910">
        <ele>1620.4</ele>
        <time>2019-04-28T08:32:26Z</time>
      </trkpt>
      <trkpt lat="40.7715220" lon="-4.0535260">
        <ele>1620.2</ele>
        <time>2019-04-28T08:32:27Z</time>
      </trkpt>
      <trkpt lat="40.7716230" lon="-4.0535760">
        <ele>1619.8</ele>
        <time>2019-04-28T08:32:28Z</time>
      </trkpt>
      <trkpt lat="40.7717220" lon="-4.0536300">
        <ele>1619.6</ele>
        <time>2019-04-28T08:32:29Z</time>
      </trkpt>
      <trkpt lat="40.7718170" lon="-4.0536970">
        <ele>1619.4</ele>
        <time>2019-04-28T08:32:30Z</time>
      </trkpt>
      <trkpt lat="40.7719060" lon="-4.0537750">
        <ele>1619.0</ele>
        <time>2019-04-28T08:32:31Z</time>
      </trkpt>
      <trkpt lat="40.7719960" lon="-4.0538450">
        <ele>1618.2</ele>
        <time>2019-04-28T08:32:32Z</time>
      </trkpt>
      <trkpt lat="40.7720870" lon="-4.0539070">
        <ele>1617.6</ele>
        <time>2019-04-28T08:32:33Z</time>
      </trkpt>
      <trkpt lat="40.7721810" lon="-4.0539650">
        <ele>1616.8</ele>
        <time>2019-04-28T08:32:34Z</time>
      </trkpt>
      <trkpt lat="40.7722950" lon="-4.0539840">
        <ele>1616.2</ele>
        <time>2019-04-28T08:32:35Z</time>
      </trkpt>
      <trkpt lat="40.7723990" lon="-4.0540240">
        <ele>1615.4</ele>
        <time>2019-04-28T08:32:36Z</time>
      </trkpt>
      <trkpt lat="40.7724990" lon="-4.0540750">
        <ele>1615.0</ele>
        <time>2019-04-28T08:32:37Z</time>
      </trkpt>
      <trkpt lat="40.7725870" lon="-4.0541200">
        <ele>1614.4</ele>
        <time>2019-04-28T08:32:38Z</time>
      </trkpt>
      <trkpt lat="40.7726600" lon="-4.0541750">
        <ele>1613.8</ele>
        <time>2019-04-28T08:32:39Z</time>
      </trkpt>
      <trkpt lat="40.7727260" lon="-4.0542310">
        <ele>1613.6</ele>
        <time>2019-04-28T08:32:40Z</time>
      </trkpt>
      <trkpt lat="40.7727870" lon="-4.0542950">
        <ele>1613.2</ele>
        <time>2019-04-28T08:32:41Z</time>
      </trkpt>
      <trkpt lat="40.7728400" lon="-4.0543730">
        <ele>1612.6</ele>
        <time>2019-04-28T08:32:42Z</time>
      </trkpt>
      <trkpt lat="40.7728790" lon="-4.0544670">
        <ele>1611.8</ele>
        <time>2019-04-28T08:32:43Z</time>
      </trkpt>
      <trkpt lat="40.7729060" lon="-4.0545750">
        <ele>1611.6</ele>
        <time>2019-04-28T08:32:44Z</time>
      </trkpt>
      <trkpt lat="40.7729280" lon="-4.0546820">
        <ele>1611.2</ele>
        <time>2019-04-28T08:32:45Z</time>
      </trkpt>
      <trkpt lat="40.7729410" lon="-4.0548070">
        <ele>1610.8</ele>
        <time>2019-04-28T08:32:46Z</time>
      </trkpt>
      <trkpt lat="40.7729530" lon="-4.0549200">
        <ele>1610.4</ele>
        <time>2019-04-28T08:32:47Z</time>
      </trkpt>
      <trkpt lat="40.7729670" lon="-4.0550350">
        <ele>1610.0</ele>
        <time>2019-04-28T08:32:48Z</time>
      </trkpt>
      <trkpt lat="40.7729940" lon="-4.0551380">
        <ele>1609.4</ele>
        <time>2019-04-28T08:32:49Z</time>
      </trkpt>
      <trkpt lat="40.7730280" lon="-4.0552520">
        <ele>1608.8</ele>
        <time>2019-04-28T08:32:50Z</time>
      </trkpt>
      <trkpt lat="40.7730810" lon="-4.0553400">
        <ele>1608.0</ele>
        <time>2019-04-28T08:32:51Z</time>
      </trkpt>
      <trkpt lat="40.7731380" lon="-4.0554390">
        <ele>1607.4</ele>
        <time>2019-04-28T08:32:52Z</time>
      </trkpt>
      <trkpt lat="40.7731890" lon="-4.0555420">
        <ele>1607.2</ele>
        <time>2019-04-28T08:32:53Z</time>
      </trkpt>
      <trkpt lat="40.7732530" lon="-4.0556380">
        <ele>1606.8</ele>
        <time>2019-04-28T08:32:54Z</time>
      </trkpt>
      <trkpt lat="40.7733120" lon="-4.0557240">
        <ele>1606.4</ele>
        <time>2019-04-28T08:32:55Z</time>
      </trkpt>
      <trkpt lat="40.7733670" lon="-4.0557880">
        <ele>1605.8</ele>
        <time>2019-04-28T08:32:56Z</time>
      </trkpt>
      <trkpt lat="40.7734170" lon="-4.0558750">
        <ele>1605.2</ele>
        <time>2019-04-28T08:32:57Z</time>
      </trkpt>
      <trkpt lat="40.7734390" lon="-4.0559570">
        <ele>1604.6</ele>
        <time>2019-04-28T08:32:58Z</time>
      </trkpt>
      <trkpt lat="40.7734780" lon="-4.0560820">
        <ele>1603.8</ele>
        <time>2019-04-28T08:32:59Z</time>
      </trkpt>
      <trkpt lat="40.7735200" lon="-4.0561920">
        <ele>1603.0</ele>
        <time>2019-04-28T08:33:00Z</time>
      </trkpt>
      <trkpt lat="40.7735560" lon="-4.0563120">
        <ele>1602.6</ele>
        <time>2019-04-28T08:33:01Z</time>
      </trkpt>
      <trkpt lat="40.7735760" lon="-4.0564350">
        <ele>1601.8</ele>
        <time>2019-04-28T08:33:02Z</time>
      </trkpt>
      <trkpt lat="40.7735900" lon="-4.0565720">
        <ele>1601.6</ele>
        <time>2019-04-28T08:33:03Z</time>
      </trkpt>
      <trkpt lat="40.7736030" lon="-4.0567120">
        <ele>1601.2</ele>
        <time>2019-04-28T08:33:04Z</time>
      </trkpt>
      <trkpt lat="40.7736230" lon="-4.0568430">
        <ele>1600.2</ele>
        <time>2019-04-28T08:33:05Z</time>
      </trkpt>
      <trkpt lat="40.7736490" lon="-4.0569810">
        <ele>1600.0</ele>
        <time>2019-04-28T08:33:06Z</time>
      </trkpt>
      <trkpt lat="40.7736730" lon="-4.0571350">
        <ele>1599.8</ele>
        <time>2019-04-28T08:33:07Z</time>
      </trkpt>
      <trkpt lat="40.7736960" lon="-4.0573090">
        <ele>1599.2</ele>
        <time>2019-04-28T08:33:08Z</time>
      </trkpt>
      <trkpt lat="40.7737360" lon="-4.0574500">
        <ele>1599.0</ele>
        <time>2019-04-28T08:33:09Z</time>
      </trkpt>
      <trkpt lat="40.7737880" lon="-4.0575720">
        <ele>1598.4</ele>
        <time>2019-04-28T08:33:10Z</time>
      </trkpt>
      <trkpt lat="40.7738480" lon="-4.0576870">
        <ele>1598.0</ele>
        <time>2019-04-28T08:33:11Z</time>
      </trkpt>
      <trkpt lat="40.7739150" lon="-4.0577840">
        <ele>1597.4</ele>
        <time>2019-04-28T08:33:12Z</time>
      </trkpt>
      <trkpt lat="40.7739990" lon="-4.0578510">
        <ele>1597.2</ele>
        <time>2019-04-28T08:33:13Z</time>
      </trkpt>
      <trkpt lat="40.7740860" lon="-4.0578820">
        <ele>1596.6</ele>
        <time>2019-04-28T08:33:14Z</time>
      </trkpt>
      <trkpt lat="40.7741840" lon="-4.0579240">
        <ele>1596.4</ele>
        <time>2019-04-28T08:33:15Z</time>
      </trkpt>
      <trkpt lat="40.7742880" lon="-4.0579570">
        <ele>1596.2</ele>
        <time>2019-04-28T08:33:16Z</time>
      </trkpt>
      <trkpt lat="40.7743900" lon="-4.0579990">
        <ele>1595.2</ele>
        <time>2019-04-28T08:33:17Z</time>
      </trkpt>
      <trkpt lat="40.7745040" lon="-4.0580120">
        <ele>1594.6</ele>
        <time>2019-04-28T08:33:18Z</time>
      </trkpt>
      <trkpt lat="40.7745990" lon="-4.0580430">
        <ele>1594.0</ele>
        <time>2019-04-28T08:33:19Z</time>
      </trkpt>
      <trkpt lat="40.7746980" lon="-4.0580620">
        <ele>1593.4</ele>
        <time>2019-04-28T08:33:20Z</time>
      </trkpt>
      <trkpt lat="40.7747930" lon="-4.0580810">
        <ele>1593.2</ele>
        <time>2019-04-28T08:33:21Z</time>
      </trkpt>
      <trkpt lat="40.7748800" lon="-4.0580820">
        <ele>1593.0</ele>
        <time>2019-04-28T08:33:22Z</time>
      </trkpt>
      <trkpt lat="40.7749630" lon="-4.0580650">
        <ele>1592.6</ele>
        <time>2019-04-28T08:33:23Z</time>
      </trkpt>
      <trkpt lat="40.7750460" lon="-4.0580590">
        <ele>1592.0</ele>
        <time>2019-04-28T08:33:24Z</time>
      </trkpt>
      <trkpt lat="40.7751250" lon="-4.0580670">
        <ele>1591.6</ele>
        <time>2019-04-28T08:33:25Z</time>
      </trkpt>
      <trkpt lat="40.7752310" lon="-4.0580520">
        <ele>1591.2</ele>
        <time>2019-04-28T08:33:26Z</time>
      </trkpt>
      <trkpt lat="40.7753430" lon="-4.0580360">
        <ele>1590.8</ele>
        <time>2019-04-28T08:33:27Z</time>
      </trkpt>
      <trkpt lat="40.7754420" lon="-4.0580370">
        <ele>1590.6</ele>
        <time>2019-04-28T08:33:28Z</time>
      </trkpt>
      <trkpt lat="40.7755400" lon="-4.0580440">
        <ele>1590.4</ele>
        <time>2019-04-28T08:33:29Z</time>
      </trkpt>
      <trkpt lat="40.7756400" lon="-4.0580330">
        <ele>1590.0</ele>
        <time>2019-04-28T08:33:30Z</time>
      </trkpt>
      <trkpt lat="40.7757420" lon="-4.0580190">
        <ele>1589.4</ele>
        <time>2019-04-28T08:33:31Z</time>
      </trkpt>
      <trkpt lat="40.7758520" lon="-4.0580020">
        <ele>1588.4</ele>
        <time>2019-04-28T08:33:32Z</time>
      </trkpt>
      <trkpt lat="40.7759540" lon="-4.0579950">
        <ele>1587.8</ele>
        <time>2019-04-28T08:33:33Z</time>
      </trkpt>
      <trkpt lat="40.7760480" lon="-4.0579990">
        <ele>1587.2</ele>
        <time>2019-04-28T08:33:34Z</time>
      </trkpt>
      <trkpt lat="40.7761320" lon="-4.0580260">
        <ele>1586.6</ele>
        <time>2019-04-28T08:33:35Z</time>
      </trkpt>
      <trkpt lat="40.7761960" lon="-4.0580750">
        <ele>1586.0</ele>
        <time>2019-04-28T08:33:36Z</time>
      </trkpt>
      <trkpt lat="40.7762570" lon="-4.0581210">
        <ele>1585.4</ele>
        <time>2019-04-28T08:33:37Z</time>
      </trkpt>
      <trkpt lat="40.7763110" lon="-4.0581700">
        <ele>1584.8</ele>
        <time>2019-04-28T08:33:38Z</time>
      </trkpt>
      <trkpt lat="40.7763530" lon="-4.0582270">
        <ele>1584.6</ele>
        <time>2019-04-28T08:33:39Z</time>
      </trkpt>
      <trkpt lat="40.7763910" lon="-4.0582900">
        <ele>1584.0</ele>
        <time>2019-04-28T08:33:40Z</time>
      </trkpt>
      <trkpt lat="40.7764200" lon="-4.0583510">
        <ele>1583.8</ele>
        <time>2019-04-28T08:33:41Z</time>
      </trkpt>
      <trkpt lat="40.7764270" lon="-4.0584370">
        <ele>1583.2</ele>
        <time>2019-04-28T08:33:42Z</time>
      </trkpt>
      <trkpt lat="40.7764220" lon="-4.0585060">
        <ele>1582.8</ele>
        <time>2019-04-28T08:33:43Z</time>
      </trkpt>
      <trkpt lat="40.7764300" lon="-4.0585910">
        <ele>1582.2</ele>
        <time>2019-04-28T08:33:44Z</time>
      </trkpt>
      <trkpt lat="40.7764440" lon="-4.0586700">
        <ele>1581.8</ele>
        <time>2019-04-28T08:33:45Z</time>
      </trkpt>
      <trkpt lat="40.7764540" lon="-4.0588030">
        <ele>1581.2</ele>
        <time>2019-04-28T08:33:46Z</time>
      </trkpt>
      <trkpt lat="40.7764790" lon="-4.0589180">
        <ele>1580.8</ele>
        <time>2019-04-28T08:33:47Z</time>
      </trkpt>
      <trkpt lat="40.7765140" lon="-4.0590480">
        <ele>1580.2</ele>
        <time>2019-04-28T08:33:48Z</time>
      </trkpt>
      <trkpt lat="40.7765610" lon="-4.0591740">
        <ele>1578.8</ele>
        <time>2019-04-28T08:33:49Z</time>
      </trkpt>
      <trkpt lat="40.7766220" lon="-4.0592900">
        <ele>1577.4</ele>
        <time>2019-04-28T08:33:50Z</time>
      </trkpt>
      <trkpt lat="40.7766810" lon="-4.0593960">
        <ele>1576.0</ele>
        <time>2019-04-28T08:33:51Z</time>
      </trkpt>
      <trkpt lat="40.7767430" lon="-4.0594960">
        <ele>1575.0</ele>
        <time>2019-04-28T08:33:52Z</time>
      </trkpt>
      <trkpt lat="40.7768080" lon="-4.0595880">
        <ele>1574.2</ele>
        <time>2019-04-28T08:33:53Z</time>
      </trkpt>
      <trkpt lat="40.7768870" lon="-4.0596600">
        <ele>1573.4</ele>
        <time>2019-04-28T08:33:54Z</time>
      </trkpt>
      <trkpt lat="40.7769750" lon="-4.0597180">
        <ele>1573.0</ele>
        <time>2019-04-28T08:33:55Z</time>
      </trkpt>
      <trkpt lat="40.7770620" lon="-4.0597850">
        <ele>1572.4</ele>
        <time>2019-04-28T08:33:56Z</time>
      </trkpt>
      <trkpt lat="40.7771550" lon="-4.0598520">
        <ele>1571.8</ele>
        <time>2019-04-28T08:33:57Z</time>
      </trkpt>
      <trkpt lat="40.7772470" lon="-4.0599280">
        <ele>1571.2</ele>
        <time>2019-04-28T08:33:58Z</time>
      </trkpt>
      <trkpt lat="40.7773320" lon="-4.0600120">
        <ele>1570.6</ele>
        <time>2019-04-28T08:33:59Z</time>
      </trkpt>
      <trkpt lat="40.7774200" lon="-4.0600870">
        <ele>1570.6</ele>
        <time>2019-04-28T08:34:00Z</time>
      </trkpt>
      <trkpt lat="40.7775170" lon="-4.0601460">
        <ele>1570.0</ele>
        <time>2019-04-28T08:34:01Z</time>
      </trkpt>
      <trkpt lat="40.7776130" lon="-4.0602080">
        <ele>1569.6</ele>
        <time>2019-04-28T08:34:02Z</time>
      </trkpt>
      <trkpt lat="40.7777100" lon="-4.0602730">
        <ele>1569.2</ele>
        <time>2019-04-28T08:34:03Z</time>
      </trkpt>
      <trkpt lat="40.7778090" lon="-4.0603340">
        <ele>1568.8</ele>
        <time>2019-04-28T08:34:04Z</time>
      </trkpt>
      <trkpt lat="40.7779050" lon="-4.0604010">
        <ele>1568.2</ele>
        <time>2019-04-28T08:34:05Z</time>
      </trkpt>
      <trkpt lat="40.7779980" lon="-4.0604750">
        <ele>1567.8</ele>
        <time>2019-04-28T08:34:06Z</time>
      </trkpt>
      <trkpt lat="40.7780870" lon="-4.0605550">
        <ele>1567.2</ele>
        <time>2019-04-28T08:34:07Z</time>
      </trkpt>
      <trkpt lat="40.7781730" lon="-4.0606370">
        <ele>1566.8</ele>
        <time>2019-04-28T08:34:08Z</time>
      </trkpt>
      <trkpt lat="40.7782620" lon="-4.0607100">
        <ele>1566.0</ele>
        <time>2019-04-28T08:34:09Z</time>
      </trkpt>
      <trkpt lat="40.7783470" lon="-4.0607810">
        <ele>1565.4</ele>
        <time>2019-04-28T08:34:10Z</time>
      </trkpt>
      <trkpt lat="40.7784320" lon="-4.0608450">
        <ele>1564.6</ele>
        <time>2019-04-28T08:34:11Z</time>
      </trkpt>
      <trkpt lat="40.7785200" lon="-4.0608950">
        <ele>1564.0</ele>
        <time>2019-04-28T08:34:12Z</time>
      </trkpt>
      <trkpt lat="40.7786160" lon="-4.0609050">
        <ele>1563.4</ele>
        <time>2019-04-28T08:34:13Z</time>
      </trkpt>
      <trkpt lat="40.7787030" lon="-4.0609250">
        <ele>1562.8</ele>
        <time>2019-04-28T08:34:14Z</time>
      </trkpt>
      <trkpt lat="40.7788030" lon="-4.0609040">
        <ele>1562.4</ele>
        <time>2019-04-28T08:34:15Z</time>
      </trkpt>
      <trkpt lat="40.7788940" lon="-4.0608740">
        <ele>1562.2</ele>
        <time>2019-04-28T08:34:16Z</time>
      </trkpt>
      <trkpt lat="40.7789860" lon="-4.0608440">
        <ele>1562.0</ele>
        <time>2019-04-28T08:34:17Z</time>
      </trkpt>
      <trkpt lat="40.7790860" lon="-4.0607930">
        <ele>1561.6</ele>
        <time>2019-04-28T08:34:18Z</time>
      </trkpt>
      <trkpt lat="40.7791870" lon="-4.0607720">
        <ele>1561.2</ele>
        <time>2019-04-28T08:34:19Z</time>
      </trkpt>
      <trkpt lat="40.7792950" lon="-4.0607380">
        <ele>1561.0</ele>
        <time>2019-04-28T08:34:20Z</time>
      </trkpt>
      <trkpt lat="40.7793910" lon="-4.0607300">
        <ele>1560.6</ele>
        <time>2019-04-28T08:34:21Z</time>
      </trkpt>
      <trkpt lat="40.7794900" lon="-4.0607440">
        <ele>1560.2</ele>
        <time>2019-04-28T08:34:22Z</time>
      </trkpt>
      <trkpt lat="40.7795860" lon="-4.0607630">
        <ele>1559.6</ele>
        <time>2019-04-28T08:34:23Z</time>
      </trkpt>
      <trkpt lat="40.7796880" lon="-4.0607750">
        <ele>1558.8</ele>
        <time>2019-04-28T08:34:24Z</time>
      </trkpt>
      <trkpt lat="40.7797990" lon="-4.0607650">
        <ele>1558.0</ele>
        <time>2019-04-28T08:34:25Z</time>
      </trkpt>
      <trkpt lat="40.7799050" lon="-4.0607340">
        <ele>1557.6</ele>
        <time>2019-04-28T08:34:26Z</time>
      </trkpt>
      <trkpt lat="40.7799980" lon="-4.0607170">
        <ele>1557.0</ele>
        <time>2019-04-28T08:34:27Z</time>
      </trkpt>
      <trkpt lat="40.7800800" lon="-4.0606930">
        <ele>1556.4</ele>
        <time>2019-04-28T08:34:28Z</time>
      </trkpt>
      <trkpt lat="40.7801330" lon="-4.0607080">
        <ele>1555.8</ele>
        <time>2019-04-28T08:34:29Z</time>
      </trkpt>
      <trkpt lat="40.7802060" lon="-4.0606730">
        <ele>1555.4</ele>
        <time>2019-04-28T08:34:30Z</time>
      </trkpt>
      <trkpt lat="40.7803410" lon="-4.0605730">
        <ele>1554.8</ele>
        <time>2019-04-28T08:34:31Z</time>
      </trkpt>
      <trkpt lat="40.7804440" lon="-4.0605280">
        <ele>1554.2</ele>
        <time>2019-04-28T08:34:32Z</time>
      </trkpt>
      <trkpt lat="40.7805350" lon="-4.0604660">
        <ele>1553.6</ele>
        <time>2019-04-28T08:34:33Z</time>
      </trkpt>
      <trkpt lat="40.7806260" lon="-4.0604060">
        <ele>1553.0</ele>
        <time>2019-04-28T08:34:34Z</time>
      </trkpt>
      <trkpt lat="40.7807150" lon="-4.0603370">
        <ele>1552.4</ele>
        <time>2019-04-28T08:34:35Z</time>
      </trkpt>
      <trkpt lat="40.7807830" lon="-4.0602850">
        <ele>1552.0</ele>
        <time>2019-04-28T08:34:36Z</time>
      </trkpt>
      <trkpt lat="40.7808700" lon="-4.0602400">
        <ele>1551.4</ele>
        <time>2019-04-28T08:34:37Z</time>
      </trkpt>
      <trkpt lat="40.7809550" lon="-4.0601860">
        <ele>1550.8</ele>
        <time>2019-04-28T08:34:38Z</time>
      </trkpt>
      <trkpt lat="40.7810470" lon="-4.0601230">
        <ele>1550.6</ele>
        <time>2019-04-28T08:34:39Z</time>
      </trkpt>
      <trkpt lat="40.7811570" lon="-4.0600630">
        <ele>1550.4</ele>
        <time>2019-04-28T08:34:40Z</time>
      </trkpt>
      <trkpt lat="40.7812600" lon="-4.0599760">
        <ele>1549.8</ele>
        <time>2019-04-28T08:34:41Z</time>
      </trkpt>
      <trkpt lat="40.7813560" lon="-4.0599030">
        <ele>1549.2</ele>
        <time>2019-04-28T08:34:42Z</time>
      </trkpt>
      <trkpt lat="40.7814490" lon="-4.0598080">
        <ele>1548.6</ele>
        <time>2019-04-28T08:34:43Z</time>
      </trkpt>
      <trkpt lat="40.7815420" lon="-4.0597110">
        <ele>1548.2</ele>
        <time>2019-04-28T08:34:44Z</time>
      </trkpt>
      <trkpt lat="40.7816220" lon="-4.0596040">
        <ele>1547.4</ele>
        <time>2019-04-28T08:34:45Z</time>
      </trkpt>
      <trkpt lat="40.7816940" lon="-4.0595000">
        <ele>1547.0</ele>
        <time>2019-04-28T08:34:46Z</time>
      </trkpt>
      <trkpt lat="40.7817630" lon="-4.0593940">
        <ele>1546.4</ele>
        <time>2019-04-28T08:34:47Z</time>
      </trkpt>
      <trkpt lat="40.7818140" lon="-4.0592860">
        <ele>1546.0</ele>
        <time>2019-04-28T08:34:48Z</time>
      </trkpt>
      <trkpt lat="40.7818550" lon="-4.0591810">
        <ele>1545.6</ele>
        <time>2019-04-28T08:34:49Z</time>
      </trkpt>
      <trkpt lat="40.7818960" lon="-4.0590920">
        <ele>1545.2</ele>
        <time>2019-04-28T08:34:50Z</time>
      </trkpt>
      <trkpt lat="40.7819380" lon="-4.0590140">
        <ele>1544.8</ele>
        <time>2019-04-28T08:34:51Z</time>
      </trkpt>
      <trkpt lat="40.7819700" lon="-4.0589460">
        <ele>1544.6</ele>
        <time>2019-04-28T08:34:52Z</time>
      </trkpt>
      <trkpt lat="40.7820050" lon="-4.0589060">
        <ele>1544.4</ele>
        <time>2019-04-28T08:34:53Z</time>
      </trkpt>
      <trkpt lat="40.7820410" lon="-4.0588640">
        <ele>1544.2</ele>
        <time>2019-04-28T08:34:54Z</time>
      </trkpt>
      <trkpt lat="40.7820800" lon="-4.0588350">
        <ele>1544.0</ele>
        <time>2019-04-28T08:34:55Z</time>
      </trkpt>
      <trkpt lat="40.7821400" lon="-4.0588310">
        <ele>1543.8</ele>
        <time>2019-04-28T08:34:56Z</time>
      </trkpt>
      <trkpt lat="40.7821770" lon="-4.0588670">
        <ele>1543.8</ele>
        <time>2019-04-28T08:34:57Z</time>
      </trkpt>
      <trkpt lat="40.7822170" lon="-4.0588980">
        <ele>1543.8</ele>
        <time>2019-04-28T08:34:58Z</time>
      </trkpt>
      <trkpt lat="40.7822610" lon="-4.0589160">
        <ele>1543.8</ele>
        <time>2019-04-28T08:34:59Z</time>
      </trkpt>
      <trkpt lat="40.7823050" lon="-4.0589540">
        <ele>1543.8</ele>
        <time>2019-04-28T08:35:00Z</time>
      </trkpt>
      <trkpt lat="40.7823240" lon="-4.0590180">
        <ele>1543.8</ele>
        <time>2019-04-28T08:35:01Z</time>
      </trkpt>
      <trkpt lat="40.7823510" lon="-4.0590740">
        <ele>1543.6</ele>
        <time>2019-04-28T08:35:02Z</time>
      </trkpt>
      <trkpt lat="40.7823750" lon="-4.0591330">
        <ele>1543.6</ele>
        <time>2019-04-28T08:35:03Z</time>
      </trkpt>
      <trkpt lat="40.7824020" lon="-4.0592070">
        <ele>1543.8</ele>
        <time>2019-04-28T08:35:04Z</time>
      </trkpt>
      <trkpt lat="40.7824180" lon="-4.0592870">
        <ele>1543.8</ele>
        <time>2019-04-28T08:35:05Z</time>
      </trkpt>
      <trkpt lat="40.7824170" lon="-4.0593710">
        <ele>1543.6</ele>
        <time>2019-04-28T08:35:06Z</time>
      </trkpt>
      <trkpt lat="40.7824130" lon="-4.0594530">
        <ele>1543.6</ele>
        <time>2019-04-28T08:35:07Z</time>
      </trkpt>
      <trkpt lat="40.7824210" lon="-4.0595370">
        <ele>1543.2</ele>
        <time>2019-04-28T08:35:08Z</time>
      </trkpt>
      <trkpt lat="40.7824110" lon="-4.0596210">
        <ele>1543.0</ele>
        <time>2019-04-28T08:35:09Z</time>
      </trkpt>
      <trkpt lat="40.7823960" lon="-4.0597260">
        <ele>1543.0</ele>
        <time>2019-04-28T08:35:10Z</time>
      </trkpt>
      <trkpt lat="40.7823830" lon="-4.0598400">
        <ele>1542.8</ele>
        <time>2019-04-28T08:35:11Z</time>
      </trkpt>
      <trkpt lat="40.7823670" lon="-4.0599650">
        <ele>1542.8</ele>
        <time>2019-04-28T08:35:12Z</time>
      </trkpt>
      <trkpt lat="40.7823530" lon="-4.0600750">
        <ele>1542.6</ele>
        <time>2019-04-28T08:35:13Z</time>
      </trkpt>
      <trkpt lat="40.7823350" lon="-4.0601890">
        <ele>1542.4</ele>
        <time>2019-04-28T08:35:14Z</time>
      </trkpt>
      <trkpt lat="40.7823170" lon="-4.0603090">
        <ele>1542.0</ele>
        <time>2019-04-28T08:35:15Z</time>
      </trkpt>
      <trkpt lat="40.7823040" lon="-4.0604290">
        <ele>1541.2</ele>
        <time>2019-04-28T08:35:16Z</time>
      </trkpt>
      <trkpt lat="40.7822990" lon="-4.0605550">
        <ele>1540.8</ele>
        <time>2019-04-28T08:35:17Z</time>
      </trkpt>
      <trkpt lat="40.7822910" lon="-4.0606730">
        <ele>1539.8</ele>
        <time>2019-04-28T08:35:18Z</time>
      </trkpt>
      <trkpt lat="40.7822890" lon="-4.0607990">
        <ele>1539.2</ele>
        <time>2019-04-28T08:35:19Z</time>
      </trkpt>
      <trkpt lat="40.7822910" lon="-4.0609340">
        <ele>1538.4</ele>
        <time>2019-04-28T08:35:20Z</time>
      </trkpt>
      <trkpt lat="40.7822880" lon="-4.0610610">
        <ele>1537.8</ele>
        <time>2019-04-28T08:35:21Z</time>
      </trkpt>
      <trkpt lat="40.7822870" lon="-4.0612090">
        <ele>1537.2</ele>
        <time>2019-04-28T08:35:22Z</time>
      </trkpt>
      <trkpt lat="40.7822720" lon="-4.0613500">
        <ele>1536.6</ele>
        <time>2019-04-28T08:35:23Z</time>
      </trkpt>
      <trkpt lat="40.7822430" lon="-4.0614780">
        <ele>1536.2</ele>
        <time>2019-04-28T08:35:24Z</time>
      </trkpt>
      <trkpt lat="40.7822140" lon="-4.0615840">
        <ele>1535.4</ele>
        <time>2019-04-28T08:35:25Z</time>
      </trkpt>
      <trkpt lat="40.7821720" lon="-4.0616760">
        <ele>1535.0</ele>
        <time>2019-04-28T08:35:26Z</time>
      </trkpt>
      <trkpt lat="40.7821340" lon="-4.0617560">
        <ele>1534.4</ele>
        <time>2019-04-28T08:35:27Z</time>
      </trkpt>
      <trkpt lat="40.7820960" lon="-4.0618140">
        <ele>1533.8</ele>
        <time>2019-04-28T08:35:28Z</time>
      </trkpt>
      <trkpt lat="40.7820780" lon="-4.0618500">
        <ele>1533.6</ele>
        <time>2019-04-28T08:35:29Z</time>
      </trkpt>
      <trkpt lat="40.7820680" lon="-4.0618980">
        <ele>1533.4</ele>
        <time>2019-04-28T08:35:30Z</time>
      </trkpt>
      <trkpt lat="40.7820610" lon="-4.0619470">
        <ele>1533.0</ele>
        <time>2019-04-28T08:35:31Z</time>
      </trkpt>
      <trkpt lat="40.7820560" lon="-4.0620060">
        <ele>1532.6</ele>
        <time>2019-04-28T08:35:32Z</time>
      </trkpt>
      <trkpt lat="40.7820550" lon="-4.0620510">
        <ele>1532.2</ele>
        <time>2019-04-28T08:35:33Z</time>
      </trkpt>
      <trkpt lat="40.7820480" lon="-4.0621020">
        <ele>1532.0</ele>
        <time>2019-04-28T08:35:34Z</time>
      </trkpt>
      <trkpt lat="40.7820490" lon="-4.0621490">
        <ele>1531.8</ele>
        <time>2019-04-28T08:35:35Z</time>
      </trkpt>
      <trkpt lat="40.7820570" lon="-4.0621930">
        <ele>1531.4</ele>
        <time>2019-04-28T08:35:36Z</time>
      </trkpt>
      <trkpt lat="40.7820670" lon="-4.0622330">
        <ele>1531.0</ele>
        <time>2019-04-28T08:35:37Z</time>
      </trkpt>
      <trkpt lat="40.7820740" lon="-4.0622840">
        <ele>1530.6</ele>
        <time>2019-04-28T08:35:38Z</time>
      </trkpt>
      <trkpt lat="40.7820800" lon="-4.0623310">
        <ele>1530.4</ele>
        <time>2019-04-28T08:35:39Z</time>
      </trkpt>
      <trkpt lat="40.7820880" lon="-4.0623810">
        <ele>1530.2</ele>
        <time>2019-04-28T08:35:40Z</time>
      </trkpt>
      <trkpt lat="40.7821010" lon="-4.0624250">
        <ele>1529.8</ele>
        <time>2019-04-28T08:35:41Z</time>
      </trkpt>
      <trkpt lat="40.7821140" lon="-4.0624840">
        <ele>1529.6</ele>
        <time>2019-04-28T08:35:42Z</time>
      </trkpt>
      <trkpt lat="40.7821310" lon="-4.0625390">
        <ele>1529.2</ele>
        <time>2019-04-28T08:35:43Z</time>
      </trkpt>
      <trkpt lat="40.7821460" lon="-4.0625880">
        <ele>1528.8</ele>
        <time>2019-04-28T08:35:44Z</time>
      </trkpt>
      <trkpt lat="40.7821590" lon="-4.0626280">
        <ele>1528.4</ele>
        <time>2019-04-28T08:35:45Z</time>
      </trkpt>
      <trkpt lat="40.7821730" lon="-4.0626630">
        <ele>1528.2</ele>
        <time>2019-04-28T08:35:46Z</time>
      </trkpt>
      <trkpt lat="40.7821900" lon="-4.0626880">
        <ele>1528.0</ele>
        <time>2019-04-28T08:35:47Z</time>
      </trkpt>
      <trkpt lat="40.7822100" lon="-4.0627150">
        <ele>1527.6</ele>
        <time>2019-04-28T08:35:48Z</time>
      </trkpt>
      <trkpt lat="40.7822270" lon="-4.0627530">
        <ele>1527.4</ele>
        <time>2019-04-28T08:35:49Z</time>
      </trkpt>
      <trkpt lat="40.7822440" lon="-4.0627890">
        <ele>1527.0</ele>
        <time>2019-04-28T08:35:50Z</time>
      </trkpt>
      <trkpt lat="40.7822620" lon="-4.0628250">
        <ele>1527.0</ele>
        <time>2019-04-28T08:35:51Z</time>
      </trkpt>
      <trkpt lat="40.7822830" lon="-4.0628610">
        <ele>1526.6</ele>
        <time>2019-04-28T08:35:52Z</time>
      </trkpt>
      <trkpt lat="40.7823070" lon="-4.0628950">
        <ele>1526.6</ele>
        <time>2019-04-28T08:35:53Z</time>
      </trkpt>
      <trkpt lat="40.7823340" lon="-4.0629270">
        <ele>1526.2</ele>
        <time>2019-04-28T08:35:54Z</time>
      </trkpt>
      <trkpt lat="40.7823640" lon="-4.0629720">
        <ele>1526.0</ele>
        <time>2019-04-28T08:35:55Z</time>
      </trkpt>
      <trkpt lat="40.7823940" lon="-4.0630190">
        <ele>1525.6</ele>
        <time>2019-04-28T08:35:56Z</time>
      </trkpt>
      <trkpt lat="40.7824240" lon="-4.0630390">
        <ele>1525.2</ele>
        <time>2019-04-28T08:35:57Z</time>
      </trkpt>
      <trkpt lat="40.7824500" lon="-4.0630470">
        <ele>1524.6</ele>
        <time>2019-04-28T08:35:58Z</time>
      </trkpt>
      <trkpt lat="40.7824750" lon="-4.0630770">
        <ele>1524.4</ele>
        <time>2019-04-28T08:35:59Z</time>
      </trkpt>
      <trkpt lat="40.7825020" lon="-4.0631180">
        <ele>1524.0</ele>
        <time>2019-04-28T08:36:00Z</time>
      </trkpt>
      <trkpt lat="40.7825230" lon="-4.0631640">
        <ele>1523.8</ele>
        <time>2019-04-28T08:36:01Z</time>
      </trkpt>
      <trkpt lat="40.7825340" lon="-4.0632210">
        <ele>1523.6</ele>
        <time>2019-04-28T08:36:02Z</time>
      </trkpt>
      <trkpt lat="40.7825520" lon="-4.0632720">
        <ele>1523.4</ele>
        <time>2019-04-28T08:36:03Z</time>
      </trkpt>
      <trkpt lat="40.7825700" lon="-4.0633220">
        <ele>1523.2</ele>
        <time>2019-04-28T08:36:04Z</time>
      </trkpt>
      <trkpt lat="40.7825860" lon="-4.0633710">
        <ele>1523.0</ele>
        <time>2019-04-28T08:36:05Z</time>
      </trkpt>
      <trkpt lat="40.7825970" lon="-4.0634040">
        <ele>1522.6</ele>
        <time>2019-04-28T08:36:06Z</time>
      </trkpt>
      <trkpt lat="40.7825990" lon="-4.0634550">
        <ele>1522.4</ele>
        <time>2019-04-28T08:36:07Z</time>
      </trkpt>
      <trkpt lat="40.7825860" lon="-4.0635160">
        <ele>1522.0</ele>
        <time>2019-04-28T08:36:08Z</time>
      </trkpt>
      <trkpt lat="40.7825630" lon="-4.0635750">
        <ele>1521.8</ele>
        <time>2019-04-28T08:36:09Z</time>
      </trkpt>
      <trkpt lat="40.7825280" lon="-4.0636240">
        <ele>1521.2</ele>
        <time>2019-04-28T08:36:10Z</time>
      </trkpt>
      <trkpt lat="40.7824910" lon="-4.0636580">
        <ele>1521.0</ele>
        <time>2019-04-28T08:36:11Z</time>
      </trkpt>
      <trkpt lat="40.7824530" lon="-4.0636870">
        <ele>1520.6</ele>
        <time>2019-04-28T08:36:12Z</time>
      </trkpt>
      <trkpt lat="40.7824190" lon="-4.0636950">
        <ele>1520.4</ele>
        <time>2019-04-28T08:36:13Z</time>
      </trkpt>
      <trkpt lat="40.7823820" lon="-4.0637000">
        <ele>1520.0</ele>
        <time>2019-04-28T08:36:14Z</time>
      </trkpt>
      <trkpt lat="40.7823450" lon="-4.0637070">
        <ele>1519.8</ele>
        <time>2019-04-28T08:36:15Z</time>
      </trkpt>
      <trkpt lat="40.7823160" lon="-4.0637240">
        <ele>1519.4</ele>
        <time>2019-04-28T08:36:16Z</time>
      </trkpt>
      <trkpt lat="40.7823250" lon="-4.0637610">
        <ele>1518.8</ele>
        <time>2019-04-28T08:36:17Z</time>
      </trkpt>
      <trkpt lat="40.7822860" lon="-4.0637480">
        <ele>1518.2</ele>
        <time>2019-04-28T08:36:18Z</time>
      </trkpt>
      <trkpt lat="40.7822480" lon="-4.0637340">
        <ele>1518.0</ele>
        <time>2019-04-28T08:36:19Z</time>
      </trkpt>
      <trkpt lat="40.7821980" lon="-4.0637060">
        <ele>1517.8</ele>
        <time>2019-04-28T08:36:20Z</time>
      </trkpt>
      <trkpt lat="40.7821310" lon="-4.0636730">
        <ele>1517.4</ele>
        <time>2019-04-28T08:36:21Z</time>
      </trkpt>
      <trkpt lat="40.7820760" lon="-4.0636160">
        <ele>1516.8</ele>
        <time>2019-04-28T08:36:22Z</time>
      </trkpt>
      <trkpt lat="40.7820140" lon="-4.0635770">
        <ele>1516.8</ele>
        <time>2019-04-28T08:36:23Z</time>
      </trkpt>
      <trkpt lat="40.7819480" lon="-4.0635610">
        <ele>1516.0</ele>
        <time>2019-04-28T08:36:24Z</time>
      </trkpt>
      <trkpt lat="40.7818790" lon="-4.0635630">
        <ele>1515.6</ele>
        <time>2019-04-28T08:36:25Z</time>
      </trkpt>
      <trkpt lat="40.7818140" lon="-4.0635740">
        <ele>1515.0</ele>
        <time>2019-04-28T08:36:26Z</time>
      </trkpt>
      <trkpt lat="40.7817510" lon="-4.0635910">
        <ele>1514.4</ele>
        <time>2019-04-28T08:36:27Z</time>
      </trkpt>
      <trkpt lat="40.7816930" lon="-4.0636170">
        <ele>1514.0</ele>
        <time>2019-04-28T08:36:28Z</time>
      </trkpt>
      <trkpt lat="40.7816310" lon="-4.0636480">
        <ele>1513.2</ele>
        <time>2019-04-28T08:36:29Z</time>
      </trkpt>
      <trkpt lat="40.7815770" lon="-4.0636990">
        <ele>1512.6</ele>
        <time>2019-04-28T08:36:30Z</time>
      </trkpt>
      <trkpt lat="40.7815250" lon="-4.0637200">
        <ele>1512.0</ele>
        <time>2019-04-28T08:36:31Z</time>
      </trkpt>
      <trkpt lat="40.7814660" lon="-4.0637530">
        <ele>1511.6</ele>
        <time>2019-04-28T08:36:32Z</time>
      </trkpt>
      <trkpt lat="40.7814000" lon="-4.0637950">
        <ele>1510.8</ele>
        <time>2019-04-28T08:36:33Z</time>
      </trkpt>
      <trkpt lat="40.7813340" lon="-4.0638460">
        <ele>1510.2</ele>
        <time>2019-04-28T08:36:34Z</time>
      </trkpt>
      <trkpt lat="40.7812740" lon="-4.0638880">
        <ele>1509.4</ele>
        <time>2019-04-28T08:36:35Z</time>
      </trkpt>
      <trkpt lat="40.7812130" lon="-4.0639630">
        <ele>1508.6</ele>
        <time>2019-04-28T08:36:36Z</time>
      </trkpt>
      <trkpt lat="40.7811590" lon="-4.0640520">
        <ele>1507.8</ele>
        <time>2019-04-28T08:36:37Z</time>
      </trkpt>
      <trkpt lat="40.7811260" lon="-4.0641480">
        <ele>1507.2</ele>
        <time>2019-04-28T08:36:38Z</time>
      </trkpt>
      <trkpt lat="40.7810960" lon="-4.0642500">
        <ele>1506.4</ele>
        <time>2019-04-28T08:36:39Z</time>
      </trkpt>
      <trkpt lat="40.7810520" lon="-4.0643260">
        <ele>1505.6</ele>
        <time>2019-04-28T08:36:40Z</time>
      </trkpt>
      <trkpt lat="40.7810140" lon="-4.0643990">
        <ele>1504.8</ele>
        <time>2019-04-28T08:36:41Z</time>
      </trkpt>
      <trkpt lat="40.7809820" lon="-4.0644790">
        <ele>1504.0</ele>
        <time>2019-04-28T08:36:42Z</time>
      </trkpt>
      <trkpt lat="40.7809570" lon="-4.0645630">
        <ele>1503.6</ele>
        <time>2019-04-28T08:36:43Z</time>
      </trkpt>
      <trkpt lat="40.7809300" lon="-4.0646340">
        <ele>1502.8</ele>
        <time>2019-04-28T08:36:44Z</time>
      </trkpt>
      <trkpt lat="40.7809030" lon="-4.0647200">
        <ele>1502.2</ele>
        <time>2019-04-28T08:36:45Z</time>
      </trkpt>
      <trkpt lat="40.7808790" lon="-4.0648000">
        <ele>1501.8</ele>
        <time>2019-04-28T08:36:46Z</time>
      </trkpt>
      <trkpt lat="40.7808790" lon="-4.0648790">
        <ele>1501.4</ele>
        <time>2019-04-28T08:36:47Z</time>
      </trkpt>
      <trkpt lat="40.7808440" lon="-4.0649520">
        <ele>1501.0</ele>
        <time>2019-04-28T08:36:48Z</time>
      </trkpt>
      <trkpt lat="40.7807820" lon="-4.0650620">
        <ele>1500.6</ele>
        <time>2019-04-28T08:36:49Z</time>
      </trkpt>
      <trkpt lat="40.7807270" lon="-4.0651590">
        <ele>1500.0</ele>
        <time>2019-04-28T08:36:50Z</time>
      </trkpt>
      <trkpt lat="40.7806730" lon="-4.0652240">
        <ele>1499.2</ele>
        <time>2019-04-28T08:36:51Z</time>
      </trkpt>
      <trkpt lat="40.7806190" lon="-4.0652800">
        <ele>1498.6</ele>
        <time>2019-04-28T08:36:52Z</time>
      </trkpt>
      <trkpt lat="40.7805670" lon="-4.0653710">
        <ele>1498.0</ele>
        <time>2019-04-28T08:36:53Z</time>
      </trkpt>
      <trkpt lat="40.7805230" lon="-4.0654410">
        <ele>1497.4</ele>
        <time>2019-04-28T08:36:54Z</time>
      </trkpt>
      <trkpt lat="40.7804910" lon="-4.0655310">
        <ele>1496.6</ele>
        <time>2019-04-28T08:36:55Z</time>
      </trkpt>
      <trkpt lat="40.7804480" lon="-4.0656260">
        <ele>1496.0</ele>
        <time>2019-04-28T08:36:56Z</time>
      </trkpt>
      <trkpt lat="40.7804030" lon="-4.0656860">
        <ele>1495.0</ele>
        <time>2019-04-28T08:36:57Z</time>
      </trkpt>
      <trkpt lat="40.7803610" lon="-4.0657560">
        <ele>1494.6</ele>
        <time>2019-04-28T08:36:58Z</time>
      </trkpt>
      <trkpt lat="40.7803180" lon="-4.0658330">
        <ele>1494.0</ele>
        <time>2019-04-28T08:36:59Z</time>
      </trkpt>
      <trkpt lat="40.7802770" lon="-4.0659170">
        <ele>1493.4</ele>
        <time>2019-04-28T08:37:00Z</time>
      </trkpt>
      <trkpt lat="40.7802350" lon="-4.0660110">
        <ele>1492.8</ele>
        <time>2019-04-28T08:37:01Z</time>
      </trkpt>
      <trkpt lat="40.7802080" lon="-4.0661200">
        <ele>1492.0</ele>
        <time>2019-04-28T08:37:02Z</time>
      </trkpt>
      <trkpt lat="40.7801810" lon="-4.0662370">
        <ele>1491.0</ele>
        <time>2019-04-28T08:37:03Z</time>
      </trkpt>
      <trkpt lat="40.7801590" lon="-4.0663490">
        <ele>1490.0</ele>
        <time>2019-04-28T08:37:04Z</time>
      </trkpt>
      <trkpt lat="40.7801500" lon="-4.0664520">
        <ele>1489.2</ele>
        <time>2019-04-28T08:37:05Z</time>
      </trkpt>
      <trkpt lat="40.7801290" lon="-4.0665570">
        <ele>1487.8</ele>
        <time>2019-04-28T08:37:06Z</time>
      </trkpt>
      <trkpt lat="40.7801000" lon="-4.0666400">
        <ele>1487.0</ele>
        <time>2019-04-28T08:37:07Z</time>
      </trkpt>
      <trkpt lat="40.7800480" lon="-4.0667430">
        <ele>1486.2</ele>
        <time>2019-04-28T08:37:08Z</time>
      </trkpt>
      <trkpt lat="40.7799740" lon="-4.0668420">
        <ele>1485.4</ele>
        <time>2019-04-28T08:37:09Z</time>
      </trkpt>
      <trkpt lat="40.7799050" lon="-4.0669460">
        <ele>1484.4</ele>
        <time>2019-04-28T08:37:10Z</time>
      </trkpt>
      <trkpt lat="40.7798410" lon="-4.0670690">
        <ele>1483.2</ele>
        <time>2019-04-28T08:37:11Z</time>
      </trkpt>
      <trkpt lat="40.7797840" lon="-4.0671840">
        <ele>1482.2</ele>
        <time>2019-04-28T08:37:12Z</time>
      </trkpt>
      <trkpt lat="40.7797340" lon="-4.0673040">
        <ele>1481.2</ele>
        <time>2019-04-28T08:37:13Z</time>
      </trkpt>
      <trkpt lat="40.7796790" lon="-4.0674380">
        <ele>1479.8</ele>
        <time>2019-04-28T08:37:14Z</time>
      </trkpt>
      <trkpt lat="40.7796370" lon="-4.0675540">
        <ele>1479.0</ele>
        <time>2019-04-28T08:37:15Z</time>
      </trkpt>
      <trkpt lat="40.7795940" lon="-4.0676600">
        <ele>1477.6</ele>
        <time>2019-04-28T08:37:16Z</time>
      </trkpt>
      <trkpt lat="40.7795550" lon="-4.0677530">
        <ele>1476.4</ele>
        <time>2019-04-28T08:37:17Z</time>
      </trkpt>
      <trkpt lat="40.7795040" lon="-4.0678430">
        <ele>1475.0</ele>
        <time>2019-04-28T08:37:18Z</time>
      </trkpt>
      <trkpt lat="40.7794450" lon="-4.0679160">
        <ele>1474.4</ele>
        <time>2019-04-28T08:37:19Z</time>
      </trkpt>
      <trkpt lat="40.7793850" lon="-4.0679570">
        <ele>1473.6</ele>
        <time>2019-04-28T08:37:20Z</time>
      </trkpt>
      <trkpt lat="40.7793420" lon="-4.0679800">
        <ele>1472.8</ele>
        <time>2019-04-28T08:37:21Z</time>
      </trkpt>
      <trkpt lat="40.7793040" lon="-4.0679930">
        <ele>1472.2</ele>
        <time>2019-04-28T08:37:22Z</time>
      </trkpt>
      <trkpt lat="40.7792880" lon="-4.0679530">
        <ele>1472.0</ele>
        <time>2019-04-28T08:37:23Z</time>
      </trkpt>
      <trkpt lat="40.7793020" lon="-4.0679020">
        <ele>1471.0</ele>
        <time>2019-04-28T08:37:24Z</time>
      </trkpt>
      <trkpt lat="40.7792540" lon="-4.0678520">
        <ele>1470.2</ele>
        <time>2019-04-28T08:37:25Z</time>
      </trkpt>
      <trkpt lat="40.7791580" lon="-4.0678130">
        <ele>1469.6</ele>
        <time>2019-04-28T08:37:26Z</time>
      </trkpt>
      <trkpt lat="40.7790730" lon="-4.0677750">
        <ele>1468.4</ele>
        <time>2019-04-28T08:37:27Z</time>
      </trkpt>
      <trkpt lat="40.7789730" lon="-4.0677550">
        <ele>1467.6</ele>
        <time>2019-04-28T08:37:28Z</time>
      </trkpt>
      <trkpt lat="40.7788730" lon="-4.0677320">
        <ele>1466.6</ele>
        <time>2019-04-28T08:37:29Z</time>
      </trkpt>
      <trkpt lat="40.7787720" lon="-4.0677340">
        <ele>1465.4</ele>
        <time>2019-04-28T08:37:30Z</time>
      </trkpt>
      <trkpt lat="40.7786730" lon="-4.0677300">
        <ele>1464.4</ele>
        <time>2019-04-28T08:37:31Z</time>
      </trkpt>
      <trkpt lat="40.7785860" lon="-4.0677500">
        <ele>1463.0</ele>
        <time>2019-04-28T08:37:32Z</time>
      </trkpt>
      <trkpt lat="40.7784870" lon="-4.0677820">
        <ele>1462.2</ele>
        <time>2019-04-28T08:37:33Z</time>
      </trkpt>
      <trkpt lat="40.7784190" lon="-4.0678330">
        <ele>1460.8</ele>
        <time>2019-04-28T08:37:34Z</time>
      </trkpt>
      <trkpt lat="40.7783000" lon="-4.0678650">
        <ele>1460.0</ele>
        <time>2019-04-28T08:37:35Z</time>
      </trkpt>
      <trkpt lat="40.7781740" lon="-4.0679050">
        <ele>1458.8</ele>
        <time>2019-04-28T08:37:36Z</time>
      </trkpt>
      <trkpt lat="40.7780570" lon="-4.0679530">
        <ele>1457.6</ele>
        <time>2019-04-28T08:37:37Z</time>
      </trkpt>
      <trkpt lat="40.7779420" lon="-4.0679830">
        <ele>1456.0</ele>
        <time>2019-04-28T08:37:38Z</time>
      </trkpt>
      <trkpt lat="40.7778110" lon="-4.0679910">
        <ele>1455.0</ele>
        <time>2019-04-28T08:37:39Z</time>
      </trkpt>
      <trkpt lat="40.7776820" lon="-4.0680050">
        <ele>1453.4</ele>
        <time>2019-04-28T08:37:40Z</time>
      </trkpt>
      <trkpt lat="40.7775720" lon="-4.0680090">
        <ele>1452.2</ele>
        <time>2019-04-28T08:37:41Z</time>
      </trkpt>
      <trkpt lat="40.7774590" lon="-4.0680360">
        <ele>1452.2</ele>
        <time>2019-04-28T08:37:42Z</time>
      </trkpt>
      <trkpt lat="40.7773580" lon="-4.0680570">
        <ele>1452.2</ele>
        <time>2019-04-28T08:37:43Z</time>
      </trkpt>
      <trkpt lat="40.7772630" lon="-4.0680590">
        <ele>1452.2</ele>
        <time>2019-04-28T08:37:44Z</time>
      </trkpt>
      <trkpt lat="40.7771900" lon="-4.0680580">
        <ele>1452.2</ele>
        <time>2019-04-28T08:37:45Z</time>
      </trkpt>
      <trkpt lat="40.7771190" lon="-4.0680490">
        <ele>1452.2</ele>
        <time>2019-04-28T08:37:46Z</time>
      </trkpt>
      <trkpt lat="40.7770820" lon="-4.0680400">
        <ele>1444.6</ele>
        <time>2019-04-28T08:37:47Z</time>
      </trkpt>
      <trkpt lat="40.7770430" lon="-4.0680410">
        <ele>1443.8</ele>
        <time>2019-04-28T08:37:48Z</time>
      </trkpt>
      <trkpt lat="40.7769890" lon="-4.0680370">
        <ele>1443.0</ele>
        <time>2019-04-28T08:37:49Z</time>
      </trkpt>
      <trkpt lat="40.7769070" lon="-4.0680080">
        <ele>1442.0</ele>
        <time>2019-04-28T08:37:50Z</time>
      </trkpt>
      <trkpt lat="40.7768340" lon="-4.0679960">
        <ele>1441.2</ele>
        <time>2019-04-28T08:37:51Z</time>
      </trkpt>
      <trkpt lat="40.7767750" lon="-4.0679870">
        <ele>1440.4</ele>
        <time>2019-04-28T08:37:52Z</time>
      </trkpt>
      <trkpt lat="40.7767080" lon="-4.0679780">
        <ele>1440.0</ele>
        <time>2019-04-28T08:37:53Z</time>
      </trkpt>
      <trkpt lat="40.7766600" lon="-4.0679640">
        <ele>1439.6</ele>
        <time>2019-04-28T08:37:54Z</time>
      </trkpt>
      <trkpt lat="40.7766080" lon="-4.0679430">
        <ele>1439.2</ele>
        <time>2019-04-28T08:37:55Z</time>
      </trkpt>
      <trkpt lat="40.7765560" lon="-4.0679320">
        <ele>1438.6</ele>
        <time>2019-04-28T08:37:56Z</time>
      </trkpt>
      <trkpt lat="40.7764890" lon="-4.0679200">
        <ele>1438.2</ele>
        <time>2019-04-28T08:37:57Z</time>
      </trkpt>
      <trkpt lat="40.7764180" lon="-4.0679010">
        <ele>1437.8</ele>
        <time>2019-04-28T08:37:58Z</time>
      </trkpt>
      <trkpt lat="40.7763500" lon="-4.0678800">
        <ele>1437.2</ele>
        <time>2019-04-28T08:37:59Z</time>
      </trkpt>
      <trkpt lat="40.7762550" lon="-4.0678610">
        <ele>1436.6</ele>
        <time>2019-04-28T08:38:00Z</time>
      </trkpt>
      <trkpt lat="40.7761750" lon="-4.0678430">
        <ele>1436.2</ele>
        <time>2019-04-28T08:38:01Z</time>
      </trkpt>
      <trkpt lat="40.7760650" lon="-4.0678090">
        <ele>1435.4</ele>
        <time>2019-04-28T08:38:02Z</time>
      </trkpt>
      <trkpt lat="40.7759690" lon="-4.0677830">
        <ele>1434.8</ele>
        <time>2019-04-28T08:38:03Z</time>
      </trkpt>
      <trkpt lat="40.7758800" lon="-4.0677640">
        <ele>1434.2</ele>
        <time>2019-04-28T08:38:04Z</time>
      </trkpt>
      <trkpt lat="40.7757870" lon="-4.0677280">
        <ele>1433.6</ele>
        <time>2019-04-28T08:38:05Z</time>
      </trkpt>
      <trkpt lat="40.7757040" lon="-4.0677000">
        <ele>1432.8</ele>
        <time>2019-04-28T08:38:06Z</time>
      </trkpt>
      <trkpt lat="40.7756050" lon="-4.0676860">
        <ele>1432.2</ele>
        <time>2019-04-28T08:38:07Z</time>
      </trkpt>
      <trkpt lat="40.7755230" lon="-4.0676910">
        <ele>1431.4</ele>
        <time>2019-04-28T08:38:08Z</time>
      </trkpt>
      <trkpt lat="40.7754310" lon="-4.0677180">
        <ele>1431.0</ele>
        <time>2019-04-28T08:38:09Z</time>
      </trkpt>
      <trkpt lat="40.7753710" lon="-4.0677490">
        <ele>1430.2</ele>
        <time>2019-04-28T08:38:10Z</time>
      </trkpt>
      <trkpt lat="40.7752840" lon="-4.0677760">
        <ele>1429.4</ele>
        <time>2019-04-28T08:38:11Z</time>
      </trkpt>
      <trkpt lat="40.7752040" lon="-4.0678000">
        <ele>1428.8</ele>
        <time>2019-04-28T08:38:12Z</time>
      </trkpt>
      <trkpt lat="40.7751240" lon="-4.0678180">
        <ele>1428.2</ele>
        <time>2019-04-28T08:38:13Z</time>
      </trkpt>
      <trkpt lat="40.7750620" lon="-4.0678620">
        <ele>1427.6</ele>
        <time>2019-04-28T08:38:14Z</time>
      </trkpt>
      <trkpt lat="40.7749780" lon="-4.0679010">
        <ele>1427.0</ele>
        <time>2019-04-28T08:38:15Z</time>
      </trkpt>
      <trkpt lat="40.7749300" lon="-4.0679690">
        <ele>1426.4</ele>
        <time>2019-04-28T08:38:16Z</time>
      </trkpt>
      <trkpt lat="40.7748150" lon="-4.0680200">
        <ele>1425.8</ele>
        <time>2019-04-28T08:38:17Z</time>
      </trkpt>
      <trkpt lat="40.7747570" lon="-4.0681040">
        <ele>1425.2</ele>
        <time>2019-04-28T08:38:18Z</time>
      </trkpt>
      <trkpt lat="40.7747030" lon="-4.0681950">
        <ele>1424.4</ele>
        <time>2019-04-28T08:38:19Z</time>
      </trkpt>
      <trkpt lat="40.7745990" lon="-4.0682560">
        <ele>1424.0</ele>
        <time>2019-04-28T08:38:20Z</time>
      </trkpt>
      <trkpt lat="40.7745190" lon="-4.0683260">
        <ele>1423.2</ele>
        <time>2019-04-28T08:38:21Z</time>
      </trkpt>
      <trkpt lat="40.7744380" lon="-4.0683780">
        <ele>1422.6</ele>
        <time>2019-04-28T08:38:22Z</time>
      </trkpt>
      <trkpt lat="40.7743460" lon="-4.0684260">
        <ele>1422.0</ele>
        <time>2019-04-28T08:38:23Z</time>
      </trkpt>
      <trkpt lat="40.7742160" lon="-4.0684410">
        <ele>1421.4</ele>
        <time>2019-04-28T08:38:24Z</time>
      </trkpt>
      <trkpt lat="40.7741320" lon="-4.0684720">
        <ele>1420.8</ele>
        <time>2019-04-28T08:38:25Z</time>
      </trkpt>
      <trkpt lat="40.7740600" lon="-4.0684890">
        <ele>1420.2</ele>
        <time>2019-04-28T08:38:26Z</time>
      </trkpt>
      <trkpt lat="40.7739610" lon="-4.0684860">
        <ele>1419.4</ele>
        <time>2019-04-28T08:38:27Z</time>
      </trkpt>
      <trkpt lat="40.7738480" lon="-4.0684780">
        <ele>1418.6</ele>
        <time>2019-04-28T08:38:28Z</time>
      </trkpt>
      <trkpt lat="40.7737490" lon="-4.0684620">
        <ele>1417.8</ele>
        <time>2019-04-28T08:38:29Z</time>
      </trkpt>
      <trkpt lat="40.7736330" lon="-4.0684370">
        <ele>1417.4</ele>
        <time>2019-04-28T08:38:30Z</time>
      </trkpt>
      <trkpt lat="40.7735370" lon="-4.0684090">
        <ele>1416.6</ele>
        <time>2019-04-28T08:38:31Z</time>
      </trkpt>
      <trkpt lat="40.7734440" lon="-4.0683960">
        <ele>1416.0</ele>
        <time>2019-04-28T08:38:32Z</time>
      </trkpt>
      <trkpt lat="40.7733600" lon="-4.0683720">
        <ele>1415.4</ele>
        <time>2019-04-28T08:38:33Z</time>
      </trkpt>
      <trkpt lat="40.7732400" lon="-4.0683630">
        <ele>1415.0</ele>
        <time>2019-04-28T08:38:34Z</time>
      </trkpt>
      <trkpt lat="40.7731400" lon="-4.0683730">
        <ele>1414.4</ele>
        <time>2019-04-28T08:38:35Z</time>
      </trkpt>
      <trkpt lat="40.7730530" lon="-4.0684080">
        <ele>1413.8</ele>
        <time>2019-04-28T08:38:36Z</time>
      </trkpt>
      <trkpt lat="40.7729350" lon="-4.0684400">
        <ele>1413.2</ele>
        <time>2019-04-28T08:38:37Z</time>
      </trkpt>
      <trkpt lat="40.7728350" lon="-4.0684980">
        <ele>1412.4</ele>
        <time>2019-04-28T08:38:38Z</time>
      </trkpt>
      <trkpt lat="40.7727020" lon="-4.0685490">
        <ele>1411.8</ele>
        <time>2019-04-28T08:38:39Z</time>
      </trkpt>
      <trkpt lat="40.7725950" lon="-4.0686100">
        <ele>1411.0</ele>
        <time>2019-04-28T08:38:40Z</time>
      </trkpt>
      <trkpt lat="40.7725070" lon="-4.0686600">
        <ele>1410.0</ele>
        <time>2019-04-28T08:38:41Z</time>
      </trkpt>
      <trkpt lat="40.7724040" lon="-4.0687280">
        <ele>1409.2</ele>
        <time>2019-04-28T08:38:42Z</time>
      </trkpt>
      <trkpt lat="40.7722990" lon="-4.0687860">
        <ele>1408.6</ele>
        <time>2019-04-28T08:38:43Z</time>
      </trkpt>
      <trkpt lat="40.7722010" lon="-4.0688580">
        <ele>1407.6</ele>
        <time>2019-04-28T08:38:44Z</time>
      </trkpt>
      <trkpt lat="40.7721140" lon="-4.0689490">
        <ele>1407.2</ele>
        <time>2019-04-28T08:38:45Z</time>
      </trkpt>
      <trkpt lat="40.7720380" lon="-4.0690700">
        <ele>1406.2</ele>
        <time>2019-04-28T08:38:46Z</time>
      </trkpt>
      <trkpt lat="40.7719680" lon="-4.0691860">
        <ele>1405.6</ele>
        <time>2019-04-28T08:38:47Z</time>
      </trkpt>
      <trkpt lat="40.7718830" lon="-4.0692760">
        <ele>1404.6</ele>
        <time>2019-04-28T08:38:48Z</time>
      </trkpt>
      <trkpt lat="40.7718250" lon="-4.0693520">
        <ele>1404.0</ele>
        <time>2019-04-28T08:38:49Z</time>
      </trkpt>
      <trkpt lat="40.7717620" lon="-4.0694480">
        <ele>1403.0</ele>
        <time>2019-04-28T08:38:50Z</time>
      </trkpt>
      <trkpt lat="40.7717060" lon="-4.0695410">
        <ele>1402.2</ele>
        <time>2019-04-28T08:38:51Z</time>
      </trkpt>
      <trkpt lat="40.7716560" lon="-4.0696440">
        <ele>1401.6</ele>
        <time>2019-04-28T08:38:52Z</time>
      </trkpt>
      <trkpt lat="40.7716220" lon="-4.0697220">
        <ele>1400.8</ele>
        <time>2019-04-28T08:38:53Z</time>
      </trkpt>
      <trkpt lat="40.7716000" lon="-4.0697960">
        <ele>1400.2</ele>
        <time>2019-04-28T08:38:54Z</time>
      </trkpt>
      <trkpt lat="40.7715020" lon="-4.0698030">
        <ele>1399.6</ele>
        <time>2019-04-28T08:38:55Z</time>
      </trkpt>
      <trkpt lat="40.7714300" lon="-4.0698060">
        <ele>1399.0</ele>
        <time>2019-04-28T08:38:56Z</time>
      </trkpt>
      <trkpt lat="40.7713920" lon="-4.0698090">
        <ele>1398.2</ele>
        <time>2019-04-28T08:38:57Z</time>
      </trkpt>
      <trkpt lat="40.7713440" lon="-4.0698150">
        <ele>1397.8</ele>
        <time>2019-04-28T08:38:58Z</time>
      </trkpt>
      <trkpt lat="40.7713160" lon="-4.0698140">
        <ele>1397.6</ele>
        <time>2019-04-28T08:38:59Z</time>
      </trkpt>
      <trkpt lat="40.7712910" lon="-4.0698180">
        <ele>1397.2</ele>
        <time>2019-04-28T08:39:00Z</time>
      </trkpt>
      <trkpt lat="40.7712600" lon="-4.0698140">
        <ele>1397.0</ele>
        <time>2019-04-28T08:39:01Z</time>
      </trkpt>
      <trkpt lat="40.7712200" lon="-4.0698130">
        <ele>1396.6</ele>
        <time>2019-04-28T08:39:02Z</time>
      </trkpt>
      <trkpt lat="40.7711910" lon="-4.0698060">
        <ele>1396.4</ele>
        <time>2019-04-28T08:39:03Z</time>
      </trkpt>
      <trkpt lat="40.7711590" lon="-4.0697960">
        <ele>1396.2</ele>
        <time>2019-04-28T08:39:04Z</time>
      </trkpt>
      <trkpt lat="40.7711400" lon="-4.0697780">
        <ele>1396.0</ele>
        <time>2019-04-28T08:39:05Z</time>
      </trkpt>
      <trkpt lat="40.7711240" lon="-4.0697720">
        <ele>1395.8</ele>
        <time>2019-04-28T08:39:06Z</time>
      </trkpt>
      <trkpt lat="40.7711090" lon="-4.0697610">
        <ele>1395.6</ele>
        <time>2019-04-28T08:39:07Z</time>
      </trkpt>
      <trkpt lat="40.7710850" lon="-4.0697590">
        <ele>1395.4</ele>
        <time>2019-04-28T08:39:08Z</time>
      </trkpt>
      <trkpt lat="40.7710760" lon="-4.0697610">
        <ele>1395.4</ele>
        <time>2019-04-28T08:39:09Z</time>
      </trkpt>
      <trkpt lat="40.7710730" lon="-4.0697700">
        <ele>1395.4</ele>
        <time>2019-04-28T08:39:10Z</time>
      </trkpt>
      <trkpt lat="40.7710580" lon="-4.0697800">
        <ele>1395.4</ele>
        <time>2019-04-28T08:39:11Z</time>
      </trkpt>
      <trkpt lat="40.7710350" lon="-4.0697930">
        <ele>1395.4</ele>
        <time>2019-04-28T08:39:12Z</time>
      </trkpt>
      <trkpt lat="40.7710120" lon="-4.0697990">
        <ele>1395.4</ele>
        <time>2019-04-28T08:39:13Z</time>
      </trkpt>
      <trkpt lat="40.7709980" lon="-4.0698010">
        <ele>1395.4</ele>
        <time>2019-04-28T08:39:14Z</time>
      </trkpt>
      <trkpt lat="40.7709650" lon="-4.0697960">
        <ele>1395.4</ele>
        <time>2019-04-28T08:39:15Z</time>
      </trkpt>
      <trkpt lat="40.7709350" lon="-4.0697950">
        <ele>1395.4</ele>
        <time>2019-04-28T08:39:16Z</time>
      </trkpt>
      <trkpt lat="40.7703660" lon="-4.0697320">
        <ele>1392.8</ele>
        <time>2019-04-28T08:40:03Z</time>
      </trkpt>
      <trkpt lat="40.7703320" lon="-4.0697350">
        <ele>1394.0</ele>
        <time>2019-04-28T08:40:04Z</time>
      </trkpt>
      <trkpt lat="40.7702690" lon="-4.0697410">
        <ele>1394.0</ele>
        <time>2019-04-28T08:40:05Z</time>
      </trkpt>
      <trkpt lat="40.7701920" lon="-4.0697250">
        <ele>1394.0</ele>
        <time>2019-04-28T08:40:06Z</time>
      </trkpt>
      <trkpt lat="40.7701260" lon="-4.0697470">
        <ele>1394.0</ele>
        <time>2019-04-28T08:40:07Z</time>
      </trkpt>
      <trkpt lat="40.7700500" lon="-4.0697800">
        <ele>1394.0</ele>
        <time>2019-04-28T08:40:08Z</time>
      </trkpt>
      <trkpt lat="40.7700040" lon="-4.0698360">
        <ele>1394.0</ele>
        <time>2019-04-28T08:40:09Z</time>
      </trkpt>
      <trkpt lat="40.7699650" lon="-4.0698680">
        <ele>1388.4</ele>
        <time>2019-04-28T08:40:10Z</time>
      </trkpt>
      <trkpt lat="40.7699090" lon="-4.0699220">
        <ele>1388.0</ele>
        <time>2019-04-28T08:40:11Z</time>
      </trkpt>
      <trkpt lat="40.7698640" lon="-4.0699820">
        <ele>1387.6</ele>
        <time>2019-04-28T08:40:12Z</time>
      </trkpt>
      <trkpt lat="40.7698260" lon="-4.0700670">
        <ele>1386.6</ele>
        <time>2019-04-28T08:40:13Z</time>
      </trkpt>
      <trkpt lat="40.7697890" lon="-4.0701630">
        <ele>1386.2</ele>
        <time>2019-04-28T08:40:14Z</time>
      </trkpt>
      <trkpt lat="40.7697360" lon="-4.0702580">
        <ele>1385.8</ele>
        <time>2019-04-28T08:40:15Z</time>
      </trkpt>
      <trkpt lat="40.7696540" lon="-4.0703260">
        <ele>1385.0</ele>
        <time>2019-04-28T08:40:16Z</time>
      </trkpt>
      <trkpt lat="40.7695750" lon="-4.0703910">
        <ele>1384.6</ele>
        <time>2019-04-28T08:40:17Z</time>
      </trkpt>
      <trkpt lat="40.7695010" lon="-4.0704440">
        <ele>1383.6</ele>
        <time>2019-04-28T08:40:18Z</time>
      </trkpt>
      <trkpt lat="40.7694350" lon="-4.0704960">
        <ele>1383.0</ele>
        <time>2019-04-28T08:40:19Z</time>
      </trkpt>
      <trkpt lat="40.7693690" lon="-4.0705380">
        <ele>1382.4</ele>
        <time>2019-04-28T08:40:20Z</time>
      </trkpt>
      <trkpt lat="40.7693070" lon="-4.0705840">
        <ele>1381.8</ele>
        <time>2019-04-28T08:40:21Z</time>
      </trkpt>
      <trkpt lat="40.7692260" lon="-4.0706090">
        <ele>1381.4</ele>
        <time>2019-04-28T08:40:22Z</time>
      </trkpt>
      <trkpt lat="40.7691630" lon="-4.0706440">
        <ele>1381.0</ele>
        <time>2019-04-28T08:40:23Z</time>
      </trkpt>
      <trkpt lat="40.7691020" lon="-4.0706760">
        <ele>1380.6</ele>
        <time>2019-04-28T08:40:24Z</time>
      </trkpt>
      <trkpt lat="40.7690380" lon="-4.0707080">
        <ele>1380.2</ele>
        <time>2019-04-28T08:40:25Z</time>
      </trkpt>
      <trkpt lat="40.7689870" lon="-4.0707410">
        <ele>1379.8</ele>
        <time>2019-04-28T08:40:26Z</time>
      </trkpt>
      <trkpt lat="40.7689360" lon="-4.0707370">
        <ele>1379.6</ele>
        <time>2019-04-28T08:40:27Z</time>
      </trkpt>
      <trkpt lat="40.7689550" lon="-4.0707660">
        <ele>1379.2</ele>
        <time>2019-04-28T08:40:28Z</time>
      </trkpt>
      <trkpt lat="40.7689320" lon="-4.0707830">
        <ele>1379.0</ele>
        <time>2019-04-28T08:40:29Z</time>
      </trkpt>
      <trkpt lat="40.7689160" lon="-4.0707970">
        <ele>1378.6</ele>
        <time>2019-04-28T08:40:30Z</time>
      </trkpt>
      <trkpt lat="40.7689050" lon="-4.0708250">
        <ele>1378.4</ele>
        <time>2019-04-28T08:40:31Z</time>
      </trkpt>
      <trkpt lat="40.7688640" lon="-4.0708310">
        <ele>1378.2</ele>
        <time>2019-04-28T08:40:32Z</time>
      </trkpt>
      <trkpt lat="40.7688370" lon="-4.0708450">
        <ele>1378.2</ele>
        <time>2019-04-28T08:40:33Z</time>
      </trkpt>
      <trkpt lat="40.7688220" lon="-4.0708580">
        <ele>1378.0</ele>
        <time>2019-04-28T08:40:34Z</time>
      </trkpt>
      <trkpt lat="40.7688050" lon="-4.0708630">
        <ele>1377.8</ele>
        <time>2019-04-28T08:40:35Z</time>
      </trkpt>
      <trkpt lat="40.7687920" lon="-4.0708670">
        <ele>1377.8</ele>
        <time>2019-04-28T08:40:36Z</time>
      </trkpt>
      <trkpt lat="40.7687820" lon="-4.0708740">
        <ele>1377.8</ele>
        <time>2019-04-28T08:40:37Z</time>
      </trkpt>
      <trkpt lat="40.7687770" lon="-4.0708770">
        <ele>1377.8</ele>
        <time>2019-04-28T08:40:38Z</time>
      </trkpt>
      <trkpt lat="40.7687730" lon="-4.0708830">
        <ele>1377.8</ele>
        <time>2019-04-28T08:40:39Z</time>
      </trkpt>
      <trkpt lat="40.7687640" lon="-4.0708870">
        <ele>1377.8</ele>
        <time>2019-04-28T08:40:40Z</time>
      </trkpt>
      <trkpt lat="40.7687560" lon="-4.0708920">
        <ele>1377.8</ele>
        <time>2019-04-28T08:40:41Z</time>
      </trkpt>
      <trkpt lat="40.7687340" lon="-4.0708910">
        <ele>1377.8</ele>
        <time>2019-04-28T08:40:42Z</time>
      </trkpt>
      <trkpt lat="40.7687090" lon="-4.0708890">
        <ele>1377.8</ele>
        <time>2019-04-28T08:40:43Z</time>
      </trkpt>
      <trkpt lat="40.7686820" lon="-4.0708910">
        <ele>1377.8</ele>
        <time>2019-04-28T08:40:44Z</time>
      </trkpt>
      <trkpt lat="40.7686400" lon="-4.0708920">
        <ele>1377.8</ele>
        <time>2019-04-28T08:40:45Z</time>
      </trkpt>
      <trkpt lat="40.7681560" lon="-4.0711510">
        <ele>1375.6</ele>
        <time>2019-04-28T08:40:57Z</time>
      </trkpt>
      <trkpt lat="40.7681170" lon="-4.0711770">
        <ele>1375.2</ele>
        <time>2019-04-28T08:40:58Z</time>
      </trkpt>
      <trkpt lat="40.7680750" lon="-4.0711860">
        <ele>1375.0</ele>
        <time>2019-04-28T08:40:59Z</time>
      </trkpt>
      <trkpt lat="40.7680280" lon="-4.0712040">
        <ele>1374.6</ele>
        <time>2019-04-28T08:41:00Z</time>
      </trkpt>
      <trkpt lat="40.7679730" lon="-4.0712210">
        <ele>1374.2</ele>
        <time>2019-04-28T08:41:01Z</time>
      </trkpt>
      <trkpt lat="40.7679220" lon="-4.0712410">
        <ele>1373.8</ele>
        <time>2019-04-28T08:41:02Z</time>
      </trkpt>
      <trkpt lat="40.7678660" lon="-4.0712660">
        <ele>1373.6</ele>
        <time>2019-04-28T08:41:03Z</time>
      </trkpt>
      <trkpt lat="40.7678020" lon="-4.0712910">
        <ele>1373.2</ele>
        <time>2019-04-28T08:41:04Z</time>
      </trkpt>
      <trkpt lat="40.7677560" lon="-4.0713230">
        <ele>1372.6</ele>
        <time>2019-04-28T08:41:05Z</time>
      </trkpt>
      <trkpt lat="40.7676800" lon="-4.0713480">
        <ele>1372.4</ele>
        <time>2019-04-28T08:41:06Z</time>
      </trkpt>
      <trkpt lat="40.7676040" lon="-4.0713760">
        <ele>1371.6</ele>
        <time>2019-04-28T08:41:07Z</time>
      </trkpt>
      <trkpt lat="40.7675300" lon="-4.0714060">
        <ele>1371.4</ele>
        <time>2019-04-28T08:41:08Z</time>
      </trkpt>
      <trkpt lat="40.7674610" lon="-4.0714370">
        <ele>1370.8</ele>
        <time>2019-04-28T08:41:09Z</time>
      </trkpt>
      <trkpt lat="40.7673940" lon="-4.0714770">
        <ele>1370.4</ele>
        <time>2019-04-28T08:41:10Z</time>
      </trkpt>
      <trkpt lat="40.7673260" lon="-4.0715130">
        <ele>1369.8</ele>
        <time>2019-04-28T08:41:11Z</time>
      </trkpt>
      <trkpt lat="40.7672400" lon="-4.0715550">
        <ele>1369.2</ele>
        <time>2019-04-28T08:41:12Z</time>
      </trkpt>
      <trkpt lat="40.7671630" lon="-4.0715940">
        <ele>1368.6</ele>
        <time>2019-04-28T08:41:13Z</time>
      </trkpt>
      <trkpt lat="40.7670770" lon="-4.0716280">
        <ele>1368.2</ele>
        <time>2019-04-28T08:41:14Z</time>
      </trkpt>
      <trkpt lat="40.7669830" lon="-4.0716510">
        <ele>1367.8</ele>
        <time>2019-04-28T08:41:15Z</time>
      </trkpt>
      <trkpt lat="40.7669100" lon="-4.0716820">
        <ele>1367.4</ele>
        <time>2019-04-28T08:41:16Z</time>
      </trkpt>
      <trkpt lat="40.7668390" lon="-4.0717230">
        <ele>1366.6</ele>
        <time>2019-04-28T08:41:17Z</time>
      </trkpt>
      <trkpt lat="40.7667780" lon="-4.0717680">
        <ele>1366.0</ele>
        <time>2019-04-28T08:41:18Z</time>
      </trkpt>
      <trkpt lat="40.7666790" lon="-4.0718060">
        <ele>1365.4</ele>
        <time>2019-04-28T08:41:19Z</time>
      </trkpt>
      <trkpt lat="40.7665830" lon="-4.0718360">
        <ele>1365.2</ele>
        <time>2019-04-28T08:41:20Z</time>
      </trkpt>
      <trkpt lat="40.7664910" lon="-4.0718750">
        <ele>1364.4</ele>
        <time>2019-04-28T08:41:21Z</time>
      </trkpt>
      <trkpt lat="40.7664080" lon="-4.0719080">
        <ele>1363.6</ele>
        <time>2019-04-28T08:41:22Z</time>
      </trkpt>
      <trkpt lat="40.7663330" lon="-4.0719270">
        <ele>1363.0</ele>
        <time>2019-04-28T08:41:23Z</time>
      </trkpt>
      <trkpt lat="40.7662820" lon="-4.0719560">
        <ele>1362.6</ele>
        <time>2019-04-28T08:41:24Z</time>
      </trkpt>
      <trkpt lat="40.7662410" lon="-4.0719910">
        <ele>1362.2</ele>
        <time>2019-04-28T08:41:25Z</time>
      </trkpt>
      <trkpt lat="40.7661640" lon="-4.0720140">
        <ele>1361.4</ele>
        <time>2019-04-28T08:41:26Z</time>
      </trkpt>
      <trkpt lat="40.7661120" lon="-4.0720550">
        <ele>1360.8</ele>
        <time>2019-04-28T08:41:27Z</time>
      </trkpt>
      <trkpt lat="40.7660120" lon="-4.0720640">
        <ele>1360.0</ele>
        <time>2019-04-28T08:41:28Z</time>
      </trkpt>
      <trkpt lat="40.7659090" lon="-4.0720790">
        <ele>1359.4</ele>
        <time>2019-04-28T08:41:29Z</time>
      </trkpt>
      <trkpt lat="40.7658180" lon="-4.0720930">
        <ele>1358.8</ele>
        <time>2019-04-28T08:41:30Z</time>
      </trkpt>
      <trkpt lat="40.7657260" lon="-4.0720970">
        <ele>1358.2</ele>
        <time>2019-04-28T08:41:31Z</time>
      </trkpt>
      <trkpt lat="40.7656380" lon="-4.0721110">
        <ele>1357.2</ele>
        <time>2019-04-28T08:41:32Z</time>
      </trkpt>
      <trkpt lat="40.7655720" lon="-4.0721280">
        <ele>1356.8</ele>
        <time>2019-04-28T08:41:33Z</time>
      </trkpt>
      <trkpt lat="40.7654970" lon="-4.0721300">
        <ele>1356.0</ele>
        <time>2019-04-28T08:41:34Z</time>
      </trkpt>
      <trkpt lat="40.7654140" lon="-4.0721280">
        <ele>1355.4</ele>
        <time>2019-04-28T08:41:35Z</time>
      </trkpt>
      <trkpt lat="40.7653450" lon="-4.0721600">
        <ele>1354.4</ele>
        <time>2019-04-28T08:41:36Z</time>
      </trkpt>
      <trkpt lat="40.7652690" lon="-4.0722340">
        <ele>1354.0</ele>
        <time>2019-04-28T08:41:37Z</time>
      </trkpt>
      <trkpt lat="40.7651840" lon="-4.0723310">
        <ele>1353.0</ele>
        <time>2019-04-28T08:41:38Z</time>
      </trkpt>
      <trkpt lat="40.7651100" lon="-4.0724200">
        <ele>1352.6</ele>
        <time>2019-04-28T08:41:39Z</time>
      </trkpt>
      <trkpt lat="40.7649950" lon="-4.0725050">
        <ele>1352.0</ele>
        <time>2019-04-28T08:41:40Z</time>
      </trkpt>
      <trkpt lat="40.7649270" lon="-4.0726240">
        <ele>1351.4</ele>
        <time>2019-04-28T08:41:41Z</time>
      </trkpt>
      <trkpt lat="40.7648580" lon="-4.0727420">
        <ele>1350.8</ele>
        <time>2019-04-28T08:41:42Z</time>
      </trkpt>
      <trkpt lat="40.7647460" lon="-4.0728320">
        <ele>1350.0</ele>
        <time>2019-04-28T08:41:43Z</time>
      </trkpt>
      <trkpt lat="40.7646390" lon="-4.0729130">
        <ele>1349.4</ele>
        <time>2019-04-28T08:41:44Z</time>
      </trkpt>
      <trkpt lat="40.7645420" lon="-4.0729560">
        <ele>1349.0</ele>
        <time>2019-04-28T08:41:45Z</time>
      </trkpt>
      <trkpt lat="40.7644220" lon="-4.0729650">
        <ele>1348.6</ele>
        <time>2019-04-28T08:41:46Z</time>
      </trkpt>
      <trkpt lat="40.7643350" lon="-4.0729520">
        <ele>1348.0</ele>
        <time>2019-04-28T08:41:47Z</time>
      </trkpt>
      <trkpt lat="40.7642220" lon="-4.0728730">
        <ele>1347.6</ele>
        <time>2019-04-28T08:41:48Z</time>
      </trkpt>
      <trkpt lat="40.7641520" lon="-4.0727770">
        <ele>1347.2</ele>
        <time>2019-04-28T08:41:49Z</time>
      </trkpt>
      <trkpt lat="40.7640660" lon="-4.0726600">
        <ele>1346.0</ele>
        <time>2019-04-28T08:41:50Z</time>
      </trkpt>
      <trkpt lat="40.7639290" lon="-4.0725500">
        <ele>1344.6</ele>
        <time>2019-04-28T08:41:51Z</time>
      </trkpt>
      <trkpt lat="40.7638010" lon="-4.0724310">
        <ele>1343.0</ele>
        <time>2019-04-28T08:41:52Z</time>
      </trkpt>
      <trkpt lat="40.7636690" lon="-4.0723030">
        <ele>1341.4</ele>
        <time>2019-04-28T08:41:53Z</time>
      </trkpt>
      <trkpt lat="40.7635110" lon="-4.0721910">
        <ele>1340.6</ele>
        <time>2019-04-28T08:41:54Z</time>
      </trkpt>
      <trkpt lat="40.7633860" lon="-4.0720900">
        <ele>1339.0</ele>
        <time>2019-04-28T08:41:55Z</time>
      </trkpt>
      <trkpt lat="40.7632560" lon="-4.0720120">
        <ele>1337.8</ele>
        <time>2019-04-28T08:41:56Z</time>
      </trkpt>
      <trkpt lat="40.7630970" lon="-4.0719250">
        <ele>1336.0</ele>
        <time>2019-04-28T08:41:57Z</time>
      </trkpt>
      <trkpt lat="40.7629430" lon="-4.0718570">
        <ele>1334.8</ele>
        <time>2019-04-28T08:41:58Z</time>
      </trkpt>
      <trkpt lat="40.7628080" lon="-4.0717940">
        <ele>1333.0</ele>
        <time>2019-04-28T08:41:59Z</time>
      </trkpt>
      <trkpt lat="40.7626810" lon="-4.0717530">
        <ele>1331.8</ele>
        <time>2019-04-28T08:42:00Z</time>
      </trkpt>
      <trkpt lat="40.7625980" lon="-4.0717050">
        <ele>1330.0</ele>
        <time>2019-04-28T08:42:01Z</time>
      </trkpt>
      <trkpt lat="40.7625330" lon="-4.0716760">
        <ele>1329.2</ele>
        <time>2019-04-28T08:42:02Z</time>
      </trkpt>
      <trkpt lat="40.7624650" lon="-4.0716470">
        <ele>1328.4</ele>
        <time>2019-04-28T08:42:03Z</time>
      </trkpt>
      <trkpt lat="40.7624020" lon="-4.0716080">
        <ele>1327.8</ele>
        <time>2019-04-28T08:42:04Z</time>
      </trkpt>
      <trkpt lat="40.7623420" lon="-4.0715850">
        <ele>1327.4</ele>
        <time>2019-04-28T08:42:05Z</time>
      </trkpt>
      <trkpt lat="40.7623060" lon="-4.0715580">
        <ele>1327.2</ele>
        <time>2019-04-28T08:42:06Z</time>
      </trkpt>
      <trkpt lat="40.7622640" lon="-4.0715310">
        <ele>1326.8</ele>
        <time>2019-04-28T08:42:07Z</time>
      </trkpt>
      <trkpt lat="40.7622300" lon="-4.0715180">
        <ele>1326.6</ele>
        <time>2019-04-28T08:42:08Z</time>
      </trkpt>
      <trkpt lat="40.7622000" lon="-4.0715090">
        <ele>1326.4</ele>
        <time>2019-04-28T08:42:09Z</time>
      </trkpt>
      <trkpt lat="40.7621770" lon="-4.0714990">
        <ele>1326.4</ele>
        <time>2019-04-28T08:42:10Z</time>
      </trkpt>
      <trkpt lat="40.7621480" lon="-4.0714870">
        <ele>1326.2</ele>
        <time>2019-04-28T08:42:11Z</time>
      </trkpt>
      <trkpt lat="40.7621180" lon="-4.0714690">
        <ele>1325.8</ele>
        <time>2019-04-28T08:42:12Z</time>
      </trkpt>
      <trkpt lat="40.7620860" lon="-4.0714370">
        <ele>1325.2</ele>
        <time>2019-04-28T08:42:13Z</time>
      </trkpt>
      <trkpt lat="40.7620530" lon="-4.0714080">
        <ele>1324.8</ele>
        <time>2019-04-28T08:42:14Z</time>
      </trkpt>
      <trkpt lat="40.7620120" lon="-4.0713850">
        <ele>1324.2</ele>
        <time>2019-04-28T08:42:15Z</time>
      </trkpt>
      <trkpt lat="40.7619680" lon="-4.0713640">
        <ele>1324.0</ele>
        <time>2019-04-28T08:42:16Z</time>
      </trkpt>
      <trkpt lat="40.7619280" lon="-4.0713520">
        <ele>1323.6</ele>
        <time>2019-04-28T08:42:17Z</time>
      </trkpt>
      <trkpt lat="40.7619010" lon="-4.0713270">
        <ele>1323.4</ele>
        <time>2019-04-28T08:42:18Z</time>
      </trkpt>
      <trkpt lat="40.7618850" lon="-4.0713170">
        <ele>1323.2</ele>
        <time>2019-04-28T08:42:19Z</time>
      </trkpt>
      <trkpt lat="40.7618690" lon="-4.0713160">
        <ele>1323.2</ele>
        <time>2019-04-28T08:42:20Z</time>
      </trkpt>
      <trkpt lat="40.7618570" lon="-4.0713050">
        <ele>1323.0</ele>
        <time>2019-04-28T08:42:21Z</time>
      </trkpt>
      <trkpt lat="40.7618430" lon="-4.0713060">
        <ele>1323.0</ele>
        <time>2019-04-28T08:42:22Z</time>
      </trkpt>
      <trkpt lat="40.7618210" lon="-4.0713060">
        <ele>1322.8</ele>
        <time>2019-04-28T08:42:23Z</time>
      </trkpt>
      <trkpt lat="40.7618050" lon="-4.0713000">
        <ele>1322.8</ele>
        <time>2019-04-28T08:42:24Z</time>
      </trkpt>
      <trkpt lat="40.7617940" lon="-4.0713050">
        <ele>1322.6</ele>
        <time>2019-04-28T08:42:25Z</time>
      </trkpt>
      <trkpt lat="40.7617760" lon="-4.0713060">
        <ele>1322.4</ele>
        <time>2019-04-28T08:42:26Z</time>
      </trkpt>
      <trkpt lat="40.7617680" lon="-4.0713100">
        <ele>1322.2</ele>
        <time>2019-04-28T08:42:27Z</time>
      </trkpt>
      <trkpt lat="40.7617560" lon="-4.0713160">
        <ele>1322.2</ele>
        <time>2019-04-28T08:42:28Z</time>
      </trkpt>
      <trkpt lat="40.7617270" lon="-4.0713220">
        <ele>1322.0</ele>
        <time>2019-04-28T08:42:29Z</time>
      </trkpt>
      <trkpt lat="40.7616940" lon="-4.0713270">
        <ele>1321.8</ele>
        <time>2019-04-28T08:42:30Z</time>
      </trkpt>
      <trkpt lat="40.7616720" lon="-4.0713230">
        <ele>1321.6</ele>
        <time>2019-04-28T08:42:31Z</time>
      </trkpt>
      <trkpt lat="40.7616410" lon="-4.0713270">
        <ele>1321.2</ele>
        <time>2019-04-28T08:42:32Z</time>
      </trkpt>
      <trkpt lat="40.7616160" lon="-4.0713290">
        <ele>1321.0</ele>
        <time>2019-04-28T08:42:33Z</time>
      </trkpt>
      <trkpt lat="40.7615920" lon="-4.0713360">
        <ele>1320.8</ele>
        <time>2019-04-28T08:42:34Z</time>
      </trkpt>
      <trkpt lat="40.7615560" lon="-4.0713420">
        <ele>1320.6</ele>
        <time>2019-04-28T08:42:35Z</time>
      </trkpt>
      <trkpt lat="40.7615260" lon="-4.0713540">
        <ele>1320.4</ele>
        <time>2019-04-28T08:42:36Z</time>
      </trkpt>
      <trkpt lat="40.7614800" lon="-4.0713530">
        <ele>1320.2</ele>
        <time>2019-04-28T08:42:37Z</time>
      </trkpt>
      <trkpt lat="40.7614690" lon="-4.0713600">
        <ele>1319.8</ele>
        <time>2019-04-28T08:42:38Z</time>
      </trkpt>
      <trkpt lat="40.7614580" lon="-4.0713650">
        <ele>1319.8</ele>
        <time>2019-04-28T08:42:39Z</time>
      </trkpt>
      <trkpt lat="40.7614580" lon="-4.0713700">
        <ele>1319.8</ele>
        <time>2019-04-28T08:42:40Z</time>
      </trkpt>
      <trkpt lat="40.7614580" lon="-4.0713750">
        <ele>1319.8</ele>
        <time>2019-04-28T08:42:41Z</time>
      </trkpt>
      <trkpt lat="40.7614570" lon="-4.0713780">
        <ele>1319.8</ele>
        <time>2019-04-28T08:42:42Z</time>
      </trkpt>
      <trkpt lat="40.7614530" lon="-4.0713780">
        <ele>1319.8</ele>
        <time>2019-04-28T08:42:43Z</time>
      </trkpt>
      <trkpt lat="40.7614360" lon="-4.0713750">
        <ele>1319.8</ele>
        <time>2019-04-28T08:42:44Z</time>
      </trkpt>
      <trkpt lat="40.7614210" lon="-4.0713770">
        <ele>1319.8</ele>
        <time>2019-04-28T08:42:45Z</time>
      </trkpt>
      <trkpt lat="40.7614090" lon="-4.0713750">
        <ele>1319.8</ele>
        <time>2019-04-28T08:42:46Z</time>
      </trkpt>
      <trkpt lat="40.7613930" lon="-4.0713720">
        <ele>1319.8</ele>
        <time>2019-04-28T08:42:47Z</time>
      </trkpt>
      <trkpt lat="40.7613010" lon="-4.0713150">
        <ele>1321.2</ele>
        <time>2019-04-28T08:43:07Z</time>
      </trkpt>
      <trkpt lat="40.7613140" lon="-4.0713190">
        <ele>1321.2</ele>
        <time>2019-04-28T08:43:08Z</time>
      </trkpt>
      <trkpt lat="40.7613280" lon="-4.0713110">
        <ele>1321.4</ele>
        <time>2019-04-28T08:43:09Z</time>
      </trkpt>
      <trkpt lat="40.7613360" lon="-4.0713050">
        <ele>1321.4</ele>
        <time>2019-04-28T08:43:10Z</time>
      </trkpt>
      <trkpt lat="40.7613440" lon="-4.0713050">
        <ele>1321.6</ele>
        <time>2019-04-28T08:43:11Z</time>
      </trkpt>
      <trkpt lat="40.7613480" lon="-4.0713000">
        <ele>1321.8</ele>
        <time>2019-04-28T08:43:12Z</time>
      </trkpt>
      <trkpt lat="40.7613790" lon="-4.0713020">
        <ele>1321.8</ele>
        <time>2019-04-28T08:43:13Z</time>
      </trkpt>
      <trkpt lat="40.7614150" lon="-4.0713040">
        <ele>1322.2</ele>
        <time>2019-04-28T08:43:14Z</time>
      </trkpt>
      <trkpt lat="40.7614420" lon="-4.0713020">
        <ele>1322.2</ele>
        <time>2019-04-28T08:43:15Z</time>
      </trkpt>
      <trkpt lat="40.7614620" lon="-4.0713100">
        <ele>1322.4</ele>
        <time>2019-04-28T08:43:16Z</time>
      </trkpt>
      <trkpt lat="40.7614830" lon="-4.0713070">
        <ele>1322.8</ele>
        <time>2019-04-28T08:43:17Z</time>
      </trkpt>
      <trkpt lat="40.7615220" lon="-4.0713070">
        <ele>1323.0</ele>
        <time>2019-04-28T08:43:18Z</time>
      </trkpt>
      <trkpt lat="40.7615560" lon="-4.0713020">
        <ele>1323.2</ele>
        <time>2019-04-28T08:43:19Z</time>
      </trkpt>
      <trkpt lat="40.7615860" lon="-4.0713020">
        <ele>1323.4</ele>
        <time>2019-04-28T08:43:20Z</time>
      </trkpt>
      <trkpt lat="40.7616220" lon="-4.0712990">
        <ele>1323.4</ele>
        <time>2019-04-28T08:43:21Z</time>
      </trkpt>
      <trkpt lat="40.7616530" lon="-4.0713050">
        <ele>1323.6</ele>
        <time>2019-04-28T08:43:22Z</time>
      </trkpt>
      <trkpt lat="40.7616830" lon="-4.0713100">
        <ele>1323.8</ele>
        <time>2019-04-28T08:43:23Z</time>
      </trkpt>
      <trkpt lat="40.7617170" lon="-4.0713160">
        <ele>1324.0</ele>
        <time>2019-04-28T08:43:24Z</time>
      </trkpt>
      <trkpt lat="40.7617450" lon="-4.0713240">
        <ele>1324.2</ele>
        <time>2019-04-28T08:43:25Z</time>
      </trkpt>
      <trkpt lat="40.7617730" lon="-4.0713280">
        <ele>1324.6</ele>
        <time>2019-04-28T08:43:26Z</time>
      </trkpt>
      <trkpt lat="40.7617930" lon="-4.0713410">
        <ele>1324.8</ele>
        <time>2019-04-28T08:43:27Z</time>
      </trkpt>
      <trkpt lat="40.7618160" lon="-4.0713500">
        <ele>1325.0</ele>
        <time>2019-04-28T08:43:28Z</time>
      </trkpt>
      <trkpt lat="40.7618400" lon="-4.0713590">
        <ele>1325.4</ele>
        <time>2019-04-28T08:43:29Z</time>
      </trkpt>
      <trkpt lat="40.7618590" lon="-4.0713630">
        <ele>1325.6</ele>
        <time>2019-04-28T08:43:30Z</time>
      </trkpt>
      <trkpt lat="40.7618720" lon="-4.0713700">
        <ele>1325.8</ele>
        <time>2019-04-28T08:43:31Z</time>
      </trkpt>
      <trkpt lat="40.7618810" lon="-4.0713860">
        <ele>1326.2</ele>
        <time>2019-04-28T08:43:32Z</time>
      </trkpt>
      <trkpt lat="40.7618860" lon="-4.0714190">
        <ele>1326.2</ele>
        <time>2019-04-28T08:43:33Z</time>
      </trkpt>
      <trkpt lat="40.7618860" lon="-4.0714420">
        <ele>1326.4</ele>
        <time>2019-04-28T08:43:34Z</time>
      </trkpt>
      <trkpt lat="40.7618770" lon="-4.0714450">
        <ele>1326.6</ele>
        <time>2019-04-28T08:43:35Z</time>
      </trkpt>
      <trkpt lat="40.7618610" lon="-4.0714740">
        <ele>1326.8</ele>
        <time>2019-04-28T08:43:36Z</time>
      </trkpt>
      <trkpt lat="40.7618720" lon="-4.0715150">
        <ele>1327.2</ele>
        <time>2019-04-28T08:43:37Z</time>
      </trkpt>
      <trkpt lat="40.7618630" lon="-4.0715500">
        <ele>1327.4</ele>
        <time>2019-04-28T08:43:38Z</time>
      </trkpt>
      <trkpt lat="40.7618530" lon="-4.0715770">
        <ele>1327.6</ele>
        <time>2019-04-28T08:43:39Z</time>
      </trkpt>
      <trkpt lat="40.7618320" lon="-4.0715990">
        <ele>1327.8</ele>
        <time>2019-04-28T08:43:40Z</time>
      </trkpt>
      <trkpt lat="40.7618140" lon="-4.0716190">
        <ele>1328.2</ele>
        <time>2019-04-28T08:43:41Z</time>
      </trkpt>
      <trkpt lat="40.7617860" lon="-4.0716310">
        <ele>1328.4</ele>
        <time>2019-04-28T08:43:42Z</time>
      </trkpt>
      <trkpt lat="40.7617480" lon="-4.0716440">
        <ele>1328.4</ele>
        <time>2019-04-28T08:43:43Z</time>
      </trkpt>
      <trkpt lat="40.7617260" lon="-4.0716390">
        <ele>1328.6</ele>
        <time>2019-04-28T08:43:44Z</time>
      </trkpt>
      <trkpt lat="40.7616970" lon="-4.0716330">
        <ele>1328.6</ele>
        <time>2019-04-28T08:43:45Z</time>
      </trkpt>
      <trkpt lat="40.7616630" lon="-4.0716210">
        <ele>1328.8</ele>
        <time>2019-04-28T08:43:46Z</time>
      </trkpt>
      <trkpt lat="40.7616420" lon="-4.0716190">
        <ele>1329.0</ele>
        <time>2019-04-28T08:43:47Z</time>
      </trkpt>
      <trkpt lat="40.7616120" lon="-4.0716230">
        <ele>1329.0</ele>
        <time>2019-04-28T08:43:48Z</time>
      </trkpt>
      <trkpt lat="40.7615860" lon="-4.0716330">
        <ele>1329.2</ele>
        <time>2019-04-28T08:43:49Z</time>
      </trkpt>
      <trkpt lat="40.7615430" lon="-4.0716450">
        <ele>1329.2</ele>
        <time>2019-04-28T08:43:50Z</time>
      </trkpt>
      <trkpt lat="40.7614990" lon="-4.0716600">
        <ele>1329.4</ele>
        <time>2019-04-28T08:43:51Z</time>
      </trkpt>
      <trkpt lat="40.7614520" lon="-4.0716750">
        <ele>1329.6</ele>
        <time>2019-04-28T08:43:52Z</time>
      </trkpt>
      <trkpt lat="40.7614090" lon="-4.0716850">
        <ele>1330.0</ele>
        <time>2019-04-28T08:43:53Z</time>
      </trkpt>
      <trkpt lat="40.7613720" lon="-4.0716980">
        <ele>1330.4</ele>
        <time>2019-04-28T08:43:54Z</time>
      </trkpt>
      <trkpt lat="40.7613390" lon="-4.0717220">
        <ele>1330.6</ele>
        <time>2019-04-28T08:43:55Z</time>
      </trkpt>
      <trkpt lat="40.7613010" lon="-4.0717370">
        <ele>1331.2</ele>
        <time>2019-04-28T08:43:56Z</time>
      </trkpt>
      <trkpt lat="40.7612700" lon="-4.0717720">
        <ele>1331.4</ele>
        <time>2019-04-28T08:43:57Z</time>
      </trkpt>
      <trkpt lat="40.7612310" lon="-4.0718040">
        <ele>1331.8</ele>
        <time>2019-04-28T08:43:58Z</time>
      </trkpt>
      <trkpt lat="40.7612010" lon="-4.0718370">
        <ele>1332.0</ele>
        <time>2019-04-28T08:43:59Z</time>
      </trkpt>
      <trkpt lat="40.7611660" lon="-4.0718650">
        <ele>1332.6</ele>
        <time>2019-04-28T08:44:00Z</time>
      </trkpt>
      <trkpt lat="40.7611380" lon="-4.0718830">
        <ele>1332.8</ele>
        <time>2019-04-28T08:44:01Z</time>
      </trkpt>
      <trkpt lat="40.7611170" lon="-4.0718980">
        <ele>1333.0</ele>
        <time>2019-04-28T08:44:02Z</time>
      </trkpt>
      <trkpt lat="40.7610940" lon="-4.0719240">
        <ele>1333.4</ele>
        <time>2019-04-28T08:44:03Z</time>
      </trkpt>
      <trkpt lat="40.7610710" lon="-4.0719580">
        <ele>1333.8</ele>
        <time>2019-04-28T08:44:04Z</time>
      </trkpt>
      <trkpt lat="40.7610480" lon="-4.0719900">
        <ele>1334.2</ele>
        <time>2019-04-28T08:44:05Z</time>
      </trkpt>
      <trkpt lat="40.7610310" lon="-4.0720190">
        <ele>1334.6</ele>
        <time>2019-04-28T08:44:06Z</time>
      </trkpt>
      <trkpt lat="40.7610160" lon="-4.0720430">
        <ele>1334.8</ele>
        <time>2019-04-28T08:44:07Z</time>
      </trkpt>
      <trkpt lat="40.7610060" lon="-4.0720610">
        <ele>1335.0</ele>
        <time>2019-04-28T08:44:08Z</time>
      </trkpt>
      <trkpt lat="40.7609920" lon="-4.0720790">
        <ele>1335.0</ele>
        <time>2019-04-28T08:44:09Z</time>
      </trkpt>
      <trkpt lat="40.7609780" lon="-4.0720920">
        <ele>1335.2</ele>
        <time>2019-04-28T08:44:10Z</time>
      </trkpt>
      <trkpt lat="40.7609610" lon="-4.0721150">
        <ele>1335.4</ele>
        <time>2019-04-28T08:44:11Z</time>
      </trkpt>
      <trkpt lat="40.7609470" lon="-4.0721410">
        <ele>1335.6</ele>
        <time>2019-04-28T08:44:12Z</time>
      </trkpt>
      <trkpt lat="40.7609300" lon="-4.0721730">
        <ele>1336.0</ele>
        <time>2019-04-28T08:44:13Z</time>
      </trkpt>
      <trkpt lat="40.7609160" lon="-4.0722050">
        <ele>1336.2</ele>
        <time>2019-04-28T08:44:14Z</time>
      </trkpt>
      <trkpt lat="40.7609040" lon="-4.0722290">
        <ele>1336.6</ele>
        <time>2019-04-28T08:44:15Z</time>
      </trkpt>
      <trkpt lat="40.7608930" lon="-4.0722620">
        <ele>1336.6</ele>
        <time>2019-04-28T08:44:16Z</time>
      </trkpt>
      <trkpt lat="40.7608910" lon="-4.0722910">
        <ele>1337.0</ele>
        <time>2019-04-28T08:44:17Z</time>
      </trkpt>
      <trkpt lat="40.7608830" lon="-4.0723270">
        <ele>1337.2</ele>
        <time>2019-04-28T08:44:18Z</time>
      </trkpt>
      <trkpt lat="40.7608700" lon="-4.0723690">
        <ele>1337.6</ele>
        <time>2019-04-28T08:44:19Z</time>
      </trkpt>
      <trkpt lat="40.7608520" lon="-4.0724010">
        <ele>1337.8</ele>
        <time>2019-04-28T08:44:20Z</time>
      </trkpt>
      <trkpt lat="40.7608310" lon="-4.0724310">
        <ele>1338.0</ele>
        <time>2019-04-28T08:44:21Z</time>
      </trkpt>
      <trkpt lat="40.7608080" lon="-4.0724560">
        <ele>1338.2</ele>
        <time>2019-04-28T08:44:22Z</time>
      </trkpt>
      <trkpt lat="40.7607850" lon="-4.0724760">
        <ele>1338.2</ele>
        <time>2019-04-28T08:44:23Z</time>
      </trkpt>
      <trkpt lat="40.7607660" lon="-4.0724950">
        <ele>1338.2</ele>
        <time>2019-04-28T08:44:24Z</time>
      </trkpt>
      <trkpt lat="40.7607440" lon="-4.0725170">
        <ele>1338.2</ele>
        <time>2019-04-28T08:44:25Z</time>
      </trkpt>
      <trkpt lat="40.7607200" lon="-4.0725450">
        <ele>1337.6</ele>
        <time>2019-04-28T08:44:26Z</time>
      </trkpt>
      <trkpt lat="40.7606930" lon="-4.0725820">
        <ele>1337.6</ele>
        <time>2019-04-28T08:44:27Z</time>
      </trkpt>
      <trkpt lat="40.7606640" lon="-4.0726120">
        <ele>1337.6</ele>
        <time>2019-04-28T08:44:28Z</time>
      </trkpt>
      <trkpt lat="40.7606360" lon="-4.0726380">
        <ele>1337.6</ele>
        <time>2019-04-28T08:44:29Z</time>
      </trkpt>
      <trkpt lat="40.7605860" lon="-4.0726790">
        <ele>1339.6</ele>
        <time>2019-04-28T08:44:30Z</time>
      </trkpt>
      <trkpt lat="40.7605530" lon="-4.0727300">
        <ele>1339.6</ele>
        <time>2019-04-28T08:44:31Z</time>
      </trkpt>
      <trkpt lat="40.7605090" lon="-4.0727820">
        <ele>1339.6</ele>
        <time>2019-04-28T08:44:32Z</time>
      </trkpt>
      <trkpt lat="40.7604000" lon="-4.0728970">
        <ele>1339.6</ele>
        <time>2019-04-28T08:44:34Z</time>
      </trkpt>
      <trkpt lat="40.7603430" lon="-4.0729610">
        <ele>1339.6</ele>
        <time>2019-04-28T08:44:35Z</time>
      </trkpt>
      <trkpt lat="40.7602850" lon="-4.0730280">
        <ele>1335.0</ele>
        <time>2019-04-28T08:44:36Z</time>
      </trkpt>
      <trkpt lat="40.7601870" lon="-4.0731690">
        <ele>1334.4</ele>
        <time>2019-04-28T08:44:38Z</time>
      </trkpt>
      <trkpt lat="40.7601600" lon="-4.0732490">
        <ele>1334.0</ele>
        <time>2019-04-28T08:44:40Z</time>
      </trkpt>
      <trkpt lat="40.7601190" lon="-4.0734970">
        <ele>1334.2</ele>
        <time>2019-04-28T08:44:42Z</time>
      </trkpt>
      <trkpt lat="40.7601050" lon="-4.0735690">
        <ele>1334.4</ele>
        <time>2019-04-28T08:44:43Z</time>
      </trkpt>
      <trkpt lat="40.7600960" lon="-4.0736400">
        <ele>1334.6</ele>
        <time>2019-04-28T08:44:44Z</time>
      </trkpt>
      <trkpt lat="40.7600990" lon="-4.0737530">
        <ele>1334.8</ele>
        <time>2019-04-28T08:44:46Z</time>
      </trkpt>
      <trkpt lat="40.7601080" lon="-4.0738320">
        <ele>1335.2</ele>
        <time>2019-04-28T08:44:48Z</time>
      </trkpt>
      <trkpt lat="40.7601080" lon="-4.0739080">
        <ele>1335.2</ele>
        <time>2019-04-28T08:44:50Z</time>
      </trkpt>
      <trkpt lat="40.7601140" lon="-4.0739680">
        <ele>1336.2</ele>
        <time>2019-04-28T08:44:52Z</time>
      </trkpt>
      <trkpt lat="40.7601210" lon="-4.0740310">
        <ele>1336.0</ele>
        <time>2019-04-28T08:44:54Z</time>
      </trkpt>
      <trkpt lat="40.7601370" lon="-4.0740890">
        <ele>1336.2</ele>
        <time>2019-04-28T08:44:56Z</time>
      </trkpt>
      <trkpt lat="40.7601440" lon="-4.0741400">
        <ele>1336.6</ele>
        <time>2019-04-28T08:44:58Z</time>
      </trkpt>
      <trkpt lat="40.7601490" lon="-4.0741600">
        <ele>1337.0</ele>
        <time>2019-04-28T08:45:00Z</time>
      </trkpt>
      <trkpt lat="40.7601390" lon="-4.0741960">
        <ele>1337.2</ele>
        <time>2019-04-28T08:45:02Z</time>
      </trkpt>
      <trkpt lat="40.7601130" lon="-4.0742520">
        <ele>1337.2</ele>
        <time>2019-04-28T08:45:04Z</time>
      </trkpt>
      <trkpt lat="40.7600740" lon="-4.0743270">
        <ele>1337.4</ele>
        <time>2019-04-28T08:45:06Z</time>
      </trkpt>
      <trkpt lat="40.7600480" lon="-4.0743970">
        <ele>1337.6</ele>
        <time>2019-04-28T08:45:08Z</time>
      </trkpt>
      <trkpt lat="40.7600090" lon="-4.0744670">
        <ele>1338.0</ele>
        <time>2019-04-28T08:45:10Z</time>
      </trkpt>
      <trkpt lat="40.7599800" lon="-4.0745380">
        <ele>1338.4</ele>
        <time>2019-04-28T08:45:12Z</time>
      </trkpt>
      <trkpt lat="40.7599530" lon="-4.0746110">
        <ele>1338.8</ele>
        <time>2019-04-28T08:45:14Z</time>
      </trkpt>
      <trkpt lat="40.7599330" lon="-4.0746870">
        <ele>1339.2</ele>
        <time>2019-04-28T08:45:16Z</time>
      </trkpt>
      <trkpt lat="40.7599040" lon="-4.0747580">
        <ele>1339.6</ele>
        <time>2019-04-28T08:45:18Z</time>
      </trkpt>
      <trkpt lat="40.7598980" lon="-4.0747980">
        <ele>1340.0</ele>
        <time>2019-04-28T08:45:20Z</time>
      </trkpt>
      <trkpt lat="40.7598770" lon="-4.0748500">
        <ele>1340.2</ele>
        <time>2019-04-28T08:45:22Z</time>
      </trkpt>
      <trkpt lat="40.7598500" lon="-4.0749140">
        <ele>1340.6</ele>
        <time>2019-04-28T08:45:24Z</time>
      </trkpt>
      <trkpt lat="40.7598150" lon="-4.0749720">
        <ele>1341.2</ele>
        <time>2019-04-28T08:45:26Z</time>
      </trkpt>
      <trkpt lat="40.7597780" lon="-4.0750360">
        <ele>1341.8</ele>
        <time>2019-04-28T08:45:28Z</time>
      </trkpt>
      <trkpt lat="40.7597460" lon="-4.0750980">
        <ele>1342.0</ele>
        <time>2019-04-28T08:45:30Z</time>
      </trkpt>
      <trkpt lat="40.7597110" lon="-4.0751720">
        <ele>1342.4</ele>
        <time>2019-04-28T08:45:32Z</time>
      </trkpt>
      <trkpt lat="40.7596700" lon="-4.0752350">
        <ele>1343.0</ele>
        <time>2019-04-28T08:45:34Z</time>
      </trkpt>
      <trkpt lat="40.7596410" lon="-4.0752920">
        <ele>1343.4</ele>
        <time>2019-04-28T08:45:36Z</time>
      </trkpt>
      <trkpt lat="40.7596160" lon="-4.0753500">
        <ele>1343.4</ele>
        <time>2019-04-28T08:45:38Z</time>
      </trkpt>
      <trkpt lat="40.7595890" lon="-4.0754160">
        <ele>1343.8</ele>
        <time>2019-04-28T08:45:40Z</time>
      </trkpt>
      <trkpt lat="40.7595590" lon="-4.0754600">
        <ele>1344.2</ele>
        <time>2019-04-28T08:45:42Z</time>
      </trkpt>
      <trkpt lat="40.7595260" lon="-4.0755210">
        <ele>1344.6</ele>
        <time>2019-04-28T08:45:44Z</time>
      </trkpt>
      <trkpt lat="40.7594880" lon="-4.0755920">
        <ele>1344.6</ele>
        <time>2019-04-28T08:45:46Z</time>
      </trkpt>
      <trkpt lat="40.7594610" lon="-4.0756670">
        <ele>1345.0</ele>
        <time>2019-04-28T08:45:48Z</time>
      </trkpt>
      <trkpt lat="40.7594410" lon="-4.0757400">
        <ele>1345.2</ele>
        <time>2019-04-28T08:45:50Z</time>
      </trkpt>
      <trkpt lat="40.7593970" lon="-4.0758030">
        <ele>1345.6</ele>
        <time>2019-04-28T08:45:52Z</time>
      </trkpt>
      <trkpt lat="40.7593520" lon="-4.0758650">
        <ele>1345.6</ele>
        <time>2019-04-28T08:45:54Z</time>
      </trkpt>
      <trkpt lat="40.7593100" lon="-4.0759060">
        <ele>1346.0</ele>
        <time>2019-04-28T08:45:56Z</time>
      </trkpt>
      <trkpt lat="40.7592660" lon="-4.0759560">
        <ele>1346.0</ele>
        <time>2019-04-28T08:45:58Z</time>
      </trkpt>
      <trkpt lat="40.7592100" lon="-4.0760080">
        <ele>1346.2</ele>
        <time>2019-04-28T08:46:00Z</time>
      </trkpt>
      <trkpt lat="40.7591540" lon="-4.0760400">
        <ele>1346.4</ele>
        <time>2019-04-28T08:46:02Z</time>
      </trkpt>
      <trkpt lat="40.7590860" lon="-4.0760650">
        <ele>1346.2</ele>
        <time>2019-04-28T08:46:04Z</time>
      </trkpt>
      <trkpt lat="40.7589970" lon="-4.0761060">
        <ele>1346.0</ele>
        <time>2019-04-28T08:46:06Z</time>
      </trkpt>
      <trkpt lat="40.7589010" lon="-4.0761450">
        <ele>1345.8</ele>
        <time>2019-04-28T08:46:08Z</time>
      </trkpt>
      <trkpt lat="40.7588050" lon="-4.0761910">
        <ele>1345.6</ele>
        <time>2019-04-28T08:46:10Z</time>
      </trkpt>
      <trkpt lat="40.7587120" lon="-4.0762420">
        <ele>1345.2</ele>
        <time>2019-04-28T08:46:12Z</time>
      </trkpt>
      <trkpt lat="40.7586510" lon="-4.0763270">
        <ele>1345.2</ele>
        <time>2019-04-28T08:46:14Z</time>
      </trkpt>
      <trkpt lat="40.7586140" lon="-4.0764340">
        <ele>1344.6</ele>
        <time>2019-04-28T08:46:16Z</time>
      </trkpt>
      <trkpt lat="40.7585600" lon="-4.0765270">
        <ele>1344.6</ele>
        <time>2019-04-28T08:46:18Z</time>
      </trkpt>
      <trkpt lat="40.7585180" lon="-4.0766230">
        <ele>1344.2</ele>
        <time>2019-04-28T08:46:20Z</time>
      </trkpt>
      <trkpt lat="40.7584680" lon="-4.0767100">
        <ele>1344.4</ele>
        <time>2019-04-28T08:46:22Z</time>
      </trkpt>
      <trkpt lat="40.7584200" lon="-4.0767880">
        <ele>1344.4</ele>
        <time>2019-04-28T08:46:24Z</time>
      </trkpt>
      <trkpt lat="40.7583500" lon="-4.0768290">
        <ele>1344.6</ele>
        <time>2019-04-28T08:46:26Z</time>
      </trkpt>
      <trkpt lat="40.7583040" lon="-4.0768350">
        <ele>1344.6</ele>
        <time>2019-04-28T08:46:28Z</time>
      </trkpt>
      <trkpt lat="40.7582260" lon="-4.0768090">
        <ele>1344.6</ele>
        <time>2019-04-28T08:46:30Z</time>
      </trkpt>
      <trkpt lat="40.7581550" lon="-4.0767760">
        <ele>1344.6</ele>
        <time>2019-04-28T08:46:32Z</time>
      </trkpt>
      <trkpt lat="40.7580610" lon="-4.0767130">
        <ele>1344.6</ele>
        <time>2019-04-28T08:46:34Z</time>
      </trkpt>
      <trkpt lat="40.7579620" lon="-4.0766900">
        <ele>1344.6</ele>
        <time>2019-04-28T08:46:36Z</time>
      </trkpt>
      <trkpt lat="40.7578720" lon="-4.0766880">
        <ele>1344.8</ele>
        <time>2019-04-28T08:46:38Z</time>
      </trkpt>
      <trkpt lat="40.7578130" lon="-4.0766820">
        <ele>1344.6</ele>
        <time>2019-04-28T08:46:40Z</time>
      </trkpt>
      <trkpt lat="40.7577050" lon="-4.0766780">
        <ele>1344.6</ele>
        <time>2019-04-28T08:46:42Z</time>
      </trkpt>
      <trkpt lat="40.7575930" lon="-4.0766770">
        <ele>1344.2</ele>
        <time>2019-04-28T08:46:44Z</time>
      </trkpt>
      <trkpt lat="40.7574720" lon="-4.0766980">
        <ele>1344.0</ele>
        <time>2019-04-28T08:46:46Z</time>
      </trkpt>
      <trkpt lat="40.7573420" lon="-4.0767400">
        <ele>1343.8</ele>
        <time>2019-04-28T08:46:48Z</time>
      </trkpt>
      <trkpt lat="40.7572110" lon="-4.0767870">
        <ele>1343.4</ele>
        <time>2019-04-28T08:46:50Z</time>
      </trkpt>
      <trkpt lat="40.7571150" lon="-4.0768000">
        <ele>1343.0</ele>
        <time>2019-04-28T08:46:52Z</time>
      </trkpt>
      <trkpt lat="40.7570450" lon="-4.0768470">
        <ele>1342.8</ele>
        <time>2019-04-28T08:46:54Z</time>
      </trkpt>
      <trkpt lat="40.7569340" lon="-4.0768260">
        <ele>1342.6</ele>
        <time>2019-04-28T08:46:56Z</time>
      </trkpt>
      <trkpt lat="40.7568070" lon="-4.0767980">
        <ele>1342.0</ele>
        <time>2019-04-28T08:46:58Z</time>
      </trkpt>
      <trkpt lat="40.7566770" lon="-4.0767590">
        <ele>1341.6</ele>
        <time>2019-04-28T08:47:00Z</time>
      </trkpt>
      <trkpt lat="40.7565400" lon="-4.0767240">
        <ele>1341.0</ele>
        <time>2019-04-28T08:47:02Z</time>
      </trkpt>
      <trkpt lat="40.7563910" lon="-4.0766960">
        <ele>1340.4</ele>
        <time>2019-04-28T08:47:04Z</time>
      </trkpt>
      <trkpt lat="40.7562570" lon="-4.0766700">
        <ele>1339.8</ele>
        <time>2019-04-28T08:47:06Z</time>
      </trkpt>
      <trkpt lat="40.7561260" lon="-4.0766720">
        <ele>1338.8</ele>
        <time>2019-04-28T08:47:08Z</time>
      </trkpt>
      <trkpt lat="40.7559980" lon="-4.0767030">
        <ele>1337.4</ele>
        <time>2019-04-28T08:47:10Z</time>
      </trkpt>
      <trkpt lat="40.7559220" lon="-4.0766710">
        <ele>1335.8</ele>
        <time>2019-04-28T08:47:12Z</time>
      </trkpt>
      <trkpt lat="40.7558470" lon="-4.0765360">
        <ele>1334.0</ele>
        <time>2019-04-28T08:47:14Z</time>
      </trkpt>
      <trkpt lat="40.7557870" lon="-4.0763770">
        <ele>1332.8</ele>
        <time>2019-04-28T08:47:16Z</time>
      </trkpt>
      <trkpt lat="40.7556990" lon="-4.0762190">
        <ele>1331.4</ele>
        <time>2019-04-28T08:47:18Z</time>
      </trkpt>
      <trkpt lat="40.7555900" lon="-4.0760600">
        <ele>1329.8</ele>
        <time>2019-04-28T08:47:20Z</time>
      </trkpt>
      <trkpt lat="40.7554550" lon="-4.0759310">
        <ele>1328.6</ele>
        <time>2019-04-28T08:47:23Z</time>
      </trkpt>
      <trkpt lat="40.7553160" lon="-4.0758110">
        <ele>1327.8</ele>
        <time>2019-04-28T08:47:25Z</time>
      </trkpt>
      <trkpt lat="40.7551780" lon="-4.0757120">
        <ele>1327.4</ele>
        <time>2019-04-28T08:47:27Z</time>
      </trkpt>
      <trkpt lat="40.7549850" lon="-4.0755580">
        <ele>1327.2</ele>
        <time>2019-04-28T08:47:29Z</time>
      </trkpt>
      <trkpt lat="40.7549110" lon="-4.0755280">
        <ele>1326.8</ele>
        <time>2019-04-28T08:47:31Z</time>
      </trkpt>
      <trkpt lat="40.7547510" lon="-4.0755020">
        <ele>1326.8</ele>
        <time>2019-04-28T08:47:33Z</time>
      </trkpt>
      <trkpt lat="40.7545520" lon="-4.0754790">
        <ele>1326.4</ele>
        <time>2019-04-28T08:47:35Z</time>
      </trkpt>
      <trkpt lat="40.7544220" lon="-4.0754960">
        <ele>1326.0</ele>
        <time>2019-04-28T08:47:37Z</time>
      </trkpt>
      <trkpt lat="40.7544270" lon="-4.0755200">
        <ele>1324.8</ele>
        <time>2019-04-28T08:47:39Z</time>
      </trkpt>
      <trkpt lat="40.7542960" lon="-4.0755710">
        <ele>1323.4</ele>
        <time>2019-04-28T08:47:41Z</time>
      </trkpt>
      <trkpt lat="40.7541310" lon="-4.0757570">
        <ele>1321.8</ele>
        <time>2019-04-28T08:47:43Z</time>
      </trkpt>
      <trkpt lat="40.7540510" lon="-4.0758010">
        <ele>1320.6</ele>
        <time>2019-04-28T08:47:45Z</time>
      </trkpt>
      <trkpt lat="40.7536430" lon="-4.0759040">
        <ele>1320.2</ele>
        <time>2019-04-28T08:47:47Z</time>
      </trkpt>
      <trkpt lat="40.7532340" lon="-4.0760060">
        <ele>1318.6</ele>
        <time>2019-04-28T08:47:49Z</time>
      </trkpt>
      <trkpt lat="40.7530910" lon="-4.0762180">
        <ele>1316.8</ele>
        <time>2019-04-28T08:47:51Z</time>
      </trkpt>
      <trkpt lat="40.7529550" lon="-4.0763790">
        <ele>1315.6</ele>
        <time>2019-04-28T08:47:52Z</time>
      </trkpt>
      <trkpt lat="40.7528380" lon="-4.0765360">
        <ele>1314.6</ele>
        <time>2019-04-28T08:47:54Z</time>
      </trkpt>
      <trkpt lat="40.7527640" lon="-4.0767460">
        <ele>1313.0</ele>
        <time>2019-04-28T08:47:56Z</time>
      </trkpt>
      <trkpt lat="40.7527100" lon="-4.0769900">
        <ele>1311.6</ele>
        <time>2019-04-28T08:47:58Z</time>
      </trkpt>
      <trkpt lat="40.7526500" lon="-4.0772320">
        <ele>1311.6</ele>
        <time>2019-04-28T08:48:00Z</time>
      </trkpt>
      <trkpt lat="40.7525910" lon="-4.0774230">
        <ele>1311.6</ele>
        <time>2019-04-28T08:48:02Z</time>
      </trkpt>
      <trkpt lat="40.7524860" lon="-4.0775020">
        <ele>1306.4</ele>
        <time>2019-04-28T08:48:04Z</time>
      </trkpt>
      <trkpt lat="40.7523810" lon="-4.0774700">
        <ele>1306.4</ele>
        <time>2019-04-28T08:48:06Z</time>
      </trkpt>
      <trkpt lat="40.7523000" lon="-4.0774250">
        <ele>1306.8</ele>
        <time>2019-04-28T08:48:08Z</time>
      </trkpt>
      <trkpt lat="40.7521990" lon="-4.0773680">
        <ele>1307.6</ele>
        <time>2019-04-28T08:48:10Z</time>
      </trkpt>
      <trkpt lat="40.7521000" lon="-4.0773040">
        <ele>1308.2</ele>
        <time>2019-04-28T08:48:12Z</time>
      </trkpt>
      <trkpt lat="40.7520340" lon="-4.0772400">
        <ele>1308.4</ele>
        <time>2019-04-28T08:48:14Z</time>
      </trkpt>
      <trkpt lat="40.7519330" lon="-4.0772010">
        <ele>1309.0</ele>
        <time>2019-04-28T08:48:16Z</time>
      </trkpt>
      <trkpt lat="40.7518520" lon="-4.0771410">
        <ele>1309.4</ele>
        <time>2019-04-28T08:48:18Z</time>
      </trkpt>
      <trkpt lat="40.7517390" lon="-4.0770860">
        <ele>1310.4</ele>
        <time>2019-04-28T08:48:20Z</time>
      </trkpt>
      <trkpt lat="40.7516230" lon="-4.0770260">
        <ele>1310.6</ele>
        <time>2019-04-28T08:48:22Z</time>
      </trkpt>
      <trkpt lat="40.7515100" lon="-4.0769890">
        <ele>1310.8</ele>
        <time>2019-04-28T08:48:24Z</time>
      </trkpt>
      <trkpt lat="40.7513930" lon="-4.0769250">
        <ele>1310.8</ele>
        <time>2019-04-28T08:48:26Z</time>
      </trkpt>
      <trkpt lat="40.7512630" lon="-4.0768670">
        <ele>1311.0</ele>
        <time>2019-04-28T08:48:28Z</time>
      </trkpt>
      <trkpt lat="40.7511600" lon="-4.0768140">
        <ele>1311.2</ele>
        <time>2019-04-28T08:48:30Z</time>
      </trkpt>
      <trkpt lat="40.7510570" lon="-4.0767840">
        <ele>1311.6</ele>
        <time>2019-04-28T08:48:32Z</time>
      </trkpt>
      <trkpt lat="40.7509510" lon="-4.0767780">
        <ele>1312.0</ele>
        <time>2019-04-28T08:48:34Z</time>
      </trkpt>
      <trkpt lat="40.7508650" lon="-4.0767960">
        <ele>1312.6</ele>
        <time>2019-04-28T08:48:36Z</time>
      </trkpt>
      <trkpt lat="40.7507830" lon="-4.0768030">
        <ele>1313.0</ele>
        <time>2019-04-28T08:48:38Z</time>
      </trkpt>
      <trkpt lat="40.7506870" lon="-4.0767910">
        <ele>1314.4</ele>
        <time>2019-04-28T08:48:40Z</time>
      </trkpt>
      <trkpt lat="40.7506070" lon="-4.0767760">
        <ele>1315.2</ele>
        <time>2019-04-28T08:48:42Z</time>
      </trkpt>
      <trkpt lat="40.7505300" lon="-4.0767430">
        <ele>1316.0</ele>
        <time>2019-04-28T08:48:44Z</time>
      </trkpt>
      <trkpt lat="40.7504500" lon="-4.0767260">
        <ele>1317.0</ele>
        <time>2019-04-28T08:48:46Z</time>
      </trkpt>
      <trkpt lat="40.7503900" lon="-4.0766980">
        <ele>1317.8</ele>
        <time>2019-04-28T08:48:48Z</time>
      </trkpt>
      <trkpt lat="40.7503130" lon="-4.0766640">
        <ele>1318.6</ele>
        <time>2019-04-28T08:48:50Z</time>
      </trkpt>
      <trkpt lat="40.7502400" lon="-4.0766420">
        <ele>1319.4</ele>
        <time>2019-04-28T08:48:52Z</time>
      </trkpt>
      <trkpt lat="40.7501790" lon="-4.0766490">
        <ele>1320.2</ele>
        <time>2019-04-28T08:48:54Z</time>
      </trkpt>
      <trkpt lat="40.7501030" lon="-4.0766170">
        <ele>1320.6</ele>
        <time>2019-04-28T08:48:56Z</time>
      </trkpt>
      <trkpt lat="40.7500490" lon="-4.0766020">
        <ele>1321.0</ele>
        <time>2019-04-28T08:48:58Z</time>
      </trkpt>
      <trkpt lat="40.7499670" lon="-4.0765920">
        <ele>1321.4</ele>
        <time>2019-04-28T08:49:00Z</time>
      </trkpt>
      <trkpt lat="40.7498880" lon="-4.0765710">
        <ele>1321.6</ele>
        <time>2019-04-28T08:49:02Z</time>
      </trkpt>
      <trkpt lat="40.7498090" lon="-4.0765580">
        <ele>1321.8</ele>
        <time>2019-04-28T08:49:04Z</time>
      </trkpt>
      <trkpt lat="40.7497290" lon="-4.0765550">
        <ele>1322.0</ele>
        <time>2019-04-28T08:49:06Z</time>
      </trkpt>
      <trkpt lat="40.7496440" lon="-4.0765560">
        <ele>1322.4</ele>
        <time>2019-04-28T08:49:08Z</time>
      </trkpt>
      <trkpt lat="40.7495580" lon="-4.0765860">
        <ele>1322.6</ele>
        <time>2019-04-28T08:49:10Z</time>
      </trkpt>
      <trkpt lat="40.7494920" lon="-4.0766210">
        <ele>1323.0</ele>
        <time>2019-04-28T08:49:12Z</time>
      </trkpt>
      <trkpt lat="40.7494450" lon="-4.0766460">
        <ele>1323.0</ele>
        <time>2019-04-28T08:49:14Z</time>
      </trkpt>
      <trkpt lat="40.7493420" lon="-4.0766500">
        <ele>1323.0</ele>
        <time>2019-04-28T08:49:16Z</time>
      </trkpt>
      <trkpt lat="40.7492520" lon="-4.0766650">
        <ele>1323.0</ele>
        <time>2019-04-28T08:49:18Z</time>
      </trkpt>
      <trkpt lat="40.7491620" lon="-4.0766800">
        <ele>1323.4</ele>
        <time>2019-04-28T08:49:20Z</time>
      </trkpt>
      <trkpt lat="40.7490430" lon="-4.0766740">
        <ele>1323.6</ele>
        <time>2019-04-28T08:49:22Z</time>
      </trkpt>
      <trkpt lat="40.7489460" lon="-4.0766750">
        <ele>1323.8</ele>
        <time>2019-04-28T08:49:24Z</time>
      </trkpt>
      <trkpt lat="40.7488650" lon="-4.0766550">
        <ele>1324.0</ele>
        <time>2019-04-28T08:49:26Z</time>
      </trkpt>
      <trkpt lat="40.7487770" lon="-4.0766470">
        <ele>1324.6</ele>
        <time>2019-04-28T08:49:28Z</time>
      </trkpt>
      <trkpt lat="40.7487350" lon="-4.0766480">
        <ele>1324.8</ele>
        <time>2019-04-28T08:49:29Z</time>
      </trkpt>
      <trkpt lat="40.7487000" lon="-4.0766470">
        <ele>1324.8</ele>
        <time>2019-04-28T08:49:30Z</time>
      </trkpt>
      <trkpt lat="40.7486180" lon="-4.0766430">
        <ele>1325.2</ele>
        <time>2019-04-28T08:49:32Z</time>
      </trkpt>
      <trkpt lat="40.7485360" lon="-4.0766440">
        <ele>1325.2</ele>
        <time>2019-04-28T08:49:34Z</time>
      </trkpt>
      <trkpt lat="40.7484580" lon="-4.0766450">
        <ele>1325.2</ele>
        <time>2019-04-28T08:49:36Z</time>
      </trkpt>
      <trkpt lat="40.7483770" lon="-4.0766630">
        <ele>1325.0</ele>
        <time>2019-04-28T08:49:38Z</time>
      </trkpt>
      <trkpt lat="40.7483360" lon="-4.0766710">
        <ele>1325.0</ele>
        <time>2019-04-28T08:49:39Z</time>
      </trkpt>
      <trkpt lat="40.7483010" lon="-4.0766860">
        <ele>1325.0</ele>
        <time>2019-04-28T08:49:40Z</time>
      </trkpt>
      <trkpt lat="40.7482150" lon="-4.0767260">
        <ele>1324.6</ele>
        <time>2019-04-28T08:49:42Z</time>
      </trkpt>
      <trkpt lat="40.7481280" lon="-4.0767750">
        <ele>1324.2</ele>
        <time>2019-04-28T08:49:44Z</time>
      </trkpt>
      <trkpt lat="40.7480550" lon="-4.0768440">
        <ele>1324.0</ele>
        <time>2019-04-28T08:49:46Z</time>
      </trkpt>
      <trkpt lat="40.7479920" lon="-4.0769150">
        <ele>1324.0</ele>
        <time>2019-04-28T08:49:48Z</time>
      </trkpt>
      <trkpt lat="40.7479340" lon="-4.0769810">
        <ele>1324.2</ele>
        <time>2019-04-28T08:49:50Z</time>
      </trkpt>
      <trkpt lat="40.7478940" lon="-4.0770320">
        <ele>1324.6</ele>
        <time>2019-04-28T08:49:52Z</time>
      </trkpt>
      <trkpt lat="40.7478540" lon="-4.0770830">
        <ele>1325.0</ele>
        <time>2019-04-28T08:49:54Z</time>
      </trkpt>
      <trkpt lat="40.7478240" lon="-4.0771550">
        <ele>1325.2</ele>
        <time>2019-04-28T08:49:56Z</time>
      </trkpt>
      <trkpt lat="40.7477890" lon="-4.0772240">
        <ele>1325.4</ele>
        <time>2019-04-28T08:49:58Z</time>
      </trkpt>
      <trkpt lat="40.7477310" lon="-4.0773070">
        <ele>1325.6</ele>
        <time>2019-04-28T08:50:00Z</time>
      </trkpt>
      <trkpt lat="40.7476750" lon="-4.0773960">
        <ele>1326.0</ele>
        <time>2019-04-28T08:50:02Z</time>
      </trkpt>
      <trkpt lat="40.7476250" lon="-4.0774820">
        <ele>1326.2</ele>
        <time>2019-04-28T08:50:04Z</time>
      </trkpt>
      <trkpt lat="40.7475780" lon="-4.0775580">
        <ele>1326.6</ele>
        <time>2019-04-28T08:50:06Z</time>
      </trkpt>
      <trkpt lat="40.7475290" lon="-4.0776350">
        <ele>1327.0</ele>
        <time>2019-04-28T08:50:08Z</time>
      </trkpt>
      <trkpt lat="40.7474990" lon="-4.0777140">
        <ele>1327.0</ele>
        <time>2019-04-28T08:50:10Z</time>
      </trkpt>
      <trkpt lat="40.7474540" lon="-4.0777940">
        <ele>1327.4</ele>
        <time>2019-04-28T08:50:12Z</time>
      </trkpt>
      <trkpt lat="40.7474200" lon="-4.0778840">
        <ele>1327.8</ele>
        <time>2019-04-28T08:50:14Z</time>
      </trkpt>
      <trkpt lat="40.7473940" lon="-4.0779680">
        <ele>1328.6</ele>
        <time>2019-04-28T08:50:16Z</time>
      </trkpt>
      <trkpt lat="40.7473830" lon="-4.0780370">
        <ele>1329.2</ele>
        <time>2019-04-28T08:50:18Z</time>
      </trkpt>
      <trkpt lat="40.7473510" lon="-4.0781170">
        <ele>1329.8</ele>
        <time>2019-04-28T08:50:20Z</time>
      </trkpt>
      <trkpt lat="40.7473040" lon="-4.0781990">
        <ele>1330.4</ele>
        <time>2019-04-28T08:50:22Z</time>
      </trkpt>
      <trkpt lat="40.7472660" lon="-4.0782720">
        <ele>1331.0</ele>
        <time>2019-04-28T08:50:24Z</time>
      </trkpt>
      <trkpt lat="40.7472250" lon="-4.0783410">
        <ele>1331.4</ele>
        <time>2019-04-28T08:50:27Z</time>
      </trkpt>
      <trkpt lat="40.7471820" lon="-4.0784150">
        <ele>1331.8</ele>
        <time>2019-04-28T08:50:28Z</time>
      </trkpt>
      <trkpt lat="40.7471380" lon="-4.0784950">
        <ele>1332.4</ele>
        <time>2019-04-28T08:50:30Z</time>
      </trkpt>
      <trkpt lat="40.7470950" lon="-4.0785880">
        <ele>1332.6</ele>
        <time>2019-04-28T08:50:32Z</time>
      </trkpt>
      <trkpt lat="40.7470510" lon="-4.0786550">
        <ele>1333.0</ele>
        <time>2019-04-28T08:50:34Z</time>
      </trkpt>
      <trkpt lat="40.7470190" lon="-4.0787180">
        <ele>1333.2</ele>
        <time>2019-04-28T08:50:36Z</time>
      </trkpt>
      <trkpt lat="40.7469900" lon="-4.0788100">
        <ele>1333.0</ele>
        <time>2019-04-28T08:50:38Z</time>
      </trkpt>
      <trkpt lat="40.7469430" lon="-4.0788540">
        <ele>1333.0</ele>
        <time>2019-04-28T08:50:40Z</time>
      </trkpt>
      <trkpt lat="40.7468530" lon="-4.0788360">
        <ele>1333.8</ele>
        <time>2019-04-28T08:50:42Z</time>
      </trkpt>
      <trkpt lat="40.7467750" lon="-4.0788110">
        <ele>1334.6</ele>
        <time>2019-04-28T08:50:44Z</time>
      </trkpt>
      <trkpt lat="40.7466900" lon="-4.0788020">
        <ele>1334.8</ele>
        <time>2019-04-28T08:50:46Z</time>
      </trkpt>
      <trkpt lat="40.7466120" lon="-4.0788050">
        <ele>1334.8</ele>
        <time>2019-04-28T08:50:48Z</time>
      </trkpt>
      <trkpt lat="40.7465550" lon="-4.0788100">
        <ele>1334.4</ele>
        <time>2019-04-28T08:50:50Z</time>
      </trkpt>
      <trkpt lat="40.7464690" lon="-4.0787950">
        <ele>1334.4</ele>
        <time>2019-04-28T08:50:52Z</time>
      </trkpt>
      <trkpt lat="40.7463820" lon="-4.0787710">
        <ele>1334.6</ele>
        <time>2019-04-28T08:50:54Z</time>
      </trkpt>
      <trkpt lat="40.7462940" lon="-4.0787490">
        <ele>1334.8</ele>
        <time>2019-04-28T08:50:56Z</time>
      </trkpt>
      <trkpt lat="40.7462200" lon="-4.0787320">
        <ele>1335.2</ele>
        <time>2019-04-28T08:50:58Z</time>
      </trkpt>
      <trkpt lat="40.7461420" lon="-4.0787190">
        <ele>1335.4</ele>
        <time>2019-04-28T08:51:00Z</time>
      </trkpt>
      <trkpt lat="40.7460610" lon="-4.0787110">
        <ele>1335.6</ele>
        <time>2019-04-28T08:51:02Z</time>
      </trkpt>
      <trkpt lat="40.7459800" lon="-4.0787080">
        <ele>1335.8</ele>
        <time>2019-04-28T08:51:04Z</time>
      </trkpt>
      <trkpt lat="40.7458910" lon="-4.0787070">
        <ele>1335.6</ele>
        <time>2019-04-28T08:51:06Z</time>
      </trkpt>
      <trkpt lat="40.7457920" lon="-4.0787450">
        <ele>1335.2</ele>
        <time>2019-04-28T08:51:08Z</time>
      </trkpt>
      <trkpt lat="40.7457140" lon="-4.0787750">
        <ele>1335.2</ele>
        <time>2019-04-28T08:51:10Z</time>
      </trkpt>
      <trkpt lat="40.7456120" lon="-4.0788010">
        <ele>1335.0</ele>
        <time>2019-04-28T08:51:12Z</time>
      </trkpt>
      <trkpt lat="40.7455460" lon="-4.0788220">
        <ele>1334.8</ele>
        <time>2019-04-28T08:51:14Z</time>
      </trkpt>
      <trkpt lat="40.7454390" lon="-4.0788540">
        <ele>1334.6</ele>
        <time>2019-04-28T08:51:16Z</time>
      </trkpt>
      <trkpt lat="40.7453340" lon="-4.0788930">
        <ele>1334.8</ele>
        <time>2019-04-28T08:51:18Z</time>
      </trkpt>
      <trkpt lat="40.7452300" lon="-4.0789280">
        <ele>1334.8</ele>
        <time>2019-04-28T08:51:20Z</time>
      </trkpt>
      <trkpt lat="40.7451430" lon="-4.0789470">
        <ele>1335.0</ele>
        <time>2019-04-28T08:51:22Z</time>
      </trkpt>
      <trkpt lat="40.7450770" lon="-4.0790000">
        <ele>1335.2</ele>
        <time>2019-04-28T08:51:24Z</time>
      </trkpt>
      <trkpt lat="40.7449840" lon="-4.0790130">
        <ele>1335.0</ele>
        <time>2019-04-28T08:51:26Z</time>
      </trkpt>
      <trkpt lat="40.7448860" lon="-4.0789960">
        <ele>1335.4</ele>
        <time>2019-04-28T08:51:28Z</time>
      </trkpt>
      <trkpt lat="40.7447950" lon="-4.0789770">
        <ele>1336.4</ele>
        <time>2019-04-28T08:51:30Z</time>
      </trkpt>
      <trkpt lat="40.7446940" lon="-4.0789790">
        <ele>1337.2</ele>
        <time>2019-04-28T08:51:32Z</time>
      </trkpt>
      <trkpt lat="40.7446520" lon="-4.0789820">
        <ele>1337.6</ele>
        <time>2019-04-28T08:51:33Z</time>
      </trkpt>
      <trkpt lat="40.7446170" lon="-4.0789940">
        <ele>1337.6</ele>
        <time>2019-04-28T08:51:34Z</time>
      </trkpt>
      <trkpt lat="40.7445440" lon="-4.0790200">
        <ele>1337.6</ele>
        <time>2019-04-28T08:51:36Z</time>
      </trkpt>
      <trkpt lat="40.7445120" lon="-4.0790370">
        <ele>1337.8</ele>
        <time>2019-04-28T08:51:37Z</time>
      </trkpt>
      <trkpt lat="40.7444730" lon="-4.0790600">
        <ele>1338.0</ele>
        <time>2019-04-28T08:51:38Z</time>
      </trkpt>
      <trkpt lat="40.7443910" lon="-4.0791140">
        <ele>1338.4</ele>
        <time>2019-04-28T08:51:40Z</time>
      </trkpt>
      <trkpt lat="40.7443200" lon="-4.0791730">
        <ele>1338.8</ele>
        <time>2019-04-28T08:51:42Z</time>
      </trkpt>
      <trkpt lat="40.7442400" lon="-4.0792180">
        <ele>1338.8</ele>
        <time>2019-04-28T08:51:44Z</time>
      </trkpt>
      <trkpt lat="40.7441880" lon="-4.0792320">
        <ele>1339.4</ele>
        <time>2019-04-28T08:51:45Z</time>
      </trkpt>
      <trkpt lat="40.7441360" lon="-4.0792400">
        <ele>1339.6</ele>
        <time>2019-04-28T08:51:46Z</time>
      </trkpt>
      <trkpt lat="40.7440540" lon="-4.0792460">
        <ele>1340.4</ele>
        <time>2019-04-28T08:51:48Z</time>
      </trkpt>
      <trkpt lat="40.7439910" lon="-4.0792490">
        <ele>1341.0</ele>
        <time>2019-04-28T08:51:50Z</time>
      </trkpt>
      <trkpt lat="40.7439130" lon="-4.0792550">
        <ele>1341.2</ele>
        <time>2019-04-28T08:51:52Z</time>
      </trkpt>
      <trkpt lat="40.7438750" lon="-4.0792640">
        <ele>1341.8</ele>
        <time>2019-04-28T08:51:53Z</time>
      </trkpt>
      <trkpt lat="40.7438360" lon="-4.0792770">
        <ele>1341.8</ele>
        <time>2019-04-28T08:51:54Z</time>
      </trkpt>
      <trkpt lat="40.7437650" lon="-4.0792990">
        <ele>1342.2</ele>
        <time>2019-04-28T08:51:56Z</time>
      </trkpt>
      <trkpt lat="40.7436970" lon="-4.0792980">
        <ele>1343.0</ele>
        <time>2019-04-28T08:51:58Z</time>
      </trkpt>
      <trkpt lat="40.7436390" lon="-4.0793100">
        <ele>1344.2</ele>
        <time>2019-04-28T08:52:00Z</time>
      </trkpt>
      <trkpt lat="40.7435940" lon="-4.0793350">
        <ele>1345.0</ele>
        <time>2019-04-28T08:52:02Z</time>
      </trkpt>
      <trkpt lat="40.7435690" lon="-4.0793410">
        <ele>1345.8</ele>
        <time>2019-04-28T08:52:03Z</time>
      </trkpt>
      <trkpt lat="40.7435410" lon="-4.0793480">
        <ele>1345.8</ele>
        <time>2019-04-28T08:52:04Z</time>
      </trkpt>
      <trkpt lat="40.7434700" lon="-4.0793570">
        <ele>1346.8</ele>
        <time>2019-04-28T08:52:06Z</time>
      </trkpt>
      <trkpt lat="40.7434370" lon="-4.0793560">
        <ele>1347.4</ele>
        <time>2019-04-28T08:52:07Z</time>
      </trkpt>
      <trkpt lat="40.7434060" lon="-4.0793580">
        <ele>1347.4</ele>
        <time>2019-04-28T08:52:08Z</time>
      </trkpt>
      <trkpt lat="40.7433510" lon="-4.0793800">
        <ele>1347.8</ele>
        <time>2019-04-28T08:52:10Z</time>
      </trkpt>
      <trkpt lat="40.7432870" lon="-4.0794050">
        <ele>1348.2</ele>
        <time>2019-04-28T08:52:12Z</time>
      </trkpt>
      <trkpt lat="40.7432210" lon="-4.0794250">
        <ele>1348.2</ele>
        <time>2019-04-28T08:52:14Z</time>
      </trkpt>
      <trkpt lat="40.7431510" lon="-4.0794430">
        <ele>1348.2</ele>
        <time>2019-04-28T08:52:16Z</time>
      </trkpt>
      <trkpt lat="40.7430770" lon="-4.0794520">
        <ele>1348.4</ele>
        <time>2019-04-28T08:52:18Z</time>
      </trkpt>
      <trkpt lat="40.7430370" lon="-4.0794550">
        <ele>1348.4</ele>
        <time>2019-04-28T08:52:19Z</time>
      </trkpt>
      <trkpt lat="40.7429960" lon="-4.0794570">
        <ele>1348.4</ele>
        <time>2019-04-28T08:52:20Z</time>
      </trkpt>
      <trkpt lat="40.7429130" lon="-4.0794550">
        <ele>1348.4</ele>
        <time>2019-04-28T08:52:22Z</time>
      </trkpt>
      <trkpt lat="40.7428330" lon="-4.0794500">
        <ele>1348.2</ele>
        <time>2019-04-28T08:52:24Z</time>
      </trkpt>
      <trkpt lat="40.7427410" lon="-4.0794590">
        <ele>1348.0</ele>
        <time>2019-04-28T08:52:26Z</time>
      </trkpt>
      <trkpt lat="40.7426530" lon="-4.0794680">
        <ele>1348.4</ele>
        <time>2019-04-28T08:52:28Z</time>
      </trkpt>
      <trkpt lat="40.7425740" lon="-4.0794780">
        <ele>1348.8</ele>
        <time>2019-04-28T08:52:30Z</time>
      </trkpt>
      <trkpt lat="40.7424920" lon="-4.0794950">
        <ele>1349.0</ele>
        <time>2019-04-28T08:52:32Z</time>
      </trkpt>
      <trkpt lat="40.7424140" lon="-4.0795210">
        <ele>1349.0</ele>
        <time>2019-04-28T08:52:34Z</time>
      </trkpt>
      <trkpt lat="40.7423350" lon="-4.0795470">
        <ele>1349.2</ele>
        <time>2019-04-28T08:52:36Z</time>
      </trkpt>
      <trkpt lat="40.7422640" lon="-4.0795700">
        <ele>1349.2</ele>
        <time>2019-04-28T08:52:38Z</time>
      </trkpt>
      <trkpt lat="40.7422010" lon="-4.0795800">
        <ele>1349.4</ele>
        <time>2019-04-28T08:52:40Z</time>
      </trkpt>
      <trkpt lat="40.7421430" lon="-4.0795630">
        <ele>1349.8</ele>
        <time>2019-04-28T08:52:42Z</time>
      </trkpt>
      <trkpt lat="40.7420750" lon="-4.0795280">
        <ele>1349.6</ele>
        <time>2019-04-28T08:52:44Z</time>
      </trkpt>
      <trkpt lat="40.7419880" lon="-4.0794570">
        <ele>1348.8</ele>
        <time>2019-04-28T08:52:46Z</time>
      </trkpt>
      <trkpt lat="40.7418870" lon="-4.0793410">
        <ele>1347.0</ele>
        <time>2019-04-28T08:52:48Z</time>
      </trkpt>
      <trkpt lat="40.7417310" lon="-4.0792310">
        <ele>1345.2</ele>
        <time>2019-04-28T08:52:50Z</time>
      </trkpt>
      <trkpt lat="40.7415670" lon="-4.0791370">
        <ele>1343.8</ele>
        <time>2019-04-28T08:52:52Z</time>
      </trkpt>
      <trkpt lat="40.7413730" lon="-4.0790410">
        <ele>1343.8</ele>
        <time>2019-04-28T08:52:54Z</time>
      </trkpt>
      <trkpt lat="40.7411790" lon="-4.0789570">
        <ele>1343.8</ele>
        <time>2019-04-28T08:52:56Z</time>
      </trkpt>
      <trkpt lat="40.7410220" lon="-4.0788250">
        <ele>1336.8</ele>
        <time>2019-04-28T08:52:58Z</time>
      </trkpt>
      <trkpt lat="40.7409270" lon="-4.0786460">
        <ele>1335.2</ele>
        <time>2019-04-28T08:53:00Z</time>
      </trkpt>
      <trkpt lat="40.7409010" lon="-4.0784550">
        <ele>1333.6</ele>
        <time>2019-04-28T08:53:02Z</time>
      </trkpt>
      <trkpt lat="40.7408460" lon="-4.0782800">
        <ele>1332.0</ele>
        <time>2019-04-28T08:53:04Z</time>
      </trkpt>
      <trkpt lat="40.7407220" lon="-4.0781480">
        <ele>1330.6</ele>
        <time>2019-04-28T08:53:06Z</time>
      </trkpt>
      <trkpt lat="40.7405460" lon="-4.0780850">
        <ele>1329.0</ele>
        <time>2019-04-28T08:53:08Z</time>
      </trkpt>
      <trkpt lat="40.7403770" lon="-4.0781330">
        <ele>1327.2</ele>
        <time>2019-04-28T08:53:10Z</time>
      </trkpt>
      <trkpt lat="40.7402040" lon="-4.0782040">
        <ele>1327.2</ele>
        <time>2019-04-28T08:53:12Z</time>
      </trkpt>
      <trkpt lat="40.7400310" lon="-4.0783620">
        <ele>1327.2</ele>
        <time>2019-04-28T08:53:14Z</time>
      </trkpt>
      <trkpt lat="40.7398780" lon="-4.0785670">
        <ele>1322.0</ele>
        <time>2019-04-28T08:53:16Z</time>
      </trkpt>
      <trkpt lat="40.7397220" lon="-4.0787750">
        <ele>1320.6</ele>
        <time>2019-04-28T08:53:18Z</time>
      </trkpt>
      <trkpt lat="40.7395930" lon="-4.0790010">
        <ele>1318.6</ele>
        <time>2019-04-28T08:53:20Z</time>
      </trkpt>
      <trkpt lat="40.7395490" lon="-4.0792600">
        <ele>1317.0</ele>
        <time>2019-04-28T08:53:22Z</time>
      </trkpt>
      <trkpt lat="40.7395340" lon="-4.0794890">
        <ele>1315.8</ele>
        <time>2019-04-28T08:53:24Z</time>
      </trkpt>
      <trkpt lat="40.7394110" lon="-4.0796420">
        <ele>1314.0</ele>
        <time>2019-04-28T08:53:26Z</time>
      </trkpt>
      <trkpt lat="40.7392110" lon="-4.0797150">
        <ele>1314.0</ele>
        <time>2019-04-28T08:53:28Z</time>
      </trkpt>
      <trkpt lat="40.7389980" lon="-4.0798030">
        <ele>1314.0</ele>
        <time>2019-04-28T08:53:30Z</time>
      </trkpt>
      <trkpt lat="40.7387470" lon="-4.0797940">
        <ele>1307.2</ele>
        <time>2019-04-28T08:53:33Z</time>
      </trkpt>
      <trkpt lat="40.7386890" lon="-4.0797320">
        <ele>1307.2</ele>
        <time>2019-04-28T08:53:34Z</time>
      </trkpt>
      <trkpt lat="40.7385610" lon="-4.0795560">
        <ele>1307.2</ele>
        <time>2019-04-28T08:53:36Z</time>
      </trkpt>
      <trkpt lat="40.7384250" lon="-4.0793470">
        <ele>1301.2</ele>
        <time>2019-04-28T08:53:38Z</time>
      </trkpt>
      <trkpt lat="40.7382860" lon="-4.0791140">
        <ele>1301.2</ele>
        <time>2019-04-28T08:53:40Z</time>
      </trkpt>
      <trkpt lat="40.7381430" lon="-4.0788640">
        <ele>1301.2</ele>
        <time>2019-04-28T08:53:42Z</time>
      </trkpt>
      <trkpt lat="40.7379910" lon="-4.0786120">
        <ele>1292.6</ele>
        <time>2019-04-28T08:53:44Z</time>
      </trkpt>
      <trkpt lat="40.7378140" lon="-4.0784030">
        <ele>1292.6</ele>
        <time>2019-04-28T08:53:46Z</time>
      </trkpt>
      <trkpt lat="40.7375890" lon="-4.0782820">
        <ele>1292.6</ele>
        <time>2019-04-28T08:53:48Z</time>
      </trkpt>
      <trkpt lat="40.7373500" lon="-4.0782240">
        <ele>1286.0</ele>
        <time>2019-04-28T08:53:50Z</time>
      </trkpt>
      <trkpt lat="40.7371090" lon="-4.0781650">
        <ele>1284.2</ele>
        <time>2019-04-28T08:53:52Z</time>
      </trkpt>
      <trkpt lat="40.7368800" lon="-4.0781170">
        <ele>1283.6</ele>
        <time>2019-04-28T08:53:54Z</time>
      </trkpt>
      <trkpt lat="40.7366510" lon="-4.0780900">
        <ele>1282.4</ele>
        <time>2019-04-28T08:53:56Z</time>
      </trkpt>
      <trkpt lat="40.7364490" lon="-4.0780470">
        <ele>1280.6</ele>
        <time>2019-04-28T08:53:58Z</time>
      </trkpt>
      <trkpt lat="40.7362730" lon="-4.0780180">
        <ele>1278.8</ele>
        <time>2019-04-28T08:54:00Z</time>
      </trkpt>
      <trkpt lat="40.7361190" lon="-4.0779200">
        <ele>1278.8</ele>
        <time>2019-04-28T08:54:02Z</time>
      </trkpt>
      <trkpt lat="40.7360110" lon="-4.0777320">
        <ele>1278.8</ele>
        <time>2019-04-28T08:54:04Z</time>
      </trkpt>
      <trkpt lat="40.7359140" lon="-4.0774800">
        <ele>1271.0</ele>
        <time>2019-04-28T08:54:06Z</time>
      </trkpt>
      <trkpt lat="40.7358070" lon="-4.0772100">
        <ele>1271.0</ele>
        <time>2019-04-28T08:54:08Z</time>
      </trkpt>
      <trkpt lat="40.7357060" lon="-4.0769460">
        <ele>1271.0</ele>
        <time>2019-04-28T08:54:10Z</time>
      </trkpt>
      <trkpt lat="40.7356330" lon="-4.0766830">
        <ele>1262.0</ele>
        <time>2019-04-28T08:54:12Z</time>
      </trkpt>
      <trkpt lat="40.7355980" lon="-4.0763980">
        <ele>1262.0</ele>
        <time>2019-04-28T08:54:14Z</time>
      </trkpt>
      <trkpt lat="40.7356210" lon="-4.0760900">
        <ele>1262.0</ele>
        <time>2019-04-28T08:54:16Z</time>
      </trkpt>
      <trkpt lat="40.7356750" lon="-4.0758180">
        <ele>1252.2</ele>
        <time>2019-04-28T08:54:18Z</time>
      </trkpt>
      <trkpt lat="40.7357730" lon="-4.0755970">
        <ele>1252.2</ele>
        <time>2019-04-28T08:54:21Z</time>
      </trkpt>
      <trkpt lat="40.7359200" lon="-4.0754380">
        <ele>1252.2</ele>
        <time>2019-04-28T08:54:23Z</time>
      </trkpt>
      <trkpt lat="40.7360580" lon="-4.0753240">
        <ele>1244.8</ele>
        <time>2019-04-28T08:54:25Z</time>
      </trkpt>
      <trkpt lat="40.7361540" lon="-4.0752200">
        <ele>1242.8</ele>
        <time>2019-04-28T08:54:27Z</time>
      </trkpt>
      <trkpt lat="40.7361740" lon="-4.0750440">
        <ele>1241.0</ele>
        <time>2019-04-28T08:54:29Z</time>
      </trkpt>
      <trkpt lat="40.7361410" lon="-4.0749990">
        <ele>1239.6</ele>
        <time>2019-04-28T08:54:31Z</time>
      </trkpt>
      <trkpt lat="40.7360430" lon="-4.0748590">
        <ele>1237.8</ele>
        <time>2019-04-28T08:54:33Z</time>
      </trkpt>
      <trkpt lat="40.7360190" lon="-4.0748220">
        <ele>1236.2</ele>
        <time>2019-04-28T08:54:35Z</time>
      </trkpt>
      <trkpt lat="40.7359330" lon="-4.0747270">
        <ele>1234.8</ele>
        <time>2019-04-28T08:54:37Z</time>
      </trkpt>
      <trkpt lat="40.7359050" lon="-4.0746840">
        <ele>1233.6</ele>
        <time>2019-04-28T08:54:39Z</time>
      </trkpt>
      <trkpt lat="40.7358400" lon="-4.0745030">
        <ele>1232.2</ele>
        <time>2019-04-28T08:54:41Z</time>
      </trkpt>
      <trkpt lat="40.7358410" lon="-4.0744270">
        <ele>1231.0</ele>
        <time>2019-04-28T08:54:43Z</time>
      </trkpt>
      <trkpt lat="40.7358670" lon="-4.0742200">
        <ele>1229.2</ele>
        <time>2019-04-28T08:54:45Z</time>
      </trkpt>
      <trkpt lat="40.7358900" lon="-4.0739800">
        <ele>1229.2</ele>
        <time>2019-04-28T08:54:47Z</time>
      </trkpt>
      <trkpt lat="40.7358950" lon="-4.0737260">
        <ele>1229.2</ele>
        <time>2019-04-28T08:54:49Z</time>
      </trkpt>
      <trkpt lat="40.7358430" lon="-4.0735480">
        <ele>1222.4</ele>
        <time>2019-04-28T08:54:51Z</time>
      </trkpt>
      <trkpt lat="40.7357440" lon="-4.0733150">
        <ele>1222.4</ele>
        <time>2019-04-28T08:54:53Z</time>
      </trkpt>
      <trkpt lat="40.7357300" lon="-4.0732360">
        <ele>1222.4</ele>
        <time>2019-04-28T08:54:55Z</time>
      </trkpt>
      <trkpt lat="40.7357350" lon="-4.0731180">
        <ele>1215.6</ele>
        <time>2019-04-28T08:54:57Z</time>
      </trkpt>
      <trkpt lat="40.7357520" lon="-4.0730470">
        <ele>1214.8</ele>
        <time>2019-04-28T08:54:59Z</time>
      </trkpt>
      <trkpt lat="40.7357690" lon="-4.0730020">
        <ele>1214.2</ele>
        <time>2019-04-28T08:55:01Z</time>
      </trkpt>
      <trkpt lat="40.7357740" lon="-4.0729920">
        <ele>1214.0</ele>
        <time>2019-04-28T08:55:03Z</time>
      </trkpt>
      <trkpt lat="40.7357750" lon="-4.0729850">
        <ele>1213.8</ele>
        <time>2019-04-28T08:55:05Z</time>
      </trkpt>
      <trkpt lat="40.7357770" lon="-4.0729780">
        <ele>1213.8</ele>
        <time>2019-04-28T08:55:07Z</time>
      </trkpt>
      <trkpt lat="40.7357810" lon="-4.0729720">
        <ele>1214.0</ele>
        <time>2019-04-28T08:55:09Z</time>
      </trkpt>
      <trkpt lat="40.7357840" lon="-4.0729630">
        <ele>1213.8</ele>
        <time>2019-04-28T08:55:11Z</time>
      </trkpt>
      <trkpt lat="40.7357860" lon="-4.0729560">
        <ele>1213.8</ele>
        <time>2019-04-28T08:55:13Z</time>
      </trkpt>
      <trkpt lat="40.7357870" lon="-4.0729490">
        <ele>1214.0</ele>
        <time>2019-04-28T08:55:15Z</time>
      </trkpt>
      <trkpt lat="40.7355640" lon="-4.0723580">
        <ele>1210.6</ele>
        <time>2019-04-28T08:55:37Z</time>
      </trkpt>
      <trkpt lat="40.7355580" lon="-4.0722970">
        <ele>1204.8</ele>
        <time>2019-04-28T08:55:39Z</time>
      </trkpt>
      <trkpt lat="40.7355560" lon="-4.0721840">
        <ele>1203.8</ele>
        <time>2019-04-28T08:55:41Z</time>
      </trkpt>
      <trkpt lat="40.7355670" lon="-4.0719960">
        <ele>1203.0</ele>
        <time>2019-04-28T08:55:43Z</time>
      </trkpt>
      <trkpt lat="40.7355770" lon="-4.0719410">
        <ele>1202.0</ele>
        <time>2019-04-28T08:55:45Z</time>
      </trkpt>
      <trkpt lat="40.7356060" lon="-4.0718480">
        <ele>1201.4</ele>
        <time>2019-04-28T08:55:47Z</time>
      </trkpt>
      <trkpt lat="40.7356610" lon="-4.0716820">
        <ele>1200.8</ele>
        <time>2019-04-28T08:55:49Z</time>
      </trkpt>
      <trkpt lat="40.7356580" lon="-4.0716450">
        <ele>1200.4</ele>
        <time>2019-04-28T08:55:51Z</time>
      </trkpt>
      <trkpt lat="40.7356230" lon="-4.0715350">
        <ele>1199.4</ele>
        <time>2019-04-28T08:55:53Z</time>
      </trkpt>
      <trkpt lat="40.7355570" lon="-4.0714520">
        <ele>1198.4</ele>
        <time>2019-04-28T08:55:55Z</time>
      </trkpt>
      <trkpt lat="40.7355430" lon="-4.0714230">
        <ele>1197.6</ele>
        <time>2019-04-28T08:55:57Z</time>
      </trkpt>
      <trkpt lat="40.7355420" lon="-4.0714150">
        <ele>1197.4</ele>
        <time>2019-04-28T08:55:59Z</time>
      </trkpt>
      <trkpt lat="40.7355390" lon="-4.0713910">
        <ele>1197.2</ele>
        <time>2019-04-28T08:56:01Z</time>
      </trkpt>
      <trkpt lat="40.7355370" lon="-4.0713710">
        <ele>1197.2</ele>
        <time>2019-04-28T08:56:03Z</time>
      </trkpt>
      <trkpt lat="40.7355370" lon="-4.0713650">
        <ele>1197.2</ele>
        <time>2019-04-28T08:56:05Z</time>
      </trkpt>
      <trkpt lat="40.7355370" lon="-4.0713640">
        <ele>1197.2</ele>
        <time>2019-04-28T08:56:07Z</time>
      </trkpt>
      <trkpt lat="40.7355380" lon="-4.0713560">
        <ele>1197.2</ele>
        <time>2019-04-28T08:56:09Z</time>
      </trkpt>
      <trkpt lat="40.7355170" lon="-4.0713320">
        <ele>1197.0</ele>
        <time>2019-04-28T08:56:11Z</time>
      </trkpt>
      <trkpt lat="40.7350690" lon="-4.0698990">
        <ele>1178.6</ele>
        <time>2019-04-28T08:56:43Z</time>
      </trkpt>
      <trkpt lat="40.7350240" lon="-4.0698530">
        <ele>1177.4</ele>
        <time>2019-04-28T08:56:45Z</time>
      </trkpt>
      <trkpt lat="40.7349930" lon="-4.0698290">
        <ele>1176.0</ele>
        <time>2019-04-28T08:56:47Z</time>
      </trkpt>
      <trkpt lat="40.7349730" lon="-4.0698170">
        <ele>1175.4</ele>
        <time>2019-04-28T08:56:49Z</time>
      </trkpt>
      <trkpt lat="40.7349250" lon="-4.0698490">
        <ele>1174.8</ele>
        <time>2019-04-28T08:56:51Z</time>
      </trkpt>
      <trkpt lat="40.7349250" lon="-4.0698690">
        <ele>1174.8</ele>
        <time>2019-04-28T08:56:53Z</time>
      </trkpt>
      <trkpt lat="40.7349290" lon="-4.0699250">
        <ele>1175.0</ele>
        <time>2019-04-28T08:56:55Z</time>
      </trkpt>
      <trkpt lat="40.7349230" lon="-4.0699440">
        <ele>1175.0</ele>
        <time>2019-04-28T08:56:57Z</time>
      </trkpt>
      <trkpt lat="40.7349050" lon="-4.0699900">
        <ele>1175.2</ele>
        <time>2019-04-28T08:56:59Z</time>
      </trkpt>
      <trkpt lat="40.7348840" lon="-4.0700500">
        <ele>1175.6</ele>
        <time>2019-04-28T08:57:01Z</time>
      </trkpt>
      <trkpt lat="40.7348400" lon="-4.0701290">
        <ele>1176.0</ele>
        <time>2019-04-28T08:57:03Z</time>
      </trkpt>
      <trkpt lat="40.7347920" lon="-4.0702020">
        <ele>1176.2</ele>
        <time>2019-04-28T08:57:05Z</time>
      </trkpt>
      <trkpt lat="40.7347470" lon="-4.0702750">
        <ele>1176.4</ele>
        <time>2019-04-28T08:57:07Z</time>
      </trkpt>
      <trkpt lat="40.7346950" lon="-4.0703340">
        <ele>1176.0</ele>
        <time>2019-04-28T08:57:09Z</time>
      </trkpt>
      <trkpt lat="40.7346210" lon="-4.0703740">
        <ele>1175.4</ele>
        <time>2019-04-28T08:57:11Z</time>
      </trkpt>
      <trkpt lat="40.7345430" lon="-4.0704130">
        <ele>1175.0</ele>
        <time>2019-04-28T08:57:13Z</time>
      </trkpt>
      <trkpt lat="40.7344870" lon="-4.0704060">
        <ele>1175.0</ele>
        <time>2019-04-28T08:57:15Z</time>
      </trkpt>
      <trkpt lat="40.7344050" lon="-4.0703980">
        <ele>1174.8</ele>
        <time>2019-04-28T08:57:17Z</time>
      </trkpt>
      <trkpt lat="40.7343180" lon="-4.0703910">
        <ele>1174.6</ele>
        <time>2019-04-28T08:57:19Z</time>
      </trkpt>
      <trkpt lat="40.7342050" lon="-4.0703850">
        <ele>1173.8</ele>
        <time>2019-04-28T08:57:21Z</time>
      </trkpt>
      <trkpt lat="40.7340780" lon="-4.0703840">
        <ele>1173.2</ele>
        <time>2019-04-28T08:57:23Z</time>
      </trkpt>
      <trkpt lat="40.7339510" lon="-4.0703780">
        <ele>1173.0</ele>
        <time>2019-04-28T08:57:25Z</time>
      </trkpt>
      <trkpt lat="40.7338050" lon="-4.0703740">
        <ele>1173.2</ele>
        <time>2019-04-28T08:57:27Z</time>
      </trkpt>
      <trkpt lat="40.7337470" lon="-4.0703760">
        <ele>1173.8</ele>
        <time>2019-04-28T08:57:29Z</time>
      </trkpt>
      <trkpt lat="40.7335900" lon="-4.0704140">
        <ele>1174.4</ele>
        <time>2019-04-28T08:57:31Z</time>
      </trkpt>
      <trkpt lat="40.7335390" lon="-4.0704370">
        <ele>1176.4</ele>
        <time>2019-04-28T08:57:33Z</time>
      </trkpt>
      <trkpt lat="40.7334330" lon="-4.0704920">
        <ele>1177.2</ele>
        <time>2019-04-28T08:57:35Z</time>
      </trkpt>
      <trkpt lat="40.7333300" lon="-4.0705450">
        <ele>1177.8</ele>
        <time>2019-04-28T08:57:37Z</time>
      </trkpt>
      <trkpt lat="40.7332380" lon="-4.0706170">
        <ele>1178.0</ele>
        <time>2019-04-28T08:57:39Z</time>
      </trkpt>
      <trkpt lat="40.7331220" lon="-4.0707580">
        <ele>1177.8</ele>
        <time>2019-04-28T08:57:41Z</time>
      </trkpt>
      <trkpt lat="40.7330910" lon="-4.0708170">
        <ele>1177.6</ele>
        <time>2019-04-28T08:57:43Z</time>
      </trkpt>
      <trkpt lat="40.7330200" lon="-4.0709800">
        <ele>1177.8</ele>
        <time>2019-04-28T08:57:45Z</time>
      </trkpt>
      <trkpt lat="40.7329950" lon="-4.0710130">
        <ele>1178.0</ele>
        <time>2019-04-28T08:57:47Z</time>
      </trkpt>
      <trkpt lat="40.7329520" lon="-4.0710780">
        <ele>1178.2</ele>
        <time>2019-04-28T08:57:49Z</time>
      </trkpt>
      <trkpt lat="40.7328880" lon="-4.0711680">
        <ele>1177.8</ele>
        <time>2019-04-28T08:57:51Z</time>
      </trkpt>
      <trkpt lat="40.7328090" lon="-4.0712760">
        <ele>1177.2</ele>
        <time>2019-04-28T08:57:53Z</time>
      </trkpt>
      <trkpt lat="40.7326780" lon="-4.0714820">
        <ele>1176.0</ele>
        <time>2019-04-28T08:57:55Z</time>
      </trkpt>
      <trkpt lat="40.7326350" lon="-4.0715610">
        <ele>1175.2</ele>
        <time>2019-04-28T08:57:57Z</time>
      </trkpt>
      <trkpt lat="40.7325590" lon="-4.0717160">
        <ele>1174.4</ele>
        <time>2019-04-28T08:57:59Z</time>
      </trkpt>
      <trkpt lat="40.7324810" lon="-4.0718830">
        <ele>1173.6</ele>
        <time>2019-04-28T08:58:01Z</time>
      </trkpt>
      <trkpt lat="40.7324160" lon="-4.0720530">
        <ele>1173.4</ele>
        <time>2019-04-28T08:58:03Z</time>
      </trkpt>
      <trkpt lat="40.7323680" lon="-4.0722140">
        <ele>1173.2</ele>
        <time>2019-04-28T08:58:05Z</time>
      </trkpt>
      <trkpt lat="40.7323380" lon="-4.0724750">
        <ele>1173.2</ele>
        <time>2019-04-28T08:58:07Z</time>
      </trkpt>
      <trkpt lat="40.7323250" lon="-4.0725550">
        <ele>1173.2</ele>
        <time>2019-04-28T08:58:09Z</time>
      </trkpt>
      <trkpt lat="40.7323050" lon="-4.0727770">
        <ele>1173.4</ele>
        <time>2019-04-28T08:58:11Z</time>
      </trkpt>
      <trkpt lat="40.7323000" lon="-4.0728370">
        <ele>1173.4</ele>
        <time>2019-04-28T08:58:13Z</time>
      </trkpt>
      <trkpt lat="40.7322830" lon="-4.0729660">
        <ele>1173.8</ele>
        <time>2019-04-28T08:58:15Z</time>
      </trkpt>
      <trkpt lat="40.7322450" lon="-4.0731500">
        <ele>1174.0</ele>
        <time>2019-04-28T08:58:17Z</time>
      </trkpt>
      <trkpt lat="40.7322280" lon="-4.0732120">
        <ele>1174.2</ele>
        <time>2019-04-28T08:58:19Z</time>
      </trkpt>
      <trkpt lat="40.7322050" lon="-4.0733310">
        <ele>1174.8</ele>
        <time>2019-04-28T08:58:21Z</time>
      </trkpt>
      <trkpt lat="40.7321800" lon="-4.0734260">
        <ele>1175.0</ele>
        <time>2019-04-28T08:58:23Z</time>
      </trkpt>
      <trkpt lat="40.7321590" lon="-4.0735430">
        <ele>1175.8</ele>
        <time>2019-04-28T08:58:25Z</time>
      </trkpt>
      <trkpt lat="40.7321190" lon="-4.0737060">
        <ele>1176.2</ele>
        <time>2019-04-28T08:58:27Z</time>
      </trkpt>
      <trkpt lat="40.7321070" lon="-4.0737500">
        <ele>1176.8</ele>
        <time>2019-04-28T08:58:29Z</time>
      </trkpt>
      <trkpt lat="40.7320670" lon="-4.0739040">
        <ele>1177.2</ele>
        <time>2019-04-28T08:58:31Z</time>
      </trkpt>
      <trkpt lat="40.7320620" lon="-4.0739600">
        <ele>1177.6</ele>
        <time>2019-04-28T08:58:33Z</time>
      </trkpt>
      <trkpt lat="40.7320530" lon="-4.0740630">
        <ele>1177.8</ele>
        <time>2019-04-28T08:58:35Z</time>
      </trkpt>
      <trkpt lat="40.7320450" lon="-4.0741700">
        <ele>1178.0</ele>
        <time>2019-04-28T08:58:37Z</time>
      </trkpt>
      <trkpt lat="40.7320450" lon="-4.0741920">
        <ele>1178.0</ele>
        <time>2019-04-28T08:58:39Z</time>
      </trkpt>
      <trkpt lat="40.7320410" lon="-4.0742130">
        <ele>1178.2</ele>
        <time>2019-04-28T08:58:41Z</time>
      </trkpt>
      <trkpt lat="40.7320380" lon="-4.0742200">
        <ele>1178.2</ele>
        <time>2019-04-28T08:58:43Z</time>
      </trkpt>
      <trkpt lat="40.7320340" lon="-4.0742280">
        <ele>1178.2</ele>
        <time>2019-04-28T08:58:45Z</time>
      </trkpt>
      <trkpt lat="40.7320310" lon="-4.0742410">
        <ele>1178.2</ele>
        <time>2019-04-28T08:58:47Z</time>
      </trkpt>
      <trkpt lat="40.7320300" lon="-4.0742500">
        <ele>1178.2</ele>
        <time>2019-04-28T08:58:49Z</time>
      </trkpt>
      <trkpt lat="40.7320290" lon="-4.0742560">
        <ele>1178.2</ele>
        <time>2019-04-28T08:58:51Z</time>
      </trkpt>
      <trkpt lat="40.7320240" lon="-4.0742920">
        <ele>1178.2</ele>
        <time>2019-04-28T08:58:53Z</time>
      </trkpt>
      <trkpt lat="40.7320210" lon="-4.0743020">
        <ele>1178.2</ele>
        <time>2019-04-28T08:58:55Z</time>
      </trkpt>
      <trkpt lat="40.7320730" lon="-4.0739520">
        <ele>1177.0</ele>
        <time>2019-04-28T08:59:47Z</time>
      </trkpt>
      <trkpt lat="40.7320750" lon="-4.0739370">
        <ele>1177.0</ele>
        <time>2019-04-28T08:59:49Z</time>
      </trkpt>
      <trkpt lat="40.7320880" lon="-4.0738930">
        <ele>1176.6</ele>
        <time>2019-04-28T08:59:51Z</time>
      </trkpt>
      <trkpt lat="40.7320820" lon="-4.0738140">
        <ele>1176.4</ele>
        <time>2019-04-28T08:59:53Z</time>
      </trkpt>
      <trkpt lat="40.7320630" lon="-4.0738070">
        <ele>1176.0</ele>
        <time>2019-04-28T08:59:55Z</time>
      </trkpt>
      <trkpt lat="40.7320530" lon="-4.0737940">
        <ele>1175.8</ele>
        <time>2019-04-28T08:59:57Z</time>
      </trkpt>
      <trkpt lat="40.7320550" lon="-4.0737940">
        <ele>1175.6</ele>
        <time>2019-04-28T08:59:59Z</time>
      </trkpt>
      <trkpt lat="40.7320610" lon="-4.0737970">
        <ele>1175.6</ele>
        <time>2019-04-28T09:00:01Z</time>
      </trkpt>
      <trkpt lat="40.7320620" lon="-4.0737970">
        <ele>1176.0</ele>
        <time>2019-04-28T09:00:03Z</time>
      </trkpt>
      <trkpt lat="40.7320640" lon="-4.0737930">
        <ele>1176.0</ele>
        <time>2019-04-28T09:00:05Z</time>
      </trkpt>
      <trkpt lat="40.7320640" lon="-4.0737910">
        <ele>1176.0</ele>
        <time>2019-04-28T09:00:07Z</time>
      </trkpt>
      <trkpt lat="40.7320670" lon="-4.0737950">
        <ele>1176.0</ele>
        <time>2019-04-28T09:00:09Z</time>
      </trkpt>
      <trkpt lat="40.7320810" lon="-4.0738080">
        <ele>1176.0</ele>
        <time>2019-04-28T09:00:11Z</time>
      </trkpt>
      <trkpt lat="40.7320840" lon="-4.0738150">
        <ele>1176.0</ele>
        <time>2019-04-28T09:00:13Z</time>
      </trkpt>
      <trkpt lat="40.7320830" lon="-4.0738150">
        <ele>1176.0</ele>
        <time>2019-04-28T09:00:15Z</time>
      </trkpt>
      <trkpt lat="40.7320820" lon="-4.0738170">
        <ele>1176.0</ele>
        <time>2019-04-28T09:00:17Z</time>
      </trkpt>
      <trkpt lat="40.7320870" lon="-4.0738230">
        <ele>1176.0</ele>
        <time>2019-04-28T09:00:19Z</time>
      </trkpt>
      <trkpt lat="40.7321030" lon="-4.0738450">
        <ele>1176.0</ele>
        <time>2019-04-28T09:00:21Z</time>
      </trkpt>
      <trkpt lat="40.7321090" lon="-4.0738580">
        <ele>1176.2</ele>
        <time>2019-04-28T09:00:23Z</time>
      </trkpt>
      <trkpt lat="40.7321270" lon="-4.0739020">
        <ele>1176.6</ele>
        <time>2019-04-28T09:00:25Z</time>
      </trkpt>
      <trkpt lat="40.7321240" lon="-4.0739220">
        <ele>1176.8</ele>
        <time>2019-04-28T09:00:27Z</time>
      </trkpt>
      <trkpt lat="40.7321380" lon="-4.0739730">
        <ele>1177.2</ele>
        <time>2019-04-28T09:00:29Z</time>
      </trkpt>
      <trkpt lat="40.7321480" lon="-4.0739860">
        <ele>1177.8</ele>
        <time>2019-04-28T09:00:31Z</time>
      </trkpt>
      <trkpt lat="40.7321620" lon="-4.0740170">
        <ele>1178.6</ele>
        <time>2019-04-28T09:00:33Z</time>
      </trkpt>
      <trkpt lat="40.7321720" lon="-4.0740530">
        <ele>1179.2</ele>
        <time>2019-04-28T09:00:35Z</time>
      </trkpt>
      <trkpt lat="40.7321880" lon="-4.0741240">
        <ele>1180.0</ele>
        <time>2019-04-28T09:00:37Z</time>
      </trkpt>
      <trkpt lat="40.7322010" lon="-4.0741440">
        <ele>1180.6</ele>
        <time>2019-04-28T09:00:39Z</time>
      </trkpt>
      <trkpt lat="40.7322270" lon="-4.0741940">
        <ele>1181.0</ele>
        <time>2019-04-28T09:00:41Z</time>
      </trkpt>
      <trkpt lat="40.7322610" lon="-4.0742520">
        <ele>1181.4</ele>
        <time>2019-04-28T09:00:43Z</time>
      </trkpt>
      <trkpt lat="40.7322830" lon="-4.0743210">
        <ele>1182.0</ele>
        <time>2019-04-28T09:00:45Z</time>
      </trkpt>
      <trkpt lat="40.7322930" lon="-4.0743920">
        <ele>1182.2</ele>
        <time>2019-04-28T09:00:47Z</time>
      </trkpt>
      <trkpt lat="40.7322950" lon="-4.0744790">
        <ele>1182.6</ele>
        <time>2019-04-28T09:00:49Z</time>
      </trkpt>
      <trkpt lat="40.7323000" lon="-4.0746140">
        <ele>1183.0</ele>
        <time>2019-04-28T09:00:51Z</time>
      </trkpt>
      <trkpt lat="40.7322980" lon="-4.0746560">
        <ele>1183.2</ele>
        <time>2019-04-28T09:00:53Z</time>
      </trkpt>
      <trkpt lat="40.7322880" lon="-4.0748010">
        <ele>1183.6</ele>
        <time>2019-04-28T09:00:55Z</time>
      </trkpt>
      <trkpt lat="40.7322810" lon="-4.0748510">
        <ele>1183.4</ele>
        <time>2019-04-28T09:00:57Z</time>
      </trkpt>
      <trkpt lat="40.7322630" lon="-4.0749850">
        <ele>1183.2</ele>
        <time>2019-04-28T09:00:59Z</time>
      </trkpt>
      <trkpt lat="40.7322520" lon="-4.0751110">
        <ele>1183.2</ele>
        <time>2019-04-28T09:01:01Z</time>
      </trkpt>
      <trkpt lat="40.7322410" lon="-4.0752580">
        <ele>1183.2</ele>
        <time>2019-04-28T09:01:03Z</time>
      </trkpt>
      <trkpt lat="40.7322290" lon="-4.0754080">
        <ele>1183.2</ele>
        <time>2019-04-28T09:01:05Z</time>
      </trkpt>
      <trkpt lat="40.7322190" lon="-4.0755520">
        <ele>1183.2</ele>
        <time>2019-04-28T09:01:07Z</time>
      </trkpt>
      <trkpt lat="40.7322130" lon="-4.0756820">
        <ele>1183.2</ele>
        <time>2019-04-28T09:01:09Z</time>
      </trkpt>
      <trkpt lat="40.7322160" lon="-4.0758140">
        <ele>1183.6</ele>
        <time>2019-04-28T09:01:11Z</time>
      </trkpt>
      <trkpt lat="40.7322160" lon="-4.0758540">
        <ele>1183.8</ele>
        <time>2019-04-28T09:01:13Z</time>
      </trkpt>
      <trkpt lat="40.7322170" lon="-4.0759240">
        <ele>1184.4</ele>
        <time>2019-04-28T09:01:15Z</time>
      </trkpt>
      <trkpt lat="40.7322130" lon="-4.0759870">
        <ele>1185.0</ele>
        <time>2019-04-28T09:01:17Z</time>
      </trkpt>
      <trkpt lat="40.7322000" lon="-4.0760340">
        <ele>1185.2</ele>
        <time>2019-04-28T09:01:19Z</time>
      </trkpt>
      <trkpt lat="40.7321860" lon="-4.0760730">
        <ele>1185.8</ele>
        <time>2019-04-28T09:01:21Z</time>
      </trkpt>
      <trkpt lat="40.7321820" lon="-4.0761100">
        <ele>1186.0</ele>
        <time>2019-04-28T09:01:23Z</time>
      </trkpt>
      <trkpt lat="40.7321920" lon="-4.0761410">
        <ele>1186.4</ele>
        <time>2019-04-28T09:01:25Z</time>
      </trkpt>
      <trkpt lat="40.7321930" lon="-4.0761850">
        <ele>1186.8</ele>
        <time>2019-04-28T09:01:27Z</time>
      </trkpt>
      <trkpt lat="40.7321800" lon="-4.0762350">
        <ele>1187.2</ele>
        <time>2019-04-28T09:01:29Z</time>
      </trkpt>
      <trkpt lat="40.7321710" lon="-4.0762980">
        <ele>1187.4</ele>
        <time>2019-04-28T09:01:31Z</time>
      </trkpt>
      <trkpt lat="40.7321590" lon="-4.0763530">
        <ele>1187.8</ele>
        <time>2019-04-28T09:01:33Z</time>
      </trkpt>
      <trkpt lat="40.7321350" lon="-4.0764100">
        <ele>1188.2</ele>
        <time>2019-04-28T09:01:34Z</time>
      </trkpt>
      <trkpt lat="40.7321280" lon="-4.0764740">
        <ele>1188.6</ele>
        <time>2019-04-28T09:01:37Z</time>
      </trkpt>
      <trkpt lat="40.7321260" lon="-4.0765350">
        <ele>1188.8</ele>
        <time>2019-04-28T09:01:39Z</time>
      </trkpt>
      <trkpt lat="40.7321290" lon="-4.0765970">
        <ele>1189.2</ele>
        <time>2019-04-28T09:01:40Z</time>
      </trkpt>
      <trkpt lat="40.7321230" lon="-4.0766710">
        <ele>1189.2</ele>
        <time>2019-04-28T09:01:43Z</time>
      </trkpt>
      <trkpt lat="40.7321080" lon="-4.0767420">
        <ele>1189.2</ele>
        <time>2019-04-28T09:01:45Z</time>
      </trkpt>
      <trkpt lat="40.7320930" lon="-4.0768090">
        <ele>1189.2</ele>
        <time>2019-04-28T09:01:46Z</time>
      </trkpt>
      <trkpt lat="40.7320890" lon="-4.0768830">
        <ele>1189.4</ele>
        <time>2019-04-28T09:01:49Z</time>
      </trkpt>
      <trkpt lat="40.7321020" lon="-4.0769540">
        <ele>1189.4</ele>
        <time>2019-04-28T09:01:51Z</time>
      </trkpt>
      <trkpt lat="40.7321120" lon="-4.0770260">
        <ele>1189.6</ele>
        <time>2019-04-28T09:01:53Z</time>
      </trkpt>
      <trkpt lat="40.7321030" lon="-4.0770860">
        <ele>1189.6</ele>
        <time>2019-04-28T09:01:55Z</time>
      </trkpt>
      <trkpt lat="40.7321030" lon="-4.0771400">
        <ele>1189.8</ele>
        <time>2019-04-28T09:01:57Z</time>
      </trkpt>
      <trkpt lat="40.7320970" lon="-4.0772060">
        <ele>1190.6</ele>
        <time>2019-04-28T09:01:59Z</time>
      </trkpt>
      <trkpt lat="40.7320800" lon="-4.0772610">
        <ele>1191.6</ele>
        <time>2019-04-28T09:02:01Z</time>
      </trkpt>
      <trkpt lat="40.7320670" lon="-4.0773220">
        <ele>1192.2</ele>
        <time>2019-04-28T09:02:03Z</time>
      </trkpt>
      <trkpt lat="40.7320540" lon="-4.0773920">
        <ele>1192.2</ele>
        <time>2019-04-28T09:02:04Z</time>
      </trkpt>
      <trkpt lat="40.7320430" lon="-4.0774620">
        <ele>1192.6</ele>
        <time>2019-04-28T09:02:07Z</time>
      </trkpt>
      <trkpt lat="40.7320250" lon="-4.0775320">
        <ele>1192.8</ele>
        <time>2019-04-28T09:02:09Z</time>
      </trkpt>
      <trkpt lat="40.7320090" lon="-4.0775970">
        <ele>1193.2</ele>
        <time>2019-04-28T09:02:10Z</time>
      </trkpt>
      <trkpt lat="40.7320100" lon="-4.0776470">
        <ele>1194.0</ele>
        <time>2019-04-28T09:02:13Z</time>
      </trkpt>
      <trkpt lat="40.7319910" lon="-4.0777030">
        <ele>1194.0</ele>
        <time>2019-04-28T09:02:14Z</time>
      </trkpt>
      <trkpt lat="40.7319770" lon="-4.0777590">
        <ele>1194.2</ele>
        <time>2019-04-28T09:02:16Z</time>
      </trkpt>
      <trkpt lat="40.7319560" lon="-4.0778240">
        <ele>1194.4</ele>
        <time>2019-04-28T09:02:18Z</time>
      </trkpt>
      <trkpt lat="40.7319300" lon="-4.0778870">
        <ele>1194.4</ele>
        <time>2019-04-28T09:02:20Z</time>
      </trkpt>
      <trkpt lat="40.7319080" lon="-4.0779460">
        <ele>1194.8</ele>
        <time>2019-04-28T09:02:22Z</time>
      </trkpt>
      <trkpt lat="40.7318860" lon="-4.0780030">
        <ele>1195.0</ele>
        <time>2019-04-28T09:02:24Z</time>
      </trkpt>
      <trkpt lat="40.7318730" lon="-4.0780600">
        <ele>1195.2</ele>
        <time>2019-04-28T09:02:26Z</time>
      </trkpt>
      <trkpt lat="40.7318540" lon="-4.0781170">
        <ele>1195.8</ele>
        <time>2019-04-28T09:02:29Z</time>
      </trkpt>
      <trkpt lat="40.7318490" lon="-4.0781630">
        <ele>1196.8</ele>
        <time>2019-04-28T09:02:31Z</time>
      </trkpt>
      <trkpt lat="40.7318430" lon="-4.0782020">
        <ele>1197.6</ele>
        <time>2019-04-28T09:02:32Z</time>
      </trkpt>
      <trkpt lat="40.7318330" lon="-4.0782450">
        <ele>1197.8</ele>
        <time>2019-04-28T09:02:34Z</time>
      </trkpt>
      <trkpt lat="40.7318240" lon="-4.0782950">
        <ele>1198.0</ele>
        <time>2019-04-28T09:02:36Z</time>
      </trkpt>
      <trkpt lat="40.7317980" lon="-4.0783430">
        <ele>1198.4</ele>
        <time>2019-04-28T09:02:38Z</time>
      </trkpt>
      <trkpt lat="40.7317660" lon="-4.0784010">
        <ele>1198.6</ele>
        <time>2019-04-28T09:02:41Z</time>
      </trkpt>
      <trkpt lat="40.7317260" lon="-4.0784650">
        <ele>1198.4</ele>
        <time>2019-04-28T09:02:43Z</time>
      </trkpt>
      <trkpt lat="40.7316880" lon="-4.0785150">
        <ele>1198.6</ele>
        <time>2019-04-28T09:02:45Z</time>
      </trkpt>
      <trkpt lat="40.7316730" lon="-4.0785770">
        <ele>1198.8</ele>
        <time>2019-04-28T09:02:47Z</time>
      </trkpt>
      <trkpt lat="40.7316630" lon="-4.0786440">
        <ele>1199.6</ele>
        <time>2019-04-28T09:02:49Z</time>
      </trkpt>
      <trkpt lat="40.7316410" lon="-4.0787020">
        <ele>1200.0</ele>
        <time>2019-04-28T09:02:51Z</time>
      </trkpt>
      <trkpt lat="40.7316230" lon="-4.0787620">
        <ele>1200.6</ele>
        <time>2019-04-28T09:02:53Z</time>
      </trkpt>
      <trkpt lat="40.7316020" lon="-4.0788190">
        <ele>1201.4</ele>
        <time>2019-04-28T09:02:55Z</time>
      </trkpt>
      <trkpt lat="40.7315850" lon="-4.0788730">
        <ele>1201.8</ele>
        <time>2019-04-28T09:02:57Z</time>
      </trkpt>
      <trkpt lat="40.7315510" lon="-4.0789400">
        <ele>1201.8</ele>
        <time>2019-04-28T09:02:59Z</time>
      </trkpt>
      <trkpt lat="40.7315090" lon="-4.0790010">
        <ele>1201.8</ele>
        <time>2019-04-28T09:03:01Z</time>
      </trkpt>
      <trkpt lat="40.7314610" lon="-4.0790810">
        <ele>1201.4</ele>
        <time>2019-04-28T09:03:03Z</time>
      </trkpt>
      <trkpt lat="40.7313960" lon="-4.0791740">
        <ele>1201.0</ele>
        <time>2019-04-28T09:03:05Z</time>
      </trkpt>
      <trkpt lat="40.7313170" lon="-4.0792570">
        <ele>1200.4</ele>
        <time>2019-04-28T09:03:07Z</time>
      </trkpt>
      <trkpt lat="40.7312070" lon="-4.0793200">
        <ele>1199.6</ele>
        <time>2019-04-28T09:03:08Z</time>
      </trkpt>
      <trkpt lat="40.7310790" lon="-4.0793940">
        <ele>1198.4</ele>
        <time>2019-04-28T09:03:10Z</time>
      </trkpt>
      <trkpt lat="40.7309620" lon="-4.0794860">
        <ele>1197.4</ele>
        <time>2019-04-28T09:03:12Z</time>
      </trkpt>
      <trkpt lat="40.7308470" lon="-4.0795760">
        <ele>1197.6</ele>
        <time>2019-04-28T09:03:14Z</time>
      </trkpt>
      <trkpt lat="40.7307330" lon="-4.0796690">
        <ele>1197.6</ele>
        <time>2019-04-28T09:03:16Z</time>
      </trkpt>
      <trkpt lat="40.7306220" lon="-4.0797540">
        <ele>1197.4</ele>
        <time>2019-04-28T09:03:18Z</time>
      </trkpt>
      <trkpt lat="40.7305230" lon="-4.0798330">
        <ele>1197.8</ele>
        <time>2019-04-28T09:03:21Z</time>
      </trkpt>
      <trkpt lat="40.7304160" lon="-4.0799010">
        <ele>1197.2</ele>
        <time>2019-04-28T09:03:22Z</time>
      </trkpt>
      <trkpt lat="40.7303040" lon="-4.0799900">
        <ele>1196.8</ele>
        <time>2019-04-28T09:03:24Z</time>
      </trkpt>
      <trkpt lat="40.7301910" lon="-4.0800860">
        <ele>1196.6</ele>
        <time>2019-04-28T09:03:26Z</time>
      </trkpt>
      <trkpt lat="40.7300990" lon="-4.0801670">
        <ele>1196.4</ele>
        <time>2019-04-28T09:03:28Z</time>
      </trkpt>
      <trkpt lat="40.7299810" lon="-4.0801990">
        <ele>1195.6</ele>
        <time>2019-04-28T09:03:30Z</time>
      </trkpt>
      <trkpt lat="40.7298400" lon="-4.0802190">
        <ele>1194.4</ele>
        <time>2019-04-28T09:03:32Z</time>
      </trkpt>
      <trkpt lat="40.7296910" lon="-4.0802510">
        <ele>1192.8</ele>
        <time>2019-04-28T09:03:34Z</time>
      </trkpt>
      <trkpt lat="40.7295420" lon="-4.0802910">
        <ele>1192.2</ele>
        <time>2019-04-28T09:03:37Z</time>
      </trkpt>
      <trkpt lat="40.7299130" lon="-4.0804430">
        <ele>1191.4</ele>
        <time>2019-04-28T09:03:39Z</time>
      </trkpt>
      <trkpt lat="40.7302840" lon="-4.0805960">
        <ele>1190.8</ele>
        <time>2019-04-28T09:03:41Z</time>
      </trkpt>
      <trkpt lat="40.7305510" lon="-4.0805040">
        <ele>1190.8</ele>
        <time>2019-04-28T09:03:43Z</time>
      </trkpt>
      <trkpt lat="40.7308170" lon="-4.0804120">
        <ele>1190.4</ele>
        <time>2019-04-28T09:03:45Z</time>
      </trkpt>
      <trkpt lat="40.7310840" lon="-4.0803190">
        <ele>1190.4</ele>
        <time>2019-04-28T09:03:47Z</time>
      </trkpt>
      <trkpt lat="40.7313500" lon="-4.0802270">
        <ele>1190.2</ele>
        <time>2019-04-28T09:03:49Z</time>
      </trkpt>
      <trkpt lat="40.7316170" lon="-4.0801350">
        <ele>1190.2</ele>
        <time>2019-04-28T09:03:51Z</time>
      </trkpt>
      <trkpt lat="40.7329500" lon="-4.0796740">
        <ele>1190.0</ele>
        <time>2019-04-28T09:03:53Z</time>
      </trkpt>
      <trkpt lat="40.7330500" lon="-4.0796980">
        <ele>1190.0</ele>
        <time>2019-04-28T09:03:55Z</time>
      </trkpt>
      <trkpt lat="40.7330070" lon="-4.0797120">
        <ele>1189.8</ele>
        <time>2019-04-28T09:03:57Z</time>
      </trkpt>
      <trkpt lat="40.7329220" lon="-4.0797240">
        <ele>1189.8</ele>
        <time>2019-04-28T09:03:59Z</time>
      </trkpt>
      <trkpt lat="40.7327640" lon="-4.0797350">
        <ele>1189.8</ele>
        <time>2019-04-28T09:04:01Z</time>
      </trkpt>
      <trkpt lat="40.7325090" lon="-4.0797460">
        <ele>1189.8</ele>
        <time>2019-04-28T09:04:03Z</time>
      </trkpt>
      <trkpt lat="40.7322650" lon="-4.0797510">
        <ele>1189.8</ele>
        <time>2019-04-28T09:04:05Z</time>
      </trkpt>
      <trkpt lat="40.7320800" lon="-4.0797560">
        <ele>1189.8</ele>
        <time>2019-04-28T09:04:07Z</time>
      </trkpt>
      <trkpt lat="40.7319150" lon="-4.0797660">
        <ele>1189.6</ele>
        <time>2019-04-28T09:04:09Z</time>
      </trkpt>
      <trkpt lat="40.7318410" lon="-4.0797710">
        <ele>1189.6</ele>
        <time>2019-04-28T09:04:11Z</time>
      </trkpt>
      <trkpt lat="40.7316400" lon="-4.0797880">
        <ele>1189.6</ele>
        <time>2019-04-28T09:04:13Z</time>
      </trkpt>
      <trkpt lat="40.7315230" lon="-4.0798000">
        <ele>1189.6</ele>
        <time>2019-04-28T09:04:15Z</time>
      </trkpt>
      <trkpt lat="40.7314690" lon="-4.0798070">
        <ele>1189.4</ele>
        <time>2019-04-28T09:04:17Z</time>
      </trkpt>
      <trkpt lat="40.7305640" lon="-4.0799830">
        <ele>1189.2</ele>
        <time>2019-04-28T09:04:31Z</time>
      </trkpt>
      <trkpt lat="40.7303940" lon="-4.0800240">
        <ele>1189.2</ele>
        <time>2019-04-28T09:04:33Z</time>
      </trkpt>
      <trkpt lat="40.7302440" lon="-4.0800640">
        <ele>1189.2</ele>
        <time>2019-04-28T09:04:36Z</time>
      </trkpt>
      <trkpt lat="40.7301470" lon="-4.0800930">
        <ele>1189.2</ele>
        <time>2019-04-28T09:04:38Z</time>
      </trkpt>
      <trkpt lat="40.7300730" lon="-4.0801190">
        <ele>1189.2</ele>
        <time>2019-04-28T09:04:40Z</time>
      </trkpt>
      <trkpt lat="40.7300280" lon="-4.0801350">
        <ele>1189.2</ele>
        <time>2019-04-28T09:04:42Z</time>
      </trkpt>
      <trkpt lat="40.7299780" lon="-4.0801490">
        <ele>1189.0</ele>
        <time>2019-04-28T09:04:44Z</time>
      </trkpt>
      <trkpt lat="40.7299470" lon="-4.0801530">
        <ele>1189.0</ele>
        <time>2019-04-28T09:04:46Z</time>
      </trkpt>
      <trkpt lat="40.7299230" lon="-4.0801570">
        <ele>1189.0</ele>
        <time>2019-04-28T09:04:48Z</time>
      </trkpt>
      <trkpt lat="40.7299070" lon="-4.0801610">
        <ele>1189.0</ele>
        <time>2019-04-28T09:04:50Z</time>
      </trkpt>
      <trkpt lat="40.7298930" lon="-4.0801670">
        <ele>1189.0</ele>
        <time>2019-04-28T09:04:52Z</time>
      </trkpt>
      <trkpt lat="40.7298500" lon="-4.0801860">
        <ele>1189.0</ele>
        <time>2019-04-28T09:04:54Z</time>
      </trkpt>
      <trkpt lat="40.7297450" lon="-4.0802220">
        <ele>1189.0</ele>
        <time>2019-04-28T09:04:56Z</time>
      </trkpt>
      <trkpt lat="40.7297220" lon="-4.0802360">
        <ele>1189.0</ele>
        <time>2019-04-28T09:04:58Z</time>
      </trkpt>
      <trkpt lat="40.7296790" lon="-4.0802530">
        <ele>1191.8</ele>
        <time>2019-04-28T09:05:00Z</time>
      </trkpt>
      <trkpt lat="40.7295470" lon="-4.0803080">
        <ele>1191.6</ele>
        <time>2019-04-28T09:05:02Z</time>
      </trkpt>
      <trkpt lat="40.7295010" lon="-4.0803510">
        <ele>1191.6</ele>
        <time>2019-04-28T09:05:04Z</time>
      </trkpt>
      <trkpt lat="40.7294170" lon="-4.0804700">
        <ele>1191.6</ele>
        <time>2019-04-28T09:05:06Z</time>
      </trkpt>
      <trkpt lat="40.7292940" lon="-4.0806690">
        <ele>1187.8</ele>
        <time>2019-04-28T09:05:08Z</time>
      </trkpt>
      <trkpt lat="40.7292580" lon="-4.0807460">
        <ele>1187.6</ele>
        <time>2019-04-28T09:05:10Z</time>
      </trkpt>
      <trkpt lat="40.7291980" lon="-4.0809140">
        <ele>1187.4</ele>
        <time>2019-04-28T09:05:12Z</time>
      </trkpt>
      <trkpt lat="40.7291320" lon="-4.0811860">
        <ele>1187.2</ele>
        <time>2019-04-28T09:05:14Z</time>
      </trkpt>
      <trkpt lat="40.7291010" lon="-4.0813670">
        <ele>1187.2</ele>
        <time>2019-04-28T09:05:16Z</time>
      </trkpt>
      <trkpt lat="40.7290880" lon="-4.0814520">
        <ele>1187.6</ele>
        <time>2019-04-28T09:05:18Z</time>
      </trkpt>
      <trkpt lat="40.7290680" lon="-4.0816180">
        <ele>1188.2</ele>
        <time>2019-04-28T09:05:20Z</time>
      </trkpt>
      <trkpt lat="40.7290660" lon="-4.0818570">
        <ele>1188.8</ele>
        <time>2019-04-28T09:05:22Z</time>
      </trkpt>
      <trkpt lat="40.7290870" lon="-4.0820030">
        <ele>1189.2</ele>
        <time>2019-04-28T09:05:24Z</time>
      </trkpt>
      <trkpt lat="40.7290930" lon="-4.0820720">
        <ele>1189.8</ele>
        <time>2019-04-28T09:05:26Z</time>
      </trkpt>
      <trkpt lat="40.7290800" lon="-4.0822010">
        <ele>1190.0</ele>
        <time>2019-04-28T09:05:28Z</time>
      </trkpt>
      <trkpt lat="40.7290210" lon="-4.0823000">
        <ele>1190.0</ele>
        <time>2019-04-28T09:05:30Z</time>
      </trkpt>
      <trkpt lat="40.7290140" lon="-4.0822980">
        <ele>1190.0</ele>
        <time>2019-04-28T09:05:32Z</time>
      </trkpt>
      <trkpt lat="40.7290130" lon="-4.0822970">
        <ele>1189.8</ele>
        <time>2019-04-28T09:05:34Z</time>
      </trkpt>
      <trkpt lat="40.7290120" lon="-4.0822970">
        <ele>1189.8</ele>
        <time>2019-04-28T09:05:36Z</time>
      </trkpt>
      <trkpt lat="40.7290130" lon="-4.0822970">
        <ele>1189.6</ele>
        <time>2019-04-28T09:05:38Z</time>
      </trkpt>
      <trkpt lat="40.7290110" lon="-4.0822940">
        <ele>1189.6</ele>
        <time>2019-04-28T09:05:40Z</time>
      </trkpt>
      <trkpt lat="40.7290110" lon="-4.0822950">
        <ele>1189.6</ele>
        <time>2019-04-28T09:05:42Z</time>
      </trkpt>
      <trkpt lat="40.7290100" lon="-4.0822950">
        <ele>1189.6</ele>
        <time>2019-04-28T09:05:44Z</time>
      </trkpt>
      <trkpt lat="40.7290100" lon="-4.0822940">
        <ele>1189.6</ele>
        <time>2019-04-28T09:05:46Z</time>
      </trkpt>
      <trkpt lat="40.7153620" lon="-4.0772360">
        <ele>1040.6</ele>
        <time>2019-04-28T09:22:13Z</time>
      </trkpt>
      <trkpt lat="40.7152260" lon="-4.0773570">
        <ele>1040.6</ele>
        <time>2019-04-28T09:22:14Z</time>
      </trkpt>
      <trkpt lat="40.7151820" lon="-4.0773960">
        <ele>1040.6</ele>
        <time>2019-04-28T09:22:15Z</time>
      </trkpt>
      <trkpt lat="40.7150930" lon="-4.0774730">
        <ele>1040.6</ele>
        <time>2019-04-28T09:22:16Z</time>
      </trkpt>
      <trkpt lat="40.7150080" lon="-4.0775510">
        <ele>1040.6</ele>
        <time>2019-04-28T09:22:17Z</time>
      </trkpt>
      <trkpt lat="40.7149220" lon="-4.0776290">
        <ele>1040.6</ele>
        <time>2019-04-28T09:22:19Z</time>
      </trkpt>
      <trkpt lat="40.7147580" lon="-4.0777820">
        <ele>1040.6</ele>
        <time>2019-04-28T09:22:20Z</time>
      </trkpt>
      <trkpt lat="40.7146770" lon="-4.0778560">
        <ele>1040.6</ele>
        <time>2019-04-28T09:22:22Z</time>
      </trkpt>
      <trkpt lat="40.7146000" lon="-4.0779260">
        <ele>1040.6</ele>
        <time>2019-04-28T09:22:23Z</time>
      </trkpt>
      <trkpt lat="40.7144450" lon="-4.0780650">
        <ele>1040.6</ele>
        <time>2019-04-28T09:22:25Z</time>
      </trkpt>
      <trkpt lat="40.7143700" lon="-4.0781280">
        <ele>1040.6</ele>
        <time>2019-04-28T09:22:26Z</time>
      </trkpt>
      <trkpt lat="40.7142210" lon="-4.0782550">
        <ele>1040.6</ele>
        <time>2019-04-28T09:22:28Z</time>
      </trkpt>
      <trkpt lat="40.7140670" lon="-4.0783580">
        <ele>1040.6</ele>
        <time>2019-04-28T09:22:30Z</time>
      </trkpt>
      <trkpt lat="40.7139060" lon="-4.0784330">
        <ele>1040.6</ele>
        <time>2019-04-28T09:22:31Z</time>
      </trkpt>
      <trkpt lat="40.7138230" lon="-4.0784700">
        <ele>1040.6</ele>
        <time>2019-04-28T09:22:32Z</time>
      </trkpt>
      <trkpt lat="40.7137440" lon="-4.0784960">
        <ele>1040.6</ele>
        <time>2019-04-28T09:22:33Z</time>
      </trkpt>
      <trkpt lat="40.7136620" lon="-4.0785210">
        <ele>1040.6</ele>
        <time>2019-04-28T09:22:35Z</time>
      </trkpt>
      <trkpt lat="40.7135420" lon="-4.0785520">
        <ele>1040.6</ele>
        <time>2019-04-28T09:22:36Z</time>
      </trkpt>
      <trkpt lat="40.7134220" lon="-4.0785820">
        <ele>1040.6</ele>
        <time>2019-04-28T09:22:37Z</time>
      </trkpt>
      <trkpt lat="40.7133460" lon="-4.0786010">
        <ele>1040.6</ele>
        <time>2019-04-28T09:22:38Z</time>
      </trkpt>
      <trkpt lat="40.7132700" lon="-4.0786200">
        <ele>1040.6</ele>
        <time>2019-04-28T09:22:39Z</time>
      </trkpt>
      <trkpt lat="40.7131960" lon="-4.0786390">
        <ele>1040.6</ele>
        <time>2019-04-28T09:22:41Z</time>
      </trkpt>
      <trkpt lat="40.7130850" lon="-4.0786850">
        <ele>1040.6</ele>
        <time>2019-04-28T09:22:42Z</time>
      </trkpt>
      <trkpt lat="40.7129730" lon="-4.0787300">
        <ele>1040.6</ele>
        <time>2019-04-28T09:22:43Z</time>
      </trkpt>
      <trkpt lat="40.7128910" lon="-4.0787290">
        <ele>1040.6</ele>
        <time>2019-04-28T09:22:45Z</time>
      </trkpt>
      <trkpt lat="40.7127580" lon="-4.0787550">
        <ele>1040.6</ele>
        <time>2019-04-28T09:22:46Z</time>
      </trkpt>
      <trkpt lat="40.7126250" lon="-4.0787800">
        <ele>1040.6</ele>
        <time>2019-04-28T09:22:47Z</time>
      </trkpt>
      <trkpt lat="40.7125310" lon="-4.0788050">
        <ele>1040.6</ele>
        <time>2019-04-28T09:22:48Z</time>
      </trkpt>
      <trkpt lat="40.7124330" lon="-4.0788320">
        <ele>1040.6</ele>
        <time>2019-04-28T09:22:50Z</time>
      </trkpt>
      <trkpt lat="40.7122830" lon="-4.0788710">
        <ele>1040.6</ele>
        <time>2019-04-28T09:22:51Z</time>
      </trkpt>
      <trkpt lat="40.7121320" lon="-4.0789100">
        <ele>1040.6</ele>
        <time>2019-04-28T09:22:52Z</time>
      </trkpt>
      <trkpt lat="40.7120290" lon="-4.0789390">
        <ele>1040.6</ele>
        <time>2019-04-28T09:22:53Z</time>
      </trkpt>
      <trkpt lat="40.7119250" lon="-4.0789730">
        <ele>1039.8</ele>
        <time>2019-04-28T09:22:54Z</time>
      </trkpt>
      <trkpt lat="40.7118210" lon="-4.0790060">
        <ele>1039.4</ele>
        <time>2019-04-28T09:22:56Z</time>
      </trkpt>
      <trkpt lat="40.7116130" lon="-4.0790640">
        <ele>1038.8</ele>
        <time>2019-04-28T09:22:58Z</time>
      </trkpt>
      <trkpt lat="40.7114060" lon="-4.0791200">
        <ele>1038.0</ele>
        <time>2019-04-28T09:23:00Z</time>
      </trkpt>
      <trkpt lat="40.7112480" lon="-4.0791580">
        <ele>1037.6</ele>
        <time>2019-04-28T09:23:01Z</time>
      </trkpt>
      <trkpt lat="40.7110900" lon="-4.0791950">
        <ele>1037.2</ele>
        <time>2019-04-28T09:23:02Z</time>
      </trkpt>
      <trkpt lat="40.7109900" lon="-4.0792220">
        <ele>1036.8</ele>
        <time>2019-04-28T09:23:03Z</time>
      </trkpt>
      <trkpt lat="40.7108920" lon="-4.0792490">
        <ele>1036.4</ele>
        <time>2019-04-28T09:23:04Z</time>
      </trkpt>
      <trkpt lat="40.7107990" lon="-4.0792720">
        <ele>1036.0</ele>
        <time>2019-04-28T09:23:06Z</time>
      </trkpt>
      <trkpt lat="40.7107040" lon="-4.0792980">
        <ele>1035.6</ele>
        <time>2019-04-28T09:23:07Z</time>
      </trkpt>
      <trkpt lat="40.7106080" lon="-4.0793260">
        <ele>1035.2</ele>
        <time>2019-04-28T09:23:08Z</time>
      </trkpt>
      <trkpt lat="40.7105100" lon="-4.0793540">
        <ele>1034.8</ele>
        <time>2019-04-28T09:23:09Z</time>
      </trkpt>
      <trkpt lat="40.7104110" lon="-4.0793810">
        <ele>1034.6</ele>
        <time>2019-04-28T09:23:10Z</time>
      </trkpt>
      <trkpt lat="40.7103160" lon="-4.0794090">
        <ele>1034.2</ele>
        <time>2019-04-28T09:23:11Z</time>
      </trkpt>
      <trkpt lat="40.7102230" lon="-4.0794360">
        <ele>1033.8</ele>
        <time>2019-04-28T09:23:12Z</time>
      </trkpt>
      <trkpt lat="40.7100320" lon="-4.0794830">
        <ele>1033.0</ele>
        <time>2019-04-28T09:23:14Z</time>
      </trkpt>
      <trkpt lat="40.7099350" lon="-4.0795060">
        <ele>1032.6</ele>
        <time>2019-04-28T09:23:15Z</time>
      </trkpt>
      <trkpt lat="40.7098390" lon="-4.0795330">
        <ele>1032.4</ele>
        <time>2019-04-28T09:23:16Z</time>
      </trkpt>
      <trkpt lat="40.7097430" lon="-4.0795590">
        <ele>1031.8</ele>
        <time>2019-04-28T09:23:17Z</time>
      </trkpt>
      <trkpt lat="40.7096460" lon="-4.0795840">
        <ele>1031.6</ele>
        <time>2019-04-28T09:23:18Z</time>
      </trkpt>
      <trkpt lat="40.7095510" lon="-4.0796090">
        <ele>1031.6</ele>
        <time>2019-04-28T09:23:19Z</time>
      </trkpt>
      <trkpt lat="40.7094550" lon="-4.0796350">
        <ele>1031.2</ele>
        <time>2019-04-28T09:23:20Z</time>
      </trkpt>
      <trkpt lat="40.7093610" lon="-4.0796640">
        <ele>1030.6</ele>
        <time>2019-04-28T09:23:21Z</time>
      </trkpt>
      <trkpt lat="40.7092680" lon="-4.0796910">
        <ele>1030.4</ele>
        <time>2019-04-28T09:23:22Z</time>
      </trkpt>
      <trkpt lat="40.7091780" lon="-4.0797150">
        <ele>1030.0</ele>
        <time>2019-04-28T09:23:23Z</time>
      </trkpt>
      <trkpt lat="40.7090900" lon="-4.0797400">
        <ele>1029.6</ele>
        <time>2019-04-28T09:23:24Z</time>
      </trkpt>
      <trkpt lat="40.7090060" lon="-4.0797680">
        <ele>1029.4</ele>
        <time>2019-04-28T09:23:25Z</time>
      </trkpt>
      <trkpt lat="40.7089240" lon="-4.0797980">
        <ele>1029.0</ele>
        <time>2019-04-28T09:23:26Z</time>
      </trkpt>
      <trkpt lat="40.7088410" lon="-4.0798310">
        <ele>1029.0</ele>
        <time>2019-04-28T09:23:27Z</time>
      </trkpt>
      <trkpt lat="40.7087560" lon="-4.0798640">
        <ele>1028.8</ele>
        <time>2019-04-28T09:23:28Z</time>
      </trkpt>
      <trkpt lat="40.7086670" lon="-4.0798830">
        <ele>1028.8</ele>
        <time>2019-04-28T09:23:29Z</time>
      </trkpt>
      <trkpt lat="40.7085780" lon="-4.0798980">
        <ele>1028.4</ele>
        <time>2019-04-28T09:23:30Z</time>
      </trkpt>
      <trkpt lat="40.7084900" lon="-4.0799240">
        <ele>1028.4</ele>
        <time>2019-04-28T09:23:31Z</time>
      </trkpt>
      <trkpt lat="40.7084030" lon="-4.0799510">
        <ele>1027.8</ele>
        <time>2019-04-28T09:23:32Z</time>
      </trkpt>
      <trkpt lat="40.7083160" lon="-4.0799780">
        <ele>1027.6</ele>
        <time>2019-04-28T09:23:33Z</time>
      </trkpt>
      <trkpt lat="40.7082290" lon="-4.0800060">
        <ele>1027.4</ele>
        <time>2019-04-28T09:23:34Z</time>
      </trkpt>
      <trkpt lat="40.7081420" lon="-4.0800340">
        <ele>1027.4</ele>
        <time>2019-04-28T09:23:35Z</time>
      </trkpt>
      <trkpt lat="40.7079700" lon="-4.0800890">
        <ele>1027.2</ele>
        <time>2019-04-28T09:23:36Z</time>
      </trkpt>
      <trkpt lat="40.7079280" lon="-4.0801020">
        <ele>1027.0</ele>
        <time>2019-04-28T09:23:37Z</time>
      </trkpt>
      <trkpt lat="40.7078850" lon="-4.0801150">
        <ele>1026.6</ele>
        <time>2019-04-28T09:23:38Z</time>
      </trkpt>
      <trkpt lat="40.7077990" lon="-4.0801380">
        <ele>1026.4</ele>
        <time>2019-04-28T09:23:39Z</time>
      </trkpt>
      <trkpt lat="40.7077130" lon="-4.0801570">
        <ele>1026.0</ele>
        <time>2019-04-28T09:23:40Z</time>
      </trkpt>
      <trkpt lat="40.7076260" lon="-4.0801810">
        <ele>1025.4</ele>
        <time>2019-04-28T09:23:41Z</time>
      </trkpt>
      <trkpt lat="40.7075410" lon="-4.0802100">
        <ele>1025.0</ele>
        <time>2019-04-28T09:23:42Z</time>
      </trkpt>
      <trkpt lat="40.7074520" lon="-4.0802260">
        <ele>1024.6</ele>
        <time>2019-04-28T09:23:43Z</time>
      </trkpt>
      <trkpt lat="40.7073620" lon="-4.0802470">
        <ele>1024.2</ele>
        <time>2019-04-28T09:23:44Z</time>
      </trkpt>
      <trkpt lat="40.7072690" lon="-4.0802690">
        <ele>1023.6</ele>
        <time>2019-04-28T09:23:45Z</time>
      </trkpt>
      <trkpt lat="40.7071740" lon="-4.0802860">
        <ele>1023.0</ele>
        <time>2019-04-28T09:23:46Z</time>
      </trkpt>
      <trkpt lat="40.7070810" lon="-4.0803070">
        <ele>1022.6</ele>
        <time>2019-04-28T09:23:47Z</time>
      </trkpt>
      <trkpt lat="40.7069880" lon="-4.0803280">
        <ele>1022.4</ele>
        <time>2019-04-28T09:23:48Z</time>
      </trkpt>
      <trkpt lat="40.7068930" lon="-4.0803490">
        <ele>1022.0</ele>
        <time>2019-04-28T09:23:49Z</time>
      </trkpt>
      <trkpt lat="40.7067980" lon="-4.0803800">
        <ele>1021.8</ele>
        <time>2019-04-28T09:23:50Z</time>
      </trkpt>
      <trkpt lat="40.7067000" lon="-4.0804170">
        <ele>1021.0</ele>
        <time>2019-04-28T09:23:51Z</time>
      </trkpt>
      <trkpt lat="40.7065990" lon="-4.0804530">
        <ele>1020.4</ele>
        <time>2019-04-28T09:23:52Z</time>
      </trkpt>
      <trkpt lat="40.7064980" lon="-4.0804910">
        <ele>1020.0</ele>
        <time>2019-04-28T09:23:53Z</time>
      </trkpt>
      <trkpt lat="40.7062950" lon="-4.0805700">
        <ele>1019.2</ele>
        <time>2019-04-28T09:23:55Z</time>
      </trkpt>
      <trkpt lat="40.7061930" lon="-4.0805970">
        <ele>1018.4</ele>
        <time>2019-04-28T09:23:56Z</time>
      </trkpt>
      <trkpt lat="40.7060900" lon="-4.0806250">
        <ele>1017.8</ele>
        <time>2019-04-28T09:23:57Z</time>
      </trkpt>
      <trkpt lat="40.7059930" lon="-4.0806540">
        <ele>1017.2</ele>
        <time>2019-04-28T09:23:58Z</time>
      </trkpt>
      <trkpt lat="40.7058960" lon="-4.0806820">
        <ele>1016.8</ele>
        <time>2019-04-28T09:23:59Z</time>
      </trkpt>
      <trkpt lat="40.7057970" lon="-4.0807100">
        <ele>1016.2</ele>
        <time>2019-04-28T09:24:00Z</time>
      </trkpt>
      <trkpt lat="40.7056970" lon="-4.0807410">
        <ele>1015.8</ele>
        <time>2019-04-28T09:24:01Z</time>
      </trkpt>
      <trkpt lat="40.7055970" lon="-4.0807730">
        <ele>1015.2</ele>
        <time>2019-04-28T09:24:02Z</time>
      </trkpt>
      <trkpt lat="40.7054970" lon="-4.0808090">
        <ele>1014.6</ele>
        <time>2019-04-28T09:24:03Z</time>
      </trkpt>
      <trkpt lat="40.7053990" lon="-4.0808460">
        <ele>1014.0</ele>
        <time>2019-04-28T09:24:04Z</time>
      </trkpt>
      <trkpt lat="40.7053030" lon="-4.0808860">
        <ele>1013.6</ele>
        <time>2019-04-28T09:24:05Z</time>
      </trkpt>
      <trkpt lat="40.7052100" lon="-4.0809270">
        <ele>1013.2</ele>
        <time>2019-04-28T09:24:06Z</time>
      </trkpt>
      <trkpt lat="40.7051180" lon="-4.0809700">
        <ele>1012.8</ele>
        <time>2019-04-28T09:24:07Z</time>
      </trkpt>
      <trkpt lat="40.7050260" lon="-4.0810110">
        <ele>1012.4</ele>
        <time>2019-04-28T09:24:08Z</time>
      </trkpt>
      <trkpt lat="40.7049350" lon="-4.0810520">
        <ele>1012.2</ele>
        <time>2019-04-28T09:24:09Z</time>
      </trkpt>
      <trkpt lat="40.7048460" lon="-4.0810960">
        <ele>1011.8</ele>
        <time>2019-04-28T09:24:10Z</time>
      </trkpt>
      <trkpt lat="40.7046670" lon="-4.0811800">
        <ele>1011.6</ele>
        <time>2019-04-28T09:24:11Z</time>
      </trkpt>
      <trkpt lat="40.7046230" lon="-4.0812010">
        <ele>1011.6</ele>
        <time>2019-04-28T09:24:12Z</time>
      </trkpt>
      <trkpt lat="40.7045790" lon="-4.0812210">
        <ele>1011.4</ele>
        <time>2019-04-28T09:24:13Z</time>
      </trkpt>
      <trkpt lat="40.7044910" lon="-4.0812630">
        <ele>1011.2</ele>
        <time>2019-04-28T09:24:14Z</time>
      </trkpt>
      <trkpt lat="40.7044030" lon="-4.0813050">
        <ele>1011.0</ele>
        <time>2019-04-28T09:24:15Z</time>
      </trkpt>
      <trkpt lat="40.7043150" lon="-4.0813460">
        <ele>1010.6</ele>
        <time>2019-04-28T09:24:16Z</time>
      </trkpt>
      <trkpt lat="40.7042270" lon="-4.0813840">
        <ele>1010.4</ele>
        <time>2019-04-28T09:24:17Z</time>
      </trkpt>
      <trkpt lat="40.7041420" lon="-4.0814140">
        <ele>1010.4</ele>
        <time>2019-04-28T09:24:18Z</time>
      </trkpt>
      <trkpt lat="40.7040550" lon="-4.0814430">
        <ele>1010.2</ele>
        <time>2019-04-28T09:24:19Z</time>
      </trkpt>
      <trkpt lat="40.7039710" lon="-4.0814770">
        <ele>1010.2</ele>
        <time>2019-04-28T09:24:20Z</time>
      </trkpt>
      <trkpt lat="40.7038870" lon="-4.0815130">
        <ele>1010.0</ele>
        <time>2019-04-28T09:24:21Z</time>
      </trkpt>
      <trkpt lat="40.7038050" lon="-4.0815480">
        <ele>1009.8</ele>
        <time>2019-04-28T09:24:22Z</time>
      </trkpt>
      <trkpt lat="40.7037240" lon="-4.0815810">
        <ele>1009.6</ele>
        <time>2019-04-28T09:24:23Z</time>
      </trkpt>
      <trkpt lat="40.7036430" lon="-4.0816080">
        <ele>1009.4</ele>
        <time>2019-04-28T09:24:24Z</time>
      </trkpt>
      <trkpt lat="40.7035640" lon="-4.0816390">
        <ele>1009.4</ele>
        <time>2019-04-28T09:24:25Z</time>
      </trkpt>
      <trkpt lat="40.7034870" lon="-4.0816730">
        <ele>1009.2</ele>
        <time>2019-04-28T09:24:26Z</time>
      </trkpt>
      <trkpt lat="40.7034100" lon="-4.0817050">
        <ele>1009.2</ele>
        <time>2019-04-28T09:24:27Z</time>
      </trkpt>
      <trkpt lat="40.7033310" lon="-4.0817340">
        <ele>1009.0</ele>
        <time>2019-04-28T09:24:28Z</time>
      </trkpt>
      <trkpt lat="40.7032540" lon="-4.0817680">
        <ele>1009.0</ele>
        <time>2019-04-28T09:24:29Z</time>
      </trkpt>
      <trkpt lat="40.7030990" lon="-4.0818390">
        <ele>1008.6</ele>
        <time>2019-04-28T09:24:30Z</time>
      </trkpt>
      <trkpt lat="40.7030600" lon="-4.0818590">
        <ele>1008.4</ele>
        <time>2019-04-28T09:24:31Z</time>
      </trkpt>
      <trkpt lat="40.7030210" lon="-4.0818780">
        <ele>1008.0</ele>
        <time>2019-04-28T09:24:32Z</time>
      </trkpt>
      <trkpt lat="40.7029430" lon="-4.0819170">
        <ele>1007.8</ele>
        <time>2019-04-28T09:24:33Z</time>
      </trkpt>
      <trkpt lat="40.7027850" lon="-4.0819940">
        <ele>1007.6</ele>
        <time>2019-04-28T09:24:34Z</time>
      </trkpt>
      <trkpt lat="40.7027450" lon="-4.0820130">
        <ele>1007.6</ele>
        <time>2019-04-28T09:24:35Z</time>
      </trkpt>
      <trkpt lat="40.7027050" lon="-4.0820310">
        <ele>1007.2</ele>
        <time>2019-04-28T09:24:36Z</time>
      </trkpt>
      <trkpt lat="40.7026250" lon="-4.0820710">
        <ele>1007.0</ele>
        <time>2019-04-28T09:24:37Z</time>
      </trkpt>
      <trkpt lat="40.7024670" lon="-4.0821510">
        <ele>1006.6</ele>
        <time>2019-04-28T09:24:38Z</time>
      </trkpt>
      <trkpt lat="40.7024270" lon="-4.0821720">
        <ele>1006.4</ele>
        <time>2019-04-28T09:24:39Z</time>
      </trkpt>
      <trkpt lat="40.7023870" lon="-4.0821920">
        <ele>1006.0</ele>
        <time>2019-04-28T09:24:40Z</time>
      </trkpt>
      <trkpt lat="40.7022200" lon="-4.0822720">
        <ele>1006.0</ele>
        <time>2019-04-28T09:24:41Z</time>
      </trkpt>
      <trkpt lat="40.7021780" lon="-4.0822930">
        <ele>1006.4</ele>
        <time>2019-04-28T09:24:42Z</time>
      </trkpt>
      <trkpt lat="40.7021350" lon="-4.0823140">
        <ele>1005.6</ele>
        <time>2019-04-28T09:24:43Z</time>
      </trkpt>
      <trkpt lat="40.7019610" lon="-4.0823930">
        <ele>1005.0</ele>
        <time>2019-04-28T09:24:44Z</time>
      </trkpt>
      <trkpt lat="40.7019180" lon="-4.0824150">
        <ele>1004.8</ele>
        <time>2019-04-28T09:24:45Z</time>
      </trkpt>
      <trkpt lat="40.7018740" lon="-4.0824360">
        <ele>1004.6</ele>
        <time>2019-04-28T09:24:46Z</time>
      </trkpt>
      <trkpt lat="40.7017860" lon="-4.0824800">
        <ele>1004.4</ele>
        <time>2019-04-28T09:24:47Z</time>
      </trkpt>
      <trkpt lat="40.7016950" lon="-4.0825270">
        <ele>1004.0</ele>
        <time>2019-04-28T09:24:48Z</time>
      </trkpt>
      <trkpt lat="40.7015570" lon="-4.0825950">
        <ele>1003.8</ele>
        <time>2019-04-28T09:24:49Z</time>
      </trkpt>
      <trkpt lat="40.7015100" lon="-4.0826160">
        <ele>1003.6</ele>
        <time>2019-04-28T09:24:50Z</time>
      </trkpt>
      <trkpt lat="40.7014160" lon="-4.0826610">
        <ele>1003.2</ele>
        <time>2019-04-28T09:24:51Z</time>
      </trkpt>
      <trkpt lat="40.7012740" lon="-4.0827280">
        <ele>1002.8</ele>
        <time>2019-04-28T09:24:52Z</time>
      </trkpt>
      <trkpt lat="40.7012250" lon="-4.0827500">
        <ele>1002.4</ele>
        <time>2019-04-28T09:24:53Z</time>
      </trkpt>
      <trkpt lat="40.7011280" lon="-4.0827930">
        <ele>1002.0</ele>
        <time>2019-04-28T09:24:54Z</time>
      </trkpt>
      <trkpt lat="40.7010330" lon="-4.0828380">
        <ele>1001.8</ele>
        <time>2019-04-28T09:24:55Z</time>
      </trkpt>
      <trkpt lat="40.7009370" lon="-4.0828820">
        <ele>1001.8</ele>
        <time>2019-04-28T09:24:56Z</time>
      </trkpt>
      <trkpt lat="40.7008420" lon="-4.0829260">
        <ele>1001.2</ele>
        <time>2019-04-28T09:24:57Z</time>
      </trkpt>
      <trkpt lat="40.7007490" lon="-4.0829720">
        <ele>1000.8</ele>
        <time>2019-04-28T09:24:58Z</time>
      </trkpt>
      <trkpt lat="40.7006080" lon="-4.0830420">
        <ele>1000.6</ele>
        <time>2019-04-28T09:24:59Z</time>
      </trkpt>
      <trkpt lat="40.7005610" lon="-4.0830660">
        <ele>1000.0</ele>
        <time>2019-04-28T09:25:00Z</time>
      </trkpt>
      <trkpt lat="40.7004660" lon="-4.0831130">
        <ele>999.8</ele>
        <time>2019-04-28T09:25:01Z</time>
      </trkpt>
      <trkpt lat="40.7003240" lon="-4.0831850">
        <ele>999.6</ele>
        <time>2019-04-28T09:25:02Z</time>
      </trkpt>
      <trkpt lat="40.7002760" lon="-4.0832080">
        <ele>999.4</ele>
        <time>2019-04-28T09:25:03Z</time>
      </trkpt>
      <trkpt lat="40.7001790" lon="-4.0832550">
        <ele>999.0</ele>
        <time>2019-04-28T09:25:04Z</time>
      </trkpt>
      <trkpt lat="40.7000850" lon="-4.0833030">
        <ele>998.8</ele>
        <time>2019-04-28T09:25:05Z</time>
      </trkpt>
      <trkpt lat="40.6999240" lon="-4.0833840">
        <ele>998.6</ele>
        <time>2019-04-28T09:25:06Z</time>
      </trkpt>
      <trkpt lat="40.6998560" lon="-4.0834180">
        <ele>998.2</ele>
        <time>2019-04-28T09:25:07Z</time>
      </trkpt>
      <trkpt lat="40.6997200" lon="-4.0834850">
        <ele>998.2</ele>
        <time>2019-04-28T09:25:08Z</time>
      </trkpt>
      <trkpt lat="40.6996760" lon="-4.0835030">
        <ele>998.4</ele>
        <time>2019-04-28T09:25:09Z</time>
      </trkpt>
      <trkpt lat="40.6996320" lon="-4.0835210">
        <ele>998.2</ele>
        <time>2019-04-28T09:25:10Z</time>
      </trkpt>
      <trkpt lat="40.6995440" lon="-4.0835620">
        <ele>998.2</ele>
        <time>2019-04-28T09:25:11Z</time>
      </trkpt>
      <trkpt lat="40.6993680" lon="-4.0836490">
        <ele>997.8</ele>
        <time>2019-04-28T09:25:12Z</time>
      </trkpt>
      <trkpt lat="40.6992810" lon="-4.0836910">
        <ele>997.8</ele>
        <time>2019-04-28T09:25:13Z</time>
      </trkpt>
      <trkpt lat="40.6992180" lon="-4.0837210">
        <ele>997.6</ele>
        <time>2019-04-28T09:25:14Z</time>
      </trkpt>
      <trkpt lat="40.6991540" lon="-4.0837500">
        <ele>997.6</ele>
        <time>2019-04-28T09:25:15Z</time>
      </trkpt>
      <trkpt lat="40.6990260" lon="-4.0838080">
        <ele>997.6</ele>
        <time>2019-04-28T09:25:16Z</time>
      </trkpt>
      <trkpt lat="40.6989430" lon="-4.0838470">
        <ele>997.4</ele>
        <time>2019-04-28T09:25:17Z</time>
      </trkpt>
      <trkpt lat="40.6988840" lon="-4.0838750">
        <ele>997.6</ele>
        <time>2019-04-28T09:25:18Z</time>
      </trkpt>
      <trkpt lat="40.6988240" lon="-4.0839030">
        <ele>997.4</ele>
        <time>2019-04-28T09:25:19Z</time>
      </trkpt>
      <trkpt lat="40.6987050" lon="-4.0839580">
        <ele>997.2</ele>
        <time>2019-04-28T09:25:20Z</time>
      </trkpt>
      <trkpt lat="40.6986660" lon="-4.0839780">
        <ele>997.2</ele>
        <time>2019-04-28T09:25:21Z</time>
      </trkpt>
      <trkpt lat="40.6986260" lon="-4.0839970">
        <ele>997.0</ele>
        <time>2019-04-28T09:25:22Z</time>
      </trkpt>
      <trkpt lat="40.6984680" lon="-4.0840710">
        <ele>997.0</ele>
        <time>2019-04-28T09:25:23Z</time>
      </trkpt>
      <trkpt lat="40.6984270" lon="-4.0840890">
        <ele>997.0</ele>
        <time>2019-04-28T09:25:24Z</time>
      </trkpt>
      <trkpt lat="40.6983850" lon="-4.0841070">
        <ele>996.6</ele>
        <time>2019-04-28T09:25:25Z</time>
      </trkpt>
      <trkpt lat="40.6982210" lon="-4.0841860">
        <ele>996.6</ele>
        <time>2019-04-28T09:25:26Z</time>
      </trkpt>
      <trkpt lat="40.6981370" lon="-4.0842240">
        <ele>996.2</ele>
        <time>2019-04-28T09:25:27Z</time>
      </trkpt>
      <trkpt lat="40.6980940" lon="-4.0842440">
        <ele>996.0</ele>
        <time>2019-04-28T09:25:28Z</time>
      </trkpt>
      <trkpt lat="40.6980510" lon="-4.0842630">
        <ele>996.0</ele>
        <time>2019-04-28T09:25:29Z</time>
      </trkpt>
      <trkpt lat="40.6978760" lon="-4.0843460">
        <ele>995.6</ele>
        <time>2019-04-28T09:25:30Z</time>
      </trkpt>
      <trkpt lat="40.6977880" lon="-4.0843890">
        <ele>995.4</ele>
        <time>2019-04-28T09:25:31Z</time>
      </trkpt>
      <trkpt lat="40.6977220" lon="-4.0844220">
        <ele>995.0</ele>
        <time>2019-04-28T09:25:32Z</time>
      </trkpt>
      <trkpt lat="40.6976550" lon="-4.0844540">
        <ele>994.8</ele>
        <time>2019-04-28T09:25:33Z</time>
      </trkpt>
      <trkpt lat="40.6975210" lon="-4.0845180">
        <ele>994.6</ele>
        <time>2019-04-28T09:25:34Z</time>
      </trkpt>
      <trkpt lat="40.6974310" lon="-4.0845610">
        <ele>994.4</ele>
        <time>2019-04-28T09:25:35Z</time>
      </trkpt>
      <trkpt lat="40.6973870" lon="-4.0845840">
        <ele>994.0</ele>
        <time>2019-04-28T09:25:36Z</time>
      </trkpt>
      <trkpt lat="40.6973430" lon="-4.0846060">
        <ele>994.0</ele>
        <time>2019-04-28T09:25:37Z</time>
      </trkpt>
      <trkpt lat="40.6971620" lon="-4.0846950">
        <ele>993.6</ele>
        <time>2019-04-28T09:25:38Z</time>
      </trkpt>
      <trkpt lat="40.6970710" lon="-4.0847390">
        <ele>993.6</ele>
        <time>2019-04-28T09:25:39Z</time>
      </trkpt>
      <trkpt lat="40.6970020" lon="-4.0847720">
        <ele>993.2</ele>
        <time>2019-04-28T09:25:40Z</time>
      </trkpt>
      <trkpt lat="40.6969330" lon="-4.0848050">
        <ele>992.8</ele>
        <time>2019-04-28T09:25:41Z</time>
      </trkpt>
      <trkpt lat="40.6967950" lon="-4.0848710">
        <ele>992.6</ele>
        <time>2019-04-28T09:25:42Z</time>
      </trkpt>
      <trkpt lat="40.6967040" lon="-4.0849170">
        <ele>992.4</ele>
        <time>2019-04-28T09:25:43Z</time>
      </trkpt>
      <trkpt lat="40.6966130" lon="-4.0849630">
        <ele>991.8</ele>
        <time>2019-04-28T09:25:44Z</time>
      </trkpt>
      <trkpt lat="40.6965220" lon="-4.0850070">
        <ele>992.2</ele>
        <time>2019-04-28T09:25:45Z</time>
      </trkpt>
      <trkpt lat="40.6964310" lon="-4.0850530">
        <ele>991.6</ele>
        <time>2019-04-28T09:25:46Z</time>
      </trkpt>
      <trkpt lat="40.6963850" lon="-4.0850760">
        <ele>991.6</ele>
        <time>2019-04-28T09:25:47Z</time>
      </trkpt>
      <trkpt lat="40.6963390" lon="-4.0850980">
        <ele>991.0</ele>
        <time>2019-04-28T09:25:48Z</time>
      </trkpt>
      <trkpt lat="40.6961970" lon="-4.0851670">
        <ele>990.8</ele>
        <time>2019-04-28T09:25:49Z</time>
      </trkpt>
      <trkpt lat="40.6960540" lon="-4.0852360">
        <ele>990.6</ele>
        <time>2019-04-28T09:25:50Z</time>
      </trkpt>
      <trkpt lat="40.6959560" lon="-4.0852840">
        <ele>990.2</ele>
        <time>2019-04-28T09:25:51Z</time>
      </trkpt>
      <trkpt lat="40.6958580" lon="-4.0853310">
        <ele>989.8</ele>
        <time>2019-04-28T09:25:52Z</time>
      </trkpt>
      <trkpt lat="40.6957590" lon="-4.0853810">
        <ele>989.4</ele>
        <time>2019-04-28T09:25:53Z</time>
      </trkpt>
      <trkpt lat="40.6956580" lon="-4.0854300">
        <ele>989.0</ele>
        <time>2019-04-28T09:25:54Z</time>
      </trkpt>
      <trkpt lat="40.6955820" lon="-4.0854680">
        <ele>988.6</ele>
        <time>2019-04-28T09:25:55Z</time>
      </trkpt>
      <trkpt lat="40.6955050" lon="-4.0855050">
        <ele>988.0</ele>
        <time>2019-04-28T09:25:56Z</time>
      </trkpt>
      <trkpt lat="40.6953510" lon="-4.0855790">
        <ele>987.6</ele>
        <time>2019-04-28T09:25:57Z</time>
      </trkpt>
      <trkpt lat="40.6952500" lon="-4.0856280">
        <ele>987.2</ele>
        <time>2019-04-28T09:25:58Z</time>
      </trkpt>
      <trkpt lat="40.6951770" lon="-4.0856650">
        <ele>987.0</ele>
        <time>2019-04-28T09:25:59Z</time>
      </trkpt>
      <trkpt lat="40.6951030" lon="-4.0857010">
        <ele>987.2</ele>
        <time>2019-04-28T09:26:00Z</time>
      </trkpt>
      <trkpt lat="40.6949560" lon="-4.0857740">
        <ele>986.8</ele>
        <time>2019-04-28T09:26:01Z</time>
      </trkpt>
      <trkpt lat="40.6948860" lon="-4.0858080">
        <ele>986.8</ele>
        <time>2019-04-28T09:26:02Z</time>
      </trkpt>
      <trkpt lat="40.6948160" lon="-4.0858420">
        <ele>986.8</ele>
        <time>2019-04-28T09:26:03Z</time>
      </trkpt>
      <trkpt lat="40.6946760" lon="-4.0859090">
        <ele>987.0</ele>
        <time>2019-04-28T09:26:04Z</time>
      </trkpt>
      <trkpt lat="40.6945840" lon="-4.0859570">
        <ele>986.8</ele>
        <time>2019-04-28T09:26:05Z</time>
      </trkpt>
      <trkpt lat="40.6944930" lon="-4.0860090">
        <ele>986.4</ele>
        <time>2019-04-28T09:26:06Z</time>
      </trkpt>
      <trkpt lat="40.6943980" lon="-4.0860610">
        <ele>986.2</ele>
        <time>2019-04-28T09:26:07Z</time>
      </trkpt>
      <trkpt lat="40.6943040" lon="-4.0861160">
        <ele>985.8</ele>
        <time>2019-04-28T09:26:08Z</time>
      </trkpt>
      <trkpt lat="40.6942100" lon="-4.0861620">
        <ele>985.6</ele>
        <time>2019-04-28T09:26:09Z</time>
      </trkpt>
      <trkpt lat="40.6941410" lon="-4.0861980">
        <ele>985.4</ele>
        <time>2019-04-28T09:26:10Z</time>
      </trkpt>
      <trkpt lat="40.6940720" lon="-4.0862340">
        <ele>985.4</ele>
        <time>2019-04-28T09:26:11Z</time>
      </trkpt>
      <trkpt lat="40.6939340" lon="-4.0863050">
        <ele>985.4</ele>
        <time>2019-04-28T09:26:12Z</time>
      </trkpt>
      <trkpt lat="40.6938400" lon="-4.0863560">
        <ele>985.2</ele>
        <time>2019-04-28T09:26:13Z</time>
      </trkpt>
      <trkpt lat="40.6937450" lon="-4.0864090">
        <ele>985.0</ele>
        <time>2019-04-28T09:26:14Z</time>
      </trkpt>
      <trkpt lat="40.6936750" lon="-4.0864470">
        <ele>984.8</ele>
        <time>2019-04-28T09:26:15Z</time>
      </trkpt>
      <trkpt lat="40.6936040" lon="-4.0864850">
        <ele>984.6</ele>
        <time>2019-04-28T09:26:16Z</time>
      </trkpt>
      <trkpt lat="40.6934620" lon="-4.0865600">
        <ele>984.4</ele>
        <time>2019-04-28T09:26:17Z</time>
      </trkpt>
      <trkpt lat="40.6933700" lon="-4.0866130">
        <ele>984.4</ele>
        <time>2019-04-28T09:26:18Z</time>
      </trkpt>
      <trkpt lat="40.6932800" lon="-4.0866720">
        <ele>984.6</ele>
        <time>2019-04-28T09:26:19Z</time>
      </trkpt>
      <trkpt lat="40.6931850" lon="-4.0867200">
        <ele>984.6</ele>
        <time>2019-04-28T09:26:20Z</time>
      </trkpt>
      <trkpt lat="40.6930980" lon="-4.0867540">
        <ele>984.6</ele>
        <time>2019-04-28T09:26:21Z</time>
      </trkpt>
      <trkpt lat="40.6930090" lon="-4.0867990">
        <ele>984.4</ele>
        <time>2019-04-28T09:26:22Z</time>
      </trkpt>
      <trkpt lat="40.6929150" lon="-4.0868410">
        <ele>984.4</ele>
        <time>2019-04-28T09:26:23Z</time>
      </trkpt>
      <trkpt lat="40.6928200" lon="-4.0868920">
        <ele>984.4</ele>
        <time>2019-04-28T09:26:24Z</time>
      </trkpt>
      <trkpt lat="40.6927250" lon="-4.0869420">
        <ele>984.0</ele>
        <time>2019-04-28T09:26:25Z</time>
      </trkpt>
      <trkpt lat="40.6926310" lon="-4.0869900">
        <ele>984.0</ele>
        <time>2019-04-28T09:26:26Z</time>
      </trkpt>
      <trkpt lat="40.6925380" lon="-4.0870400">
        <ele>983.6</ele>
        <time>2019-04-28T09:26:27Z</time>
      </trkpt>
      <trkpt lat="40.6924450" lon="-4.0870880">
        <ele>983.6</ele>
        <time>2019-04-28T09:26:28Z</time>
      </trkpt>
      <trkpt lat="40.6923510" lon="-4.0871360">
        <ele>983.6</ele>
        <time>2019-04-28T09:26:29Z</time>
      </trkpt>
      <trkpt lat="40.6922540" lon="-4.0871850">
        <ele>983.2</ele>
        <time>2019-04-28T09:26:30Z</time>
      </trkpt>
      <trkpt lat="40.6921610" lon="-4.0872350">
        <ele>983.0</ele>
        <time>2019-04-28T09:26:31Z</time>
      </trkpt>
      <trkpt lat="40.6919660" lon="-4.0873380">
        <ele>982.6</ele>
        <time>2019-04-28T09:26:33Z</time>
      </trkpt>
      <trkpt lat="40.6918660" lon="-4.0873890">
        <ele>982.4</ele>
        <time>2019-04-28T09:26:34Z</time>
      </trkpt>
      <trkpt lat="40.6917930" lon="-4.0874290">
        <ele>982.0</ele>
        <time>2019-04-28T09:26:35Z</time>
      </trkpt>
      <trkpt lat="40.6917190" lon="-4.0874680">
        <ele>981.6</ele>
        <time>2019-04-28T09:26:36Z</time>
      </trkpt>
      <trkpt lat="40.6915710" lon="-4.0875460">
        <ele>981.0</ele>
        <time>2019-04-28T09:26:37Z</time>
      </trkpt>
      <trkpt lat="40.6914730" lon="-4.0875980">
        <ele>980.6</ele>
        <time>2019-04-28T09:26:38Z</time>
      </trkpt>
      <trkpt lat="40.6913730" lon="-4.0876490">
        <ele>980.2</ele>
        <time>2019-04-28T09:26:39Z</time>
      </trkpt>
      <trkpt lat="40.6912730" lon="-4.0877070">
        <ele>979.6</ele>
        <time>2019-04-28T09:26:40Z</time>
      </trkpt>
      <trkpt lat="40.6911720" lon="-4.0877700">
        <ele>979.2</ele>
        <time>2019-04-28T09:26:41Z</time>
      </trkpt>
      <trkpt lat="40.6910710" lon="-4.0878330">
        <ele>978.6</ele>
        <time>2019-04-28T09:26:42Z</time>
      </trkpt>
      <trkpt lat="40.6909670" lon="-4.0878900">
        <ele>978.4</ele>
        <time>2019-04-28T09:26:43Z</time>
      </trkpt>
      <trkpt lat="40.6908630" lon="-4.0879430">
        <ele>978.0</ele>
        <time>2019-04-28T09:26:44Z</time>
      </trkpt>
      <trkpt lat="40.6907610" lon="-4.0879960">
        <ele>977.8</ele>
        <time>2019-04-28T09:26:45Z</time>
      </trkpt>
      <trkpt lat="40.6906600" lon="-4.0880450">
        <ele>977.6</ele>
        <time>2019-04-28T09:26:46Z</time>
      </trkpt>
      <trkpt lat="40.6905610" lon="-4.0880960">
        <ele>977.6</ele>
        <time>2019-04-28T09:26:47Z</time>
      </trkpt>
      <trkpt lat="40.6904640" lon="-4.0881450">
        <ele>977.6</ele>
        <time>2019-04-28T09:26:48Z</time>
      </trkpt>
      <trkpt lat="40.6903710" lon="-4.0881920">
        <ele>977.4</ele>
        <time>2019-04-28T09:26:49Z</time>
      </trkpt>
      <trkpt lat="40.6902760" lon="-4.0882410">
        <ele>977.4</ele>
        <time>2019-04-28T09:26:50Z</time>
      </trkpt>
      <trkpt lat="40.6901820" lon="-4.0882900">
        <ele>977.6</ele>
        <time>2019-04-28T09:26:51Z</time>
      </trkpt>
      <trkpt lat="40.6900910" lon="-4.0883360">
        <ele>977.4</ele>
        <time>2019-04-28T09:26:52Z</time>
      </trkpt>
      <trkpt lat="40.6900000" lon="-4.0883810">
        <ele>977.2</ele>
        <time>2019-04-28T09:26:53Z</time>
      </trkpt>
      <trkpt lat="40.6899120" lon="-4.0884280">
        <ele>977.2</ele>
        <time>2019-04-28T09:26:54Z</time>
      </trkpt>
      <trkpt lat="40.6898240" lon="-4.0884750">
        <ele>977.0</ele>
        <time>2019-04-28T09:26:55Z</time>
      </trkpt>
      <trkpt lat="40.6897340" lon="-4.0885200">
        <ele>976.8</ele>
        <time>2019-04-28T09:26:56Z</time>
      </trkpt>
      <trkpt lat="40.6896430" lon="-4.0885680">
        <ele>976.4</ele>
        <time>2019-04-28T09:26:57Z</time>
      </trkpt>
      <trkpt lat="40.6895520" lon="-4.0886160">
        <ele>976.0</ele>
        <time>2019-04-28T09:26:58Z</time>
      </trkpt>
      <trkpt lat="40.6894590" lon="-4.0886610">
        <ele>975.4</ele>
        <time>2019-04-28T09:26:59Z</time>
      </trkpt>
      <trkpt lat="40.6893660" lon="-4.0887090">
        <ele>975.2</ele>
        <time>2019-04-28T09:27:00Z</time>
      </trkpt>
      <trkpt lat="40.6892720" lon="-4.0887600">
        <ele>974.8</ele>
        <time>2019-04-28T09:27:01Z</time>
      </trkpt>
      <trkpt lat="40.6891770" lon="-4.0888080">
        <ele>974.4</ele>
        <time>2019-04-28T09:27:02Z</time>
      </trkpt>
      <trkpt lat="40.6890830" lon="-4.0888600">
        <ele>974.2</ele>
        <time>2019-04-28T09:27:03Z</time>
      </trkpt>
      <trkpt lat="40.6889870" lon="-4.0889120">
        <ele>974.0</ele>
        <time>2019-04-28T09:27:04Z</time>
      </trkpt>
      <trkpt lat="40.6888910" lon="-4.0889660">
        <ele>973.6</ele>
        <time>2019-04-28T09:27:05Z</time>
      </trkpt>
      <trkpt lat="40.6887940" lon="-4.0890210">
        <ele>973.6</ele>
        <time>2019-04-28T09:27:06Z</time>
      </trkpt>
      <trkpt lat="40.6886950" lon="-4.0890770">
        <ele>973.2</ele>
        <time>2019-04-28T09:27:07Z</time>
      </trkpt>
      <trkpt lat="40.6885940" lon="-4.0891270">
        <ele>972.8</ele>
        <time>2019-04-28T09:27:08Z</time>
      </trkpt>
      <trkpt lat="40.6884940" lon="-4.0891800">
        <ele>972.6</ele>
        <time>2019-04-28T09:27:09Z</time>
      </trkpt>
      <trkpt lat="40.6883940" lon="-4.0892370">
        <ele>972.2</ele>
        <time>2019-04-28T09:27:10Z</time>
      </trkpt>
      <trkpt lat="40.6882940" lon="-4.0892880">
        <ele>971.8</ele>
        <time>2019-04-28T09:27:11Z</time>
      </trkpt>
      <trkpt lat="40.6881910" lon="-4.0893350">
        <ele>971.4</ele>
        <time>2019-04-28T09:27:12Z</time>
      </trkpt>
      <trkpt lat="40.6880880" lon="-4.0893810">
        <ele>971.4</ele>
        <time>2019-04-28T09:27:13Z</time>
      </trkpt>
      <trkpt lat="40.6879850" lon="-4.0894230">
        <ele>971.0</ele>
        <time>2019-04-28T09:27:14Z</time>
      </trkpt>
      <trkpt lat="40.6878820" lon="-4.0894640">
        <ele>970.8</ele>
        <time>2019-04-28T09:27:15Z</time>
      </trkpt>
      <trkpt lat="40.6877770" lon="-4.0895000">
        <ele>970.4</ele>
        <time>2019-04-28T09:27:16Z</time>
      </trkpt>
      <trkpt lat="40.6876740" lon="-4.0895380">
        <ele>970.4</ele>
        <time>2019-04-28T09:27:17Z</time>
      </trkpt>
      <trkpt lat="40.6875720" lon="-4.0895790">
        <ele>970.0</ele>
        <time>2019-04-28T09:27:18Z</time>
      </trkpt>
      <trkpt lat="40.6874700" lon="-4.0896200">
        <ele>970.0</ele>
        <time>2019-04-28T09:27:19Z</time>
      </trkpt>
      <trkpt lat="40.6873690" lon="-4.0896610">
        <ele>969.6</ele>
        <time>2019-04-28T09:27:20Z</time>
      </trkpt>
      <trkpt lat="40.6872730" lon="-4.0896990">
        <ele>969.4</ele>
        <time>2019-04-28T09:27:21Z</time>
      </trkpt>
      <trkpt lat="40.6871750" lon="-4.0897360">
        <ele>969.4</ele>
        <time>2019-04-28T09:27:22Z</time>
      </trkpt>
      <trkpt lat="40.6870770" lon="-4.0897760">
        <ele>969.0</ele>
        <time>2019-04-28T09:27:23Z</time>
      </trkpt>
      <trkpt lat="40.6869790" lon="-4.0898150">
        <ele>969.0</ele>
        <time>2019-04-28T09:27:24Z</time>
      </trkpt>
      <trkpt lat="40.6868790" lon="-4.0898540">
        <ele>969.0</ele>
        <time>2019-04-28T09:27:25Z</time>
      </trkpt>
      <trkpt lat="40.6867820" lon="-4.0898950">
        <ele>968.8</ele>
        <time>2019-04-28T09:27:26Z</time>
      </trkpt>
      <trkpt lat="40.6866830" lon="-4.0899320">
        <ele>968.6</ele>
        <time>2019-04-28T09:27:27Z</time>
      </trkpt>
      <trkpt lat="40.6865860" lon="-4.0899660">
        <ele>968.4</ele>
        <time>2019-04-28T09:27:28Z</time>
      </trkpt>
      <trkpt lat="40.6864900" lon="-4.0900040">
        <ele>968.2</ele>
        <time>2019-04-28T09:27:29Z</time>
      </trkpt>
      <trkpt lat="40.6863940" lon="-4.0900420">
        <ele>968.2</ele>
        <time>2019-04-28T09:27:30Z</time>
      </trkpt>
      <trkpt lat="40.6862960" lon="-4.0900780">
        <ele>968.2</ele>
        <time>2019-04-28T09:27:31Z</time>
      </trkpt>
      <trkpt lat="40.6862000" lon="-4.0901130">
        <ele>968.0</ele>
        <time>2019-04-28T09:27:32Z</time>
      </trkpt>
      <trkpt lat="40.6861040" lon="-4.0901510">
        <ele>967.8</ele>
        <time>2019-04-28T09:27:33Z</time>
      </trkpt>
      <trkpt lat="40.6860080" lon="-4.0901910">
        <ele>967.6</ele>
        <time>2019-04-28T09:27:34Z</time>
      </trkpt>
      <trkpt lat="40.6859130" lon="-4.0902310">
        <ele>967.6</ele>
        <time>2019-04-28T09:27:35Z</time>
      </trkpt>
      <trkpt lat="40.6858190" lon="-4.0902660">
        <ele>967.4</ele>
        <time>2019-04-28T09:27:36Z</time>
      </trkpt>
      <trkpt lat="40.6857260" lon="-4.0903030">
        <ele>967.2</ele>
        <time>2019-04-28T09:27:37Z</time>
      </trkpt>
      <trkpt lat="40.6856360" lon="-4.0903410">
        <ele>967.2</ele>
        <time>2019-04-28T09:27:38Z</time>
      </trkpt>
      <trkpt lat="40.6855470" lon="-4.0903770">
        <ele>967.0</ele>
        <time>2019-04-28T09:27:39Z</time>
      </trkpt>
      <trkpt lat="40.6854570" lon="-4.0904130">
        <ele>966.8</ele>
        <time>2019-04-28T09:27:40Z</time>
      </trkpt>
      <trkpt lat="40.6853720" lon="-4.0904500">
        <ele>967.0</ele>
        <time>2019-04-28T09:27:41Z</time>
      </trkpt>
      <trkpt lat="40.6852830" lon="-4.0904860">
        <ele>966.8</ele>
        <time>2019-04-28T09:27:42Z</time>
      </trkpt>
      <trkpt lat="40.6851960" lon="-4.0905190">
        <ele>966.6</ele>
        <time>2019-04-28T09:27:43Z</time>
      </trkpt>
      <trkpt lat="40.6851130" lon="-4.0905510">
        <ele>966.8</ele>
        <time>2019-04-28T09:27:44Z</time>
      </trkpt>
      <trkpt lat="40.6850290" lon="-4.0905830">
        <ele>966.8</ele>
        <time>2019-04-28T09:27:45Z</time>
      </trkpt>
      <trkpt lat="40.6849440" lon="-4.0906170">
        <ele>966.8</ele>
        <time>2019-04-28T09:27:46Z</time>
      </trkpt>
      <trkpt lat="40.6848640" lon="-4.0906500">
        <ele>966.8</ele>
        <time>2019-04-28T09:27:47Z</time>
      </trkpt>
      <trkpt lat="40.6847790" lon="-4.0906860">
        <ele>966.8</ele>
        <time>2019-04-28T09:27:48Z</time>
      </trkpt>
      <trkpt lat="40.6846940" lon="-4.0907150">
        <ele>967.0</ele>
        <time>2019-04-28T09:27:49Z</time>
      </trkpt>
      <trkpt lat="40.6846080" lon="-4.0907440">
        <ele>967.0</ele>
        <time>2019-04-28T09:27:50Z</time>
      </trkpt>
      <trkpt lat="40.6845190" lon="-4.0907770">
        <ele>967.4</ele>
        <time>2019-04-28T09:27:51Z</time>
      </trkpt>
      <trkpt lat="40.6844320" lon="-4.0908100">
        <ele>967.4</ele>
        <time>2019-04-28T09:27:52Z</time>
      </trkpt>
      <trkpt lat="40.6843430" lon="-4.0908410">
        <ele>967.6</ele>
        <time>2019-04-28T09:27:53Z</time>
      </trkpt>
      <trkpt lat="40.6842540" lon="-4.0908740">
        <ele>967.6</ele>
        <time>2019-04-28T09:27:54Z</time>
      </trkpt>
      <trkpt lat="40.6841640" lon="-4.0909090">
        <ele>967.6</ele>
        <time>2019-04-28T09:27:55Z</time>
      </trkpt>
      <trkpt lat="40.6840730" lon="-4.0909450">
        <ele>967.4</ele>
        <time>2019-04-28T09:27:56Z</time>
      </trkpt>
      <trkpt lat="40.6839870" lon="-4.0909860">
        <ele>967.2</ele>
        <time>2019-04-28T09:27:57Z</time>
      </trkpt>
      <trkpt lat="40.6838930" lon="-4.0910340">
        <ele>967.2</ele>
        <time>2019-04-28T09:27:58Z</time>
      </trkpt>
      <trkpt lat="40.6838010" lon="-4.0910790">
        <ele>967.0</ele>
        <time>2019-04-28T09:27:59Z</time>
      </trkpt>
      <trkpt lat="40.6837160" lon="-4.0911220">
        <ele>967.0</ele>
        <time>2019-04-28T09:28:00Z</time>
      </trkpt>
      <trkpt lat="40.6836290" lon="-4.0911680">
        <ele>967.0</ele>
        <time>2019-04-28T09:28:01Z</time>
      </trkpt>
      <trkpt lat="40.6835430" lon="-4.0912020">
        <ele>967.0</ele>
        <time>2019-04-28T09:28:02Z</time>
      </trkpt>
      <trkpt lat="40.6834560" lon="-4.0912360">
        <ele>967.0</ele>
        <time>2019-04-28T09:28:03Z</time>
      </trkpt>
      <trkpt lat="40.6833690" lon="-4.0912660">
        <ele>967.0</ele>
        <time>2019-04-28T09:28:04Z</time>
      </trkpt>
      <trkpt lat="40.6832840" lon="-4.0912980">
        <ele>966.8</ele>
        <time>2019-04-28T09:28:05Z</time>
      </trkpt>
      <trkpt lat="40.6831970" lon="-4.0913310">
        <ele>966.6</ele>
        <time>2019-04-28T09:28:06Z</time>
      </trkpt>
      <trkpt lat="40.6831090" lon="-4.0913620">
        <ele>966.6</ele>
        <time>2019-04-28T09:28:07Z</time>
      </trkpt>
      <trkpt lat="40.6830210" lon="-4.0913930">
        <ele>966.4</ele>
        <time>2019-04-28T09:28:08Z</time>
      </trkpt>
      <trkpt lat="40.6829340" lon="-4.0914270">
        <ele>966.4</ele>
        <time>2019-04-28T09:28:09Z</time>
      </trkpt>
      <trkpt lat="40.6828460" lon="-4.0914630">
        <ele>966.4</ele>
        <time>2019-04-28T09:28:10Z</time>
      </trkpt>
      <trkpt lat="40.6827590" lon="-4.0914980">
        <ele>966.2</ele>
        <time>2019-04-28T09:28:11Z</time>
      </trkpt>
      <trkpt lat="40.6826690" lon="-4.0915330">
        <ele>966.2</ele>
        <time>2019-04-28T09:28:12Z</time>
      </trkpt>
      <trkpt lat="40.6825820" lon="-4.0915690">
        <ele>966.2</ele>
        <time>2019-04-28T09:28:13Z</time>
      </trkpt>
      <trkpt lat="40.6824900" lon="-4.0916040">
        <ele>966.0</ele>
        <time>2019-04-28T09:28:14Z</time>
      </trkpt>
      <trkpt lat="40.6824000" lon="-4.0916420">
        <ele>966.0</ele>
        <time>2019-04-28T09:28:15Z</time>
      </trkpt>
      <trkpt lat="40.6823080" lon="-4.0916790">
        <ele>965.8</ele>
        <time>2019-04-28T09:28:16Z</time>
      </trkpt>
      <trkpt lat="40.6822150" lon="-4.0917150">
        <ele>965.6</ele>
        <time>2019-04-28T09:28:17Z</time>
      </trkpt>
      <trkpt lat="40.6821200" lon="-4.0917530">
        <ele>965.6</ele>
        <time>2019-04-28T09:28:18Z</time>
      </trkpt>
      <trkpt lat="40.6820280" lon="-4.0917890">
        <ele>965.4</ele>
        <time>2019-04-28T09:28:19Z</time>
      </trkpt>
      <trkpt lat="40.6819350" lon="-4.0918260">
        <ele>965.4</ele>
        <time>2019-04-28T09:28:20Z</time>
      </trkpt>
      <trkpt lat="40.6818440" lon="-4.0918630">
        <ele>965.2</ele>
        <time>2019-04-28T09:28:21Z</time>
      </trkpt>
      <trkpt lat="40.6817520" lon="-4.0919010">
        <ele>965.2</ele>
        <time>2019-04-28T09:28:22Z</time>
      </trkpt>
      <trkpt lat="40.6816600" lon="-4.0919400">
        <ele>965.0</ele>
        <time>2019-04-28T09:28:23Z</time>
      </trkpt>
      <trkpt lat="40.6815680" lon="-4.0919770">
        <ele>965.0</ele>
        <time>2019-04-28T09:28:24Z</time>
      </trkpt>
      <trkpt lat="40.6814760" lon="-4.0920100">
        <ele>964.8</ele>
        <time>2019-04-28T09:28:25Z</time>
      </trkpt>
      <trkpt lat="40.6813850" lon="-4.0920460">
        <ele>964.6</ele>
        <time>2019-04-28T09:28:26Z</time>
      </trkpt>
      <trkpt lat="40.6812930" lon="-4.0920820">
        <ele>964.6</ele>
        <time>2019-04-28T09:28:27Z</time>
      </trkpt>
      <trkpt lat="40.6812030" lon="-4.0921170">
        <ele>964.6</ele>
        <time>2019-04-28T09:28:28Z</time>
      </trkpt>
      <trkpt lat="40.6811110" lon="-4.0921540">
        <ele>964.4</ele>
        <time>2019-04-28T09:28:29Z</time>
      </trkpt>
      <trkpt lat="40.6810200" lon="-4.0921920">
        <ele>964.4</ele>
        <time>2019-04-28T09:28:30Z</time>
      </trkpt>
      <trkpt lat="40.6809280" lon="-4.0922310">
        <ele>964.4</ele>
        <time>2019-04-28T09:28:31Z</time>
      </trkpt>
      <trkpt lat="40.6808360" lon="-4.0922680">
        <ele>964.0</ele>
        <time>2019-04-28T09:28:32Z</time>
      </trkpt>
      <trkpt lat="40.6807450" lon="-4.0923020">
        <ele>964.0</ele>
        <time>2019-04-28T09:28:33Z</time>
      </trkpt>
      <trkpt lat="40.6806540" lon="-4.0923390">
        <ele>964.0</ele>
        <time>2019-04-28T09:28:34Z</time>
      </trkpt>
      <trkpt lat="40.6805640" lon="-4.0923750">
        <ele>964.0</ele>
        <time>2019-04-28T09:28:35Z</time>
      </trkpt>
      <trkpt lat="40.6804740" lon="-4.0924090">
        <ele>964.2</ele>
        <time>2019-04-28T09:28:36Z</time>
      </trkpt>
      <trkpt lat="40.6803870" lon="-4.0924420">
        <ele>964.0</ele>
        <time>2019-04-28T09:28:37Z</time>
      </trkpt>
      <trkpt lat="40.6803020" lon="-4.0924770">
        <ele>964.0</ele>
        <time>2019-04-28T09:28:38Z</time>
      </trkpt>
      <trkpt lat="40.6802180" lon="-4.0925160">
        <ele>964.2</ele>
        <time>2019-04-28T09:28:39Z</time>
      </trkpt>
      <trkpt lat="40.6801350" lon="-4.0925530">
        <ele>964.2</ele>
        <time>2019-04-28T09:28:40Z</time>
      </trkpt>
      <trkpt lat="40.6800540" lon="-4.0925900">
        <ele>964.0</ele>
        <time>2019-04-28T09:28:41Z</time>
      </trkpt>
      <trkpt lat="40.6799720" lon="-4.0926250">
        <ele>964.0</ele>
        <time>2019-04-28T09:28:42Z</time>
      </trkpt>
      <trkpt lat="40.6798940" lon="-4.0926650">
        <ele>964.2</ele>
        <time>2019-04-28T09:28:43Z</time>
      </trkpt>
      <trkpt lat="40.6798150" lon="-4.0927020">
        <ele>964.2</ele>
        <time>2019-04-28T09:28:44Z</time>
      </trkpt>
      <trkpt lat="40.6797370" lon="-4.0927340">
        <ele>964.2</ele>
        <time>2019-04-28T09:28:45Z</time>
      </trkpt>
      <trkpt lat="40.6796590" lon="-4.0927640">
        <ele>964.4</ele>
        <time>2019-04-28T09:28:46Z</time>
      </trkpt>
      <trkpt lat="40.6795800" lon="-4.0927780">
        <ele>964.4</ele>
        <time>2019-04-28T09:28:47Z</time>
      </trkpt>
      <trkpt lat="40.6795050" lon="-4.0927590">
        <ele>964.4</ele>
        <time>2019-04-28T09:28:48Z</time>
      </trkpt>
      <trkpt lat="40.6794360" lon="-4.0927100">
        <ele>964.4</ele>
        <time>2019-04-28T09:28:49Z</time>
      </trkpt>
      <trkpt lat="40.6793750" lon="-4.0926520">
        <ele>964.2</ele>
        <time>2019-04-28T09:28:50Z</time>
      </trkpt>
      <trkpt lat="40.6793100" lon="-4.0925940">
        <ele>964.0</ele>
        <time>2019-04-28T09:28:51Z</time>
      </trkpt>
      <trkpt lat="40.6792440" lon="-4.0925450">
        <ele>964.0</ele>
        <time>2019-04-28T09:28:52Z</time>
      </trkpt>
      <trkpt lat="40.6791790" lon="-4.0925010">
        <ele>964.0</ele>
        <time>2019-04-28T09:28:53Z</time>
      </trkpt>
      <trkpt lat="40.6791130" lon="-4.0924620">
        <ele>964.0</ele>
        <time>2019-04-28T09:28:54Z</time>
      </trkpt>
      <trkpt lat="40.6790470" lon="-4.0924250">
        <ele>964.0</ele>
        <time>2019-04-28T09:28:55Z</time>
      </trkpt>
      <trkpt lat="40.6789850" lon="-4.0923850">
        <ele>963.8</ele>
        <time>2019-04-28T09:28:56Z</time>
      </trkpt>
      <trkpt lat="40.6789240" lon="-4.0923460">
        <ele>963.6</ele>
        <time>2019-04-28T09:28:57Z</time>
      </trkpt>
      <trkpt lat="40.6788650" lon="-4.0923090">
        <ele>963.4</ele>
        <time>2019-04-28T09:28:58Z</time>
      </trkpt>
      <trkpt lat="40.6788070" lon="-4.0922750">
        <ele>963.4</ele>
        <time>2019-04-28T09:28:59Z</time>
      </trkpt>
      <trkpt lat="40.6787490" lon="-4.0922450">
        <ele>963.2</ele>
        <time>2019-04-28T09:29:00Z</time>
      </trkpt>
      <trkpt lat="40.6786870" lon="-4.0922160">
        <ele>963.2</ele>
        <time>2019-04-28T09:29:01Z</time>
      </trkpt>
      <trkpt lat="40.6786250" lon="-4.0921800">
        <ele>963.2</ele>
        <time>2019-04-28T09:29:02Z</time>
      </trkpt>
      <trkpt lat="40.6785630" lon="-4.0921390">
        <ele>963.0</ele>
        <time>2019-04-28T09:29:03Z</time>
      </trkpt>
      <trkpt lat="40.6785010" lon="-4.0920990">
        <ele>963.0</ele>
        <time>2019-04-28T09:29:04Z</time>
      </trkpt>
      <trkpt lat="40.6784360" lon="-4.0920610">
        <ele>963.0</ele>
        <time>2019-04-28T09:29:05Z</time>
      </trkpt>
      <trkpt lat="40.6783710" lon="-4.0920220">
        <ele>963.0</ele>
        <time>2019-04-28T09:29:06Z</time>
      </trkpt>
      <trkpt lat="40.6783070" lon="-4.0919800">
        <ele>962.8</ele>
        <time>2019-04-28T09:29:07Z</time>
      </trkpt>
      <trkpt lat="40.6782410" lon="-4.0919400">
        <ele>962.6</ele>
        <time>2019-04-28T09:29:08Z</time>
      </trkpt>
      <trkpt lat="40.6781760" lon="-4.0918970">
        <ele>962.6</ele>
        <time>2019-04-28T09:29:09Z</time>
      </trkpt>
      <trkpt lat="40.6781090" lon="-4.0918590">
        <ele>962.6</ele>
        <time>2019-04-28T09:29:10Z</time>
      </trkpt>
      <trkpt lat="40.6779770" lon="-4.0917730">
        <ele>962.6</ele>
        <time>2019-04-28T09:29:12Z</time>
      </trkpt>
      <trkpt lat="40.6779120" lon="-4.0917280">
        <ele>962.2</ele>
        <time>2019-04-28T09:29:13Z</time>
      </trkpt>
      <trkpt lat="40.6778460" lon="-4.0916840">
        <ele>962.2</ele>
        <time>2019-04-28T09:29:14Z</time>
      </trkpt>
      <trkpt lat="40.6777820" lon="-4.0916420">
        <ele>962.0</ele>
        <time>2019-04-28T09:29:15Z</time>
      </trkpt>
      <trkpt lat="40.6777220" lon="-4.0916040">
        <ele>962.2</ele>
        <time>2019-04-28T09:29:16Z</time>
      </trkpt>
      <trkpt lat="40.6776630" lon="-4.0915600">
        <ele>962.0</ele>
        <time>2019-04-28T09:29:17Z</time>
      </trkpt>
      <trkpt lat="40.6776060" lon="-4.0915100">
        <ele>962.0</ele>
        <time>2019-04-28T09:29:18Z</time>
      </trkpt>
      <trkpt lat="40.6775520" lon="-4.0914660">
        <ele>962.0</ele>
        <time>2019-04-28T09:29:19Z</time>
      </trkpt>
      <trkpt lat="40.6775010" lon="-4.0914210">
        <ele>962.0</ele>
        <time>2019-04-28T09:29:20Z</time>
      </trkpt>
      <trkpt lat="40.6774510" lon="-4.0913720">
        <ele>962.0</ele>
        <time>2019-04-28T09:29:21Z</time>
      </trkpt>
      <trkpt lat="40.6773960" lon="-4.0913170">
        <ele>962.2</ele>
        <time>2019-04-28T09:29:22Z</time>
      </trkpt>
      <trkpt lat="40.6773440" lon="-4.0912740">
        <ele>962.2</ele>
        <time>2019-04-28T09:29:23Z</time>
      </trkpt>
      <trkpt lat="40.6772890" lon="-4.0912270">
        <ele>962.2</ele>
        <time>2019-04-28T09:29:24Z</time>
      </trkpt>
      <trkpt lat="40.6772360" lon="-4.0911810">
        <ele>962.0</ele>
        <time>2019-04-28T09:29:25Z</time>
      </trkpt>
      <trkpt lat="40.6771810" lon="-4.0911420">
        <ele>962.0</ele>
        <time>2019-04-28T09:29:26Z</time>
      </trkpt>
      <trkpt lat="40.6771260" lon="-4.0911010">
        <ele>962.0</ele>
        <time>2019-04-28T09:29:27Z</time>
      </trkpt>
      <trkpt lat="40.6770670" lon="-4.0910610">
        <ele>961.8</ele>
        <time>2019-04-28T09:29:28Z</time>
      </trkpt>
      <trkpt lat="40.6770080" lon="-4.0910280">
        <ele>961.8</ele>
        <time>2019-04-28T09:29:29Z</time>
      </trkpt>
      <trkpt lat="40.6769490" lon="-4.0909950">
        <ele>961.6</ele>
        <time>2019-04-28T09:29:30Z</time>
      </trkpt>
      <trkpt lat="40.6768900" lon="-4.0909580">
        <ele>961.6</ele>
        <time>2019-04-28T09:29:31Z</time>
      </trkpt>
      <trkpt lat="40.6768330" lon="-4.0909240">
        <ele>961.4</ele>
        <time>2019-04-28T09:29:32Z</time>
      </trkpt>
      <trkpt lat="40.6767730" lon="-4.0908800">
        <ele>961.4</ele>
        <time>2019-04-28T09:29:33Z</time>
      </trkpt>
      <trkpt lat="40.6767140" lon="-4.0908520">
        <ele>961.4</ele>
        <time>2019-04-28T09:29:34Z</time>
      </trkpt>
      <trkpt lat="40.6766550" lon="-4.0908280">
        <ele>961.2</ele>
        <time>2019-04-28T09:29:35Z</time>
      </trkpt>
      <trkpt lat="40.6765940" lon="-4.0907980">
        <ele>961.0</ele>
        <time>2019-04-28T09:29:36Z</time>
      </trkpt>
      <trkpt lat="40.6765350" lon="-4.0907640">
        <ele>961.2</ele>
        <time>2019-04-28T09:29:37Z</time>
      </trkpt>
      <trkpt lat="40.6764770" lon="-4.0907280">
        <ele>961.4</ele>
        <time>2019-04-28T09:29:38Z</time>
      </trkpt>
      <trkpt lat="40.6764220" lon="-4.0906870">
        <ele>961.2</ele>
        <time>2019-04-28T09:29:39Z</time>
      </trkpt>
      <trkpt lat="40.6763640" lon="-4.0906420">
        <ele>961.0</ele>
        <time>2019-04-28T09:29:40Z</time>
      </trkpt>
      <trkpt lat="40.6763070" lon="-4.0905990">
        <ele>961.0</ele>
        <time>2019-04-28T09:29:41Z</time>
      </trkpt>
      <trkpt lat="40.6762500" lon="-4.0905530">
        <ele>961.2</ele>
        <time>2019-04-28T09:29:42Z</time>
      </trkpt>
      <trkpt lat="40.6761900" lon="-4.0905040">
        <ele>961.2</ele>
        <time>2019-04-28T09:29:43Z</time>
      </trkpt>
      <trkpt lat="40.6761290" lon="-4.0904600">
        <ele>961.2</ele>
        <time>2019-04-28T09:29:44Z</time>
      </trkpt>
      <trkpt lat="40.6760660" lon="-4.0904240">
        <ele>961.0</ele>
        <time>2019-04-28T09:29:45Z</time>
      </trkpt>
      <trkpt lat="40.6760000" lon="-4.0904020">
        <ele>961.0</ele>
        <time>2019-04-28T09:29:46Z</time>
      </trkpt>
      <trkpt lat="40.6759320" lon="-4.0903890">
        <ele>961.0</ele>
        <time>2019-04-28T09:29:47Z</time>
      </trkpt>
      <trkpt lat="40.6758670" lon="-4.0903920">
        <ele>961.0</ele>
        <time>2019-04-28T09:29:48Z</time>
      </trkpt>
      <trkpt lat="40.6758050" lon="-4.0904000">
        <ele>961.0</ele>
        <time>2019-04-28T09:29:49Z</time>
      </trkpt>
      <trkpt lat="40.6757400" lon="-4.0904080">
        <ele>961.0</ele>
        <time>2019-04-28T09:29:50Z</time>
      </trkpt>
      <trkpt lat="40.6756720" lon="-4.0904120">
        <ele>961.0</ele>
        <time>2019-04-28T09:29:51Z</time>
      </trkpt>
      <trkpt lat="40.6756070" lon="-4.0904260">
        <ele>961.0</ele>
        <time>2019-04-28T09:29:52Z</time>
      </trkpt>
      <trkpt lat="40.6755410" lon="-4.0904420">
        <ele>961.2</ele>
        <time>2019-04-28T09:29:53Z</time>
      </trkpt>
      <trkpt lat="40.6754730" lon="-4.0904530">
        <ele>961.2</ele>
        <time>2019-04-28T09:29:54Z</time>
      </trkpt>
      <trkpt lat="40.6754090" lon="-4.0904670">
        <ele>961.2</ele>
        <time>2019-04-28T09:29:55Z</time>
      </trkpt>
      <trkpt lat="40.6753480" lon="-4.0904830">
        <ele>961.2</ele>
        <time>2019-04-28T09:29:56Z</time>
      </trkpt>
      <trkpt lat="40.6752880" lon="-4.0904990">
        <ele>961.2</ele>
        <time>2019-04-28T09:29:57Z</time>
      </trkpt>
      <trkpt lat="40.6752270" lon="-4.0905130">
        <ele>961.0</ele>
        <time>2019-04-28T09:29:58Z</time>
      </trkpt>
      <trkpt lat="40.6751710" lon="-4.0905260">
        <ele>960.8</ele>
        <time>2019-04-28T09:29:59Z</time>
      </trkpt>
      <trkpt lat="40.6751140" lon="-4.0905280">
        <ele>960.6</ele>
        <time>2019-04-28T09:30:00Z</time>
      </trkpt>
      <trkpt lat="40.6750620" lon="-4.0905020">
        <ele>960.4</ele>
        <time>2019-04-28T09:30:01Z</time>
      </trkpt>
      <trkpt lat="40.6750280" lon="-4.0904520">
        <ele>960.0</ele>
        <time>2019-04-28T09:30:02Z</time>
      </trkpt>
      <trkpt lat="40.6750110" lon="-4.0903840">
        <ele>960.0</ele>
        <time>2019-04-28T09:30:03Z</time>
      </trkpt>
      <trkpt lat="40.6750020" lon="-4.0903060">
        <ele>959.8</ele>
        <time>2019-04-28T09:30:04Z</time>
      </trkpt>
      <trkpt lat="40.6749990" lon="-4.0902250">
        <ele>959.8</ele>
        <time>2019-04-28T09:30:05Z</time>
      </trkpt>
      <trkpt lat="40.6750000" lon="-4.0901440">
        <ele>959.4</ele>
        <time>2019-04-28T09:30:06Z</time>
      </trkpt>
      <trkpt lat="40.6749980" lon="-4.0900620">
        <ele>959.4</ele>
        <time>2019-04-28T09:30:07Z</time>
      </trkpt>
      <trkpt lat="40.6749960" lon="-4.0899820">
        <ele>959.2</ele>
        <time>2019-04-28T09:30:08Z</time>
      </trkpt>
      <trkpt lat="40.6749930" lon="-4.0899010">
        <ele>959.0</ele>
        <time>2019-04-28T09:30:09Z</time>
      </trkpt>
      <trkpt lat="40.6749890" lon="-4.0898210">
        <ele>959.0</ele>
        <time>2019-04-28T09:30:10Z</time>
      </trkpt>
      <trkpt lat="40.6749860" lon="-4.0897380">
        <ele>959.0</ele>
        <time>2019-04-28T09:30:11Z</time>
      </trkpt>
      <trkpt lat="40.6749830" lon="-4.0896540">
        <ele>958.8</ele>
        <time>2019-04-28T09:30:12Z</time>
      </trkpt>
      <trkpt lat="40.6749780" lon="-4.0895680">
        <ele>958.8</ele>
        <time>2019-04-28T09:30:13Z</time>
      </trkpt>
      <trkpt lat="40.6749760" lon="-4.0894800">
        <ele>958.6</ele>
        <time>2019-04-28T09:30:14Z</time>
      </trkpt>
      <trkpt lat="40.6749760" lon="-4.0893940">
        <ele>958.6</ele>
        <time>2019-04-28T09:30:15Z</time>
      </trkpt>
      <trkpt lat="40.6749770" lon="-4.0893080">
        <ele>958.6</ele>
        <time>2019-04-28T09:30:16Z</time>
      </trkpt>
      <trkpt lat="40.6749700" lon="-4.0892230">
        <ele>958.4</ele>
        <time>2019-04-28T09:30:17Z</time>
      </trkpt>
      <trkpt lat="40.6749570" lon="-4.0891360">
        <ele>958.4</ele>
        <time>2019-04-28T09:30:18Z</time>
      </trkpt>
      <trkpt lat="40.6749340" lon="-4.0890540">
        <ele>958.4</ele>
        <time>2019-04-28T09:30:19Z</time>
      </trkpt>
      <trkpt lat="40.6749060" lon="-4.0889680">
        <ele>958.4</ele>
        <time>2019-04-28T09:30:20Z</time>
      </trkpt>
      <trkpt lat="40.6748820" lon="-4.0888890">
        <ele>958.4</ele>
        <time>2019-04-28T09:30:21Z</time>
      </trkpt>
      <trkpt lat="40.6748730" lon="-4.0888030">
        <ele>958.4</ele>
        <time>2019-04-28T09:30:22Z</time>
      </trkpt>
      <trkpt lat="40.6748670" lon="-4.0887150">
        <ele>958.4</ele>
        <time>2019-04-28T09:30:23Z</time>
      </trkpt>
      <trkpt lat="40.6748480" lon="-4.0886250">
        <ele>958.4</ele>
        <time>2019-04-28T09:30:24Z</time>
      </trkpt>
      <trkpt lat="40.6748340" lon="-4.0885350">
        <ele>958.2</ele>
        <time>2019-04-28T09:30:25Z</time>
      </trkpt>
      <trkpt lat="40.6748270" lon="-4.0884500">
        <ele>958.0</ele>
        <time>2019-04-28T09:30:26Z</time>
      </trkpt>
      <trkpt lat="40.6748210" lon="-4.0883610">
        <ele>957.8</ele>
        <time>2019-04-28T09:30:27Z</time>
      </trkpt>
      <trkpt lat="40.6748200" lon="-4.0882720">
        <ele>957.8</ele>
        <time>2019-04-28T09:30:28Z</time>
      </trkpt>
      <trkpt lat="40.6748260" lon="-4.0881910">
        <ele>958.0</ele>
        <time>2019-04-28T09:30:29Z</time>
      </trkpt>
      <trkpt lat="40.6748460" lon="-4.0881250">
        <ele>958.0</ele>
        <time>2019-04-28T09:30:30Z</time>
      </trkpt>
      <trkpt lat="40.6748500" lon="-4.0880420">
        <ele>958.2</ele>
        <time>2019-04-28T09:30:31Z</time>
      </trkpt>
      <trkpt lat="40.6748540" lon="-4.0879600">
        <ele>958.0</ele>
        <time>2019-04-28T09:30:32Z</time>
      </trkpt>
      <trkpt lat="40.6748640" lon="-4.0878770">
        <ele>958.0</ele>
        <time>2019-04-28T09:30:33Z</time>
      </trkpt>
      <trkpt lat="40.6748800" lon="-4.0878030">
        <ele>958.2</ele>
        <time>2019-04-28T09:30:34Z</time>
      </trkpt>
      <trkpt lat="40.6748850" lon="-4.0877150">
        <ele>958.2</ele>
        <time>2019-04-28T09:30:35Z</time>
      </trkpt>
      <trkpt lat="40.6748840" lon="-4.0876240">
        <ele>958.2</ele>
        <time>2019-04-28T09:30:36Z</time>
      </trkpt>
      <trkpt lat="40.6748710" lon="-4.0875370">
        <ele>958.2</ele>
        <time>2019-04-28T09:30:37Z</time>
      </trkpt>
      <trkpt lat="40.6748370" lon="-4.0874480">
        <ele>958.2</ele>
        <time>2019-04-28T09:30:38Z</time>
      </trkpt>
      <trkpt lat="40.6748130" lon="-4.0873810">
        <ele>958.4</ele>
        <time>2019-04-28T09:30:39Z</time>
      </trkpt>
      <trkpt lat="40.6747980" lon="-4.0873440">
        <ele>958.4</ele>
        <time>2019-04-28T09:30:40Z</time>
      </trkpt>
      <trkpt lat="40.6747700" lon="-4.0873010">
        <ele>958.6</ele>
        <time>2019-04-28T09:30:41Z</time>
      </trkpt>
      <trkpt lat="40.6747570" lon="-4.0872550">
        <ele>958.6</ele>
        <time>2019-04-28T09:30:42Z</time>
      </trkpt>
      <trkpt lat="40.6747520" lon="-4.0871950">
        <ele>958.6</ele>
        <time>2019-04-28T09:30:43Z</time>
      </trkpt>
      <trkpt lat="40.6747540" lon="-4.0871240">
        <ele>958.6</ele>
        <time>2019-04-28T09:30:44Z</time>
      </trkpt>
      <trkpt lat="40.6747460" lon="-4.0870400">
        <ele>958.6</ele>
        <time>2019-04-28T09:30:45Z</time>
      </trkpt>
      <trkpt lat="40.6747460" lon="-4.0869620">
        <ele>958.6</ele>
        <time>2019-04-28T09:30:46Z</time>
      </trkpt>
      <trkpt lat="40.6747480" lon="-4.0868840">
        <ele>958.4</ele>
        <time>2019-04-28T09:30:47Z</time>
      </trkpt>
      <trkpt lat="40.6747480" lon="-4.0868060">
        <ele>958.4</ele>
        <time>2019-04-28T09:30:48Z</time>
      </trkpt>
      <trkpt lat="40.6747480" lon="-4.0867300">
        <ele>958.4</ele>
        <time>2019-04-28T09:30:49Z</time>
      </trkpt>
      <trkpt lat="40.6747530" lon="-4.0866580">
        <ele>958.4</ele>
        <time>2019-04-28T09:30:50Z</time>
      </trkpt>
      <trkpt lat="40.6747510" lon="-4.0865720">
        <ele>958.2</ele>
        <time>2019-04-28T09:30:51Z</time>
      </trkpt>
      <trkpt lat="40.6747520" lon="-4.0864910">
        <ele>958.2</ele>
        <time>2019-04-28T09:30:52Z</time>
      </trkpt>
      <trkpt lat="40.6747470" lon="-4.0864060">
        <ele>958.2</ele>
        <time>2019-04-28T09:30:53Z</time>
      </trkpt>
      <trkpt lat="40.6747390" lon="-4.0863220">
        <ele>958.4</ele>
        <time>2019-04-28T09:30:54Z</time>
      </trkpt>
      <trkpt lat="40.6747380" lon="-4.0862400">
        <ele>958.4</ele>
        <time>2019-04-28T09:30:55Z</time>
      </trkpt>
      <trkpt lat="40.6747370" lon="-4.0861580">
        <ele>958.4</ele>
        <time>2019-04-28T09:30:56Z</time>
      </trkpt>
      <trkpt lat="40.6747330" lon="-4.0860780">
        <ele>958.2</ele>
        <time>2019-04-28T09:30:57Z</time>
      </trkpt>
      <trkpt lat="40.6747270" lon="-4.0859980">
        <ele>957.8</ele>
        <time>2019-04-28T09:30:58Z</time>
      </trkpt>
      <trkpt lat="40.6747160" lon="-4.0859180">
        <ele>957.8</ele>
        <time>2019-04-28T09:30:59Z</time>
      </trkpt>
      <trkpt lat="40.6747050" lon="-4.0858740">
        <ele>957.8</ele>
        <time>2019-04-28T09:31:00Z</time>
      </trkpt>
      <trkpt lat="40.6746770" lon="-4.0857970">
        <ele>957.8</ele>
        <time>2019-04-28T09:31:01Z</time>
      </trkpt>
      <trkpt lat="40.6746490" lon="-4.0857380">
        <ele>957.4</ele>
        <time>2019-04-28T09:31:02Z</time>
      </trkpt>
      <trkpt lat="40.6746200" lon="-4.0856860">
        <ele>957.2</ele>
        <time>2019-04-28T09:31:03Z</time>
      </trkpt>
      <trkpt lat="40.6745940" lon="-4.0856340">
        <ele>957.0</ele>
        <time>2019-04-28T09:31:04Z</time>
      </trkpt>
      <trkpt lat="40.6745670" lon="-4.0855790">
        <ele>957.0</ele>
        <time>2019-04-28T09:31:05Z</time>
      </trkpt>
      <trkpt lat="40.6745380" lon="-4.0855220">
        <ele>956.8</ele>
        <time>2019-04-28T09:31:06Z</time>
      </trkpt>
      <trkpt lat="40.6745100" lon="-4.0854620">
        <ele>956.8</ele>
        <time>2019-04-28T09:31:07Z</time>
      </trkpt>
      <trkpt lat="40.6744870" lon="-4.0854120">
        <ele>956.6</ele>
        <time>2019-04-28T09:31:08Z</time>
      </trkpt>
      <trkpt lat="40.6744650" lon="-4.0853690">
        <ele>956.4</ele>
        <time>2019-04-28T09:31:09Z</time>
      </trkpt>
      <trkpt lat="40.6744510" lon="-4.0853310">
        <ele>956.4</ele>
        <time>2019-04-28T09:31:10Z</time>
      </trkpt>
      <trkpt lat="40.6744460" lon="-4.0852960">
        <ele>956.4</ele>
        <time>2019-04-28T09:31:11Z</time>
      </trkpt>
      <trkpt lat="40.6744440" lon="-4.0852380">
        <ele>956.4</ele>
        <time>2019-04-28T09:31:12Z</time>
      </trkpt>
      <trkpt lat="40.6744600" lon="-4.0851870">
        <ele>956.0</ele>
        <time>2019-04-28T09:31:13Z</time>
      </trkpt>
      <trkpt lat="40.6744920" lon="-4.0851310">
        <ele>955.8</ele>
        <time>2019-04-28T09:31:14Z</time>
      </trkpt>
      <trkpt lat="40.6745220" lon="-4.0850660">
        <ele>955.6</ele>
        <time>2019-04-28T09:31:15Z</time>
      </trkpt>
      <trkpt lat="40.6745600" lon="-4.0850100">
        <ele>955.0</ele>
        <time>2019-04-28T09:31:16Z</time>
      </trkpt>
      <trkpt lat="40.6745870" lon="-4.0849370">
        <ele>954.8</ele>
        <time>2019-04-28T09:31:17Z</time>
      </trkpt>
      <trkpt lat="40.6746220" lon="-4.0848640">
        <ele>954.6</ele>
        <time>2019-04-28T09:31:18Z</time>
      </trkpt>
      <trkpt lat="40.6746660" lon="-4.0848050">
        <ele>954.4</ele>
        <time>2019-04-28T09:31:19Z</time>
      </trkpt>
      <trkpt lat="40.6747130" lon="-4.0847420">
        <ele>953.8</ele>
        <time>2019-04-28T09:31:20Z</time>
      </trkpt>
      <trkpt lat="40.6747590" lon="-4.0846800">
        <ele>953.4</ele>
        <time>2019-04-28T09:31:21Z</time>
      </trkpt>
      <trkpt lat="40.6748080" lon="-4.0846160">
        <ele>952.8</ele>
        <time>2019-04-28T09:31:22Z</time>
      </trkpt>
      <trkpt lat="40.6748550" lon="-4.0845450">
        <ele>952.4</ele>
        <time>2019-04-28T09:31:23Z</time>
      </trkpt>
      <trkpt lat="40.6749060" lon="-4.0844760">
        <ele>951.8</ele>
        <time>2019-04-28T09:31:24Z</time>
      </trkpt>
      <trkpt lat="40.6749610" lon="-4.0844140">
        <ele>951.6</ele>
        <time>2019-04-28T09:31:25Z</time>
      </trkpt>
      <trkpt lat="40.6750070" lon="-4.0843340">
        <ele>951.4</ele>
        <time>2019-04-28T09:31:26Z</time>
      </trkpt>
      <trkpt lat="40.6750460" lon="-4.0842690">
        <ele>951.2</ele>
        <time>2019-04-28T09:31:27Z</time>
      </trkpt>
      <trkpt lat="40.6750780" lon="-4.0842180">
        <ele>951.0</ele>
        <time>2019-04-28T09:31:28Z</time>
      </trkpt>
      <trkpt lat="40.6750970" lon="-4.0841800">
        <ele>951.0</ele>
        <time>2019-04-28T09:31:29Z</time>
      </trkpt>
      <trkpt lat="40.6751110" lon="-4.0841270">
        <ele>950.6</ele>
        <time>2019-04-28T09:31:30Z</time>
      </trkpt>
      <trkpt lat="40.6751130" lon="-4.0840860">
        <ele>950.6</ele>
        <time>2019-04-28T09:31:31Z</time>
      </trkpt>
      <trkpt lat="40.6751080" lon="-4.0840470">
        <ele>950.6</ele>
        <time>2019-04-28T09:31:32Z</time>
      </trkpt>
      <trkpt lat="40.6750960" lon="-4.0840230">
        <ele>950.4</ele>
        <time>2019-04-28T09:31:33Z</time>
      </trkpt>
      <trkpt lat="40.6750860" lon="-4.0840010">
        <ele>950.4</ele>
        <time>2019-04-28T09:31:34Z</time>
      </trkpt>
      <trkpt lat="40.6750800" lon="-4.0839870">
        <ele>950.4</ele>
        <time>2019-04-28T09:31:35Z</time>
      </trkpt>
      <trkpt lat="40.6750750" lon="-4.0839740">
        <ele>950.4</ele>
        <time>2019-04-28T09:31:36Z</time>
      </trkpt>
      <trkpt lat="40.6750650" lon="-4.0839540">
        <ele>950.4</ele>
        <time>2019-04-28T09:31:37Z</time>
      </trkpt>
      <trkpt lat="40.6750600" lon="-4.0839450">
        <ele>950.6</ele>
        <time>2019-04-28T09:31:38Z</time>
      </trkpt>
      <trkpt lat="40.6750580" lon="-4.0839420">
        <ele>950.6</ele>
        <time>2019-04-28T09:31:39Z</time>
      </trkpt>
      <trkpt lat="40.6750590" lon="-4.0839380">
        <ele>950.6</ele>
        <time>2019-04-28T09:31:40Z</time>
      </trkpt>
      <trkpt lat="40.6750590" lon="-4.0839360">
        <ele>950.6</ele>
        <time>2019-04-28T09:31:41Z</time>
      </trkpt>
      <trkpt lat="40.6750600" lon="-4.0839300">
        <ele>950.4</ele>
        <time>2019-04-28T09:31:42Z</time>
      </trkpt>
      <trkpt lat="40.6750600" lon="-4.0839210">
        <ele>950.4</ele>
        <time>2019-04-28T09:31:43Z</time>
      </trkpt>
      <trkpt lat="40.6750610" lon="-4.0839140">
        <ele>950.4</ele>
        <time>2019-04-28T09:31:44Z</time>
      </trkpt>
      <trkpt lat="40.6750610" lon="-4.0839060">
        <ele>950.4</ele>
        <time>2019-04-28T09:31:45Z</time>
      </trkpt>
      <trkpt lat="40.6749750" lon="-4.0838250">
        <ele>950.4</ele>
        <time>2019-04-28T09:31:58Z</time>
      </trkpt>
      <trkpt lat="40.6749550" lon="-4.0838350">
        <ele>950.6</ele>
        <time>2019-04-28T09:31:59Z</time>
      </trkpt>
      <trkpt lat="40.6749340" lon="-4.0838470">
        <ele>950.6</ele>
        <time>2019-04-28T09:32:00Z</time>
      </trkpt>
      <trkpt lat="40.6749060" lon="-4.0838640">
        <ele>950.6</ele>
        <time>2019-04-28T09:32:01Z</time>
      </trkpt>
      <trkpt lat="40.6748730" lon="-4.0838820">
        <ele>950.6</ele>
        <time>2019-04-28T09:32:02Z</time>
      </trkpt>
      <trkpt lat="40.6748380" lon="-4.0839050">
        <ele>950.6</ele>
        <time>2019-04-28T09:32:03Z</time>
      </trkpt>
      <trkpt lat="40.6747990" lon="-4.0839280">
        <ele>950.6</ele>
        <time>2019-04-28T09:32:04Z</time>
      </trkpt>
      <trkpt lat="40.6747570" lon="-4.0839520">
        <ele>950.6</ele>
        <time>2019-04-28T09:32:05Z</time>
      </trkpt>
      <trkpt lat="40.6747110" lon="-4.0839710">
        <ele>950.8</ele>
        <time>2019-04-28T09:32:06Z</time>
      </trkpt>
      <trkpt lat="40.6746630" lon="-4.0839930">
        <ele>950.8</ele>
        <time>2019-04-28T09:32:07Z</time>
      </trkpt>
      <trkpt lat="40.6746130" lon="-4.0840120">
        <ele>950.8</ele>
        <time>2019-04-28T09:32:08Z</time>
      </trkpt>
      <trkpt lat="40.6745610" lon="-4.0840330">
        <ele>951.0</ele>
        <time>2019-04-28T09:32:09Z</time>
      </trkpt>
      <trkpt lat="40.6745090" lon="-4.0840570">
        <ele>951.2</ele>
        <time>2019-04-28T09:32:10Z</time>
      </trkpt>
      <trkpt lat="40.6744590" lon="-4.0840810">
        <ele>951.2</ele>
        <time>2019-04-28T09:32:11Z</time>
      </trkpt>
      <trkpt lat="40.6744030" lon="-4.0841010">
        <ele>951.4</ele>
        <time>2019-04-28T09:32:12Z</time>
      </trkpt>
      <trkpt lat="40.6743480" lon="-4.0841180">
        <ele>951.4</ele>
        <time>2019-04-28T09:32:13Z</time>
      </trkpt>
      <trkpt lat="40.6742950" lon="-4.0841290">
        <ele>951.6</ele>
        <time>2019-04-28T09:32:14Z</time>
      </trkpt>
      <trkpt lat="40.6742410" lon="-4.0841420">
        <ele>951.8</ele>
        <time>2019-04-28T09:32:15Z</time>
      </trkpt>
      <trkpt lat="40.6741930" lon="-4.0841550">
        <ele>952.0</ele>
        <time>2019-04-28T09:32:16Z</time>
      </trkpt>
      <trkpt lat="40.6741470" lon="-4.0841730">
        <ele>952.0</ele>
        <time>2019-04-28T09:32:17Z</time>
      </trkpt>
      <trkpt lat="40.6741010" lon="-4.0841930">
        <ele>952.2</ele>
        <time>2019-04-28T09:32:18Z</time>
      </trkpt>
      <trkpt lat="40.6740550" lon="-4.0842070">
        <ele>952.4</ele>
        <time>2019-04-28T09:32:19Z</time>
      </trkpt>
      <trkpt lat="40.6740090" lon="-4.0842100">
        <ele>952.6</ele>
        <time>2019-04-28T09:32:20Z</time>
      </trkpt>
      <trkpt lat="40.6739710" lon="-4.0841970">
        <ele>952.8</ele>
        <time>2019-04-28T09:32:21Z</time>
      </trkpt>
      <trkpt lat="40.6739460" lon="-4.0841740">
        <ele>952.6</ele>
        <time>2019-04-28T09:32:22Z</time>
      </trkpt>
      <trkpt lat="40.6739390" lon="-4.0841300">
        <ele>952.6</ele>
        <time>2019-04-28T09:32:23Z</time>
      </trkpt>
      <trkpt lat="40.6739400" lon="-4.0840710">
        <ele>952.2</ele>
        <time>2019-04-28T09:32:24Z</time>
      </trkpt>
      <trkpt lat="40.6739730" lon="-4.0840190">
        <ele>952.2</ele>
        <time>2019-04-28T09:32:25Z</time>
      </trkpt>
      <trkpt lat="40.6740240" lon="-4.0839930">
        <ele>951.8</ele>
        <time>2019-04-28T09:32:26Z</time>
      </trkpt>
      <trkpt lat="40.6740680" lon="-4.0839840">
        <ele>951.6</ele>
        <time>2019-04-28T09:32:27Z</time>
      </trkpt>
      <trkpt lat="40.6741110" lon="-4.0839940">
        <ele>951.6</ele>
        <time>2019-04-28T09:32:28Z</time>
      </trkpt>
      <trkpt lat="40.6741560" lon="-4.0840090">
        <ele>951.6</ele>
        <time>2019-04-28T09:32:29Z</time>
      </trkpt>
      <trkpt lat="40.6742050" lon="-4.0840120">
        <ele>951.6</ele>
        <time>2019-04-28T09:32:30Z</time>
      </trkpt>
      <trkpt lat="40.6742510" lon="-4.0840070">
        <ele>951.8</ele>
        <time>2019-04-28T09:32:31Z</time>
      </trkpt>
      <trkpt lat="40.6743000" lon="-4.0840000">
        <ele>951.8</ele>
        <time>2019-04-28T09:32:32Z</time>
      </trkpt>
      <trkpt lat="40.6743500" lon="-4.0839830">
        <ele>951.8</ele>
        <time>2019-04-28T09:32:33Z</time>
      </trkpt>
      <trkpt lat="40.6744040" lon="-4.0839590">
        <ele>951.8</ele>
        <time>2019-04-28T09:32:34Z</time>
      </trkpt>
      <trkpt lat="40.6744560" lon="-4.0839320">
        <ele>951.8</ele>
        <time>2019-04-28T09:32:35Z</time>
      </trkpt>
      <trkpt lat="40.6745170" lon="-4.0839090">
        <ele>951.6</ele>
        <time>2019-04-28T09:32:36Z</time>
      </trkpt>
      <trkpt lat="40.6745790" lon="-4.0838870">
        <ele>951.6</ele>
        <time>2019-04-28T09:32:37Z</time>
      </trkpt>
      <trkpt lat="40.6746400" lon="-4.0838620">
        <ele>951.6</ele>
        <time>2019-04-28T09:32:38Z</time>
      </trkpt>
      <trkpt lat="40.6747010" lon="-4.0838340">
        <ele>951.6</ele>
        <time>2019-04-28T09:32:39Z</time>
      </trkpt>
      <trkpt lat="40.6748190" lon="-4.0837680">
        <ele>951.4</ele>
        <time>2019-04-28T09:32:41Z</time>
      </trkpt>
      <trkpt lat="40.6748760" lon="-4.0837270">
        <ele>951.4</ele>
        <time>2019-04-28T09:32:42Z</time>
      </trkpt>
      <trkpt lat="40.6749290" lon="-4.0836830">
        <ele>951.4</ele>
        <time>2019-04-28T09:32:43Z</time>
      </trkpt>
      <trkpt lat="40.6749790" lon="-4.0836320">
        <ele>951.6</ele>
        <time>2019-04-28T09:32:44Z</time>
      </trkpt>
      <trkpt lat="40.6750290" lon="-4.0835800">
        <ele>951.4</ele>
        <time>2019-04-28T09:32:45Z</time>
      </trkpt>
      <trkpt lat="40.6750780" lon="-4.0835270">
        <ele>951.4</ele>
        <time>2019-04-28T09:32:46Z</time>
      </trkpt>
      <trkpt lat="40.6751220" lon="-4.0834720">
        <ele>951.6</ele>
        <time>2019-04-28T09:32:47Z</time>
      </trkpt>
      <trkpt lat="40.6751660" lon="-4.0834180">
        <ele>951.8</ele>
        <time>2019-04-28T09:32:48Z</time>
      </trkpt>
      <trkpt lat="40.6752100" lon="-4.0833640">
        <ele>951.8</ele>
        <time>2019-04-28T09:32:49Z</time>
      </trkpt>
      <trkpt lat="40.6752560" lon="-4.0833130">
        <ele>951.6</ele>
        <time>2019-04-28T09:32:50Z</time>
      </trkpt>
      <trkpt lat="40.6753000" lon="-4.0832590">
        <ele>951.2</ele>
        <time>2019-04-28T09:32:51Z</time>
      </trkpt>
      <trkpt lat="40.6753410" lon="-4.0832030">
        <ele>951.2</ele>
        <time>2019-04-28T09:32:52Z</time>
      </trkpt>
      <trkpt lat="40.6753860" lon="-4.0831540">
        <ele>951.2</ele>
        <time>2019-04-28T09:32:53Z</time>
      </trkpt>
      <trkpt lat="40.6754260" lon="-4.0831050">
        <ele>951.2</ele>
        <time>2019-04-28T09:32:54Z</time>
      </trkpt>
      <trkpt lat="40.6754620" lon="-4.0830570">
        <ele>951.0</ele>
        <time>2019-04-28T09:32:55Z</time>
      </trkpt>
      <trkpt lat="40.6754910" lon="-4.0829980">
        <ele>951.0</ele>
        <time>2019-04-28T09:32:56Z</time>
      </trkpt>
      <trkpt lat="40.6755100" lon="-4.0829300">
        <ele>951.0</ele>
        <time>2019-04-28T09:32:57Z</time>
      </trkpt>
      <trkpt lat="40.6755080" lon="-4.0828610">
        <ele>951.2</ele>
        <time>2019-04-28T09:32:58Z</time>
      </trkpt>
      <trkpt lat="40.6754880" lon="-4.0827980">
        <ele>951.2</ele>
        <time>2019-04-28T09:32:59Z</time>
      </trkpt>
      <trkpt lat="40.6754570" lon="-4.0827560">
        <ele>951.0</ele>
        <time>2019-04-28T09:33:00Z</time>
      </trkpt>
      <trkpt lat="40.6754300" lon="-4.0827100">
        <ele>950.8</ele>
        <time>2019-04-28T09:33:01Z</time>
      </trkpt>
      <trkpt lat="40.6754060" lon="-4.0826550">
        <ele>950.6</ele>
        <time>2019-04-28T09:33:02Z</time>
      </trkpt>
      <trkpt lat="40.6753820" lon="-4.0826070">
        <ele>950.6</ele>
        <time>2019-04-28T09:33:03Z</time>
      </trkpt>
      <trkpt lat="40.6753620" lon="-4.0825560">
        <ele>950.6</ele>
        <time>2019-04-28T09:33:04Z</time>
      </trkpt>
      <trkpt lat="40.6753440" lon="-4.0825080">
        <ele>950.6</ele>
        <time>2019-04-28T09:33:05Z</time>
      </trkpt>
      <trkpt lat="40.6753300" lon="-4.0824660">
        <ele>950.6</ele>
        <time>2019-04-28T09:33:06Z</time>
      </trkpt>
      <trkpt lat="40.6753190" lon="-4.0824320">
        <ele>950.6</ele>
        <time>2019-04-28T09:33:07Z</time>
      </trkpt>
      <trkpt lat="40.6753090" lon="-4.0823900">
        <ele>950.4</ele>
        <time>2019-04-28T09:33:08Z</time>
      </trkpt>
      <trkpt lat="40.6752960" lon="-4.0823480">
        <ele>950.4</ele>
        <time>2019-04-28T09:33:09Z</time>
      </trkpt>
      <trkpt lat="40.6752800" lon="-4.0823020">
        <ele>950.6</ele>
        <time>2019-04-28T09:33:10Z</time>
      </trkpt>
      <trkpt lat="40.6752640" lon="-4.0822530">
        <ele>950.6</ele>
        <time>2019-04-28T09:33:11Z</time>
      </trkpt>
      <trkpt lat="40.6752510" lon="-4.0821990">
        <ele>950.8</ele>
        <time>2019-04-28T09:33:12Z</time>
      </trkpt>
      <trkpt lat="40.6752390" lon="-4.0821380">
        <ele>950.8</ele>
        <time>2019-04-28T09:33:13Z</time>
      </trkpt>
      <trkpt lat="40.6752270" lon="-4.0820800">
        <ele>951.0</ele>
        <time>2019-04-28T09:33:14Z</time>
      </trkpt>
      <trkpt lat="40.6752150" lon="-4.0820200">
        <ele>951.0</ele>
        <time>2019-04-28T09:33:15Z</time>
      </trkpt>
      <trkpt lat="40.6752010" lon="-4.0819570">
        <ele>951.0</ele>
        <time>2019-04-28T09:33:16Z</time>
      </trkpt>
      <trkpt lat="40.6751830" lon="-4.0818960">
        <ele>951.0</ele>
        <time>2019-04-28T09:33:17Z</time>
      </trkpt>
      <trkpt lat="40.6751640" lon="-4.0818360">
        <ele>951.0</ele>
        <time>2019-04-28T09:33:18Z</time>
      </trkpt>
      <trkpt lat="40.6751410" lon="-4.0817720">
        <ele>951.0</ele>
        <time>2019-04-28T09:33:19Z</time>
      </trkpt>
      <trkpt lat="40.6750960" lon="-4.0816450">
        <ele>951.0</ele>
        <time>2019-04-28T09:33:21Z</time>
      </trkpt>
      <trkpt lat="40.6750700" lon="-4.0815780">
        <ele>951.0</ele>
        <time>2019-04-28T09:33:22Z</time>
      </trkpt>
      <trkpt lat="40.6750430" lon="-4.0815180">
        <ele>951.0</ele>
        <time>2019-04-28T09:33:23Z</time>
      </trkpt>
      <trkpt lat="40.6750140" lon="-4.0814570">
        <ele>951.0</ele>
        <time>2019-04-28T09:33:24Z</time>
      </trkpt>
      <trkpt lat="40.6749820" lon="-4.0813970">
        <ele>951.2</ele>
        <time>2019-04-28T09:33:25Z</time>
      </trkpt>
      <trkpt lat="40.6749490" lon="-4.0813380">
        <ele>951.2</ele>
        <time>2019-04-28T09:33:26Z</time>
      </trkpt>
      <trkpt lat="40.6749190" lon="-4.0812840">
        <ele>951.0</ele>
        <time>2019-04-28T09:33:27Z</time>
      </trkpt>
      <trkpt lat="40.6748830" lon="-4.0812340">
        <ele>951.0</ele>
        <time>2019-04-28T09:33:28Z</time>
      </trkpt>
      <trkpt lat="40.6748400" lon="-4.0811810">
        <ele>951.0</ele>
        <time>2019-04-28T09:33:29Z</time>
      </trkpt>
      <trkpt lat="40.6747970" lon="-4.0811290">
        <ele>951.0</ele>
        <time>2019-04-28T09:33:30Z</time>
      </trkpt>
      <trkpt lat="40.6747540" lon="-4.0810790">
        <ele>951.0</ele>
        <time>2019-04-28T09:33:31Z</time>
      </trkpt>
      <trkpt lat="40.6747110" lon="-4.0810270">
        <ele>951.0</ele>
        <time>2019-04-28T09:33:32Z</time>
      </trkpt>
      <trkpt lat="40.6746680" lon="-4.0809690">
        <ele>950.8</ele>
        <time>2019-04-28T09:33:33Z</time>
      </trkpt>
      <trkpt lat="40.6746260" lon="-4.0809080">
        <ele>950.8</ele>
        <time>2019-04-28T09:33:34Z</time>
      </trkpt>
      <trkpt lat="40.6745890" lon="-4.0808460">
        <ele>950.8</ele>
        <time>2019-04-28T09:33:35Z</time>
      </trkpt>
      <trkpt lat="40.6745560" lon="-4.0807730">
        <ele>950.8</ele>
        <time>2019-04-28T09:33:36Z</time>
      </trkpt>
      <trkpt lat="40.6745280" lon="-4.0806950">
        <ele>950.8</ele>
        <time>2019-04-28T09:33:37Z</time>
      </trkpt>
      <trkpt lat="40.6745080" lon="-4.0806130">
        <ele>950.6</ele>
        <time>2019-04-28T09:33:38Z</time>
      </trkpt>
      <trkpt lat="40.6744940" lon="-4.0805380">
        <ele>950.6</ele>
        <time>2019-04-28T09:33:39Z</time>
      </trkpt>
      <trkpt lat="40.6744830" lon="-4.0804700">
        <ele>950.2</ele>
        <time>2019-04-28T09:33:40Z</time>
      </trkpt>
      <trkpt lat="40.6744740" lon="-4.0804090">
        <ele>950.2</ele>
        <time>2019-04-28T09:33:41Z</time>
      </trkpt>
      <trkpt lat="40.6744640" lon="-4.0803580">
        <ele>950.0</ele>
        <time>2019-04-28T09:33:42Z</time>
      </trkpt>
      <trkpt lat="40.6744540" lon="-4.0803040">
        <ele>950.0</ele>
        <time>2019-04-28T09:33:43Z</time>
      </trkpt>
      <trkpt lat="40.6744480" lon="-4.0802440">
        <ele>950.0</ele>
        <time>2019-04-28T09:33:44Z</time>
      </trkpt>
      <trkpt lat="40.6744400" lon="-4.0801740">
        <ele>950.0</ele>
        <time>2019-04-28T09:33:45Z</time>
      </trkpt>
      <trkpt lat="40.6744310" lon="-4.0801010">
        <ele>950.2</ele>
        <time>2019-04-28T09:33:46Z</time>
      </trkpt>
      <trkpt lat="40.6744250" lon="-4.0800250">
        <ele>950.0</ele>
        <time>2019-04-28T09:33:47Z</time>
      </trkpt>
      <trkpt lat="40.6744190" lon="-4.0799500">
        <ele>950.0</ele>
        <time>2019-04-28T09:33:48Z</time>
      </trkpt>
      <trkpt lat="40.6744120" lon="-4.0798750">
        <ele>950.0</ele>
        <time>2019-04-28T09:33:49Z</time>
      </trkpt>
      <trkpt lat="40.6744090" lon="-4.0797980">
        <ele>950.2</ele>
        <time>2019-04-28T09:33:50Z</time>
      </trkpt>
      <trkpt lat="40.6744000" lon="-4.0797280">
        <ele>950.4</ele>
        <time>2019-04-28T09:33:51Z</time>
      </trkpt>
      <trkpt lat="40.6743900" lon="-4.0796600">
        <ele>950.4</ele>
        <time>2019-04-28T09:33:52Z</time>
      </trkpt>
      <trkpt lat="40.6743720" lon="-4.0795840">
        <ele>950.2</ele>
        <time>2019-04-28T09:33:53Z</time>
      </trkpt>
      <trkpt lat="40.6743460" lon="-4.0795120">
        <ele>950.4</ele>
        <time>2019-04-28T09:33:54Z</time>
      </trkpt>
      <trkpt lat="40.6743110" lon="-4.0794420">
        <ele>950.2</ele>
        <time>2019-04-28T09:33:55Z</time>
      </trkpt>
      <trkpt lat="40.6742790" lon="-4.0793720">
        <ele>950.2</ele>
        <time>2019-04-28T09:33:56Z</time>
      </trkpt>
      <trkpt lat="40.6742500" lon="-4.0792970">
        <ele>950.0</ele>
        <time>2019-04-28T09:33:57Z</time>
      </trkpt>
      <trkpt lat="40.6742180" lon="-4.0792250">
        <ele>950.0</ele>
        <time>2019-04-28T09:33:58Z</time>
      </trkpt>
      <trkpt lat="40.6741880" lon="-4.0791590">
        <ele>950.2</ele>
        <time>2019-04-28T09:33:59Z</time>
      </trkpt>
      <trkpt lat="40.6741620" lon="-4.0790890">
        <ele>950.2</ele>
        <time>2019-04-28T09:34:00Z</time>
      </trkpt>
      <trkpt lat="40.6741330" lon="-4.0790190">
        <ele>950.2</ele>
        <time>2019-04-28T09:34:01Z</time>
      </trkpt>
      <trkpt lat="40.6740960" lon="-4.0789570">
        <ele>950.4</ele>
        <time>2019-04-28T09:34:02Z</time>
      </trkpt>
      <trkpt lat="40.6740470" lon="-4.0789030">
        <ele>950.4</ele>
        <time>2019-04-28T09:34:03Z</time>
      </trkpt>
      <trkpt lat="40.6739960" lon="-4.0788580">
        <ele>950.4</ele>
        <time>2019-04-28T09:34:04Z</time>
      </trkpt>
      <trkpt lat="40.6739440" lon="-4.0788130">
        <ele>950.4</ele>
        <time>2019-04-28T09:34:05Z</time>
      </trkpt>
      <trkpt lat="40.6738990" lon="-4.0787560">
        <ele>950.2</ele>
        <time>2019-04-28T09:34:06Z</time>
      </trkpt>
      <trkpt lat="40.6738610" lon="-4.0786960">
        <ele>950.4</ele>
        <time>2019-04-28T09:34:07Z</time>
      </trkpt>
      <trkpt lat="40.6738320" lon="-4.0786350">
        <ele>950.6</ele>
        <time>2019-04-28T09:34:08Z</time>
      </trkpt>
      <trkpt lat="40.6738040" lon="-4.0785700">
        <ele>950.2</ele>
        <time>2019-04-28T09:34:09Z</time>
      </trkpt>
      <trkpt lat="40.6737730" lon="-4.0784930">
        <ele>949.8</ele>
        <time>2019-04-28T09:34:10Z</time>
      </trkpt>
      <trkpt lat="40.6737400" lon="-4.0784080">
        <ele>949.0</ele>
        <time>2019-04-28T09:34:11Z</time>
      </trkpt>
      <trkpt lat="40.6737140" lon="-4.0783150">
        <ele>948.4</ele>
        <time>2019-04-28T09:34:12Z</time>
      </trkpt>
      <trkpt lat="40.6736980" lon="-4.0782180">
        <ele>948.2</ele>
        <time>2019-04-28T09:34:13Z</time>
      </trkpt>
      <trkpt lat="40.6736880" lon="-4.0781260">
        <ele>948.0</ele>
        <time>2019-04-28T09:34:14Z</time>
      </trkpt>
      <trkpt lat="40.6736660" lon="-4.0780260">
        <ele>947.6</ele>
        <time>2019-04-28T09:34:15Z</time>
      </trkpt>
      <trkpt lat="40.6736390" lon="-4.0779290">
        <ele>947.0</ele>
        <time>2019-04-28T09:34:16Z</time>
      </trkpt>
      <trkpt lat="40.6736070" lon="-4.0778390">
        <ele>947.0</ele>
        <time>2019-04-28T09:34:17Z</time>
      </trkpt>
      <trkpt lat="40.6735760" lon="-4.0777500">
        <ele>946.8</ele>
        <time>2019-04-28T09:34:18Z</time>
      </trkpt>
      <trkpt lat="40.6735450" lon="-4.0776670">
        <ele>946.8</ele>
        <time>2019-04-28T09:34:19Z</time>
      </trkpt>
      <trkpt lat="40.6735110" lon="-4.0776010">
        <ele>946.6</ele>
        <time>2019-04-28T09:34:20Z</time>
      </trkpt>
      <trkpt lat="40.6734780" lon="-4.0775100">
        <ele>946.6</ele>
        <time>2019-04-28T09:34:21Z</time>
      </trkpt>
      <trkpt lat="40.6734480" lon="-4.0774170">
        <ele>946.4</ele>
        <time>2019-04-28T09:34:22Z</time>
      </trkpt>
      <trkpt lat="40.6734210" lon="-4.0773200">
        <ele>946.4</ele>
        <time>2019-04-28T09:34:23Z</time>
      </trkpt>
      <trkpt lat="40.6733980" lon="-4.0772170">
        <ele>946.4</ele>
        <time>2019-04-28T09:34:24Z</time>
      </trkpt>
      <trkpt lat="40.6733740" lon="-4.0771210">
        <ele>946.2</ele>
        <time>2019-04-28T09:34:25Z</time>
      </trkpt>
      <trkpt lat="40.6733480" lon="-4.0770290">
        <ele>946.0</ele>
        <time>2019-04-28T09:34:26Z</time>
      </trkpt>
      <trkpt lat="40.6733210" lon="-4.0769300">
        <ele>945.8</ele>
        <time>2019-04-28T09:34:27Z</time>
      </trkpt>
      <trkpt lat="40.6732940" lon="-4.0768380">
        <ele>945.8</ele>
        <time>2019-04-28T09:34:28Z</time>
      </trkpt>
      <trkpt lat="40.6732680" lon="-4.0767490">
        <ele>945.6</ele>
        <time>2019-04-28T09:34:29Z</time>
      </trkpt>
      <trkpt lat="40.6732360" lon="-4.0766550">
        <ele>945.2</ele>
        <time>2019-04-28T09:34:30Z</time>
      </trkpt>
      <trkpt lat="40.6732010" lon="-4.0765620">
        <ele>945.0</ele>
        <time>2019-04-28T09:34:31Z</time>
      </trkpt>
      <trkpt lat="40.6731740" lon="-4.0764690">
        <ele>945.0</ele>
        <time>2019-04-28T09:34:32Z</time>
      </trkpt>
      <trkpt lat="40.6731430" lon="-4.0763710">
        <ele>944.8</ele>
        <time>2019-04-28T09:34:33Z</time>
      </trkpt>
      <trkpt lat="40.6731090" lon="-4.0762730">
        <ele>944.8</ele>
        <time>2019-04-28T09:34:34Z</time>
      </trkpt>
      <trkpt lat="40.6730820" lon="-4.0761720">
        <ele>944.6</ele>
        <time>2019-04-28T09:34:35Z</time>
      </trkpt>
      <trkpt lat="40.6730600" lon="-4.0760680">
        <ele>944.4</ele>
        <time>2019-04-28T09:34:36Z</time>
      </trkpt>
      <trkpt lat="40.6730380" lon="-4.0759590">
        <ele>944.2</ele>
        <time>2019-04-28T09:34:37Z</time>
      </trkpt>
      <trkpt lat="40.6730150" lon="-4.0758410">
        <ele>944.0</ele>
        <time>2019-04-28T09:34:38Z</time>
      </trkpt>
      <trkpt lat="40.6729920" lon="-4.0757270">
        <ele>944.0</ele>
        <time>2019-04-28T09:34:39Z</time>
      </trkpt>
      <trkpt lat="40.6729660" lon="-4.0756200">
        <ele>943.6</ele>
        <time>2019-04-28T09:34:40Z</time>
      </trkpt>
      <trkpt lat="40.6729320" lon="-4.0755170">
        <ele>943.4</ele>
        <time>2019-04-28T09:34:41Z</time>
      </trkpt>
      <trkpt lat="40.6728890" lon="-4.0754210">
        <ele>943.2</ele>
        <time>2019-04-28T09:34:42Z</time>
      </trkpt>
      <trkpt lat="40.6728390" lon="-4.0753300">
        <ele>943.0</ele>
        <time>2019-04-28T09:34:43Z</time>
      </trkpt>
      <trkpt lat="40.6727790" lon="-4.0752450">
        <ele>943.0</ele>
        <time>2019-04-28T09:34:44Z</time>
      </trkpt>
      <trkpt lat="40.6727140" lon="-4.0751970">
        <ele>943.0</ele>
        <time>2019-04-28T09:34:45Z</time>
      </trkpt>
      <trkpt lat="40.6726460" lon="-4.0751610">
        <ele>942.8</ele>
        <time>2019-04-28T09:34:46Z</time>
      </trkpt>
      <trkpt lat="40.6725770" lon="-4.0751220">
        <ele>942.6</ele>
        <time>2019-04-28T09:34:47Z</time>
      </trkpt>
      <trkpt lat="40.6725070" lon="-4.0750740">
        <ele>942.4</ele>
        <time>2019-04-28T09:34:48Z</time>
      </trkpt>
      <trkpt lat="40.6724330" lon="-4.0750140">
        <ele>942.4</ele>
        <time>2019-04-28T09:34:49Z</time>
      </trkpt>
      <trkpt lat="40.6723650" lon="-4.0749550">
        <ele>942.4</ele>
        <time>2019-04-28T09:34:50Z</time>
      </trkpt>
      <trkpt lat="40.6722990" lon="-4.0748980">
        <ele>942.4</ele>
        <time>2019-04-28T09:34:51Z</time>
      </trkpt>
      <trkpt lat="40.6722360" lon="-4.0748360">
        <ele>942.2</ele>
        <time>2019-04-28T09:34:52Z</time>
      </trkpt>
      <trkpt lat="40.6721770" lon="-4.0747620">
        <ele>942.2</ele>
        <time>2019-04-28T09:34:53Z</time>
      </trkpt>
      <trkpt lat="40.6721210" lon="-4.0746820">
        <ele>942.0</ele>
        <time>2019-04-28T09:34:54Z</time>
      </trkpt>
      <trkpt lat="40.6720690" lon="-4.0745980">
        <ele>942.0</ele>
        <time>2019-04-28T09:34:55Z</time>
      </trkpt>
      <trkpt lat="40.6720170" lon="-4.0745100">
        <ele>941.8</ele>
        <time>2019-04-28T09:34:56Z</time>
      </trkpt>
      <trkpt lat="40.6719640" lon="-4.0744210">
        <ele>941.8</ele>
        <time>2019-04-28T09:34:57Z</time>
      </trkpt>
      <trkpt lat="40.6719110" lon="-4.0743420">
        <ele>941.4</ele>
        <time>2019-04-28T09:34:58Z</time>
      </trkpt>
      <trkpt lat="40.6718550" lon="-4.0742640">
        <ele>941.4</ele>
        <time>2019-04-28T09:34:59Z</time>
      </trkpt>
      <trkpt lat="40.6718010" lon="-4.0741830">
        <ele>940.8</ele>
        <time>2019-04-28T09:35:00Z</time>
      </trkpt>
      <trkpt lat="40.6717500" lon="-4.0741010">
        <ele>940.4</ele>
        <time>2019-04-28T09:35:01Z</time>
      </trkpt>
      <trkpt lat="40.6717010" lon="-4.0740130">
        <ele>940.2</ele>
        <time>2019-04-28T09:35:02Z</time>
      </trkpt>
      <trkpt lat="40.6716540" lon="-4.0739220">
        <ele>940.0</ele>
        <time>2019-04-28T09:35:03Z</time>
      </trkpt>
      <trkpt lat="40.6716060" lon="-4.0738290">
        <ele>940.0</ele>
        <time>2019-04-28T09:35:04Z</time>
      </trkpt>
      <trkpt lat="40.6715520" lon="-4.0737370">
        <ele>940.2</ele>
        <time>2019-04-28T09:35:05Z</time>
      </trkpt>
      <trkpt lat="40.6714990" lon="-4.0736510">
        <ele>939.8</ele>
        <time>2019-04-28T09:35:06Z</time>
      </trkpt>
      <trkpt lat="40.6714490" lon="-4.0735690">
        <ele>939.6</ele>
        <time>2019-04-28T09:35:07Z</time>
      </trkpt>
      <trkpt lat="40.6714020" lon="-4.0734950">
        <ele>939.6</ele>
        <time>2019-04-28T09:35:08Z</time>
      </trkpt>
      <trkpt lat="40.6713530" lon="-4.0734340">
        <ele>939.2</ele>
        <time>2019-04-28T09:35:09Z</time>
      </trkpt>
      <trkpt lat="40.6713000" lon="-4.0733680">
        <ele>939.0</ele>
        <time>2019-04-28T09:35:10Z</time>
      </trkpt>
      <trkpt lat="40.6712450" lon="-4.0732990">
        <ele>939.0</ele>
        <time>2019-04-28T09:35:11Z</time>
      </trkpt>
      <trkpt lat="40.6711870" lon="-4.0732370">
        <ele>939.0</ele>
        <time>2019-04-28T09:35:12Z</time>
      </trkpt>
      <trkpt lat="40.6711270" lon="-4.0731700">
        <ele>938.8</ele>
        <time>2019-04-28T09:35:13Z</time>
      </trkpt>
      <trkpt lat="40.6710710" lon="-4.0731000">
        <ele>938.8</ele>
        <time>2019-04-28T09:35:14Z</time>
      </trkpt>
      <trkpt lat="40.6710180" lon="-4.0730250">
        <ele>938.8</ele>
        <time>2019-04-28T09:35:15Z</time>
      </trkpt>
      <trkpt lat="40.6709670" lon="-4.0729470">
        <ele>938.8</ele>
        <time>2019-04-28T09:35:16Z</time>
      </trkpt>
      <trkpt lat="40.6709190" lon="-4.0728680">
        <ele>938.6</ele>
        <time>2019-04-28T09:35:17Z</time>
      </trkpt>
      <trkpt lat="40.6708730" lon="-4.0727870">
        <ele>938.4</ele>
        <time>2019-04-28T09:35:18Z</time>
      </trkpt>
      <trkpt lat="40.6708290" lon="-4.0727040">
        <ele>938.2</ele>
        <time>2019-04-28T09:35:19Z</time>
      </trkpt>
      <trkpt lat="40.6707850" lon="-4.0726210">
        <ele>938.2</ele>
        <time>2019-04-28T09:35:20Z</time>
      </trkpt>
      <trkpt lat="40.6707450" lon="-4.0725380">
        <ele>938.0</ele>
        <time>2019-04-28T09:35:21Z</time>
      </trkpt>
      <trkpt lat="40.6707070" lon="-4.0724550">
        <ele>938.0</ele>
        <time>2019-04-28T09:35:22Z</time>
      </trkpt>
      <trkpt lat="40.6706670" lon="-4.0723730">
        <ele>938.2</ele>
        <time>2019-04-28T09:35:23Z</time>
      </trkpt>
      <trkpt lat="40.6706260" lon="-4.0722900">
        <ele>938.0</ele>
        <time>2019-04-28T09:35:24Z</time>
      </trkpt>
      <trkpt lat="40.6705840" lon="-4.0722060">
        <ele>937.6</ele>
        <time>2019-04-28T09:35:25Z</time>
      </trkpt>
      <trkpt lat="40.6705400" lon="-4.0721260">
        <ele>937.6</ele>
        <time>2019-04-28T09:35:26Z</time>
      </trkpt>
      <trkpt lat="40.6704930" lon="-4.0720510">
        <ele>937.6</ele>
        <time>2019-04-28T09:35:27Z</time>
      </trkpt>
      <trkpt lat="40.6704410" lon="-4.0719710">
        <ele>937.4</ele>
        <time>2019-04-28T09:35:28Z</time>
      </trkpt>
      <trkpt lat="40.6703910" lon="-4.0718990">
        <ele>937.4</ele>
        <time>2019-04-28T09:35:29Z</time>
      </trkpt>
      <trkpt lat="40.6703460" lon="-4.0718340">
        <ele>937.2</ele>
        <time>2019-04-28T09:35:30Z</time>
      </trkpt>
      <trkpt lat="40.6702970" lon="-4.0717780">
        <ele>937.0</ele>
        <time>2019-04-28T09:35:31Z</time>
      </trkpt>
      <trkpt lat="40.6702470" lon="-4.0717270">
        <ele>937.0</ele>
        <time>2019-04-28T09:35:32Z</time>
      </trkpt>
      <trkpt lat="40.6701950" lon="-4.0716720">
        <ele>937.0</ele>
        <time>2019-04-28T09:35:33Z</time>
      </trkpt>
      <trkpt lat="40.6701450" lon="-4.0716110">
        <ele>937.2</ele>
        <time>2019-04-28T09:35:34Z</time>
      </trkpt>
      <trkpt lat="40.6700960" lon="-4.0715490">
        <ele>937.2</ele>
        <time>2019-04-28T09:35:35Z</time>
      </trkpt>
      <trkpt lat="40.6700440" lon="-4.0714900">
        <ele>937.0</ele>
        <time>2019-04-28T09:35:36Z</time>
      </trkpt>
      <trkpt lat="40.6699920" lon="-4.0714340">
        <ele>937.2</ele>
        <time>2019-04-28T09:35:37Z</time>
      </trkpt>
      <trkpt lat="40.6699360" lon="-4.0713780">
        <ele>937.2</ele>
        <time>2019-04-28T09:35:38Z</time>
      </trkpt>
      <trkpt lat="40.6698760" lon="-4.0713320">
        <ele>937.2</ele>
        <time>2019-04-28T09:35:39Z</time>
      </trkpt>
      <trkpt lat="40.6698170" lon="-4.0712820">
        <ele>936.8</ele>
        <time>2019-04-28T09:35:40Z</time>
      </trkpt>
      <trkpt lat="40.6697590" lon="-4.0712290">
        <ele>936.8</ele>
        <time>2019-04-28T09:35:41Z</time>
      </trkpt>
      <trkpt lat="40.6697050" lon="-4.0711700">
        <ele>936.8</ele>
        <time>2019-04-28T09:35:42Z</time>
      </trkpt>
      <trkpt lat="40.6696530" lon="-4.0711090">
        <ele>937.0</ele>
        <time>2019-04-28T09:35:43Z</time>
      </trkpt>
      <trkpt lat="40.6696000" lon="-4.0710470">
        <ele>937.0</ele>
        <time>2019-04-28T09:35:44Z</time>
      </trkpt>
      <trkpt lat="40.6695460" lon="-4.0709860">
        <ele>937.0</ele>
        <time>2019-04-28T09:35:45Z</time>
      </trkpt>
      <trkpt lat="40.6694890" lon="-4.0709210">
        <ele>937.0</ele>
        <time>2019-04-28T09:35:46Z</time>
      </trkpt>
      <trkpt lat="40.6694320" lon="-4.0708580">
        <ele>937.2</ele>
        <time>2019-04-28T09:35:47Z</time>
      </trkpt>
      <trkpt lat="40.6693750" lon="-4.0707920">
        <ele>937.4</ele>
        <time>2019-04-28T09:35:48Z</time>
      </trkpt>
      <trkpt lat="40.6693200" lon="-4.0707250">
        <ele>937.6</ele>
        <time>2019-04-28T09:35:49Z</time>
      </trkpt>
      <trkpt lat="40.6692650" lon="-4.0706560">
        <ele>937.4</ele>
        <time>2019-04-28T09:35:50Z</time>
      </trkpt>
      <trkpt lat="40.6692100" lon="-4.0705840">
        <ele>937.0</ele>
        <time>2019-04-28T09:35:51Z</time>
      </trkpt>
      <trkpt lat="40.6691550" lon="-4.0705100">
        <ele>937.0</ele>
        <time>2019-04-28T09:35:52Z</time>
      </trkpt>
      <trkpt lat="40.6691040" lon="-4.0704340">
        <ele>936.8</ele>
        <time>2019-04-28T09:35:53Z</time>
      </trkpt>
      <trkpt lat="40.6690540" lon="-4.0703590">
        <ele>936.8</ele>
        <time>2019-04-28T09:35:54Z</time>
      </trkpt>
      <trkpt lat="40.6690070" lon="-4.0702840">
        <ele>936.8</ele>
        <time>2019-04-28T09:35:55Z</time>
      </trkpt>
      <trkpt lat="40.6689610" lon="-4.0702090">
        <ele>936.8</ele>
        <time>2019-04-28T09:35:56Z</time>
      </trkpt>
      <trkpt lat="40.6689180" lon="-4.0701320">
        <ele>936.8</ele>
        <time>2019-04-28T09:35:57Z</time>
      </trkpt>
      <trkpt lat="40.6688770" lon="-4.0700550">
        <ele>937.0</ele>
        <time>2019-04-28T09:35:58Z</time>
      </trkpt>
      <trkpt lat="40.6688350" lon="-4.0699820">
        <ele>936.8</ele>
        <time>2019-04-28T09:35:59Z</time>
      </trkpt>
      <trkpt lat="40.6687930" lon="-4.0699110">
        <ele>936.8</ele>
        <time>2019-04-28T09:36:00Z</time>
      </trkpt>
      <trkpt lat="40.6687480" lon="-4.0698410">
        <ele>936.8</ele>
        <time>2019-04-28T09:36:01Z</time>
      </trkpt>
      <trkpt lat="40.6687010" lon="-4.0697770">
        <ele>937.0</ele>
        <time>2019-04-28T09:36:02Z</time>
      </trkpt>
      <trkpt lat="40.6686480" lon="-4.0697180">
        <ele>937.0</ele>
        <time>2019-04-28T09:36:03Z</time>
      </trkpt>
      <trkpt lat="40.6685950" lon="-4.0696600">
        <ele>937.0</ele>
        <time>2019-04-28T09:36:04Z</time>
      </trkpt>
      <trkpt lat="40.6685420" lon="-4.0695950">
        <ele>936.8</ele>
        <time>2019-04-28T09:36:05Z</time>
      </trkpt>
      <trkpt lat="40.6684910" lon="-4.0695240">
        <ele>936.4</ele>
        <time>2019-04-28T09:36:06Z</time>
      </trkpt>
      <trkpt lat="40.6684400" lon="-4.0694540">
        <ele>936.4</ele>
        <time>2019-04-28T09:36:07Z</time>
      </trkpt>
      <trkpt lat="40.6683890" lon="-4.0693830">
        <ele>936.2</ele>
        <time>2019-04-28T09:36:08Z</time>
      </trkpt>
      <trkpt lat="40.6683380" lon="-4.0693080">
        <ele>935.8</ele>
        <time>2019-04-28T09:36:09Z</time>
      </trkpt>
      <trkpt lat="40.6682900" lon="-4.0692300">
        <ele>935.6</ele>
        <time>2019-04-28T09:36:10Z</time>
      </trkpt>
      <trkpt lat="40.6682440" lon="-4.0691460">
        <ele>935.2</ele>
        <time>2019-04-28T09:36:11Z</time>
      </trkpt>
      <trkpt lat="40.6682020" lon="-4.0690620">
        <ele>935.0</ele>
        <time>2019-04-28T09:36:12Z</time>
      </trkpt>
      <trkpt lat="40.6681630" lon="-4.0689730">
        <ele>934.6</ele>
        <time>2019-04-28T09:36:13Z</time>
      </trkpt>
      <trkpt lat="40.6681320" lon="-4.0688770">
        <ele>934.0</ele>
        <time>2019-04-28T09:36:14Z</time>
      </trkpt>
      <trkpt lat="40.6681040" lon="-4.0687780">
        <ele>933.6</ele>
        <time>2019-04-28T09:36:15Z</time>
      </trkpt>
      <trkpt lat="40.6680750" lon="-4.0686820">
        <ele>933.4</ele>
        <time>2019-04-28T09:36:16Z</time>
      </trkpt>
      <trkpt lat="40.6680400" lon="-4.0685880">
        <ele>933.2</ele>
        <time>2019-04-28T09:36:17Z</time>
      </trkpt>
      <trkpt lat="40.6680040" lon="-4.0684990">
        <ele>932.8</ele>
        <time>2019-04-28T09:36:18Z</time>
      </trkpt>
      <trkpt lat="40.6679680" lon="-4.0684160">
        <ele>932.6</ele>
        <time>2019-04-28T09:36:19Z</time>
      </trkpt>
      <trkpt lat="40.6679390" lon="-4.0683310">
        <ele>932.4</ele>
        <time>2019-04-28T09:36:20Z</time>
      </trkpt>
      <trkpt lat="40.6679180" lon="-4.0682480">
        <ele>932.2</ele>
        <time>2019-04-28T09:36:21Z</time>
      </trkpt>
      <trkpt lat="40.6679040" lon="-4.0681720">
        <ele>932.2</ele>
        <time>2019-04-28T09:36:22Z</time>
      </trkpt>
      <trkpt lat="40.6678970" lon="-4.0680990">
        <ele>932.0</ele>
        <time>2019-04-28T09:36:23Z</time>
      </trkpt>
      <trkpt lat="40.6678920" lon="-4.0680250">
        <ele>931.2</ele>
        <time>2019-04-28T09:36:24Z</time>
      </trkpt>
      <trkpt lat="40.6678850" lon="-4.0679580">
        <ele>930.6</ele>
        <time>2019-04-28T09:36:25Z</time>
      </trkpt>
      <trkpt lat="40.6678790" lon="-4.0679070">
        <ele>930.0</ele>
        <time>2019-04-28T09:36:26Z</time>
      </trkpt>
      <trkpt lat="40.6678720" lon="-4.0678700">
        <ele>929.8</ele>
        <time>2019-04-28T09:36:27Z</time>
      </trkpt>
      <trkpt lat="40.6678630" lon="-4.0678360">
        <ele>929.4</ele>
        <time>2019-04-28T09:36:28Z</time>
      </trkpt>
      <trkpt lat="40.6678550" lon="-4.0678100">
        <ele>929.4</ele>
        <time>2019-04-28T09:36:29Z</time>
      </trkpt>
      <trkpt lat="40.6678490" lon="-4.0677860">
        <ele>929.2</ele>
        <time>2019-04-28T09:36:30Z</time>
      </trkpt>
      <trkpt lat="40.6678450" lon="-4.0677670">
        <ele>929.2</ele>
        <time>2019-04-28T09:36:31Z</time>
      </trkpt>
      <trkpt lat="40.6678420" lon="-4.0677520">
        <ele>929.2</ele>
        <time>2019-04-28T09:36:32Z</time>
      </trkpt>
      <trkpt lat="40.6678390" lon="-4.0677400">
        <ele>929.2</ele>
        <time>2019-04-28T09:36:33Z</time>
      </trkpt>
      <trkpt lat="40.6678370" lon="-4.0677340">
        <ele>929.2</ele>
        <time>2019-04-28T09:36:34Z</time>
      </trkpt>
      <trkpt lat="40.6678370" lon="-4.0677330">
        <ele>929.2</ele>
        <time>2019-04-28T09:36:35Z</time>
      </trkpt>
      <trkpt lat="40.6678370" lon="-4.0677310">
        <ele>929.0</ele>
        <time>2019-04-28T09:36:36Z</time>
      </trkpt>
      <trkpt lat="40.6678370" lon="-4.0677310">
        <ele>929.0</ele>
        <time>2019-04-28T09:36:37Z</time>
      </trkpt>
      <trkpt lat="40.6678330" lon="-4.0677280">
        <ele>929.0</ele>
        <time>2019-04-28T09:36:38Z</time>
      </trkpt>
      <trkpt lat="40.6678300" lon="-4.0677260">
        <ele>929.0</ele>
        <time>2019-04-28T09:36:39Z</time>
      </trkpt>
      <trkpt lat="40.6678270" lon="-4.0677240">
        <ele>929.0</ele>
        <time>2019-04-28T09:36:40Z</time>
      </trkpt>
      <trkpt lat="40.6678260" lon="-4.0677220">
        <ele>929.0</ele>
        <time>2019-04-28T09:36:41Z</time>
      </trkpt>
      <trkpt lat="40.6678170" lon="-4.0676660">
        <ele>929.4</ele>
        <time>2019-04-28T09:36:48Z</time>
      </trkpt>
      <trkpt lat="40.6678180" lon="-4.0676560">
        <ele>929.4</ele>
        <time>2019-04-28T09:36:49Z</time>
      </trkpt>
      <trkpt lat="40.6678170" lon="-4.0676500">
        <ele>929.4</ele>
        <time>2019-04-28T09:36:50Z</time>
      </trkpt>
      <trkpt lat="40.6678160" lon="-4.0676430">
        <ele>929.4</ele>
        <time>2019-04-28T09:36:51Z</time>
      </trkpt>
      <trkpt lat="40.6678150" lon="-4.0676350">
        <ele>929.4</ele>
        <time>2019-04-28T09:36:52Z</time>
      </trkpt>
      <trkpt lat="40.6678060" lon="-4.0676280">
        <ele>929.4</ele>
        <time>2019-04-28T09:36:53Z</time>
      </trkpt>
      <trkpt lat="40.6678070" lon="-4.0676220">
        <ele>929.2</ele>
        <time>2019-04-28T09:36:54Z</time>
      </trkpt>
      <trkpt lat="40.6678060" lon="-4.0676090">
        <ele>929.4</ele>
        <time>2019-04-28T09:36:55Z</time>
      </trkpt>
      <trkpt lat="40.6678050" lon="-4.0676000">
        <ele>929.4</ele>
        <time>2019-04-28T09:36:56Z</time>
      </trkpt>
      <trkpt lat="40.6678580" lon="-4.0673770">
        <ele>929.2</ele>
        <time>2019-04-28T09:37:14Z</time>
      </trkpt>
      <trkpt lat="40.6678580" lon="-4.0673370">
        <ele>929.2</ele>
        <time>2019-04-28T09:37:15Z</time>
      </trkpt>
      <trkpt lat="40.6678530" lon="-4.0673040">
        <ele>929.2</ele>
        <time>2019-04-28T09:37:16Z</time>
      </trkpt>
      <trkpt lat="40.6678440" lon="-4.0672690">
        <ele>929.4</ele>
        <time>2019-04-28T09:37:17Z</time>
      </trkpt>
      <trkpt lat="40.6678320" lon="-4.0672330">
        <ele>929.6</ele>
        <time>2019-04-28T09:37:18Z</time>
      </trkpt>
      <trkpt lat="40.6678260" lon="-4.0671820">
        <ele>929.8</ele>
        <time>2019-04-28T09:37:19Z</time>
      </trkpt>
      <trkpt lat="40.6678210" lon="-4.0671240">
        <ele>930.0</ele>
        <time>2019-04-28T09:37:20Z</time>
      </trkpt>
      <trkpt lat="40.6678150" lon="-4.0670740">
        <ele>930.8</ele>
        <time>2019-04-28T09:37:21Z</time>
      </trkpt>
      <trkpt lat="40.6678070" lon="-4.0670380">
        <ele>931.2</ele>
        <time>2019-04-28T09:37:22Z</time>
      </trkpt>
      <trkpt lat="40.6678020" lon="-4.0670030">
        <ele>931.6</ele>
        <time>2019-04-28T09:37:23Z</time>
      </trkpt>
      <trkpt lat="40.6677960" lon="-4.0669710">
        <ele>931.8</ele>
        <time>2019-04-28T09:37:24Z</time>
      </trkpt>
      <trkpt lat="40.6677860" lon="-4.0669330">
        <ele>932.0</ele>
        <time>2019-04-28T09:37:25Z</time>
      </trkpt>
      <trkpt lat="40.6677780" lon="-4.0668880">
        <ele>932.2</ele>
        <time>2019-04-28T09:37:26Z</time>
      </trkpt>
      <trkpt lat="40.6677750" lon="-4.0668470">
        <ele>932.4</ele>
        <time>2019-04-28T09:37:27Z</time>
      </trkpt>
      <trkpt lat="40.6677750" lon="-4.0668040">
        <ele>932.4</ele>
        <time>2019-04-28T09:37:28Z</time>
      </trkpt>
      <trkpt lat="40.6677640" lon="-4.0667580">
        <ele>932.2</ele>
        <time>2019-04-28T09:37:29Z</time>
      </trkpt>
      <trkpt lat="40.6677450" lon="-4.0667100">
        <ele>932.2</ele>
        <time>2019-04-28T09:37:30Z</time>
      </trkpt>
      <trkpt lat="40.6677290" lon="-4.0666550">
        <ele>932.4</ele>
        <time>2019-04-28T09:37:31Z</time>
      </trkpt>
      <trkpt lat="40.6677180" lon="-4.0665940">
        <ele>932.4</ele>
        <time>2019-04-28T09:37:32Z</time>
      </trkpt>
      <trkpt lat="40.6677100" lon="-4.0665300">
        <ele>932.6</ele>
        <time>2019-04-28T09:37:33Z</time>
      </trkpt>
      <trkpt lat="40.6677040" lon="-4.0664650">
        <ele>932.6</ele>
        <time>2019-04-28T09:37:34Z</time>
      </trkpt>
      <trkpt lat="40.6676970" lon="-4.0663970">
        <ele>932.8</ele>
        <time>2019-04-28T09:37:35Z</time>
      </trkpt>
      <trkpt lat="40.6676900" lon="-4.0663310">
        <ele>933.2</ele>
        <time>2019-04-28T09:37:36Z</time>
      </trkpt>
      <trkpt lat="40.6676790" lon="-4.0662670">
        <ele>933.6</ele>
        <time>2019-04-28T09:37:37Z</time>
      </trkpt>
      <trkpt lat="40.6676680" lon="-4.0662020">
        <ele>933.8</ele>
        <time>2019-04-28T09:37:38Z</time>
      </trkpt>
      <trkpt lat="40.6676580" lon="-4.0661390">
        <ele>934.0</ele>
        <time>2019-04-28T09:37:39Z</time>
      </trkpt>
      <trkpt lat="40.6676510" lon="-4.0660780">
        <ele>934.4</ele>
        <time>2019-04-28T09:37:40Z</time>
      </trkpt>
      <trkpt lat="40.6676430" lon="-4.0660160">
        <ele>934.4</ele>
        <time>2019-04-28T09:37:41Z</time>
      </trkpt>
      <trkpt lat="40.6676360" lon="-4.0659540">
        <ele>934.8</ele>
        <time>2019-04-28T09:37:42Z</time>
      </trkpt>
      <trkpt lat="40.6676280" lon="-4.0658920">
        <ele>934.8</ele>
        <time>2019-04-28T09:37:43Z</time>
      </trkpt>
      <trkpt lat="40.6676210" lon="-4.0658230">
        <ele>934.6</ele>
        <time>2019-04-28T09:37:44Z</time>
      </trkpt>
      <trkpt lat="40.6676150" lon="-4.0657470">
        <ele>934.4</ele>
        <time>2019-04-28T09:37:45Z</time>
      </trkpt>
      <trkpt lat="40.6676040" lon="-4.0656700">
        <ele>934.0</ele>
        <time>2019-04-28T09:37:46Z</time>
      </trkpt>
      <trkpt lat="40.6675890" lon="-4.0655900">
        <ele>933.8</ele>
        <time>2019-04-28T09:37:47Z</time>
      </trkpt>
      <trkpt lat="40.6675700" lon="-4.0655080">
        <ele>933.8</ele>
        <time>2019-04-28T09:37:48Z</time>
      </trkpt>
      <trkpt lat="40.6675480" lon="-4.0654260">
        <ele>933.6</ele>
        <time>2019-04-28T09:37:49Z</time>
      </trkpt>
      <trkpt lat="40.6675260" lon="-4.0653430">
        <ele>933.4</ele>
        <time>2019-04-28T09:37:50Z</time>
      </trkpt>
      <trkpt lat="40.6675070" lon="-4.0652620">
        <ele>933.2</ele>
        <time>2019-04-28T09:37:51Z</time>
      </trkpt>
      <trkpt lat="40.6674890" lon="-4.0651810">
        <ele>933.2</ele>
        <time>2019-04-28T09:37:52Z</time>
      </trkpt>
      <trkpt lat="40.6674640" lon="-4.0650970">
        <ele>933.0</ele>
        <time>2019-04-28T09:37:53Z</time>
      </trkpt>
      <trkpt lat="40.6674370" lon="-4.0650140">
        <ele>932.4</ele>
        <time>2019-04-28T09:37:54Z</time>
      </trkpt>
      <trkpt lat="40.6674120" lon="-4.0649240">
        <ele>932.4</ele>
        <time>2019-04-28T09:37:55Z</time>
      </trkpt>
      <trkpt lat="40.6673940" lon="-4.0648310">
        <ele>931.8</ele>
        <time>2019-04-28T09:37:56Z</time>
      </trkpt>
      <trkpt lat="40.6673770" lon="-4.0647350">
        <ele>931.6</ele>
        <time>2019-04-28T09:37:57Z</time>
      </trkpt>
      <trkpt lat="40.6673570" lon="-4.0646400">
        <ele>931.4</ele>
        <time>2019-04-28T09:37:58Z</time>
      </trkpt>
      <trkpt lat="40.6673400" lon="-4.0645520">
        <ele>931.0</ele>
        <time>2019-04-28T09:37:59Z</time>
      </trkpt>
      <trkpt lat="40.6673240" lon="-4.0644630">
        <ele>931.0</ele>
        <time>2019-04-28T09:38:00Z</time>
      </trkpt>
      <trkpt lat="40.6673070" lon="-4.0643750">
        <ele>930.8</ele>
        <time>2019-04-28T09:38:01Z</time>
      </trkpt>
      <trkpt lat="40.6672900" lon="-4.0642930">
        <ele>930.8</ele>
        <time>2019-04-28T09:38:02Z</time>
      </trkpt>
      <trkpt lat="40.6672720" lon="-4.0642210">
        <ele>931.0</ele>
        <time>2019-04-28T09:38:03Z</time>
      </trkpt>
      <trkpt lat="40.6672640" lon="-4.0641560">
        <ele>931.0</ele>
        <time>2019-04-28T09:38:04Z</time>
      </trkpt>
      <trkpt lat="40.6672480" lon="-4.0640970">
        <ele>930.8</ele>
        <time>2019-04-28T09:38:05Z</time>
      </trkpt>
      <trkpt lat="40.6672400" lon="-4.0640430">
        <ele>930.8</ele>
        <time>2019-04-28T09:38:06Z</time>
      </trkpt>
      <trkpt lat="40.6672360" lon="-4.0640080">
        <ele>930.6</ele>
        <time>2019-04-28T09:38:07Z</time>
      </trkpt>
      <trkpt lat="40.6672330" lon="-4.0639710">
        <ele>930.6</ele>
        <time>2019-04-28T09:38:08Z</time>
      </trkpt>
      <trkpt lat="40.6672320" lon="-4.0639300">
        <ele>930.4</ele>
        <time>2019-04-28T09:38:09Z</time>
      </trkpt>
      <trkpt lat="40.6672370" lon="-4.0638880">
        <ele>930.4</ele>
        <time>2019-04-28T09:38:10Z</time>
      </trkpt>
      <trkpt lat="40.6672370" lon="-4.0638180">
        <ele>930.6</ele>
        <time>2019-04-28T09:38:11Z</time>
      </trkpt>
      <trkpt lat="40.6672240" lon="-4.0637460">
        <ele>930.8</ele>
        <time>2019-04-28T09:38:12Z</time>
      </trkpt>
      <trkpt lat="40.6672050" lon="-4.0636680">
        <ele>931.0</ele>
        <time>2019-04-28T09:38:13Z</time>
      </trkpt>
      <trkpt lat="40.6671850" lon="-4.0635820">
        <ele>931.4</ele>
        <time>2019-04-28T09:38:14Z</time>
      </trkpt>
      <trkpt lat="40.6671690" lon="-4.0634970">
        <ele>931.6</ele>
        <time>2019-04-28T09:38:15Z</time>
      </trkpt>
      <trkpt lat="40.6671530" lon="-4.0634120">
        <ele>931.8</ele>
        <time>2019-04-28T09:38:16Z</time>
      </trkpt>
      <trkpt lat="40.6671370" lon="-4.0633280">
        <ele>932.0</ele>
        <time>2019-04-28T09:38:17Z</time>
      </trkpt>
      <trkpt lat="40.6671150" lon="-4.0632450">
        <ele>932.2</ele>
        <time>2019-04-28T09:38:18Z</time>
      </trkpt>
      <trkpt lat="40.6670880" lon="-4.0631590">
        <ele>932.4</ele>
        <time>2019-04-28T09:38:19Z</time>
      </trkpt>
      <trkpt lat="40.6670610" lon="-4.0630740">
        <ele>932.6</ele>
        <time>2019-04-28T09:38:20Z</time>
      </trkpt>
      <trkpt lat="40.6670380" lon="-4.0629870">
        <ele>932.8</ele>
        <time>2019-04-28T09:38:21Z</time>
      </trkpt>
      <trkpt lat="40.6670140" lon="-4.0629030">
        <ele>932.8</ele>
        <time>2019-04-28T09:38:22Z</time>
      </trkpt>
      <trkpt lat="40.6669890" lon="-4.0628270">
        <ele>933.0</ele>
        <time>2019-04-28T09:38:23Z</time>
      </trkpt>
      <trkpt lat="40.6669640" lon="-4.0627520">
        <ele>932.8</ele>
        <time>2019-04-28T09:38:24Z</time>
      </trkpt>
      <trkpt lat="40.6669390" lon="-4.0626710">
        <ele>933.0</ele>
        <time>2019-04-28T09:38:25Z</time>
      </trkpt>
      <trkpt lat="40.6669150" lon="-4.0625930">
        <ele>933.0</ele>
        <time>2019-04-28T09:38:26Z</time>
      </trkpt>
      <trkpt lat="40.6668920" lon="-4.0625100">
        <ele>933.0</ele>
        <time>2019-04-28T09:38:27Z</time>
      </trkpt>
      <trkpt lat="40.6668670" lon="-4.0624260">
        <ele>933.0</ele>
        <time>2019-04-28T09:38:28Z</time>
      </trkpt>
      <trkpt lat="40.6668380" lon="-4.0623460">
        <ele>933.0</ele>
        <time>2019-04-28T09:38:29Z</time>
      </trkpt>
      <trkpt lat="40.6668130" lon="-4.0622620">
        <ele>933.0</ele>
        <time>2019-04-28T09:38:30Z</time>
      </trkpt>
      <trkpt lat="40.6667930" lon="-4.0621800">
        <ele>933.0</ele>
        <time>2019-04-28T09:38:31Z</time>
      </trkpt>
      <trkpt lat="40.6667800" lon="-4.0620960">
        <ele>933.0</ele>
        <time>2019-04-28T09:38:32Z</time>
      </trkpt>
      <trkpt lat="40.6667810" lon="-4.0620190">
        <ele>933.0</ele>
        <time>2019-04-28T09:38:33Z</time>
      </trkpt>
      <trkpt lat="40.6667880" lon="-4.0619540">
        <ele>932.8</ele>
        <time>2019-04-28T09:38:34Z</time>
      </trkpt>
      <trkpt lat="40.6667760" lon="-4.0618870">
        <ele>932.8</ele>
        <time>2019-04-28T09:38:35Z</time>
      </trkpt>
      <trkpt lat="40.6667590" lon="-4.0618170">
        <ele>932.8</ele>
        <time>2019-04-28T09:38:36Z</time>
      </trkpt>
      <trkpt lat="40.6667430" lon="-4.0617450">
        <ele>932.6</ele>
        <time>2019-04-28T09:38:37Z</time>
      </trkpt>
      <trkpt lat="40.6667210" lon="-4.0616700">
        <ele>932.8</ele>
        <time>2019-04-28T09:38:38Z</time>
      </trkpt>
      <trkpt lat="40.6666950" lon="-4.0615930">
        <ele>932.8</ele>
        <time>2019-04-28T09:38:39Z</time>
      </trkpt>
      <trkpt lat="40.6666720" lon="-4.0615210">
        <ele>933.0</ele>
        <time>2019-04-28T09:38:40Z</time>
      </trkpt>
      <trkpt lat="40.6666520" lon="-4.0614510">
        <ele>933.0</ele>
        <time>2019-04-28T09:38:41Z</time>
      </trkpt>
      <trkpt lat="40.6666340" lon="-4.0613810">
        <ele>933.4</ele>
        <time>2019-04-28T09:38:42Z</time>
      </trkpt>
      <trkpt lat="40.6666180" lon="-4.0613140">
        <ele>933.4</ele>
        <time>2019-04-28T09:38:43Z</time>
      </trkpt>
      <trkpt lat="40.6666040" lon="-4.0612410">
        <ele>933.4</ele>
        <time>2019-04-28T09:38:44Z</time>
      </trkpt>
      <trkpt lat="40.6665930" lon="-4.0611660">
        <ele>933.4</ele>
        <time>2019-04-28T09:38:45Z</time>
      </trkpt>
      <trkpt lat="40.6665810" lon="-4.0610910">
        <ele>933.4</ele>
        <time>2019-04-28T09:38:46Z</time>
      </trkpt>
      <trkpt lat="40.6665800" lon="-4.0610150">
        <ele>933.2</ele>
        <time>2019-04-28T09:38:47Z</time>
      </trkpt>
      <trkpt lat="40.6665800" lon="-4.0609430">
        <ele>933.4</ele>
        <time>2019-04-28T09:38:48Z</time>
      </trkpt>
      <trkpt lat="40.6665760" lon="-4.0608530">
        <ele>933.6</ele>
        <time>2019-04-28T09:38:49Z</time>
      </trkpt>
      <trkpt lat="40.6665760" lon="-4.0607690">
        <ele>933.6</ele>
        <time>2019-04-28T09:38:50Z</time>
      </trkpt>
      <trkpt lat="40.6665760" lon="-4.0606830">
        <ele>933.6</ele>
        <time>2019-04-28T09:38:51Z</time>
      </trkpt>
      <trkpt lat="40.6665710" lon="-4.0606000">
        <ele>933.6</ele>
        <time>2019-04-28T09:38:52Z</time>
      </trkpt>
      <trkpt lat="40.6665520" lon="-4.0605230">
        <ele>933.6</ele>
        <time>2019-04-28T09:38:53Z</time>
      </trkpt>
      <trkpt lat="40.6665230" lon="-4.0604460">
        <ele>933.8</ele>
        <time>2019-04-28T09:38:54Z</time>
      </trkpt>
      <trkpt lat="40.6664950" lon="-4.0603700">
        <ele>933.8</ele>
        <time>2019-04-28T09:38:55Z</time>
      </trkpt>
      <trkpt lat="40.6664750" lon="-4.0602900">
        <ele>933.8</ele>
        <time>2019-04-28T09:38:56Z</time>
      </trkpt>
      <trkpt lat="40.6664700" lon="-4.0602090">
        <ele>933.8</ele>
        <time>2019-04-28T09:38:57Z</time>
      </trkpt>
      <trkpt lat="40.6664640" lon="-4.0601450">
        <ele>933.8</ele>
        <time>2019-04-28T09:38:58Z</time>
      </trkpt>
      <trkpt lat="40.6664570" lon="-4.0600820">
        <ele>933.8</ele>
        <time>2019-04-28T09:38:59Z</time>
      </trkpt>
      <trkpt lat="40.6664440" lon="-4.0599560">
        <ele>933.8</ele>
        <time>2019-04-28T09:39:00Z</time>
      </trkpt>
      <trkpt lat="40.6664180" lon="-4.0598780">
        <ele>933.8</ele>
        <time>2019-04-28T09:39:01Z</time>
      </trkpt>
      <trkpt lat="40.6663880" lon="-4.0598000">
        <ele>934.0</ele>
        <time>2019-04-28T09:39:02Z</time>
      </trkpt>
      <trkpt lat="40.6663590" lon="-4.0597230">
        <ele>934.0</ele>
        <time>2019-04-28T09:39:03Z</time>
      </trkpt>
      <trkpt lat="40.6663390" lon="-4.0596460">
        <ele>934.0</ele>
        <time>2019-04-28T09:39:04Z</time>
      </trkpt>
      <trkpt lat="40.6663290" lon="-4.0595650">
        <ele>933.8</ele>
        <time>2019-04-28T09:39:05Z</time>
      </trkpt>
      <trkpt lat="40.6663240" lon="-4.0594840">
        <ele>933.8</ele>
        <time>2019-04-28T09:39:06Z</time>
      </trkpt>
      <trkpt lat="40.6663150" lon="-4.0594020">
        <ele>933.8</ele>
        <time>2019-04-28T09:39:07Z</time>
      </trkpt>
      <trkpt lat="40.6662950" lon="-4.0593200">
        <ele>933.8</ele>
        <time>2019-04-28T09:39:08Z</time>
      </trkpt>
      <trkpt lat="40.6662690" lon="-4.0592430">
        <ele>933.8</ele>
        <time>2019-04-28T09:39:09Z</time>
      </trkpt>
      <trkpt lat="40.6662410" lon="-4.0591660">
        <ele>933.8</ele>
        <time>2019-04-28T09:39:10Z</time>
      </trkpt>
      <trkpt lat="40.6662110" lon="-4.0590880">
        <ele>933.8</ele>
        <time>2019-04-28T09:39:11Z</time>
      </trkpt>
      <trkpt lat="40.6661830" lon="-4.0590110">
        <ele>933.8</ele>
        <time>2019-04-28T09:39:12Z</time>
      </trkpt>
      <trkpt lat="40.6661590" lon="-4.0589380">
        <ele>933.8</ele>
        <time>2019-04-28T09:39:13Z</time>
      </trkpt>
      <trkpt lat="40.6661360" lon="-4.0588720">
        <ele>934.0</ele>
        <time>2019-04-28T09:39:14Z</time>
      </trkpt>
      <trkpt lat="40.6661100" lon="-4.0588100">
        <ele>934.4</ele>
        <time>2019-04-28T09:39:15Z</time>
      </trkpt>
      <trkpt lat="40.6660870" lon="-4.0587540">
        <ele>934.4</ele>
        <time>2019-04-28T09:39:16Z</time>
      </trkpt>
      <trkpt lat="40.6660630" lon="-4.0586980">
        <ele>934.6</ele>
        <time>2019-04-28T09:39:17Z</time>
      </trkpt>
      <trkpt lat="40.6660420" lon="-4.0586440">
        <ele>934.4</ele>
        <time>2019-04-28T09:39:18Z</time>
      </trkpt>
      <trkpt lat="40.6660210" lon="-4.0585850">
        <ele>934.2</ele>
        <time>2019-04-28T09:39:19Z</time>
      </trkpt>
      <trkpt lat="40.6660020" lon="-4.0585240">
        <ele>934.0</ele>
        <time>2019-04-28T09:39:20Z</time>
      </trkpt>
      <trkpt lat="40.6659890" lon="-4.0584620">
        <ele>934.0</ele>
        <time>2019-04-28T09:39:21Z</time>
      </trkpt>
      <trkpt lat="40.6659810" lon="-4.0584050">
        <ele>934.0</ele>
        <time>2019-04-28T09:39:22Z</time>
      </trkpt>
      <trkpt lat="40.6659750" lon="-4.0583440">
        <ele>934.0</ele>
        <time>2019-04-28T09:39:23Z</time>
      </trkpt>
      <trkpt lat="40.6659680" lon="-4.0582810">
        <ele>934.0</ele>
        <time>2019-04-28T09:39:24Z</time>
      </trkpt>
      <trkpt lat="40.6659560" lon="-4.0582170">
        <ele>933.8</ele>
        <time>2019-04-28T09:39:25Z</time>
      </trkpt>
      <trkpt lat="40.6659410" lon="-4.0581530">
        <ele>933.6</ele>
        <time>2019-04-28T09:39:26Z</time>
      </trkpt>
      <trkpt lat="40.6659250" lon="-4.0580910">
        <ele>933.6</ele>
        <time>2019-04-28T09:39:27Z</time>
      </trkpt>
      <trkpt lat="40.6659100" lon="-4.0580260">
        <ele>933.4</ele>
        <time>2019-04-28T09:39:28Z</time>
      </trkpt>
      <trkpt lat="40.6658990" lon="-4.0579510">
        <ele>933.0</ele>
        <time>2019-04-28T09:39:29Z</time>
      </trkpt>
      <trkpt lat="40.6658890" lon="-4.0578690">
        <ele>932.4</ele>
        <time>2019-04-28T09:39:30Z</time>
      </trkpt>
      <trkpt lat="40.6658760" lon="-4.0577780">
        <ele>932.0</ele>
        <time>2019-04-28T09:39:31Z</time>
      </trkpt>
      <trkpt lat="40.6658570" lon="-4.0576820">
        <ele>931.6</ele>
        <time>2019-04-28T09:39:32Z</time>
      </trkpt>
      <trkpt lat="40.6658350" lon="-4.0575870">
        <ele>931.4</ele>
        <time>2019-04-28T09:39:33Z</time>
      </trkpt>
      <trkpt lat="40.6658140" lon="-4.0574950">
        <ele>931.0</ele>
        <time>2019-04-28T09:39:34Z</time>
      </trkpt>
      <trkpt lat="40.6657900" lon="-4.0573970">
        <ele>930.8</ele>
        <time>2019-04-28T09:39:35Z</time>
      </trkpt>
      <trkpt lat="40.6657670" lon="-4.0572910">
        <ele>930.2</ele>
        <time>2019-04-28T09:39:36Z</time>
      </trkpt>
      <trkpt lat="40.6657470" lon="-4.0571850">
        <ele>929.6</ele>
        <time>2019-04-28T09:39:37Z</time>
      </trkpt>
      <trkpt lat="40.6657250" lon="-4.0570730">
        <ele>929.4</ele>
        <time>2019-04-28T09:39:38Z</time>
      </trkpt>
      <trkpt lat="40.6657030" lon="-4.0569640">
        <ele>928.8</ele>
        <time>2019-04-28T09:39:39Z</time>
      </trkpt>
      <trkpt lat="40.6656820" lon="-4.0568520">
        <ele>928.4</ele>
        <time>2019-04-28T09:39:40Z</time>
      </trkpt>
      <trkpt lat="40.6656620" lon="-4.0567410">
        <ele>928.0</ele>
        <time>2019-04-28T09:39:41Z</time>
      </trkpt>
      <trkpt lat="40.6656420" lon="-4.0566320">
        <ele>927.8</ele>
        <time>2019-04-28T09:39:42Z</time>
      </trkpt>
      <trkpt lat="40.6656260" lon="-4.0565240">
        <ele>927.6</ele>
        <time>2019-04-28T09:39:43Z</time>
      </trkpt>
      <trkpt lat="40.6656140" lon="-4.0564110">
        <ele>927.4</ele>
        <time>2019-04-28T09:39:44Z</time>
      </trkpt>
      <trkpt lat="40.6656040" lon="-4.0563030">
        <ele>927.2</ele>
        <time>2019-04-28T09:39:45Z</time>
      </trkpt>
      <trkpt lat="40.6655920" lon="-4.0561940">
        <ele>927.0</ele>
        <time>2019-04-28T09:39:46Z</time>
      </trkpt>
      <trkpt lat="40.6655780" lon="-4.0560850">
        <ele>926.8</ele>
        <time>2019-04-28T09:39:47Z</time>
      </trkpt>
      <trkpt lat="40.6655670" lon="-4.0559780">
        <ele>926.6</ele>
        <time>2019-04-28T09:39:48Z</time>
      </trkpt>
      <trkpt lat="40.6655550" lon="-4.0558750">
        <ele>926.4</ele>
        <time>2019-04-28T09:39:49Z</time>
      </trkpt>
      <trkpt lat="40.6655390" lon="-4.0557780">
        <ele>926.2</ele>
        <time>2019-04-28T09:39:50Z</time>
      </trkpt>
      <trkpt lat="40.6655210" lon="-4.0556790">
        <ele>926.2</ele>
        <time>2019-04-28T09:39:51Z</time>
      </trkpt>
      <trkpt lat="40.6655090" lon="-4.0555780">
        <ele>925.8</ele>
        <time>2019-04-28T09:39:52Z</time>
      </trkpt>
      <trkpt lat="40.6654980" lon="-4.0554920">
        <ele>925.0</ele>
        <time>2019-04-28T09:39:53Z</time>
      </trkpt>
      <trkpt lat="40.6654790" lon="-4.0554060">
        <ele>924.8</ele>
        <time>2019-04-28T09:39:54Z</time>
      </trkpt>
      <trkpt lat="40.6654610" lon="-4.0553260">
        <ele>924.4</ele>
        <time>2019-04-28T09:39:55Z</time>
      </trkpt>
      <trkpt lat="40.6654350" lon="-4.0552420">
        <ele>924.2</ele>
        <time>2019-04-28T09:39:56Z</time>
      </trkpt>
      <trkpt lat="40.6654080" lon="-4.0551640">
        <ele>923.8</ele>
        <time>2019-04-28T09:39:57Z</time>
      </trkpt>
      <trkpt lat="40.6653830" lon="-4.0550830">
        <ele>923.8</ele>
        <time>2019-04-28T09:39:58Z</time>
      </trkpt>
      <trkpt lat="40.6653590" lon="-4.0550020">
        <ele>923.8</ele>
        <time>2019-04-28T09:39:59Z</time>
      </trkpt>
      <trkpt lat="40.6653320" lon="-4.0549170">
        <ele>923.6</ele>
        <time>2019-04-28T09:40:00Z</time>
      </trkpt>
      <trkpt lat="40.6653050" lon="-4.0548400">
        <ele>923.6</ele>
        <time>2019-04-28T09:40:01Z</time>
      </trkpt>
      <trkpt lat="40.6652810" lon="-4.0547740">
        <ele>923.6</ele>
        <time>2019-04-28T09:40:02Z</time>
      </trkpt>
      <trkpt lat="40.6652610" lon="-4.0547220">
        <ele>923.4</ele>
        <time>2019-04-28T09:40:03Z</time>
      </trkpt>
      <trkpt lat="40.6652440" lon="-4.0546850">
        <ele>923.2</ele>
        <time>2019-04-28T09:40:04Z</time>
      </trkpt>
      <trkpt lat="40.6652330" lon="-4.0546610">
        <ele>923.0</ele>
        <time>2019-04-28T09:40:05Z</time>
      </trkpt>
      <trkpt lat="40.6652260" lon="-4.0546460">
        <ele>923.2</ele>
        <time>2019-04-28T09:40:06Z</time>
      </trkpt>
      <trkpt lat="40.6652230" lon="-4.0546330">
        <ele>923.0</ele>
        <time>2019-04-28T09:40:07Z</time>
      </trkpt>
      <trkpt lat="40.6652150" lon="-4.0546210">
        <ele>923.0</ele>
        <time>2019-04-28T09:40:08Z</time>
      </trkpt>
      <trkpt lat="40.6652060" lon="-4.0546070">
        <ele>923.0</ele>
        <time>2019-04-28T09:40:09Z</time>
      </trkpt>
      <trkpt lat="40.6651920" lon="-4.0545880">
        <ele>923.0</ele>
        <time>2019-04-28T09:40:10Z</time>
      </trkpt>
      <trkpt lat="40.6651760" lon="-4.0545660">
        <ele>922.8</ele>
        <time>2019-04-28T09:40:11Z</time>
      </trkpt>
      <trkpt lat="40.6651620" lon="-4.0545340">
        <ele>922.6</ele>
        <time>2019-04-28T09:40:12Z</time>
      </trkpt>
      <trkpt lat="40.6651530" lon="-4.0544900">
        <ele>922.6</ele>
        <time>2019-04-28T09:40:13Z</time>
      </trkpt>
      <trkpt lat="40.6651530" lon="-4.0544310">
        <ele>922.6</ele>
        <time>2019-04-28T09:40:14Z</time>
      </trkpt>
      <trkpt lat="40.6651600" lon="-4.0543730">
        <ele>922.6</ele>
        <time>2019-04-28T09:40:15Z</time>
      </trkpt>
      <trkpt lat="40.6651670" lon="-4.0543160">
        <ele>922.6</ele>
        <time>2019-04-28T09:40:16Z</time>
      </trkpt>
      <trkpt lat="40.6651720" lon="-4.0542600">
        <ele>922.6</ele>
        <time>2019-04-28T09:40:17Z</time>
      </trkpt>
      <trkpt lat="40.6651750" lon="-4.0542020">
        <ele>922.6</ele>
        <time>2019-04-28T09:40:18Z</time>
      </trkpt>
      <trkpt lat="40.6651740" lon="-4.0541420">
        <ele>922.6</ele>
        <time>2019-04-28T09:40:19Z</time>
      </trkpt>
      <trkpt lat="40.6651660" lon="-4.0540790">
        <ele>922.4</ele>
        <time>2019-04-28T09:40:20Z</time>
      </trkpt>
      <trkpt lat="40.6651580" lon="-4.0540100">
        <ele>922.4</ele>
        <time>2019-04-28T09:40:21Z</time>
      </trkpt>
      <trkpt lat="40.6651500" lon="-4.0539390">
        <ele>922.0</ele>
        <time>2019-04-28T09:40:22Z</time>
      </trkpt>
      <trkpt lat="40.6651410" lon="-4.0538670">
        <ele>922.0</ele>
        <time>2019-04-28T09:40:23Z</time>
      </trkpt>
      <trkpt lat="40.6651340" lon="-4.0537940">
        <ele>921.6</ele>
        <time>2019-04-28T09:40:24Z</time>
      </trkpt>
      <trkpt lat="40.6651240" lon="-4.0537220">
        <ele>921.6</ele>
        <time>2019-04-28T09:40:25Z</time>
      </trkpt>
      <trkpt lat="40.6651100" lon="-4.0536510">
        <ele>921.6</ele>
        <time>2019-04-28T09:40:26Z</time>
      </trkpt>
      <trkpt lat="40.6650920" lon="-4.0535830">
        <ele>921.4</ele>
        <time>2019-04-28T09:40:27Z</time>
      </trkpt>
      <trkpt lat="40.6650700" lon="-4.0535160">
        <ele>921.4</ele>
        <time>2019-04-28T09:40:28Z</time>
      </trkpt>
      <trkpt lat="40.6650460" lon="-4.0534500">
        <ele>921.4</ele>
        <time>2019-04-28T09:40:29Z</time>
      </trkpt>
      <trkpt lat="40.6650220" lon="-4.0533840">
        <ele>921.0</ele>
        <time>2019-04-28T09:40:30Z</time>
      </trkpt>
      <trkpt lat="40.6649940" lon="-4.0533180">
        <ele>920.8</ele>
        <time>2019-04-28T09:40:31Z</time>
      </trkpt>
      <trkpt lat="40.6649660" lon="-4.0532490">
        <ele>920.6</ele>
        <time>2019-04-28T09:40:32Z</time>
      </trkpt>
      <trkpt lat="40.6649370" lon="-4.0531790">
        <ele>920.4</ele>
        <time>2019-04-28T09:40:33Z</time>
      </trkpt>
      <trkpt lat="40.6649080" lon="-4.0531090">
        <ele>920.2</ele>
        <time>2019-04-28T09:40:34Z</time>
      </trkpt>
      <trkpt lat="40.6648760" lon="-4.0530350">
        <ele>920.2</ele>
        <time>2019-04-28T09:40:35Z</time>
      </trkpt>
      <trkpt lat="40.6648430" lon="-4.0529620">
        <ele>920.0</ele>
        <time>2019-04-28T09:40:36Z</time>
      </trkpt>
      <trkpt lat="40.6648110" lon="-4.0528880">
        <ele>920.0</ele>
        <time>2019-04-28T09:40:37Z</time>
      </trkpt>
      <trkpt lat="40.6647800" lon="-4.0528120">
        <ele>919.8</ele>
        <time>2019-04-28T09:40:38Z</time>
      </trkpt>
      <trkpt lat="40.6647470" lon="-4.0527390">
        <ele>919.6</ele>
        <time>2019-04-28T09:40:39Z</time>
      </trkpt>
      <trkpt lat="40.6647160" lon="-4.0526640">
        <ele>919.4</ele>
        <time>2019-04-28T09:40:40Z</time>
      </trkpt>
      <trkpt lat="40.6646860" lon="-4.0525910">
        <ele>919.6</ele>
        <time>2019-04-28T09:40:41Z</time>
      </trkpt>
      <trkpt lat="40.6646520" lon="-4.0525210">
        <ele>919.4</ele>
        <time>2019-04-28T09:40:42Z</time>
      </trkpt>
      <trkpt lat="40.6646110" lon="-4.0524650">
        <ele>919.2</ele>
        <time>2019-04-28T09:40:43Z</time>
      </trkpt>
      <trkpt lat="40.6645660" lon="-4.0524330">
        <ele>919.2</ele>
        <time>2019-04-28T09:40:44Z</time>
      </trkpt>
      <trkpt lat="40.6645260" lon="-4.0524090">
        <ele>919.0</ele>
        <time>2019-04-28T09:40:45Z</time>
      </trkpt>
      <trkpt lat="40.6644930" lon="-4.0523790">
        <ele>918.8</ele>
        <time>2019-04-28T09:40:46Z</time>
      </trkpt>
      <trkpt lat="40.6644600" lon="-4.0523550">
        <ele>918.8</ele>
        <time>2019-04-28T09:40:47Z</time>
      </trkpt>
      <trkpt lat="40.6644330" lon="-4.0523380">
        <ele>918.8</ele>
        <time>2019-04-28T09:40:48Z</time>
      </trkpt>
      <trkpt lat="40.6644130" lon="-4.0523190">
        <ele>918.6</ele>
        <time>2019-04-28T09:40:49Z</time>
      </trkpt>
      <trkpt lat="40.6644020" lon="-4.0523050">
        <ele>918.6</ele>
        <time>2019-04-28T09:40:50Z</time>
      </trkpt>
      <trkpt lat="40.6643990" lon="-4.0523000">
        <ele>918.6</ele>
        <time>2019-04-28T09:40:51Z</time>
      </trkpt>
      <trkpt lat="40.6643940" lon="-4.0522990">
        <ele>918.6</ele>
        <time>2019-04-28T09:40:52Z</time>
      </trkpt>
      <trkpt lat="40.6643890" lon="-4.0522950">
        <ele>918.6</ele>
        <time>2019-04-28T09:40:53Z</time>
      </trkpt>
      <trkpt lat="40.6643860" lon="-4.0522910">
        <ele>918.4</ele>
        <time>2019-04-28T09:40:54Z</time>
      </trkpt>
      <trkpt lat="40.6643830" lon="-4.0522890">
        <ele>918.6</ele>
        <time>2019-04-28T09:40:55Z</time>
      </trkpt>
      <trkpt lat="40.6643800" lon="-4.0522900">
        <ele>918.6</ele>
        <time>2019-04-28T09:40:56Z</time>
      </trkpt>
      <trkpt lat="40.6643810" lon="-4.0522930">
        <ele>918.6</ele>
        <time>2019-04-28T09:40:57Z</time>
      </trkpt>
      <trkpt lat="40.6643820" lon="-4.0522920">
        <ele>918.4</ele>
        <time>2019-04-28T09:40:58Z</time>
      </trkpt>
      <trkpt lat="40.6641800" lon="-4.0520550">
        <ele>918.6</ele>
        <time>2019-04-28T09:41:36Z</time>
      </trkpt>
      <trkpt lat="40.6641490" lon="-4.0520210">
        <ele>918.4</ele>
        <time>2019-04-28T09:41:37Z</time>
      </trkpt>
      <trkpt lat="40.6641100" lon="-4.0519770">
        <ele>918.4</ele>
        <time>2019-04-28T09:41:38Z</time>
      </trkpt>
      <trkpt lat="40.6640700" lon="-4.0519270">
        <ele>918.4</ele>
        <time>2019-04-28T09:41:39Z</time>
      </trkpt>
      <trkpt lat="40.6640280" lon="-4.0518820">
        <ele>918.4</ele>
        <time>2019-04-28T09:41:40Z</time>
      </trkpt>
      <trkpt lat="40.6639840" lon="-4.0518350">
        <ele>918.4</ele>
        <time>2019-04-28T09:41:41Z</time>
      </trkpt>
      <trkpt lat="40.6639410" lon="-4.0517860">
        <ele>918.4</ele>
        <time>2019-04-28T09:41:42Z</time>
      </trkpt>
      <trkpt lat="40.6638970" lon="-4.0517360">
        <ele>918.4</ele>
        <time>2019-04-28T09:41:43Z</time>
      </trkpt>
      <trkpt lat="40.6638510" lon="-4.0516850">
        <ele>918.0</ele>
        <time>2019-04-28T09:41:44Z</time>
      </trkpt>
      <trkpt lat="40.6638010" lon="-4.0516300">
        <ele>917.8</ele>
        <time>2019-04-28T09:41:45Z</time>
      </trkpt>
      <trkpt lat="40.6637500" lon="-4.0515740">
        <ele>917.6</ele>
        <time>2019-04-28T09:41:46Z</time>
      </trkpt>
      <trkpt lat="40.6636960" lon="-4.0515180">
        <ele>917.0</ele>
        <time>2019-04-28T09:41:47Z</time>
      </trkpt>
      <trkpt lat="40.6636400" lon="-4.0514630">
        <ele>916.8</ele>
        <time>2019-04-28T09:41:48Z</time>
      </trkpt>
      <trkpt lat="40.6635800" lon="-4.0514160">
        <ele>916.4</ele>
        <time>2019-04-28T09:41:49Z</time>
      </trkpt>
      <trkpt lat="40.6635170" lon="-4.0513740">
        <ele>916.0</ele>
        <time>2019-04-28T09:41:50Z</time>
      </trkpt>
      <trkpt lat="40.6634490" lon="-4.0513310">
        <ele>915.8</ele>
        <time>2019-04-28T09:41:51Z</time>
      </trkpt>
      <trkpt lat="40.6633750" lon="-4.0512860">
        <ele>915.4</ele>
        <time>2019-04-28T09:41:52Z</time>
      </trkpt>
      <trkpt lat="40.6633040" lon="-4.0512340">
        <ele>915.2</ele>
        <time>2019-04-28T09:41:53Z</time>
      </trkpt>
      <trkpt lat="40.6632280" lon="-4.0511800">
        <ele>914.8</ele>
        <time>2019-04-28T09:41:54Z</time>
      </trkpt>
      <trkpt lat="40.6631490" lon="-4.0511260">
        <ele>914.6</ele>
        <time>2019-04-28T09:41:55Z</time>
      </trkpt>
      <trkpt lat="40.6630710" lon="-4.0510790">
        <ele>914.2</ele>
        <time>2019-04-28T09:41:56Z</time>
      </trkpt>
      <trkpt lat="40.6629880" lon="-4.0510270">
        <ele>914.0</ele>
        <time>2019-04-28T09:41:57Z</time>
      </trkpt>
      <trkpt lat="40.6629050" lon="-4.0509900">
        <ele>913.6</ele>
        <time>2019-04-28T09:41:58Z</time>
      </trkpt>
      <trkpt lat="40.6628210" lon="-4.0509570">
        <ele>913.4</ele>
        <time>2019-04-28T09:41:59Z</time>
      </trkpt>
      <trkpt lat="40.6627350" lon="-4.0509220">
        <ele>913.0</ele>
        <time>2019-04-28T09:42:00Z</time>
      </trkpt>
      <trkpt lat="40.6626510" lon="-4.0508890">
        <ele>913.0</ele>
        <time>2019-04-28T09:42:01Z</time>
      </trkpt>
      <trkpt lat="40.6625670" lon="-4.0508580">
        <ele>913.0</ele>
        <time>2019-04-28T09:42:02Z</time>
      </trkpt>
      <trkpt lat="40.6624830" lon="-4.0508340">
        <ele>913.0</ele>
        <time>2019-04-28T09:42:03Z</time>
      </trkpt>
      <trkpt lat="40.6623990" lon="-4.0508100">
        <ele>912.8</ele>
        <time>2019-04-28T09:42:04Z</time>
      </trkpt>
      <trkpt lat="40.6623170" lon="-4.0507960">
        <ele>912.6</ele>
        <time>2019-04-28T09:42:05Z</time>
      </trkpt>
      <trkpt lat="40.6622300" lon="-4.0507840">
        <ele>912.6</ele>
        <time>2019-04-28T09:42:06Z</time>
      </trkpt>
      <trkpt lat="40.6621480" lon="-4.0507720">
        <ele>912.8</ele>
        <time>2019-04-28T09:42:07Z</time>
      </trkpt>
      <trkpt lat="40.6620680" lon="-4.0507630">
        <ele>912.8</ele>
        <time>2019-04-28T09:42:08Z</time>
      </trkpt>
      <trkpt lat="40.6619910" lon="-4.0507520">
        <ele>913.0</ele>
        <time>2019-04-28T09:42:09Z</time>
      </trkpt>
      <trkpt lat="40.6619170" lon="-4.0507410">
        <ele>913.2</ele>
        <time>2019-04-28T09:42:10Z</time>
      </trkpt>
      <trkpt lat="40.6618470" lon="-4.0507320">
        <ele>913.4</ele>
        <time>2019-04-28T09:42:11Z</time>
      </trkpt>
      <trkpt lat="40.6617790" lon="-4.0507220">
        <ele>913.4</ele>
        <time>2019-04-28T09:42:12Z</time>
      </trkpt>
      <trkpt lat="40.6617130" lon="-4.0507100">
        <ele>913.4</ele>
        <time>2019-04-28T09:42:13Z</time>
      </trkpt>
      <trkpt lat="40.6616500" lon="-4.0506990">
        <ele>914.0</ele>
        <time>2019-04-28T09:42:14Z</time>
      </trkpt>
      <trkpt lat="40.6615890" lon="-4.0506950">
        <ele>914.0</ele>
        <time>2019-04-28T09:42:15Z</time>
      </trkpt>
      <trkpt lat="40.6615290" lon="-4.0506920">
        <ele>914.2</ele>
        <time>2019-04-28T09:42:16Z</time>
      </trkpt>
      <trkpt lat="40.6614670" lon="-4.0506870">
        <ele>914.2</ele>
        <time>2019-04-28T09:42:17Z</time>
      </trkpt>
      <trkpt lat="40.6614050" lon="-4.0506810">
        <ele>914.0</ele>
        <time>2019-04-28T09:42:18Z</time>
      </trkpt>
      <trkpt lat="40.6613420" lon="-4.0506670">
        <ele>914.0</ele>
        <time>2019-04-28T09:42:19Z</time>
      </trkpt>
      <trkpt lat="40.6612770" lon="-4.0506450">
        <ele>914.0</ele>
        <time>2019-04-28T09:42:20Z</time>
      </trkpt>
      <trkpt lat="40.6612120" lon="-4.0506290">
        <ele>913.8</ele>
        <time>2019-04-28T09:42:21Z</time>
      </trkpt>
      <trkpt lat="40.6611450" lon="-4.0506100">
        <ele>913.8</ele>
        <time>2019-04-28T09:42:22Z</time>
      </trkpt>
      <trkpt lat="40.6610770" lon="-4.0505870">
        <ele>913.6</ele>
        <time>2019-04-28T09:42:23Z</time>
      </trkpt>
      <trkpt lat="40.6610090" lon="-4.0505610">
        <ele>913.6</ele>
        <time>2019-04-28T09:42:24Z</time>
      </trkpt>
      <trkpt lat="40.6609420" lon="-4.0505270">
        <ele>913.6</ele>
        <time>2019-04-28T09:42:25Z</time>
      </trkpt>
      <trkpt lat="40.6608770" lon="-4.0504850">
        <ele>913.4</ele>
        <time>2019-04-28T09:42:26Z</time>
      </trkpt>
      <trkpt lat="40.6608150" lon="-4.0504400">
        <ele>913.2</ele>
        <time>2019-04-28T09:42:27Z</time>
      </trkpt>
      <trkpt lat="40.6607540" lon="-4.0503950">
        <ele>913.2</ele>
        <time>2019-04-28T09:42:28Z</time>
      </trkpt>
      <trkpt lat="40.6606960" lon="-4.0503530">
        <ele>913.2</ele>
        <time>2019-04-28T09:42:29Z</time>
      </trkpt>
      <trkpt lat="40.6606330" lon="-4.0503040">
        <ele>912.8</ele>
        <time>2019-04-28T09:42:30Z</time>
      </trkpt>
      <trkpt lat="40.6605720" lon="-4.0502580">
        <ele>912.8</ele>
        <time>2019-04-28T09:42:31Z</time>
      </trkpt>
      <trkpt lat="40.6605110" lon="-4.0502130">
        <ele>912.6</ele>
        <time>2019-04-28T09:42:32Z</time>
      </trkpt>
      <trkpt lat="40.6604470" lon="-4.0501630">
        <ele>912.6</ele>
        <time>2019-04-28T09:42:33Z</time>
      </trkpt>
      <trkpt lat="40.6603820" lon="-4.0501120">
        <ele>912.4</ele>
        <time>2019-04-28T09:42:34Z</time>
      </trkpt>
      <trkpt lat="40.6603210" lon="-4.0500740">
        <ele>912.0</ele>
        <time>2019-04-28T09:42:35Z</time>
      </trkpt>
      <trkpt lat="40.6602560" lon="-4.0500340">
        <ele>912.0</ele>
        <time>2019-04-28T09:42:36Z</time>
      </trkpt>
      <trkpt lat="40.6601910" lon="-4.0499900">
        <ele>911.8</ele>
        <time>2019-04-28T09:42:37Z</time>
      </trkpt>
      <trkpt lat="40.6601280" lon="-4.0499530">
        <ele>912.0</ele>
        <time>2019-04-28T09:42:38Z</time>
      </trkpt>
      <trkpt lat="40.6600660" lon="-4.0499140">
        <ele>912.0</ele>
        <time>2019-04-28T09:42:39Z</time>
      </trkpt>
      <trkpt lat="40.6600070" lon="-4.0498740">
        <ele>911.8</ele>
        <time>2019-04-28T09:42:40Z</time>
      </trkpt>
      <trkpt lat="40.6599480" lon="-4.0498310">
        <ele>911.8</ele>
        <time>2019-04-28T09:42:41Z</time>
      </trkpt>
      <trkpt lat="40.6598880" lon="-4.0497900">
        <ele>911.8</ele>
        <time>2019-04-28T09:42:42Z</time>
      </trkpt>
      <trkpt lat="40.6598280" lon="-4.0497410">
        <ele>911.8</ele>
        <time>2019-04-28T09:42:43Z</time>
      </trkpt>
      <trkpt lat="40.6597700" lon="-4.0496910">
        <ele>911.8</ele>
        <time>2019-04-28T09:42:44Z</time>
      </trkpt>
      <trkpt lat="40.6597130" lon="-4.0496410">
        <ele>911.8</ele>
        <time>2019-04-28T09:42:45Z</time>
      </trkpt>
      <trkpt lat="40.6596550" lon="-4.0495930">
        <ele>912.0</ele>
        <time>2019-04-28T09:42:46Z</time>
      </trkpt>
      <trkpt lat="40.6596000" lon="-4.0495480">
        <ele>912.0</ele>
        <time>2019-04-28T09:42:47Z</time>
      </trkpt>
      <trkpt lat="40.6595470" lon="-4.0495000">
        <ele>912.0</ele>
        <time>2019-04-28T09:42:48Z</time>
      </trkpt>
      <trkpt lat="40.6594950" lon="-4.0494530">
        <ele>912.0</ele>
        <time>2019-04-28T09:42:49Z</time>
      </trkpt>
      <trkpt lat="40.6594450" lon="-4.0494260">
        <ele>912.2</ele>
        <time>2019-04-28T09:42:50Z</time>
      </trkpt>
      <trkpt lat="40.6593900" lon="-4.0494030">
        <ele>912.0</ele>
        <time>2019-04-28T09:42:51Z</time>
      </trkpt>
      <trkpt lat="40.6593370" lon="-4.0493810">
        <ele>912.0</ele>
        <time>2019-04-28T09:42:52Z</time>
      </trkpt>
      <trkpt lat="40.6592880" lon="-4.0493490">
        <ele>912.0</ele>
        <time>2019-04-28T09:42:53Z</time>
      </trkpt>
      <trkpt lat="40.6592550" lon="-4.0493070">
        <ele>912.0</ele>
        <time>2019-04-28T09:42:54Z</time>
      </trkpt>
      <trkpt lat="40.6592420" lon="-4.0492410">
        <ele>912.0</ele>
        <time>2019-04-28T09:42:55Z</time>
      </trkpt>
      <trkpt lat="40.6592440" lon="-4.0491600">
        <ele>911.8</ele>
        <time>2019-04-28T09:42:56Z</time>
      </trkpt>
      <trkpt lat="40.6592470" lon="-4.0490760">
        <ele>911.8</ele>
        <time>2019-04-28T09:42:57Z</time>
      </trkpt>
      <trkpt lat="40.6592620" lon="-4.0489890">
        <ele>911.6</ele>
        <time>2019-04-28T09:42:58Z</time>
      </trkpt>
      <trkpt lat="40.6592850" lon="-4.0489070">
        <ele>911.4</ele>
        <time>2019-04-28T09:42:59Z</time>
      </trkpt>
      <trkpt lat="40.6593130" lon="-4.0488380">
        <ele>911.4</ele>
        <time>2019-04-28T09:43:00Z</time>
      </trkpt>
      <trkpt lat="40.6593360" lon="-4.0487510">
        <ele>911.2</ele>
        <time>2019-04-28T09:43:01Z</time>
      </trkpt>
      <trkpt lat="40.6593610" lon="-4.0486580">
        <ele>910.6</ele>
        <time>2019-04-28T09:43:02Z</time>
      </trkpt>
      <trkpt lat="40.6593870" lon="-4.0485640">
        <ele>910.0</ele>
        <time>2019-04-28T09:43:03Z</time>
      </trkpt>
      <trkpt lat="40.6594120" lon="-4.0484770">
        <ele>909.8</ele>
        <time>2019-04-28T09:43:04Z</time>
      </trkpt>
      <trkpt lat="40.6594310" lon="-4.0484080">
        <ele>909.4</ele>
        <time>2019-04-28T09:43:05Z</time>
      </trkpt>
      <trkpt lat="40.6594440" lon="-4.0483580">
        <ele>908.8</ele>
        <time>2019-04-28T09:43:06Z</time>
      </trkpt>
      <trkpt lat="40.6594530" lon="-4.0483200">
        <ele>908.8</ele>
        <time>2019-04-28T09:43:07Z</time>
      </trkpt>
      <trkpt lat="40.6594460" lon="-4.0482830">
        <ele>908.4</ele>
        <time>2019-04-28T09:43:08Z</time>
      </trkpt>
      <trkpt lat="40.6594260" lon="-4.0482540">
        <ele>908.2</ele>
        <time>2019-04-28T09:43:09Z</time>
      </trkpt>
      <trkpt lat="40.6593940" lon="-4.0482280">
        <ele>908.2</ele>
        <time>2019-04-28T09:43:10Z</time>
      </trkpt>
      <trkpt lat="40.6593550" lon="-4.0482130">
        <ele>908.2</ele>
        <time>2019-04-28T09:43:11Z</time>
      </trkpt>
      <trkpt lat="40.6593130" lon="-4.0482110">
        <ele>908.4</ele>
        <time>2019-04-28T09:43:12Z</time>
      </trkpt>
      <trkpt lat="40.6592700" lon="-4.0482080">
        <ele>908.4</ele>
        <time>2019-04-28T09:43:13Z</time>
      </trkpt>
      <trkpt lat="40.6592230" lon="-4.0482010">
        <ele>908.6</ele>
        <time>2019-04-28T09:43:14Z</time>
      </trkpt>
      <trkpt lat="40.6591750" lon="-4.0481930">
        <ele>908.6</ele>
        <time>2019-04-28T09:43:15Z</time>
      </trkpt>
      <trkpt lat="40.6591240" lon="-4.0481780">
        <ele>908.4</ele>
        <time>2019-04-28T09:43:16Z</time>
      </trkpt>
      <trkpt lat="40.6590730" lon="-4.0481590">
        <ele>908.4</ele>
        <time>2019-04-28T09:43:17Z</time>
      </trkpt>
      <trkpt lat="40.6590260" lon="-4.0481310">
        <ele>908.6</ele>
        <time>2019-04-28T09:43:18Z</time>
      </trkpt>
      <trkpt lat="40.6589780" lon="-4.0480910">
        <ele>908.6</ele>
        <time>2019-04-28T09:43:19Z</time>
      </trkpt>
      <trkpt lat="40.6589270" lon="-4.0480550">
        <ele>908.4</ele>
        <time>2019-04-28T09:43:20Z</time>
      </trkpt>
      <trkpt lat="40.6588720" lon="-4.0480280">
        <ele>908.4</ele>
        <time>2019-04-28T09:43:21Z</time>
      </trkpt>
      <trkpt lat="40.6588160" lon="-4.0480050">
        <ele>908.4</ele>
        <time>2019-04-28T09:43:22Z</time>
      </trkpt>
      <trkpt lat="40.6587650" lon="-4.0479770">
        <ele>908.2</ele>
        <time>2019-04-28T09:43:23Z</time>
      </trkpt>
      <trkpt lat="40.6587230" lon="-4.0479430">
        <ele>908.0</ele>
        <time>2019-04-28T09:43:24Z</time>
      </trkpt>
      <trkpt lat="40.6586780" lon="-4.0479080">
        <ele>908.0</ele>
        <time>2019-04-28T09:43:25Z</time>
      </trkpt>
      <trkpt lat="40.6586280" lon="-4.0478850">
        <ele>907.8</ele>
        <time>2019-04-28T09:43:26Z</time>
      </trkpt>
      <trkpt lat="40.6585770" lon="-4.0478710">
        <ele>907.8</ele>
        <time>2019-04-28T09:43:27Z</time>
      </trkpt>
      <trkpt lat="40.6585250" lon="-4.0478610">
        <ele>908.0</ele>
        <time>2019-04-28T09:43:28Z</time>
      </trkpt>
      <trkpt lat="40.6584690" lon="-4.0478590">
        <ele>907.8</ele>
        <time>2019-04-28T09:43:29Z</time>
      </trkpt>
      <trkpt lat="40.6584150" lon="-4.0478600">
        <ele>908.0</ele>
        <time>2019-04-28T09:43:30Z</time>
      </trkpt>
      <trkpt lat="40.6583610" lon="-4.0478490">
        <ele>908.2</ele>
        <time>2019-04-28T09:43:31Z</time>
      </trkpt>
      <trkpt lat="40.6583120" lon="-4.0478200">
        <ele>908.4</ele>
        <time>2019-04-28T09:43:32Z</time>
      </trkpt>
      <trkpt lat="40.6582650" lon="-4.0477930">
        <ele>908.4</ele>
        <time>2019-04-28T09:43:33Z</time>
      </trkpt>
      <trkpt lat="40.6582130" lon="-4.0477740">
        <ele>908.4</ele>
        <time>2019-04-28T09:43:34Z</time>
      </trkpt>
      <trkpt lat="40.6581570" lon="-4.0477680">
        <ele>908.6</ele>
        <time>2019-04-28T09:43:35Z</time>
      </trkpt>
      <trkpt lat="40.6581000" lon="-4.0477640">
        <ele>908.2</ele>
        <time>2019-04-28T09:43:36Z</time>
      </trkpt>
      <trkpt lat="40.6580400" lon="-4.0477550">
        <ele>908.0</ele>
        <time>2019-04-28T09:43:37Z</time>
      </trkpt>
      <trkpt lat="40.6579800" lon="-4.0477450">
        <ele>907.8</ele>
        <time>2019-04-28T09:43:38Z</time>
      </trkpt>
      <trkpt lat="40.6579250" lon="-4.0477360">
        <ele>907.8</ele>
        <time>2019-04-28T09:43:39Z</time>
      </trkpt>
      <trkpt lat="40.6578700" lon="-4.0477240">
        <ele>907.6</ele>
        <time>2019-04-28T09:43:40Z</time>
      </trkpt>
      <trkpt lat="40.6578140" lon="-4.0477160">
        <ele>907.4</ele>
        <time>2019-04-28T09:43:41Z</time>
      </trkpt>
      <trkpt lat="40.6577540" lon="-4.0477040">
        <ele>907.4</ele>
        <time>2019-04-28T09:43:42Z</time>
      </trkpt>
      <trkpt lat="40.6576930" lon="-4.0476810">
        <ele>907.4</ele>
        <time>2019-04-28T09:43:43Z</time>
      </trkpt>
      <trkpt lat="40.6576280" lon="-4.0476650">
        <ele>907.2</ele>
        <time>2019-04-28T09:43:44Z</time>
      </trkpt>
      <trkpt lat="40.6575640" lon="-4.0476480">
        <ele>907.2</ele>
        <time>2019-04-28T09:43:45Z</time>
      </trkpt>
      <trkpt lat="40.6575000" lon="-4.0476300">
        <ele>907.2</ele>
        <time>2019-04-28T09:43:46Z</time>
      </trkpt>
      <trkpt lat="40.6574380" lon="-4.0476100">
        <ele>907.4</ele>
        <time>2019-04-28T09:43:47Z</time>
      </trkpt>
      <trkpt lat="40.6573770" lon="-4.0475920">
        <ele>907.4</ele>
        <time>2019-04-28T09:43:48Z</time>
      </trkpt>
      <trkpt lat="40.6573190" lon="-4.0475680">
        <ele>907.4</ele>
        <time>2019-04-28T09:43:49Z</time>
      </trkpt>
      <trkpt lat="40.6572620" lon="-4.0475390">
        <ele>907.6</ele>
        <time>2019-04-28T09:43:50Z</time>
      </trkpt>
      <trkpt lat="40.6572050" lon="-4.0475180">
        <ele>907.6</ele>
        <time>2019-04-28T09:43:51Z</time>
      </trkpt>
      <trkpt lat="40.6571460" lon="-4.0474970">
        <ele>907.6</ele>
        <time>2019-04-28T09:43:52Z</time>
      </trkpt>
      <trkpt lat="40.6570960" lon="-4.0474750">
        <ele>907.6</ele>
        <time>2019-04-28T09:43:53Z</time>
      </trkpt>
      <trkpt lat="40.6570440" lon="-4.0474490">
        <ele>907.6</ele>
        <time>2019-04-28T09:43:54Z</time>
      </trkpt>
      <trkpt lat="40.6569930" lon="-4.0474330">
        <ele>907.8</ele>
        <time>2019-04-28T09:43:55Z</time>
      </trkpt>
      <trkpt lat="40.6569360" lon="-4.0474100">
        <ele>908.0</ele>
        <time>2019-04-28T09:43:56Z</time>
      </trkpt>
      <trkpt lat="40.6568740" lon="-4.0473870">
        <ele>908.0</ele>
        <time>2019-04-28T09:43:57Z</time>
      </trkpt>
      <trkpt lat="40.6568080" lon="-4.0473680">
        <ele>908.2</ele>
        <time>2019-04-28T09:43:58Z</time>
      </trkpt>
      <trkpt lat="40.6567480" lon="-4.0473570">
        <ele>908.2</ele>
        <time>2019-04-28T09:43:59Z</time>
      </trkpt>
      <trkpt lat="40.6566880" lon="-4.0473400">
        <ele>908.4</ele>
        <time>2019-04-28T09:44:00Z</time>
      </trkpt>
      <trkpt lat="40.6566310" lon="-4.0473180">
        <ele>908.6</ele>
        <time>2019-04-28T09:44:01Z</time>
      </trkpt>
      <trkpt lat="40.6565790" lon="-4.0473030">
        <ele>908.6</ele>
        <time>2019-04-28T09:44:02Z</time>
      </trkpt>
      <trkpt lat="40.6565220" lon="-4.0472880">
        <ele>909.0</ele>
        <time>2019-04-28T09:44:03Z</time>
      </trkpt>
      <trkpt lat="40.6564660" lon="-4.0472760">
        <ele>909.2</ele>
        <time>2019-04-28T09:44:04Z</time>
      </trkpt>
      <trkpt lat="40.6564070" lon="-4.0472510">
        <ele>909.2</ele>
        <time>2019-04-28T09:44:05Z</time>
      </trkpt>
      <trkpt lat="40.6563540" lon="-4.0472150">
        <ele>909.2</ele>
        <time>2019-04-28T09:44:06Z</time>
      </trkpt>
      <trkpt lat="40.6563020" lon="-4.0471830">
        <ele>909.4</ele>
        <time>2019-04-28T09:44:07Z</time>
      </trkpt>
      <trkpt lat="40.6562480" lon="-4.0471530">
        <ele>909.6</ele>
        <time>2019-04-28T09:44:08Z</time>
      </trkpt>
      <trkpt lat="40.6561950" lon="-4.0471290">
        <ele>909.8</ele>
        <time>2019-04-28T09:44:09Z</time>
      </trkpt>
      <trkpt lat="40.6561460" lon="-4.0470980">
        <ele>909.8</ele>
        <time>2019-04-28T09:44:10Z</time>
      </trkpt>
      <trkpt lat="40.6561000" lon="-4.0470630">
        <ele>909.8</ele>
        <time>2019-04-28T09:44:11Z</time>
      </trkpt>
      <trkpt lat="40.6560550" lon="-4.0470220">
        <ele>909.6</ele>
        <time>2019-04-28T09:44:12Z</time>
      </trkpt>
      <trkpt lat="40.6560030" lon="-4.0469840">
        <ele>909.6</ele>
        <time>2019-04-28T09:44:13Z</time>
      </trkpt>
      <trkpt lat="40.6559500" lon="-4.0469470">
        <ele>909.6</ele>
        <time>2019-04-28T09:44:14Z</time>
      </trkpt>
      <trkpt lat="40.6558960" lon="-4.0469080">
        <ele>909.6</ele>
        <time>2019-04-28T09:44:15Z</time>
      </trkpt>
      <trkpt lat="40.6558410" lon="-4.0468660">
        <ele>909.6</ele>
        <time>2019-04-28T09:44:16Z</time>
      </trkpt>
      <trkpt lat="40.6557820" lon="-4.0468190">
        <ele>909.4</ele>
        <time>2019-04-28T09:44:17Z</time>
      </trkpt>
      <trkpt lat="40.6557260" lon="-4.0467720">
        <ele>909.2</ele>
        <time>2019-04-28T09:44:18Z</time>
      </trkpt>
      <trkpt lat="40.6556680" lon="-4.0467220">
        <ele>908.8</ele>
        <time>2019-04-28T09:44:19Z</time>
      </trkpt>
      <trkpt lat="40.6556150" lon="-4.0466810">
        <ele>908.6</ele>
        <time>2019-04-28T09:44:20Z</time>
      </trkpt>
      <trkpt lat="40.6555560" lon="-4.0466050">
        <ele>908.2</ele>
        <time>2019-04-28T09:44:21Z</time>
      </trkpt>
      <trkpt lat="40.6555030" lon="-4.0465340">
        <ele>908.0</ele>
        <time>2019-04-28T09:44:22Z</time>
      </trkpt>
      <trkpt lat="40.6554490" lon="-4.0464530">
        <ele>907.6</ele>
        <time>2019-04-28T09:44:23Z</time>
      </trkpt>
      <trkpt lat="40.6553960" lon="-4.0463880">
        <ele>907.6</ele>
        <time>2019-04-28T09:44:24Z</time>
      </trkpt>
      <trkpt lat="40.6553480" lon="-4.0463330">
        <ele>907.2</ele>
        <time>2019-04-28T09:44:25Z</time>
      </trkpt>
      <trkpt lat="40.6553020" lon="-4.0462860">
        <ele>907.0</ele>
        <time>2019-04-28T09:44:26Z</time>
      </trkpt>
      <trkpt lat="40.6552560" lon="-4.0462440">
        <ele>907.0</ele>
        <time>2019-04-28T09:44:27Z</time>
      </trkpt>
      <trkpt lat="40.6552040" lon="-4.0462090">
        <ele>907.2</ele>
        <time>2019-04-28T09:44:28Z</time>
      </trkpt>
      <trkpt lat="40.6551480" lon="-4.0461800">
        <ele>907.2</ele>
        <time>2019-04-28T09:44:29Z</time>
      </trkpt>
      <trkpt lat="40.6550880" lon="-4.0461400">
        <ele>907.2</ele>
        <time>2019-04-28T09:44:30Z</time>
      </trkpt>
      <trkpt lat="40.6550280" lon="-4.0461090">
        <ele>907.2</ele>
        <time>2019-04-28T09:44:31Z</time>
      </trkpt>
      <trkpt lat="40.6549670" lon="-4.0460730">
        <ele>907.2</ele>
        <time>2019-04-28T09:44:32Z</time>
      </trkpt>
      <trkpt lat="40.6549090" lon="-4.0460320">
        <ele>907.2</ele>
        <time>2019-04-28T09:44:33Z</time>
      </trkpt>
      <trkpt lat="40.6548520" lon="-4.0459810">
        <ele>907.0</ele>
        <time>2019-04-28T09:44:34Z</time>
      </trkpt>
      <trkpt lat="40.6548000" lon="-4.0459310">
        <ele>906.8</ele>
        <time>2019-04-28T09:44:35Z</time>
      </trkpt>
      <trkpt lat="40.6547500" lon="-4.0458710">
        <ele>906.2</ele>
        <time>2019-04-28T09:44:36Z</time>
      </trkpt>
      <trkpt lat="40.6546880" lon="-4.0458000">
        <ele>905.4</ele>
        <time>2019-04-28T09:44:37Z</time>
      </trkpt>
      <trkpt lat="40.6546240" lon="-4.0457370">
        <ele>904.8</ele>
        <time>2019-04-28T09:44:38Z</time>
      </trkpt>
      <trkpt lat="40.6545610" lon="-4.0456730">
        <ele>904.6</ele>
        <time>2019-04-28T09:44:39Z</time>
      </trkpt>
      <trkpt lat="40.6544960" lon="-4.0456000">
        <ele>903.6</ele>
        <time>2019-04-28T09:44:40Z</time>
      </trkpt>
      <trkpt lat="40.6544270" lon="-4.0455280">
        <ele>903.4</ele>
        <time>2019-04-28T09:44:41Z</time>
      </trkpt>
      <trkpt lat="40.6543570" lon="-4.0454520">
        <ele>903.2</ele>
        <time>2019-04-28T09:44:42Z</time>
      </trkpt>
      <trkpt lat="40.6542930" lon="-4.0453720">
        <ele>903.0</ele>
        <time>2019-04-28T09:44:43Z</time>
      </trkpt>
      <trkpt lat="40.6542340" lon="-4.0452770">
        <ele>902.8</ele>
        <time>2019-04-28T09:44:44Z</time>
      </trkpt>
      <trkpt lat="40.6541790" lon="-4.0451870">
        <ele>902.2</ele>
        <time>2019-04-28T09:44:45Z</time>
      </trkpt>
      <trkpt lat="40.6541220" lon="-4.0451040">
        <ele>901.8</ele>
        <time>2019-04-28T09:44:46Z</time>
      </trkpt>
      <trkpt lat="40.6540640" lon="-4.0450290">
        <ele>901.4</ele>
        <time>2019-04-28T09:44:47Z</time>
      </trkpt>
      <trkpt lat="40.6540070" lon="-4.0449540">
        <ele>901.0</ele>
        <time>2019-04-28T09:44:48Z</time>
      </trkpt>
      <trkpt lat="40.6539490" lon="-4.0448750">
        <ele>900.8</ele>
        <time>2019-04-28T09:44:49Z</time>
      </trkpt>
      <trkpt lat="40.6538930" lon="-4.0447960">
        <ele>900.8</ele>
        <time>2019-04-28T09:44:50Z</time>
      </trkpt>
      <trkpt lat="40.6538350" lon="-4.0447120">
        <ele>900.8</ele>
        <time>2019-04-28T09:44:51Z</time>
      </trkpt>
      <trkpt lat="40.6537720" lon="-4.0446270">
        <ele>900.4</ele>
        <time>2019-04-28T09:44:52Z</time>
      </trkpt>
      <trkpt lat="40.6537120" lon="-4.0445450">
        <ele>900.2</ele>
        <time>2019-04-28T09:44:53Z</time>
      </trkpt>
      <trkpt lat="40.6536520" lon="-4.0444690">
        <ele>900.0</ele>
        <time>2019-04-28T09:44:54Z</time>
      </trkpt>
      <trkpt lat="40.6535910" lon="-4.0444030">
        <ele>899.4</ele>
        <time>2019-04-28T09:44:55Z</time>
      </trkpt>
      <trkpt lat="40.6535350" lon="-4.0443370">
        <ele>899.2</ele>
        <time>2019-04-28T09:44:56Z</time>
      </trkpt>
      <trkpt lat="40.6534860" lon="-4.0442600">
        <ele>899.2</ele>
        <time>2019-04-28T09:44:57Z</time>
      </trkpt>
      <trkpt lat="40.6534380" lon="-4.0441750">
        <ele>899.2</ele>
        <time>2019-04-28T09:44:58Z</time>
      </trkpt>
      <trkpt lat="40.6533870" lon="-4.0440910">
        <ele>899.0</ele>
        <time>2019-04-28T09:44:59Z</time>
      </trkpt>
      <trkpt lat="40.6533330" lon="-4.0440110">
        <ele>898.8</ele>
        <time>2019-04-28T09:45:00Z</time>
      </trkpt>
      <trkpt lat="40.6532750" lon="-4.0439340">
        <ele>898.6</ele>
        <time>2019-04-28T09:45:01Z</time>
      </trkpt>
      <trkpt lat="40.6532170" lon="-4.0438620">
        <ele>898.6</ele>
        <time>2019-04-28T09:45:02Z</time>
      </trkpt>
      <trkpt lat="40.6531610" lon="-4.0437940">
        <ele>898.6</ele>
        <time>2019-04-28T09:45:03Z</time>
      </trkpt>
      <trkpt lat="40.6531050" lon="-4.0437170">
        <ele>898.6</ele>
        <time>2019-04-28T09:45:04Z</time>
      </trkpt>
      <trkpt lat="40.6530530" lon="-4.0436540">
        <ele>898.2</ele>
        <time>2019-04-28T09:45:05Z</time>
      </trkpt>
      <trkpt lat="40.6530020" lon="-4.0435880">
        <ele>898.2</ele>
        <time>2019-04-28T09:45:06Z</time>
      </trkpt>
      <trkpt lat="40.6529500" lon="-4.0435200">
        <ele>898.0</ele>
        <time>2019-04-28T09:45:07Z</time>
      </trkpt>
      <trkpt lat="40.6528990" lon="-4.0434550">
        <ele>897.8</ele>
        <time>2019-04-28T09:45:08Z</time>
      </trkpt>
      <trkpt lat="40.6528450" lon="-4.0433870">
        <ele>897.6</ele>
        <time>2019-04-28T09:45:09Z</time>
      </trkpt>
      <trkpt lat="40.6527930" lon="-4.0433180">
        <ele>897.6</ele>
        <time>2019-04-28T09:45:10Z</time>
      </trkpt>
      <trkpt lat="40.6527340" lon="-4.0432390">
        <ele>897.4</ele>
        <time>2019-04-28T09:45:11Z</time>
      </trkpt>
      <trkpt lat="40.6526800" lon="-4.0431660">
        <ele>897.4</ele>
        <time>2019-04-28T09:45:12Z</time>
      </trkpt>
      <trkpt lat="40.6526270" lon="-4.0430920">
        <ele>897.2</ele>
        <time>2019-04-28T09:45:13Z</time>
      </trkpt>
      <trkpt lat="40.6525750" lon="-4.0430200">
        <ele>897.0</ele>
        <time>2019-04-28T09:45:14Z</time>
      </trkpt>
      <trkpt lat="40.6525240" lon="-4.0429530">
        <ele>897.0</ele>
        <time>2019-04-28T09:45:15Z</time>
      </trkpt>
      <trkpt lat="40.6524740" lon="-4.0429000">
        <ele>896.6</ele>
        <time>2019-04-28T09:45:16Z</time>
      </trkpt>
      <trkpt lat="40.6524240" lon="-4.0428420">
        <ele>896.6</ele>
        <time>2019-04-28T09:45:17Z</time>
      </trkpt>
      <trkpt lat="40.6523740" lon="-4.0427790">
        <ele>896.6</ele>
        <time>2019-04-28T09:45:18Z</time>
      </trkpt>
      <trkpt lat="40.6523230" lon="-4.0427130">
        <ele>896.6</ele>
        <time>2019-04-28T09:45:19Z</time>
      </trkpt>
      <trkpt lat="40.6522710" lon="-4.0426480">
        <ele>896.4</ele>
        <time>2019-04-28T09:45:20Z</time>
      </trkpt>
      <trkpt lat="40.6522200" lon="-4.0425870">
        <ele>896.2</ele>
        <time>2019-04-28T09:45:21Z</time>
      </trkpt>
      <trkpt lat="40.6521690" lon="-4.0425290">
        <ele>896.0</ele>
        <time>2019-04-28T09:45:22Z</time>
      </trkpt>
      <trkpt lat="40.6521160" lon="-4.0424670">
        <ele>895.8</ele>
        <time>2019-04-28T09:45:23Z</time>
      </trkpt>
      <trkpt lat="40.6520600" lon="-4.0424080">
        <ele>895.6</ele>
        <time>2019-04-28T09:45:24Z</time>
      </trkpt>
      <trkpt lat="40.6520050" lon="-4.0423460">
        <ele>895.2</ele>
        <time>2019-04-28T09:45:25Z</time>
      </trkpt>
      <trkpt lat="40.6519500" lon="-4.0422820">
        <ele>895.0</ele>
        <time>2019-04-28T09:45:26Z</time>
      </trkpt>
      <trkpt lat="40.6518950" lon="-4.0422170">
        <ele>894.8</ele>
        <time>2019-04-28T09:45:27Z</time>
      </trkpt>
      <trkpt lat="40.6518390" lon="-4.0421510">
        <ele>894.6</ele>
        <time>2019-04-28T09:45:28Z</time>
      </trkpt>
      <trkpt lat="40.6517830" lon="-4.0420910">
        <ele>894.4</ele>
        <time>2019-04-28T09:45:29Z</time>
      </trkpt>
      <trkpt lat="40.6517270" lon="-4.0420300">
        <ele>894.2</ele>
        <time>2019-04-28T09:45:30Z</time>
      </trkpt>
      <trkpt lat="40.6516720" lon="-4.0419670">
        <ele>894.0</ele>
        <time>2019-04-28T09:45:31Z</time>
      </trkpt>
      <trkpt lat="40.6516170" lon="-4.0419060">
        <ele>893.8</ele>
        <time>2019-04-28T09:45:32Z</time>
      </trkpt>
      <trkpt lat="40.6515620" lon="-4.0418440">
        <ele>893.4</ele>
        <time>2019-04-28T09:45:33Z</time>
      </trkpt>
      <trkpt lat="40.6515110" lon="-4.0417900">
        <ele>893.2</ele>
        <time>2019-04-28T09:45:34Z</time>
      </trkpt>
      <trkpt lat="40.6514630" lon="-4.0417390">
        <ele>893.2</ele>
        <time>2019-04-28T09:45:35Z</time>
      </trkpt>
      <trkpt lat="40.6514080" lon="-4.0416880">
        <ele>893.0</ele>
        <time>2019-04-28T09:45:36Z</time>
      </trkpt>
      <trkpt lat="40.6513520" lon="-4.0416410">
        <ele>893.0</ele>
        <time>2019-04-28T09:45:37Z</time>
      </trkpt>
      <trkpt lat="40.6512920" lon="-4.0415950">
        <ele>892.8</ele>
        <time>2019-04-28T09:45:38Z</time>
      </trkpt>
      <trkpt lat="40.6512300" lon="-4.0415490">
        <ele>892.8</ele>
        <time>2019-04-28T09:45:39Z</time>
      </trkpt>
      <trkpt lat="40.6511670" lon="-4.0415010">
        <ele>892.6</ele>
        <time>2019-04-28T09:45:40Z</time>
      </trkpt>
      <trkpt lat="40.6511040" lon="-4.0414490">
        <ele>892.4</ele>
        <time>2019-04-28T09:45:41Z</time>
      </trkpt>
      <trkpt lat="40.6510400" lon="-4.0413970">
        <ele>892.2</ele>
        <time>2019-04-28T09:45:42Z</time>
      </trkpt>
      <trkpt lat="40.6509750" lon="-4.0413450">
        <ele>892.2</ele>
        <time>2019-04-28T09:45:43Z</time>
      </trkpt>
      <trkpt lat="40.6509090" lon="-4.0412930">
        <ele>892.0</ele>
        <time>2019-04-28T09:45:44Z</time>
      </trkpt>
      <trkpt lat="40.6508400" lon="-4.0412370">
        <ele>891.8</ele>
        <time>2019-04-28T09:45:45Z</time>
      </trkpt>
      <trkpt lat="40.6507720" lon="-4.0411830">
        <ele>891.8</ele>
        <time>2019-04-28T09:45:46Z</time>
      </trkpt>
      <trkpt lat="40.6507040" lon="-4.0411330">
        <ele>891.8</ele>
        <time>2019-04-28T09:45:47Z</time>
      </trkpt>
      <trkpt lat="40.6506340" lon="-4.0410780">
        <ele>891.6</ele>
        <time>2019-04-28T09:45:48Z</time>
      </trkpt>
      <trkpt lat="40.6505670" lon="-4.0410220">
        <ele>891.8</ele>
        <time>2019-04-28T09:45:49Z</time>
      </trkpt>
      <trkpt lat="40.6505030" lon="-4.0409640">
        <ele>891.8</ele>
        <time>2019-04-28T09:45:50Z</time>
      </trkpt>
      <trkpt lat="40.6504380" lon="-4.0409040">
        <ele>891.8</ele>
        <time>2019-04-28T09:45:51Z</time>
      </trkpt>
      <trkpt lat="40.6503750" lon="-4.0408420">
        <ele>891.6</ele>
        <time>2019-04-28T09:45:52Z</time>
      </trkpt>
      <trkpt lat="40.6503140" lon="-4.0407770">
        <ele>891.6</ele>
        <time>2019-04-28T09:45:53Z</time>
      </trkpt>
      <trkpt lat="40.6502550" lon="-4.0407090">
        <ele>891.4</ele>
        <time>2019-04-28T09:45:54Z</time>
      </trkpt>
      <trkpt lat="40.6501960" lon="-4.0406370">
        <ele>891.2</ele>
        <time>2019-04-28T09:45:55Z</time>
      </trkpt>
      <trkpt lat="40.6501380" lon="-4.0405660">
        <ele>891.0</ele>
        <time>2019-04-28T09:45:56Z</time>
      </trkpt>
      <trkpt lat="40.6500800" lon="-4.0404930">
        <ele>890.6</ele>
        <time>2019-04-28T09:45:57Z</time>
      </trkpt>
      <trkpt lat="40.6500220" lon="-4.0404170">
        <ele>890.4</ele>
        <time>2019-04-28T09:45:58Z</time>
      </trkpt>
      <trkpt lat="40.6499610" lon="-4.0403410">
        <ele>890.2</ele>
        <time>2019-04-28T09:45:59Z</time>
      </trkpt>
      <trkpt lat="40.6498980" lon="-4.0402680">
        <ele>890.0</ele>
        <time>2019-04-28T09:46:00Z</time>
      </trkpt>
      <trkpt lat="40.6498360" lon="-4.0401970">
        <ele>890.0</ele>
        <time>2019-04-28T09:46:01Z</time>
      </trkpt>
      <trkpt lat="40.6497770" lon="-4.0401300">
        <ele>890.0</ele>
        <time>2019-04-28T09:46:02Z</time>
      </trkpt>
      <trkpt lat="40.6497170" lon="-4.0400650">
        <ele>889.8</ele>
        <time>2019-04-28T09:46:03Z</time>
      </trkpt>
      <trkpt lat="40.6496590" lon="-4.0399990">
        <ele>889.8</ele>
        <time>2019-04-28T09:46:04Z</time>
      </trkpt>
      <trkpt lat="40.6496010" lon="-4.0399210">
        <ele>889.8</ele>
        <time>2019-04-28T09:46:05Z</time>
      </trkpt>
      <trkpt lat="40.6495430" lon="-4.0398550">
        <ele>889.6</ele>
        <time>2019-04-28T09:46:06Z</time>
      </trkpt>
      <trkpt lat="40.6494850" lon="-4.0397960">
        <ele>889.8</ele>
        <time>2019-04-28T09:46:07Z</time>
      </trkpt>
      <trkpt lat="40.6494300" lon="-4.0397480">
        <ele>889.6</ele>
        <time>2019-04-28T09:46:08Z</time>
      </trkpt>
      <trkpt lat="40.6493740" lon="-4.0396940">
        <ele>889.6</ele>
        <time>2019-04-28T09:46:09Z</time>
      </trkpt>
      <trkpt lat="40.6493180" lon="-4.0396370">
        <ele>889.4</ele>
        <time>2019-04-28T09:46:10Z</time>
      </trkpt>
      <trkpt lat="40.6492590" lon="-4.0395830">
        <ele>889.4</ele>
        <time>2019-04-28T09:46:11Z</time>
      </trkpt>
      <trkpt lat="40.6492040" lon="-4.0395230">
        <ele>889.4</ele>
        <time>2019-04-28T09:46:12Z</time>
      </trkpt>
      <trkpt lat="40.6491510" lon="-4.0394660">
        <ele>889.4</ele>
        <time>2019-04-28T09:46:13Z</time>
      </trkpt>
      <trkpt lat="40.6491020" lon="-4.0394080">
        <ele>889.4</ele>
        <time>2019-04-28T09:46:14Z</time>
      </trkpt>
      <trkpt lat="40.6490550" lon="-4.0393500">
        <ele>889.4</ele>
        <time>2019-04-28T09:46:15Z</time>
      </trkpt>
      <trkpt lat="40.6490050" lon="-4.0392820">
        <ele>889.2</ele>
        <time>2019-04-28T09:46:16Z</time>
      </trkpt>
      <trkpt lat="40.6489560" lon="-4.0392230">
        <ele>889.0</ele>
        <time>2019-04-28T09:46:17Z</time>
      </trkpt>
      <trkpt lat="40.6489080" lon="-4.0391630">
        <ele>889.0</ele>
        <time>2019-04-28T09:46:18Z</time>
      </trkpt>
      <trkpt lat="40.6488600" lon="-4.0390990">
        <ele>889.0</ele>
        <time>2019-04-28T09:46:19Z</time>
      </trkpt>
      <trkpt lat="40.6488090" lon="-4.0390340">
        <ele>889.0</ele>
        <time>2019-04-28T09:46:20Z</time>
      </trkpt>
      <trkpt lat="40.6487620" lon="-4.0389700">
        <ele>888.8</ele>
        <time>2019-04-28T09:46:21Z</time>
      </trkpt>
      <trkpt lat="40.6487110" lon="-4.0389010">
        <ele>888.8</ele>
        <time>2019-04-28T09:46:22Z</time>
      </trkpt>
      <trkpt lat="40.6486630" lon="-4.0388260">
        <ele>888.8</ele>
        <time>2019-04-28T09:46:23Z</time>
      </trkpt>
      <trkpt lat="40.6486170" lon="-4.0387550">
        <ele>888.8</ele>
        <time>2019-04-28T09:46:24Z</time>
      </trkpt>
      <trkpt lat="40.6485710" lon="-4.0386860">
        <ele>888.8</ele>
        <time>2019-04-28T09:46:25Z</time>
      </trkpt>
      <trkpt lat="40.6485230" lon="-4.0386170">
        <ele>888.6</ele>
        <time>2019-04-28T09:46:26Z</time>
      </trkpt>
      <trkpt lat="40.6484760" lon="-4.0385480">
        <ele>888.8</ele>
        <time>2019-04-28T09:46:27Z</time>
      </trkpt>
      <trkpt lat="40.6484300" lon="-4.0384760">
        <ele>888.8</ele>
        <time>2019-04-28T09:46:28Z</time>
      </trkpt>
      <trkpt lat="40.6483900" lon="-4.0384070">
        <ele>888.6</ele>
        <time>2019-04-28T09:46:29Z</time>
      </trkpt>
      <trkpt lat="40.6483470" lon="-4.0383280">
        <ele>888.6</ele>
        <time>2019-04-28T09:46:30Z</time>
      </trkpt>
      <trkpt lat="40.6483020" lon="-4.0382580">
        <ele>888.6</ele>
        <time>2019-04-28T09:46:31Z</time>
      </trkpt>
      <trkpt lat="40.6482550" lon="-4.0381920">
        <ele>888.6</ele>
        <time>2019-04-28T09:46:32Z</time>
      </trkpt>
      <trkpt lat="40.6482060" lon="-4.0381220">
        <ele>888.4</ele>
        <time>2019-04-28T09:46:33Z</time>
      </trkpt>
      <trkpt lat="40.6481570" lon="-4.0380540">
        <ele>888.2</ele>
        <time>2019-04-28T09:46:34Z</time>
      </trkpt>
      <trkpt lat="40.6481070" lon="-4.0379820">
        <ele>888.2</ele>
        <time>2019-04-28T09:46:35Z</time>
      </trkpt>
      <trkpt lat="40.6480570" lon="-4.0379120">
        <ele>888.0</ele>
        <time>2019-04-28T09:46:36Z</time>
      </trkpt>
      <trkpt lat="40.6480100" lon="-4.0378530">
        <ele>888.0</ele>
        <time>2019-04-28T09:46:37Z</time>
      </trkpt>
      <trkpt lat="40.6479570" lon="-4.0377870">
        <ele>888.0</ele>
        <time>2019-04-28T09:46:38Z</time>
      </trkpt>
      <trkpt lat="40.6479000" lon="-4.0377200">
        <ele>887.8</ele>
        <time>2019-04-28T09:46:39Z</time>
      </trkpt>
      <trkpt lat="40.6478410" lon="-4.0376510">
        <ele>887.6</ele>
        <time>2019-04-28T09:46:40Z</time>
      </trkpt>
      <trkpt lat="40.6477830" lon="-4.0375840">
        <ele>887.6</ele>
        <time>2019-04-28T09:46:41Z</time>
      </trkpt>
      <trkpt lat="40.6477260" lon="-4.0375180">
        <ele>887.6</ele>
        <time>2019-04-28T09:46:42Z</time>
      </trkpt>
      <trkpt lat="40.6476690" lon="-4.0374530">
        <ele>887.6</ele>
        <time>2019-04-28T09:46:43Z</time>
      </trkpt>
      <trkpt lat="40.6476120" lon="-4.0373890">
        <ele>887.6</ele>
        <time>2019-04-28T09:46:44Z</time>
      </trkpt>
      <trkpt lat="40.6475520" lon="-4.0373220">
        <ele>887.4</ele>
        <time>2019-04-28T09:46:45Z</time>
      </trkpt>
      <trkpt lat="40.6474940" lon="-4.0372550">
        <ele>887.2</ele>
        <time>2019-04-28T09:46:46Z</time>
      </trkpt>
      <trkpt lat="40.6474370" lon="-4.0371920">
        <ele>886.8</ele>
        <time>2019-04-28T09:46:47Z</time>
      </trkpt>
      <trkpt lat="40.6473810" lon="-4.0371280">
        <ele>886.8</ele>
        <time>2019-04-28T09:46:48Z</time>
      </trkpt>
      <trkpt lat="40.6473250" lon="-4.0370600">
        <ele>886.6</ele>
        <time>2019-04-28T09:46:49Z</time>
      </trkpt>
      <trkpt lat="40.6472680" lon="-4.0369920">
        <ele>886.4</ele>
        <time>2019-04-28T09:46:50Z</time>
      </trkpt>
      <trkpt lat="40.6472090" lon="-4.0369270">
        <ele>886.0</ele>
        <time>2019-04-28T09:46:51Z</time>
      </trkpt>
      <trkpt lat="40.6471470" lon="-4.0368610">
        <ele>885.8</ele>
        <time>2019-04-28T09:46:52Z</time>
      </trkpt>
      <trkpt lat="40.6470890" lon="-4.0368090">
        <ele>885.6</ele>
        <time>2019-04-28T09:46:53Z</time>
      </trkpt>
      <trkpt lat="40.6470320" lon="-4.0367600">
        <ele>885.6</ele>
        <time>2019-04-28T09:46:54Z</time>
      </trkpt>
      <trkpt lat="40.6469730" lon="-4.0367190">
        <ele>885.8</ele>
        <time>2019-04-28T09:46:55Z</time>
      </trkpt>
      <trkpt lat="40.6469120" lon="-4.0366720">
        <ele>885.6</ele>
        <time>2019-04-28T09:46:56Z</time>
      </trkpt>
      <trkpt lat="40.6468530" lon="-4.0366360">
        <ele>885.6</ele>
        <time>2019-04-28T09:46:57Z</time>
      </trkpt>
      <trkpt lat="40.6467880" lon="-4.0366020">
        <ele>885.6</ele>
        <time>2019-04-28T09:46:58Z</time>
      </trkpt>
      <trkpt lat="40.6467210" lon="-4.0365780">
        <ele>885.6</ele>
        <time>2019-04-28T09:46:59Z</time>
      </trkpt>
      <trkpt lat="40.6466530" lon="-4.0365470">
        <ele>885.6</ele>
        <time>2019-04-28T09:47:00Z</time>
      </trkpt>
      <trkpt lat="40.6465860" lon="-4.0365170">
        <ele>885.4</ele>
        <time>2019-04-28T09:47:01Z</time>
      </trkpt>
      <trkpt lat="40.6465210" lon="-4.0364890">
        <ele>885.4</ele>
        <time>2019-04-28T09:47:02Z</time>
      </trkpt>
      <trkpt lat="40.6464570" lon="-4.0364550">
        <ele>885.4</ele>
        <time>2019-04-28T09:47:03Z</time>
      </trkpt>
      <trkpt lat="40.6463930" lon="-4.0364250">
        <ele>885.4</ele>
        <time>2019-04-28T09:47:04Z</time>
      </trkpt>
      <trkpt lat="40.6463300" lon="-4.0363890">
        <ele>885.0</ele>
        <time>2019-04-28T09:47:05Z</time>
      </trkpt>
      <trkpt lat="40.6462700" lon="-4.0363560">
        <ele>885.0</ele>
        <time>2019-04-28T09:47:06Z</time>
      </trkpt>
      <trkpt lat="40.6462140" lon="-4.0363210">
        <ele>885.0</ele>
        <time>2019-04-28T09:47:07Z</time>
      </trkpt>
      <trkpt lat="40.6461650" lon="-4.0362850">
        <ele>885.0</ele>
        <time>2019-04-28T09:47:08Z</time>
      </trkpt>
      <trkpt lat="40.6461190" lon="-4.0362600">
        <ele>884.8</ele>
        <time>2019-04-28T09:47:09Z</time>
      </trkpt>
      <trkpt lat="40.6460690" lon="-4.0362290">
        <ele>884.8</ele>
        <time>2019-04-28T09:47:10Z</time>
      </trkpt>
      <trkpt lat="40.6460260" lon="-4.0362120">
        <ele>884.8</ele>
        <time>2019-04-28T09:47:11Z</time>
      </trkpt>
      <trkpt lat="40.6459880" lon="-4.0361960">
        <ele>885.0</ele>
        <time>2019-04-28T09:47:12Z</time>
      </trkpt>
      <trkpt lat="40.6459480" lon="-4.0361930">
        <ele>885.0</ele>
        <time>2019-04-28T09:47:13Z</time>
      </trkpt>
      <trkpt lat="40.6459060" lon="-4.0361930">
        <ele>885.0</ele>
        <time>2019-04-28T09:47:14Z</time>
      </trkpt>
      <trkpt lat="40.6458680" lon="-4.0362010">
        <ele>885.2</ele>
        <time>2019-04-28T09:47:15Z</time>
      </trkpt>
      <trkpt lat="40.6458260" lon="-4.0362030">
        <ele>885.4</ele>
        <time>2019-04-28T09:47:16Z</time>
      </trkpt>
      <trkpt lat="40.6457780" lon="-4.0361960">
        <ele>885.4</ele>
        <time>2019-04-28T09:47:17Z</time>
      </trkpt>
      <trkpt lat="40.6457280" lon="-4.0361840">
        <ele>885.4</ele>
        <time>2019-04-28T09:47:18Z</time>
      </trkpt>
      <trkpt lat="40.6456770" lon="-4.0361690">
        <ele>885.4</ele>
        <time>2019-04-28T09:47:19Z</time>
      </trkpt>
      <trkpt lat="40.6456260" lon="-4.0361540">
        <ele>885.4</ele>
        <time>2019-04-28T09:47:20Z</time>
      </trkpt>
      <trkpt lat="40.6455770" lon="-4.0361390">
        <ele>885.4</ele>
        <time>2019-04-28T09:47:21Z</time>
      </trkpt>
      <trkpt lat="40.6455290" lon="-4.0361270">
        <ele>885.4</ele>
        <time>2019-04-28T09:47:22Z</time>
      </trkpt>
      <trkpt lat="40.6454850" lon="-4.0361210">
        <ele>885.4</ele>
        <time>2019-04-28T09:47:23Z</time>
      </trkpt>
      <trkpt lat="40.6454440" lon="-4.0361180">
        <ele>885.4</ele>
        <time>2019-04-28T09:47:24Z</time>
      </trkpt>
      <trkpt lat="40.6454040" lon="-4.0361220">
        <ele>885.4</ele>
        <time>2019-04-28T09:47:25Z</time>
      </trkpt>
      <trkpt lat="40.6453680" lon="-4.0361280">
        <ele>885.4</ele>
        <time>2019-04-28T09:47:26Z</time>
      </trkpt>
      <trkpt lat="40.6453370" lon="-4.0361340">
        <ele>885.4</ele>
        <time>2019-04-28T09:47:27Z</time>
      </trkpt>
      <trkpt lat="40.6453120" lon="-4.0361410">
        <ele>885.4</ele>
        <time>2019-04-28T09:47:28Z</time>
      </trkpt>
      <trkpt lat="40.6452890" lon="-4.0361490">
        <ele>885.4</ele>
        <time>2019-04-28T09:47:29Z</time>
      </trkpt>
      <trkpt lat="40.6452650" lon="-4.0361530">
        <ele>885.6</ele>
        <time>2019-04-28T09:47:30Z</time>
      </trkpt>
      <trkpt lat="40.6452450" lon="-4.0361540">
        <ele>885.6</ele>
        <time>2019-04-28T09:47:31Z</time>
      </trkpt>
      <trkpt lat="40.6452250" lon="-4.0361500">
        <ele>885.6</ele>
        <time>2019-04-28T09:47:32Z</time>
      </trkpt>
      <trkpt lat="40.6452100" lon="-4.0361420">
        <ele>885.6</ele>
        <time>2019-04-28T09:47:33Z</time>
      </trkpt>
      <trkpt lat="40.6451970" lon="-4.0361290">
        <ele>885.6</ele>
        <time>2019-04-28T09:47:34Z</time>
      </trkpt>
      <trkpt lat="40.6451760" lon="-4.0361200">
        <ele>885.4</ele>
        <time>2019-04-28T09:47:35Z</time>
      </trkpt>
      <trkpt lat="40.6451510" lon="-4.0361080">
        <ele>885.4</ele>
        <time>2019-04-28T09:47:36Z</time>
      </trkpt>
      <trkpt lat="40.6451280" lon="-4.0360950">
        <ele>885.4</ele>
        <time>2019-04-28T09:47:37Z</time>
      </trkpt>
      <trkpt lat="40.6451140" lon="-4.0360950">
        <ele>885.2</ele>
        <time>2019-04-28T09:47:38Z</time>
      </trkpt>
      <trkpt lat="40.6450980" lon="-4.0360900">
        <ele>885.2</ele>
        <time>2019-04-28T09:47:39Z</time>
      </trkpt>
      <trkpt lat="40.6450770" lon="-4.0361020">
        <ele>885.0</ele>
        <time>2019-04-28T09:47:40Z</time>
      </trkpt>
      <trkpt lat="40.6450510" lon="-4.0361230">
        <ele>884.8</ele>
        <time>2019-04-28T09:47:41Z</time>
      </trkpt>
      <trkpt lat="40.6450250" lon="-4.0361460">
        <ele>884.8</ele>
        <time>2019-04-28T09:47:42Z</time>
      </trkpt>
      <trkpt lat="40.6449990" lon="-4.0361700">
        <ele>884.8</ele>
        <time>2019-04-28T09:47:43Z</time>
      </trkpt>
      <trkpt lat="40.6449690" lon="-4.0361870">
        <ele>884.8</ele>
        <time>2019-04-28T09:47:44Z</time>
      </trkpt>
      <trkpt lat="40.6449330" lon="-4.0361950">
        <ele>885.0</ele>
        <time>2019-04-28T09:47:45Z</time>
      </trkpt>
      <trkpt lat="40.6448930" lon="-4.0361950">
        <ele>884.8</ele>
        <time>2019-04-28T09:47:46Z</time>
      </trkpt>
      <trkpt lat="40.6448560" lon="-4.0361900">
        <ele>884.6</ele>
        <time>2019-04-28T09:47:47Z</time>
      </trkpt>
      <trkpt lat="40.6448260" lon="-4.0361710">
        <ele>884.8</ele>
        <time>2019-04-28T09:47:48Z</time>
      </trkpt>
      <trkpt lat="40.6447930" lon="-4.0361420">
        <ele>884.4</ele>
        <time>2019-04-28T09:47:49Z</time>
      </trkpt>
      <trkpt lat="40.6447590" lon="-4.0361130">
        <ele>884.4</ele>
        <time>2019-04-28T09:47:50Z</time>
      </trkpt>
      <trkpt lat="40.6447280" lon="-4.0360770">
        <ele>884.2</ele>
        <time>2019-04-28T09:47:51Z</time>
      </trkpt>
      <trkpt lat="40.6446940" lon="-4.0360400">
        <ele>884.2</ele>
        <time>2019-04-28T09:47:52Z</time>
      </trkpt>
      <trkpt lat="40.6446640" lon="-4.0359980">
        <ele>884.4</ele>
        <time>2019-04-28T09:47:53Z</time>
      </trkpt>
      <trkpt lat="40.6446320" lon="-4.0359500">
        <ele>884.4</ele>
        <time>2019-04-28T09:47:54Z</time>
      </trkpt>
      <trkpt lat="40.6446020" lon="-4.0358930">
        <ele>884.2</ele>
        <time>2019-04-28T09:47:55Z</time>
      </trkpt>
      <trkpt lat="40.6445770" lon="-4.0358300">
        <ele>884.6</ele>
        <time>2019-04-28T09:47:56Z</time>
      </trkpt>
      <trkpt lat="40.6445600" lon="-4.0357660">
        <ele>884.4</ele>
        <time>2019-04-28T09:47:57Z</time>
      </trkpt>
      <trkpt lat="40.6445430" lon="-4.0357010">
        <ele>884.2</ele>
        <time>2019-04-28T09:47:58Z</time>
      </trkpt>
      <trkpt lat="40.6445280" lon="-4.0356410">
        <ele>884.0</ele>
        <time>2019-04-28T09:47:59Z</time>
      </trkpt>
      <trkpt lat="40.6445100" lon="-4.0355800">
        <ele>884.0</ele>
        <time>2019-04-28T09:48:00Z</time>
      </trkpt>
      <trkpt lat="40.6444950" lon="-4.0355240">
        <ele>883.8</ele>
        <time>2019-04-28T09:48:01Z</time>
      </trkpt>
      <trkpt lat="40.6444850" lon="-4.0354650">
        <ele>883.6</ele>
        <time>2019-04-28T09:48:02Z</time>
      </trkpt>
      <trkpt lat="40.6444700" lon="-4.0354020">
        <ele>883.4</ele>
        <time>2019-04-28T09:48:03Z</time>
      </trkpt>
      <trkpt lat="40.6444530" lon="-4.0353430">
        <ele>883.2</ele>
        <time>2019-04-28T09:48:04Z</time>
      </trkpt>
      <trkpt lat="40.6444290" lon="-4.0352910">
        <ele>883.2</ele>
        <time>2019-04-28T09:48:05Z</time>
      </trkpt>
      <trkpt lat="40.6444050" lon="-4.0352320">
        <ele>883.2</ele>
        <time>2019-04-28T09:48:06Z</time>
      </trkpt>
      <trkpt lat="40.6443830" lon="-4.0351770">
        <ele>883.0</ele>
        <time>2019-04-28T09:48:07Z</time>
      </trkpt>
      <trkpt lat="40.6443570" lon="-4.0351130">
        <ele>883.0</ele>
        <time>2019-04-28T09:48:08Z</time>
      </trkpt>
      <trkpt lat="40.6443250" lon="-4.0350350">
        <ele>883.2</ele>
        <time>2019-04-28T09:48:09Z</time>
      </trkpt>
      <trkpt lat="40.6442990" lon="-4.0349770">
        <ele>883.0</ele>
        <time>2019-04-28T09:48:10Z</time>
      </trkpt>
      <trkpt lat="40.6442680" lon="-4.0349200">
        <ele>882.8</ele>
        <time>2019-04-28T09:48:11Z</time>
      </trkpt>
      <trkpt lat="40.6442280" lon="-4.0348610">
        <ele>882.8</ele>
        <time>2019-04-28T09:48:12Z</time>
      </trkpt>
      <trkpt lat="40.6441830" lon="-4.0348100">
        <ele>882.6</ele>
        <time>2019-04-28T09:48:13Z</time>
      </trkpt>
      <trkpt lat="40.6441370" lon="-4.0347480">
        <ele>882.4</ele>
        <time>2019-04-28T09:48:14Z</time>
      </trkpt>
      <trkpt lat="40.6440980" lon="-4.0346910">
        <ele>882.4</ele>
        <time>2019-04-28T09:48:15Z</time>
      </trkpt>
      <trkpt lat="40.6440600" lon="-4.0346280">
        <ele>882.6</ele>
        <time>2019-04-28T09:48:16Z</time>
      </trkpt>
      <trkpt lat="40.6440250" lon="-4.0345660">
        <ele>882.6</ele>
        <time>2019-04-28T09:48:17Z</time>
      </trkpt>
      <trkpt lat="40.6439850" lon="-4.0345080">
        <ele>882.4</ele>
        <time>2019-04-28T09:48:18Z</time>
      </trkpt>
      <trkpt lat="40.6439430" lon="-4.0344450">
        <ele>882.4</ele>
        <time>2019-04-28T09:48:19Z</time>
      </trkpt>
      <trkpt lat="40.6439110" lon="-4.0343770">
        <ele>882.2</ele>
        <time>2019-04-28T09:48:20Z</time>
      </trkpt>
      <trkpt lat="40.6438930" lon="-4.0343010">
        <ele>882.2</ele>
        <time>2019-04-28T09:48:21Z</time>
      </trkpt>
      <trkpt lat="40.6438910" lon="-4.0342190">
        <ele>882.0</ele>
        <time>2019-04-28T09:48:22Z</time>
      </trkpt>
      <trkpt lat="40.6439020" lon="-4.0341320">
        <ele>882.0</ele>
        <time>2019-04-28T09:48:23Z</time>
      </trkpt>
      <trkpt lat="40.6439270" lon="-4.0340510">
        <ele>882.0</ele>
        <time>2019-04-28T09:48:24Z</time>
      </trkpt>
      <trkpt lat="40.6439630" lon="-4.0339710">
        <ele>882.0</ele>
        <time>2019-04-28T09:48:25Z</time>
      </trkpt>
      <trkpt lat="40.6440060" lon="-4.0339050">
        <ele>881.8</ele>
        <time>2019-04-28T09:48:26Z</time>
      </trkpt>
      <trkpt lat="40.6440520" lon="-4.0338440">
        <ele>882.0</ele>
        <time>2019-04-28T09:48:27Z</time>
      </trkpt>
      <trkpt lat="40.6441010" lon="-4.0337850">
        <ele>882.0</ele>
        <time>2019-04-28T09:48:28Z</time>
      </trkpt>
      <trkpt lat="40.6441530" lon="-4.0337260">
        <ele>882.0</ele>
        <time>2019-04-28T09:48:29Z</time>
      </trkpt>
      <trkpt lat="40.6442050" lon="-4.0336730">
        <ele>882.0</ele>
        <time>2019-04-28T09:48:30Z</time>
      </trkpt>
      <trkpt lat="40.6442590" lon="-4.0336230">
        <ele>881.8</ele>
        <time>2019-04-28T09:48:31Z</time>
      </trkpt>
      <trkpt lat="40.6443110" lon="-4.0335740">
        <ele>881.8</ele>
        <time>2019-04-28T09:48:32Z</time>
      </trkpt>
      <trkpt lat="40.6443580" lon="-4.0335200">
        <ele>881.6</ele>
        <time>2019-04-28T09:48:33Z</time>
      </trkpt>
      <trkpt lat="40.6444100" lon="-4.0334690">
        <ele>881.6</ele>
        <time>2019-04-28T09:48:34Z</time>
      </trkpt>
      <trkpt lat="40.6444600" lon="-4.0334140">
        <ele>881.6</ele>
        <time>2019-04-28T09:48:35Z</time>
      </trkpt>
      <trkpt lat="40.6445040" lon="-4.0333520">
        <ele>881.4</ele>
        <time>2019-04-28T09:48:36Z</time>
      </trkpt>
      <trkpt lat="40.6445470" lon="-4.0332930">
        <ele>881.2</ele>
        <time>2019-04-28T09:48:37Z</time>
      </trkpt>
      <trkpt lat="40.6445830" lon="-4.0332320">
        <ele>881.0</ele>
        <time>2019-04-28T09:48:38Z</time>
      </trkpt>
      <trkpt lat="40.6446040" lon="-4.0331720">
        <ele>881.0</ele>
        <time>2019-04-28T09:48:39Z</time>
      </trkpt>
      <trkpt lat="40.6446160" lon="-4.0331300">
        <ele>881.0</ele>
        <time>2019-04-28T09:48:40Z</time>
      </trkpt>
      <trkpt lat="40.6446130" lon="-4.0331080">
        <ele>880.8</ele>
        <time>2019-04-28T09:48:41Z</time>
      </trkpt>
      <trkpt lat="40.6446000" lon="-4.0330870">
        <ele>880.8</ele>
        <time>2019-04-28T09:48:42Z</time>
      </trkpt>
      <trkpt lat="40.6445830" lon="-4.0330650">
        <ele>880.8</ele>
        <time>2019-04-28T09:48:43Z</time>
      </trkpt>
      <trkpt lat="40.6445660" lon="-4.0330290">
        <ele>880.8</ele>
        <time>2019-04-28T09:48:44Z</time>
      </trkpt>
      <trkpt lat="40.6445500" lon="-4.0329870">
        <ele>880.8</ele>
        <time>2019-04-28T09:48:45Z</time>
      </trkpt>
      <trkpt lat="40.6445290" lon="-4.0329330">
        <ele>881.0</ele>
        <time>2019-04-28T09:48:46Z</time>
      </trkpt>
      <trkpt lat="40.6445000" lon="-4.0328810">
        <ele>881.0</ele>
        <time>2019-04-28T09:48:47Z</time>
      </trkpt>
      <trkpt lat="40.6444660" lon="-4.0328230">
        <ele>881.0</ele>
        <time>2019-04-28T09:48:48Z</time>
      </trkpt>
      <trkpt lat="40.6444320" lon="-4.0327630">
        <ele>881.0</ele>
        <time>2019-04-28T09:48:49Z</time>
      </trkpt>
      <trkpt lat="40.6443990" lon="-4.0326980">
        <ele>881.0</ele>
        <time>2019-04-28T09:48:50Z</time>
      </trkpt>
      <trkpt lat="40.6443710" lon="-4.0326260">
        <ele>881.0</ele>
        <time>2019-04-28T09:48:51Z</time>
      </trkpt>
      <trkpt lat="40.6443450" lon="-4.0325450">
        <ele>881.0</ele>
        <time>2019-04-28T09:48:52Z</time>
      </trkpt>
      <trkpt lat="40.6443230" lon="-4.0324630">
        <ele>880.8</ele>
        <time>2019-04-28T09:48:53Z</time>
      </trkpt>
      <trkpt lat="40.6443010" lon="-4.0323820">
        <ele>881.0</ele>
        <time>2019-04-28T09:48:54Z</time>
      </trkpt>
      <trkpt lat="40.6442760" lon="-4.0323030">
        <ele>881.0</ele>
        <time>2019-04-28T09:48:55Z</time>
      </trkpt>
      <trkpt lat="40.6442470" lon="-4.0322270">
        <ele>880.8</ele>
        <time>2019-04-28T09:48:56Z</time>
      </trkpt>
      <trkpt lat="40.6442180" lon="-4.0321530">
        <ele>880.8</ele>
        <time>2019-04-28T09:48:57Z</time>
      </trkpt>
      <trkpt lat="40.6441890" lon="-4.0320890">
        <ele>880.8</ele>
        <time>2019-04-28T09:48:58Z</time>
      </trkpt>
      <trkpt lat="40.6441570" lon="-4.0320220">
        <ele>880.8</ele>
        <time>2019-04-28T09:48:59Z</time>
      </trkpt>
      <trkpt lat="40.6441290" lon="-4.0319640">
        <ele>880.8</ele>
        <time>2019-04-28T09:49:00Z</time>
      </trkpt>
      <trkpt lat="40.6440990" lon="-4.0319140">
        <ele>880.8</ele>
        <time>2019-04-28T09:49:01Z</time>
      </trkpt>
      <trkpt lat="40.6440650" lon="-4.0318650">
        <ele>880.6</ele>
        <time>2019-04-28T09:49:02Z</time>
      </trkpt>
      <trkpt lat="40.6440280" lon="-4.0317810">
        <ele>880.6</ele>
        <time>2019-04-28T09:49:03Z</time>
      </trkpt>
      <trkpt lat="40.6440030" lon="-4.0317070">
        <ele>880.4</ele>
        <time>2019-04-28T09:49:04Z</time>
      </trkpt>
      <trkpt lat="40.6439850" lon="-4.0316230">
        <ele>880.4</ele>
        <time>2019-04-28T09:49:05Z</time>
      </trkpt>
      <trkpt lat="40.6439610" lon="-4.0315420">
        <ele>880.4</ele>
        <time>2019-04-28T09:49:06Z</time>
      </trkpt>
      <trkpt lat="40.6439320" lon="-4.0314690">
        <ele>880.4</ele>
        <time>2019-04-28T09:49:07Z</time>
      </trkpt>
      <trkpt lat="40.6439030" lon="-4.0313890">
        <ele>880.4</ele>
        <time>2019-04-28T09:49:08Z</time>
      </trkpt>
      <trkpt lat="40.6438760" lon="-4.0313120">
        <ele>880.4</ele>
        <time>2019-04-28T09:49:09Z</time>
      </trkpt>
      <trkpt lat="40.6438510" lon="-4.0312300">
        <ele>880.2</ele>
        <time>2019-04-28T09:49:10Z</time>
      </trkpt>
      <trkpt lat="40.6438250" lon="-4.0311480">
        <ele>880.2</ele>
        <time>2019-04-28T09:49:11Z</time>
      </trkpt>
      <trkpt lat="40.6437970" lon="-4.0310680">
        <ele>880.0</ele>
        <time>2019-04-28T09:49:12Z</time>
      </trkpt>
      <trkpt lat="40.6437600" lon="-4.0309970">
        <ele>880.0</ele>
        <time>2019-04-28T09:49:13Z</time>
      </trkpt>
      <trkpt lat="40.6437210" lon="-4.0309240">
        <ele>880.0</ele>
        <time>2019-04-28T09:49:14Z</time>
      </trkpt>
      <trkpt lat="40.6436840" lon="-4.0308460">
        <ele>880.0</ele>
        <time>2019-04-28T09:49:15Z</time>
      </trkpt>
      <trkpt lat="40.6436530" lon="-4.0307770">
        <ele>880.0</ele>
        <time>2019-04-28T09:49:16Z</time>
      </trkpt>
      <trkpt lat="40.6436220" lon="-4.0307100">
        <ele>880.2</ele>
        <time>2019-04-28T09:49:17Z</time>
      </trkpt>
      <trkpt lat="40.6435880" lon="-4.0306380">
        <ele>880.0</ele>
        <time>2019-04-28T09:49:18Z</time>
      </trkpt>
      <trkpt lat="40.6435510" lon="-4.0305680">
        <ele>880.0</ele>
        <time>2019-04-28T09:49:19Z</time>
      </trkpt>
      <trkpt lat="40.6435120" lon="-4.0305080">
        <ele>880.0</ele>
        <time>2019-04-28T09:49:20Z</time>
      </trkpt>
      <trkpt lat="40.6434730" lon="-4.0304660">
        <ele>880.0</ele>
        <time>2019-04-28T09:49:21Z</time>
      </trkpt>
      <trkpt lat="40.6434280" lon="-4.0304190">
        <ele>879.8</ele>
        <time>2019-04-28T09:49:22Z</time>
      </trkpt>
      <trkpt lat="40.6433850" lon="-4.0303690">
        <ele>879.8</ele>
        <time>2019-04-28T09:49:23Z</time>
      </trkpt>
      <trkpt lat="40.6433620" lon="-4.0303170">
        <ele>879.8</ele>
        <time>2019-04-28T09:49:24Z</time>
      </trkpt>
      <trkpt lat="40.6433580" lon="-4.0302590">
        <ele>879.8</ele>
        <time>2019-04-28T09:49:25Z</time>
      </trkpt>
      <trkpt lat="40.6433550" lon="-4.0301850">
        <ele>879.6</ele>
        <time>2019-04-28T09:49:26Z</time>
      </trkpt>
      <trkpt lat="40.6433390" lon="-4.0301220">
        <ele>879.6</ele>
        <time>2019-04-28T09:49:27Z</time>
      </trkpt>
      <trkpt lat="40.6433210" lon="-4.0300520">
        <ele>879.6</ele>
        <time>2019-04-28T09:49:28Z</time>
      </trkpt>
      <trkpt lat="40.6433110" lon="-4.0299780">
        <ele>879.4</ele>
        <time>2019-04-28T09:49:29Z</time>
      </trkpt>
      <trkpt lat="40.6432930" lon="-4.0299110">
        <ele>879.4</ele>
        <time>2019-04-28T09:49:30Z</time>
      </trkpt>
      <trkpt lat="40.6432570" lon="-4.0298530">
        <ele>879.4</ele>
        <time>2019-04-28T09:49:31Z</time>
      </trkpt>
      <trkpt lat="40.6432120" lon="-4.0297940">
        <ele>879.4</ele>
        <time>2019-04-28T09:49:32Z</time>
      </trkpt>
      <trkpt lat="40.6431720" lon="-4.0297390">
        <ele>879.2</ele>
        <time>2019-04-28T09:49:33Z</time>
      </trkpt>
      <trkpt lat="40.6431350" lon="-4.0296870">
        <ele>879.2</ele>
        <time>2019-04-28T09:49:34Z</time>
      </trkpt>
      <trkpt lat="40.6431000" lon="-4.0296360">
        <ele>879.2</ele>
        <time>2019-04-28T09:49:35Z</time>
      </trkpt>
      <trkpt lat="40.6430690" lon="-4.0295850">
        <ele>879.2</ele>
        <time>2019-04-28T09:49:36Z</time>
      </trkpt>
      <trkpt lat="40.6430410" lon="-4.0295250">
        <ele>879.0</ele>
        <time>2019-04-28T09:49:37Z</time>
      </trkpt>
      <trkpt lat="40.6430130" lon="-4.0294620">
        <ele>879.0</ele>
        <time>2019-04-28T09:49:38Z</time>
      </trkpt>
      <trkpt lat="40.6429860" lon="-4.0294120">
        <ele>878.8</ele>
        <time>2019-04-28T09:49:39Z</time>
      </trkpt>
      <trkpt lat="40.6429480" lon="-4.0293670">
        <ele>878.8</ele>
        <time>2019-04-28T09:49:40Z</time>
      </trkpt>
      <trkpt lat="40.6429120" lon="-4.0293410">
        <ele>879.0</ele>
        <time>2019-04-28T09:49:41Z</time>
      </trkpt>
      <trkpt lat="40.6428770" lon="-4.0293030">
        <ele>879.4</ele>
        <time>2019-04-28T09:49:42Z</time>
      </trkpt>
      <trkpt lat="40.6428530" lon="-4.0292540">
        <ele>879.4</ele>
        <time>2019-04-28T09:49:43Z</time>
      </trkpt>
      <trkpt lat="40.6428400" lon="-4.0292000">
        <ele>879.4</ele>
        <time>2019-04-28T09:49:44Z</time>
      </trkpt>
      <trkpt lat="40.6428300" lon="-4.0291430">
        <ele>879.4</ele>
        <time>2019-04-28T09:49:45Z</time>
      </trkpt>
      <trkpt lat="40.6428120" lon="-4.0290880">
        <ele>879.4</ele>
        <time>2019-04-28T09:49:46Z</time>
      </trkpt>
      <trkpt lat="40.6428060" lon="-4.0290540">
        <ele>879.4</ele>
        <time>2019-04-28T09:49:47Z</time>
      </trkpt>
      <trkpt lat="40.6427970" lon="-4.0290250">
        <ele>879.4</ele>
        <time>2019-04-28T09:49:48Z</time>
      </trkpt>
      <trkpt lat="40.6427880" lon="-4.0290000">
        <ele>879.4</ele>
        <time>2019-04-28T09:49:49Z</time>
      </trkpt>
      <trkpt lat="40.6427770" lon="-4.0289730">
        <ele>879.2</ele>
        <time>2019-04-28T09:49:50Z</time>
      </trkpt>
      <trkpt lat="40.6427690" lon="-4.0289470">
        <ele>879.2</ele>
        <time>2019-04-28T09:49:51Z</time>
      </trkpt>
      <trkpt lat="40.6427630" lon="-4.0289340">
        <ele>879.2</ele>
        <time>2019-04-28T09:49:52Z</time>
      </trkpt>
      <trkpt lat="40.6427600" lon="-4.0289250">
        <ele>879.2</ele>
        <time>2019-04-28T09:49:53Z</time>
      </trkpt>
      <trkpt lat="40.6427580" lon="-4.0289200">
        <ele>879.2</ele>
        <time>2019-04-28T09:49:54Z</time>
      </trkpt>
      <trkpt lat="40.6427540" lon="-4.0289140">
        <ele>879.2</ele>
        <time>2019-04-28T09:49:55Z</time>
      </trkpt>
      <trkpt lat="40.6427520" lon="-4.0288970">
        <ele>879.2</ele>
        <time>2019-04-28T09:49:56Z</time>
      </trkpt>
      <trkpt lat="40.6427520" lon="-4.0288920">
        <ele>879.2</ele>
        <time>2019-04-28T09:49:57Z</time>
      </trkpt>
      <trkpt lat="40.6427470" lon="-4.0288840">
        <ele>879.2</ele>
        <time>2019-04-28T09:49:58Z</time>
      </trkpt>
      <trkpt lat="40.6427380" lon="-4.0288550">
        <ele>879.0</ele>
        <time>2019-04-28T09:49:59Z</time>
      </trkpt>
      <trkpt lat="40.6425660" lon="-4.0285200">
        <ele>878.8</ele>
        <time>2019-04-28T09:50:15Z</time>
      </trkpt>
      <trkpt lat="40.6425440" lon="-4.0285090">
        <ele>878.8</ele>
        <time>2019-04-28T09:50:16Z</time>
      </trkpt>
      <trkpt lat="40.6425170" lon="-4.0284890">
        <ele>878.8</ele>
        <time>2019-04-28T09:50:17Z</time>
      </trkpt>
      <trkpt lat="40.6424830" lon="-4.0284740">
        <ele>878.6</ele>
        <time>2019-04-28T09:50:18Z</time>
      </trkpt>
      <trkpt lat="40.6424630" lon="-4.0284520">
        <ele>878.6</ele>
        <time>2019-04-28T09:50:19Z</time>
      </trkpt>
      <trkpt lat="40.6424470" lon="-4.0284550">
        <ele>878.6</ele>
        <time>2019-04-28T09:50:20Z</time>
      </trkpt>
      <trkpt lat="40.6424360" lon="-4.0284420">
        <ele>878.6</ele>
        <time>2019-04-28T09:50:21Z</time>
      </trkpt>
      <trkpt lat="40.6424350" lon="-4.0284100">
        <ele>878.6</ele>
        <time>2019-04-28T09:50:22Z</time>
      </trkpt>
      <trkpt lat="40.6424220" lon="-4.0283850">
        <ele>878.6</ele>
        <time>2019-04-28T09:50:23Z</time>
      </trkpt>
      <trkpt lat="40.6424120" lon="-4.0283840">
        <ele>878.6</ele>
        <time>2019-04-28T09:50:24Z</time>
      </trkpt>
      <trkpt lat="40.6423840" lon="-4.0283800">
        <ele>878.4</ele>
        <time>2019-04-28T09:50:25Z</time>
      </trkpt>
      <trkpt lat="40.6423580" lon="-4.0283350">
        <ele>878.4</ele>
        <time>2019-04-28T09:50:26Z</time>
      </trkpt>
      <trkpt lat="40.6422670" lon="-4.0282580">
        <ele>878.6</ele>
        <time>2019-04-28T09:50:27Z</time>
      </trkpt>
      <trkpt lat="40.6421990" lon="-4.0282660">
        <ele>878.6</ele>
        <time>2019-04-28T09:50:28Z</time>
      </trkpt>
      <trkpt lat="40.6421310" lon="-4.0282600">
        <ele>878.8</ele>
        <time>2019-04-28T09:50:29Z</time>
      </trkpt>
      <trkpt lat="40.6420840" lon="-4.0282630">
        <ele>879.2</ele>
        <time>2019-04-28T09:50:30Z</time>
      </trkpt>
      <trkpt lat="40.6420250" lon="-4.0282590">
        <ele>879.2</ele>
        <time>2019-04-28T09:50:31Z</time>
      </trkpt>
      <trkpt lat="40.6419660" lon="-4.0282380">
        <ele>879.4</ele>
        <time>2019-04-28T09:50:32Z</time>
      </trkpt>
      <trkpt lat="40.6419290" lon="-4.0282060">
        <ele>879.4</ele>
        <time>2019-04-28T09:50:33Z</time>
      </trkpt>
      <trkpt lat="40.6419050" lon="-4.0281540">
        <ele>879.4</ele>
        <time>2019-04-28T09:50:34Z</time>
      </trkpt>
      <trkpt lat="40.6418890" lon="-4.0281040">
        <ele>879.4</ele>
        <time>2019-04-28T09:50:35Z</time>
      </trkpt>
      <trkpt lat="40.6418710" lon="-4.0280550">
        <ele>879.4</ele>
        <time>2019-04-28T09:50:36Z</time>
      </trkpt>
      <trkpt lat="40.6418330" lon="-4.0279850">
        <ele>879.4</ele>
        <time>2019-04-28T09:50:37Z</time>
      </trkpt>
      <trkpt lat="40.6417980" lon="-4.0279370">
        <ele>879.4</ele>
        <time>2019-04-28T09:50:38Z</time>
      </trkpt>
      <trkpt lat="40.6417510" lon="-4.0278730">
        <ele>879.4</ele>
        <time>2019-04-28T09:50:39Z</time>
      </trkpt>
      <trkpt lat="40.6417390" lon="-4.0278170">
        <ele>879.2</ele>
        <time>2019-04-28T09:50:40Z</time>
      </trkpt>
      <trkpt lat="40.6417290" lon="-4.0277620">
        <ele>879.2</ele>
        <time>2019-04-28T09:50:41Z</time>
      </trkpt>
      <trkpt lat="40.6417160" lon="-4.0277100">
        <ele>879.2</ele>
        <time>2019-04-28T09:50:42Z</time>
      </trkpt>
      <trkpt lat="40.6416950" lon="-4.0276530">
        <ele>879.0</ele>
        <time>2019-04-28T09:50:43Z</time>
      </trkpt>
      <trkpt lat="40.6416730" lon="-4.0275930">
        <ele>879.0</ele>
        <time>2019-04-28T09:50:44Z</time>
      </trkpt>
      <trkpt lat="40.6416510" lon="-4.0275200">
        <ele>878.8</ele>
        <time>2019-04-28T09:50:45Z</time>
      </trkpt>
      <trkpt lat="40.6416270" lon="-4.0274430">
        <ele>878.8</ele>
        <time>2019-04-28T09:50:46Z</time>
      </trkpt>
      <trkpt lat="40.6416110" lon="-4.0273660">
        <ele>878.8</ele>
        <time>2019-04-28T09:50:47Z</time>
      </trkpt>
      <trkpt lat="40.6415870" lon="-4.0272890">
        <ele>878.8</ele>
        <time>2019-04-28T09:50:48Z</time>
      </trkpt>
      <trkpt lat="40.6415860" lon="-4.0272160">
        <ele>878.8</ele>
        <time>2019-04-28T09:50:49Z</time>
      </trkpt>
      <trkpt lat="40.6415890" lon="-4.0271490">
        <ele>878.6</ele>
        <time>2019-04-28T09:50:50Z</time>
      </trkpt>
      <trkpt lat="40.6415870" lon="-4.0270900">
        <ele>878.6</ele>
        <time>2019-04-28T09:50:51Z</time>
      </trkpt>
      <trkpt lat="40.6415770" lon="-4.0270460">
        <ele>878.4</ele>
        <time>2019-04-28T09:50:52Z</time>
      </trkpt>
      <trkpt lat="40.6415580" lon="-4.0270240">
        <ele>878.4</ele>
        <time>2019-04-28T09:50:53Z</time>
      </trkpt>
      <trkpt lat="40.6415250" lon="-4.0270230">
        <ele>878.4</ele>
        <time>2019-04-28T09:50:54Z</time>
      </trkpt>
      <trkpt lat="40.6414920" lon="-4.0270370">
        <ele>878.6</ele>
        <time>2019-04-28T09:50:55Z</time>
      </trkpt>
      <trkpt lat="40.6414460" lon="-4.0270440">
        <ele>878.6</ele>
        <time>2019-04-28T09:50:56Z</time>
      </trkpt>
      <trkpt lat="40.6414070" lon="-4.0270620">
        <ele>878.8</ele>
        <time>2019-04-28T09:50:57Z</time>
      </trkpt>
      <trkpt lat="40.6413610" lon="-4.0270740">
        <ele>878.6</ele>
        <time>2019-04-28T09:50:58Z</time>
      </trkpt>
      <trkpt lat="40.6413190" lon="-4.0271010">
        <ele>878.6</ele>
        <time>2019-04-28T09:50:59Z</time>
      </trkpt>
      <trkpt lat="40.6412750" lon="-4.0271320">
        <ele>878.6</ele>
        <time>2019-04-28T09:51:00Z</time>
      </trkpt>
      <trkpt lat="40.6412330" lon="-4.0271630">
        <ele>878.6</ele>
        <time>2019-04-28T09:51:01Z</time>
      </trkpt>
      <trkpt lat="40.6411890" lon="-4.0271930">
        <ele>878.6</ele>
        <time>2019-04-28T09:51:02Z</time>
      </trkpt>
      <trkpt lat="40.6411450" lon="-4.0272240">
        <ele>878.6</ele>
        <time>2019-04-28T09:51:03Z</time>
      </trkpt>
      <trkpt lat="40.6411030" lon="-4.0272530">
        <ele>878.6</ele>
        <time>2019-04-28T09:51:04Z</time>
      </trkpt>
      <trkpt lat="40.6410580" lon="-4.0272810">
        <ele>878.6</ele>
        <time>2019-04-28T09:51:05Z</time>
      </trkpt>
      <trkpt lat="40.6410170" lon="-4.0273120">
        <ele>878.6</ele>
        <time>2019-04-28T09:51:06Z</time>
      </trkpt>
      <trkpt lat="40.6409750" lon="-4.0273420">
        <ele>878.6</ele>
        <time>2019-04-28T09:51:07Z</time>
      </trkpt>
      <trkpt lat="40.6409390" lon="-4.0273720">
        <ele>878.8</ele>
        <time>2019-04-28T09:51:08Z</time>
      </trkpt>
      <trkpt lat="40.6409000" lon="-4.0273960">
        <ele>878.8</ele>
        <time>2019-04-28T09:51:09Z</time>
      </trkpt>
      <trkpt lat="40.6408630" lon="-4.0274160">
        <ele>878.8</ele>
        <time>2019-04-28T09:51:10Z</time>
      </trkpt>
      <trkpt lat="40.6408200" lon="-4.0274320">
        <ele>878.8</ele>
        <time>2019-04-28T09:51:11Z</time>
      </trkpt>
      <trkpt lat="40.6407780" lon="-4.0274540">
        <ele>878.8</ele>
        <time>2019-04-28T09:51:12Z</time>
      </trkpt>
      <trkpt lat="40.6407400" lon="-4.0274770">
        <ele>879.0</ele>
        <time>2019-04-28T09:51:13Z</time>
      </trkpt>
      <trkpt lat="40.6407030" lon="-4.0275060">
        <ele>879.0</ele>
        <time>2019-04-28T09:51:14Z</time>
      </trkpt>
      <trkpt lat="40.6406670" lon="-4.0275360">
        <ele>879.0</ele>
        <time>2019-04-28T09:51:15Z</time>
      </trkpt>
      <trkpt lat="40.6406280" lon="-4.0275620">
        <ele>879.2</ele>
        <time>2019-04-28T09:51:16Z</time>
      </trkpt>
      <trkpt lat="40.6405900" lon="-4.0275880">
        <ele>879.2</ele>
        <time>2019-04-28T09:51:17Z</time>
      </trkpt>
      <trkpt lat="40.6405500" lon="-4.0276110">
        <ele>879.4</ele>
        <time>2019-04-28T09:51:18Z</time>
      </trkpt>
      <trkpt lat="40.6405130" lon="-4.0276330">
        <ele>879.4</ele>
        <time>2019-04-28T09:51:19Z</time>
      </trkpt>
      <trkpt lat="40.6404760" lon="-4.0276570">
        <ele>879.6</ele>
        <time>2019-04-28T09:51:20Z</time>
      </trkpt>
      <trkpt lat="40.6404420" lon="-4.0276830">
        <ele>879.6</ele>
        <time>2019-04-28T09:51:21Z</time>
      </trkpt>
      <trkpt lat="40.6404040" lon="-4.0277090">
        <ele>879.8</ele>
        <time>2019-04-28T09:51:22Z</time>
      </trkpt>
      <trkpt lat="40.6403680" lon="-4.0277320">
        <ele>879.8</ele>
        <time>2019-04-28T09:51:23Z</time>
      </trkpt>
      <trkpt lat="40.6403310" lon="-4.0277480">
        <ele>880.0</ele>
        <time>2019-04-28T09:51:24Z</time>
      </trkpt>
      <trkpt lat="40.6402940" lon="-4.0277610">
        <ele>880.0</ele>
        <time>2019-04-28T09:51:25Z</time>
      </trkpt>
      <trkpt lat="40.6402580" lon="-4.0277750">
        <ele>880.2</ele>
        <time>2019-04-28T09:51:26Z</time>
      </trkpt>
      <trkpt lat="40.6402190" lon="-4.0277870">
        <ele>880.2</ele>
        <time>2019-04-28T09:51:27Z</time>
      </trkpt>
      <trkpt lat="40.6401780" lon="-4.0277940">
        <ele>880.4</ele>
        <time>2019-04-28T09:51:28Z</time>
      </trkpt>
      <trkpt lat="40.6401350" lon="-4.0277930">
        <ele>880.6</ele>
        <time>2019-04-28T09:51:29Z</time>
      </trkpt>
      <trkpt lat="40.6400910" lon="-4.0277870">
        <ele>880.6</ele>
        <time>2019-04-28T09:51:30Z</time>
      </trkpt>
      <trkpt lat="40.6400480" lon="-4.0277740">
        <ele>880.8</ele>
        <time>2019-04-28T09:51:31Z</time>
      </trkpt>
      <trkpt lat="40.6400070" lon="-4.0277550">
        <ele>881.0</ele>
        <time>2019-04-28T09:51:32Z</time>
      </trkpt>
      <trkpt lat="40.6399670" lon="-4.0277370">
        <ele>881.4</ele>
        <time>2019-04-28T09:51:33Z</time>
      </trkpt>
      <trkpt lat="40.6399340" lon="-4.0277230">
        <ele>881.6</ele>
        <time>2019-04-28T09:51:34Z</time>
      </trkpt>
      <trkpt lat="40.6399010" lon="-4.0277030">
        <ele>882.0</ele>
        <time>2019-04-28T09:51:35Z</time>
      </trkpt>
      <trkpt lat="40.6398720" lon="-4.0276870">
        <ele>882.2</ele>
        <time>2019-04-28T09:51:36Z</time>
      </trkpt>
      <trkpt lat="40.6398420" lon="-4.0276780">
        <ele>882.4</ele>
        <time>2019-04-28T09:51:37Z</time>
      </trkpt>
      <trkpt lat="40.6398130" lon="-4.0276750">
        <ele>882.6</ele>
        <time>2019-04-28T09:51:38Z</time>
      </trkpt>
      <trkpt lat="40.6397920" lon="-4.0276790">
        <ele>882.8</ele>
        <time>2019-04-28T09:51:39Z</time>
      </trkpt>
      <trkpt lat="40.6397780" lon="-4.0276950">
        <ele>882.8</ele>
        <time>2019-04-28T09:51:40Z</time>
      </trkpt>
      <trkpt lat="40.6397710" lon="-4.0277250">
        <ele>883.0</ele>
        <time>2019-04-28T09:51:41Z</time>
      </trkpt>
      <trkpt lat="40.6397760" lon="-4.0277610">
        <ele>883.0</ele>
        <time>2019-04-28T09:51:42Z</time>
      </trkpt>
      <trkpt lat="40.6397850" lon="-4.0278010">
        <ele>883.0</ele>
        <time>2019-04-28T09:51:43Z</time>
      </trkpt>
      <trkpt lat="40.6397980" lon="-4.0278510">
        <ele>883.2</ele>
        <time>2019-04-28T09:51:44Z</time>
      </trkpt>
      <trkpt lat="40.6398120" lon="-4.0279020">
        <ele>883.2</ele>
        <time>2019-04-28T09:51:45Z</time>
      </trkpt>
      <trkpt lat="40.6398300" lon="-4.0279620">
        <ele>883.4</ele>
        <time>2019-04-28T09:51:46Z</time>
      </trkpt>
      <trkpt lat="40.6398480" lon="-4.0280230">
        <ele>883.4</ele>
        <time>2019-04-28T09:51:47Z</time>
      </trkpt>
      <trkpt lat="40.6398640" lon="-4.0280840">
        <ele>883.4</ele>
        <time>2019-04-28T09:51:48Z</time>
      </trkpt>
      <trkpt lat="40.6398800" lon="-4.0281460">
        <ele>883.4</ele>
        <time>2019-04-28T09:51:49Z</time>
      </trkpt>
      <trkpt lat="40.6398980" lon="-4.0282100">
        <ele>883.4</ele>
        <time>2019-04-28T09:51:50Z</time>
      </trkpt>
      <trkpt lat="40.6399160" lon="-4.0282730">
        <ele>883.4</ele>
        <time>2019-04-28T09:51:51Z</time>
      </trkpt>
      <trkpt lat="40.6399370" lon="-4.0283340">
        <ele>883.4</ele>
        <time>2019-04-28T09:51:52Z</time>
      </trkpt>
      <trkpt lat="40.6399570" lon="-4.0283960">
        <ele>883.4</ele>
        <time>2019-04-28T09:51:53Z</time>
      </trkpt>
      <trkpt lat="40.6399760" lon="-4.0284560">
        <ele>883.4</ele>
        <time>2019-04-28T09:51:54Z</time>
      </trkpt>
      <trkpt lat="40.6399950" lon="-4.0285190">
        <ele>883.6</ele>
        <time>2019-04-28T09:51:55Z</time>
      </trkpt>
      <trkpt lat="40.6400130" lon="-4.0285820">
        <ele>883.6</ele>
        <time>2019-04-28T09:51:56Z</time>
      </trkpt>
      <trkpt lat="40.6400320" lon="-4.0286460">
        <ele>883.8</ele>
        <time>2019-04-28T09:51:57Z</time>
      </trkpt>
      <trkpt lat="40.6400480" lon="-4.0287070">
        <ele>883.6</ele>
        <time>2019-04-28T09:51:58Z</time>
      </trkpt>
      <trkpt lat="40.6400640" lon="-4.0287690">
        <ele>883.6</ele>
        <time>2019-04-28T09:51:59Z</time>
      </trkpt>
      <trkpt lat="40.6400810" lon="-4.0288300">
        <ele>883.6</ele>
        <time>2019-04-28T09:52:00Z</time>
      </trkpt>
      <trkpt lat="40.6400960" lon="-4.0288830">
        <ele>883.8</ele>
        <time>2019-04-28T09:52:01Z</time>
      </trkpt>
      <trkpt lat="40.6401080" lon="-4.0289290">
        <ele>883.8</ele>
        <time>2019-04-28T09:52:02Z</time>
      </trkpt>
      <trkpt lat="40.6401240" lon="-4.0289790">
        <ele>883.8</ele>
        <time>2019-04-28T09:52:03Z</time>
      </trkpt>
      <trkpt lat="40.6401430" lon="-4.0290310">
        <ele>884.0</ele>
        <time>2019-04-28T09:52:04Z</time>
      </trkpt>
      <trkpt lat="40.6401570" lon="-4.0290800">
        <ele>884.0</ele>
        <time>2019-04-28T09:52:05Z</time>
      </trkpt>
      <trkpt lat="40.6401720" lon="-4.0291330">
        <ele>884.2</ele>
        <time>2019-04-28T09:52:06Z</time>
      </trkpt>
      <trkpt lat="40.6401900" lon="-4.0291930">
        <ele>884.2</ele>
        <time>2019-04-28T09:52:07Z</time>
      </trkpt>
      <trkpt lat="40.6402100" lon="-4.0292570">
        <ele>884.2</ele>
        <time>2019-04-28T09:52:08Z</time>
      </trkpt>
      <trkpt lat="40.6402300" lon="-4.0293210">
        <ele>884.2</ele>
        <time>2019-04-28T09:52:09Z</time>
      </trkpt>
      <trkpt lat="40.6402520" lon="-4.0293890">
        <ele>884.2</ele>
        <time>2019-04-28T09:52:10Z</time>
      </trkpt>
      <trkpt lat="40.6402720" lon="-4.0294590">
        <ele>884.2</ele>
        <time>2019-04-28T09:52:11Z</time>
      </trkpt>
      <trkpt lat="40.6402920" lon="-4.0295270">
        <ele>884.0</ele>
        <time>2019-04-28T09:52:12Z</time>
      </trkpt>
      <trkpt lat="40.6403130" lon="-4.0295920">
        <ele>884.2</ele>
        <time>2019-04-28T09:52:13Z</time>
      </trkpt>
      <trkpt lat="40.6403340" lon="-4.0296630">
        <ele>884.4</ele>
        <time>2019-04-28T09:52:14Z</time>
      </trkpt>
      <trkpt lat="40.6403540" lon="-4.0297270">
        <ele>884.4</ele>
        <time>2019-04-28T09:52:15Z</time>
      </trkpt>
      <trkpt lat="40.6403780" lon="-4.0297930">
        <ele>884.4</ele>
        <time>2019-04-28T09:52:16Z</time>
      </trkpt>
      <trkpt lat="40.6404000" lon="-4.0298630">
        <ele>884.4</ele>
        <time>2019-04-28T09:52:17Z</time>
      </trkpt>
      <trkpt lat="40.6404200" lon="-4.0299310">
        <ele>884.6</ele>
        <time>2019-04-28T09:52:18Z</time>
      </trkpt>
      <trkpt lat="40.6404430" lon="-4.0300060">
        <ele>884.6</ele>
        <time>2019-04-28T09:52:19Z</time>
      </trkpt>
      <trkpt lat="40.6404680" lon="-4.0300850">
        <ele>884.6</ele>
        <time>2019-04-28T09:52:20Z</time>
      </trkpt>
      <trkpt lat="40.6404910" lon="-4.0301610">
        <ele>884.6</ele>
        <time>2019-04-28T09:52:21Z</time>
      </trkpt>
      <trkpt lat="40.6405140" lon="-4.0302380">
        <ele>884.6</ele>
        <time>2019-04-28T09:52:22Z</time>
      </trkpt>
      <trkpt lat="40.6405360" lon="-4.0303160">
        <ele>884.6</ele>
        <time>2019-04-28T09:52:23Z</time>
      </trkpt>
      <trkpt lat="40.6405590" lon="-4.0303930">
        <ele>884.8</ele>
        <time>2019-04-28T09:52:24Z</time>
      </trkpt>
      <trkpt lat="40.6405820" lon="-4.0304700">
        <ele>884.8</ele>
        <time>2019-04-28T09:52:25Z</time>
      </trkpt>
      <trkpt lat="40.6406080" lon="-4.0305490">
        <ele>885.0</ele>
        <time>2019-04-28T09:52:26Z</time>
      </trkpt>
      <trkpt lat="40.6406320" lon="-4.0306260">
        <ele>885.0</ele>
        <time>2019-04-28T09:52:27Z</time>
      </trkpt>
      <trkpt lat="40.6406560" lon="-4.0307040">
        <ele>885.0</ele>
        <time>2019-04-28T09:52:28Z</time>
      </trkpt>
      <trkpt lat="40.6406810" lon="-4.0307840">
        <ele>885.0</ele>
        <time>2019-04-28T09:52:29Z</time>
      </trkpt>
      <trkpt lat="40.6407080" lon="-4.0308700">
        <ele>885.0</ele>
        <time>2019-04-28T09:52:30Z</time>
      </trkpt>
      <trkpt lat="40.6407300" lon="-4.0309490">
        <ele>885.0</ele>
        <time>2019-04-28T09:52:31Z</time>
      </trkpt>
      <trkpt lat="40.6407520" lon="-4.0310240">
        <ele>885.2</ele>
        <time>2019-04-28T09:52:32Z</time>
      </trkpt>
      <trkpt lat="40.6407720" lon="-4.0310910">
        <ele>885.0</ele>
        <time>2019-04-28T09:52:33Z</time>
      </trkpt>
      <trkpt lat="40.6407990" lon="-4.0311590">
        <ele>885.0</ele>
        <time>2019-04-28T09:52:34Z</time>
      </trkpt>
      <trkpt lat="40.6408240" lon="-4.0312270">
        <ele>885.0</ele>
        <time>2019-04-28T09:52:35Z</time>
      </trkpt>
      <trkpt lat="40.6408460" lon="-4.0312890">
        <ele>885.0</ele>
        <time>2019-04-28T09:52:36Z</time>
      </trkpt>
      <trkpt lat="40.6408680" lon="-4.0313560">
        <ele>885.0</ele>
        <time>2019-04-28T09:52:37Z</time>
      </trkpt>
      <trkpt lat="40.6408880" lon="-4.0314220">
        <ele>885.0</ele>
        <time>2019-04-28T09:52:38Z</time>
      </trkpt>
      <trkpt lat="40.6409080" lon="-4.0314900">
        <ele>885.0</ele>
        <time>2019-04-28T09:52:39Z</time>
      </trkpt>
      <trkpt lat="40.6409290" lon="-4.0315610">
        <ele>885.2</ele>
        <time>2019-04-28T09:52:40Z</time>
      </trkpt>
      <trkpt lat="40.6409500" lon="-4.0316310">
        <ele>885.2</ele>
        <time>2019-04-28T09:52:41Z</time>
      </trkpt>
      <trkpt lat="40.6409680" lon="-4.0316880">
        <ele>885.2</ele>
        <time>2019-04-28T09:52:42Z</time>
      </trkpt>
      <trkpt lat="40.6409850" lon="-4.0317430">
        <ele>885.2</ele>
        <time>2019-04-28T09:52:43Z</time>
      </trkpt>
      <trkpt lat="40.6410010" lon="-4.0318010">
        <ele>885.0</ele>
        <time>2019-04-28T09:52:44Z</time>
      </trkpt>
      <trkpt lat="40.6410200" lon="-4.0318660">
        <ele>885.0</ele>
        <time>2019-04-28T09:52:45Z</time>
      </trkpt>
      <trkpt lat="40.6410380" lon="-4.0319250">
        <ele>885.2</ele>
        <time>2019-04-28T09:52:46Z</time>
      </trkpt>
      <trkpt lat="40.6410580" lon="-4.0319860">
        <ele>885.2</ele>
        <time>2019-04-28T09:52:47Z</time>
      </trkpt>
      <trkpt lat="40.6410790" lon="-4.0320380">
        <ele>885.2</ele>
        <time>2019-04-28T09:52:48Z</time>
      </trkpt>
      <trkpt lat="40.6411020" lon="-4.0320830">
        <ele>885.2</ele>
        <time>2019-04-28T09:52:49Z</time>
      </trkpt>
      <trkpt lat="40.6411280" lon="-4.0321240">
        <ele>885.2</ele>
        <time>2019-04-28T09:52:50Z</time>
      </trkpt>
      <trkpt lat="40.6411530" lon="-4.0321620">
        <ele>885.2</ele>
        <time>2019-04-28T09:52:51Z</time>
      </trkpt>
      <trkpt lat="40.6411750" lon="-4.0321880">
        <ele>885.0</ele>
        <time>2019-04-28T09:52:52Z</time>
      </trkpt>
      <trkpt lat="40.6411960" lon="-4.0322110">
        <ele>885.0</ele>
        <time>2019-04-28T09:52:53Z</time>
      </trkpt>
      <trkpt lat="40.6412180" lon="-4.0322390">
        <ele>885.0</ele>
        <time>2019-04-28T09:52:54Z</time>
      </trkpt>
      <trkpt lat="40.6412430" lon="-4.0322690">
        <ele>885.0</ele>
        <time>2019-04-28T09:52:55Z</time>
      </trkpt>
      <trkpt lat="40.6412700" lon="-4.0323000">
        <ele>885.0</ele>
        <time>2019-04-28T09:52:56Z</time>
      </trkpt>
      <trkpt lat="40.6412990" lon="-4.0323370">
        <ele>885.0</ele>
        <time>2019-04-28T09:52:57Z</time>
      </trkpt>
      <trkpt lat="40.6413250" lon="-4.0323810">
        <ele>885.0</ele>
        <time>2019-04-28T09:52:58Z</time>
      </trkpt>
      <trkpt lat="40.6413520" lon="-4.0324360">
        <ele>885.2</ele>
        <time>2019-04-28T09:52:59Z</time>
      </trkpt>
      <trkpt lat="40.6413750" lon="-4.0324980">
        <ele>885.2</ele>
        <time>2019-04-28T09:53:00Z</time>
      </trkpt>
      <trkpt lat="40.6413910" lon="-4.0325720">
        <ele>885.2</ele>
        <time>2019-04-28T09:53:01Z</time>
      </trkpt>
      <trkpt lat="40.6413970" lon="-4.0326540">
        <ele>885.4</ele>
        <time>2019-04-28T09:53:02Z</time>
      </trkpt>
      <trkpt lat="40.6413970" lon="-4.0327370">
        <ele>885.6</ele>
        <time>2019-04-28T09:53:03Z</time>
      </trkpt>
      <trkpt lat="40.6413910" lon="-4.0328190">
        <ele>885.8</ele>
        <time>2019-04-28T09:53:04Z</time>
      </trkpt>
      <trkpt lat="40.6413730" lon="-4.0328950">
        <ele>886.0</ele>
        <time>2019-04-28T09:53:05Z</time>
      </trkpt>
      <trkpt lat="40.6413490" lon="-4.0329650">
        <ele>886.6</ele>
        <time>2019-04-28T09:53:06Z</time>
      </trkpt>
      <trkpt lat="40.6413190" lon="-4.0330310">
        <ele>887.0</ele>
        <time>2019-04-28T09:53:07Z</time>
      </trkpt>
      <trkpt lat="40.6412840" lon="-4.0330910">
        <ele>887.2</ele>
        <time>2019-04-28T09:53:08Z</time>
      </trkpt>
      <trkpt lat="40.6412420" lon="-4.0331440">
        <ele>887.4</ele>
        <time>2019-04-28T09:53:09Z</time>
      </trkpt>
      <trkpt lat="40.6411930" lon="-4.0331900">
        <ele>887.6</ele>
        <time>2019-04-28T09:53:10Z</time>
      </trkpt>
      <trkpt lat="40.6411400" lon="-4.0332290">
        <ele>887.8</ele>
        <time>2019-04-28T09:53:11Z</time>
      </trkpt>
      <trkpt lat="40.6410820" lon="-4.0332540">
        <ele>888.0</ele>
        <time>2019-04-28T09:53:12Z</time>
      </trkpt>
      <trkpt lat="40.6410230" lon="-4.0332670">
        <ele>888.4</ele>
        <time>2019-04-28T09:53:13Z</time>
      </trkpt>
      <trkpt lat="40.6409630" lon="-4.0332690">
        <ele>888.4</ele>
        <time>2019-04-28T09:53:14Z</time>
      </trkpt>
      <trkpt lat="40.6409000" lon="-4.0332580">
        <ele>888.2</ele>
        <time>2019-04-28T09:53:15Z</time>
      </trkpt>
      <trkpt lat="40.6408400" lon="-4.0332350">
        <ele>888.2</ele>
        <time>2019-04-28T09:53:16Z</time>
      </trkpt>
      <trkpt lat="40.6407810" lon="-4.0332000">
        <ele>888.0</ele>
        <time>2019-04-28T09:53:17Z</time>
      </trkpt>
      <trkpt lat="40.6407250" lon="-4.0331490">
        <ele>887.8</ele>
        <time>2019-04-28T09:53:18Z</time>
      </trkpt>
      <trkpt lat="40.6406750" lon="-4.0330850">
        <ele>887.6</ele>
        <time>2019-04-28T09:53:19Z</time>
      </trkpt>
      <trkpt lat="40.6406300" lon="-4.0330080">
        <ele>887.2</ele>
        <time>2019-04-28T09:53:20Z</time>
      </trkpt>
      <trkpt lat="40.6405950" lon="-4.0329220">
        <ele>887.2</ele>
        <time>2019-04-28T09:53:21Z</time>
      </trkpt>
      <trkpt lat="40.6405740" lon="-4.0328270">
        <ele>887.4</ele>
        <time>2019-04-28T09:53:22Z</time>
      </trkpt>
      <trkpt lat="40.6405690" lon="-4.0327310">
        <ele>887.6</ele>
        <time>2019-04-28T09:53:23Z</time>
      </trkpt>
      <trkpt lat="40.6405770" lon="-4.0326400">
        <ele>887.6</ele>
        <time>2019-04-28T09:53:24Z</time>
      </trkpt>
      <trkpt lat="40.6405930" lon="-4.0325560">
        <ele>887.4</ele>
        <time>2019-04-28T09:53:25Z</time>
      </trkpt>
      <trkpt lat="40.6406130" lon="-4.0324780">
        <ele>887.4</ele>
        <time>2019-04-28T09:53:26Z</time>
      </trkpt>
      <trkpt lat="40.6406400" lon="-4.0324090">
        <ele>887.2</ele>
        <time>2019-04-28T09:53:27Z</time>
      </trkpt>
      <trkpt lat="40.6406750" lon="-4.0323510">
        <ele>886.8</ele>
        <time>2019-04-28T09:53:28Z</time>
      </trkpt>
      <trkpt lat="40.6407030" lon="-4.0323020">
        <ele>886.6</ele>
        <time>2019-04-28T09:53:29Z</time>
      </trkpt>
      <trkpt lat="40.6407170" lon="-4.0322570">
        <ele>886.2</ele>
        <time>2019-04-28T09:53:30Z</time>
      </trkpt>
      <trkpt lat="40.6407100" lon="-4.0322130">
        <ele>885.8</ele>
        <time>2019-04-28T09:53:31Z</time>
      </trkpt>
      <trkpt lat="40.6406870" lon="-4.0321830">
        <ele>885.6</ele>
        <time>2019-04-28T09:53:32Z</time>
      </trkpt>
      <trkpt lat="40.6406590" lon="-4.0321810">
        <ele>885.6</ele>
        <time>2019-04-28T09:53:33Z</time>
      </trkpt>
      <trkpt lat="40.6406350" lon="-4.0321930">
        <ele>885.6</ele>
        <time>2019-04-28T09:53:34Z</time>
      </trkpt>
      <trkpt lat="40.6406150" lon="-4.0322150">
        <ele>885.6</ele>
        <time>2019-04-28T09:53:35Z</time>
      </trkpt>
      <trkpt lat="40.6405900" lon="-4.0322430">
        <ele>885.6</ele>
        <time>2019-04-28T09:53:36Z</time>
      </trkpt>
      <trkpt lat="40.6405580" lon="-4.0322730">
        <ele>885.8</ele>
        <time>2019-04-28T09:53:37Z</time>
      </trkpt>
      <trkpt lat="40.6405130" lon="-4.0322900">
        <ele>886.0</ele>
        <time>2019-04-28T09:53:38Z</time>
      </trkpt>
      <trkpt lat="40.6404600" lon="-4.0322990">
        <ele>886.4</ele>
        <time>2019-04-28T09:53:39Z</time>
      </trkpt>
      <trkpt lat="40.6404050" lon="-4.0323000">
        <ele>886.8</ele>
        <time>2019-04-28T09:53:40Z</time>
      </trkpt>
      <trkpt lat="40.6403470" lon="-4.0322940">
        <ele>887.0</ele>
        <time>2019-04-28T09:53:41Z</time>
      </trkpt>
      <trkpt lat="40.6402920" lon="-4.0322780">
        <ele>887.0</ele>
        <time>2019-04-28T09:53:42Z</time>
      </trkpt>
      <trkpt lat="40.6402350" lon="-4.0322570">
        <ele>887.2</ele>
        <time>2019-04-28T09:53:43Z</time>
      </trkpt>
      <trkpt lat="40.6401830" lon="-4.0322240">
        <ele>887.4</ele>
        <time>2019-04-28T09:53:44Z</time>
      </trkpt>
      <trkpt lat="40.6401330" lon="-4.0321830">
        <ele>887.4</ele>
        <time>2019-04-28T09:53:45Z</time>
      </trkpt>
      <trkpt lat="40.6400850" lon="-4.0321380">
        <ele>887.4</ele>
        <time>2019-04-28T09:53:46Z</time>
      </trkpt>
      <trkpt lat="40.6400350" lon="-4.0321000">
        <ele>887.6</ele>
        <time>2019-04-28T09:53:47Z</time>
      </trkpt>
      <trkpt lat="40.6399850" lon="-4.0320670">
        <ele>887.6</ele>
        <time>2019-04-28T09:53:48Z</time>
      </trkpt>
      <trkpt lat="40.6399380" lon="-4.0320280">
        <ele>887.6</ele>
        <time>2019-04-28T09:53:49Z</time>
      </trkpt>
      <trkpt lat="40.6398940" lon="-4.0319860">
        <ele>887.6</ele>
        <time>2019-04-28T09:53:50Z</time>
      </trkpt>
      <trkpt lat="40.6398520" lon="-4.0319430">
        <ele>887.6</ele>
        <time>2019-04-28T09:53:51Z</time>
      </trkpt>
      <trkpt lat="40.6398100" lon="-4.0318990">
        <ele>887.8</ele>
        <time>2019-04-28T09:53:52Z</time>
      </trkpt>
      <trkpt lat="40.6397670" lon="-4.0318590">
        <ele>887.8</ele>
        <time>2019-04-28T09:53:53Z</time>
      </trkpt>
      <trkpt lat="40.6397220" lon="-4.0318210">
        <ele>887.8</ele>
        <time>2019-04-28T09:53:54Z</time>
      </trkpt>
      <trkpt lat="40.6396780" lon="-4.0317810">
        <ele>888.0</ele>
        <time>2019-04-28T09:53:55Z</time>
      </trkpt>
      <trkpt lat="40.6396370" lon="-4.0317430">
        <ele>888.0</ele>
        <time>2019-04-28T09:53:56Z</time>
      </trkpt>
      <trkpt lat="40.6395920" lon="-4.0317100">
        <ele>888.0</ele>
        <time>2019-04-28T09:53:57Z</time>
      </trkpt>
      <trkpt lat="40.6395490" lon="-4.0316790">
        <ele>888.2</ele>
        <time>2019-04-28T09:53:58Z</time>
      </trkpt>
      <trkpt lat="40.6395100" lon="-4.0316470">
        <ele>888.4</ele>
        <time>2019-04-28T09:53:59Z</time>
      </trkpt>
      <trkpt lat="40.6394720" lon="-4.0316200">
        <ele>888.2</ele>
        <time>2019-04-28T09:54:00Z</time>
      </trkpt>
      <trkpt lat="40.6394390" lon="-4.0315870">
        <ele>888.6</ele>
        <time>2019-04-28T09:54:01Z</time>
      </trkpt>
      <trkpt lat="40.6394060" lon="-4.0315520">
        <ele>888.6</ele>
        <time>2019-04-28T09:54:02Z</time>
      </trkpt>
      <trkpt lat="40.6393710" lon="-4.0315150">
        <ele>888.8</ele>
        <time>2019-04-28T09:54:03Z</time>
      </trkpt>
      <trkpt lat="40.6393350" lon="-4.0314770">
        <ele>888.8</ele>
        <time>2019-04-28T09:54:04Z</time>
      </trkpt>
      <trkpt lat="40.6392940" lon="-4.0314420">
        <ele>889.0</ele>
        <time>2019-04-28T09:54:05Z</time>
      </trkpt>
      <trkpt lat="40.6392530" lon="-4.0314040">
        <ele>888.8</ele>
        <time>2019-04-28T09:54:06Z</time>
      </trkpt>
      <trkpt lat="40.6392170" lon="-4.0313570">
        <ele>888.8</ele>
        <time>2019-04-28T09:54:07Z</time>
      </trkpt>
      <trkpt lat="40.6391820" lon="-4.0313110">
        <ele>888.8</ele>
        <time>2019-04-28T09:54:08Z</time>
      </trkpt>
      <trkpt lat="40.6391440" lon="-4.0312640">
        <ele>888.8</ele>
        <time>2019-04-28T09:54:09Z</time>
      </trkpt>
      <trkpt lat="40.6391040" lon="-4.0312190">
        <ele>888.6</ele>
        <time>2019-04-28T09:54:10Z</time>
      </trkpt>
      <trkpt lat="40.6390630" lon="-4.0311830">
        <ele>888.6</ele>
        <time>2019-04-28T09:54:11Z</time>
      </trkpt>
      <trkpt lat="40.6390210" lon="-4.0311480">
        <ele>888.8</ele>
        <time>2019-04-28T09:54:12Z</time>
      </trkpt>
      <trkpt lat="40.6389770" lon="-4.0311150">
        <ele>888.8</ele>
        <time>2019-04-28T09:54:13Z</time>
      </trkpt>
      <trkpt lat="40.6389280" lon="-4.0310890">
        <ele>888.8</ele>
        <time>2019-04-28T09:54:14Z</time>
      </trkpt>
      <trkpt lat="40.6388800" lon="-4.0310690">
        <ele>888.8</ele>
        <time>2019-04-28T09:54:15Z</time>
      </trkpt>
      <trkpt lat="40.6388290" lon="-4.0310440">
        <ele>889.0</ele>
        <time>2019-04-28T09:54:16Z</time>
      </trkpt>
      <trkpt lat="40.6387770" lon="-4.0310190">
        <ele>889.0</ele>
        <time>2019-04-28T09:54:17Z</time>
      </trkpt>
      <trkpt lat="40.6387230" lon="-4.0310060">
        <ele>889.0</ele>
        <time>2019-04-28T09:54:18Z</time>
      </trkpt>
      <trkpt lat="40.6386700" lon="-4.0310040">
        <ele>889.0</ele>
        <time>2019-04-28T09:54:19Z</time>
      </trkpt>
      <trkpt lat="40.6386180" lon="-4.0310030">
        <ele>889.2</ele>
        <time>2019-04-28T09:54:20Z</time>
      </trkpt>
      <trkpt lat="40.6385640" lon="-4.0310080">
        <ele>889.2</ele>
        <time>2019-04-28T09:54:21Z</time>
      </trkpt>
      <trkpt lat="40.6385120" lon="-4.0310110">
        <ele>889.4</ele>
        <time>2019-04-28T09:54:22Z</time>
      </trkpt>
      <trkpt lat="40.6384590" lon="-4.0310080">
        <ele>889.4</ele>
        <time>2019-04-28T09:54:23Z</time>
      </trkpt>
      <trkpt lat="40.6384060" lon="-4.0310020">
        <ele>889.6</ele>
        <time>2019-04-28T09:54:24Z</time>
      </trkpt>
      <trkpt lat="40.6383550" lon="-4.0309890">
        <ele>889.6</ele>
        <time>2019-04-28T09:54:25Z</time>
      </trkpt>
      <trkpt lat="40.6383020" lon="-4.0309720">
        <ele>889.6</ele>
        <time>2019-04-28T09:54:26Z</time>
      </trkpt>
      <trkpt lat="40.6382470" lon="-4.0309590">
        <ele>889.6</ele>
        <time>2019-04-28T09:54:27Z</time>
      </trkpt>
      <trkpt lat="40.6381920" lon="-4.0309440">
        <ele>889.4</ele>
        <time>2019-04-28T09:54:28Z</time>
      </trkpt>
      <trkpt lat="40.6381370" lon="-4.0309300">
        <ele>889.4</ele>
        <time>2019-04-28T09:54:29Z</time>
      </trkpt>
      <trkpt lat="40.6380820" lon="-4.0309110">
        <ele>889.2</ele>
        <time>2019-04-28T09:54:30Z</time>
      </trkpt>
      <trkpt lat="40.6380290" lon="-4.0308870">
        <ele>889.2</ele>
        <time>2019-04-28T09:54:31Z</time>
      </trkpt>
      <trkpt lat="40.6379760" lon="-4.0308590">
        <ele>889.2</ele>
        <time>2019-04-28T09:54:32Z</time>
      </trkpt>
      <trkpt lat="40.6379210" lon="-4.0308340">
        <ele>888.8</ele>
        <time>2019-04-28T09:54:33Z</time>
      </trkpt>
      <trkpt lat="40.6378640" lon="-4.0308190">
        <ele>888.8</ele>
        <time>2019-04-28T09:54:34Z</time>
      </trkpt>
      <trkpt lat="40.6378060" lon="-4.0308070">
        <ele>888.8</ele>
        <time>2019-04-28T09:54:35Z</time>
      </trkpt>
      <trkpt lat="40.6377490" lon="-4.0307930">
        <ele>888.8</ele>
        <time>2019-04-28T09:54:36Z</time>
      </trkpt>
      <trkpt lat="40.6376920" lon="-4.0307800">
        <ele>888.8</ele>
        <time>2019-04-28T09:54:37Z</time>
      </trkpt>
      <trkpt lat="40.6376350" lon="-4.0307630">
        <ele>889.0</ele>
        <time>2019-04-28T09:54:38Z</time>
      </trkpt>
      <trkpt lat="40.6375780" lon="-4.0307470">
        <ele>888.8</ele>
        <time>2019-04-28T09:54:39Z</time>
      </trkpt>
      <trkpt lat="40.6375220" lon="-4.0307320">
        <ele>888.8</ele>
        <time>2019-04-28T09:54:40Z</time>
      </trkpt>
      <trkpt lat="40.6374660" lon="-4.0307140">
        <ele>889.0</ele>
        <time>2019-04-28T09:54:41Z</time>
      </trkpt>
      <trkpt lat="40.6374110" lon="-4.0306980">
        <ele>889.0</ele>
        <time>2019-04-28T09:54:42Z</time>
      </trkpt>
      <trkpt lat="40.6373550" lon="-4.0306780">
        <ele>889.2</ele>
        <time>2019-04-28T09:54:43Z</time>
      </trkpt>
      <trkpt lat="40.6373000" lon="-4.0306510">
        <ele>889.2</ele>
        <time>2019-04-28T09:54:44Z</time>
      </trkpt>
      <trkpt lat="40.6372480" lon="-4.0306220">
        <ele>889.4</ele>
        <time>2019-04-28T09:54:45Z</time>
      </trkpt>
      <trkpt lat="40.6371990" lon="-4.0305930">
        <ele>889.8</ele>
        <time>2019-04-28T09:54:46Z</time>
      </trkpt>
      <trkpt lat="40.6371530" lon="-4.0305710">
        <ele>890.0</ele>
        <time>2019-04-28T09:54:47Z</time>
      </trkpt>
      <trkpt lat="40.6371080" lon="-4.0305510">
        <ele>890.2</ele>
        <time>2019-04-28T09:54:48Z</time>
      </trkpt>
      <trkpt lat="40.6370630" lon="-4.0305320">
        <ele>890.4</ele>
        <time>2019-04-28T09:54:49Z</time>
      </trkpt>
      <trkpt lat="40.6370180" lon="-4.0305140">
        <ele>890.6</ele>
        <time>2019-04-28T09:54:50Z</time>
      </trkpt>
      <trkpt lat="40.6369720" lon="-4.0304930">
        <ele>890.6</ele>
        <time>2019-04-28T09:54:51Z</time>
      </trkpt>
      <trkpt lat="40.6369270" lon="-4.0304670">
        <ele>890.6</ele>
        <time>2019-04-28T09:54:52Z</time>
      </trkpt>
      <trkpt lat="40.6368810" lon="-4.0304410">
        <ele>890.8</ele>
        <time>2019-04-28T09:54:53Z</time>
      </trkpt>
      <trkpt lat="40.6368290" lon="-4.0304230">
        <ele>890.6</ele>
        <time>2019-04-28T09:54:54Z</time>
      </trkpt>
      <trkpt lat="40.6367730" lon="-4.0304170">
        <ele>890.6</ele>
        <time>2019-04-28T09:54:55Z</time>
      </trkpt>
      <trkpt lat="40.6367150" lon="-4.0304120">
        <ele>890.2</ele>
        <time>2019-04-28T09:54:56Z</time>
      </trkpt>
      <trkpt lat="40.6366530" lon="-4.0304000">
        <ele>890.0</ele>
        <time>2019-04-28T09:54:57Z</time>
      </trkpt>
      <trkpt lat="40.6365910" lon="-4.0303880">
        <ele>889.8</ele>
        <time>2019-04-28T09:54:58Z</time>
      </trkpt>
      <trkpt lat="40.6365260" lon="-4.0303780">
        <ele>889.6</ele>
        <time>2019-04-28T09:54:59Z</time>
      </trkpt>
      <trkpt lat="40.6364620" lon="-4.0303690">
        <ele>889.6</ele>
        <time>2019-04-28T09:55:00Z</time>
      </trkpt>
      <trkpt lat="40.6363990" lon="-4.0303630">
        <ele>889.4</ele>
        <time>2019-04-28T09:55:01Z</time>
      </trkpt>
      <trkpt lat="40.6363370" lon="-4.0303640">
        <ele>889.2</ele>
        <time>2019-04-28T09:55:02Z</time>
      </trkpt>
      <trkpt lat="40.6362790" lon="-4.0303730">
        <ele>889.0</ele>
        <time>2019-04-28T09:55:03Z</time>
      </trkpt>
      <trkpt lat="40.6362200" lon="-4.0303720">
        <ele>889.0</ele>
        <time>2019-04-28T09:55:04Z</time>
      </trkpt>
      <trkpt lat="40.6361640" lon="-4.0303570">
        <ele>889.0</ele>
        <time>2019-04-28T09:55:05Z</time>
      </trkpt>
      <trkpt lat="40.6361080" lon="-4.0303350">
        <ele>889.0</ele>
        <time>2019-04-28T09:55:06Z</time>
      </trkpt>
      <trkpt lat="40.6360460" lon="-4.0303130">
        <ele>889.0</ele>
        <time>2019-04-28T09:55:07Z</time>
      </trkpt>
      <trkpt lat="40.6359800" lon="-4.0302900">
        <ele>888.8</ele>
        <time>2019-04-28T09:55:08Z</time>
      </trkpt>
      <trkpt lat="40.6359120" lon="-4.0302670">
        <ele>888.8</ele>
        <time>2019-04-28T09:55:09Z</time>
      </trkpt>
      <trkpt lat="40.6358420" lon="-4.0302440">
        <ele>888.8</ele>
        <time>2019-04-28T09:55:10Z</time>
      </trkpt>
      <trkpt lat="40.6357720" lon="-4.0302200">
        <ele>888.8</ele>
        <time>2019-04-28T09:55:11Z</time>
      </trkpt>
      <trkpt lat="40.6357040" lon="-4.0301890">
        <ele>888.8</ele>
        <time>2019-04-28T09:55:12Z</time>
      </trkpt>
      <trkpt lat="40.6356340" lon="-4.0301570">
        <ele>888.6</ele>
        <time>2019-04-28T09:55:13Z</time>
      </trkpt>
      <trkpt lat="40.6355640" lon="-4.0301270">
        <ele>888.6</ele>
        <time>2019-04-28T09:55:14Z</time>
      </trkpt>
      <trkpt lat="40.6354940" lon="-4.0300990">
        <ele>888.6</ele>
        <time>2019-04-28T09:55:15Z</time>
      </trkpt>
      <trkpt lat="40.6354230" lon="-4.0300730">
        <ele>888.6</ele>
        <time>2019-04-28T09:55:16Z</time>
      </trkpt>
      <trkpt lat="40.6353530" lon="-4.0300470">
        <ele>888.4</ele>
        <time>2019-04-28T09:55:17Z</time>
      </trkpt>
      <trkpt lat="40.6352830" lon="-4.0300210">
        <ele>888.4</ele>
        <time>2019-04-28T09:55:18Z</time>
      </trkpt>
      <trkpt lat="40.6352130" lon="-4.0299960">
        <ele>888.4</ele>
        <time>2019-04-28T09:55:19Z</time>
      </trkpt>
      <trkpt lat="40.6351440" lon="-4.0299720">
        <ele>888.6</ele>
        <time>2019-04-28T09:55:20Z</time>
      </trkpt>
      <trkpt lat="40.6350740" lon="-4.0299460">
        <ele>888.8</ele>
        <time>2019-04-28T09:55:21Z</time>
      </trkpt>
      <trkpt lat="40.6350050" lon="-4.0299210">
        <ele>888.6</ele>
        <time>2019-04-28T09:55:22Z</time>
      </trkpt>
      <trkpt lat="40.6349370" lon="-4.0299010">
        <ele>888.6</ele>
        <time>2019-04-28T09:55:23Z</time>
      </trkpt>
      <trkpt lat="40.6348670" lon="-4.0298870">
        <ele>888.4</ele>
        <time>2019-04-28T09:55:24Z</time>
      </trkpt>
      <trkpt lat="40.6347960" lon="-4.0298840">
        <ele>888.4</ele>
        <time>2019-04-28T09:55:25Z</time>
      </trkpt>
      <trkpt lat="40.6347270" lon="-4.0298820">
        <ele>888.2</ele>
        <time>2019-04-28T09:55:26Z</time>
      </trkpt>
      <trkpt lat="40.6346570" lon="-4.0298760">
        <ele>888.2</ele>
        <time>2019-04-28T09:55:27Z</time>
      </trkpt>
      <trkpt lat="40.6345860" lon="-4.0298650">
        <ele>888.2</ele>
        <time>2019-04-28T09:55:28Z</time>
      </trkpt>
      <trkpt lat="40.6345160" lon="-4.0298510">
        <ele>888.4</ele>
        <time>2019-04-28T09:55:29Z</time>
      </trkpt>
      <trkpt lat="40.6344480" lon="-4.0298330">
        <ele>888.4</ele>
        <time>2019-04-28T09:55:30Z</time>
      </trkpt>
      <trkpt lat="40.6343810" lon="-4.0298120">
        <ele>888.4</ele>
        <time>2019-04-28T09:55:31Z</time>
      </trkpt>
      <trkpt lat="40.6343170" lon="-4.0297960">
        <ele>888.2</ele>
        <time>2019-04-28T09:55:32Z</time>
      </trkpt>
      <trkpt lat="40.6342540" lon="-4.0297830">
        <ele>888.2</ele>
        <time>2019-04-28T09:55:33Z</time>
      </trkpt>
      <trkpt lat="40.6341940" lon="-4.0297720">
        <ele>888.2</ele>
        <time>2019-04-28T09:55:34Z</time>
      </trkpt>
      <trkpt lat="40.6341350" lon="-4.0297570">
        <ele>888.2</ele>
        <time>2019-04-28T09:55:35Z</time>
      </trkpt>
      <trkpt lat="40.6340780" lon="-4.0297410">
        <ele>888.2</ele>
        <time>2019-04-28T09:55:36Z</time>
      </trkpt>
      <trkpt lat="40.6340200" lon="-4.0297260">
        <ele>888.0</ele>
        <time>2019-04-28T09:55:37Z</time>
      </trkpt>
      <trkpt lat="40.6339590" lon="-4.0297100">
        <ele>887.6</ele>
        <time>2019-04-28T09:55:38Z</time>
      </trkpt>
      <trkpt lat="40.6338950" lon="-4.0296920">
        <ele>887.4</ele>
        <time>2019-04-28T09:55:39Z</time>
      </trkpt>
      <trkpt lat="40.6338290" lon="-4.0296760">
        <ele>887.2</ele>
        <time>2019-04-28T09:55:40Z</time>
      </trkpt>
      <trkpt lat="40.6337600" lon="-4.0296600">
        <ele>886.8</ele>
        <time>2019-04-28T09:55:41Z</time>
      </trkpt>
      <trkpt lat="40.6336910" lon="-4.0296420">
        <ele>886.8</ele>
        <time>2019-04-28T09:55:42Z</time>
      </trkpt>
      <trkpt lat="40.6336200" lon="-4.0296240">
        <ele>886.6</ele>
        <time>2019-04-28T09:55:43Z</time>
      </trkpt>
      <trkpt lat="40.6335510" lon="-4.0296070">
        <ele>886.4</ele>
        <time>2019-04-28T09:55:44Z</time>
      </trkpt>
      <trkpt lat="40.6334830" lon="-4.0295910">
        <ele>886.2</ele>
        <time>2019-04-28T09:55:45Z</time>
      </trkpt>
      <trkpt lat="40.6334140" lon="-4.0295770">
        <ele>886.2</ele>
        <time>2019-04-28T09:55:46Z</time>
      </trkpt>
      <trkpt lat="40.6333450" lon="-4.0295690">
        <ele>886.0</ele>
        <time>2019-04-28T09:55:47Z</time>
      </trkpt>
      <trkpt lat="40.6332740" lon="-4.0295630">
        <ele>885.8</ele>
        <time>2019-04-28T09:55:48Z</time>
      </trkpt>
      <trkpt lat="40.6332020" lon="-4.0295580">
        <ele>885.6</ele>
        <time>2019-04-28T09:55:49Z</time>
      </trkpt>
      <trkpt lat="40.6331290" lon="-4.0295500">
        <ele>885.4</ele>
        <time>2019-04-28T09:55:50Z</time>
      </trkpt>
      <trkpt lat="40.6330560" lon="-4.0295420">
        <ele>885.2</ele>
        <time>2019-04-28T09:55:51Z</time>
      </trkpt>
      <trkpt lat="40.6329820" lon="-4.0295260">
        <ele>885.0</ele>
        <time>2019-04-28T09:55:52Z</time>
      </trkpt>
      <trkpt lat="40.6329080" lon="-4.0295170">
        <ele>884.6</ele>
        <time>2019-04-28T09:55:53Z</time>
      </trkpt>
      <trkpt lat="40.6328320" lon="-4.0295060">
        <ele>884.2</ele>
        <time>2019-04-28T09:55:54Z</time>
      </trkpt>
      <trkpt lat="40.6327570" lon="-4.0294920">
        <ele>883.8</ele>
        <time>2019-04-28T09:55:55Z</time>
      </trkpt>
      <trkpt lat="40.6326820" lon="-4.0294710">
        <ele>883.6</ele>
        <time>2019-04-28T09:55:56Z</time>
      </trkpt>
      <trkpt lat="40.6326060" lon="-4.0294510">
        <ele>883.6</ele>
        <time>2019-04-28T09:55:57Z</time>
      </trkpt>
      <trkpt lat="40.6325280" lon="-4.0294300">
        <ele>883.4</ele>
        <time>2019-04-28T09:55:58Z</time>
      </trkpt>
      <trkpt lat="40.6324500" lon="-4.0294100">
        <ele>883.4</ele>
        <time>2019-04-28T09:55:59Z</time>
      </trkpt>
      <trkpt lat="40.6323720" lon="-4.0293940">
        <ele>883.2</ele>
        <time>2019-04-28T09:56:00Z</time>
      </trkpt>
      <trkpt lat="40.6322940" lon="-4.0293820">
        <ele>883.2</ele>
        <time>2019-04-28T09:56:01Z</time>
      </trkpt>
      <trkpt lat="40.6322160" lon="-4.0293690">
        <ele>883.2</ele>
        <time>2019-04-28T09:56:02Z</time>
      </trkpt>
      <trkpt lat="40.6321400" lon="-4.0293580">
        <ele>882.8</ele>
        <time>2019-04-28T09:56:03Z</time>
      </trkpt>
      <trkpt lat="40.6320640" lon="-4.0293480">
        <ele>882.8</ele>
        <time>2019-04-28T09:56:04Z</time>
      </trkpt>
      <trkpt lat="40.6319890" lon="-4.0293380">
        <ele>883.0</ele>
        <time>2019-04-28T09:56:05Z</time>
      </trkpt>
      <trkpt lat="40.6319150" lon="-4.0293310">
        <ele>883.0</ele>
        <time>2019-04-28T09:56:06Z</time>
      </trkpt>
      <trkpt lat="40.6318430" lon="-4.0293260">
        <ele>883.2</ele>
        <time>2019-04-28T09:56:07Z</time>
      </trkpt>
      <trkpt lat="40.6317720" lon="-4.0293220">
        <ele>883.0</ele>
        <time>2019-04-28T09:56:08Z</time>
      </trkpt>
      <trkpt lat="40.6317030" lon="-4.0293200">
        <ele>882.4</ele>
        <time>2019-04-28T09:56:09Z</time>
      </trkpt>
      <trkpt lat="40.6316370" lon="-4.0293130">
        <ele>882.0</ele>
        <time>2019-04-28T09:56:10Z</time>
      </trkpt>
      <trkpt lat="40.6315740" lon="-4.0292970">
        <ele>882.2</ele>
        <time>2019-04-28T09:56:11Z</time>
      </trkpt>
      <trkpt lat="40.6315100" lon="-4.0292790">
        <ele>882.2</ele>
        <time>2019-04-28T09:56:12Z</time>
      </trkpt>
      <trkpt lat="40.6314450" lon="-4.0292670">
        <ele>882.2</ele>
        <time>2019-04-28T09:56:13Z</time>
      </trkpt>
      <trkpt lat="40.6313800" lon="-4.0292580">
        <ele>882.2</ele>
        <time>2019-04-28T09:56:14Z</time>
      </trkpt>
      <trkpt lat="40.6313170" lon="-4.0292440">
        <ele>882.0</ele>
        <time>2019-04-28T09:56:15Z</time>
      </trkpt>
      <trkpt lat="40.6312560" lon="-4.0292240">
        <ele>882.0</ele>
        <time>2019-04-28T09:56:16Z</time>
      </trkpt>
      <trkpt lat="40.6312000" lon="-4.0292000">
        <ele>881.8</ele>
        <time>2019-04-28T09:56:17Z</time>
      </trkpt>
      <trkpt lat="40.6311540" lon="-4.0291760">
        <ele>881.8</ele>
        <time>2019-04-28T09:56:18Z</time>
      </trkpt>
      <trkpt lat="40.6311180" lon="-4.0291590">
        <ele>881.8</ele>
        <time>2019-04-28T09:56:19Z</time>
      </trkpt>
      <trkpt lat="40.6310890" lon="-4.0291480">
        <ele>882.0</ele>
        <time>2019-04-28T09:56:20Z</time>
      </trkpt>
      <trkpt lat="40.6310600" lon="-4.0291430">
        <ele>882.0</ele>
        <time>2019-04-28T09:56:21Z</time>
      </trkpt>
      <trkpt lat="40.6310300" lon="-4.0291390">
        <ele>882.0</ele>
        <time>2019-04-28T09:56:22Z</time>
      </trkpt>
      <trkpt lat="40.6309990" lon="-4.0291340">
        <ele>882.0</ele>
        <time>2019-04-28T09:56:23Z</time>
      </trkpt>
      <trkpt lat="40.6309630" lon="-4.0291290">
        <ele>882.0</ele>
        <time>2019-04-28T09:56:24Z</time>
      </trkpt>
      <trkpt lat="40.6309250" lon="-4.0291180">
        <ele>881.8</ele>
        <time>2019-04-28T09:56:25Z</time>
      </trkpt>
      <trkpt lat="40.6308850" lon="-4.0291040">
        <ele>881.8</ele>
        <time>2019-04-28T09:56:26Z</time>
      </trkpt>
      <trkpt lat="40.6308410" lon="-4.0290900">
        <ele>881.8</ele>
        <time>2019-04-28T09:56:27Z</time>
      </trkpt>
      <trkpt lat="40.6307960" lon="-4.0290770">
        <ele>882.0</ele>
        <time>2019-04-28T09:56:28Z</time>
      </trkpt>
      <trkpt lat="40.6307550" lon="-4.0290600">
        <ele>881.8</ele>
        <time>2019-04-28T09:56:29Z</time>
      </trkpt>
      <trkpt lat="40.6307160" lon="-4.0290430">
        <ele>881.6</ele>
        <time>2019-04-28T09:56:30Z</time>
      </trkpt>
      <trkpt lat="40.6306790" lon="-4.0290250">
        <ele>881.2</ele>
        <time>2019-04-28T09:56:31Z</time>
      </trkpt>
      <trkpt lat="40.6306390" lon="-4.0290110">
        <ele>881.2</ele>
        <time>2019-04-28T09:56:32Z</time>
      </trkpt>
      <trkpt lat="40.6306010" lon="-4.0290070">
        <ele>881.2</ele>
        <time>2019-04-28T09:56:33Z</time>
      </trkpt>
      <trkpt lat="40.6305680" lon="-4.0290130">
        <ele>881.2</ele>
        <time>2019-04-28T09:56:34Z</time>
      </trkpt>
      <trkpt lat="40.6305440" lon="-4.0290230">
        <ele>881.0</ele>
        <time>2019-04-28T09:56:35Z</time>
      </trkpt>
      <trkpt lat="40.6305270" lon="-4.0290440">
        <ele>881.0</ele>
        <time>2019-04-28T09:56:36Z</time>
      </trkpt>
      <trkpt lat="40.6305130" lon="-4.0290650">
        <ele>881.0</ele>
        <time>2019-04-28T09:56:37Z</time>
      </trkpt>
      <trkpt lat="40.6305050" lon="-4.0290850">
        <ele>881.0</ele>
        <time>2019-04-28T09:56:38Z</time>
      </trkpt>
      <trkpt lat="40.6304970" lon="-4.0291050">
        <ele>881.0</ele>
        <time>2019-04-28T09:56:39Z</time>
      </trkpt>
      <trkpt lat="40.6304910" lon="-4.0291300">
        <ele>880.8</ele>
        <time>2019-04-28T09:56:40Z</time>
      </trkpt>
      <trkpt lat="40.6304880" lon="-4.0291550">
        <ele>881.0</ele>
        <time>2019-04-28T09:56:41Z</time>
      </trkpt>
      <trkpt lat="40.6304890" lon="-4.0291780">
        <ele>881.0</ele>
        <time>2019-04-28T09:56:42Z</time>
      </trkpt>
      <trkpt lat="40.6304890" lon="-4.0292040">
        <ele>881.0</ele>
        <time>2019-04-28T09:56:43Z</time>
      </trkpt>
      <trkpt lat="40.6304950" lon="-4.0292280">
        <ele>881.2</ele>
        <time>2019-04-28T09:56:44Z</time>
      </trkpt>
      <trkpt lat="40.6305030" lon="-4.0292510">
        <ele>881.4</ele>
        <time>2019-04-28T09:56:45Z</time>
      </trkpt>
      <trkpt lat="40.6305180" lon="-4.0292670">
        <ele>881.4</ele>
        <time>2019-04-28T09:56:46Z</time>
      </trkpt>
      <trkpt lat="40.6305370" lon="-4.0292770">
        <ele>881.4</ele>
        <time>2019-04-28T09:56:47Z</time>
      </trkpt>
      <trkpt lat="40.6305580" lon="-4.0292890">
        <ele>881.2</ele>
        <time>2019-04-28T09:56:48Z</time>
      </trkpt>
      <trkpt lat="40.6305830" lon="-4.0292960">
        <ele>881.4</ele>
        <time>2019-04-28T09:56:49Z</time>
      </trkpt>
      <trkpt lat="40.6306070" lon="-4.0293070">
        <ele>881.4</ele>
        <time>2019-04-28T09:56:50Z</time>
      </trkpt>
      <trkpt lat="40.6306240" lon="-4.0293260">
        <ele>881.6</ele>
        <time>2019-04-28T09:56:51Z</time>
      </trkpt>
      <trkpt lat="40.6306300" lon="-4.0293490">
        <ele>881.6</ele>
        <time>2019-04-28T09:56:52Z</time>
      </trkpt>
      <trkpt lat="40.6306270" lon="-4.0293700">
        <ele>881.6</ele>
        <time>2019-04-28T09:56:53Z</time>
      </trkpt>
      <trkpt lat="40.6306160" lon="-4.0293890">
        <ele>881.6</ele>
        <time>2019-04-28T09:56:54Z</time>
      </trkpt>
      <trkpt lat="40.6306050" lon="-4.0294010">
        <ele>881.6</ele>
        <time>2019-04-28T09:56:55Z</time>
      </trkpt>
      <trkpt lat="40.6305990" lon="-4.0294030">
        <ele>881.8</ele>
        <time>2019-04-28T09:56:56Z</time>
      </trkpt>
      <trkpt lat="40.6305990" lon="-4.0294030">
        <ele>881.6</ele>
        <time>2019-04-28T09:56:57Z</time>
      </trkpt>
      <trkpt lat="40.6305990" lon="-4.0294020">
        <ele>881.6</ele>
        <time>2019-04-28T09:56:58Z</time>
      </trkpt>
      <trkpt lat="40.6305990" lon="-4.0294020">
        <ele>881.6</ele>
        <time>2019-04-28T09:56:59Z</time>
      </trkpt>
      <trkpt lat="40.6305990" lon="-4.0294010">
        <ele>881.6</ele>
        <time>2019-04-28T09:57:00Z</time>
      </trkpt>
      <trkpt lat="40.6305990" lon="-4.0294010">
        <ele>881.6</ele>
        <time>2019-04-28T09:57:01Z</time>
      </trkpt>
      <trkpt lat="40.6305950" lon="-4.0294060">
        <ele>881.6</ele>
        <time>2019-04-28T09:57:02Z</time>
      </trkpt>
      <trkpt lat="40.6305940" lon="-4.0294070">
        <ele>881.6</ele>
        <time>2019-04-28T09:57:03Z</time>
      </trkpt>
      <trkpt lat="40.6305910" lon="-4.0294110">
        <ele>881.6</ele>
        <time>2019-04-28T09:57:04Z</time>
      </trkpt>
      <trkpt lat="40.6305820" lon="-4.0294180">
        <ele>881.6</ele>
        <time>2019-04-28T09:57:05Z</time>
      </trkpt>
      <trkpt lat="40.6304940" lon="-4.0294570">
        <ele>881.6</ele>
        <time>2019-04-28T09:57:13Z</time>
      </trkpt>
      <trkpt lat="40.6304940" lon="-4.0294560">
        <ele>881.6</ele>
        <time>2019-04-28T09:57:14Z</time>
      </trkpt>
      <trkpt lat="40.6304930" lon="-4.0294570">
        <ele>881.6</ele>
        <time>2019-04-28T09:57:15Z</time>
      </trkpt>
      <trkpt lat="40.6304930" lon="-4.0294570">
        <ele>881.6</ele>
        <time>2019-04-28T09:57:16Z</time>
      </trkpt>
      <trkpt lat="40.6304920" lon="-4.0294560">
        <ele>881.6</ele>
        <time>2019-04-28T09:57:17Z</time>
      </trkpt>
      <trkpt lat="40.6304920" lon="-4.0294560">
        <ele>881.6</ele>
        <time>2019-04-28T09:57:18Z</time>
      </trkpt>
      <trkpt lat="40.6306380" lon="-4.0293790">
        <ele>882.0</ele>
        <time>2019-04-28T09:57:36Z</time>
      </trkpt>
      <trkpt lat="40.6306440" lon="-4.0293620">
        <ele>882.0</ele>
        <time>2019-04-28T09:57:37Z</time>
      </trkpt>
      <trkpt lat="40.6306460" lon="-4.0293430">
        <ele>882.0</ele>
        <time>2019-04-28T09:57:38Z</time>
      </trkpt>
      <trkpt lat="40.6306490" lon="-4.0293260">
        <ele>882.0</ele>
        <time>2019-04-28T09:57:39Z</time>
      </trkpt>
      <trkpt lat="40.6306510" lon="-4.0293080">
        <ele>881.8</ele>
        <time>2019-04-28T09:57:40Z</time>
      </trkpt>
      <trkpt lat="40.6306600" lon="-4.0292890">
        <ele>881.8</ele>
        <time>2019-04-28T09:57:41Z</time>
      </trkpt>
      <trkpt lat="40.6306770" lon="-4.0292730">
        <ele>882.0</ele>
        <time>2019-04-28T09:57:42Z</time>
      </trkpt>
      <trkpt lat="40.6307020" lon="-4.0292640">
        <ele>882.0</ele>
        <time>2019-04-28T09:57:43Z</time>
      </trkpt>
      <trkpt lat="40.6307270" lon="-4.0292510">
        <ele>881.8</ele>
        <time>2019-04-28T09:57:44Z</time>
      </trkpt>
      <trkpt lat="40.6307520" lon="-4.0292430">
        <ele>881.8</ele>
        <time>2019-04-28T09:57:45Z</time>
      </trkpt>
      <trkpt lat="40.6307800" lon="-4.0292430">
        <ele>881.8</ele>
        <time>2019-04-28T09:57:46Z</time>
      </trkpt>
      <trkpt lat="40.6308080" lon="-4.0292490">
        <ele>881.8</ele>
        <time>2019-04-28T09:57:47Z</time>
      </trkpt>
      <trkpt lat="40.6308330" lon="-4.0292640">
        <ele>882.0</ele>
        <time>2019-04-28T09:57:48Z</time>
      </trkpt>
      <trkpt lat="40.6308580" lon="-4.0292680">
        <ele>882.0</ele>
        <time>2019-04-28T09:57:49Z</time>
      </trkpt>
      <trkpt lat="40.6308830" lon="-4.0292550">
        <ele>882.0</ele>
        <time>2019-04-28T09:57:50Z</time>
      </trkpt>
      <trkpt lat="40.6308980" lon="-4.0292310">
        <ele>882.0</ele>
        <time>2019-04-28T09:57:51Z</time>
      </trkpt>
      <trkpt lat="40.6309060" lon="-4.0292050">
        <ele>882.2</ele>
        <time>2019-04-28T09:57:52Z</time>
      </trkpt>
      <trkpt lat="40.6309150" lon="-4.0291820">
        <ele>882.2</ele>
        <time>2019-04-28T09:57:53Z</time>
      </trkpt>
      <trkpt lat="40.6309190" lon="-4.0291570">
        <ele>882.2</ele>
        <time>2019-04-28T09:57:54Z</time>
      </trkpt>
      <trkpt lat="40.6309260" lon="-4.0291350">
        <ele>882.2</ele>
        <time>2019-04-28T09:57:55Z</time>
      </trkpt>
      <trkpt lat="40.6309410" lon="-4.0291220">
        <ele>882.2</ele>
        <time>2019-04-28T09:57:56Z</time>
      </trkpt>
      <trkpt lat="40.6309590" lon="-4.0291210">
        <ele>882.2</ele>
        <time>2019-04-28T09:57:57Z</time>
      </trkpt>
      <trkpt lat="40.6309730" lon="-4.0291300">
        <ele>882.2</ele>
        <time>2019-04-28T09:57:58Z</time>
      </trkpt>
      <trkpt lat="40.6309870" lon="-4.0291380">
        <ele>882.2</ele>
        <time>2019-04-28T09:57:59Z</time>
      </trkpt>
      <trkpt lat="40.6309980" lon="-4.0291460">
        <ele>882.2</ele>
        <time>2019-04-28T09:58:00Z</time>
      </trkpt>
      <trkpt lat="40.6310090" lon="-4.0291560">
        <ele>882.2</ele>
        <time>2019-04-28T09:58:01Z</time>
      </trkpt>
      <trkpt lat="40.6310170" lon="-4.0291770">
        <ele>882.2</ele>
        <time>2019-04-28T09:58:02Z</time>
      </trkpt>
      <trkpt lat="40.6310210" lon="-4.0292070">
        <ele>882.4</ele>
        <time>2019-04-28T09:58:03Z</time>
      </trkpt>
      <trkpt lat="40.6310190" lon="-4.0292430">
        <ele>882.4</ele>
        <time>2019-04-28T09:58:04Z</time>
      </trkpt>
      <trkpt lat="40.6310160" lon="-4.0292840">
        <ele>882.4</ele>
        <time>2019-04-28T09:58:05Z</time>
      </trkpt>
      <trkpt lat="40.6310080" lon="-4.0293270">
        <ele>882.4</ele>
        <time>2019-04-28T09:58:06Z</time>
      </trkpt>
      <trkpt lat="40.6309950" lon="-4.0293710">
        <ele>882.4</ele>
        <time>2019-04-28T09:58:07Z</time>
      </trkpt>
      <trkpt lat="40.6309770" lon="-4.0294140">
        <ele>882.6</ele>
        <time>2019-04-28T09:58:08Z</time>
      </trkpt>
      <trkpt lat="40.6309580" lon="-4.0294560">
        <ele>882.6</ele>
        <time>2019-04-28T09:58:09Z</time>
      </trkpt>
      <trkpt lat="40.6309350" lon="-4.0294940">
        <ele>882.6</ele>
        <time>2019-04-28T09:58:10Z</time>
      </trkpt>
      <trkpt lat="40.6309070" lon="-4.0295260">
        <ele>882.6</ele>
        <time>2019-04-28T09:58:11Z</time>
      </trkpt>
      <trkpt lat="40.6308800" lon="-4.0295480">
        <ele>882.8</ele>
        <time>2019-04-28T09:58:12Z</time>
      </trkpt>
      <trkpt lat="40.6308620" lon="-4.0295670">
        <ele>882.8</ele>
        <time>2019-04-28T09:58:13Z</time>
      </trkpt>
      <trkpt lat="40.6308520" lon="-4.0295850">
        <ele>882.6</ele>
        <time>2019-04-28T09:58:14Z</time>
      </trkpt>
      <trkpt lat="40.6308430" lon="-4.0296050">
        <ele>882.6</ele>
        <time>2019-04-28T09:58:15Z</time>
      </trkpt>
      <trkpt lat="40.6308240" lon="-4.0296290">
        <ele>882.4</ele>
        <time>2019-04-28T09:58:16Z</time>
      </trkpt>
      <trkpt lat="40.6307900" lon="-4.0296530">
        <ele>882.4</ele>
        <time>2019-04-28T09:58:17Z</time>
      </trkpt>
      <trkpt lat="40.6307430" lon="-4.0296640">
        <ele>882.4</ele>
        <time>2019-04-28T09:58:18Z</time>
      </trkpt>
      <trkpt lat="40.6306900" lon="-4.0296620">
        <ele>882.4</ele>
        <time>2019-04-28T09:58:19Z</time>
      </trkpt>
      <trkpt lat="40.6306320" lon="-4.0296580">
        <ele>882.4</ele>
        <time>2019-04-28T09:58:20Z</time>
      </trkpt>
      <trkpt lat="40.6305700" lon="-4.0296550">
        <ele>882.4</ele>
        <time>2019-04-28T09:58:21Z</time>
      </trkpt>
      <trkpt lat="40.6305040" lon="-4.0296540">
        <ele>882.4</ele>
        <time>2019-04-28T09:58:22Z</time>
      </trkpt>
      <trkpt lat="40.6304370" lon="-4.0296510">
        <ele>882.6</ele>
        <time>2019-04-28T09:58:23Z</time>
      </trkpt>
      <trkpt lat="40.6303670" lon="-4.0296520">
        <ele>882.6</ele>
        <time>2019-04-28T09:58:24Z</time>
      </trkpt>
      <trkpt lat="40.6302960" lon="-4.0296580">
        <ele>882.4</ele>
        <time>2019-04-28T09:58:25Z</time>
      </trkpt>
      <trkpt lat="40.6302240" lon="-4.0296630">
        <ele>882.4</ele>
        <time>2019-04-28T09:58:26Z</time>
      </trkpt>
      <trkpt lat="40.6301490" lon="-4.0296660">
        <ele>882.2</ele>
        <time>2019-04-28T09:58:27Z</time>
      </trkpt>
      <trkpt lat="40.6300710" lon="-4.0296740">
        <ele>882.2</ele>
        <time>2019-04-28T09:58:28Z</time>
      </trkpt>
      <trkpt lat="40.6299930" lon="-4.0296830">
        <ele>882.4</ele>
        <time>2019-04-28T09:58:29Z</time>
      </trkpt>
      <trkpt lat="40.6299160" lon="-4.0296950">
        <ele>882.6</ele>
        <time>2019-04-28T09:58:30Z</time>
      </trkpt>
      <trkpt lat="40.6298400" lon="-4.0297050">
        <ele>882.6</ele>
        <time>2019-04-28T09:58:31Z</time>
      </trkpt>
      <trkpt lat="40.6297640" lon="-4.0297200">
        <ele>882.6</ele>
        <time>2019-04-28T09:58:32Z</time>
      </trkpt>
      <trkpt lat="40.6296890" lon="-4.0297390">
        <ele>882.6</ele>
        <time>2019-04-28T09:58:33Z</time>
      </trkpt>
      <trkpt lat="40.6296140" lon="-4.0297510">
        <ele>882.6</ele>
        <time>2019-04-28T09:58:34Z</time>
      </trkpt>
      <trkpt lat="40.6295390" lon="-4.0297620">
        <ele>882.6</ele>
        <time>2019-04-28T09:58:35Z</time>
      </trkpt>
      <trkpt lat="40.6294650" lon="-4.0297730">
        <ele>882.6</ele>
        <time>2019-04-28T09:58:36Z</time>
      </trkpt>
      <trkpt lat="40.6293910" lon="-4.0297820">
        <ele>882.6</ele>
        <time>2019-04-28T09:58:37Z</time>
      </trkpt>
      <trkpt lat="40.6293190" lon="-4.0297930">
        <ele>882.6</ele>
        <time>2019-04-28T09:58:38Z</time>
      </trkpt>
      <trkpt lat="40.6292480" lon="-4.0298040">
        <ele>882.6</ele>
        <time>2019-04-28T09:58:39Z</time>
      </trkpt>
      <trkpt lat="40.6291750" lon="-4.0298150">
        <ele>882.6</ele>
        <time>2019-04-28T09:58:40Z</time>
      </trkpt>
      <trkpt lat="40.6291020" lon="-4.0298270">
        <ele>883.0</ele>
        <time>2019-04-28T09:58:41Z</time>
      </trkpt>
      <trkpt lat="40.6290320" lon="-4.0298380">
        <ele>883.2</ele>
        <time>2019-04-28T09:58:42Z</time>
      </trkpt>
      <trkpt lat="40.6289610" lon="-4.0298460">
        <ele>883.2</ele>
        <time>2019-04-28T09:58:43Z</time>
      </trkpt>
      <trkpt lat="40.6288910" lon="-4.0298520">
        <ele>883.4</ele>
        <time>2019-04-28T09:58:44Z</time>
      </trkpt>
      <trkpt lat="40.6288220" lon="-4.0298610">
        <ele>883.4</ele>
        <time>2019-04-28T09:58:45Z</time>
      </trkpt>
      <trkpt lat="40.6287530" lon="-4.0298710">
        <ele>883.6</ele>
        <time>2019-04-28T09:58:46Z</time>
      </trkpt>
      <trkpt lat="40.6286860" lon="-4.0298820">
        <ele>883.6</ele>
        <time>2019-04-28T09:58:47Z</time>
      </trkpt>
      <trkpt lat="40.6286180" lon="-4.0298860">
        <ele>883.6</ele>
        <time>2019-04-28T09:58:48Z</time>
      </trkpt>
      <trkpt lat="40.6285500" lon="-4.0298860">
        <ele>883.8</ele>
        <time>2019-04-28T09:58:49Z</time>
      </trkpt>
      <trkpt lat="40.6284810" lon="-4.0298830">
        <ele>884.0</ele>
        <time>2019-04-28T09:58:50Z</time>
      </trkpt>
      <trkpt lat="40.6284110" lon="-4.0298770">
        <ele>884.2</ele>
        <time>2019-04-28T09:58:51Z</time>
      </trkpt>
      <trkpt lat="40.6283420" lon="-4.0298640">
        <ele>884.4</ele>
        <time>2019-04-28T09:58:52Z</time>
      </trkpt>
      <trkpt lat="40.6282730" lon="-4.0298490">
        <ele>884.6</ele>
        <time>2019-04-28T09:58:53Z</time>
      </trkpt>
      <trkpt lat="40.6282060" lon="-4.0298290">
        <ele>885.0</ele>
        <time>2019-04-28T09:58:54Z</time>
      </trkpt>
      <trkpt lat="40.6281400" lon="-4.0298040">
        <ele>885.0</ele>
        <time>2019-04-28T09:58:55Z</time>
      </trkpt>
      <trkpt lat="40.6280750" lon="-4.0297750">
        <ele>885.0</ele>
        <time>2019-04-28T09:58:56Z</time>
      </trkpt>
      <trkpt lat="40.6280120" lon="-4.0297430">
        <ele>885.2</ele>
        <time>2019-04-28T09:58:57Z</time>
      </trkpt>
      <trkpt lat="40.6279510" lon="-4.0297070">
        <ele>885.2</ele>
        <time>2019-04-28T09:58:58Z</time>
      </trkpt>
      <trkpt lat="40.6278920" lon="-4.0296670">
        <ele>885.4</ele>
        <time>2019-04-28T09:58:59Z</time>
      </trkpt>
      <trkpt lat="40.6278350" lon="-4.0296250">
        <ele>885.4</ele>
        <time>2019-04-28T09:59:00Z</time>
      </trkpt>
      <trkpt lat="40.6277790" lon="-4.0295790">
        <ele>885.6</ele>
        <time>2019-04-28T09:59:01Z</time>
      </trkpt>
      <trkpt lat="40.6277260" lon="-4.0295380">
        <ele>885.6</ele>
        <time>2019-04-28T09:59:02Z</time>
      </trkpt>
      <trkpt lat="40.6276780" lon="-4.0295140">
        <ele>885.6</ele>
        <time>2019-04-28T09:59:03Z</time>
      </trkpt>
      <trkpt lat="40.6276380" lon="-4.0295130">
        <ele>885.6</ele>
        <time>2019-04-28T09:59:04Z</time>
      </trkpt>
      <trkpt lat="40.6276060" lon="-4.0295290">
        <ele>885.6</ele>
        <time>2019-04-28T09:59:05Z</time>
      </trkpt>
      <trkpt lat="40.6275760" lon="-4.0295480">
        <ele>885.8</ele>
        <time>2019-04-28T09:59:06Z</time>
      </trkpt>
      <trkpt lat="40.6275470" lon="-4.0295500">
        <ele>886.0</ele>
        <time>2019-04-28T09:59:07Z</time>
      </trkpt>
      <trkpt lat="40.6275180" lon="-4.0295310">
        <ele>886.2</ele>
        <time>2019-04-28T09:59:08Z</time>
      </trkpt>
      <trkpt lat="40.6274960" lon="-4.0294930">
        <ele>886.2</ele>
        <time>2019-04-28T09:59:09Z</time>
      </trkpt>
      <trkpt lat="40.6274680" lon="-4.0294560">
        <ele>886.2</ele>
        <time>2019-04-28T09:59:10Z</time>
      </trkpt>
      <trkpt lat="40.6274360" lon="-4.0294320">
        <ele>886.6</ele>
        <time>2019-04-28T09:59:11Z</time>
      </trkpt>
      <trkpt lat="40.6273990" lon="-4.0294210">
        <ele>886.8</ele>
        <time>2019-04-28T09:59:12Z</time>
      </trkpt>
      <trkpt lat="40.6273540" lon="-4.0294210">
        <ele>887.4</ele>
        <time>2019-04-28T09:59:13Z</time>
      </trkpt>
      <trkpt lat="40.6273130" lon="-4.0294290">
        <ele>887.8</ele>
        <time>2019-04-28T09:59:14Z</time>
      </trkpt>
      <trkpt lat="40.6272790" lon="-4.0294470">
        <ele>888.0</ele>
        <time>2019-04-28T09:59:15Z</time>
      </trkpt>
      <trkpt lat="40.6272530" lon="-4.0294690">
        <ele>888.2</ele>
        <time>2019-04-28T09:59:16Z</time>
      </trkpt>
      <trkpt lat="40.6272310" lon="-4.0294950">
        <ele>888.2</ele>
        <time>2019-04-28T09:59:17Z</time>
      </trkpt>
      <trkpt lat="40.6272110" lon="-4.0295230">
        <ele>888.4</ele>
        <time>2019-04-28T09:59:18Z</time>
      </trkpt>
      <trkpt lat="40.6271930" lon="-4.0295510">
        <ele>888.4</ele>
        <time>2019-04-28T09:59:19Z</time>
      </trkpt>
      <trkpt lat="40.6271760" lon="-4.0295730">
        <ele>888.6</ele>
        <time>2019-04-28T09:59:20Z</time>
      </trkpt>
      <trkpt lat="40.6271570" lon="-4.0295890">
        <ele>888.6</ele>
        <time>2019-04-28T09:59:21Z</time>
      </trkpt>
      <trkpt lat="40.6271380" lon="-4.0296000">
        <ele>888.6</ele>
        <time>2019-04-28T09:59:22Z</time>
      </trkpt>
      <trkpt lat="40.6271300" lon="-4.0296010">
        <ele>889.0</ele>
        <time>2019-04-28T09:59:23Z</time>
      </trkpt>
      <trkpt lat="40.6271260" lon="-4.0296030">
        <ele>888.8</ele>
        <time>2019-04-28T09:59:24Z</time>
      </trkpt>
      <trkpt lat="40.6271200" lon="-4.0296100">
        <ele>888.8</ele>
        <time>2019-04-28T09:59:25Z</time>
      </trkpt>
      <trkpt lat="40.6271170" lon="-4.0296130">
        <ele>888.6</ele>
        <time>2019-04-28T09:59:26Z</time>
      </trkpt>
      <trkpt lat="40.6271170" lon="-4.0296140">
        <ele>888.8</ele>
        <time>2019-04-28T09:59:27Z</time>
      </trkpt>
      <trkpt lat="40.6271160" lon="-4.0296150">
        <ele>888.8</ele>
        <time>2019-04-28T09:59:28Z</time>
      </trkpt>
      <trkpt lat="40.6271160" lon="-4.0296130">
        <ele>888.6</ele>
        <time>2019-04-28T09:59:29Z</time>
      </trkpt>
      <trkpt lat="40.6271150" lon="-4.0296130">
        <ele>888.6</ele>
        <time>2019-04-28T09:59:30Z</time>
      </trkpt>
      <trkpt lat="40.6271140" lon="-4.0296130">
        <ele>888.8</ele>
        <time>2019-04-28T09:59:31Z</time>
      </trkpt>
      <trkpt lat="40.6271140" lon="-4.0296140">
        <ele>888.8</ele>
        <time>2019-04-28T09:59:32Z</time>
      </trkpt>
      <trkpt lat="40.6271050" lon="-4.0296200">
        <ele>888.6</ele>
        <time>2019-04-28T09:59:33Z</time>
      </trkpt>
      <trkpt lat="40.6270940" lon="-4.0296270">
        <ele>888.8</ele>
        <time>2019-04-28T09:59:34Z</time>
      </trkpt>
      <trkpt lat="40.6270840" lon="-4.0296350">
        <ele>888.6</ele>
        <time>2019-04-28T09:59:35Z</time>
      </trkpt>
      <trkpt lat="40.6270710" lon="-4.0296450">
        <ele>888.6</ele>
        <time>2019-04-28T09:59:36Z</time>
      </trkpt>
      <trkpt lat="40.6270600" lon="-4.0296510">
        <ele>888.8</ele>
        <time>2019-04-28T09:59:37Z</time>
      </trkpt>
      <trkpt lat="40.6270460" lon="-4.0296570">
        <ele>888.8</ele>
        <time>2019-04-28T09:59:38Z</time>
      </trkpt>
      <trkpt lat="40.6270310" lon="-4.0296640">
        <ele>889.0</ele>
        <time>2019-04-28T09:59:39Z</time>
      </trkpt>
      <trkpt lat="40.6270140" lon="-4.0296730">
        <ele>889.0</ele>
        <time>2019-04-28T09:59:40Z</time>
      </trkpt>
      <trkpt lat="40.6270010" lon="-4.0296800">
        <ele>889.0</ele>
        <time>2019-04-28T09:59:41Z</time>
      </trkpt>
      <trkpt lat="40.6269870" lon="-4.0296870">
        <ele>889.0</ele>
        <time>2019-04-28T09:59:42Z</time>
      </trkpt>
      <trkpt lat="40.6269730" lon="-4.0296950">
        <ele>889.0</ele>
        <time>2019-04-28T09:59:43Z</time>
      </trkpt>
      <trkpt lat="40.6269590" lon="-4.0297040">
        <ele>889.0</ele>
        <time>2019-04-28T09:59:44Z</time>
      </trkpt>
      <trkpt lat="40.6269420" lon="-4.0297190">
        <ele>889.0</ele>
        <time>2019-04-28T09:59:45Z</time>
      </trkpt>
      <trkpt lat="40.6269220" lon="-4.0297380">
        <ele>889.0</ele>
        <time>2019-04-28T09:59:46Z</time>
      </trkpt>
      <trkpt lat="40.6269020" lon="-4.0297610">
        <ele>889.0</ele>
        <time>2019-04-28T09:59:47Z</time>
      </trkpt>
      <trkpt lat="40.6268780" lon="-4.0297800">
        <ele>889.2</ele>
        <time>2019-04-28T09:59:48Z</time>
      </trkpt>
      <trkpt lat="40.6268560" lon="-4.0297920">
        <ele>889.2</ele>
        <time>2019-04-28T09:59:49Z</time>
      </trkpt>
      <trkpt lat="40.6268330" lon="-4.0298060">
        <ele>889.2</ele>
        <time>2019-04-28T09:59:50Z</time>
      </trkpt>
      <trkpt lat="40.6268100" lon="-4.0298250">
        <ele>889.2</ele>
        <time>2019-04-28T09:59:51Z</time>
      </trkpt>
      <trkpt lat="40.6267860" lon="-4.0298450">
        <ele>889.2</ele>
        <time>2019-04-28T09:59:52Z</time>
      </trkpt>
      <trkpt lat="40.6267630" lon="-4.0298650">
        <ele>889.2</ele>
        <time>2019-04-28T09:59:53Z</time>
      </trkpt>
      <trkpt lat="40.6267360" lon="-4.0298840">
        <ele>889.2</ele>
        <time>2019-04-28T09:59:54Z</time>
      </trkpt>
      <trkpt lat="40.6267090" lon="-4.0299020">
        <ele>889.4</ele>
        <time>2019-04-28T09:59:55Z</time>
      </trkpt>
      <trkpt lat="40.6266800" lon="-4.0299190">
        <ele>889.4</ele>
        <time>2019-04-28T09:59:56Z</time>
      </trkpt>
      <trkpt lat="40.6266510" lon="-4.0299370">
        <ele>889.4</ele>
        <time>2019-04-28T09:59:57Z</time>
      </trkpt>
      <trkpt lat="40.6266230" lon="-4.0299550">
        <ele>889.4</ele>
        <time>2019-04-28T09:59:58Z</time>
      </trkpt>
      <trkpt lat="40.6265930" lon="-4.0299700">
        <ele>889.6</ele>
        <time>2019-04-28T09:59:59Z</time>
      </trkpt>
      <trkpt lat="40.6265640" lon="-4.0299860">
        <ele>889.6</ele>
        <time>2019-04-28T10:00:00Z</time>
      </trkpt>
      <trkpt lat="40.6265360" lon="-4.0300020">
        <ele>889.8</ele>
        <time>2019-04-28T10:00:01Z</time>
      </trkpt>
      <trkpt lat="40.6265060" lon="-4.0300160">
        <ele>889.6</ele>
        <time>2019-04-28T10:00:02Z</time>
      </trkpt>
      <trkpt lat="40.6264760" lon="-4.0300320">
        <ele>889.8</ele>
        <time>2019-04-28T10:00:03Z</time>
      </trkpt>
      <trkpt lat="40.6264440" lon="-4.0300460">
        <ele>889.8</ele>
        <time>2019-04-28T10:00:04Z</time>
      </trkpt>
      <trkpt lat="40.6264130" lon="-4.0300560">
        <ele>889.8</ele>
        <time>2019-04-28T10:00:05Z</time>
      </trkpt>
      <trkpt lat="40.6263820" lon="-4.0300650">
        <ele>889.8</ele>
        <time>2019-04-28T10:00:06Z</time>
      </trkpt>
      <trkpt lat="40.6263530" lon="-4.0300750">
        <ele>890.0</ele>
        <time>2019-04-28T10:00:07Z</time>
      </trkpt>
      <trkpt lat="40.6263220" lon="-4.0300790">
        <ele>890.0</ele>
        <time>2019-04-28T10:00:08Z</time>
      </trkpt>
      <trkpt lat="40.6262930" lon="-4.0300850">
        <ele>890.2</ele>
        <time>2019-04-28T10:00:09Z</time>
      </trkpt>
      <trkpt lat="40.6262650" lon="-4.0300960">
        <ele>890.4</ele>
        <time>2019-04-28T10:00:10Z</time>
      </trkpt>
      <trkpt lat="40.6262390" lon="-4.0301110">
        <ele>890.6</ele>
        <time>2019-04-28T10:00:11Z</time>
      </trkpt>
      <trkpt lat="40.6262120" lon="-4.0301240">
        <ele>890.6</ele>
        <time>2019-04-28T10:00:12Z</time>
      </trkpt>
      <trkpt lat="40.6261860" lon="-4.0301370">
        <ele>890.8</ele>
        <time>2019-04-28T10:00:13Z</time>
      </trkpt>
      <trkpt lat="40.6261590" lon="-4.0301460">
        <ele>891.0</ele>
        <time>2019-04-28T10:00:14Z</time>
      </trkpt>
      <trkpt lat="40.6261310" lon="-4.0301520">
        <ele>891.2</ele>
        <time>2019-04-28T10:00:15Z</time>
      </trkpt>
      <trkpt lat="40.6261070" lon="-4.0301580">
        <ele>891.6</ele>
        <time>2019-04-28T10:00:16Z</time>
      </trkpt>
      <trkpt lat="40.6260820" lon="-4.0301680">
        <ele>891.6</ele>
        <time>2019-04-28T10:00:17Z</time>
      </trkpt>
      <trkpt lat="40.6260550" lon="-4.0301800">
        <ele>891.8</ele>
        <time>2019-04-28T10:00:18Z</time>
      </trkpt>
      <trkpt lat="40.6260280" lon="-4.0301940">
        <ele>891.8</ele>
        <time>2019-04-28T10:00:19Z</time>
      </trkpt>
      <trkpt lat="40.6260010" lon="-4.0302110">
        <ele>891.8</ele>
        <time>2019-04-28T10:00:20Z</time>
      </trkpt>
      <trkpt lat="40.6259760" lon="-4.0302320">
        <ele>891.8</ele>
        <time>2019-04-28T10:00:21Z</time>
      </trkpt>
      <trkpt lat="40.6259460" lon="-4.0302480">
        <ele>892.0</ele>
        <time>2019-04-28T10:00:22Z</time>
      </trkpt>
      <trkpt lat="40.6259130" lon="-4.0302640">
        <ele>892.0</ele>
        <time>2019-04-28T10:00:23Z</time>
      </trkpt>
      <trkpt lat="40.6258770" lon="-4.0302830">
        <ele>892.0</ele>
        <time>2019-04-28T10:00:24Z</time>
      </trkpt>
      <trkpt lat="40.6258380" lon="-4.0303010">
        <ele>891.8</ele>
        <time>2019-04-28T10:00:25Z</time>
      </trkpt>
      <trkpt lat="40.6257970" lon="-4.0303200">
        <ele>891.8</ele>
        <time>2019-04-28T10:00:26Z</time>
      </trkpt>
      <trkpt lat="40.6257540" lon="-4.0303340">
        <ele>891.8</ele>
        <time>2019-04-28T10:00:27Z</time>
      </trkpt>
      <trkpt lat="40.6257100" lon="-4.0303450">
        <ele>891.8</ele>
        <time>2019-04-28T10:00:28Z</time>
      </trkpt>
      <trkpt lat="40.6256680" lon="-4.0303580">
        <ele>891.6</ele>
        <time>2019-04-28T10:00:29Z</time>
      </trkpt>
      <trkpt lat="40.6256260" lon="-4.0303700">
        <ele>891.8</ele>
        <time>2019-04-28T10:00:30Z</time>
      </trkpt>
      <trkpt lat="40.6255820" lon="-4.0303830">
        <ele>891.8</ele>
        <time>2019-04-28T10:00:31Z</time>
      </trkpt>
      <trkpt lat="40.6255380" lon="-4.0303940">
        <ele>891.8</ele>
        <time>2019-04-28T10:00:32Z</time>
      </trkpt>
      <trkpt lat="40.6254960" lon="-4.0304060">
        <ele>891.8</ele>
        <time>2019-04-28T10:00:33Z</time>
      </trkpt>
      <trkpt lat="40.6254560" lon="-4.0304190">
        <ele>892.0</ele>
        <time>2019-04-28T10:00:34Z</time>
      </trkpt>
      <trkpt lat="40.6254160" lon="-4.0304320">
        <ele>892.0</ele>
        <time>2019-04-28T10:00:35Z</time>
      </trkpt>
      <trkpt lat="40.6253770" lon="-4.0304450">
        <ele>891.8</ele>
        <time>2019-04-28T10:00:36Z</time>
      </trkpt>
      <trkpt lat="40.6253380" lon="-4.0304590">
        <ele>892.0</ele>
        <time>2019-04-28T10:00:37Z</time>
      </trkpt>
      <trkpt lat="40.6252980" lon="-4.0304700">
        <ele>892.2</ele>
        <time>2019-04-28T10:00:38Z</time>
      </trkpt>
      <trkpt lat="40.6252580" lon="-4.0304790">
        <ele>892.2</ele>
        <time>2019-04-28T10:00:39Z</time>
      </trkpt>
      <trkpt lat="40.6252170" lon="-4.0304910">
        <ele>892.2</ele>
        <time>2019-04-28T10:00:40Z</time>
      </trkpt>
      <trkpt lat="40.6251740" lon="-4.0305020">
        <ele>892.4</ele>
        <time>2019-04-28T10:00:41Z</time>
      </trkpt>
      <trkpt lat="40.6251340" lon="-4.0305120">
        <ele>892.4</ele>
        <time>2019-04-28T10:00:42Z</time>
      </trkpt>
      <trkpt lat="40.6250950" lon="-4.0305230">
        <ele>892.6</ele>
        <time>2019-04-28T10:00:43Z</time>
      </trkpt>
      <trkpt lat="40.6250550" lon="-4.0305310">
        <ele>892.6</ele>
        <time>2019-04-28T10:00:44Z</time>
      </trkpt>
      <trkpt lat="40.6250160" lon="-4.0305410">
        <ele>893.0</ele>
        <time>2019-04-28T10:00:45Z</time>
      </trkpt>
      <trkpt lat="40.6249790" lon="-4.0305520">
        <ele>893.2</ele>
        <time>2019-04-28T10:00:46Z</time>
      </trkpt>
      <trkpt lat="40.6249440" lon="-4.0305600">
        <ele>893.4</ele>
        <time>2019-04-28T10:00:47Z</time>
      </trkpt>
      <trkpt lat="40.6249120" lon="-4.0305710">
        <ele>893.6</ele>
        <time>2019-04-28T10:00:48Z</time>
      </trkpt>
      <trkpt lat="40.6248760" lon="-4.0305800">
        <ele>893.8</ele>
        <time>2019-04-28T10:00:49Z</time>
      </trkpt>
      <trkpt lat="40.6248400" lon="-4.0305880">
        <ele>893.8</ele>
        <time>2019-04-28T10:00:50Z</time>
      </trkpt>
      <trkpt lat="40.6248040" lon="-4.0305950">
        <ele>893.6</ele>
        <time>2019-04-28T10:00:51Z</time>
      </trkpt>
      <trkpt lat="40.6247670" lon="-4.0306010">
        <ele>893.6</ele>
        <time>2019-04-28T10:00:52Z</time>
      </trkpt>
      <trkpt lat="40.6247300" lon="-4.0306060">
        <ele>893.8</ele>
        <time>2019-04-28T10:00:53Z</time>
      </trkpt>
      <trkpt lat="40.6246920" lon="-4.0306120">
        <ele>893.8</ele>
        <time>2019-04-28T10:00:54Z</time>
      </trkpt>
      <trkpt lat="40.6246550" lon="-4.0306220">
        <ele>893.8</ele>
        <time>2019-04-28T10:00:55Z</time>
      </trkpt>
      <trkpt lat="40.6246180" lon="-4.0306330">
        <ele>894.0</ele>
        <time>2019-04-28T10:00:56Z</time>
      </trkpt>
      <trkpt lat="40.6245830" lon="-4.0306420">
        <ele>894.2</ele>
        <time>2019-04-28T10:00:57Z</time>
      </trkpt>
      <trkpt lat="40.6245510" lon="-4.0306440">
        <ele>894.2</ele>
        <time>2019-04-28T10:00:58Z</time>
      </trkpt>
      <trkpt lat="40.6245210" lon="-4.0306400">
        <ele>894.2</ele>
        <time>2019-04-28T10:00:59Z</time>
      </trkpt>
      <trkpt lat="40.6244890" lon="-4.0306360">
        <ele>894.2</ele>
        <time>2019-04-28T10:01:00Z</time>
      </trkpt>
      <trkpt lat="40.6244560" lon="-4.0306240">
        <ele>894.2</ele>
        <time>2019-04-28T10:01:01Z</time>
      </trkpt>
      <trkpt lat="40.6244190" lon="-4.0306110">
        <ele>894.2</ele>
        <time>2019-04-28T10:01:02Z</time>
      </trkpt>
      <trkpt lat="40.6243790" lon="-4.0305980">
        <ele>894.2</ele>
        <time>2019-04-28T10:01:03Z</time>
      </trkpt>
      <trkpt lat="40.6243370" lon="-4.0305880">
        <ele>894.0</ele>
        <time>2019-04-28T10:01:04Z</time>
      </trkpt>
      <trkpt lat="40.6242950" lon="-4.0305800">
        <ele>894.2</ele>
        <time>2019-04-28T10:01:05Z</time>
      </trkpt>
      <trkpt lat="40.6242530" lon="-4.0305750">
        <ele>894.0</ele>
        <time>2019-04-28T10:01:06Z</time>
      </trkpt>
      <trkpt lat="40.6242110" lon="-4.0305720">
        <ele>894.0</ele>
        <time>2019-04-28T10:01:07Z</time>
      </trkpt>
      <trkpt lat="40.6241700" lon="-4.0305680">
        <ele>894.0</ele>
        <time>2019-04-28T10:01:08Z</time>
      </trkpt>
      <trkpt lat="40.6241300" lon="-4.0305640">
        <ele>894.0</ele>
        <time>2019-04-28T10:01:09Z</time>
      </trkpt>
      <trkpt lat="40.6240930" lon="-4.0305620">
        <ele>894.0</ele>
        <time>2019-04-28T10:01:10Z</time>
      </trkpt>
      <trkpt lat="40.6240540" lon="-4.0305590">
        <ele>894.0</ele>
        <time>2019-04-28T10:01:11Z</time>
      </trkpt>
      <trkpt lat="40.6240130" lon="-4.0305560">
        <ele>894.0</ele>
        <time>2019-04-28T10:01:12Z</time>
      </trkpt>
      <trkpt lat="40.6239700" lon="-4.0305520">
        <ele>894.0</ele>
        <time>2019-04-28T10:01:13Z</time>
      </trkpt>
      <trkpt lat="40.6239260" lon="-4.0305490">
        <ele>894.0</ele>
        <time>2019-04-28T10:01:14Z</time>
      </trkpt>
      <trkpt lat="40.6238820" lon="-4.0305460">
        <ele>894.0</ele>
        <time>2019-04-28T10:01:15Z</time>
      </trkpt>
      <trkpt lat="40.6238380" lon="-4.0305450">
        <ele>894.2</ele>
        <time>2019-04-28T10:01:16Z</time>
      </trkpt>
      <trkpt lat="40.6237980" lon="-4.0305430">
        <ele>894.2</ele>
        <time>2019-04-28T10:01:17Z</time>
      </trkpt>
      <trkpt lat="40.6237600" lon="-4.0305420">
        <ele>894.2</ele>
        <time>2019-04-28T10:01:18Z</time>
      </trkpt>
      <trkpt lat="40.6237230" lon="-4.0305470">
        <ele>894.2</ele>
        <time>2019-04-28T10:01:19Z</time>
      </trkpt>
      <trkpt lat="40.6236880" lon="-4.0305590">
        <ele>894.2</ele>
        <time>2019-04-28T10:01:20Z</time>
      </trkpt>
      <trkpt lat="40.6236530" lon="-4.0305830">
        <ele>894.2</ele>
        <time>2019-04-28T10:01:21Z</time>
      </trkpt>
      <trkpt lat="40.6236190" lon="-4.0306070">
        <ele>894.4</ele>
        <time>2019-04-28T10:01:22Z</time>
      </trkpt>
      <trkpt lat="40.6235820" lon="-4.0306240">
        <ele>894.4</ele>
        <time>2019-04-28T10:01:23Z</time>
      </trkpt>
      <trkpt lat="40.6235460" lon="-4.0306420">
        <ele>894.6</ele>
        <time>2019-04-28T10:01:24Z</time>
      </trkpt>
      <trkpt lat="40.6235110" lon="-4.0306660">
        <ele>894.8</ele>
        <time>2019-04-28T10:01:25Z</time>
      </trkpt>
      <trkpt lat="40.6234750" lon="-4.0306890">
        <ele>894.8</ele>
        <time>2019-04-28T10:01:26Z</time>
      </trkpt>
      <trkpt lat="40.6234370" lon="-4.0307080">
        <ele>895.0</ele>
        <time>2019-04-28T10:01:27Z</time>
      </trkpt>
      <trkpt lat="40.6233990" lon="-4.0307270">
        <ele>895.2</ele>
        <time>2019-04-28T10:01:28Z</time>
      </trkpt>
      <trkpt lat="40.6233610" lon="-4.0307470">
        <ele>895.4</ele>
        <time>2019-04-28T10:01:29Z</time>
      </trkpt>
      <trkpt lat="40.6233250" lon="-4.0307670">
        <ele>895.6</ele>
        <time>2019-04-28T10:01:30Z</time>
      </trkpt>
      <trkpt lat="40.6232890" lon="-4.0307880">
        <ele>895.8</ele>
        <time>2019-04-28T10:01:31Z</time>
      </trkpt>
      <trkpt lat="40.6232540" lon="-4.0308080">
        <ele>895.8</ele>
        <time>2019-04-28T10:01:32Z</time>
      </trkpt>
      <trkpt lat="40.6232190" lon="-4.0308250">
        <ele>896.0</ele>
        <time>2019-04-28T10:01:33Z</time>
      </trkpt>
      <trkpt lat="40.6231870" lon="-4.0308470">
        <ele>896.2</ele>
        <time>2019-04-28T10:01:34Z</time>
      </trkpt>
      <trkpt lat="40.6231570" lon="-4.0308730">
        <ele>896.2</ele>
        <time>2019-04-28T10:01:35Z</time>
      </trkpt>
      <trkpt lat="40.6231270" lon="-4.0309020">
        <ele>896.4</ele>
        <time>2019-04-28T10:01:36Z</time>
      </trkpt>
      <trkpt lat="40.6230990" lon="-4.0309310">
        <ele>896.4</ele>
        <time>2019-04-28T10:01:37Z</time>
      </trkpt>
      <trkpt lat="40.6230710" lon="-4.0309570">
        <ele>896.6</ele>
        <time>2019-04-28T10:01:38Z</time>
      </trkpt>
      <trkpt lat="40.6230390" lon="-4.0309780">
        <ele>896.8</ele>
        <time>2019-04-28T10:01:39Z</time>
      </trkpt>
      <trkpt lat="40.6230060" lon="-4.0309970">
        <ele>896.8</ele>
        <time>2019-04-28T10:01:40Z</time>
      </trkpt>
      <trkpt lat="40.6229740" lon="-4.0310120">
        <ele>897.0</ele>
        <time>2019-04-28T10:01:41Z</time>
      </trkpt>
      <trkpt lat="40.6229440" lon="-4.0310270">
        <ele>897.4</ele>
        <time>2019-04-28T10:01:42Z</time>
      </trkpt>
      <trkpt lat="40.6229120" lon="-4.0310440">
        <ele>897.6</ele>
        <time>2019-04-28T10:01:43Z</time>
      </trkpt>
      <trkpt lat="40.6228760" lon="-4.0310590">
        <ele>897.6</ele>
        <time>2019-04-28T10:01:44Z</time>
      </trkpt>
      <trkpt lat="40.6228360" lon="-4.0310600">
        <ele>897.6</ele>
        <time>2019-04-28T10:01:45Z</time>
      </trkpt>
      <trkpt lat="40.6227960" lon="-4.0310540">
        <ele>897.6</ele>
        <time>2019-04-28T10:01:46Z</time>
      </trkpt>
      <trkpt lat="40.6227550" lon="-4.0310530">
        <ele>897.6</ele>
        <time>2019-04-28T10:01:47Z</time>
      </trkpt>
      <trkpt lat="40.6227120" lon="-4.0310540">
        <ele>897.6</ele>
        <time>2019-04-28T10:01:48Z</time>
      </trkpt>
      <trkpt lat="40.6226650" lon="-4.0310540">
        <ele>897.6</ele>
        <time>2019-04-28T10:01:49Z</time>
      </trkpt>
      <trkpt lat="40.6226150" lon="-4.0310550">
        <ele>897.6</ele>
        <time>2019-04-28T10:01:50Z</time>
      </trkpt>
      <trkpt lat="40.6225680" lon="-4.0310520">
        <ele>897.6</ele>
        <time>2019-04-28T10:01:51Z</time>
      </trkpt>
      <trkpt lat="40.6225210" lon="-4.0310510">
        <ele>897.8</ele>
        <time>2019-04-28T10:01:52Z</time>
      </trkpt>
      <trkpt lat="40.6224710" lon="-4.0310560">
        <ele>897.8</ele>
        <time>2019-04-28T10:01:53Z</time>
      </trkpt>
      <trkpt lat="40.6224230" lon="-4.0310650">
        <ele>897.8</ele>
        <time>2019-04-28T10:01:54Z</time>
      </trkpt>
      <trkpt lat="40.6223770" lon="-4.0310750">
        <ele>897.8</ele>
        <time>2019-04-28T10:01:55Z</time>
      </trkpt>
      <trkpt lat="40.6223310" lon="-4.0310810">
        <ele>897.8</ele>
        <time>2019-04-28T10:01:56Z</time>
      </trkpt>
      <trkpt lat="40.6222850" lon="-4.0310870">
        <ele>898.0</ele>
        <time>2019-04-28T10:01:57Z</time>
      </trkpt>
      <trkpt lat="40.6222410" lon="-4.0310930">
        <ele>898.2</ele>
        <time>2019-04-28T10:01:58Z</time>
      </trkpt>
      <trkpt lat="40.6221980" lon="-4.0311050">
        <ele>898.2</ele>
        <time>2019-04-28T10:01:59Z</time>
      </trkpt>
      <trkpt lat="40.6221550" lon="-4.0311160">
        <ele>898.4</ele>
        <time>2019-04-28T10:02:00Z</time>
      </trkpt>
      <trkpt lat="40.6221110" lon="-4.0311220">
        <ele>898.4</ele>
        <time>2019-04-28T10:02:01Z</time>
      </trkpt>
      <trkpt lat="40.6220690" lon="-4.0311330">
        <ele>898.6</ele>
        <time>2019-04-28T10:02:02Z</time>
      </trkpt>
      <trkpt lat="40.6220280" lon="-4.0311490">
        <ele>898.8</ele>
        <time>2019-04-28T10:02:03Z</time>
      </trkpt>
      <trkpt lat="40.6219870" lon="-4.0311640">
        <ele>898.8</ele>
        <time>2019-04-28T10:02:04Z</time>
      </trkpt>
      <trkpt lat="40.6219490" lon="-4.0311860">
        <ele>899.0</ele>
        <time>2019-04-28T10:02:05Z</time>
      </trkpt>
      <trkpt lat="40.6219130" lon="-4.0312100">
        <ele>899.2</ele>
        <time>2019-04-28T10:02:06Z</time>
      </trkpt>
      <trkpt lat="40.6218770" lon="-4.0312360">
        <ele>899.4</ele>
        <time>2019-04-28T10:02:07Z</time>
      </trkpt>
      <trkpt lat="40.6218450" lon="-4.0312600">
        <ele>899.6</ele>
        <time>2019-04-28T10:02:08Z</time>
      </trkpt>
      <trkpt lat="40.6218100" lon="-4.0312830">
        <ele>899.6</ele>
        <time>2019-04-28T10:02:09Z</time>
      </trkpt>
      <trkpt lat="40.6217750" lon="-4.0313050">
        <ele>899.8</ele>
        <time>2019-04-28T10:02:10Z</time>
      </trkpt>
      <trkpt lat="40.6217410" lon="-4.0313250">
        <ele>900.0</ele>
        <time>2019-04-28T10:02:11Z</time>
      </trkpt>
      <trkpt lat="40.6217070" lon="-4.0313480">
        <ele>900.0</ele>
        <time>2019-04-28T10:02:12Z</time>
      </trkpt>
      <trkpt lat="40.6216710" lon="-4.0313720">
        <ele>900.2</ele>
        <time>2019-04-28T10:02:13Z</time>
      </trkpt>
      <trkpt lat="40.6216350" lon="-4.0313970">
        <ele>900.4</ele>
        <time>2019-04-28T10:02:14Z</time>
      </trkpt>
      <trkpt lat="40.6216010" lon="-4.0314270">
        <ele>900.4</ele>
        <time>2019-04-28T10:02:15Z</time>
      </trkpt>
      <trkpt lat="40.6215680" lon="-4.0314600">
        <ele>900.6</ele>
        <time>2019-04-28T10:02:16Z</time>
      </trkpt>
      <trkpt lat="40.6215350" lon="-4.0314900">
        <ele>900.8</ele>
        <time>2019-04-28T10:02:17Z</time>
      </trkpt>
      <trkpt lat="40.6215010" lon="-4.0315160">
        <ele>901.0</ele>
        <time>2019-04-28T10:02:18Z</time>
      </trkpt>
      <trkpt lat="40.6214650" lon="-4.0315440">
        <ele>901.0</ele>
        <time>2019-04-28T10:02:19Z</time>
      </trkpt>
      <trkpt lat="40.6214300" lon="-4.0315740">
        <ele>901.0</ele>
        <time>2019-04-28T10:02:20Z</time>
      </trkpt>
      <trkpt lat="40.6213940" lon="-4.0316040">
        <ele>901.0</ele>
        <time>2019-04-28T10:02:21Z</time>
      </trkpt>
      <trkpt lat="40.6213620" lon="-4.0316410">
        <ele>901.2</ele>
        <time>2019-04-28T10:02:22Z</time>
      </trkpt>
      <trkpt lat="40.6213240" lon="-4.0316740">
        <ele>901.2</ele>
        <time>2019-04-28T10:02:23Z</time>
      </trkpt>
      <trkpt lat="40.6212880" lon="-4.0317060">
        <ele>901.2</ele>
        <time>2019-04-28T10:02:24Z</time>
      </trkpt>
      <trkpt lat="40.6212510" lon="-4.0317380">
        <ele>901.4</ele>
        <time>2019-04-28T10:02:25Z</time>
      </trkpt>
      <trkpt lat="40.6212150" lon="-4.0317660">
        <ele>901.6</ele>
        <time>2019-04-28T10:02:26Z</time>
      </trkpt>
      <trkpt lat="40.6211780" lon="-4.0317960">
        <ele>901.4</ele>
        <time>2019-04-28T10:02:27Z</time>
      </trkpt>
      <trkpt lat="40.6211410" lon="-4.0318220">
        <ele>901.6</ele>
        <time>2019-04-28T10:02:28Z</time>
      </trkpt>
      <trkpt lat="40.6211090" lon="-4.0318540">
        <ele>901.6</ele>
        <time>2019-04-28T10:02:29Z</time>
      </trkpt>
      <trkpt lat="40.6210740" lon="-4.0318880">
        <ele>901.6</ele>
        <time>2019-04-28T10:02:30Z</time>
      </trkpt>
      <trkpt lat="40.6210360" lon="-4.0319190">
        <ele>901.6</ele>
        <time>2019-04-28T10:02:31Z</time>
      </trkpt>
      <trkpt lat="40.6209980" lon="-4.0319540">
        <ele>901.8</ele>
        <time>2019-04-28T10:02:32Z</time>
      </trkpt>
      <trkpt lat="40.6209620" lon="-4.0319930">
        <ele>901.8</ele>
        <time>2019-04-28T10:02:33Z</time>
      </trkpt>
      <trkpt lat="40.6209270" lon="-4.0320320">
        <ele>902.0</ele>
        <time>2019-04-28T10:02:34Z</time>
      </trkpt>
      <trkpt lat="40.6208920" lon="-4.0320730">
        <ele>902.0</ele>
        <time>2019-04-28T10:02:35Z</time>
      </trkpt>
      <trkpt lat="40.6208590" lon="-4.0321120">
        <ele>902.0</ele>
        <time>2019-04-28T10:02:36Z</time>
      </trkpt>
      <trkpt lat="40.6208260" lon="-4.0321500">
        <ele>902.2</ele>
        <time>2019-04-28T10:02:37Z</time>
      </trkpt>
      <trkpt lat="40.6207920" lon="-4.0321870">
        <ele>902.2</ele>
        <time>2019-04-28T10:02:38Z</time>
      </trkpt>
      <trkpt lat="40.6207590" lon="-4.0322270">
        <ele>902.2</ele>
        <time>2019-04-28T10:02:39Z</time>
      </trkpt>
      <trkpt lat="40.6207260" lon="-4.0322710">
        <ele>902.6</ele>
        <time>2019-04-28T10:02:40Z</time>
      </trkpt>
      <trkpt lat="40.6206880" lon="-4.0323120">
        <ele>902.4</ele>
        <time>2019-04-28T10:02:41Z</time>
      </trkpt>
      <trkpt lat="40.6206510" lon="-4.0323510">
        <ele>902.4</ele>
        <time>2019-04-28T10:02:42Z</time>
      </trkpt>
      <trkpt lat="40.6206160" lon="-4.0323940">
        <ele>902.6</ele>
        <time>2019-04-28T10:02:43Z</time>
      </trkpt>
      <trkpt lat="40.6205790" lon="-4.0324350">
        <ele>902.6</ele>
        <time>2019-04-28T10:02:44Z</time>
      </trkpt>
      <trkpt lat="40.6205450" lon="-4.0324770">
        <ele>902.6</ele>
        <time>2019-04-28T10:02:45Z</time>
      </trkpt>
      <trkpt lat="40.6205140" lon="-4.0325220">
        <ele>902.8</ele>
        <time>2019-04-28T10:02:46Z</time>
      </trkpt>
      <trkpt lat="40.6204800" lon="-4.0325650">
        <ele>902.8</ele>
        <time>2019-04-28T10:02:47Z</time>
      </trkpt>
      <trkpt lat="40.6204450" lon="-4.0326070">
        <ele>903.0</ele>
        <time>2019-04-28T10:02:48Z</time>
      </trkpt>
      <trkpt lat="40.6204140" lon="-4.0326520">
        <ele>903.2</ele>
        <time>2019-04-28T10:02:49Z</time>
      </trkpt>
      <trkpt lat="40.6203830" lon="-4.0326950">
        <ele>903.4</ele>
        <time>2019-04-28T10:02:50Z</time>
      </trkpt>
      <trkpt lat="40.6203520" lon="-4.0327370">
        <ele>903.8</ele>
        <time>2019-04-28T10:02:51Z</time>
      </trkpt>
      <trkpt lat="40.6203200" lon="-4.0327780">
        <ele>904.0</ele>
        <time>2019-04-28T10:02:52Z</time>
      </trkpt>
      <trkpt lat="40.6202890" lon="-4.0328120">
        <ele>904.2</ele>
        <time>2019-04-28T10:02:53Z</time>
      </trkpt>
      <trkpt lat="40.6202560" lon="-4.0328420">
        <ele>904.6</ele>
        <time>2019-04-28T10:02:54Z</time>
      </trkpt>
      <trkpt lat="40.6202330" lon="-4.0328770">
        <ele>905.0</ele>
        <time>2019-04-28T10:02:55Z</time>
      </trkpt>
      <trkpt lat="40.6202180" lon="-4.0329040">
        <ele>905.2</ele>
        <time>2019-04-28T10:02:56Z</time>
      </trkpt>
      <trkpt lat="40.6202060" lon="-4.0329270">
        <ele>905.2</ele>
        <time>2019-04-28T10:02:57Z</time>
      </trkpt>
      <trkpt lat="40.6201960" lon="-4.0329480">
        <ele>905.4</ele>
        <time>2019-04-28T10:02:58Z</time>
      </trkpt>
      <trkpt lat="40.6201900" lon="-4.0329680">
        <ele>905.4</ele>
        <time>2019-04-28T10:02:59Z</time>
      </trkpt>
      <trkpt lat="40.6201870" lon="-4.0329910">
        <ele>905.6</ele>
        <time>2019-04-28T10:03:00Z</time>
      </trkpt>
      <trkpt lat="40.6201840" lon="-4.0330110">
        <ele>905.6</ele>
        <time>2019-04-28T10:03:01Z</time>
      </trkpt>
      <trkpt lat="40.6201810" lon="-4.0330160">
        <ele>905.6</ele>
        <time>2019-04-28T10:03:02Z</time>
      </trkpt>
      <trkpt lat="40.6201800" lon="-4.0330170">
        <ele>905.6</ele>
        <time>2019-04-28T10:03:03Z</time>
      </trkpt>
      <trkpt lat="40.6201790" lon="-4.0330170">
        <ele>905.8</ele>
        <time>2019-04-28T10:03:04Z</time>
      </trkpt>
      <trkpt lat="40.6201770" lon="-4.0330170">
        <ele>905.8</ele>
        <time>2019-04-28T10:03:05Z</time>
      </trkpt>
      <trkpt lat="40.6201770" lon="-4.0330180">
        <ele>905.6</ele>
        <time>2019-04-28T10:03:06Z</time>
      </trkpt>
      <trkpt lat="40.6201760" lon="-4.0330200">
        <ele>905.6</ele>
        <time>2019-04-28T10:03:07Z</time>
      </trkpt>
      <trkpt lat="40.6201760" lon="-4.0330210">
        <ele>905.6</ele>
        <time>2019-04-28T10:03:08Z</time>
      </trkpt>
      <trkpt lat="40.6201750" lon="-4.0330220">
        <ele>905.4</ele>
        <time>2019-04-28T10:03:09Z</time>
      </trkpt>
      <trkpt lat="40.6201750" lon="-4.0330230">
        <ele>905.4</ele>
        <time>2019-04-28T10:03:10Z</time>
      </trkpt>
      <trkpt lat="40.6201720" lon="-4.0330260">
        <ele>905.6</ele>
        <time>2019-04-28T10:03:11Z</time>
      </trkpt>
      <trkpt lat="40.6199910" lon="-4.0331970">
        <ele>906.4</ele>
        <time>2019-04-28T10:04:20Z</time>
      </trkpt>
      <trkpt lat="40.6199730" lon="-4.0332100">
        <ele>906.6</ele>
        <time>2019-04-28T10:04:21Z</time>
      </trkpt>
      <trkpt lat="40.6199520" lon="-4.0332160">
        <ele>906.6</ele>
        <time>2019-04-28T10:04:22Z</time>
      </trkpt>
      <trkpt lat="40.6199250" lon="-4.0332220">
        <ele>906.6</ele>
        <time>2019-04-28T10:04:23Z</time>
      </trkpt>
      <trkpt lat="40.6199000" lon="-4.0332340">
        <ele>906.6</ele>
        <time>2019-04-28T10:04:24Z</time>
      </trkpt>
      <trkpt lat="40.6198680" lon="-4.0332510">
        <ele>906.6</ele>
        <time>2019-04-28T10:04:25Z</time>
      </trkpt>
      <trkpt lat="40.6198380" lon="-4.0332670">
        <ele>906.4</ele>
        <time>2019-04-28T10:04:26Z</time>
      </trkpt>
      <trkpt lat="40.6198090" lon="-4.0332850">
        <ele>906.2</ele>
        <time>2019-04-28T10:04:27Z</time>
      </trkpt>
      <trkpt lat="40.6197800" lon="-4.0333080">
        <ele>906.2</ele>
        <time>2019-04-28T10:04:28Z</time>
      </trkpt>
      <trkpt lat="40.6197500" lon="-4.0333290">
        <ele>906.0</ele>
        <time>2019-04-28T10:04:29Z</time>
      </trkpt>
      <trkpt lat="40.6197190" lon="-4.0333480">
        <ele>906.0</ele>
        <time>2019-04-28T10:04:30Z</time>
      </trkpt>
      <trkpt lat="40.6196900" lon="-4.0333660">
        <ele>906.0</ele>
        <time>2019-04-28T10:04:31Z</time>
      </trkpt>
      <trkpt lat="40.6196580" lon="-4.0333860">
        <ele>906.0</ele>
        <time>2019-04-28T10:04:32Z</time>
      </trkpt>
      <trkpt lat="40.6196280" lon="-4.0334080">
        <ele>905.8</ele>
        <time>2019-04-28T10:04:33Z</time>
      </trkpt>
      <trkpt lat="40.6195940" lon="-4.0334330">
        <ele>905.6</ele>
        <time>2019-04-28T10:04:34Z</time>
      </trkpt>
      <trkpt lat="40.6195590" lon="-4.0334620">
        <ele>905.6</ele>
        <time>2019-04-28T10:04:35Z</time>
      </trkpt>
      <trkpt lat="40.6195230" lon="-4.0334920">
        <ele>905.4</ele>
        <time>2019-04-28T10:04:36Z</time>
      </trkpt>
      <trkpt lat="40.6194830" lon="-4.0335230">
        <ele>905.2</ele>
        <time>2019-04-28T10:04:37Z</time>
      </trkpt>
      <trkpt lat="40.6194460" lon="-4.0335530">
        <ele>905.0</ele>
        <time>2019-04-28T10:04:38Z</time>
      </trkpt>
      <trkpt lat="40.6194070" lon="-4.0335860">
        <ele>905.0</ele>
        <time>2019-04-28T10:04:39Z</time>
      </trkpt>
      <trkpt lat="40.6193680" lon="-4.0336190">
        <ele>904.8</ele>
        <time>2019-04-28T10:04:40Z</time>
      </trkpt>
      <trkpt lat="40.6193310" lon="-4.0336540">
        <ele>904.6</ele>
        <time>2019-04-28T10:04:41Z</time>
      </trkpt>
      <trkpt lat="40.6192950" lon="-4.0336870">
        <ele>904.6</ele>
        <time>2019-04-28T10:04:42Z</time>
      </trkpt>
      <trkpt lat="40.6192610" lon="-4.0337230">
        <ele>904.4</ele>
        <time>2019-04-28T10:04:43Z</time>
      </trkpt>
      <trkpt lat="40.6192260" lon="-4.0337610">
        <ele>904.4</ele>
        <time>2019-04-28T10:04:44Z</time>
      </trkpt>
      <trkpt lat="40.6191920" lon="-4.0338040">
        <ele>904.4</ele>
        <time>2019-04-28T10:04:45Z</time>
      </trkpt>
      <trkpt lat="40.6191600" lon="-4.0338480">
        <ele>904.4</ele>
        <time>2019-04-28T10:04:46Z</time>
      </trkpt>
      <trkpt lat="40.6191290" lon="-4.0338910">
        <ele>904.4</ele>
        <time>2019-04-28T10:04:47Z</time>
      </trkpt>
      <trkpt lat="40.6190940" lon="-4.0339340">
        <ele>904.4</ele>
        <time>2019-04-28T10:04:48Z</time>
      </trkpt>
      <trkpt lat="40.6190570" lon="-4.0339760">
        <ele>904.4</ele>
        <time>2019-04-28T10:04:49Z</time>
      </trkpt>
      <trkpt lat="40.6190180" lon="-4.0340230">
        <ele>904.4</ele>
        <time>2019-04-28T10:04:50Z</time>
      </trkpt>
      <trkpt lat="40.6189820" lon="-4.0340720">
        <ele>904.2</ele>
        <time>2019-04-28T10:04:51Z</time>
      </trkpt>
      <trkpt lat="40.6189560" lon="-4.0341160">
        <ele>904.2</ele>
        <time>2019-04-28T10:04:52Z</time>
      </trkpt>
      <trkpt lat="40.6189290" lon="-4.0341590">
        <ele>904.2</ele>
        <time>2019-04-28T10:04:53Z</time>
      </trkpt>
      <trkpt lat="40.6189020" lon="-4.0342000">
        <ele>904.2</ele>
        <time>2019-04-28T10:04:54Z</time>
      </trkpt>
      <trkpt lat="40.6188730" lon="-4.0342450">
        <ele>904.2</ele>
        <time>2019-04-28T10:04:55Z</time>
      </trkpt>
      <trkpt lat="40.6188410" lon="-4.0342880">
        <ele>904.2</ele>
        <time>2019-04-28T10:04:56Z</time>
      </trkpt>
      <trkpt lat="40.6188050" lon="-4.0343310">
        <ele>904.2</ele>
        <time>2019-04-28T10:04:57Z</time>
      </trkpt>
      <trkpt lat="40.6187720" lon="-4.0343720">
        <ele>904.4</ele>
        <time>2019-04-28T10:04:58Z</time>
      </trkpt>
      <trkpt lat="40.6187380" lon="-4.0344130">
        <ele>904.6</ele>
        <time>2019-04-28T10:04:59Z</time>
      </trkpt>
      <trkpt lat="40.6187040" lon="-4.0344500">
        <ele>904.4</ele>
        <time>2019-04-28T10:05:00Z</time>
      </trkpt>
      <trkpt lat="40.6186740" lon="-4.0344830">
        <ele>904.4</ele>
        <time>2019-04-28T10:05:01Z</time>
      </trkpt>
      <trkpt lat="40.6186460" lon="-4.0345160">
        <ele>904.4</ele>
        <time>2019-04-28T10:05:02Z</time>
      </trkpt>
      <trkpt lat="40.6186130" lon="-4.0345430">
        <ele>904.4</ele>
        <time>2019-04-28T10:05:03Z</time>
      </trkpt>
      <trkpt lat="40.6185770" lon="-4.0345710">
        <ele>904.4</ele>
        <time>2019-04-28T10:05:04Z</time>
      </trkpt>
      <trkpt lat="40.6185410" lon="-4.0346070">
        <ele>904.6</ele>
        <time>2019-04-28T10:05:05Z</time>
      </trkpt>
      <trkpt lat="40.6185050" lon="-4.0346450">
        <ele>904.4</ele>
        <time>2019-04-28T10:05:06Z</time>
      </trkpt>
      <trkpt lat="40.6184680" lon="-4.0346820">
        <ele>904.4</ele>
        <time>2019-04-28T10:05:07Z</time>
      </trkpt>
      <trkpt lat="40.6184310" lon="-4.0347170">
        <ele>904.2</ele>
        <time>2019-04-28T10:05:08Z</time>
      </trkpt>
      <trkpt lat="40.6183940" lon="-4.0347500">
        <ele>904.4</ele>
        <time>2019-04-28T10:05:09Z</time>
      </trkpt>
      <trkpt lat="40.6183550" lon="-4.0347810">
        <ele>904.4</ele>
        <time>2019-04-28T10:05:10Z</time>
      </trkpt>
      <trkpt lat="40.6183120" lon="-4.0348090">
        <ele>904.2</ele>
        <time>2019-04-28T10:05:11Z</time>
      </trkpt>
      <trkpt lat="40.6182750" lon="-4.0348340">
        <ele>904.4</ele>
        <time>2019-04-28T10:05:12Z</time>
      </trkpt>
      <trkpt lat="40.6182370" lon="-4.0348600">
        <ele>904.2</ele>
        <time>2019-04-28T10:05:13Z</time>
      </trkpt>
      <trkpt lat="40.6182040" lon="-4.0348860">
        <ele>904.0</ele>
        <time>2019-04-28T10:05:14Z</time>
      </trkpt>
      <trkpt lat="40.6181720" lon="-4.0349100">
        <ele>904.0</ele>
        <time>2019-04-28T10:05:15Z</time>
      </trkpt>
      <trkpt lat="40.6181330" lon="-4.0349330">
        <ele>903.8</ele>
        <time>2019-04-28T10:05:16Z</time>
      </trkpt>
      <trkpt lat="40.6181070" lon="-4.0349510">
        <ele>903.6</ele>
        <time>2019-04-28T10:05:17Z</time>
      </trkpt>
      <trkpt lat="40.6180670" lon="-4.0349660">
        <ele>903.6</ele>
        <time>2019-04-28T10:05:18Z</time>
      </trkpt>
      <trkpt lat="40.6180430" lon="-4.0349740">
        <ele>903.6</ele>
        <time>2019-04-28T10:05:19Z</time>
      </trkpt>
      <trkpt lat="40.6180120" lon="-4.0349840">
        <ele>903.4</ele>
        <time>2019-04-28T10:05:20Z</time>
      </trkpt>
      <trkpt lat="40.6179780" lon="-4.0350000">
        <ele>903.4</ele>
        <time>2019-04-28T10:05:21Z</time>
      </trkpt>
      <trkpt lat="40.6179470" lon="-4.0350220">
        <ele>903.4</ele>
        <time>2019-04-28T10:05:22Z</time>
      </trkpt>
      <trkpt lat="40.6179120" lon="-4.0350480">
        <ele>903.6</ele>
        <time>2019-04-28T10:05:23Z</time>
      </trkpt>
      <trkpt lat="40.6178850" lon="-4.0350620">
        <ele>903.6</ele>
        <time>2019-04-28T10:05:24Z</time>
      </trkpt>
      <trkpt lat="40.6178480" lon="-4.0350830">
        <ele>903.6</ele>
        <time>2019-04-28T10:05:25Z</time>
      </trkpt>
      <trkpt lat="40.6177980" lon="-4.0351050">
        <ele>903.4</ele>
        <time>2019-04-28T10:05:26Z</time>
      </trkpt>
      <trkpt lat="40.6177550" lon="-4.0351280">
        <ele>903.6</ele>
        <time>2019-04-28T10:05:27Z</time>
      </trkpt>
      <trkpt lat="40.6177160" lon="-4.0351500">
        <ele>903.6</ele>
        <time>2019-04-28T10:05:28Z</time>
      </trkpt>
      <trkpt lat="40.6176730" lon="-4.0351680">
        <ele>903.4</ele>
        <time>2019-04-28T10:05:29Z</time>
      </trkpt>
      <trkpt lat="40.6176260" lon="-4.0351910">
        <ele>903.4</ele>
        <time>2019-04-28T10:05:30Z</time>
      </trkpt>
      <trkpt lat="40.6175660" lon="-4.0352090">
        <ele>903.4</ele>
        <time>2019-04-28T10:05:31Z</time>
      </trkpt>
      <trkpt lat="40.6175080" lon="-4.0352230">
        <ele>903.2</ele>
        <time>2019-04-28T10:05:32Z</time>
      </trkpt>
      <trkpt lat="40.6174450" lon="-4.0352270">
        <ele>903.0</ele>
        <time>2019-04-28T10:05:33Z</time>
      </trkpt>
      <trkpt lat="40.6173790" lon="-4.0352320">
        <ele>903.0</ele>
        <time>2019-04-28T10:05:34Z</time>
      </trkpt>
      <trkpt lat="40.6173110" lon="-4.0352300">
        <ele>902.8</ele>
        <time>2019-04-28T10:05:35Z</time>
      </trkpt>
      <trkpt lat="40.6172450" lon="-4.0352260">
        <ele>902.8</ele>
        <time>2019-04-28T10:05:36Z</time>
      </trkpt>
      <trkpt lat="40.6171560" lon="-4.0352310">
        <ele>902.4</ele>
        <time>2019-04-28T10:05:37Z</time>
      </trkpt>
      <trkpt lat="40.6170850" lon="-4.0352340">
        <ele>902.2</ele>
        <time>2019-04-28T10:05:38Z</time>
      </trkpt>
      <trkpt lat="40.6170190" lon="-4.0352410">
        <ele>902.2</ele>
        <time>2019-04-28T10:05:39Z</time>
      </trkpt>
      <trkpt lat="40.6169530" lon="-4.0352500">
        <ele>902.2</ele>
        <time>2019-04-28T10:05:40Z</time>
      </trkpt>
      <trkpt lat="40.6168900" lon="-4.0352600">
        <ele>901.8</ele>
        <time>2019-04-28T10:05:41Z</time>
      </trkpt>
      <trkpt lat="40.6168280" lon="-4.0352660">
        <ele>901.8</ele>
        <time>2019-04-28T10:05:42Z</time>
      </trkpt>
      <trkpt lat="40.6167650" lon="-4.0352760">
        <ele>901.6</ele>
        <time>2019-04-28T10:05:43Z</time>
      </trkpt>
      <trkpt lat="40.6167060" lon="-4.0352920">
        <ele>901.4</ele>
        <time>2019-04-28T10:05:44Z</time>
      </trkpt>
      <trkpt lat="40.6166500" lon="-4.0353150">
        <ele>901.4</ele>
        <time>2019-04-28T10:05:45Z</time>
      </trkpt>
      <trkpt lat="40.6165960" lon="-4.0353390">
        <ele>901.4</ele>
        <time>2019-04-28T10:05:46Z</time>
      </trkpt>
      <trkpt lat="40.6165390" lon="-4.0353590">
        <ele>901.4</ele>
        <time>2019-04-28T10:05:47Z</time>
      </trkpt>
      <trkpt lat="40.6164880" lon="-4.0353820">
        <ele>901.4</ele>
        <time>2019-04-28T10:05:48Z</time>
      </trkpt>
      <trkpt lat="40.6164370" lon="-4.0354010">
        <ele>901.6</ele>
        <time>2019-04-28T10:05:49Z</time>
      </trkpt>
      <trkpt lat="40.6163790" lon="-4.0354170">
        <ele>901.6</ele>
        <time>2019-04-28T10:05:50Z</time>
      </trkpt>
      <trkpt lat="40.6163210" lon="-4.0354320">
        <ele>901.6</ele>
        <time>2019-04-28T10:05:51Z</time>
      </trkpt>
      <trkpt lat="40.6162710" lon="-4.0354380">
        <ele>901.8</ele>
        <time>2019-04-28T10:05:52Z</time>
      </trkpt>
      <trkpt lat="40.6162210" lon="-4.0354440">
        <ele>902.2</ele>
        <time>2019-04-28T10:05:53Z</time>
      </trkpt>
      <trkpt lat="40.6161740" lon="-4.0354540">
        <ele>902.4</ele>
        <time>2019-04-28T10:05:54Z</time>
      </trkpt>
      <trkpt lat="40.6161260" lon="-4.0354630">
        <ele>902.6</ele>
        <time>2019-04-28T10:05:55Z</time>
      </trkpt>
      <trkpt lat="40.6160780" lon="-4.0354740">
        <ele>903.0</ele>
        <time>2019-04-28T10:05:56Z</time>
      </trkpt>
      <trkpt lat="40.6160340" lon="-4.0354830">
        <ele>903.4</ele>
        <time>2019-04-28T10:05:57Z</time>
      </trkpt>
      <trkpt lat="40.6159940" lon="-4.0354890">
        <ele>903.6</ele>
        <time>2019-04-28T10:05:58Z</time>
      </trkpt>
      <trkpt lat="40.6159570" lon="-4.0354910">
        <ele>904.0</ele>
        <time>2019-04-28T10:05:59Z</time>
      </trkpt>
      <trkpt lat="40.6159160" lon="-4.0354940">
        <ele>904.2</ele>
        <time>2019-04-28T10:06:00Z</time>
      </trkpt>
      <trkpt lat="40.6158790" lon="-4.0354950">
        <ele>904.6</ele>
        <time>2019-04-28T10:06:01Z</time>
      </trkpt>
      <trkpt lat="40.6158460" lon="-4.0354950">
        <ele>904.8</ele>
        <time>2019-04-28T10:06:02Z</time>
      </trkpt>
      <trkpt lat="40.6158110" lon="-4.0354980">
        <ele>905.0</ele>
        <time>2019-04-28T10:06:03Z</time>
      </trkpt>
      <trkpt lat="40.6157760" lon="-4.0355020">
        <ele>905.4</ele>
        <time>2019-04-28T10:06:04Z</time>
      </trkpt>
      <trkpt lat="40.6157420" lon="-4.0355070">
        <ele>905.6</ele>
        <time>2019-04-28T10:06:05Z</time>
      </trkpt>
      <trkpt lat="40.6157100" lon="-4.0355120">
        <ele>905.8</ele>
        <time>2019-04-28T10:06:06Z</time>
      </trkpt>
      <trkpt lat="40.6156810" lon="-4.0355160">
        <ele>906.0</ele>
        <time>2019-04-28T10:06:07Z</time>
      </trkpt>
      <trkpt lat="40.6156550" lon="-4.0355170">
        <ele>906.2</ele>
        <time>2019-04-28T10:06:08Z</time>
      </trkpt>
      <trkpt lat="40.6156260" lon="-4.0355180">
        <ele>906.6</ele>
        <time>2019-04-28T10:06:09Z</time>
      </trkpt>
      <trkpt lat="40.6155890" lon="-4.0355280">
        <ele>906.6</ele>
        <time>2019-04-28T10:06:10Z</time>
      </trkpt>
      <trkpt lat="40.6155600" lon="-4.0355330">
        <ele>906.8</ele>
        <time>2019-04-28T10:06:11Z</time>
      </trkpt>
      <trkpt lat="40.6155290" lon="-4.0355390">
        <ele>907.0</ele>
        <time>2019-04-28T10:06:12Z</time>
      </trkpt>
      <trkpt lat="40.6154990" lon="-4.0355430">
        <ele>907.2</ele>
        <time>2019-04-28T10:06:13Z</time>
      </trkpt>
      <trkpt lat="40.6154670" lon="-4.0355460">
        <ele>907.2</ele>
        <time>2019-04-28T10:06:14Z</time>
      </trkpt>
      <trkpt lat="40.6154300" lon="-4.0355480">
        <ele>907.2</ele>
        <time>2019-04-28T10:06:15Z</time>
      </trkpt>
      <trkpt lat="40.6153940" lon="-4.0355510">
        <ele>907.2</ele>
        <time>2019-04-28T10:06:16Z</time>
      </trkpt>
      <trkpt lat="40.6153600" lon="-4.0355580">
        <ele>907.2</ele>
        <time>2019-04-28T10:06:17Z</time>
      </trkpt>
      <trkpt lat="40.6153220" lon="-4.0355640">
        <ele>907.2</ele>
        <time>2019-04-28T10:06:18Z</time>
      </trkpt>
      <trkpt lat="40.6152840" lon="-4.0355720">
        <ele>907.2</ele>
        <time>2019-04-28T10:06:19Z</time>
      </trkpt>
      <trkpt lat="40.6152470" lon="-4.0355820">
        <ele>907.0</ele>
        <time>2019-04-28T10:06:20Z</time>
      </trkpt>
      <trkpt lat="40.6152100" lon="-4.0355930">
        <ele>907.0</ele>
        <time>2019-04-28T10:06:21Z</time>
      </trkpt>
      <trkpt lat="40.6151710" lon="-4.0356040">
        <ele>907.0</ele>
        <time>2019-04-28T10:06:22Z</time>
      </trkpt>
      <trkpt lat="40.6151300" lon="-4.0356190">
        <ele>906.6</ele>
        <time>2019-04-28T10:06:23Z</time>
      </trkpt>
      <trkpt lat="40.6150910" lon="-4.0356400">
        <ele>906.4</ele>
        <time>2019-04-28T10:06:24Z</time>
      </trkpt>
      <trkpt lat="40.6150480" lon="-4.0356670">
        <ele>906.2</ele>
        <time>2019-04-28T10:06:25Z</time>
      </trkpt>
      <trkpt lat="40.6150020" lon="-4.0356970">
        <ele>905.8</ele>
        <time>2019-04-28T10:06:26Z</time>
      </trkpt>
      <trkpt lat="40.6149560" lon="-4.0357320">
        <ele>905.4</ele>
        <time>2019-04-28T10:06:27Z</time>
      </trkpt>
      <trkpt lat="40.6149090" lon="-4.0357690">
        <ele>905.2</ele>
        <time>2019-04-28T10:06:28Z</time>
      </trkpt>
      <trkpt lat="40.6148640" lon="-4.0358070">
        <ele>904.8</ele>
        <time>2019-04-28T10:06:29Z</time>
      </trkpt>
      <trkpt lat="40.6148200" lon="-4.0358470">
        <ele>904.4</ele>
        <time>2019-04-28T10:06:30Z</time>
      </trkpt>
      <trkpt lat="40.6147780" lon="-4.0358890">
        <ele>904.0</ele>
        <time>2019-04-28T10:06:31Z</time>
      </trkpt>
      <trkpt lat="40.6147360" lon="-4.0359380">
        <ele>903.6</ele>
        <time>2019-04-28T10:06:32Z</time>
      </trkpt>
      <trkpt lat="40.6146930" lon="-4.0359940">
        <ele>903.2</ele>
        <time>2019-04-28T10:06:33Z</time>
      </trkpt>
      <trkpt lat="40.6146510" lon="-4.0360490">
        <ele>903.0</ele>
        <time>2019-04-28T10:06:34Z</time>
      </trkpt>
      <trkpt lat="40.6146070" lon="-4.0360980">
        <ele>902.8</ele>
        <time>2019-04-28T10:06:35Z</time>
      </trkpt>
      <trkpt lat="40.6145540" lon="-4.0361500">
        <ele>902.4</ele>
        <time>2019-04-28T10:06:36Z</time>
      </trkpt>
      <trkpt lat="40.6144950" lon="-4.0362020">
        <ele>902.4</ele>
        <time>2019-04-28T10:06:37Z</time>
      </trkpt>
      <trkpt lat="40.6144350" lon="-4.0362490">
        <ele>902.2</ele>
        <time>2019-04-28T10:06:38Z</time>
      </trkpt>
      <trkpt lat="40.6143710" lon="-4.0362910">
        <ele>902.2</ele>
        <time>2019-04-28T10:06:39Z</time>
      </trkpt>
      <trkpt lat="40.6143020" lon="-4.0363280">
        <ele>902.0</ele>
        <time>2019-04-28T10:06:40Z</time>
      </trkpt>
      <trkpt lat="40.6142310" lon="-4.0363560">
        <ele>902.0</ele>
        <time>2019-04-28T10:06:41Z</time>
      </trkpt>
      <trkpt lat="40.6141590" lon="-4.0363810">
        <ele>902.0</ele>
        <time>2019-04-28T10:06:42Z</time>
      </trkpt>
      <trkpt lat="40.6140900" lon="-4.0364010">
        <ele>902.0</ele>
        <time>2019-04-28T10:06:43Z</time>
      </trkpt>
      <trkpt lat="40.6140230" lon="-4.0364120">
        <ele>901.8</ele>
        <time>2019-04-28T10:06:44Z</time>
      </trkpt>
      <trkpt lat="40.6139590" lon="-4.0364220">
        <ele>901.8</ele>
        <time>2019-04-28T10:06:45Z</time>
      </trkpt>
      <trkpt lat="40.6138970" lon="-4.0364340">
        <ele>901.8</ele>
        <time>2019-04-28T10:06:46Z</time>
      </trkpt>
      <trkpt lat="40.6138350" lon="-4.0364450">
        <ele>901.8</ele>
        <time>2019-04-28T10:06:47Z</time>
      </trkpt>
      <trkpt lat="40.6137730" lon="-4.0364540">
        <ele>901.8</ele>
        <time>2019-04-28T10:06:48Z</time>
      </trkpt>
      <trkpt lat="40.6137130" lon="-4.0364610">
        <ele>902.0</ele>
        <time>2019-04-28T10:06:49Z</time>
      </trkpt>
      <trkpt lat="40.6136540" lon="-4.0364680">
        <ele>902.2</ele>
        <time>2019-04-28T10:06:50Z</time>
      </trkpt>
      <trkpt lat="40.6136010" lon="-4.0364700">
        <ele>902.2</ele>
        <time>2019-04-28T10:06:51Z</time>
      </trkpt>
      <trkpt lat="40.6135450" lon="-4.0364720">
        <ele>902.2</ele>
        <time>2019-04-28T10:06:52Z</time>
      </trkpt>
      <trkpt lat="40.6134890" lon="-4.0364680">
        <ele>902.2</ele>
        <time>2019-04-28T10:06:53Z</time>
      </trkpt>
      <trkpt lat="40.6134330" lon="-4.0364580">
        <ele>902.2</ele>
        <time>2019-04-28T10:06:54Z</time>
      </trkpt>
      <trkpt lat="40.6133730" lon="-4.0364470">
        <ele>902.2</ele>
        <time>2019-04-28T10:06:55Z</time>
      </trkpt>
      <trkpt lat="40.6133130" lon="-4.0364360">
        <ele>902.2</ele>
        <time>2019-04-28T10:06:56Z</time>
      </trkpt>
      <trkpt lat="40.6132550" lon="-4.0364210">
        <ele>902.0</ele>
        <time>2019-04-28T10:06:57Z</time>
      </trkpt>
      <trkpt lat="40.6131970" lon="-4.0364060">
        <ele>902.0</ele>
        <time>2019-04-28T10:06:58Z</time>
      </trkpt>
      <trkpt lat="40.6131430" lon="-4.0363950">
        <ele>902.0</ele>
        <time>2019-04-28T10:06:59Z</time>
      </trkpt>
      <trkpt lat="40.6130890" lon="-4.0363910">
        <ele>902.0</ele>
        <time>2019-04-28T10:07:00Z</time>
      </trkpt>
      <trkpt lat="40.6130330" lon="-4.0363870">
        <ele>902.0</ele>
        <time>2019-04-28T10:07:01Z</time>
      </trkpt>
      <trkpt lat="40.6129770" lon="-4.0363780">
        <ele>902.2</ele>
        <time>2019-04-28T10:07:02Z</time>
      </trkpt>
      <trkpt lat="40.6129210" lon="-4.0363700">
        <ele>902.2</ele>
        <time>2019-04-28T10:07:03Z</time>
      </trkpt>
      <trkpt lat="40.6128650" lon="-4.0363700">
        <ele>902.2</ele>
        <time>2019-04-28T10:07:04Z</time>
      </trkpt>
      <trkpt lat="40.6128090" lon="-4.0363740">
        <ele>902.2</ele>
        <time>2019-04-28T10:07:05Z</time>
      </trkpt>
      <trkpt lat="40.6127540" lon="-4.0363760">
        <ele>902.4</ele>
        <time>2019-04-28T10:07:06Z</time>
      </trkpt>
      <trkpt lat="40.6127000" lon="-4.0363790">
        <ele>902.4</ele>
        <time>2019-04-28T10:07:07Z</time>
      </trkpt>
      <trkpt lat="40.6126470" lon="-4.0363860">
        <ele>902.6</ele>
        <time>2019-04-28T10:07:08Z</time>
      </trkpt>
      <trkpt lat="40.6125970" lon="-4.0363940">
        <ele>902.8</ele>
        <time>2019-04-28T10:07:09Z</time>
      </trkpt>
      <trkpt lat="40.6125480" lon="-4.0363980">
        <ele>903.0</ele>
        <time>2019-04-28T10:07:10Z</time>
      </trkpt>
      <trkpt lat="40.6125000" lon="-4.0364020">
        <ele>903.2</ele>
        <time>2019-04-28T10:07:11Z</time>
      </trkpt>
      <trkpt lat="40.6124530" lon="-4.0364030">
        <ele>903.4</ele>
        <time>2019-04-28T10:07:12Z</time>
      </trkpt>
      <trkpt lat="40.6124050" lon="-4.0364010">
        <ele>903.6</ele>
        <time>2019-04-28T10:07:13Z</time>
      </trkpt>
      <trkpt lat="40.6123540" lon="-4.0364030">
        <ele>903.6</ele>
        <time>2019-04-28T10:07:14Z</time>
      </trkpt>
      <trkpt lat="40.6123010" lon="-4.0364080">
        <ele>903.8</ele>
        <time>2019-04-28T10:07:15Z</time>
      </trkpt>
      <trkpt lat="40.6122470" lon="-4.0364130">
        <ele>903.8</ele>
        <time>2019-04-28T10:07:16Z</time>
      </trkpt>
      <trkpt lat="40.6121930" lon="-4.0364110">
        <ele>904.0</ele>
        <time>2019-04-28T10:07:17Z</time>
      </trkpt>
      <trkpt lat="40.6121380" lon="-4.0364140">
        <ele>904.4</ele>
        <time>2019-04-28T10:07:18Z</time>
      </trkpt>
      <trkpt lat="40.6120820" lon="-4.0364230">
        <ele>904.6</ele>
        <time>2019-04-28T10:07:19Z</time>
      </trkpt>
      <trkpt lat="40.6120270" lon="-4.0364340">
        <ele>905.0</ele>
        <time>2019-04-28T10:07:20Z</time>
      </trkpt>
      <trkpt lat="40.6119740" lon="-4.0364460">
        <ele>905.4</ele>
        <time>2019-04-28T10:07:21Z</time>
      </trkpt>
      <trkpt lat="40.6119240" lon="-4.0364570">
        <ele>905.6</ele>
        <time>2019-04-28T10:07:22Z</time>
      </trkpt>
      <trkpt lat="40.6118700" lon="-4.0364660">
        <ele>906.0</ele>
        <time>2019-04-28T10:07:23Z</time>
      </trkpt>
      <trkpt lat="40.6118190" lon="-4.0364710">
        <ele>906.6</ele>
        <time>2019-04-28T10:07:24Z</time>
      </trkpt>
      <trkpt lat="40.6117700" lon="-4.0364790">
        <ele>906.8</ele>
        <time>2019-04-28T10:07:25Z</time>
      </trkpt>
      <trkpt lat="40.6117240" lon="-4.0364920">
        <ele>907.2</ele>
        <time>2019-04-28T10:07:26Z</time>
      </trkpt>
      <trkpt lat="40.6116800" lon="-4.0365090">
        <ele>907.4</ele>
        <time>2019-04-28T10:07:27Z</time>
      </trkpt>
      <trkpt lat="40.6116370" lon="-4.0365280">
        <ele>907.6</ele>
        <time>2019-04-28T10:07:28Z</time>
      </trkpt>
      <trkpt lat="40.6115960" lon="-4.0365480">
        <ele>907.8</ele>
        <time>2019-04-28T10:07:29Z</time>
      </trkpt>
      <trkpt lat="40.6115590" lon="-4.0365690">
        <ele>908.2</ele>
        <time>2019-04-28T10:07:30Z</time>
      </trkpt>
      <trkpt lat="40.6115250" lon="-4.0365890">
        <ele>908.4</ele>
        <time>2019-04-28T10:07:31Z</time>
      </trkpt>
      <trkpt lat="40.6114900" lon="-4.0366030">
        <ele>908.8</ele>
        <time>2019-04-28T10:07:32Z</time>
      </trkpt>
      <trkpt lat="40.6114540" lon="-4.0366200">
        <ele>909.0</ele>
        <time>2019-04-28T10:07:33Z</time>
      </trkpt>
      <trkpt lat="40.6114240" lon="-4.0366400">
        <ele>909.4</ele>
        <time>2019-04-28T10:07:34Z</time>
      </trkpt>
      <trkpt lat="40.6113940" lon="-4.0366610">
        <ele>909.8</ele>
        <time>2019-04-28T10:07:35Z</time>
      </trkpt>
      <trkpt lat="40.6113650" lon="-4.0366830">
        <ele>910.2</ele>
        <time>2019-04-28T10:07:36Z</time>
      </trkpt>
      <trkpt lat="40.6113320" lon="-4.0367030">
        <ele>910.4</ele>
        <time>2019-04-28T10:07:37Z</time>
      </trkpt>
      <trkpt lat="40.6113020" lon="-4.0367230">
        <ele>910.6</ele>
        <time>2019-04-28T10:07:38Z</time>
      </trkpt>
      <trkpt lat="40.6112720" lon="-4.0367450">
        <ele>910.6</ele>
        <time>2019-04-28T10:07:39Z</time>
      </trkpt>
      <trkpt lat="40.6112460" lon="-4.0367640">
        <ele>910.8</ele>
        <time>2019-04-28T10:07:40Z</time>
      </trkpt>
      <trkpt lat="40.6112210" lon="-4.0367830">
        <ele>910.8</ele>
        <time>2019-04-28T10:07:41Z</time>
      </trkpt>
      <trkpt lat="40.6111970" lon="-4.0368040">
        <ele>910.8</ele>
        <time>2019-04-28T10:07:42Z</time>
      </trkpt>
      <trkpt lat="40.6111740" lon="-4.0368270">
        <ele>910.8</ele>
        <time>2019-04-28T10:07:43Z</time>
      </trkpt>
      <trkpt lat="40.6111510" lon="-4.0368520">
        <ele>911.0</ele>
        <time>2019-04-28T10:07:44Z</time>
      </trkpt>
      <trkpt lat="40.6111230" lon="-4.0368810">
        <ele>911.0</ele>
        <time>2019-04-28T10:07:45Z</time>
      </trkpt>
      <trkpt lat="40.6110930" lon="-4.0369110">
        <ele>911.0</ele>
        <time>2019-04-28T10:07:46Z</time>
      </trkpt>
      <trkpt lat="40.6110610" lon="-4.0369420">
        <ele>911.0</ele>
        <time>2019-04-28T10:07:47Z</time>
      </trkpt>
      <trkpt lat="40.6110300" lon="-4.0369720">
        <ele>911.0</ele>
        <time>2019-04-28T10:07:48Z</time>
      </trkpt>
      <trkpt lat="40.6110000" lon="-4.0370030">
        <ele>910.8</ele>
        <time>2019-04-28T10:07:49Z</time>
      </trkpt>
      <trkpt lat="40.6109730" lon="-4.0370320">
        <ele>910.8</ele>
        <time>2019-04-28T10:07:50Z</time>
      </trkpt>
      <trkpt lat="40.6109450" lon="-4.0370560">
        <ele>911.0</ele>
        <time>2019-04-28T10:07:51Z</time>
      </trkpt>
      <trkpt lat="40.6109170" lon="-4.0370740">
        <ele>910.8</ele>
        <time>2019-04-28T10:07:52Z</time>
      </trkpt>
      <trkpt lat="40.6108880" lon="-4.0370890">
        <ele>910.8</ele>
        <time>2019-04-28T10:07:53Z</time>
      </trkpt>
      <trkpt lat="40.6108600" lon="-4.0371030">
        <ele>910.8</ele>
        <time>2019-04-28T10:07:54Z</time>
      </trkpt>
      <trkpt lat="40.6108320" lon="-4.0371150">
        <ele>911.0</ele>
        <time>2019-04-28T10:07:55Z</time>
      </trkpt>
      <trkpt lat="40.6108050" lon="-4.0371280">
        <ele>910.8</ele>
        <time>2019-04-28T10:07:56Z</time>
      </trkpt>
      <trkpt lat="40.6107800" lon="-4.0371420">
        <ele>910.8</ele>
        <time>2019-04-28T10:07:57Z</time>
      </trkpt>
      <trkpt lat="40.6107550" lon="-4.0371520">
        <ele>910.8</ele>
        <time>2019-04-28T10:07:58Z</time>
      </trkpt>
      <trkpt lat="40.6107300" lon="-4.0371600">
        <ele>910.8</ele>
        <time>2019-04-28T10:07:59Z</time>
      </trkpt>
      <trkpt lat="40.6107030" lon="-4.0371680">
        <ele>910.8</ele>
        <time>2019-04-28T10:08:00Z</time>
      </trkpt>
      <trkpt lat="40.6106810" lon="-4.0371820">
        <ele>910.6</ele>
        <time>2019-04-28T10:08:01Z</time>
      </trkpt>
      <trkpt lat="40.6106550" lon="-4.0371900">
        <ele>910.8</ele>
        <time>2019-04-28T10:08:02Z</time>
      </trkpt>
      <trkpt lat="40.6106300" lon="-4.0372030">
        <ele>910.6</ele>
        <time>2019-04-28T10:08:03Z</time>
      </trkpt>
      <trkpt lat="40.6106040" lon="-4.0372200">
        <ele>910.6</ele>
        <time>2019-04-28T10:08:04Z</time>
      </trkpt>
      <trkpt lat="40.6105820" lon="-4.0372370">
        <ele>910.6</ele>
        <time>2019-04-28T10:08:05Z</time>
      </trkpt>
      <trkpt lat="40.6105600" lon="-4.0372500">
        <ele>910.6</ele>
        <time>2019-04-28T10:08:06Z</time>
      </trkpt>
      <trkpt lat="40.6105390" lon="-4.0372580">
        <ele>910.6</ele>
        <time>2019-04-28T10:08:07Z</time>
      </trkpt>
      <trkpt lat="40.6105160" lon="-4.0372650">
        <ele>910.6</ele>
        <time>2019-04-28T10:08:08Z</time>
      </trkpt>
      <trkpt lat="40.6104920" lon="-4.0372760">
        <ele>910.6</ele>
        <time>2019-04-28T10:08:09Z</time>
      </trkpt>
      <trkpt lat="40.6104710" lon="-4.0372880">
        <ele>910.4</ele>
        <time>2019-04-28T10:08:10Z</time>
      </trkpt>
      <trkpt lat="40.6104550" lon="-4.0373020">
        <ele>910.6</ele>
        <time>2019-04-28T10:08:11Z</time>
      </trkpt>
      <trkpt lat="40.6104390" lon="-4.0373140">
        <ele>910.4</ele>
        <time>2019-04-28T10:08:12Z</time>
      </trkpt>
      <trkpt lat="40.6104260" lon="-4.0373220">
        <ele>910.4</ele>
        <time>2019-04-28T10:08:13Z</time>
      </trkpt>
      <trkpt lat="40.6104200" lon="-4.0373230">
        <ele>910.4</ele>
        <time>2019-04-28T10:08:14Z</time>
      </trkpt>
      <trkpt lat="40.6104190" lon="-4.0373220">
        <ele>910.4</ele>
        <time>2019-04-28T10:08:15Z</time>
      </trkpt>
      <trkpt lat="40.6104170" lon="-4.0373230">
        <ele>910.2</ele>
        <time>2019-04-28T10:08:16Z</time>
      </trkpt>
      <trkpt lat="40.6104130" lon="-4.0373210">
        <ele>910.2</ele>
        <time>2019-04-28T10:08:17Z</time>
      </trkpt>
      <trkpt lat="40.6104110" lon="-4.0373210">
        <ele>910.2</ele>
        <time>2019-04-28T10:08:18Z</time>
      </trkpt>
      <trkpt lat="40.6104100" lon="-4.0373210">
        <ele>910.2</ele>
        <time>2019-04-28T10:08:19Z</time>
      </trkpt>
      <trkpt lat="40.6104080" lon="-4.0373200">
        <ele>910.2</ele>
        <time>2019-04-28T10:08:20Z</time>
      </trkpt>
      <trkpt lat="40.6104070" lon="-4.0373200">
        <ele>910.2</ele>
        <time>2019-04-28T10:08:21Z</time>
      </trkpt>
      <trkpt lat="40.6101750" lon="-4.0374840">
        <ele>910.8</ele>
        <time>2019-04-28T10:08:37Z</time>
      </trkpt>
      <trkpt lat="40.6101340" lon="-4.0375040">
        <ele>910.8</ele>
        <time>2019-04-28T10:08:38Z</time>
      </trkpt>
      <trkpt lat="40.6100970" lon="-4.0375280">
        <ele>910.8</ele>
        <time>2019-04-28T10:08:39Z</time>
      </trkpt>
      <trkpt lat="40.6100690" lon="-4.0375540">
        <ele>910.8</ele>
        <time>2019-04-28T10:08:40Z</time>
      </trkpt>
      <trkpt lat="40.6100340" lon="-4.0375810">
        <ele>910.8</ele>
        <time>2019-04-28T10:08:41Z</time>
      </trkpt>
      <trkpt lat="40.6099990" lon="-4.0376010">
        <ele>910.4</ele>
        <time>2019-04-28T10:08:42Z</time>
      </trkpt>
      <trkpt lat="40.6099610" lon="-4.0376140">
        <ele>910.4</ele>
        <time>2019-04-28T10:08:43Z</time>
      </trkpt>
      <trkpt lat="40.6099240" lon="-4.0376200">
        <ele>910.2</ele>
        <time>2019-04-28T10:08:44Z</time>
      </trkpt>
      <trkpt lat="40.6098880" lon="-4.0376150">
        <ele>909.8</ele>
        <time>2019-04-28T10:08:45Z</time>
      </trkpt>
      <trkpt lat="40.6098470" lon="-4.0376020">
        <ele>909.6</ele>
        <time>2019-04-28T10:08:46Z</time>
      </trkpt>
      <trkpt lat="40.6098030" lon="-4.0375830">
        <ele>909.2</ele>
        <time>2019-04-28T10:08:47Z</time>
      </trkpt>
      <trkpt lat="40.6097560" lon="-4.0375580">
        <ele>908.8</ele>
        <time>2019-04-28T10:08:48Z</time>
      </trkpt>
      <trkpt lat="40.6097100" lon="-4.0375230">
        <ele>908.6</ele>
        <time>2019-04-28T10:08:49Z</time>
      </trkpt>
      <trkpt lat="40.6096610" lon="-4.0374880">
        <ele>908.2</ele>
        <time>2019-04-28T10:08:50Z</time>
      </trkpt>
      <trkpt lat="40.6096120" lon="-4.0374540">
        <ele>908.0</ele>
        <time>2019-04-28T10:08:51Z</time>
      </trkpt>
      <trkpt lat="40.6095600" lon="-4.0374170">
        <ele>907.8</ele>
        <time>2019-04-28T10:08:52Z</time>
      </trkpt>
      <trkpt lat="40.6095060" lon="-4.0373850">
        <ele>907.6</ele>
        <time>2019-04-28T10:08:53Z</time>
      </trkpt>
      <trkpt lat="40.6094480" lon="-4.0373580">
        <ele>907.4</ele>
        <time>2019-04-28T10:08:54Z</time>
      </trkpt>
      <trkpt lat="40.6093910" lon="-4.0373440">
        <ele>907.2</ele>
        <time>2019-04-28T10:08:55Z</time>
      </trkpt>
      <trkpt lat="40.6093340" lon="-4.0373370">
        <ele>907.0</ele>
        <time>2019-04-28T10:08:56Z</time>
      </trkpt>
      <trkpt lat="40.6092760" lon="-4.0373380">
        <ele>906.8</ele>
        <time>2019-04-28T10:08:57Z</time>
      </trkpt>
      <trkpt lat="40.6092210" lon="-4.0373540">
        <ele>906.8</ele>
        <time>2019-04-28T10:08:58Z</time>
      </trkpt>
      <trkpt lat="40.6091700" lon="-4.0373720">
        <ele>906.6</ele>
        <time>2019-04-28T10:08:59Z</time>
      </trkpt>
      <trkpt lat="40.6091170" lon="-4.0373850">
        <ele>906.6</ele>
        <time>2019-04-28T10:09:00Z</time>
      </trkpt>
      <trkpt lat="40.6090670" lon="-4.0373930">
        <ele>906.6</ele>
        <time>2019-04-28T10:09:01Z</time>
      </trkpt>
      <trkpt lat="40.6090190" lon="-4.0373980">
        <ele>906.6</ele>
        <time>2019-04-28T10:09:02Z</time>
      </trkpt>
      <trkpt lat="40.6089730" lon="-4.0373950">
        <ele>906.6</ele>
        <time>2019-04-28T10:09:03Z</time>
      </trkpt>
      <trkpt lat="40.6089270" lon="-4.0373980">
        <ele>906.6</ele>
        <time>2019-04-28T10:09:04Z</time>
      </trkpt>
      <trkpt lat="40.6088830" lon="-4.0374060">
        <ele>906.6</ele>
        <time>2019-04-28T10:09:05Z</time>
      </trkpt>
      <trkpt lat="40.6088380" lon="-4.0374240">
        <ele>906.6</ele>
        <time>2019-04-28T10:09:06Z</time>
      </trkpt>
      <trkpt lat="40.6087940" lon="-4.0374460">
        <ele>906.6</ele>
        <time>2019-04-28T10:09:07Z</time>
      </trkpt>
      <trkpt lat="40.6087490" lon="-4.0374630">
        <ele>906.8</ele>
        <time>2019-04-28T10:09:08Z</time>
      </trkpt>
      <trkpt lat="40.6087060" lon="-4.0374790">
        <ele>906.8</ele>
        <time>2019-04-28T10:09:09Z</time>
      </trkpt>
      <trkpt lat="40.6086650" lon="-4.0374940">
        <ele>906.8</ele>
        <time>2019-04-28T10:09:10Z</time>
      </trkpt>
      <trkpt lat="40.6086230" lon="-4.0375100">
        <ele>906.8</ele>
        <time>2019-04-28T10:09:11Z</time>
      </trkpt>
      <trkpt lat="40.6085790" lon="-4.0375250">
        <ele>906.8</ele>
        <time>2019-04-28T10:09:12Z</time>
      </trkpt>
      <trkpt lat="40.6085350" lon="-4.0375380">
        <ele>906.8</ele>
        <time>2019-04-28T10:09:13Z</time>
      </trkpt>
      <trkpt lat="40.6084910" lon="-4.0375510">
        <ele>907.0</ele>
        <time>2019-04-28T10:09:14Z</time>
      </trkpt>
      <trkpt lat="40.6084480" lon="-4.0375600">
        <ele>907.2</ele>
        <time>2019-04-28T10:09:15Z</time>
      </trkpt>
      <trkpt lat="40.6084030" lon="-4.0375660">
        <ele>907.2</ele>
        <time>2019-04-28T10:09:16Z</time>
      </trkpt>
      <trkpt lat="40.6083590" lon="-4.0375740">
        <ele>907.2</ele>
        <time>2019-04-28T10:09:17Z</time>
      </trkpt>
      <trkpt lat="40.6083160" lon="-4.0375860">
        <ele>907.4</ele>
        <time>2019-04-28T10:09:18Z</time>
      </trkpt>
      <trkpt lat="40.6082740" lon="-4.0375960">
        <ele>907.4</ele>
        <time>2019-04-28T10:09:19Z</time>
      </trkpt>
      <trkpt lat="40.6082320" lon="-4.0376050">
        <ele>907.6</ele>
        <time>2019-04-28T10:09:20Z</time>
      </trkpt>
      <trkpt lat="40.6081910" lon="-4.0376130">
        <ele>907.6</ele>
        <time>2019-04-28T10:09:21Z</time>
      </trkpt>
      <trkpt lat="40.6081500" lon="-4.0376230">
        <ele>907.6</ele>
        <time>2019-04-28T10:09:22Z</time>
      </trkpt>
      <trkpt lat="40.6081110" lon="-4.0376350">
        <ele>907.6</ele>
        <time>2019-04-28T10:09:23Z</time>
      </trkpt>
      <trkpt lat="40.6080730" lon="-4.0376440">
        <ele>907.8</ele>
        <time>2019-04-28T10:09:24Z</time>
      </trkpt>
      <trkpt lat="40.6080340" lon="-4.0376550">
        <ele>908.0</ele>
        <time>2019-04-28T10:09:25Z</time>
      </trkpt>
      <trkpt lat="40.6079960" lon="-4.0376630">
        <ele>908.0</ele>
        <time>2019-04-28T10:09:26Z</time>
      </trkpt>
      <trkpt lat="40.6079570" lon="-4.0376710">
        <ele>908.0</ele>
        <time>2019-04-28T10:09:27Z</time>
      </trkpt>
      <trkpt lat="40.6079190" lon="-4.0376800">
        <ele>908.0</ele>
        <time>2019-04-28T10:09:28Z</time>
      </trkpt>
      <trkpt lat="40.6078810" lon="-4.0376880">
        <ele>908.0</ele>
        <time>2019-04-28T10:09:29Z</time>
      </trkpt>
      <trkpt lat="40.6078470" lon="-4.0376960">
        <ele>908.2</ele>
        <time>2019-04-28T10:09:30Z</time>
      </trkpt>
      <trkpt lat="40.6078200" lon="-4.0377010">
        <ele>908.2</ele>
        <time>2019-04-28T10:09:31Z</time>
      </trkpt>
      <trkpt lat="40.6077940" lon="-4.0377050">
        <ele>908.4</ele>
        <time>2019-04-28T10:09:32Z</time>
      </trkpt>
      <trkpt lat="40.6077590" lon="-4.0377160">
        <ele>908.4</ele>
        <time>2019-04-28T10:09:33Z</time>
      </trkpt>
      <trkpt lat="40.6077240" lon="-4.0377280">
        <ele>908.4</ele>
        <time>2019-04-28T10:09:34Z</time>
      </trkpt>
      <trkpt lat="40.6076910" lon="-4.0377390">
        <ele>908.8</ele>
        <time>2019-04-28T10:09:35Z</time>
      </trkpt>
      <trkpt lat="40.6076590" lon="-4.0377430">
        <ele>909.0</ele>
        <time>2019-04-28T10:09:36Z</time>
      </trkpt>
      <trkpt lat="40.6076230" lon="-4.0377500">
        <ele>909.2</ele>
        <time>2019-04-28T10:09:37Z</time>
      </trkpt>
      <trkpt lat="40.6075960" lon="-4.0377540">
        <ele>909.4</ele>
        <time>2019-04-28T10:09:38Z</time>
      </trkpt>
      <trkpt lat="40.6075700" lon="-4.0377640">
        <ele>909.6</ele>
        <time>2019-04-28T10:09:39Z</time>
      </trkpt>
      <trkpt lat="40.6075480" lon="-4.0377690">
        <ele>909.6</ele>
        <time>2019-04-28T10:09:40Z</time>
      </trkpt>
      <trkpt lat="40.6075210" lon="-4.0377740">
        <ele>909.8</ele>
        <time>2019-04-28T10:09:41Z</time>
      </trkpt>
      <trkpt lat="40.6074920" lon="-4.0377810">
        <ele>909.8</ele>
        <time>2019-04-28T10:09:42Z</time>
      </trkpt>
      <trkpt lat="40.6074640" lon="-4.0377850">
        <ele>910.0</ele>
        <time>2019-04-28T10:09:43Z</time>
      </trkpt>
      <trkpt lat="40.6074320" lon="-4.0377890">
        <ele>909.8</ele>
        <time>2019-04-28T10:09:44Z</time>
      </trkpt>
      <trkpt lat="40.6074030" lon="-4.0377930">
        <ele>909.8</ele>
        <time>2019-04-28T10:09:45Z</time>
      </trkpt>
      <trkpt lat="40.6073720" lon="-4.0377920">
        <ele>910.0</ele>
        <time>2019-04-28T10:09:46Z</time>
      </trkpt>
      <trkpt lat="40.6073360" lon="-4.0377960">
        <ele>910.0</ele>
        <time>2019-04-28T10:09:47Z</time>
      </trkpt>
      <trkpt lat="40.6073070" lon="-4.0378030">
        <ele>910.2</ele>
        <time>2019-04-28T10:09:48Z</time>
      </trkpt>
      <trkpt lat="40.6072750" lon="-4.0378110">
        <ele>910.2</ele>
        <time>2019-04-28T10:09:49Z</time>
      </trkpt>
      <trkpt lat="40.6072470" lon="-4.0378290">
        <ele>910.4</ele>
        <time>2019-04-28T10:09:50Z</time>
      </trkpt>
      <trkpt lat="40.6072260" lon="-4.0378570">
        <ele>910.4</ele>
        <time>2019-04-28T10:09:51Z</time>
      </trkpt>
      <trkpt lat="40.6072060" lon="-4.0378850">
        <ele>910.2</ele>
        <time>2019-04-28T10:09:52Z</time>
      </trkpt>
      <trkpt lat="40.6071840" lon="-4.0379140">
        <ele>910.4</ele>
        <time>2019-04-28T10:09:53Z</time>
      </trkpt>
      <trkpt lat="40.6071530" lon="-4.0379320">
        <ele>910.6</ele>
        <time>2019-04-28T10:09:54Z</time>
      </trkpt>
      <trkpt lat="40.6071110" lon="-4.0379330">
        <ele>910.4</ele>
        <time>2019-04-28T10:09:55Z</time>
      </trkpt>
      <trkpt lat="40.6070660" lon="-4.0379230">
        <ele>910.8</ele>
        <time>2019-04-28T10:09:56Z</time>
      </trkpt>
      <trkpt lat="40.6070190" lon="-4.0379140">
        <ele>911.4</ele>
        <time>2019-04-28T10:09:57Z</time>
      </trkpt>
      <trkpt lat="40.6069760" lon="-4.0379140">
        <ele>911.4</ele>
        <time>2019-04-28T10:09:58Z</time>
      </trkpt>
      <trkpt lat="40.6069380" lon="-4.0379220">
        <ele>911.6</ele>
        <time>2019-04-28T10:09:59Z</time>
      </trkpt>
      <trkpt lat="40.6069030" lon="-4.0379300">
        <ele>911.6</ele>
        <time>2019-04-28T10:10:00Z</time>
      </trkpt>
      <trkpt lat="40.6068740" lon="-4.0379400">
        <ele>911.8</ele>
        <time>2019-04-28T10:10:01Z</time>
      </trkpt>
      <trkpt lat="40.6068450" lon="-4.0379440">
        <ele>911.8</ele>
        <time>2019-04-28T10:10:02Z</time>
      </trkpt>
      <trkpt lat="40.6068120" lon="-4.0379460">
        <ele>911.8</ele>
        <time>2019-04-28T10:10:03Z</time>
      </trkpt>
      <trkpt lat="40.6067760" lon="-4.0379480">
        <ele>911.8</ele>
        <time>2019-04-28T10:10:04Z</time>
      </trkpt>
      <trkpt lat="40.6067400" lon="-4.0379510">
        <ele>911.8</ele>
        <time>2019-04-28T10:10:05Z</time>
      </trkpt>
      <trkpt lat="40.6067020" lon="-4.0379550">
        <ele>911.8</ele>
        <time>2019-04-28T10:10:06Z</time>
      </trkpt>
      <trkpt lat="40.6066640" lon="-4.0379590">
        <ele>912.0</ele>
        <time>2019-04-28T10:10:07Z</time>
      </trkpt>
      <trkpt lat="40.6066260" lon="-4.0379660">
        <ele>912.2</ele>
        <time>2019-04-28T10:10:08Z</time>
      </trkpt>
      <trkpt lat="40.6065900" lon="-4.0379740">
        <ele>912.4</ele>
        <time>2019-04-28T10:10:09Z</time>
      </trkpt>
      <trkpt lat="40.6065540" lon="-4.0379810">
        <ele>912.6</ele>
        <time>2019-04-28T10:10:10Z</time>
      </trkpt>
      <trkpt lat="40.6065180" lon="-4.0379870">
        <ele>912.6</ele>
        <time>2019-04-28T10:10:11Z</time>
      </trkpt>
      <trkpt lat="40.6064810" lon="-4.0379920">
        <ele>912.8</ele>
        <time>2019-04-28T10:10:12Z</time>
      </trkpt>
      <trkpt lat="40.6064430" lon="-4.0379980">
        <ele>913.0</ele>
        <time>2019-04-28T10:10:13Z</time>
      </trkpt>
      <trkpt lat="40.6064060" lon="-4.0380030">
        <ele>913.0</ele>
        <time>2019-04-28T10:10:14Z</time>
      </trkpt>
      <trkpt lat="40.6063710" lon="-4.0380100">
        <ele>913.0</ele>
        <time>2019-04-28T10:10:15Z</time>
      </trkpt>
      <trkpt lat="40.6063350" lon="-4.0380190">
        <ele>913.2</ele>
        <time>2019-04-28T10:10:16Z</time>
      </trkpt>
      <trkpt lat="40.6063010" lon="-4.0380330">
        <ele>913.2</ele>
        <time>2019-04-28T10:10:17Z</time>
      </trkpt>
      <trkpt lat="40.6062690" lon="-4.0380450">
        <ele>913.2</ele>
        <time>2019-04-28T10:10:18Z</time>
      </trkpt>
      <trkpt lat="40.6062360" lon="-4.0380550">
        <ele>913.4</ele>
        <time>2019-04-28T10:10:19Z</time>
      </trkpt>
      <trkpt lat="40.6062070" lon="-4.0380610">
        <ele>913.6</ele>
        <time>2019-04-28T10:10:20Z</time>
      </trkpt>
      <trkpt lat="40.6061750" lon="-4.0380680">
        <ele>913.8</ele>
        <time>2019-04-28T10:10:21Z</time>
      </trkpt>
      <trkpt lat="40.6061440" lon="-4.0380760">
        <ele>913.6</ele>
        <time>2019-04-28T10:10:22Z</time>
      </trkpt>
      <trkpt lat="40.6061140" lon="-4.0380840">
        <ele>913.8</ele>
        <time>2019-04-28T10:10:23Z</time>
      </trkpt>
      <trkpt lat="40.6060840" lon="-4.0380950">
        <ele>914.2</ele>
        <time>2019-04-28T10:10:24Z</time>
      </trkpt>
      <trkpt lat="40.6060480" lon="-4.0381080">
        <ele>914.4</ele>
        <time>2019-04-28T10:10:25Z</time>
      </trkpt>
      <trkpt lat="40.6060200" lon="-4.0381190">
        <ele>914.6</ele>
        <time>2019-04-28T10:10:26Z</time>
      </trkpt>
      <trkpt lat="40.6059880" lon="-4.0381330">
        <ele>914.8</ele>
        <time>2019-04-28T10:10:27Z</time>
      </trkpt>
      <trkpt lat="40.6059550" lon="-4.0381440">
        <ele>914.8</ele>
        <time>2019-04-28T10:10:28Z</time>
      </trkpt>
      <trkpt lat="40.6059200" lon="-4.0381510">
        <ele>914.8</ele>
        <time>2019-04-28T10:10:29Z</time>
      </trkpt>
      <trkpt lat="40.6058830" lon="-4.0381570">
        <ele>915.0</ele>
        <time>2019-04-28T10:10:30Z</time>
      </trkpt>
      <trkpt lat="40.6058460" lon="-4.0381680">
        <ele>915.0</ele>
        <time>2019-04-28T10:10:31Z</time>
      </trkpt>
      <trkpt lat="40.6058110" lon="-4.0381810">
        <ele>915.0</ele>
        <time>2019-04-28T10:10:32Z</time>
      </trkpt>
      <trkpt lat="40.6057740" lon="-4.0381930">
        <ele>915.2</ele>
        <time>2019-04-28T10:10:33Z</time>
      </trkpt>
      <trkpt lat="40.6057360" lon="-4.0382020">
        <ele>915.2</ele>
        <time>2019-04-28T10:10:34Z</time>
      </trkpt>
      <trkpt lat="40.6056970" lon="-4.0382140">
        <ele>915.4</ele>
        <time>2019-04-28T10:10:35Z</time>
      </trkpt>
      <trkpt lat="40.6056600" lon="-4.0382280">
        <ele>915.4</ele>
        <time>2019-04-28T10:10:36Z</time>
      </trkpt>
      <trkpt lat="40.6056200" lon="-4.0382390">
        <ele>915.4</ele>
        <time>2019-04-28T10:10:37Z</time>
      </trkpt>
      <trkpt lat="40.6055800" lon="-4.0382500">
        <ele>915.6</ele>
        <time>2019-04-28T10:10:38Z</time>
      </trkpt>
      <trkpt lat="40.6055410" lon="-4.0382610">
        <ele>915.6</ele>
        <time>2019-04-28T10:10:39Z</time>
      </trkpt>
      <trkpt lat="40.6055050" lon="-4.0382700">
        <ele>915.8</ele>
        <time>2019-04-28T10:10:40Z</time>
      </trkpt>
      <trkpt lat="40.6054670" lon="-4.0382790">
        <ele>915.8</ele>
        <time>2019-04-28T10:10:41Z</time>
      </trkpt>
      <trkpt lat="40.6054240" lon="-4.0382910">
        <ele>916.0</ele>
        <time>2019-04-28T10:10:42Z</time>
      </trkpt>
      <trkpt lat="40.6053840" lon="-4.0383020">
        <ele>916.0</ele>
        <time>2019-04-28T10:10:43Z</time>
      </trkpt>
      <trkpt lat="40.6053430" lon="-4.0383120">
        <ele>916.2</ele>
        <time>2019-04-28T10:10:44Z</time>
      </trkpt>
      <trkpt lat="40.6053030" lon="-4.0383240">
        <ele>916.4</ele>
        <time>2019-04-28T10:10:45Z</time>
      </trkpt>
      <trkpt lat="40.6052620" lon="-4.0383390">
        <ele>916.4</ele>
        <time>2019-04-28T10:10:46Z</time>
      </trkpt>
      <trkpt lat="40.6052220" lon="-4.0383520">
        <ele>916.6</ele>
        <time>2019-04-28T10:10:47Z</time>
      </trkpt>
      <trkpt lat="40.6051810" lon="-4.0383650">
        <ele>916.6</ele>
        <time>2019-04-28T10:10:48Z</time>
      </trkpt>
      <trkpt lat="40.6051390" lon="-4.0383750">
        <ele>916.6</ele>
        <time>2019-04-28T10:10:49Z</time>
      </trkpt>
      <trkpt lat="40.6050960" lon="-4.0383840">
        <ele>916.6</ele>
        <time>2019-04-28T10:10:50Z</time>
      </trkpt>
      <trkpt lat="40.6050530" lon="-4.0383970">
        <ele>916.8</ele>
        <time>2019-04-28T10:10:51Z</time>
      </trkpt>
      <trkpt lat="40.6050100" lon="-4.0384110">
        <ele>916.8</ele>
        <time>2019-04-28T10:10:52Z</time>
      </trkpt>
      <trkpt lat="40.6049700" lon="-4.0384280">
        <ele>916.8</ele>
        <time>2019-04-28T10:10:53Z</time>
      </trkpt>
      <trkpt lat="40.6049260" lon="-4.0384420">
        <ele>916.8</ele>
        <time>2019-04-28T10:10:54Z</time>
      </trkpt>
      <trkpt lat="40.6048810" lon="-4.0384520">
        <ele>917.0</ele>
        <time>2019-04-28T10:10:55Z</time>
      </trkpt>
      <trkpt lat="40.6048390" lon="-4.0384650">
        <ele>917.0</ele>
        <time>2019-04-28T10:10:56Z</time>
      </trkpt>
      <trkpt lat="40.6047990" lon="-4.0384770">
        <ele>917.0</ele>
        <time>2019-04-28T10:10:57Z</time>
      </trkpt>
      <trkpt lat="40.6047600" lon="-4.0384920">
        <ele>917.0</ele>
        <time>2019-04-28T10:10:58Z</time>
      </trkpt>
      <trkpt lat="40.6047230" lon="-4.0385080">
        <ele>917.2</ele>
        <time>2019-04-28T10:10:59Z</time>
      </trkpt>
      <trkpt lat="40.6046840" lon="-4.0385230">
        <ele>917.2</ele>
        <time>2019-04-28T10:11:00Z</time>
      </trkpt>
      <trkpt lat="40.6046430" lon="-4.0385330">
        <ele>917.2</ele>
        <time>2019-04-28T10:11:01Z</time>
      </trkpt>
      <trkpt lat="40.6046010" lon="-4.0385420">
        <ele>917.2</ele>
        <time>2019-04-28T10:11:02Z</time>
      </trkpt>
      <trkpt lat="40.6045590" lon="-4.0385550">
        <ele>917.4</ele>
        <time>2019-04-28T10:11:03Z</time>
      </trkpt>
      <trkpt lat="40.6045170" lon="-4.0385700">
        <ele>917.4</ele>
        <time>2019-04-28T10:11:04Z</time>
      </trkpt>
      <trkpt lat="40.6044750" lon="-4.0385830">
        <ele>917.4</ele>
        <time>2019-04-28T10:11:05Z</time>
      </trkpt>
      <trkpt lat="40.6044350" lon="-4.0385960">
        <ele>917.2</ele>
        <time>2019-04-28T10:11:06Z</time>
      </trkpt>
      <trkpt lat="40.6043950" lon="-4.0386100">
        <ele>917.4</ele>
        <time>2019-04-28T10:11:07Z</time>
      </trkpt>
      <trkpt lat="40.6043540" lon="-4.0386220">
        <ele>917.4</ele>
        <time>2019-04-28T10:11:08Z</time>
      </trkpt>
      <trkpt lat="40.6043130" lon="-4.0386350">
        <ele>917.4</ele>
        <time>2019-04-28T10:11:09Z</time>
      </trkpt>
      <trkpt lat="40.6042740" lon="-4.0386480">
        <ele>917.4</ele>
        <time>2019-04-28T10:11:10Z</time>
      </trkpt>
      <trkpt lat="40.6042320" lon="-4.0386620">
        <ele>917.4</ele>
        <time>2019-04-28T10:11:11Z</time>
      </trkpt>
      <trkpt lat="40.6041920" lon="-4.0386750">
        <ele>917.2</ele>
        <time>2019-04-28T10:11:12Z</time>
      </trkpt>
      <trkpt lat="40.6041530" lon="-4.0386960">
        <ele>917.2</ele>
        <time>2019-04-28T10:11:13Z</time>
      </trkpt>
      <trkpt lat="40.6041120" lon="-4.0387140">
        <ele>917.2</ele>
        <time>2019-04-28T10:11:14Z</time>
      </trkpt>
      <trkpt lat="40.6040690" lon="-4.0387320">
        <ele>917.2</ele>
        <time>2019-04-28T10:11:15Z</time>
      </trkpt>
      <trkpt lat="40.6040260" lon="-4.0387480">
        <ele>917.0</ele>
        <time>2019-04-28T10:11:16Z</time>
      </trkpt>
      <trkpt lat="40.6039840" lon="-4.0387660">
        <ele>917.0</ele>
        <time>2019-04-28T10:11:17Z</time>
      </trkpt>
      <trkpt lat="40.6039440" lon="-4.0387870">
        <ele>917.0</ele>
        <time>2019-04-28T10:11:18Z</time>
      </trkpt>
      <trkpt lat="40.6039020" lon="-4.0388050">
        <ele>917.2</ele>
        <time>2019-04-28T10:11:19Z</time>
      </trkpt>
      <trkpt lat="40.6038590" lon="-4.0388220">
        <ele>917.2</ele>
        <time>2019-04-28T10:11:20Z</time>
      </trkpt>
      <trkpt lat="40.6038160" lon="-4.0388350">
        <ele>917.2</ele>
        <time>2019-04-28T10:11:21Z</time>
      </trkpt>
      <trkpt lat="40.6037730" lon="-4.0388470">
        <ele>917.2</ele>
        <time>2019-04-28T10:11:22Z</time>
      </trkpt>
      <trkpt lat="40.6037300" lon="-4.0388570">
        <ele>917.4</ele>
        <time>2019-04-28T10:11:23Z</time>
      </trkpt>
      <trkpt lat="40.6036880" lon="-4.0388700">
        <ele>917.2</ele>
        <time>2019-04-28T10:11:24Z</time>
      </trkpt>
      <trkpt lat="40.6036450" lon="-4.0388840">
        <ele>917.2</ele>
        <time>2019-04-28T10:11:25Z</time>
      </trkpt>
      <trkpt lat="40.6036030" lon="-4.0388990">
        <ele>917.4</ele>
        <time>2019-04-28T10:11:26Z</time>
      </trkpt>
      <trkpt lat="40.6035610" lon="-4.0389140">
        <ele>917.4</ele>
        <time>2019-04-28T10:11:27Z</time>
      </trkpt>
      <trkpt lat="40.6035170" lon="-4.0389240">
        <ele>917.2</ele>
        <time>2019-04-28T10:11:28Z</time>
      </trkpt>
      <trkpt lat="40.6034740" lon="-4.0389340">
        <ele>917.2</ele>
        <time>2019-04-28T10:11:29Z</time>
      </trkpt>
      <trkpt lat="40.6034300" lon="-4.0389400">
        <ele>917.0</ele>
        <time>2019-04-28T10:11:30Z</time>
      </trkpt>
      <trkpt lat="40.6033810" lon="-4.0389460">
        <ele>917.0</ele>
        <time>2019-04-28T10:11:31Z</time>
      </trkpt>
      <trkpt lat="40.6033330" lon="-4.0389480">
        <ele>916.8</ele>
        <time>2019-04-28T10:11:32Z</time>
      </trkpt>
      <trkpt lat="40.6032840" lon="-4.0389500">
        <ele>916.8</ele>
        <time>2019-04-28T10:11:33Z</time>
      </trkpt>
      <trkpt lat="40.6032340" lon="-4.0389540">
        <ele>916.6</ele>
        <time>2019-04-28T10:11:34Z</time>
      </trkpt>
      <trkpt lat="40.6031850" lon="-4.0389580">
        <ele>916.6</ele>
        <time>2019-04-28T10:11:35Z</time>
      </trkpt>
      <trkpt lat="40.6031360" lon="-4.0389600">
        <ele>916.4</ele>
        <time>2019-04-28T10:11:36Z</time>
      </trkpt>
      <trkpt lat="40.6030890" lon="-4.0389620">
        <ele>916.4</ele>
        <time>2019-04-28T10:11:37Z</time>
      </trkpt>
      <trkpt lat="40.6030410" lon="-4.0389690">
        <ele>916.2</ele>
        <time>2019-04-28T10:11:38Z</time>
      </trkpt>
      <trkpt lat="40.6029950" lon="-4.0389750">
        <ele>916.0</ele>
        <time>2019-04-28T10:11:39Z</time>
      </trkpt>
      <trkpt lat="40.6029470" lon="-4.0389810">
        <ele>915.8</ele>
        <time>2019-04-28T10:11:40Z</time>
      </trkpt>
      <trkpt lat="40.6028990" lon="-4.0389860">
        <ele>915.8</ele>
        <time>2019-04-28T10:11:41Z</time>
      </trkpt>
      <trkpt lat="40.6028490" lon="-4.0389910">
        <ele>915.6</ele>
        <time>2019-04-28T10:11:42Z</time>
      </trkpt>
      <trkpt lat="40.6027990" lon="-4.0389980">
        <ele>915.4</ele>
        <time>2019-04-28T10:11:43Z</time>
      </trkpt>
      <trkpt lat="40.6027490" lon="-4.0390060">
        <ele>915.4</ele>
        <time>2019-04-28T10:11:44Z</time>
      </trkpt>
      <trkpt lat="40.6026970" lon="-4.0390120">
        <ele>915.4</ele>
        <time>2019-04-28T10:11:45Z</time>
      </trkpt>
      <trkpt lat="40.6026420" lon="-4.0390150">
        <ele>915.2</ele>
        <time>2019-04-28T10:11:46Z</time>
      </trkpt>
      <trkpt lat="40.6025880" lon="-4.0390220">
        <ele>915.0</ele>
        <time>2019-04-28T10:11:47Z</time>
      </trkpt>
      <trkpt lat="40.6025330" lon="-4.0390300">
        <ele>915.0</ele>
        <time>2019-04-28T10:11:48Z</time>
      </trkpt>
      <trkpt lat="40.6024790" lon="-4.0390390">
        <ele>915.0</ele>
        <time>2019-04-28T10:11:49Z</time>
      </trkpt>
      <trkpt lat="40.6024230" lon="-4.0390470">
        <ele>914.8</ele>
        <time>2019-04-28T10:11:50Z</time>
      </trkpt>
      <trkpt lat="40.6023690" lon="-4.0390540">
        <ele>914.6</ele>
        <time>2019-04-28T10:11:51Z</time>
      </trkpt>
      <trkpt lat="40.6023150" lon="-4.0390630">
        <ele>914.4</ele>
        <time>2019-04-28T10:11:52Z</time>
      </trkpt>
      <trkpt lat="40.6022600" lon="-4.0390720">
        <ele>914.0</ele>
        <time>2019-04-28T10:11:53Z</time>
      </trkpt>
      <trkpt lat="40.6022040" lon="-4.0390800">
        <ele>913.8</ele>
        <time>2019-04-28T10:11:54Z</time>
      </trkpt>
      <trkpt lat="40.6021480" lon="-4.0390860">
        <ele>913.4</ele>
        <time>2019-04-28T10:11:55Z</time>
      </trkpt>
      <trkpt lat="40.6020920" lon="-4.0390910">
        <ele>913.2</ele>
        <time>2019-04-28T10:11:56Z</time>
      </trkpt>
      <trkpt lat="40.6020340" lon="-4.0390960">
        <ele>912.8</ele>
        <time>2019-04-28T10:11:57Z</time>
      </trkpt>
      <trkpt lat="40.6019750" lon="-4.0391000">
        <ele>912.4</ele>
        <time>2019-04-28T10:11:58Z</time>
      </trkpt>
      <trkpt lat="40.6019150" lon="-4.0391050">
        <ele>912.2</ele>
        <time>2019-04-28T10:11:59Z</time>
      </trkpt>
      <trkpt lat="40.6018540" lon="-4.0391120">
        <ele>911.8</ele>
        <time>2019-04-28T10:12:00Z</time>
      </trkpt>
      <trkpt lat="40.6017960" lon="-4.0391120">
        <ele>911.6</ele>
        <time>2019-04-28T10:12:01Z</time>
      </trkpt>
      <trkpt lat="40.6017410" lon="-4.0391030">
        <ele>911.4</ele>
        <time>2019-04-28T10:12:02Z</time>
      </trkpt>
      <trkpt lat="40.6016870" lon="-4.0390950">
        <ele>911.4</ele>
        <time>2019-04-28T10:12:03Z</time>
      </trkpt>
      <trkpt lat="40.6016320" lon="-4.0390900">
        <ele>911.6</ele>
        <time>2019-04-28T10:12:04Z</time>
      </trkpt>
      <trkpt lat="40.6015790" lon="-4.0390920">
        <ele>911.2</ele>
        <time>2019-04-28T10:12:05Z</time>
      </trkpt>
      <trkpt lat="40.6015290" lon="-4.0390940">
        <ele>910.8</ele>
        <time>2019-04-28T10:12:06Z</time>
      </trkpt>
      <trkpt lat="40.6014860" lon="-4.0390920">
        <ele>910.4</ele>
        <time>2019-04-28T10:12:07Z</time>
      </trkpt>
      <trkpt lat="40.6014490" lon="-4.0390940">
        <ele>910.4</ele>
        <time>2019-04-28T10:12:08Z</time>
      </trkpt>
      <trkpt lat="40.6014130" lon="-4.0390910">
        <ele>910.2</ele>
        <time>2019-04-28T10:12:09Z</time>
      </trkpt>
      <trkpt lat="40.6013720" lon="-4.0390830">
        <ele>910.2</ele>
        <time>2019-04-28T10:12:10Z</time>
      </trkpt>
      <trkpt lat="40.6013280" lon="-4.0390710">
        <ele>910.0</ele>
        <time>2019-04-28T10:12:11Z</time>
      </trkpt>
      <trkpt lat="40.6012860" lon="-4.0390580">
        <ele>910.0</ele>
        <time>2019-04-28T10:12:12Z</time>
      </trkpt>
      <trkpt lat="40.6012450" lon="-4.0390450">
        <ele>909.6</ele>
        <time>2019-04-28T10:12:13Z</time>
      </trkpt>
      <trkpt lat="40.6012030" lon="-4.0390310">
        <ele>909.4</ele>
        <time>2019-04-28T10:12:14Z</time>
      </trkpt>
      <trkpt lat="40.6011590" lon="-4.0390180">
        <ele>909.2</ele>
        <time>2019-04-28T10:12:15Z</time>
      </trkpt>
      <trkpt lat="40.6011170" lon="-4.0390080">
        <ele>909.2</ele>
        <time>2019-04-28T10:12:16Z</time>
      </trkpt>
      <trkpt lat="40.6010790" lon="-4.0390020">
        <ele>909.0</ele>
        <time>2019-04-28T10:12:17Z</time>
      </trkpt>
      <trkpt lat="40.6010500" lon="-4.0390020">
        <ele>909.0</ele>
        <time>2019-04-28T10:12:18Z</time>
      </trkpt>
      <trkpt lat="40.6010300" lon="-4.0389990">
        <ele>909.0</ele>
        <time>2019-04-28T10:12:19Z</time>
      </trkpt>
      <trkpt lat="40.6010110" lon="-4.0389880">
        <ele>909.0</ele>
        <time>2019-04-28T10:12:20Z</time>
      </trkpt>
      <trkpt lat="40.6010020" lon="-4.0389710">
        <ele>909.2</ele>
        <time>2019-04-28T10:12:21Z</time>
      </trkpt>
      <trkpt lat="40.6009910" lon="-4.0389450">
        <ele>909.4</ele>
        <time>2019-04-28T10:12:22Z</time>
      </trkpt>
      <trkpt lat="40.6009810" lon="-4.0389160">
        <ele>909.4</ele>
        <time>2019-04-28T10:12:23Z</time>
      </trkpt>
      <trkpt lat="40.6009680" lon="-4.0388840">
        <ele>909.6</ele>
        <time>2019-04-28T10:12:24Z</time>
      </trkpt>
      <trkpt lat="40.6009530" lon="-4.0388460">
        <ele>909.6</ele>
        <time>2019-04-28T10:12:25Z</time>
      </trkpt>
      <trkpt lat="40.6009400" lon="-4.0388060">
        <ele>909.6</ele>
        <time>2019-04-28T10:12:26Z</time>
      </trkpt>
      <trkpt lat="40.6009240" lon="-4.0387610">
        <ele>909.6</ele>
        <time>2019-04-28T10:12:27Z</time>
      </trkpt>
      <trkpt lat="40.6009080" lon="-4.0387160">
        <ele>909.6</ele>
        <time>2019-04-28T10:12:28Z</time>
      </trkpt>
      <trkpt lat="40.6008910" lon="-4.0386690">
        <ele>909.8</ele>
        <time>2019-04-28T10:12:29Z</time>
      </trkpt>
      <trkpt lat="40.6008760" lon="-4.0386270">
        <ele>909.8</ele>
        <time>2019-04-28T10:12:30Z</time>
      </trkpt>
      <trkpt lat="40.6008610" lon="-4.0385820">
        <ele>910.0</ele>
        <time>2019-04-28T10:12:31Z</time>
      </trkpt>
      <trkpt lat="40.6008460" lon="-4.0385310">
        <ele>909.8</ele>
        <time>2019-04-28T10:12:32Z</time>
      </trkpt>
      <trkpt lat="40.6008300" lon="-4.0384780">
        <ele>909.8</ele>
        <time>2019-04-28T10:12:33Z</time>
      </trkpt>
      <trkpt lat="40.6008160" lon="-4.0384260">
        <ele>910.0</ele>
        <time>2019-04-28T10:12:34Z</time>
      </trkpt>
      <trkpt lat="40.6008000" lon="-4.0383770">
        <ele>910.0</ele>
        <time>2019-04-28T10:12:35Z</time>
      </trkpt>
      <trkpt lat="40.6007860" lon="-4.0383260">
        <ele>910.0</ele>
        <time>2019-04-28T10:12:36Z</time>
      </trkpt>
      <trkpt lat="40.6007740" lon="-4.0382720">
        <ele>910.2</ele>
        <time>2019-04-28T10:12:37Z</time>
      </trkpt>
      <trkpt lat="40.6007610" lon="-4.0382190">
        <ele>910.2</ele>
        <time>2019-04-28T10:12:38Z</time>
      </trkpt>
      <trkpt lat="40.6007460" lon="-4.0381650">
        <ele>910.2</ele>
        <time>2019-04-28T10:12:39Z</time>
      </trkpt>
      <trkpt lat="40.6007320" lon="-4.0381110">
        <ele>910.2</ele>
        <time>2019-04-28T10:12:40Z</time>
      </trkpt>
      <trkpt lat="40.6007190" lon="-4.0380570">
        <ele>910.4</ele>
        <time>2019-04-28T10:12:41Z</time>
      </trkpt>
      <trkpt lat="40.6007070" lon="-4.0380060">
        <ele>910.2</ele>
        <time>2019-04-28T10:12:42Z</time>
      </trkpt>
      <trkpt lat="40.6006960" lon="-4.0379520">
        <ele>910.4</ele>
        <time>2019-04-28T10:12:43Z</time>
      </trkpt>
      <trkpt lat="40.6006840" lon="-4.0378960">
        <ele>910.4</ele>
        <time>2019-04-28T10:12:44Z</time>
      </trkpt>
      <trkpt lat="40.6006710" lon="-4.0378430">
        <ele>910.4</ele>
        <time>2019-04-28T10:12:45Z</time>
      </trkpt>
      <trkpt lat="40.6006570" lon="-4.0377990">
        <ele>910.6</ele>
        <time>2019-04-28T10:12:46Z</time>
      </trkpt>
      <trkpt lat="40.6006440" lon="-4.0377510">
        <ele>910.8</ele>
        <time>2019-04-28T10:12:47Z</time>
      </trkpt>
      <trkpt lat="40.6006290" lon="-4.0377060">
        <ele>910.8</ele>
        <time>2019-04-28T10:12:48Z</time>
      </trkpt>
      <trkpt lat="40.6006140" lon="-4.0376590">
        <ele>910.8</ele>
        <time>2019-04-28T10:12:49Z</time>
      </trkpt>
      <trkpt lat="40.6006000" lon="-4.0376110">
        <ele>911.0</ele>
        <time>2019-04-28T10:12:50Z</time>
      </trkpt>
      <trkpt lat="40.6005870" lon="-4.0375640">
        <ele>911.0</ele>
        <time>2019-04-28T10:12:51Z</time>
      </trkpt>
      <trkpt lat="40.6005740" lon="-4.0375200">
        <ele>911.2</ele>
        <time>2019-04-28T10:12:52Z</time>
      </trkpt>
      <trkpt lat="40.6005590" lon="-4.0374760">
        <ele>911.4</ele>
        <time>2019-04-28T10:12:53Z</time>
      </trkpt>
      <trkpt lat="40.6005420" lon="-4.0374390">
        <ele>911.4</ele>
        <time>2019-04-28T10:12:54Z</time>
      </trkpt>
      <trkpt lat="40.6005250" lon="-4.0374050">
        <ele>911.6</ele>
        <time>2019-04-28T10:12:55Z</time>
      </trkpt>
      <trkpt lat="40.6005060" lon="-4.0373680">
        <ele>911.8</ele>
        <time>2019-04-28T10:12:56Z</time>
      </trkpt>
      <trkpt lat="40.6004910" lon="-4.0373280">
        <ele>911.8</ele>
        <time>2019-04-28T10:12:57Z</time>
      </trkpt>
      <trkpt lat="40.6004730" lon="-4.0372870">
        <ele>911.8</ele>
        <time>2019-04-28T10:12:58Z</time>
      </trkpt>
      <trkpt lat="40.6004540" lon="-4.0372450">
        <ele>912.0</ele>
        <time>2019-04-28T10:12:59Z</time>
      </trkpt>
      <trkpt lat="40.6004330" lon="-4.0372010">
        <ele>912.2</ele>
        <time>2019-04-28T10:13:00Z</time>
      </trkpt>
      <trkpt lat="40.6004130" lon="-4.0371600">
        <ele>912.2</ele>
        <time>2019-04-28T10:13:01Z</time>
      </trkpt>
      <trkpt lat="40.6003940" lon="-4.0371200">
        <ele>912.2</ele>
        <time>2019-04-28T10:13:02Z</time>
      </trkpt>
      <trkpt lat="40.6003710" lon="-4.0370770">
        <ele>912.4</ele>
        <time>2019-04-28T10:13:03Z</time>
      </trkpt>
      <trkpt lat="40.6003490" lon="-4.0370380">
        <ele>912.6</ele>
        <time>2019-04-28T10:13:04Z</time>
      </trkpt>
      <trkpt lat="40.6003270" lon="-4.0369990">
        <ele>912.6</ele>
        <time>2019-04-28T10:13:05Z</time>
      </trkpt>
      <trkpt lat="40.6003060" lon="-4.0369640">
        <ele>912.6</ele>
        <time>2019-04-28T10:13:06Z</time>
      </trkpt>
      <trkpt lat="40.6002830" lon="-4.0369360">
        <ele>912.6</ele>
        <time>2019-04-28T10:13:07Z</time>
      </trkpt>
      <trkpt lat="40.6002630" lon="-4.0369110">
        <ele>912.6</ele>
        <time>2019-04-28T10:13:08Z</time>
      </trkpt>
      <trkpt lat="40.6002350" lon="-4.0368820">
        <ele>912.6</ele>
        <time>2019-04-28T10:13:09Z</time>
      </trkpt>
      <trkpt lat="40.6002070" lon="-4.0368540">
        <ele>912.4</ele>
        <time>2019-04-28T10:13:10Z</time>
      </trkpt>
      <trkpt lat="40.6001770" lon="-4.0368280">
        <ele>912.4</ele>
        <time>2019-04-28T10:13:11Z</time>
      </trkpt>
      <trkpt lat="40.6001490" lon="-4.0367930">
        <ele>912.2</ele>
        <time>2019-04-28T10:13:12Z</time>
      </trkpt>
      <trkpt lat="40.6001200" lon="-4.0367570">
        <ele>912.0</ele>
        <time>2019-04-28T10:13:13Z</time>
      </trkpt>
      <trkpt lat="40.6000930" lon="-4.0367240">
        <ele>912.0</ele>
        <time>2019-04-28T10:13:14Z</time>
      </trkpt>
      <trkpt lat="40.6000610" lon="-4.0366870">
        <ele>911.8</ele>
        <time>2019-04-28T10:13:15Z</time>
      </trkpt>
      <trkpt lat="40.6000280" lon="-4.0366610">
        <ele>911.8</ele>
        <time>2019-04-28T10:13:16Z</time>
      </trkpt>
      <trkpt lat="40.5999950" lon="-4.0366390">
        <ele>911.8</ele>
        <time>2019-04-28T10:13:17Z</time>
      </trkpt>
      <trkpt lat="40.5999600" lon="-4.0366110">
        <ele>911.8</ele>
        <time>2019-04-28T10:13:18Z</time>
      </trkpt>
      <trkpt lat="40.5999300" lon="-4.0365770">
        <ele>911.8</ele>
        <time>2019-04-28T10:13:19Z</time>
      </trkpt>
      <trkpt lat="40.5999010" lon="-4.0365420">
        <ele>911.6</ele>
        <time>2019-04-28T10:13:20Z</time>
      </trkpt>
      <trkpt lat="40.5998720" lon="-4.0365110">
        <ele>911.6</ele>
        <time>2019-04-28T10:13:21Z</time>
      </trkpt>
      <trkpt lat="40.5998490" lon="-4.0364770">
        <ele>911.6</ele>
        <time>2019-04-28T10:13:22Z</time>
      </trkpt>
      <trkpt lat="40.5998180" lon="-4.0364430">
        <ele>911.2</ele>
        <time>2019-04-28T10:13:23Z</time>
      </trkpt>
      <trkpt lat="40.5997810" lon="-4.0364130">
        <ele>911.4</ele>
        <time>2019-04-28T10:13:24Z</time>
      </trkpt>
      <trkpt lat="40.5997430" lon="-4.0363810">
        <ele>911.2</ele>
        <time>2019-04-28T10:13:25Z</time>
      </trkpt>
      <trkpt lat="40.5997050" lon="-4.0363620">
        <ele>911.2</ele>
        <time>2019-04-28T10:13:26Z</time>
      </trkpt>
      <trkpt lat="40.5996670" lon="-4.0363280">
        <ele>911.0</ele>
        <time>2019-04-28T10:13:27Z</time>
      </trkpt>
      <trkpt lat="40.5996330" lon="-4.0362820">
        <ele>910.8</ele>
        <time>2019-04-28T10:13:28Z</time>
      </trkpt>
      <trkpt lat="40.5996030" lon="-4.0362310">
        <ele>910.8</ele>
        <time>2019-04-28T10:13:29Z</time>
      </trkpt>
      <trkpt lat="40.5995700" lon="-4.0361770">
        <ele>910.8</ele>
        <time>2019-04-28T10:13:30Z</time>
      </trkpt>
      <trkpt lat="40.5995380" lon="-4.0361260">
        <ele>910.6</ele>
        <time>2019-04-28T10:13:31Z</time>
      </trkpt>
      <trkpt lat="40.5995070" lon="-4.0360710">
        <ele>910.6</ele>
        <time>2019-04-28T10:13:32Z</time>
      </trkpt>
      <trkpt lat="40.5994770" lon="-4.0360220">
        <ele>910.6</ele>
        <time>2019-04-28T10:13:33Z</time>
      </trkpt>
      <trkpt lat="40.5994410" lon="-4.0359790">
        <ele>910.6</ele>
        <time>2019-04-28T10:13:34Z</time>
      </trkpt>
      <trkpt lat="40.5994020" lon="-4.0359410">
        <ele>910.4</ele>
        <time>2019-04-28T10:13:35Z</time>
      </trkpt>
      <trkpt lat="40.5993640" lon="-4.0359030">
        <ele>910.4</ele>
        <time>2019-04-28T10:13:36Z</time>
      </trkpt>
      <trkpt lat="40.5993350" lon="-4.0358650">
        <ele>910.4</ele>
        <time>2019-04-28T10:13:37Z</time>
      </trkpt>
      <trkpt lat="40.5993030" lon="-4.0358250">
        <ele>910.2</ele>
        <time>2019-04-28T10:13:38Z</time>
      </trkpt>
      <trkpt lat="40.5992640" lon="-4.0357840">
        <ele>910.2</ele>
        <time>2019-04-28T10:13:39Z</time>
      </trkpt>
      <trkpt lat="40.5992260" lon="-4.0357410">
        <ele>910.0</ele>
        <time>2019-04-28T10:13:40Z</time>
      </trkpt>
      <trkpt lat="40.5991860" lon="-4.0356930">
        <ele>910.0</ele>
        <time>2019-04-28T10:13:41Z</time>
      </trkpt>
      <trkpt lat="40.5991470" lon="-4.0356430">
        <ele>910.0</ele>
        <time>2019-04-28T10:13:42Z</time>
      </trkpt>
      <trkpt lat="40.5991170" lon="-4.0355880">
        <ele>909.8</ele>
        <time>2019-04-28T10:13:43Z</time>
      </trkpt>
      <trkpt lat="40.5990860" lon="-4.0355140">
        <ele>909.8</ele>
        <time>2019-04-28T10:13:44Z</time>
      </trkpt>
      <trkpt lat="40.5990590" lon="-4.0354460">
        <ele>909.8</ele>
        <time>2019-04-28T10:13:45Z</time>
      </trkpt>
      <trkpt lat="40.5990340" lon="-4.0353860">
        <ele>909.6</ele>
        <time>2019-04-28T10:13:46Z</time>
      </trkpt>
      <trkpt lat="40.5990030" lon="-4.0353430">
        <ele>909.6</ele>
        <time>2019-04-28T10:13:47Z</time>
      </trkpt>
      <trkpt lat="40.5989670" lon="-4.0353030">
        <ele>909.4</ele>
        <time>2019-04-28T10:13:48Z</time>
      </trkpt>
      <trkpt lat="40.5989210" lon="-4.0352670">
        <ele>909.2</ele>
        <time>2019-04-28T10:13:49Z</time>
      </trkpt>
      <trkpt lat="40.5988750" lon="-4.0352420">
        <ele>909.0</ele>
        <time>2019-04-28T10:13:50Z</time>
      </trkpt>
      <trkpt lat="40.5988240" lon="-4.0352260">
        <ele>908.8</ele>
        <time>2019-04-28T10:13:51Z</time>
      </trkpt>
      <trkpt lat="40.5987690" lon="-4.0352090">
        <ele>908.6</ele>
        <time>2019-04-28T10:13:52Z</time>
      </trkpt>
      <trkpt lat="40.5987160" lon="-4.0351890">
        <ele>908.4</ele>
        <time>2019-04-28T10:13:53Z</time>
      </trkpt>
      <trkpt lat="40.5986600" lon="-4.0351700">
        <ele>908.2</ele>
        <time>2019-04-28T10:13:54Z</time>
      </trkpt>
      <trkpt lat="40.5986020" lon="-4.0351540">
        <ele>908.0</ele>
        <time>2019-04-28T10:13:55Z</time>
      </trkpt>
      <trkpt lat="40.5985440" lon="-4.0351350">
        <ele>908.0</ele>
        <time>2019-04-28T10:13:56Z</time>
      </trkpt>
      <trkpt lat="40.5984840" lon="-4.0351140">
        <ele>908.0</ele>
        <time>2019-04-28T10:13:57Z</time>
      </trkpt>
      <trkpt lat="40.5984230" lon="-4.0350960">
        <ele>908.0</ele>
        <time>2019-04-28T10:13:58Z</time>
      </trkpt>
      <trkpt lat="40.5983630" lon="-4.0350820">
        <ele>907.8</ele>
        <time>2019-04-28T10:13:59Z</time>
      </trkpt>
      <trkpt lat="40.5983090" lon="-4.0350690">
        <ele>907.6</ele>
        <time>2019-04-28T10:14:00Z</time>
      </trkpt>
      <trkpt lat="40.5982570" lon="-4.0350540">
        <ele>907.6</ele>
        <time>2019-04-28T10:14:01Z</time>
      </trkpt>
      <trkpt lat="40.5982040" lon="-4.0350360">
        <ele>907.6</ele>
        <time>2019-04-28T10:14:02Z</time>
      </trkpt>
      <trkpt lat="40.5981520" lon="-4.0350190">
        <ele>907.4</ele>
        <time>2019-04-28T10:14:03Z</time>
      </trkpt>
      <trkpt lat="40.5981010" lon="-4.0350030">
        <ele>907.2</ele>
        <time>2019-04-28T10:14:04Z</time>
      </trkpt>
      <trkpt lat="40.5980570" lon="-4.0349820">
        <ele>907.2</ele>
        <time>2019-04-28T10:14:05Z</time>
      </trkpt>
      <trkpt lat="40.5980070" lon="-4.0349550">
        <ele>907.0</ele>
        <time>2019-04-28T10:14:06Z</time>
      </trkpt>
      <trkpt lat="40.5979660" lon="-4.0349230">
        <ele>907.0</ele>
        <time>2019-04-28T10:14:07Z</time>
      </trkpt>
      <trkpt lat="40.5979230" lon="-4.0348950">
        <ele>907.0</ele>
        <time>2019-04-28T10:14:08Z</time>
      </trkpt>
      <trkpt lat="40.5978730" lon="-4.0348640">
        <ele>906.8</ele>
        <time>2019-04-28T10:14:09Z</time>
      </trkpt>
      <trkpt lat="40.5978250" lon="-4.0348280">
        <ele>906.8</ele>
        <time>2019-04-28T10:14:10Z</time>
      </trkpt>
      <trkpt lat="40.5977940" lon="-4.0347830">
        <ele>906.8</ele>
        <time>2019-04-28T10:14:11Z</time>
      </trkpt>
      <trkpt lat="40.5977530" lon="-4.0347450">
        <ele>906.8</ele>
        <time>2019-04-28T10:14:12Z</time>
      </trkpt>
      <trkpt lat="40.5977020" lon="-4.0347140">
        <ele>906.6</ele>
        <time>2019-04-28T10:14:13Z</time>
      </trkpt>
      <trkpt lat="40.5976560" lon="-4.0346740">
        <ele>906.4</ele>
        <time>2019-04-28T10:14:14Z</time>
      </trkpt>
      <trkpt lat="40.5976130" lon="-4.0346350">
        <ele>906.4</ele>
        <time>2019-04-28T10:14:15Z</time>
      </trkpt>
      <trkpt lat="40.5975720" lon="-4.0346010">
        <ele>906.4</ele>
        <time>2019-04-28T10:14:16Z</time>
      </trkpt>
      <trkpt lat="40.5975240" lon="-4.0345600">
        <ele>906.2</ele>
        <time>2019-04-28T10:14:17Z</time>
      </trkpt>
      <trkpt lat="40.5974760" lon="-4.0345170">
        <ele>906.2</ele>
        <time>2019-04-28T10:14:18Z</time>
      </trkpt>
      <trkpt lat="40.5974300" lon="-4.0344780">
        <ele>906.0</ele>
        <time>2019-04-28T10:14:19Z</time>
      </trkpt>
      <trkpt lat="40.5973880" lon="-4.0344400">
        <ele>906.0</ele>
        <time>2019-04-28T10:14:20Z</time>
      </trkpt>
      <trkpt lat="40.5973440" lon="-4.0344000">
        <ele>905.8</ele>
        <time>2019-04-28T10:14:21Z</time>
      </trkpt>
      <trkpt lat="40.5972910" lon="-4.0343610">
        <ele>905.6</ele>
        <time>2019-04-28T10:14:22Z</time>
      </trkpt>
      <trkpt lat="40.5972470" lon="-4.0343250">
        <ele>905.4</ele>
        <time>2019-04-28T10:14:23Z</time>
      </trkpt>
      <trkpt lat="40.5971980" lon="-4.0342820">
        <ele>905.6</ele>
        <time>2019-04-28T10:14:24Z</time>
      </trkpt>
      <trkpt lat="40.5971520" lon="-4.0342310">
        <ele>905.4</ele>
        <time>2019-04-28T10:14:25Z</time>
      </trkpt>
      <trkpt lat="40.5971070" lon="-4.0341770">
        <ele>905.2</ele>
        <time>2019-04-28T10:14:26Z</time>
      </trkpt>
      <trkpt lat="40.5970740" lon="-4.0341220">
        <ele>905.0</ele>
        <time>2019-04-28T10:14:27Z</time>
      </trkpt>
      <trkpt lat="40.5970510" lon="-4.0340620">
        <ele>905.0</ele>
        <time>2019-04-28T10:14:28Z</time>
      </trkpt>
      <trkpt lat="40.5970210" lon="-4.0340090">
        <ele>904.8</ele>
        <time>2019-04-28T10:14:29Z</time>
      </trkpt>
      <trkpt lat="40.5969930" lon="-4.0339670">
        <ele>904.8</ele>
        <time>2019-04-28T10:14:30Z</time>
      </trkpt>
      <trkpt lat="40.5969610" lon="-4.0339170">
        <ele>904.6</ele>
        <time>2019-04-28T10:14:31Z</time>
      </trkpt>
      <trkpt lat="40.5969300" lon="-4.0338470">
        <ele>904.4</ele>
        <time>2019-04-28T10:14:32Z</time>
      </trkpt>
      <trkpt lat="40.5968970" lon="-4.0337770">
        <ele>904.2</ele>
        <time>2019-04-28T10:14:33Z</time>
      </trkpt>
      <trkpt lat="40.5968640" lon="-4.0337010">
        <ele>903.8</ele>
        <time>2019-04-28T10:14:34Z</time>
      </trkpt>
      <trkpt lat="40.5968310" lon="-4.0336260">
        <ele>903.8</ele>
        <time>2019-04-28T10:14:35Z</time>
      </trkpt>
      <trkpt lat="40.5967980" lon="-4.0335540">
        <ele>903.4</ele>
        <time>2019-04-28T10:14:36Z</time>
      </trkpt>
      <trkpt lat="40.5967670" lon="-4.0334780">
        <ele>903.0</ele>
        <time>2019-04-28T10:14:37Z</time>
      </trkpt>
      <trkpt lat="40.5967310" lon="-4.0333930">
        <ele>902.8</ele>
        <time>2019-04-28T10:14:38Z</time>
      </trkpt>
      <trkpt lat="40.5966960" lon="-4.0333150">
        <ele>902.6</ele>
        <time>2019-04-28T10:14:39Z</time>
      </trkpt>
      <trkpt lat="40.5966610" lon="-4.0332320">
        <ele>902.0</ele>
        <time>2019-04-28T10:14:40Z</time>
      </trkpt>
      <trkpt lat="40.5966250" lon="-4.0331510">
        <ele>901.6</ele>
        <time>2019-04-28T10:14:41Z</time>
      </trkpt>
      <trkpt lat="40.5965970" lon="-4.0330690">
        <ele>901.2</ele>
        <time>2019-04-28T10:14:42Z</time>
      </trkpt>
      <trkpt lat="40.5965640" lon="-4.0329870">
        <ele>901.0</ele>
        <time>2019-04-28T10:14:43Z</time>
      </trkpt>
      <trkpt lat="40.5965290" lon="-4.0328850">
        <ele>900.8</ele>
        <time>2019-04-28T10:14:44Z</time>
      </trkpt>
      <trkpt lat="40.5964950" lon="-4.0327990">
        <ele>900.6</ele>
        <time>2019-04-28T10:14:45Z</time>
      </trkpt>
      <trkpt lat="40.5964590" lon="-4.0327170">
        <ele>900.4</ele>
        <time>2019-04-28T10:14:46Z</time>
      </trkpt>
      <trkpt lat="40.5964260" lon="-4.0326400">
        <ele>900.2</ele>
        <time>2019-04-28T10:14:47Z</time>
      </trkpt>
      <trkpt lat="40.5963970" lon="-4.0325650">
        <ele>899.8</ele>
        <time>2019-04-28T10:14:48Z</time>
      </trkpt>
      <trkpt lat="40.5963640" lon="-4.0325030">
        <ele>899.6</ele>
        <time>2019-04-28T10:14:49Z</time>
      </trkpt>
      <trkpt lat="40.5963240" lon="-4.0324480">
        <ele>899.6</ele>
        <time>2019-04-28T10:14:50Z</time>
      </trkpt>
      <trkpt lat="40.5962750" lon="-4.0324010">
        <ele>899.8</ele>
        <time>2019-04-28T10:14:51Z</time>
      </trkpt>
      <trkpt lat="40.5962220" lon="-4.0323670">
        <ele>899.6</ele>
        <time>2019-04-28T10:14:52Z</time>
      </trkpt>
      <trkpt lat="40.5961660" lon="-4.0323320">
        <ele>899.2</ele>
        <time>2019-04-28T10:14:53Z</time>
      </trkpt>
      <trkpt lat="40.5961090" lon="-4.0322960">
        <ele>899.2</ele>
        <time>2019-04-28T10:14:54Z</time>
      </trkpt>
      <trkpt lat="40.5960510" lon="-4.0322520">
        <ele>899.0</ele>
        <time>2019-04-28T10:14:55Z</time>
      </trkpt>
      <trkpt lat="40.5959970" lon="-4.0322120">
        <ele>898.4</ele>
        <time>2019-04-28T10:14:56Z</time>
      </trkpt>
      <trkpt lat="40.5959370" lon="-4.0321800">
        <ele>898.4</ele>
        <time>2019-04-28T10:14:57Z</time>
      </trkpt>
      <trkpt lat="40.5958940" lon="-4.0321540">
        <ele>898.2</ele>
        <time>2019-04-28T10:14:58Z</time>
      </trkpt>
      <trkpt lat="40.5958440" lon="-4.0321210">
        <ele>898.2</ele>
        <time>2019-04-28T10:14:59Z</time>
      </trkpt>
      <trkpt lat="40.5957950" lon="-4.0320830">
        <ele>898.0</ele>
        <time>2019-04-28T10:15:00Z</time>
      </trkpt>
      <trkpt lat="40.5957400" lon="-4.0320440">
        <ele>898.0</ele>
        <time>2019-04-28T10:15:01Z</time>
      </trkpt>
      <trkpt lat="40.5956850" lon="-4.0320080">
        <ele>897.8</ele>
        <time>2019-04-28T10:15:02Z</time>
      </trkpt>
      <trkpt lat="40.5956350" lon="-4.0319710">
        <ele>897.8</ele>
        <time>2019-04-28T10:15:03Z</time>
      </trkpt>
      <trkpt lat="40.5955860" lon="-4.0319380">
        <ele>897.4</ele>
        <time>2019-04-28T10:15:04Z</time>
      </trkpt>
      <trkpt lat="40.5955350" lon="-4.0319060">
        <ele>897.4</ele>
        <time>2019-04-28T10:15:05Z</time>
      </trkpt>
      <trkpt lat="40.5954760" lon="-4.0318690">
        <ele>897.2</ele>
        <time>2019-04-28T10:15:06Z</time>
      </trkpt>
      <trkpt lat="40.5954150" lon="-4.0318340">
        <ele>897.0</ele>
        <time>2019-04-28T10:15:07Z</time>
      </trkpt>
      <trkpt lat="40.5953550" lon="-4.0317970">
        <ele>897.0</ele>
        <time>2019-04-28T10:15:08Z</time>
      </trkpt>
      <trkpt lat="40.5953060" lon="-4.0317600">
        <ele>897.0</ele>
        <time>2019-04-28T10:15:09Z</time>
      </trkpt>
      <trkpt lat="40.5952550" lon="-4.0317250">
        <ele>896.8</ele>
        <time>2019-04-28T10:15:10Z</time>
      </trkpt>
      <trkpt lat="40.5952080" lon="-4.0316910">
        <ele>896.8</ele>
        <time>2019-04-28T10:15:11Z</time>
      </trkpt>
      <trkpt lat="40.5951610" lon="-4.0316590">
        <ele>896.8</ele>
        <time>2019-04-28T10:15:12Z</time>
      </trkpt>
      <trkpt lat="40.5951030" lon="-4.0316270">
        <ele>896.6</ele>
        <time>2019-04-28T10:15:13Z</time>
      </trkpt>
      <trkpt lat="40.5950500" lon="-4.0315970">
        <ele>896.4</ele>
        <time>2019-04-28T10:15:14Z</time>
      </trkpt>
      <trkpt lat="40.5949890" lon="-4.0315670">
        <ele>896.2</ele>
        <time>2019-04-28T10:15:15Z</time>
      </trkpt>
      <trkpt lat="40.5949300" lon="-4.0315400">
        <ele>896.0</ele>
        <time>2019-04-28T10:15:16Z</time>
      </trkpt>
      <trkpt lat="40.5948670" lon="-4.0315110">
        <ele>895.8</ele>
        <time>2019-04-28T10:15:17Z</time>
      </trkpt>
      <trkpt lat="40.5947950" lon="-4.0314720">
        <ele>895.8</ele>
        <time>2019-04-28T10:15:18Z</time>
      </trkpt>
      <trkpt lat="40.5947430" lon="-4.0314380">
        <ele>895.8</ele>
        <time>2019-04-28T10:15:19Z</time>
      </trkpt>
      <trkpt lat="40.5946870" lon="-4.0314150">
        <ele>895.6</ele>
        <time>2019-04-28T10:15:20Z</time>
      </trkpt>
      <trkpt lat="40.5946260" lon="-4.0313900">
        <ele>895.4</ele>
        <time>2019-04-28T10:15:21Z</time>
      </trkpt>
      <trkpt lat="40.5945710" lon="-4.0313610">
        <ele>895.4</ele>
        <time>2019-04-28T10:15:22Z</time>
      </trkpt>
      <trkpt lat="40.5945150" lon="-4.0313340">
        <ele>895.4</ele>
        <time>2019-04-28T10:15:23Z</time>
      </trkpt>
      <trkpt lat="40.5944510" lon="-4.0313070">
        <ele>895.4</ele>
        <time>2019-04-28T10:15:24Z</time>
      </trkpt>
      <trkpt lat="40.5943880" lon="-4.0312770">
        <ele>895.4</ele>
        <time>2019-04-28T10:15:25Z</time>
      </trkpt>
      <trkpt lat="40.5943250" lon="-4.0312500">
        <ele>895.2</ele>
        <time>2019-04-28T10:15:26Z</time>
      </trkpt>
      <trkpt lat="40.5942650" lon="-4.0312230">
        <ele>895.0</ele>
        <time>2019-04-28T10:15:27Z</time>
      </trkpt>
      <trkpt lat="40.5942000" lon="-4.0312010">
        <ele>894.8</ele>
        <time>2019-04-28T10:15:28Z</time>
      </trkpt>
      <trkpt lat="40.5941440" lon="-4.0311790">
        <ele>894.4</ele>
        <time>2019-04-28T10:15:29Z</time>
      </trkpt>
      <trkpt lat="40.5940760" lon="-4.0311570">
        <ele>894.2</ele>
        <time>2019-04-28T10:15:30Z</time>
      </trkpt>
      <trkpt lat="40.5940080" lon="-4.0311320">
        <ele>894.0</ele>
        <time>2019-04-28T10:15:31Z</time>
      </trkpt>
      <trkpt lat="40.5939390" lon="-4.0311030">
        <ele>893.8</ele>
        <time>2019-04-28T10:15:32Z</time>
      </trkpt>
      <trkpt lat="40.5938720" lon="-4.0310680">
        <ele>893.4</ele>
        <time>2019-04-28T10:15:33Z</time>
      </trkpt>
      <trkpt lat="40.5938000" lon="-4.0310320">
        <ele>893.0</ele>
        <time>2019-04-28T10:15:34Z</time>
      </trkpt>
      <trkpt lat="40.5937350" lon="-4.0309960">
        <ele>892.8</ele>
        <time>2019-04-28T10:15:35Z</time>
      </trkpt>
      <trkpt lat="40.5936710" lon="-4.0309580">
        <ele>892.6</ele>
        <time>2019-04-28T10:15:36Z</time>
      </trkpt>
      <trkpt lat="40.5936050" lon="-4.0309200">
        <ele>892.4</ele>
        <time>2019-04-28T10:15:37Z</time>
      </trkpt>
      <trkpt lat="40.5935440" lon="-4.0308850">
        <ele>892.2</ele>
        <time>2019-04-28T10:15:38Z</time>
      </trkpt>
      <trkpt lat="40.5934880" lon="-4.0308450">
        <ele>892.2</ele>
        <time>2019-04-28T10:15:39Z</time>
      </trkpt>
      <trkpt lat="40.5934340" lon="-4.0307990">
        <ele>892.0</ele>
        <time>2019-04-28T10:15:40Z</time>
      </trkpt>
      <trkpt lat="40.5933680" lon="-4.0307480">
        <ele>891.8</ele>
        <time>2019-04-28T10:15:41Z</time>
      </trkpt>
      <trkpt lat="40.5933050" lon="-4.0306950">
        <ele>891.8</ele>
        <time>2019-04-28T10:15:42Z</time>
      </trkpt>
      <trkpt lat="40.5932310" lon="-4.0306520">
        <ele>891.6</ele>
        <time>2019-04-28T10:15:43Z</time>
      </trkpt>
      <trkpt lat="40.5931750" lon="-4.0306010">
        <ele>891.2</ele>
        <time>2019-04-28T10:15:44Z</time>
      </trkpt>
      <trkpt lat="40.5931170" lon="-4.0305510">
        <ele>891.2</ele>
        <time>2019-04-28T10:15:45Z</time>
      </trkpt>
      <trkpt lat="40.5930570" lon="-4.0305000">
        <ele>891.0</ele>
        <time>2019-04-28T10:15:46Z</time>
      </trkpt>
      <trkpt lat="40.5930040" lon="-4.0304520">
        <ele>891.0</ele>
        <time>2019-04-28T10:15:47Z</time>
      </trkpt>
      <trkpt lat="40.5929560" lon="-4.0304070">
        <ele>891.0</ele>
        <time>2019-04-28T10:15:48Z</time>
      </trkpt>
      <trkpt lat="40.5929010" lon="-4.0303610">
        <ele>891.0</ele>
        <time>2019-04-28T10:15:49Z</time>
      </trkpt>
      <trkpt lat="40.5928390" lon="-4.0303160">
        <ele>891.0</ele>
        <time>2019-04-28T10:15:50Z</time>
      </trkpt>
      <trkpt lat="40.5927840" lon="-4.0302760">
        <ele>891.0</ele>
        <time>2019-04-28T10:15:51Z</time>
      </trkpt>
      <trkpt lat="40.5927340" lon="-4.0302290">
        <ele>891.2</ele>
        <time>2019-04-28T10:15:52Z</time>
      </trkpt>
      <trkpt lat="40.5926830" lon="-4.0301790">
        <ele>891.2</ele>
        <time>2019-04-28T10:15:53Z</time>
      </trkpt>
      <trkpt lat="40.5926400" lon="-4.0301260">
        <ele>891.2</ele>
        <time>2019-04-28T10:15:54Z</time>
      </trkpt>
      <trkpt lat="40.5925910" lon="-4.0300760">
        <ele>891.2</ele>
        <time>2019-04-28T10:15:55Z</time>
      </trkpt>
      <trkpt lat="40.5925450" lon="-4.0300330">
        <ele>891.2</ele>
        <time>2019-04-28T10:15:56Z</time>
      </trkpt>
      <trkpt lat="40.5924960" lon="-4.0299880">
        <ele>891.4</ele>
        <time>2019-04-28T10:15:57Z</time>
      </trkpt>
      <trkpt lat="40.5924540" lon="-4.0299400">
        <ele>891.6</ele>
        <time>2019-04-28T10:15:58Z</time>
      </trkpt>
      <trkpt lat="40.5924100" lon="-4.0298940">
        <ele>891.6</ele>
        <time>2019-04-28T10:15:59Z</time>
      </trkpt>
      <trkpt lat="40.5923630" lon="-4.0298530">
        <ele>891.8</ele>
        <time>2019-04-28T10:16:00Z</time>
      </trkpt>
      <trkpt lat="40.5923220" lon="-4.0298090">
        <ele>891.8</ele>
        <time>2019-04-28T10:16:01Z</time>
      </trkpt>
      <trkpt lat="40.5922840" lon="-4.0297670">
        <ele>892.0</ele>
        <time>2019-04-28T10:16:02Z</time>
      </trkpt>
      <trkpt lat="40.5922460" lon="-4.0297270">
        <ele>892.0</ele>
        <time>2019-04-28T10:16:03Z</time>
      </trkpt>
      <trkpt lat="40.5922080" lon="-4.0296940">
        <ele>892.2</ele>
        <time>2019-04-28T10:16:04Z</time>
      </trkpt>
      <trkpt lat="40.5921740" lon="-4.0296650">
        <ele>892.4</ele>
        <time>2019-04-28T10:16:05Z</time>
      </trkpt>
      <trkpt lat="40.5921420" lon="-4.0296330">
        <ele>892.6</ele>
        <time>2019-04-28T10:16:06Z</time>
      </trkpt>
      <trkpt lat="40.5921080" lon="-4.0296030">
        <ele>893.0</ele>
        <time>2019-04-28T10:16:07Z</time>
      </trkpt>
      <trkpt lat="40.5920780" lon="-4.0295810">
        <ele>893.2</ele>
        <time>2019-04-28T10:16:08Z</time>
      </trkpt>
      <trkpt lat="40.5920570" lon="-4.0295630">
        <ele>893.4</ele>
        <time>2019-04-28T10:16:09Z</time>
      </trkpt>
      <trkpt lat="40.5920290" lon="-4.0295360">
        <ele>894.0</ele>
        <time>2019-04-28T10:16:10Z</time>
      </trkpt>
      <trkpt lat="40.5919980" lon="-4.0295020">
        <ele>894.4</ele>
        <time>2019-04-28T10:16:11Z</time>
      </trkpt>
      <trkpt lat="40.5919660" lon="-4.0294530">
        <ele>894.8</ele>
        <time>2019-04-28T10:16:12Z</time>
      </trkpt>
      <trkpt lat="40.5919340" lon="-4.0294060">
        <ele>895.2</ele>
        <time>2019-04-28T10:16:13Z</time>
      </trkpt>
      <trkpt lat="40.5919080" lon="-4.0293620">
        <ele>895.6</ele>
        <time>2019-04-28T10:16:14Z</time>
      </trkpt>
      <trkpt lat="40.5918840" lon="-4.0293180">
        <ele>895.8</ele>
        <time>2019-04-28T10:16:15Z</time>
      </trkpt>
      <trkpt lat="40.5918580" lon="-4.0292710">
        <ele>896.0</ele>
        <time>2019-04-28T10:16:16Z</time>
      </trkpt>
      <trkpt lat="40.5918320" lon="-4.0292190">
        <ele>896.0</ele>
        <time>2019-04-28T10:16:17Z</time>
      </trkpt>
      <trkpt lat="40.5918090" lon="-4.0291640">
        <ele>896.0</ele>
        <time>2019-04-28T10:16:18Z</time>
      </trkpt>
      <trkpt lat="40.5917800" lon="-4.0291080">
        <ele>896.0</ele>
        <time>2019-04-28T10:16:19Z</time>
      </trkpt>
      <trkpt lat="40.5917500" lon="-4.0290500">
        <ele>896.0</ele>
        <time>2019-04-28T10:16:20Z</time>
      </trkpt>
      <trkpt lat="40.5917220" lon="-4.0289890">
        <ele>896.0</ele>
        <time>2019-04-28T10:16:21Z</time>
      </trkpt>
      <trkpt lat="40.5916940" lon="-4.0289320">
        <ele>896.0</ele>
        <time>2019-04-28T10:16:22Z</time>
      </trkpt>
      <trkpt lat="40.5916680" lon="-4.0288860">
        <ele>896.2</ele>
        <time>2019-04-28T10:16:23Z</time>
      </trkpt>
      <trkpt lat="40.5916380" lon="-4.0288350">
        <ele>896.2</ele>
        <time>2019-04-28T10:16:24Z</time>
      </trkpt>
      <trkpt lat="40.5916140" lon="-4.0287900">
        <ele>896.2</ele>
        <time>2019-04-28T10:16:25Z</time>
      </trkpt>
      <trkpt lat="40.5915960" lon="-4.0287360">
        <ele>896.4</ele>
        <time>2019-04-28T10:16:26Z</time>
      </trkpt>
      <trkpt lat="40.5915840" lon="-4.0286850">
        <ele>896.4</ele>
        <time>2019-04-28T10:16:27Z</time>
      </trkpt>
      <trkpt lat="40.5915670" lon="-4.0286410">
        <ele>896.6</ele>
        <time>2019-04-28T10:16:28Z</time>
      </trkpt>
      <trkpt lat="40.5915420" lon="-4.0285760">
        <ele>896.8</ele>
        <time>2019-04-28T10:16:29Z</time>
      </trkpt>
      <trkpt lat="40.5915160" lon="-4.0285170">
        <ele>897.2</ele>
        <time>2019-04-28T10:16:30Z</time>
      </trkpt>
      <trkpt lat="40.5914990" lon="-4.0284680">
        <ele>897.6</ele>
        <time>2019-04-28T10:16:31Z</time>
      </trkpt>
      <trkpt lat="40.5914780" lon="-4.0284100">
        <ele>897.8</ele>
        <time>2019-04-28T10:16:32Z</time>
      </trkpt>
      <trkpt lat="40.5914610" lon="-4.0283530">
        <ele>898.0</ele>
        <time>2019-04-28T10:16:33Z</time>
      </trkpt>
      <trkpt lat="40.5914400" lon="-4.0282970">
        <ele>898.2</ele>
        <time>2019-04-28T10:16:34Z</time>
      </trkpt>
      <trkpt lat="40.5914190" lon="-4.0282410">
        <ele>898.2</ele>
        <time>2019-04-28T10:16:35Z</time>
      </trkpt>
      <trkpt lat="40.5913990" lon="-4.0281820">
        <ele>898.2</ele>
        <time>2019-04-28T10:16:36Z</time>
      </trkpt>
      <trkpt lat="40.5913750" lon="-4.0281260">
        <ele>898.0</ele>
        <time>2019-04-28T10:16:37Z</time>
      </trkpt>
      <trkpt lat="40.5913530" lon="-4.0280790">
        <ele>898.0</ele>
        <time>2019-04-28T10:16:38Z</time>
      </trkpt>
      <trkpt lat="40.5913300" lon="-4.0280290">
        <ele>898.0</ele>
        <time>2019-04-28T10:16:39Z</time>
      </trkpt>
      <trkpt lat="40.5913070" lon="-4.0279750">
        <ele>897.8</ele>
        <time>2019-04-28T10:16:40Z</time>
      </trkpt>
      <trkpt lat="40.5912810" lon="-4.0279190">
        <ele>897.8</ele>
        <time>2019-04-28T10:16:41Z</time>
      </trkpt>
      <trkpt lat="40.5912620" lon="-4.0278740">
        <ele>897.8</ele>
        <time>2019-04-28T10:16:42Z</time>
      </trkpt>
      <trkpt lat="40.5912430" lon="-4.0278280">
        <ele>897.8</ele>
        <time>2019-04-28T10:16:43Z</time>
      </trkpt>
      <trkpt lat="40.5912200" lon="-4.0277760">
        <ele>897.8</ele>
        <time>2019-04-28T10:16:44Z</time>
      </trkpt>
      <trkpt lat="40.5911960" lon="-4.0277290">
        <ele>897.8</ele>
        <time>2019-04-28T10:16:45Z</time>
      </trkpt>
      <trkpt lat="40.5911720" lon="-4.0276680">
        <ele>897.8</ele>
        <time>2019-04-28T10:16:46Z</time>
      </trkpt>
      <trkpt lat="40.5911550" lon="-4.0276160">
        <ele>898.0</ele>
        <time>2019-04-28T10:16:47Z</time>
      </trkpt>
      <trkpt lat="40.5911360" lon="-4.0275710">
        <ele>898.0</ele>
        <time>2019-04-28T10:16:48Z</time>
      </trkpt>
      <trkpt lat="40.5911210" lon="-4.0275210">
        <ele>898.2</ele>
        <time>2019-04-28T10:16:49Z</time>
      </trkpt>
      <trkpt lat="40.5911000" lon="-4.0274720">
        <ele>898.4</ele>
        <time>2019-04-28T10:16:50Z</time>
      </trkpt>
      <trkpt lat="40.5910790" lon="-4.0274280">
        <ele>898.4</ele>
        <time>2019-04-28T10:16:51Z</time>
      </trkpt>
      <trkpt lat="40.5910550" lon="-4.0273890">
        <ele>898.4</ele>
        <time>2019-04-28T10:16:52Z</time>
      </trkpt>
      <trkpt lat="40.5910290" lon="-4.0273500">
        <ele>898.6</ele>
        <time>2019-04-28T10:16:53Z</time>
      </trkpt>
      <trkpt lat="40.5910080" lon="-4.0273160">
        <ele>899.0</ele>
        <time>2019-04-28T10:16:54Z</time>
      </trkpt>
      <trkpt lat="40.5909850" lon="-4.0272790">
        <ele>899.0</ele>
        <time>2019-04-28T10:16:55Z</time>
      </trkpt>
      <trkpt lat="40.5909640" lon="-4.0272400">
        <ele>899.2</ele>
        <time>2019-04-28T10:16:56Z</time>
      </trkpt>
      <trkpt lat="40.5909410" lon="-4.0272040">
        <ele>899.4</ele>
        <time>2019-04-28T10:16:57Z</time>
      </trkpt>
      <trkpt lat="40.5909190" lon="-4.0271660">
        <ele>899.4</ele>
        <time>2019-04-28T10:16:58Z</time>
      </trkpt>
      <trkpt lat="40.5908920" lon="-4.0271200">
        <ele>899.6</ele>
        <time>2019-04-28T10:16:59Z</time>
      </trkpt>
      <trkpt lat="40.5908660" lon="-4.0270770">
        <ele>899.6</ele>
        <time>2019-04-28T10:17:00Z</time>
      </trkpt>
      <trkpt lat="40.5908390" lon="-4.0270340">
        <ele>899.6</ele>
        <time>2019-04-28T10:17:01Z</time>
      </trkpt>
      <trkpt lat="40.5908150" lon="-4.0269950">
        <ele>899.8</ele>
        <time>2019-04-28T10:17:02Z</time>
      </trkpt>
      <trkpt lat="40.5907900" lon="-4.0269580">
        <ele>900.0</ele>
        <time>2019-04-28T10:17:03Z</time>
      </trkpt>
      <trkpt lat="40.5907630" lon="-4.0269180">
        <ele>900.4</ele>
        <time>2019-04-28T10:17:04Z</time>
      </trkpt>
      <trkpt lat="40.5907340" lon="-4.0268850">
        <ele>900.6</ele>
        <time>2019-04-28T10:17:05Z</time>
      </trkpt>
      <trkpt lat="40.5907030" lon="-4.0268540">
        <ele>901.0</ele>
        <time>2019-04-28T10:17:06Z</time>
      </trkpt>
      <trkpt lat="40.5906720" lon="-4.0268320">
        <ele>901.2</ele>
        <time>2019-04-28T10:17:07Z</time>
      </trkpt>
      <trkpt lat="40.5906480" lon="-4.0268260">
        <ele>901.6</ele>
        <time>2019-04-28T10:17:08Z</time>
      </trkpt>
      <trkpt lat="40.5906170" lon="-4.0268210">
        <ele>902.2</ele>
        <time>2019-04-28T10:17:09Z</time>
      </trkpt>
      <trkpt lat="40.5905830" lon="-4.0268130">
        <ele>902.4</ele>
        <time>2019-04-28T10:17:10Z</time>
      </trkpt>
      <trkpt lat="40.5905490" lon="-4.0268100">
        <ele>902.8</ele>
        <time>2019-04-28T10:17:11Z</time>
      </trkpt>
      <trkpt lat="40.5905170" lon="-4.0268120">
        <ele>903.0</ele>
        <time>2019-04-28T10:17:12Z</time>
      </trkpt>
      <trkpt lat="40.5904840" lon="-4.0268170">
        <ele>903.0</ele>
        <time>2019-04-28T10:17:13Z</time>
      </trkpt>
      <trkpt lat="40.5904540" lon="-4.0268310">
        <ele>903.2</ele>
        <time>2019-04-28T10:17:14Z</time>
      </trkpt>
      <trkpt lat="40.5904250" lon="-4.0268510">
        <ele>903.2</ele>
        <time>2019-04-28T10:17:15Z</time>
      </trkpt>
      <trkpt lat="40.5903960" lon="-4.0268740">
        <ele>903.2</ele>
        <time>2019-04-28T10:17:16Z</time>
      </trkpt>
      <trkpt lat="40.5903650" lon="-4.0268950">
        <ele>903.0</ele>
        <time>2019-04-28T10:17:17Z</time>
      </trkpt>
      <trkpt lat="40.5903370" lon="-4.0269220">
        <ele>903.0</ele>
        <time>2019-04-28T10:17:18Z</time>
      </trkpt>
      <trkpt lat="40.5903050" lon="-4.0269560">
        <ele>903.0</ele>
        <time>2019-04-28T10:17:19Z</time>
      </trkpt>
      <trkpt lat="40.5902780" lon="-4.0269890">
        <ele>903.2</ele>
        <time>2019-04-28T10:17:20Z</time>
      </trkpt>
      <trkpt lat="40.5902550" lon="-4.0270240">
        <ele>903.2</ele>
        <time>2019-04-28T10:17:21Z</time>
      </trkpt>
      <trkpt lat="40.5902310" lon="-4.0270550">
        <ele>903.4</ele>
        <time>2019-04-28T10:17:22Z</time>
      </trkpt>
      <trkpt lat="40.5902070" lon="-4.0270850">
        <ele>903.6</ele>
        <time>2019-04-28T10:17:23Z</time>
      </trkpt>
      <trkpt lat="40.5901790" lon="-4.0271140">
        <ele>903.8</ele>
        <time>2019-04-28T10:17:24Z</time>
      </trkpt>
      <trkpt lat="40.5901540" lon="-4.0271420">
        <ele>904.0</ele>
        <time>2019-04-28T10:17:25Z</time>
      </trkpt>
      <trkpt lat="40.5901330" lon="-4.0271690">
        <ele>904.2</ele>
        <time>2019-04-28T10:17:26Z</time>
      </trkpt>
      <trkpt lat="40.5901080" lon="-4.0271950">
        <ele>904.4</ele>
        <time>2019-04-28T10:17:27Z</time>
      </trkpt>
      <trkpt lat="40.5900850" lon="-4.0272220">
        <ele>904.6</ele>
        <time>2019-04-28T10:17:28Z</time>
      </trkpt>
      <trkpt lat="40.5900620" lon="-4.0272480">
        <ele>904.6</ele>
        <time>2019-04-28T10:17:29Z</time>
      </trkpt>
      <trkpt lat="40.5900420" lon="-4.0272740">
        <ele>905.0</ele>
        <time>2019-04-28T10:17:30Z</time>
      </trkpt>
      <trkpt lat="40.5900190" lon="-4.0272980">
        <ele>905.4</ele>
        <time>2019-04-28T10:17:31Z</time>
      </trkpt>
      <trkpt lat="40.5900000" lon="-4.0273230">
        <ele>905.6</ele>
        <time>2019-04-28T10:17:32Z</time>
      </trkpt>
      <trkpt lat="40.5899730" lon="-4.0273490">
        <ele>905.8</ele>
        <time>2019-04-28T10:17:33Z</time>
      </trkpt>
      <trkpt lat="40.5899500" lon="-4.0273750">
        <ele>906.0</ele>
        <time>2019-04-28T10:17:34Z</time>
      </trkpt>
      <trkpt lat="40.5899310" lon="-4.0274010">
        <ele>906.2</ele>
        <time>2019-04-28T10:17:35Z</time>
      </trkpt>
      <trkpt lat="40.5899080" lon="-4.0274270">
        <ele>906.4</ele>
        <time>2019-04-28T10:17:36Z</time>
      </trkpt>
      <trkpt lat="40.5898800" lon="-4.0274550">
        <ele>906.6</ele>
        <time>2019-04-28T10:17:37Z</time>
      </trkpt>
      <trkpt lat="40.5898560" lon="-4.0274830">
        <ele>907.0</ele>
        <time>2019-04-28T10:17:38Z</time>
      </trkpt>
      <trkpt lat="40.5898290" lon="-4.0275130">
        <ele>907.6</ele>
        <time>2019-04-28T10:17:39Z</time>
      </trkpt>
      <trkpt lat="40.5898040" lon="-4.0275420">
        <ele>907.8</ele>
        <time>2019-04-28T10:17:40Z</time>
      </trkpt>
      <trkpt lat="40.5897800" lon="-4.0275690">
        <ele>908.0</ele>
        <time>2019-04-28T10:17:41Z</time>
      </trkpt>
      <trkpt lat="40.5897550" lon="-4.0275990">
        <ele>908.6</ele>
        <time>2019-04-28T10:17:42Z</time>
      </trkpt>
      <trkpt lat="40.5897260" lon="-4.0276270">
        <ele>909.0</ele>
        <time>2019-04-28T10:17:43Z</time>
      </trkpt>
      <trkpt lat="40.5896950" lon="-4.0276570">
        <ele>909.2</ele>
        <time>2019-04-28T10:17:44Z</time>
      </trkpt>
      <trkpt lat="40.5896700" lon="-4.0276840">
        <ele>909.4</ele>
        <time>2019-04-28T10:17:45Z</time>
      </trkpt>
      <trkpt lat="40.5896400" lon="-4.0277160">
        <ele>909.4</ele>
        <time>2019-04-28T10:17:46Z</time>
      </trkpt>
      <trkpt lat="40.5896110" lon="-4.0277500">
        <ele>909.4</ele>
        <time>2019-04-28T10:17:47Z</time>
      </trkpt>
      <trkpt lat="40.5895860" lon="-4.0277820">
        <ele>909.6</ele>
        <time>2019-04-28T10:17:48Z</time>
      </trkpt>
      <trkpt lat="40.5895650" lon="-4.0278160">
        <ele>909.6</ele>
        <time>2019-04-28T10:17:49Z</time>
      </trkpt>
      <trkpt lat="40.5895420" lon="-4.0278510">
        <ele>909.4</ele>
        <time>2019-04-28T10:17:50Z</time>
      </trkpt>
      <trkpt lat="40.5895240" lon="-4.0278820">
        <ele>909.4</ele>
        <time>2019-04-28T10:17:51Z</time>
      </trkpt>
      <trkpt lat="40.5895050" lon="-4.0279100">
        <ele>909.4</ele>
        <time>2019-04-28T10:17:52Z</time>
      </trkpt>
      <trkpt lat="40.5894840" lon="-4.0279390">
        <ele>909.2</ele>
        <time>2019-04-28T10:17:53Z</time>
      </trkpt>
      <trkpt lat="40.5894600" lon="-4.0279630">
        <ele>909.0</ele>
        <time>2019-04-28T10:17:54Z</time>
      </trkpt>
      <trkpt lat="40.5894470" lon="-4.0279940">
        <ele>908.8</ele>
        <time>2019-04-28T10:17:55Z</time>
      </trkpt>
      <trkpt lat="40.5894210" lon="-4.0280270">
        <ele>908.8</ele>
        <time>2019-04-28T10:17:56Z</time>
      </trkpt>
      <trkpt lat="40.5894020" lon="-4.0280590">
        <ele>908.6</ele>
        <time>2019-04-28T10:17:57Z</time>
      </trkpt>
      <trkpt lat="40.5893760" lon="-4.0280830">
        <ele>908.6</ele>
        <time>2019-04-28T10:17:58Z</time>
      </trkpt>
      <trkpt lat="40.5893450" lon="-4.0281040">
        <ele>908.4</ele>
        <time>2019-04-28T10:17:59Z</time>
      </trkpt>
      <trkpt lat="40.5893170" lon="-4.0281120">
        <ele>908.4</ele>
        <time>2019-04-28T10:18:00Z</time>
      </trkpt>
      <trkpt lat="40.5892940" lon="-4.0281270">
        <ele>908.4</ele>
        <time>2019-04-28T10:18:01Z</time>
      </trkpt>
      <trkpt lat="40.5892690" lon="-4.0281530">
        <ele>908.4</ele>
        <time>2019-04-28T10:18:02Z</time>
      </trkpt>
      <trkpt lat="40.5892480" lon="-4.0281740">
        <ele>908.4</ele>
        <time>2019-04-28T10:18:03Z</time>
      </trkpt>
      <trkpt lat="40.5892210" lon="-4.0281820">
        <ele>908.6</ele>
        <time>2019-04-28T10:18:04Z</time>
      </trkpt>
      <trkpt lat="40.5891960" lon="-4.0281730">
        <ele>908.6</ele>
        <time>2019-04-28T10:18:05Z</time>
      </trkpt>
      <trkpt lat="40.5891740" lon="-4.0281540">
        <ele>908.8</ele>
        <time>2019-04-28T10:18:06Z</time>
      </trkpt>
      <trkpt lat="40.5891650" lon="-4.0281340">
        <ele>908.8</ele>
        <time>2019-04-28T10:18:07Z</time>
      </trkpt>
      <trkpt lat="40.5891490" lon="-4.0281080">
        <ele>909.0</ele>
        <time>2019-04-28T10:18:08Z</time>
      </trkpt>
      <trkpt lat="40.5891280" lon="-4.0280810">
        <ele>909.2</ele>
        <time>2019-04-28T10:18:09Z</time>
      </trkpt>
      <trkpt lat="40.5891070" lon="-4.0280610">
        <ele>909.2</ele>
        <time>2019-04-28T10:18:10Z</time>
      </trkpt>
      <trkpt lat="40.5890910" lon="-4.0280440">
        <ele>909.4</ele>
        <time>2019-04-28T10:18:11Z</time>
      </trkpt>
      <trkpt lat="40.5890740" lon="-4.0280240">
        <ele>909.4</ele>
        <time>2019-04-28T10:18:12Z</time>
      </trkpt>
      <trkpt lat="40.5890580" lon="-4.0280020">
        <ele>909.6</ele>
        <time>2019-04-28T10:18:13Z</time>
      </trkpt>
      <trkpt lat="40.5890290" lon="-4.0279800">
        <ele>909.6</ele>
        <time>2019-04-28T10:18:14Z</time>
      </trkpt>
      <trkpt lat="40.5890140" lon="-4.0279540">
        <ele>909.8</ele>
        <time>2019-04-28T10:18:15Z</time>
      </trkpt>
      <trkpt lat="40.5889920" lon="-4.0279270">
        <ele>910.0</ele>
        <time>2019-04-28T10:18:16Z</time>
      </trkpt>
      <trkpt lat="40.5889730" lon="-4.0279000">
        <ele>910.2</ele>
        <time>2019-04-28T10:18:17Z</time>
      </trkpt>
      <trkpt lat="40.5889490" lon="-4.0278670">
        <ele>910.2</ele>
        <time>2019-04-28T10:18:18Z</time>
      </trkpt>
      <trkpt lat="40.5889180" lon="-4.0278380">
        <ele>910.4</ele>
        <time>2019-04-28T10:18:19Z</time>
      </trkpt>
      <trkpt lat="40.5889050" lon="-4.0278090">
        <ele>910.6</ele>
        <time>2019-04-28T10:18:20Z</time>
      </trkpt>
      <trkpt lat="40.5888900" lon="-4.0277850">
        <ele>910.6</ele>
        <time>2019-04-28T10:18:21Z</time>
      </trkpt>
      <trkpt lat="40.5888660" lon="-4.0277590">
        <ele>910.8</ele>
        <time>2019-04-28T10:18:22Z</time>
      </trkpt>
      <trkpt lat="40.5888440" lon="-4.0277300">
        <ele>910.8</ele>
        <time>2019-04-28T10:18:23Z</time>
      </trkpt>
      <trkpt lat="40.5888200" lon="-4.0277040">
        <ele>911.0</ele>
        <time>2019-04-28T10:18:24Z</time>
      </trkpt>
      <trkpt lat="40.5887750" lon="-4.0276820">
        <ele>911.4</ele>
        <time>2019-04-28T10:18:25Z</time>
      </trkpt>
      <trkpt lat="40.5887390" lon="-4.0276570">
        <ele>911.4</ele>
        <time>2019-04-28T10:18:26Z</time>
      </trkpt>
      <trkpt lat="40.5886670" lon="-4.0276370">
        <ele>911.6</ele>
        <time>2019-04-28T10:18:27Z</time>
      </trkpt>
      <trkpt lat="40.5886320" lon="-4.0276120">
        <ele>911.8</ele>
        <time>2019-04-28T10:18:28Z</time>
      </trkpt>
      <trkpt lat="40.5886060" lon="-4.0275900">
        <ele>911.8</ele>
        <time>2019-04-28T10:18:29Z</time>
      </trkpt>
      <trkpt lat="40.5885740" lon="-4.0275640">
        <ele>912.0</ele>
        <time>2019-04-28T10:18:30Z</time>
      </trkpt>
      <trkpt lat="40.5885440" lon="-4.0275360">
        <ele>912.2</ele>
        <time>2019-04-28T10:18:31Z</time>
      </trkpt>
      <trkpt lat="40.5885170" lon="-4.0275080">
        <ele>912.2</ele>
        <time>2019-04-28T10:18:32Z</time>
      </trkpt>
      <trkpt lat="40.5884880" lon="-4.0274690">
        <ele>912.2</ele>
        <time>2019-04-28T10:18:33Z</time>
      </trkpt>
      <trkpt lat="40.5884620" lon="-4.0274340">
        <ele>912.4</ele>
        <time>2019-04-28T10:18:34Z</time>
      </trkpt>
      <trkpt lat="40.5884380" lon="-4.0273980">
        <ele>912.6</ele>
        <time>2019-04-28T10:18:35Z</time>
      </trkpt>
      <trkpt lat="40.5884140" lon="-4.0273640">
        <ele>912.6</ele>
        <time>2019-04-28T10:18:36Z</time>
      </trkpt>
      <trkpt lat="40.5883910" lon="-4.0273290">
        <ele>912.8</ele>
        <time>2019-04-28T10:18:37Z</time>
      </trkpt>
      <trkpt lat="40.5883750" lon="-4.0272940">
        <ele>912.8</ele>
        <time>2019-04-28T10:18:38Z</time>
      </trkpt>
      <trkpt lat="40.5883480" lon="-4.0272580">
        <ele>913.0</ele>
        <time>2019-04-28T10:18:39Z</time>
      </trkpt>
      <trkpt lat="40.5883230" lon="-4.0272260">
        <ele>913.2</ele>
        <time>2019-04-28T10:18:40Z</time>
      </trkpt>
      <trkpt lat="40.5882910" lon="-4.0271980">
        <ele>913.4</ele>
        <time>2019-04-28T10:18:41Z</time>
      </trkpt>
      <trkpt lat="40.5882620" lon="-4.0271710">
        <ele>913.6</ele>
        <time>2019-04-28T10:18:42Z</time>
      </trkpt>
      <trkpt lat="40.5882390" lon="-4.0271490">
        <ele>913.6</ele>
        <time>2019-04-28T10:18:43Z</time>
      </trkpt>
      <trkpt lat="40.5882120" lon="-4.0271280">
        <ele>913.8</ele>
        <time>2019-04-28T10:18:44Z</time>
      </trkpt>
      <trkpt lat="40.5881760" lon="-4.0271080">
        <ele>913.8</ele>
        <time>2019-04-28T10:18:45Z</time>
      </trkpt>
      <trkpt lat="40.5881440" lon="-4.0270890">
        <ele>913.8</ele>
        <time>2019-04-28T10:18:46Z</time>
      </trkpt>
      <trkpt lat="40.5881120" lon="-4.0270700">
        <ele>914.0</ele>
        <time>2019-04-28T10:18:47Z</time>
      </trkpt>
      <trkpt lat="40.5880840" lon="-4.0270510">
        <ele>914.0</ele>
        <time>2019-04-28T10:18:48Z</time>
      </trkpt>
      <trkpt lat="40.5880510" lon="-4.0270330">
        <ele>914.2</ele>
        <time>2019-04-28T10:18:49Z</time>
      </trkpt>
      <trkpt lat="40.5880330" lon="-4.0270170">
        <ele>914.2</ele>
        <time>2019-04-28T10:18:50Z</time>
      </trkpt>
      <trkpt lat="40.5880030" lon="-4.0270060">
        <ele>914.2</ele>
        <time>2019-04-28T10:18:51Z</time>
      </trkpt>
      <trkpt lat="40.5879730" lon="-4.0269940">
        <ele>914.4</ele>
        <time>2019-04-28T10:18:52Z</time>
      </trkpt>
      <trkpt lat="40.5879500" lon="-4.0269830">
        <ele>914.4</ele>
        <time>2019-04-28T10:18:53Z</time>
      </trkpt>
      <trkpt lat="40.5879270" lon="-4.0269720">
        <ele>914.6</ele>
        <time>2019-04-28T10:18:54Z</time>
      </trkpt>
      <trkpt lat="40.5878920" lon="-4.0269610">
        <ele>914.8</ele>
        <time>2019-04-28T10:18:55Z</time>
      </trkpt>
      <trkpt lat="40.5878640" lon="-4.0269490">
        <ele>915.2</ele>
        <time>2019-04-28T10:18:56Z</time>
      </trkpt>
      <trkpt lat="40.5878340" lon="-4.0269370">
        <ele>915.2</ele>
        <time>2019-04-28T10:18:57Z</time>
      </trkpt>
      <trkpt lat="40.5878030" lon="-4.0269300">
        <ele>915.2</ele>
        <time>2019-04-28T10:18:58Z</time>
      </trkpt>
      <trkpt lat="40.5877680" lon="-4.0269300">
        <ele>915.4</ele>
        <time>2019-04-28T10:18:59Z</time>
      </trkpt>
      <trkpt lat="40.5877330" lon="-4.0269330">
        <ele>915.4</ele>
        <time>2019-04-28T10:19:00Z</time>
      </trkpt>
      <trkpt lat="40.5877010" lon="-4.0269330">
        <ele>915.8</ele>
        <time>2019-04-28T10:19:01Z</time>
      </trkpt>
      <trkpt lat="40.5876670" lon="-4.0269360">
        <ele>915.8</ele>
        <time>2019-04-28T10:19:02Z</time>
      </trkpt>
      <trkpt lat="40.5876370" lon="-4.0269380">
        <ele>916.0</ele>
        <time>2019-04-28T10:19:03Z</time>
      </trkpt>
      <trkpt lat="40.5876030" lon="-4.0269380">
        <ele>916.0</ele>
        <time>2019-04-28T10:19:04Z</time>
      </trkpt>
      <trkpt lat="40.5875750" lon="-4.0269340">
        <ele>916.2</ele>
        <time>2019-04-28T10:19:05Z</time>
      </trkpt>
      <trkpt lat="40.5875380" lon="-4.0269250">
        <ele>916.4</ele>
        <time>2019-04-28T10:19:06Z</time>
      </trkpt>
      <trkpt lat="40.5875000" lon="-4.0269130">
        <ele>916.6</ele>
        <time>2019-04-28T10:19:07Z</time>
      </trkpt>
      <trkpt lat="40.5874620" lon="-4.0269020">
        <ele>916.6</ele>
        <time>2019-04-28T10:19:08Z</time>
      </trkpt>
      <trkpt lat="40.5874280" lon="-4.0268880">
        <ele>916.8</ele>
        <time>2019-04-28T10:19:09Z</time>
      </trkpt>
      <trkpt lat="40.5873980" lon="-4.0268650">
        <ele>917.0</ele>
        <time>2019-04-28T10:19:10Z</time>
      </trkpt>
      <trkpt lat="40.5873700" lon="-4.0268370">
        <ele>917.2</ele>
        <time>2019-04-28T10:19:11Z</time>
      </trkpt>
      <trkpt lat="40.5873460" lon="-4.0268050">
        <ele>917.4</ele>
        <time>2019-04-28T10:19:12Z</time>
      </trkpt>
      <trkpt lat="40.5873230" lon="-4.0267680">
        <ele>917.6</ele>
        <time>2019-04-28T10:19:13Z</time>
      </trkpt>
      <trkpt lat="40.5872930" lon="-4.0267300">
        <ele>917.6</ele>
        <time>2019-04-28T10:19:14Z</time>
      </trkpt>
      <trkpt lat="40.5872610" lon="-4.0266930">
        <ele>918.0</ele>
        <time>2019-04-28T10:19:15Z</time>
      </trkpt>
      <trkpt lat="40.5872330" lon="-4.0266520">
        <ele>918.2</ele>
        <time>2019-04-28T10:19:16Z</time>
      </trkpt>
      <trkpt lat="40.5872120" lon="-4.0266120">
        <ele>918.4</ele>
        <time>2019-04-28T10:19:17Z</time>
      </trkpt>
      <trkpt lat="40.5871920" lon="-4.0265770">
        <ele>918.6</ele>
        <time>2019-04-28T10:19:18Z</time>
      </trkpt>
      <trkpt lat="40.5871760" lon="-4.0265370">
        <ele>918.8</ele>
        <time>2019-04-28T10:19:19Z</time>
      </trkpt>
      <trkpt lat="40.5871580" lon="-4.0264950">
        <ele>918.8</ele>
        <time>2019-04-28T10:19:20Z</time>
      </trkpt>
      <trkpt lat="40.5871370" lon="-4.0264500">
        <ele>919.0</ele>
        <time>2019-04-28T10:19:21Z</time>
      </trkpt>
      <trkpt lat="40.5871160" lon="-4.0264140">
        <ele>919.0</ele>
        <time>2019-04-28T10:19:22Z</time>
      </trkpt>
      <trkpt lat="40.5870940" lon="-4.0263750">
        <ele>919.2</ele>
        <time>2019-04-28T10:19:23Z</time>
      </trkpt>
      <trkpt lat="40.5870720" lon="-4.0263300">
        <ele>919.4</ele>
        <time>2019-04-28T10:19:24Z</time>
      </trkpt>
      <trkpt lat="40.5870500" lon="-4.0262860">
        <ele>919.4</ele>
        <time>2019-04-28T10:19:25Z</time>
      </trkpt>
      <trkpt lat="40.5870280" lon="-4.0262460">
        <ele>919.6</ele>
        <time>2019-04-28T10:19:26Z</time>
      </trkpt>
      <trkpt lat="40.5870080" lon="-4.0262050">
        <ele>919.6</ele>
        <time>2019-04-28T10:19:27Z</time>
      </trkpt>
      <trkpt lat="40.5869860" lon="-4.0261680">
        <ele>919.8</ele>
        <time>2019-04-28T10:19:28Z</time>
      </trkpt>
      <trkpt lat="40.5869650" lon="-4.0261310">
        <ele>920.0</ele>
        <time>2019-04-28T10:19:29Z</time>
      </trkpt>
      <trkpt lat="40.5869420" lon="-4.0260990">
        <ele>920.0</ele>
        <time>2019-04-28T10:19:30Z</time>
      </trkpt>
      <trkpt lat="40.5869190" lon="-4.0260680">
        <ele>920.2</ele>
        <time>2019-04-28T10:19:31Z</time>
      </trkpt>
      <trkpt lat="40.5868970" lon="-4.0260400">
        <ele>920.4</ele>
        <time>2019-04-28T10:19:32Z</time>
      </trkpt>
      <trkpt lat="40.5868830" lon="-4.0260150">
        <ele>920.2</ele>
        <time>2019-04-28T10:19:33Z</time>
      </trkpt>
      <trkpt lat="40.5868680" lon="-4.0259870">
        <ele>920.2</ele>
        <time>2019-04-28T10:19:34Z</time>
      </trkpt>
      <trkpt lat="40.5868510" lon="-4.0259560">
        <ele>920.4</ele>
        <time>2019-04-28T10:19:35Z</time>
      </trkpt>
      <trkpt lat="40.5868290" lon="-4.0259230">
        <ele>920.4</ele>
        <time>2019-04-28T10:19:36Z</time>
      </trkpt>
      <trkpt lat="40.5868120" lon="-4.0258900">
        <ele>920.4</ele>
        <time>2019-04-28T10:19:37Z</time>
      </trkpt>
      <trkpt lat="40.5867960" lon="-4.0258600">
        <ele>920.6</ele>
        <time>2019-04-28T10:19:38Z</time>
      </trkpt>
      <trkpt lat="40.5867710" lon="-4.0258320">
        <ele>920.6</ele>
        <time>2019-04-28T10:19:39Z</time>
      </trkpt>
      <trkpt lat="40.5867460" lon="-4.0258020">
        <ele>920.6</ele>
        <time>2019-04-28T10:19:40Z</time>
      </trkpt>
      <trkpt lat="40.5867160" lon="-4.0257740">
        <ele>920.8</ele>
        <time>2019-04-28T10:19:41Z</time>
      </trkpt>
      <trkpt lat="40.5866770" lon="-4.0257470">
        <ele>920.8</ele>
        <time>2019-04-28T10:19:42Z</time>
      </trkpt>
      <trkpt lat="40.5866370" lon="-4.0257160">
        <ele>921.0</ele>
        <time>2019-04-28T10:19:43Z</time>
      </trkpt>
      <trkpt lat="40.5866070" lon="-4.0256940">
        <ele>921.2</ele>
        <time>2019-04-28T10:19:44Z</time>
      </trkpt>
      <trkpt lat="40.5865760" lon="-4.0256710">
        <ele>921.4</ele>
        <time>2019-04-28T10:19:45Z</time>
      </trkpt>
      <trkpt lat="40.5865440" lon="-4.0256550">
        <ele>921.6</ele>
        <time>2019-04-28T10:19:46Z</time>
      </trkpt>
      <trkpt lat="40.5865140" lon="-4.0256390">
        <ele>921.6</ele>
        <time>2019-04-28T10:19:47Z</time>
      </trkpt>
      <trkpt lat="40.5864890" lon="-4.0256190">
        <ele>921.6</ele>
        <time>2019-04-28T10:19:48Z</time>
      </trkpt>
      <trkpt lat="40.5864610" lon="-4.0256040">
        <ele>922.0</ele>
        <time>2019-04-28T10:19:49Z</time>
      </trkpt>
      <trkpt lat="40.5864250" lon="-4.0255920">
        <ele>922.2</ele>
        <time>2019-04-28T10:19:50Z</time>
      </trkpt>
      <trkpt lat="40.5863860" lon="-4.0255760">
        <ele>922.2</ele>
        <time>2019-04-28T10:19:51Z</time>
      </trkpt>
      <trkpt lat="40.5863530" lon="-4.0255570">
        <ele>922.4</ele>
        <time>2019-04-28T10:19:52Z</time>
      </trkpt>
      <trkpt lat="40.5863250" lon="-4.0255300">
        <ele>922.4</ele>
        <time>2019-04-28T10:19:53Z</time>
      </trkpt>
      <trkpt lat="40.5863080" lon="-4.0255020">
        <ele>922.6</ele>
        <time>2019-04-28T10:19:54Z</time>
      </trkpt>
      <trkpt lat="40.5862810" lon="-4.0254750">
        <ele>922.6</ele>
        <time>2019-04-28T10:19:55Z</time>
      </trkpt>
      <trkpt lat="40.5862500" lon="-4.0254490">
        <ele>922.8</ele>
        <time>2019-04-28T10:19:56Z</time>
      </trkpt>
      <trkpt lat="40.5862100" lon="-4.0254210">
        <ele>923.0</ele>
        <time>2019-04-28T10:19:57Z</time>
      </trkpt>
      <trkpt lat="40.5861710" lon="-4.0253970">
        <ele>923.2</ele>
        <time>2019-04-28T10:19:58Z</time>
      </trkpt>
      <trkpt lat="40.5861360" lon="-4.0253700">
        <ele>923.2</ele>
        <time>2019-04-28T10:19:59Z</time>
      </trkpt>
      <trkpt lat="40.5861100" lon="-4.0253410">
        <ele>923.4</ele>
        <time>2019-04-28T10:20:00Z</time>
      </trkpt>
      <trkpt lat="40.5860790" lon="-4.0253150">
        <ele>923.4</ele>
        <time>2019-04-28T10:20:01Z</time>
      </trkpt>
      <trkpt lat="40.5860450" lon="-4.0252960">
        <ele>923.6</ele>
        <time>2019-04-28T10:20:02Z</time>
      </trkpt>
      <trkpt lat="40.5860070" lon="-4.0252790">
        <ele>923.6</ele>
        <time>2019-04-28T10:20:03Z</time>
      </trkpt>
      <trkpt lat="40.5859660" lon="-4.0252630">
        <ele>923.8</ele>
        <time>2019-04-28T10:20:04Z</time>
      </trkpt>
      <trkpt lat="40.5859290" lon="-4.0252430">
        <ele>924.0</ele>
        <time>2019-04-28T10:20:05Z</time>
      </trkpt>
      <trkpt lat="40.5858940" lon="-4.0252240">
        <ele>924.0</ele>
        <time>2019-04-28T10:20:06Z</time>
      </trkpt>
      <trkpt lat="40.5858530" lon="-4.0252020">
        <ele>924.2</ele>
        <time>2019-04-28T10:20:07Z</time>
      </trkpt>
      <trkpt lat="40.5858130" lon="-4.0251800">
        <ele>924.2</ele>
        <time>2019-04-28T10:20:08Z</time>
      </trkpt>
      <trkpt lat="40.5857810" lon="-4.0251600">
        <ele>924.4</ele>
        <time>2019-04-28T10:20:09Z</time>
      </trkpt>
      <trkpt lat="40.5857480" lon="-4.0251390">
        <ele>924.4</ele>
        <time>2019-04-28T10:20:10Z</time>
      </trkpt>
      <trkpt lat="40.5857190" lon="-4.0251180">
        <ele>924.4</ele>
        <time>2019-04-28T10:20:11Z</time>
      </trkpt>
      <trkpt lat="40.5856880" lon="-4.0250960">
        <ele>924.6</ele>
        <time>2019-04-28T10:20:12Z</time>
      </trkpt>
      <trkpt lat="40.5856560" lon="-4.0250680">
        <ele>924.6</ele>
        <time>2019-04-28T10:20:13Z</time>
      </trkpt>
      <trkpt lat="40.5856210" lon="-4.0250380">
        <ele>924.8</ele>
        <time>2019-04-28T10:20:14Z</time>
      </trkpt>
      <trkpt lat="40.5855860" lon="-4.0250050">
        <ele>924.8</ele>
        <time>2019-04-28T10:20:15Z</time>
      </trkpt>
      <trkpt lat="40.5855430" lon="-4.0249720">
        <ele>925.0</ele>
        <time>2019-04-28T10:20:16Z</time>
      </trkpt>
      <trkpt lat="40.5855020" lon="-4.0249390">
        <ele>925.0</ele>
        <time>2019-04-28T10:20:17Z</time>
      </trkpt>
      <trkpt lat="40.5854530" lon="-4.0249100">
        <ele>925.0</ele>
        <time>2019-04-28T10:20:18Z</time>
      </trkpt>
      <trkpt lat="40.5854190" lon="-4.0248790">
        <ele>925.2</ele>
        <time>2019-04-28T10:20:19Z</time>
      </trkpt>
      <trkpt lat="40.5853860" lon="-4.0248490">
        <ele>925.2</ele>
        <time>2019-04-28T10:20:20Z</time>
      </trkpt>
      <trkpt lat="40.5853550" lon="-4.0248190">
        <ele>925.4</ele>
        <time>2019-04-28T10:20:21Z</time>
      </trkpt>
      <trkpt lat="40.5853230" lon="-4.0247920">
        <ele>925.4</ele>
        <time>2019-04-28T10:20:22Z</time>
      </trkpt>
      <trkpt lat="40.5852960" lon="-4.0247570">
        <ele>925.4</ele>
        <time>2019-04-28T10:20:23Z</time>
      </trkpt>
      <trkpt lat="40.5852650" lon="-4.0247180">
        <ele>925.6</ele>
        <time>2019-04-28T10:20:24Z</time>
      </trkpt>
      <trkpt lat="40.5852360" lon="-4.0246760">
        <ele>925.6</ele>
        <time>2019-04-28T10:20:25Z</time>
      </trkpt>
      <trkpt lat="40.5852020" lon="-4.0246360">
        <ele>925.8</ele>
        <time>2019-04-28T10:20:26Z</time>
      </trkpt>
      <trkpt lat="40.5851700" lon="-4.0245920">
        <ele>925.8</ele>
        <time>2019-04-28T10:20:27Z</time>
      </trkpt>
      <trkpt lat="40.5851370" lon="-4.0245490">
        <ele>925.8</ele>
        <time>2019-04-28T10:20:28Z</time>
      </trkpt>
      <trkpt lat="40.5851130" lon="-4.0245130">
        <ele>926.0</ele>
        <time>2019-04-28T10:20:29Z</time>
      </trkpt>
      <trkpt lat="40.5850830" lon="-4.0244680">
        <ele>925.8</ele>
        <time>2019-04-28T10:20:30Z</time>
      </trkpt>
      <trkpt lat="40.5850480" lon="-4.0244250">
        <ele>925.8</ele>
        <time>2019-04-28T10:20:31Z</time>
      </trkpt>
      <trkpt lat="40.5850200" lon="-4.0243830">
        <ele>925.6</ele>
        <time>2019-04-28T10:20:32Z</time>
      </trkpt>
      <trkpt lat="40.5849970" lon="-4.0243430">
        <ele>925.6</ele>
        <time>2019-04-28T10:20:33Z</time>
      </trkpt>
      <trkpt lat="40.5849720" lon="-4.0243030">
        <ele>925.6</ele>
        <time>2019-04-28T10:20:34Z</time>
      </trkpt>
      <trkpt lat="40.5849430" lon="-4.0242550">
        <ele>925.6</ele>
        <time>2019-04-28T10:20:35Z</time>
      </trkpt>
      <trkpt lat="40.5849160" lon="-4.0242060">
        <ele>925.6</ele>
        <time>2019-04-28T10:20:36Z</time>
      </trkpt>
      <trkpt lat="40.5848850" lon="-4.0241580">
        <ele>925.6</ele>
        <time>2019-04-28T10:20:37Z</time>
      </trkpt>
      <trkpt lat="40.5848570" lon="-4.0241140">
        <ele>925.6</ele>
        <time>2019-04-28T10:20:38Z</time>
      </trkpt>
      <trkpt lat="40.5848270" lon="-4.0240730">
        <ele>925.6</ele>
        <time>2019-04-28T10:20:39Z</time>
      </trkpt>
      <trkpt lat="40.5847990" lon="-4.0240290">
        <ele>925.6</ele>
        <time>2019-04-28T10:20:40Z</time>
      </trkpt>
      <trkpt lat="40.5847750" lon="-4.0239860">
        <ele>925.4</ele>
        <time>2019-04-28T10:20:41Z</time>
      </trkpt>
      <trkpt lat="40.5847440" lon="-4.0239470">
        <ele>925.6</ele>
        <time>2019-04-28T10:20:42Z</time>
      </trkpt>
      <trkpt lat="40.5847160" lon="-4.0239040">
        <ele>925.6</ele>
        <time>2019-04-28T10:20:43Z</time>
      </trkpt>
      <trkpt lat="40.5846950" lon="-4.0238670">
        <ele>925.6</ele>
        <time>2019-04-28T10:20:44Z</time>
      </trkpt>
      <trkpt lat="40.5846660" lon="-4.0238340">
        <ele>925.6</ele>
        <time>2019-04-28T10:20:45Z</time>
      </trkpt>
      <trkpt lat="40.5846400" lon="-4.0237980">
        <ele>925.6</ele>
        <time>2019-04-28T10:20:46Z</time>
      </trkpt>
      <trkpt lat="40.5846150" lon="-4.0237660">
        <ele>925.6</ele>
        <time>2019-04-28T10:20:47Z</time>
      </trkpt>
      <trkpt lat="40.5845790" lon="-4.0237290">
        <ele>925.4</ele>
        <time>2019-04-28T10:20:48Z</time>
      </trkpt>
      <trkpt lat="40.5845510" lon="-4.0236950">
        <ele>925.4</ele>
        <time>2019-04-28T10:20:49Z</time>
      </trkpt>
      <trkpt lat="40.5845140" lon="-4.0236610">
        <ele>925.2</ele>
        <time>2019-04-28T10:20:50Z</time>
      </trkpt>
      <trkpt lat="40.5844780" lon="-4.0236230">
        <ele>925.2</ele>
        <time>2019-04-28T10:20:51Z</time>
      </trkpt>
      <trkpt lat="40.5844460" lon="-4.0235810">
        <ele>925.2</ele>
        <time>2019-04-28T10:20:52Z</time>
      </trkpt>
      <trkpt lat="40.5844140" lon="-4.0235350">
        <ele>925.2</ele>
        <time>2019-04-28T10:20:53Z</time>
      </trkpt>
      <trkpt lat="40.5843830" lon="-4.0234840">
        <ele>925.2</ele>
        <time>2019-04-28T10:20:54Z</time>
      </trkpt>
      <trkpt lat="40.5843480" lon="-4.0234360">
        <ele>925.2</ele>
        <time>2019-04-28T10:20:55Z</time>
      </trkpt>
      <trkpt lat="40.5843130" lon="-4.0233910">
        <ele>925.2</ele>
        <time>2019-04-28T10:20:56Z</time>
      </trkpt>
      <trkpt lat="40.5842780" lon="-4.0233520">
        <ele>925.0</ele>
        <time>2019-04-28T10:20:57Z</time>
      </trkpt>
      <trkpt lat="40.5842450" lon="-4.0233080">
        <ele>925.0</ele>
        <time>2019-04-28T10:20:58Z</time>
      </trkpt>
      <trkpt lat="40.5842080" lon="-4.0232740">
        <ele>925.0</ele>
        <time>2019-04-28T10:20:59Z</time>
      </trkpt>
      <trkpt lat="40.5841760" lon="-4.0232400">
        <ele>925.0</ele>
        <time>2019-04-28T10:21:00Z</time>
      </trkpt>
      <trkpt lat="40.5841480" lon="-4.0231980">
        <ele>925.2</ele>
        <time>2019-04-28T10:21:01Z</time>
      </trkpt>
      <trkpt lat="40.5841240" lon="-4.0231560">
        <ele>925.2</ele>
        <time>2019-04-28T10:21:02Z</time>
      </trkpt>
      <trkpt lat="40.5840930" lon="-4.0231040">
        <ele>925.0</ele>
        <time>2019-04-28T10:21:03Z</time>
      </trkpt>
      <trkpt lat="40.5840670" lon="-4.0230480">
        <ele>924.6</ele>
        <time>2019-04-28T10:21:04Z</time>
      </trkpt>
      <trkpt lat="40.5840420" lon="-4.0229860">
        <ele>924.6</ele>
        <time>2019-04-28T10:21:05Z</time>
      </trkpt>
      <trkpt lat="40.5840100" lon="-4.0229330">
        <ele>924.6</ele>
        <time>2019-04-28T10:21:06Z</time>
      </trkpt>
      <trkpt lat="40.5839870" lon="-4.0228710">
        <ele>924.4</ele>
        <time>2019-04-28T10:21:07Z</time>
      </trkpt>
      <trkpt lat="40.5839640" lon="-4.0228060">
        <ele>924.4</ele>
        <time>2019-04-28T10:21:08Z</time>
      </trkpt>
      <trkpt lat="40.5839380" lon="-4.0227360">
        <ele>924.4</ele>
        <time>2019-04-28T10:21:09Z</time>
      </trkpt>
      <trkpt lat="40.5839200" lon="-4.0226680">
        <ele>924.4</ele>
        <time>2019-04-28T10:21:10Z</time>
      </trkpt>
      <trkpt lat="40.5839040" lon="-4.0225950">
        <ele>924.2</ele>
        <time>2019-04-28T10:21:11Z</time>
      </trkpt>
      <trkpt lat="40.5838900" lon="-4.0225200">
        <ele>924.2</ele>
        <time>2019-04-28T10:21:12Z</time>
      </trkpt>
      <trkpt lat="40.5838740" lon="-4.0224560">
        <ele>924.0</ele>
        <time>2019-04-28T10:21:13Z</time>
      </trkpt>
      <trkpt lat="40.5838570" lon="-4.0223940">
        <ele>924.0</ele>
        <time>2019-04-28T10:21:14Z</time>
      </trkpt>
      <trkpt lat="40.5838390" lon="-4.0223290">
        <ele>923.8</ele>
        <time>2019-04-28T10:21:15Z</time>
      </trkpt>
      <trkpt lat="40.5838140" lon="-4.0222670">
        <ele>923.6</ele>
        <time>2019-04-28T10:21:16Z</time>
      </trkpt>
      <trkpt lat="40.5837870" lon="-4.0222040">
        <ele>923.6</ele>
        <time>2019-04-28T10:21:17Z</time>
      </trkpt>
      <trkpt lat="40.5837550" lon="-4.0221450">
        <ele>923.6</ele>
        <time>2019-04-28T10:21:18Z</time>
      </trkpt>
      <trkpt lat="40.5837180" lon="-4.0220860">
        <ele>923.6</ele>
        <time>2019-04-28T10:21:19Z</time>
      </trkpt>
      <trkpt lat="40.5836920" lon="-4.0220250">
        <ele>923.4</ele>
        <time>2019-04-28T10:21:20Z</time>
      </trkpt>
      <trkpt lat="40.5836680" lon="-4.0219690">
        <ele>923.2</ele>
        <time>2019-04-28T10:21:21Z</time>
      </trkpt>
      <trkpt lat="40.5836510" lon="-4.0219110">
        <ele>923.2</ele>
        <time>2019-04-28T10:21:22Z</time>
      </trkpt>
      <trkpt lat="40.5836350" lon="-4.0218540">
        <ele>923.2</ele>
        <time>2019-04-28T10:21:23Z</time>
      </trkpt>
      <trkpt lat="40.5836190" lon="-4.0217980">
        <ele>923.2</ele>
        <time>2019-04-28T10:21:24Z</time>
      </trkpt>
      <trkpt lat="40.5836010" lon="-4.0217470">
        <ele>923.2</ele>
        <time>2019-04-28T10:21:25Z</time>
      </trkpt>
      <trkpt lat="40.5835770" lon="-4.0216990">
        <ele>923.2</ele>
        <time>2019-04-28T10:21:26Z</time>
      </trkpt>
      <trkpt lat="40.5835510" lon="-4.0216460">
        <ele>923.0</ele>
        <time>2019-04-28T10:21:27Z</time>
      </trkpt>
      <trkpt lat="40.5835250" lon="-4.0215980">
        <ele>923.0</ele>
        <time>2019-04-28T10:21:28Z</time>
      </trkpt>
      <trkpt lat="40.5834900" lon="-4.0215500">
        <ele>923.0</ele>
        <time>2019-04-28T10:21:29Z</time>
      </trkpt>
      <trkpt lat="40.5834520" lon="-4.0215010">
        <ele>922.8</ele>
        <time>2019-04-28T10:21:30Z</time>
      </trkpt>
      <trkpt lat="40.5834090" lon="-4.0214580">
        <ele>922.4</ele>
        <time>2019-04-28T10:21:31Z</time>
      </trkpt>
      <trkpt lat="40.5833640" lon="-4.0213980">
        <ele>922.2</ele>
        <time>2019-04-28T10:21:32Z</time>
      </trkpt>
      <trkpt lat="40.5833230" lon="-4.0213460">
        <ele>921.8</ele>
        <time>2019-04-28T10:21:33Z</time>
      </trkpt>
      <trkpt lat="40.5832810" lon="-4.0212910">
        <ele>921.6</ele>
        <time>2019-04-28T10:21:34Z</time>
      </trkpt>
      <trkpt lat="40.5832390" lon="-4.0212300">
        <ele>920.8</ele>
        <time>2019-04-28T10:21:35Z</time>
      </trkpt>
      <trkpt lat="40.5832000" lon="-4.0211730">
        <ele>920.6</ele>
        <time>2019-04-28T10:21:36Z</time>
      </trkpt>
      <trkpt lat="40.5831660" lon="-4.0211180">
        <ele>920.4</ele>
        <time>2019-04-28T10:21:37Z</time>
      </trkpt>
      <trkpt lat="40.5831390" lon="-4.0210660">
        <ele>920.2</ele>
        <time>2019-04-28T10:21:38Z</time>
      </trkpt>
      <trkpt lat="40.5831110" lon="-4.0210240">
        <ele>920.0</ele>
        <time>2019-04-28T10:21:39Z</time>
      </trkpt>
      <trkpt lat="40.5830900" lon="-4.0210030">
        <ele>919.8</ele>
        <time>2019-04-28T10:21:40Z</time>
      </trkpt>
      <trkpt lat="40.5830720" lon="-4.0210030">
        <ele>919.8</ele>
        <time>2019-04-28T10:21:41Z</time>
      </trkpt>
      <trkpt lat="40.5830600" lon="-4.0210080">
        <ele>919.4</ele>
        <time>2019-04-28T10:21:42Z</time>
      </trkpt>
      <trkpt lat="40.5830530" lon="-4.0210300">
        <ele>919.2</ele>
        <time>2019-04-28T10:21:43Z</time>
      </trkpt>
      <trkpt lat="40.5830510" lon="-4.0210620">
        <ele>919.4</ele>
        <time>2019-04-28T10:21:44Z</time>
      </trkpt>
      <trkpt lat="40.5830530" lon="-4.0211010">
        <ele>919.4</ele>
        <time>2019-04-28T10:21:45Z</time>
      </trkpt>
      <trkpt lat="40.5830570" lon="-4.0211480">
        <ele>919.8</ele>
        <time>2019-04-28T10:21:46Z</time>
      </trkpt>
      <trkpt lat="40.5830580" lon="-4.0211950">
        <ele>920.2</ele>
        <time>2019-04-28T10:21:47Z</time>
      </trkpt>
      <trkpt lat="40.5830530" lon="-4.0212440">
        <ele>920.6</ele>
        <time>2019-04-28T10:21:48Z</time>
      </trkpt>
      <trkpt lat="40.5830480" lon="-4.0212920">
        <ele>920.8</ele>
        <time>2019-04-28T10:21:49Z</time>
      </trkpt>
      <trkpt lat="40.5830460" lon="-4.0213420">
        <ele>921.2</ele>
        <time>2019-04-28T10:21:50Z</time>
      </trkpt>
      <trkpt lat="40.5830430" lon="-4.0213870">
        <ele>921.2</ele>
        <time>2019-04-28T10:21:51Z</time>
      </trkpt>
      <trkpt lat="40.5830390" lon="-4.0214310">
        <ele>921.2</ele>
        <time>2019-04-28T10:21:52Z</time>
      </trkpt>
      <trkpt lat="40.5830360" lon="-4.0214870">
        <ele>921.0</ele>
        <time>2019-04-28T10:21:53Z</time>
      </trkpt>
      <trkpt lat="40.5830330" lon="-4.0215460">
        <ele>921.0</ele>
        <time>2019-04-28T10:21:54Z</time>
      </trkpt>
      <trkpt lat="40.5830300" lon="-4.0216040">
        <ele>920.8</ele>
        <time>2019-04-28T10:21:55Z</time>
      </trkpt>
      <trkpt lat="40.5830270" lon="-4.0216580">
        <ele>920.6</ele>
        <time>2019-04-28T10:21:56Z</time>
      </trkpt>
      <trkpt lat="40.5830260" lon="-4.0217170">
        <ele>920.6</ele>
        <time>2019-04-28T10:21:57Z</time>
      </trkpt>
      <trkpt lat="40.5830210" lon="-4.0217800">
        <ele>920.6</ele>
        <time>2019-04-28T10:21:58Z</time>
      </trkpt>
      <trkpt lat="40.5830090" lon="-4.0218400">
        <ele>920.6</ele>
        <time>2019-04-28T10:21:59Z</time>
      </trkpt>
      <trkpt lat="40.5830080" lon="-4.0218920">
        <ele>920.6</ele>
        <time>2019-04-28T10:22:00Z</time>
      </trkpt>
      <trkpt lat="40.5830070" lon="-4.0219450">
        <ele>920.6</ele>
        <time>2019-04-28T10:22:01Z</time>
      </trkpt>
      <trkpt lat="40.5829990" lon="-4.0219990">
        <ele>920.6</ele>
        <time>2019-04-28T10:22:02Z</time>
      </trkpt>
      <trkpt lat="40.5829880" lon="-4.0220540">
        <ele>920.8</ele>
        <time>2019-04-28T10:22:03Z</time>
      </trkpt>
      <trkpt lat="40.5829790" lon="-4.0221090">
        <ele>920.8</ele>
        <time>2019-04-28T10:22:04Z</time>
      </trkpt>
      <trkpt lat="40.5829680" lon="-4.0221630">
        <ele>921.0</ele>
        <time>2019-04-28T10:22:05Z</time>
      </trkpt>
      <trkpt lat="40.5829570" lon="-4.0222190">
        <ele>921.0</ele>
        <time>2019-04-28T10:22:06Z</time>
      </trkpt>
      <trkpt lat="40.5829400" lon="-4.0222780">
        <ele>921.2</ele>
        <time>2019-04-28T10:22:07Z</time>
      </trkpt>
      <trkpt lat="40.5829290" lon="-4.0223380">
        <ele>921.4</ele>
        <time>2019-04-28T10:22:08Z</time>
      </trkpt>
      <trkpt lat="40.5829280" lon="-4.0223980">
        <ele>921.6</ele>
        <time>2019-04-28T10:22:09Z</time>
      </trkpt>
      <trkpt lat="40.5829150" lon="-4.0224460">
        <ele>922.0</ele>
        <time>2019-04-28T10:22:10Z</time>
      </trkpt>
      <trkpt lat="40.5829010" lon="-4.0224940">
        <ele>922.2</ele>
        <time>2019-04-28T10:22:11Z</time>
      </trkpt>
      <trkpt lat="40.5828880" lon="-4.0225460">
        <ele>922.4</ele>
        <time>2019-04-28T10:22:12Z</time>
      </trkpt>
      <trkpt lat="40.5828800" lon="-4.0226000">
        <ele>922.6</ele>
        <time>2019-04-28T10:22:13Z</time>
      </trkpt>
      <trkpt lat="40.5828710" lon="-4.0226520">
        <ele>923.2</ele>
        <time>2019-04-28T10:22:14Z</time>
      </trkpt>
      <trkpt lat="40.5828640" lon="-4.0227000">
        <ele>923.6</ele>
        <time>2019-04-28T10:22:15Z</time>
      </trkpt>
      <trkpt lat="40.5828570" lon="-4.0227500">
        <ele>924.0</ele>
        <time>2019-04-28T10:22:16Z</time>
      </trkpt>
      <trkpt lat="40.5828500" lon="-4.0228010">
        <ele>924.0</ele>
        <time>2019-04-28T10:22:17Z</time>
      </trkpt>
      <trkpt lat="40.5828380" lon="-4.0228520">
        <ele>924.0</ele>
        <time>2019-04-28T10:22:18Z</time>
      </trkpt>
      <trkpt lat="40.5828240" lon="-4.0229020">
        <ele>924.0</ele>
        <time>2019-04-28T10:22:19Z</time>
      </trkpt>
      <trkpt lat="40.5828190" lon="-4.0229570">
        <ele>924.2</ele>
        <time>2019-04-28T10:22:20Z</time>
      </trkpt>
      <trkpt lat="40.5828140" lon="-4.0230110">
        <ele>924.2</ele>
        <time>2019-04-28T10:22:21Z</time>
      </trkpt>
      <trkpt lat="40.5828090" lon="-4.0230680">
        <ele>924.2</ele>
        <time>2019-04-28T10:22:22Z</time>
      </trkpt>
      <trkpt lat="40.5828010" lon="-4.0231210">
        <ele>924.2</ele>
        <time>2019-04-28T10:22:23Z</time>
      </trkpt>
      <trkpt lat="40.5827910" lon="-4.0231730">
        <ele>924.2</ele>
        <time>2019-04-28T10:22:24Z</time>
      </trkpt>
      <trkpt lat="40.5827720" lon="-4.0232230">
        <ele>924.4</ele>
        <time>2019-04-28T10:22:25Z</time>
      </trkpt>
      <trkpt lat="40.5827540" lon="-4.0232700">
        <ele>924.4</ele>
        <time>2019-04-28T10:22:26Z</time>
      </trkpt>
      <trkpt lat="40.5827360" lon="-4.0233120">
        <ele>924.6</ele>
        <time>2019-04-28T10:22:27Z</time>
      </trkpt>
      <trkpt lat="40.5827140" lon="-4.0233540">
        <ele>924.8</ele>
        <time>2019-04-28T10:22:28Z</time>
      </trkpt>
      <trkpt lat="40.5826960" lon="-4.0233950">
        <ele>925.0</ele>
        <time>2019-04-28T10:22:29Z</time>
      </trkpt>
      <trkpt lat="40.5826830" lon="-4.0234380">
        <ele>925.0</ele>
        <time>2019-04-28T10:22:30Z</time>
      </trkpt>
      <trkpt lat="40.5826710" lon="-4.0234830">
        <ele>925.0</ele>
        <time>2019-04-28T10:22:31Z</time>
      </trkpt>
      <trkpt lat="40.5826540" lon="-4.0235250">
        <ele>925.2</ele>
        <time>2019-04-28T10:22:32Z</time>
      </trkpt>
      <trkpt lat="40.5826360" lon="-4.0235690">
        <ele>925.2</ele>
        <time>2019-04-28T10:22:33Z</time>
      </trkpt>
      <trkpt lat="40.5826220" lon="-4.0236160">
        <ele>925.0</ele>
        <time>2019-04-28T10:22:34Z</time>
      </trkpt>
      <trkpt lat="40.5826040" lon="-4.0236590">
        <ele>925.2</ele>
        <time>2019-04-28T10:22:35Z</time>
      </trkpt>
      <trkpt lat="40.5825880" lon="-4.0237050">
        <ele>925.2</ele>
        <time>2019-04-28T10:22:36Z</time>
      </trkpt>
      <trkpt lat="40.5825700" lon="-4.0237480">
        <ele>925.2</ele>
        <time>2019-04-28T10:22:37Z</time>
      </trkpt>
      <trkpt lat="40.5825570" lon="-4.0237900">
        <ele>925.2</ele>
        <time>2019-04-28T10:22:38Z</time>
      </trkpt>
      <trkpt lat="40.5825570" lon="-4.0238230">
        <ele>925.2</ele>
        <time>2019-04-28T10:22:39Z</time>
      </trkpt>
      <trkpt lat="40.5825480" lon="-4.0238510">
        <ele>925.0</ele>
        <time>2019-04-28T10:22:40Z</time>
      </trkpt>
      <trkpt lat="40.5825350" lon="-4.0238770">
        <ele>924.8</ele>
        <time>2019-04-28T10:22:41Z</time>
      </trkpt>
      <trkpt lat="40.5825250" lon="-4.0239060">
        <ele>924.8</ele>
        <time>2019-04-28T10:22:42Z</time>
      </trkpt>
      <trkpt lat="40.5825160" lon="-4.0239340">
        <ele>924.6</ele>
        <time>2019-04-28T10:22:43Z</time>
      </trkpt>
      <trkpt lat="40.5825030" lon="-4.0239610">
        <ele>924.4</ele>
        <time>2019-04-28T10:22:44Z</time>
      </trkpt>
      <trkpt lat="40.5824900" lon="-4.0239900">
        <ele>924.4</ele>
        <time>2019-04-28T10:22:45Z</time>
      </trkpt>
      <trkpt lat="40.5824740" lon="-4.0240180">
        <ele>924.2</ele>
        <time>2019-04-28T10:22:46Z</time>
      </trkpt>
      <trkpt lat="40.5824570" lon="-4.0240480">
        <ele>924.2</ele>
        <time>2019-04-28T10:22:47Z</time>
      </trkpt>
      <trkpt lat="40.5824450" lon="-4.0240780">
        <ele>924.0</ele>
        <time>2019-04-28T10:22:48Z</time>
      </trkpt>
      <trkpt lat="40.5824260" lon="-4.0241150">
        <ele>923.6</ele>
        <time>2019-04-28T10:22:49Z</time>
      </trkpt>
      <trkpt lat="40.5824040" lon="-4.0241480">
        <ele>923.0</ele>
        <time>2019-04-28T10:22:50Z</time>
      </trkpt>
      <trkpt lat="40.5823710" lon="-4.0241890">
        <ele>922.6</ele>
        <time>2019-04-28T10:22:51Z</time>
      </trkpt>
      <trkpt lat="40.5823430" lon="-4.0242420">
        <ele>922.0</ele>
        <time>2019-04-28T10:22:52Z</time>
      </trkpt>
      <trkpt lat="40.5823180" lon="-4.0243090">
        <ele>921.6</ele>
        <time>2019-04-28T10:22:53Z</time>
      </trkpt>
      <trkpt lat="40.5822870" lon="-4.0243760">
        <ele>921.0</ele>
        <time>2019-04-28T10:22:54Z</time>
      </trkpt>
      <trkpt lat="40.5822540" lon="-4.0244450">
        <ele>920.6</ele>
        <time>2019-04-28T10:22:55Z</time>
      </trkpt>
      <trkpt lat="40.5822180" lon="-4.0245190">
        <ele>920.4</ele>
        <time>2019-04-28T10:22:56Z</time>
      </trkpt>
      <trkpt lat="40.5821770" lon="-4.0245840">
        <ele>920.0</ele>
        <time>2019-04-28T10:22:57Z</time>
      </trkpt>
      <trkpt lat="40.5821350" lon="-4.0246450">
        <ele>919.6</ele>
        <time>2019-04-28T10:22:58Z</time>
      </trkpt>
      <trkpt lat="40.5820900" lon="-4.0247010">
        <ele>919.4</ele>
        <time>2019-04-28T10:22:59Z</time>
      </trkpt>
      <trkpt lat="40.5820500" lon="-4.0247610">
        <ele>919.0</ele>
        <time>2019-04-28T10:23:00Z</time>
      </trkpt>
      <trkpt lat="40.5820140" lon="-4.0248260">
        <ele>918.6</ele>
        <time>2019-04-28T10:23:01Z</time>
      </trkpt>
      <trkpt lat="40.5819770" lon="-4.0248840">
        <ele>918.0</ele>
        <time>2019-04-28T10:23:02Z</time>
      </trkpt>
      <trkpt lat="40.5819420" lon="-4.0249600">
        <ele>917.2</ele>
        <time>2019-04-28T10:23:03Z</time>
      </trkpt>
      <trkpt lat="40.5819140" lon="-4.0250560">
        <ele>917.0</ele>
        <time>2019-04-28T10:23:04Z</time>
      </trkpt>
      <trkpt lat="40.5818780" lon="-4.0251500">
        <ele>916.8</ele>
        <time>2019-04-28T10:23:05Z</time>
      </trkpt>
      <trkpt lat="40.5818410" lon="-4.0252320">
        <ele>916.8</ele>
        <time>2019-04-28T10:23:06Z</time>
      </trkpt>
      <trkpt lat="40.5818010" lon="-4.0253080">
        <ele>916.4</ele>
        <time>2019-04-28T10:23:07Z</time>
      </trkpt>
      <trkpt lat="40.5817560" lon="-4.0253810">
        <ele>916.2</ele>
        <time>2019-04-28T10:23:08Z</time>
      </trkpt>
      <trkpt lat="40.5817090" lon="-4.0254450">
        <ele>916.0</ele>
        <time>2019-04-28T10:23:09Z</time>
      </trkpt>
      <trkpt lat="40.5816700" lon="-4.0255110">
        <ele>916.0</ele>
        <time>2019-04-28T10:23:10Z</time>
      </trkpt>
      <trkpt lat="40.5816300" lon="-4.0255790">
        <ele>916.0</ele>
        <time>2019-04-28T10:23:11Z</time>
      </trkpt>
      <trkpt lat="40.5815920" lon="-4.0256420">
        <ele>916.2</ele>
        <time>2019-04-28T10:23:12Z</time>
      </trkpt>
      <trkpt lat="40.5815510" lon="-4.0256980">
        <ele>916.4</ele>
        <time>2019-04-28T10:23:13Z</time>
      </trkpt>
      <trkpt lat="40.5815160" lon="-4.0257490">
        <ele>916.6</ele>
        <time>2019-04-28T10:23:14Z</time>
      </trkpt>
      <trkpt lat="40.5814780" lon="-4.0257920">
        <ele>916.8</ele>
        <time>2019-04-28T10:23:15Z</time>
      </trkpt>
      <trkpt lat="40.5814380" lon="-4.0258340">
        <ele>917.2</ele>
        <time>2019-04-28T10:23:16Z</time>
      </trkpt>
      <trkpt lat="40.5814040" lon="-4.0258670">
        <ele>917.0</ele>
        <time>2019-04-28T10:23:17Z</time>
      </trkpt>
      <trkpt lat="40.5813710" lon="-4.0258970">
        <ele>917.0</ele>
        <time>2019-04-28T10:23:18Z</time>
      </trkpt>
      <trkpt lat="40.5813350" lon="-4.0259260">
        <ele>916.6</ele>
        <time>2019-04-28T10:23:19Z</time>
      </trkpt>
      <trkpt lat="40.5813030" lon="-4.0259590">
        <ele>916.4</ele>
        <time>2019-04-28T10:23:20Z</time>
      </trkpt>
      <trkpt lat="40.5812720" lon="-4.0259930">
        <ele>916.2</ele>
        <time>2019-04-28T10:23:21Z</time>
      </trkpt>
      <trkpt lat="40.5812410" lon="-4.0260270">
        <ele>916.0</ele>
        <time>2019-04-28T10:23:22Z</time>
      </trkpt>
      <trkpt lat="40.5812030" lon="-4.0260630">
        <ele>915.8</ele>
        <time>2019-04-28T10:23:23Z</time>
      </trkpt>
      <trkpt lat="40.5811570" lon="-4.0260940">
        <ele>915.4</ele>
        <time>2019-04-28T10:23:24Z</time>
      </trkpt>
      <trkpt lat="40.5811100" lon="-4.0261220">
        <ele>915.0</ele>
        <time>2019-04-28T10:23:25Z</time>
      </trkpt>
      <trkpt lat="40.5810540" lon="-4.0261510">
        <ele>914.6</ele>
        <time>2019-04-28T10:23:26Z</time>
      </trkpt>
      <trkpt lat="40.5809940" lon="-4.0261740">
        <ele>914.0</ele>
        <time>2019-04-28T10:23:27Z</time>
      </trkpt>
      <trkpt lat="40.5809290" lon="-4.0261970">
        <ele>913.6</ele>
        <time>2019-04-28T10:23:28Z</time>
      </trkpt>
      <trkpt lat="40.5808620" lon="-4.0262180">
        <ele>913.0</ele>
        <time>2019-04-28T10:23:29Z</time>
      </trkpt>
      <trkpt lat="40.5807960" lon="-4.0262400">
        <ele>912.6</ele>
        <time>2019-04-28T10:23:30Z</time>
      </trkpt>
      <trkpt lat="40.5807290" lon="-4.0262620">
        <ele>912.2</ele>
        <time>2019-04-28T10:23:31Z</time>
      </trkpt>
      <trkpt lat="40.5806580" lon="-4.0262880">
        <ele>911.6</ele>
        <time>2019-04-28T10:23:32Z</time>
      </trkpt>
      <trkpt lat="40.5805870" lon="-4.0263240">
        <ele>911.2</ele>
        <time>2019-04-28T10:23:33Z</time>
      </trkpt>
      <trkpt lat="40.5805150" lon="-4.0263630">
        <ele>910.6</ele>
        <time>2019-04-28T10:23:34Z</time>
      </trkpt>
      <trkpt lat="40.5804460" lon="-4.0263960">
        <ele>910.4</ele>
        <time>2019-04-28T10:23:35Z</time>
      </trkpt>
      <trkpt lat="40.5803670" lon="-4.0264230">
        <ele>910.0</ele>
        <time>2019-04-28T10:23:36Z</time>
      </trkpt>
      <trkpt lat="40.5802880" lon="-4.0264380">
        <ele>909.2</ele>
        <time>2019-04-28T10:23:37Z</time>
      </trkpt>
      <trkpt lat="40.5802050" lon="-4.0264500">
        <ele>909.0</ele>
        <time>2019-04-28T10:23:38Z</time>
      </trkpt>
      <trkpt lat="40.5801170" lon="-4.0264580">
        <ele>908.6</ele>
        <time>2019-04-28T10:23:39Z</time>
      </trkpt>
      <trkpt lat="40.5800300" lon="-4.0264670">
        <ele>908.4</ele>
        <time>2019-04-28T10:23:40Z</time>
      </trkpt>
      <trkpt lat="40.5799440" lon="-4.0264690">
        <ele>908.2</ele>
        <time>2019-04-28T10:23:41Z</time>
      </trkpt>
      <trkpt lat="40.5798570" lon="-4.0264590">
        <ele>907.8</ele>
        <time>2019-04-28T10:23:42Z</time>
      </trkpt>
      <trkpt lat="40.5797700" lon="-4.0264450">
        <ele>907.2</ele>
        <time>2019-04-28T10:23:43Z</time>
      </trkpt>
      <trkpt lat="40.5796860" lon="-4.0264290">
        <ele>907.0</ele>
        <time>2019-04-28T10:23:44Z</time>
      </trkpt>
      <trkpt lat="40.5796020" lon="-4.0264090">
        <ele>906.6</ele>
        <time>2019-04-28T10:23:45Z</time>
      </trkpt>
      <trkpt lat="40.5795250" lon="-4.0263910">
        <ele>906.4</ele>
        <time>2019-04-28T10:23:46Z</time>
      </trkpt>
      <trkpt lat="40.5794530" lon="-4.0263760">
        <ele>905.8</ele>
        <time>2019-04-28T10:23:47Z</time>
      </trkpt>
      <trkpt lat="40.5793870" lon="-4.0263630">
        <ele>905.8</ele>
        <time>2019-04-28T10:23:48Z</time>
      </trkpt>
      <trkpt lat="40.5793220" lon="-4.0263500">
        <ele>905.8</ele>
        <time>2019-04-28T10:23:49Z</time>
      </trkpt>
      <trkpt lat="40.5792630" lon="-4.0263430">
        <ele>905.8</ele>
        <time>2019-04-28T10:23:50Z</time>
      </trkpt>
      <trkpt lat="40.5792040" lon="-4.0263330">
        <ele>905.8</ele>
        <time>2019-04-28T10:23:51Z</time>
      </trkpt>
      <trkpt lat="40.5791490" lon="-4.0263210">
        <ele>905.6</ele>
        <time>2019-04-28T10:23:52Z</time>
      </trkpt>
      <trkpt lat="40.5790910" lon="-4.0263110">
        <ele>905.4</ele>
        <time>2019-04-28T10:23:53Z</time>
      </trkpt>
      <trkpt lat="40.5790320" lon="-4.0263010">
        <ele>905.4</ele>
        <time>2019-04-28T10:23:54Z</time>
      </trkpt>
      <trkpt lat="40.5789750" lon="-4.0262960">
        <ele>905.2</ele>
        <time>2019-04-28T10:23:55Z</time>
      </trkpt>
      <trkpt lat="40.5789170" lon="-4.0262910">
        <ele>905.0</ele>
        <time>2019-04-28T10:23:56Z</time>
      </trkpt>
      <trkpt lat="40.5788660" lon="-4.0262880">
        <ele>904.6</ele>
        <time>2019-04-28T10:23:57Z</time>
      </trkpt>
      <trkpt lat="40.5788160" lon="-4.0262790">
        <ele>904.2</ele>
        <time>2019-04-28T10:23:58Z</time>
      </trkpt>
      <trkpt lat="40.5787670" lon="-4.0262730">
        <ele>903.6</ele>
        <time>2019-04-28T10:23:59Z</time>
      </trkpt>
      <trkpt lat="40.5787160" lon="-4.0262700">
        <ele>903.4</ele>
        <time>2019-04-28T10:24:00Z</time>
      </trkpt>
      <trkpt lat="40.5786670" lon="-4.0262680">
        <ele>903.0</ele>
        <time>2019-04-28T10:24:01Z</time>
      </trkpt>
      <trkpt lat="40.5786220" lon="-4.0262640">
        <ele>902.8</ele>
        <time>2019-04-28T10:24:02Z</time>
      </trkpt>
      <trkpt lat="40.5785830" lon="-4.0262590">
        <ele>902.4</ele>
        <time>2019-04-28T10:24:03Z</time>
      </trkpt>
      <trkpt lat="40.5785510" lon="-4.0262570">
        <ele>902.2</ele>
        <time>2019-04-28T10:24:04Z</time>
      </trkpt>
      <trkpt lat="40.5785240" lon="-4.0262540">
        <ele>902.0</ele>
        <time>2019-04-28T10:24:05Z</time>
      </trkpt>
      <trkpt lat="40.5785060" lon="-4.0262480">
        <ele>902.0</ele>
        <time>2019-04-28T10:24:06Z</time>
      </trkpt>
      <trkpt lat="40.5784940" lon="-4.0262460">
        <ele>902.0</ele>
        <time>2019-04-28T10:24:07Z</time>
      </trkpt>
      <trkpt lat="40.5784820" lon="-4.0262460">
        <ele>901.8</ele>
        <time>2019-04-28T10:24:08Z</time>
      </trkpt>
      <trkpt lat="40.5784640" lon="-4.0262440">
        <ele>901.8</ele>
        <time>2019-04-28T10:24:09Z</time>
      </trkpt>
      <trkpt lat="40.5784410" lon="-4.0262390">
        <ele>901.8</ele>
        <time>2019-04-28T10:24:10Z</time>
      </trkpt>
      <trkpt lat="40.5784180" lon="-4.0262230">
        <ele>901.8</ele>
        <time>2019-04-28T10:24:11Z</time>
      </trkpt>
      <trkpt lat="40.5783920" lon="-4.0262010">
        <ele>901.8</ele>
        <time>2019-04-28T10:24:12Z</time>
      </trkpt>
      <trkpt lat="40.5783610" lon="-4.0261890">
        <ele>901.6</ele>
        <time>2019-04-28T10:24:13Z</time>
      </trkpt>
      <trkpt lat="40.5783240" lon="-4.0261930">
        <ele>901.6</ele>
        <time>2019-04-28T10:24:14Z</time>
      </trkpt>
      <trkpt lat="40.5782870" lon="-4.0261940">
        <ele>901.4</ele>
        <time>2019-04-28T10:24:15Z</time>
      </trkpt>
      <trkpt lat="40.5782480" lon="-4.0261990">
        <ele>901.4</ele>
        <time>2019-04-28T10:24:16Z</time>
      </trkpt>
      <trkpt lat="40.5782150" lon="-4.0262230">
        <ele>901.6</ele>
        <time>2019-04-28T10:24:17Z</time>
      </trkpt>
      <trkpt lat="40.5781890" lon="-4.0262550">
        <ele>901.6</ele>
        <time>2019-04-28T10:24:18Z</time>
      </trkpt>
      <trkpt lat="40.5781630" lon="-4.0262810">
        <ele>901.6</ele>
        <time>2019-04-28T10:24:19Z</time>
      </trkpt>
      <trkpt lat="40.5781350" lon="-4.0262990">
        <ele>901.4</ele>
        <time>2019-04-28T10:24:20Z</time>
      </trkpt>
      <trkpt lat="40.5781030" lon="-4.0263050">
        <ele>901.4</ele>
        <time>2019-04-28T10:24:21Z</time>
      </trkpt>
      <trkpt lat="40.5780720" lon="-4.0263080">
        <ele>901.4</ele>
        <time>2019-04-28T10:24:22Z</time>
      </trkpt>
      <trkpt lat="40.5780370" lon="-4.0263030">
        <ele>901.4</ele>
        <time>2019-04-28T10:24:23Z</time>
      </trkpt>
      <trkpt lat="40.5780000" lon="-4.0262980">
        <ele>901.6</ele>
        <time>2019-04-28T10:24:24Z</time>
      </trkpt>
      <trkpt lat="40.5779720" lon="-4.0262900">
        <ele>901.8</ele>
        <time>2019-04-28T10:24:25Z</time>
      </trkpt>
      <trkpt lat="40.5779470" lon="-4.0262800">
        <ele>901.8</ele>
        <time>2019-04-28T10:24:26Z</time>
      </trkpt>
      <trkpt lat="40.5779240" lon="-4.0262720">
        <ele>902.0</ele>
        <time>2019-04-28T10:24:27Z</time>
      </trkpt>
      <trkpt lat="40.5779010" lon="-4.0262620">
        <ele>902.0</ele>
        <time>2019-04-28T10:24:28Z</time>
      </trkpt>
      <trkpt lat="40.5778820" lon="-4.0262480">
        <ele>902.2</ele>
        <time>2019-04-28T10:24:29Z</time>
      </trkpt>
      <trkpt lat="40.5778610" lon="-4.0262410">
        <ele>902.4</ele>
        <time>2019-04-28T10:24:30Z</time>
      </trkpt>
      <trkpt lat="40.5778380" lon="-4.0262360">
        <ele>902.4</ele>
        <time>2019-04-28T10:24:31Z</time>
      </trkpt>
      <trkpt lat="40.5778140" lon="-4.0262310">
        <ele>902.6</ele>
        <time>2019-04-28T10:24:32Z</time>
      </trkpt>
      <trkpt lat="40.5777870" lon="-4.0262270">
        <ele>902.8</ele>
        <time>2019-04-28T10:24:33Z</time>
      </trkpt>
      <trkpt lat="40.5777600" lon="-4.0262220">
        <ele>902.8</ele>
        <time>2019-04-28T10:24:34Z</time>
      </trkpt>
      <trkpt lat="40.5777380" lon="-4.0262090">
        <ele>903.0</ele>
        <time>2019-04-28T10:24:35Z</time>
      </trkpt>
      <trkpt lat="40.5777140" lon="-4.0262010">
        <ele>903.0</ele>
        <time>2019-04-28T10:24:36Z</time>
      </trkpt>
      <trkpt lat="40.5776870" lon="-4.0261950">
        <ele>903.0</ele>
        <time>2019-04-28T10:24:37Z</time>
      </trkpt>
      <trkpt lat="40.5776630" lon="-4.0261910">
        <ele>903.2</ele>
        <time>2019-04-28T10:24:38Z</time>
      </trkpt>
      <trkpt lat="40.5776400" lon="-4.0261860">
        <ele>903.2</ele>
        <time>2019-04-28T10:24:39Z</time>
      </trkpt>
      <trkpt lat="40.5776180" lon="-4.0261810">
        <ele>903.4</ele>
        <time>2019-04-28T10:24:40Z</time>
      </trkpt>
      <trkpt lat="40.5775930" lon="-4.0261770">
        <ele>903.4</ele>
        <time>2019-04-28T10:24:41Z</time>
      </trkpt>
      <trkpt lat="40.5775680" lon="-4.0261710">
        <ele>903.4</ele>
        <time>2019-04-28T10:24:42Z</time>
      </trkpt>
      <trkpt lat="40.5775430" lon="-4.0261640">
        <ele>903.4</ele>
        <time>2019-04-28T10:24:43Z</time>
      </trkpt>
      <trkpt lat="40.5775180" lon="-4.0261560">
        <ele>903.4</ele>
        <time>2019-04-28T10:24:44Z</time>
      </trkpt>
      <trkpt lat="40.5774910" lon="-4.0261470">
        <ele>903.6</ele>
        <time>2019-04-28T10:24:45Z</time>
      </trkpt>
      <trkpt lat="40.5774620" lon="-4.0261410">
        <ele>903.4</ele>
        <time>2019-04-28T10:24:46Z</time>
      </trkpt>
      <trkpt lat="40.5774330" lon="-4.0261330">
        <ele>903.6</ele>
        <time>2019-04-28T10:24:47Z</time>
      </trkpt>
      <trkpt lat="40.5774060" lon="-4.0261270">
        <ele>903.6</ele>
        <time>2019-04-28T10:24:48Z</time>
      </trkpt>
      <trkpt lat="40.5773800" lon="-4.0261240">
        <ele>903.4</ele>
        <time>2019-04-28T10:24:49Z</time>
      </trkpt>
      <trkpt lat="40.5773520" lon="-4.0261200">
        <ele>903.2</ele>
        <time>2019-04-28T10:24:50Z</time>
      </trkpt>
      <trkpt lat="40.5773260" lon="-4.0261160">
        <ele>903.2</ele>
        <time>2019-04-28T10:24:51Z</time>
      </trkpt>
      <trkpt lat="40.5772990" lon="-4.0261140">
        <ele>903.2</ele>
        <time>2019-04-28T10:24:52Z</time>
      </trkpt>
      <trkpt lat="40.5772720" lon="-4.0261100">
        <ele>903.2</ele>
        <time>2019-04-28T10:24:53Z</time>
      </trkpt>
      <trkpt lat="40.5772440" lon="-4.0261110">
        <ele>903.2</ele>
        <time>2019-04-28T10:24:54Z</time>
      </trkpt>
      <trkpt lat="40.5772230" lon="-4.0261080">
        <ele>903.2</ele>
        <time>2019-04-28T10:24:55Z</time>
      </trkpt>
      <trkpt lat="40.5772030" lon="-4.0260980">
        <ele>903.2</ele>
        <time>2019-04-28T10:24:56Z</time>
      </trkpt>
      <trkpt lat="40.5771820" lon="-4.0260920">
        <ele>903.4</ele>
        <time>2019-04-28T10:24:57Z</time>
      </trkpt>
      <trkpt lat="40.5771620" lon="-4.0260860">
        <ele>903.2</ele>
        <time>2019-04-28T10:24:58Z</time>
      </trkpt>
      <trkpt lat="40.5771430" lon="-4.0260830">
        <ele>903.2</ele>
        <time>2019-04-28T10:24:59Z</time>
      </trkpt>
      <trkpt lat="40.5771240" lon="-4.0260770">
        <ele>903.2</ele>
        <time>2019-04-28T10:25:00Z</time>
      </trkpt>
      <trkpt lat="40.5771040" lon="-4.0260770">
        <ele>903.2</ele>
        <time>2019-04-28T10:25:01Z</time>
      </trkpt>
      <trkpt lat="40.5770850" lon="-4.0260750">
        <ele>903.2</ele>
        <time>2019-04-28T10:25:02Z</time>
      </trkpt>
      <trkpt lat="40.5770640" lon="-4.0260730">
        <ele>903.2</ele>
        <time>2019-04-28T10:25:03Z</time>
      </trkpt>
      <trkpt lat="40.5770460" lon="-4.0260700">
        <ele>903.2</ele>
        <time>2019-04-28T10:25:04Z</time>
      </trkpt>
      <trkpt lat="40.5770130" lon="-4.0260600">
        <ele>903.4</ele>
        <time>2019-04-28T10:25:05Z</time>
      </trkpt>
      <trkpt lat="40.5769880" lon="-4.0260560">
        <ele>903.2</ele>
        <time>2019-04-28T10:25:06Z</time>
      </trkpt>
      <trkpt lat="40.5769630" lon="-4.0260510">
        <ele>903.2</ele>
        <time>2019-04-28T10:25:07Z</time>
      </trkpt>
      <trkpt lat="40.5769380" lon="-4.0260470">
        <ele>903.2</ele>
        <time>2019-04-28T10:25:08Z</time>
      </trkpt>
      <trkpt lat="40.5769130" lon="-4.0260420">
        <ele>903.2</ele>
        <time>2019-04-28T10:25:09Z</time>
      </trkpt>
      <trkpt lat="40.5768880" lon="-4.0260380">
        <ele>903.2</ele>
        <time>2019-04-28T10:25:10Z</time>
      </trkpt>
      <trkpt lat="40.5768640" lon="-4.0260330">
        <ele>903.2</ele>
        <time>2019-04-28T10:25:11Z</time>
      </trkpt>
      <trkpt lat="40.5768390" lon="-4.0260290">
        <ele>901.4</ele>
        <time>2019-04-28T10:25:12Z</time>
      </trkpt>
      <trkpt lat="40.5768140" lon="-4.0260240">
        <ele>901.4</ele>
        <time>2019-04-28T10:25:13Z</time>
      </trkpt>
      <trkpt lat="40.5767890" lon="-4.0260200">
        <ele>903.4</ele>
        <time>2019-04-28T10:25:14Z</time>
      </trkpt>
      <trkpt lat="40.5767640" lon="-4.0260150">
        <ele>903.2</ele>
        <time>2019-04-28T10:25:15Z</time>
      </trkpt>
      <trkpt lat="40.5767390" lon="-4.0260110">
        <ele>905.0</ele>
        <time>2019-04-28T10:31:00Z</time>
      </trkpt>
      <trkpt lat="40.5767140" lon="-4.0260060">
        <ele>905.0</ele>
        <time>2019-04-28T10:31:01Z</time>
      </trkpt>
      <trkpt lat="40.5766700" lon="-4.0260010">
        <ele>905.0</ele>
        <time>2019-04-28T10:31:02Z</time>
      </trkpt>
      <trkpt lat="40.5766260" lon="-4.0259910">
        <ele>905.2</ele>
        <time>2019-04-28T10:31:03Z</time>
      </trkpt>
      <trkpt lat="40.5765820" lon="-4.0259810">
        <ele>905.2</ele>
        <time>2019-04-28T10:31:04Z</time>
      </trkpt>
      <trkpt lat="40.5765380" lon="-4.0259700">
        <ele>905.4</ele>
        <time>2019-04-28T10:31:05Z</time>
      </trkpt>
      <trkpt lat="40.5764930" lon="-4.0259590">
        <ele>905.4</ele>
        <time>2019-04-28T10:31:06Z</time>
      </trkpt>
      <trkpt lat="40.5764490" lon="-4.0259480">
        <ele>905.6</ele>
        <time>2019-04-28T10:31:07Z</time>
      </trkpt>
      <trkpt lat="40.5764050" lon="-4.0259350">
        <ele>905.8</ele>
        <time>2019-04-28T10:31:08Z</time>
      </trkpt>
      <trkpt lat="40.5763640" lon="-4.0259230">
        <ele>906.0</ele>
        <time>2019-04-28T10:31:09Z</time>
      </trkpt>
      <trkpt lat="40.5763220" lon="-4.0259070">
        <ele>906.2</ele>
        <time>2019-04-28T10:31:10Z</time>
      </trkpt>
      <trkpt lat="40.5762790" lon="-4.0258940">
        <ele>906.4</ele>
        <time>2019-04-28T10:31:11Z</time>
      </trkpt>
      <trkpt lat="40.5762320" lon="-4.0258910">
        <ele>906.2</ele>
        <time>2019-04-28T10:31:12Z</time>
      </trkpt>
      <trkpt lat="40.5761870" lon="-4.0258980">
        <ele>906.4</ele>
        <time>2019-04-28T10:31:13Z</time>
      </trkpt>
      <trkpt lat="40.5761430" lon="-4.0259070">
        <ele>906.6</ele>
        <time>2019-04-28T10:31:14Z</time>
      </trkpt>
      <trkpt lat="40.5761050" lon="-4.0259150">
        <ele>906.6</ele>
        <time>2019-04-28T10:31:15Z</time>
      </trkpt>
      <trkpt lat="40.5760670" lon="-4.0259260">
        <ele>906.8</ele>
        <time>2019-04-28T10:31:16Z</time>
      </trkpt>
      <trkpt lat="40.5760160" lon="-4.0259370">
        <ele>907.0</ele>
        <time>2019-04-28T10:31:17Z</time>
      </trkpt>
      <trkpt lat="40.5759710" lon="-4.0259460">
        <ele>907.2</ele>
        <time>2019-04-28T10:31:18Z</time>
      </trkpt>
      <trkpt lat="40.5759270" lon="-4.0259550">
        <ele>907.2</ele>
        <time>2019-04-28T10:31:19Z</time>
      </trkpt>
      <trkpt lat="40.5758820" lon="-4.0259640">
        <ele>907.4</ele>
        <time>2019-04-28T10:31:20Z</time>
      </trkpt>
      <trkpt lat="40.5758350" lon="-4.0259690">
        <ele>907.8</ele>
        <time>2019-04-28T10:31:21Z</time>
      </trkpt>
      <trkpt lat="40.5757900" lon="-4.0259770">
        <ele>908.2</ele>
        <time>2019-04-28T10:31:22Z</time>
      </trkpt>
      <trkpt lat="40.5757450" lon="-4.0259870">
        <ele>908.4</ele>
        <time>2019-04-28T10:31:23Z</time>
      </trkpt>
      <trkpt lat="40.5757010" lon="-4.0259800">
        <ele>908.4</ele>
        <time>2019-04-28T10:31:24Z</time>
      </trkpt>
      <trkpt lat="40.5756520" lon="-4.0259680">
        <ele>908.6</ele>
        <time>2019-04-28T10:31:25Z</time>
      </trkpt>
      <trkpt lat="40.5756040" lon="-4.0259640">
        <ele>908.6</ele>
        <time>2019-04-28T10:31:26Z</time>
      </trkpt>
      <trkpt lat="40.5755560" lon="-4.0259690">
        <ele>908.6</ele>
        <time>2019-04-28T10:31:27Z</time>
      </trkpt>
      <trkpt lat="40.5755110" lon="-4.0259680">
        <ele>908.8</ele>
        <time>2019-04-28T10:31:28Z</time>
      </trkpt>
      <trkpt lat="40.5754680" lon="-4.0259700">
        <ele>909.0</ele>
        <time>2019-04-28T10:31:29Z</time>
      </trkpt>
      <trkpt lat="40.5754270" lon="-4.0259830">
        <ele>908.8</ele>
        <time>2019-04-28T10:31:30Z</time>
      </trkpt>
      <trkpt lat="40.5753860" lon="-4.0259980">
        <ele>908.8</ele>
        <time>2019-04-28T10:31:31Z</time>
      </trkpt>
      <trkpt lat="40.5753560" lon="-4.0260140">
        <ele>908.8</ele>
        <time>2019-04-28T10:31:32Z</time>
      </trkpt>
      <trkpt lat="40.5753170" lon="-4.0260190">
        <ele>909.0</ele>
        <time>2019-04-28T10:31:33Z</time>
      </trkpt>
      <trkpt lat="40.5752720" lon="-4.0260150">
        <ele>909.2</ele>
        <time>2019-04-28T10:31:34Z</time>
      </trkpt>
      <trkpt lat="40.5752280" lon="-4.0260170">
        <ele>909.2</ele>
        <time>2019-04-28T10:31:35Z</time>
      </trkpt>
      <trkpt lat="40.5751860" lon="-4.0260210">
        <ele>909.2</ele>
        <time>2019-04-28T10:31:36Z</time>
      </trkpt>
      <trkpt lat="40.5751360" lon="-4.0260290">
        <ele>909.2</ele>
        <time>2019-04-28T10:31:37Z</time>
      </trkpt>
      <trkpt lat="40.5750900" lon="-4.0260440">
        <ele>909.2</ele>
        <time>2019-04-28T10:31:38Z</time>
      </trkpt>
      <trkpt lat="40.5750430" lon="-4.0260560">
        <ele>909.2</ele>
        <time>2019-04-28T10:31:39Z</time>
      </trkpt>
      <trkpt lat="40.5749980" lon="-4.0260710">
        <ele>909.2</ele>
        <time>2019-04-28T10:31:40Z</time>
      </trkpt>
      <trkpt lat="40.5749600" lon="-4.0260900">
        <ele>909.4</ele>
        <time>2019-04-28T10:31:41Z</time>
      </trkpt>
      <trkpt lat="40.5749190" lon="-4.0261090">
        <ele>909.0</ele>
        <time>2019-04-28T10:31:42Z</time>
      </trkpt>
      <trkpt lat="40.5748910" lon="-4.0261430">
        <ele>908.6</ele>
        <time>2019-04-28T10:31:43Z</time>
      </trkpt>
      <trkpt lat="40.5748480" lon="-4.0261700">
        <ele>908.0</ele>
        <time>2019-04-28T10:31:44Z</time>
      </trkpt>
      <trkpt lat="40.5747920" lon="-4.0261890">
        <ele>907.6</ele>
        <time>2019-04-28T10:31:45Z</time>
      </trkpt>
      <trkpt lat="40.5747320" lon="-4.0261960">
        <ele>907.4</ele>
        <time>2019-04-28T10:31:46Z</time>
      </trkpt>
      <trkpt lat="40.5746610" lon="-4.0261870">
        <ele>907.2</ele>
        <time>2019-04-28T10:31:47Z</time>
      </trkpt>
      <trkpt lat="40.5745900" lon="-4.0261830">
        <ele>907.0</ele>
        <time>2019-04-28T10:31:48Z</time>
      </trkpt>
      <trkpt lat="40.5745200" lon="-4.0261900">
        <ele>906.6</ele>
        <time>2019-04-28T10:31:49Z</time>
      </trkpt>
      <trkpt lat="40.5744540" lon="-4.0262110">
        <ele>906.4</ele>
        <time>2019-04-28T10:31:50Z</time>
      </trkpt>
      <trkpt lat="40.5743870" lon="-4.0262450">
        <ele>906.4</ele>
        <time>2019-04-28T10:31:51Z</time>
      </trkpt>
      <trkpt lat="40.5743230" lon="-4.0262940">
        <ele>906.2</ele>
        <time>2019-04-28T10:31:52Z</time>
      </trkpt>
      <trkpt lat="40.5742580" lon="-4.0263370">
        <ele>905.8</ele>
        <time>2019-04-28T10:31:53Z</time>
      </trkpt>
      <trkpt lat="40.5741970" lon="-4.0263780">
        <ele>905.4</ele>
        <time>2019-04-28T10:31:54Z</time>
      </trkpt>
      <trkpt lat="40.5741300" lon="-4.0264120">
        <ele>905.2</ele>
        <time>2019-04-28T10:31:55Z</time>
      </trkpt>
      <trkpt lat="40.5740700" lon="-4.0264380">
        <ele>904.8</ele>
        <time>2019-04-28T10:31:56Z</time>
      </trkpt>
      <trkpt lat="40.5740130" lon="-4.0264440">
        <ele>904.6</ele>
        <time>2019-04-28T10:31:57Z</time>
      </trkpt>
      <trkpt lat="40.5739610" lon="-4.0264240">
        <ele>904.4</ele>
        <time>2019-04-28T10:31:58Z</time>
      </trkpt>
      <trkpt lat="40.5739100" lon="-4.0263980">
        <ele>904.4</ele>
        <time>2019-04-28T10:31:59Z</time>
      </trkpt>
      <trkpt lat="40.5738690" lon="-4.0263630">
        <ele>904.2</ele>
        <time>2019-04-28T10:32:00Z</time>
      </trkpt>
      <trkpt lat="40.5738150" lon="-4.0263300">
        <ele>903.8</ele>
        <time>2019-04-28T10:32:01Z</time>
      </trkpt>
      <trkpt lat="40.5737640" lon="-4.0263010">
        <ele>903.4</ele>
        <time>2019-04-28T10:32:02Z</time>
      </trkpt>
      <trkpt lat="40.5737120" lon="-4.0262590">
        <ele>903.4</ele>
        <time>2019-04-28T10:32:03Z</time>
      </trkpt>
      <trkpt lat="40.5736690" lon="-4.0262090">
        <ele>903.4</ele>
        <time>2019-04-28T10:32:04Z</time>
      </trkpt>
      <trkpt lat="40.5736160" lon="-4.0261610">
        <ele>903.4</ele>
        <time>2019-04-28T10:32:05Z</time>
      </trkpt>
      <trkpt lat="40.5735600" lon="-4.0261120">
        <ele>903.2</ele>
        <time>2019-04-28T10:32:06Z</time>
      </trkpt>
      <trkpt lat="40.5735100" lon="-4.0260620">
        <ele>903.2</ele>
        <time>2019-04-28T10:32:07Z</time>
      </trkpt>
      <trkpt lat="40.5734660" lon="-4.0260190">
        <ele>902.8</ele>
        <time>2019-04-28T10:32:08Z</time>
      </trkpt>
      <trkpt lat="40.5734170" lon="-4.0259760">
        <ele>902.4</ele>
        <time>2019-04-28T10:32:09Z</time>
      </trkpt>
      <trkpt lat="40.5733630" lon="-4.0259350">
        <ele>901.8</ele>
        <time>2019-04-28T10:32:10Z</time>
      </trkpt>
      <trkpt lat="40.5733050" lon="-4.0259050">
        <ele>901.4</ele>
        <time>2019-04-28T10:32:11Z</time>
      </trkpt>
      <trkpt lat="40.5732480" lon="-4.0258780">
        <ele>900.8</ele>
        <time>2019-04-28T10:32:12Z</time>
      </trkpt>
      <trkpt lat="40.5731850" lon="-4.0258530">
        <ele>900.6</ele>
        <time>2019-04-28T10:32:13Z</time>
      </trkpt>
      <trkpt lat="40.5731270" lon="-4.0258210">
        <ele>900.4</ele>
        <time>2019-04-28T10:32:14Z</time>
      </trkpt>
      <trkpt lat="40.5730810" lon="-4.0257750">
        <ele>900.0</ele>
        <time>2019-04-28T10:32:15Z</time>
      </trkpt>
      <trkpt lat="40.5730260" lon="-4.0257240">
        <ele>899.4</ele>
        <time>2019-04-28T10:32:16Z</time>
      </trkpt>
      <trkpt lat="40.5729760" lon="-4.0256750">
        <ele>899.2</ele>
        <time>2019-04-28T10:32:17Z</time>
      </trkpt>
      <trkpt lat="40.5729250" lon="-4.0256280">
        <ele>899.0</ele>
        <time>2019-04-28T10:32:18Z</time>
      </trkpt>
      <trkpt lat="40.5728760" lon="-4.0255800">
        <ele>898.6</ele>
        <time>2019-04-28T10:32:19Z</time>
      </trkpt>
      <trkpt lat="40.5728260" lon="-4.0255410">
        <ele>898.4</ele>
        <time>2019-04-28T10:32:20Z</time>
      </trkpt>
      <trkpt lat="40.5727710" lon="-4.0255050">
        <ele>898.4</ele>
        <time>2019-04-28T10:32:21Z</time>
      </trkpt>
      <trkpt lat="40.5727100" lon="-4.0254780">
        <ele>898.6</ele>
        <time>2019-04-28T10:32:22Z</time>
      </trkpt>
      <trkpt lat="40.5726580" lon="-4.0254550">
        <ele>898.2</ele>
        <time>2019-04-28T10:32:23Z</time>
      </trkpt>
      <trkpt lat="40.5726150" lon="-4.0254230">
        <ele>898.0</ele>
        <time>2019-04-28T10:32:24Z</time>
      </trkpt>
      <trkpt lat="40.5725750" lon="-4.0253880">
        <ele>897.6</ele>
        <time>2019-04-28T10:32:25Z</time>
      </trkpt>
      <trkpt lat="40.5725290" lon="-4.0253450">
        <ele>897.2</ele>
        <time>2019-04-28T10:32:26Z</time>
      </trkpt>
      <trkpt lat="40.5724850" lon="-4.0252950">
        <ele>896.8</ele>
        <time>2019-04-28T10:32:27Z</time>
      </trkpt>
      <trkpt lat="40.5724330" lon="-4.0252580">
        <ele>896.8</ele>
        <time>2019-04-28T10:32:28Z</time>
      </trkpt>
      <trkpt lat="40.5723830" lon="-4.0252300">
        <ele>896.4</ele>
        <time>2019-04-28T10:32:29Z</time>
      </trkpt>
      <trkpt lat="40.5723150" lon="-4.0252110">
        <ele>896.4</ele>
        <time>2019-04-28T10:32:30Z</time>
      </trkpt>
      <trkpt lat="40.5722490" lon="-4.0251890">
        <ele>895.8</ele>
        <time>2019-04-28T10:32:31Z</time>
      </trkpt>
      <trkpt lat="40.5721800" lon="-4.0251680">
        <ele>895.8</ele>
        <time>2019-04-28T10:32:32Z</time>
      </trkpt>
      <trkpt lat="40.5721120" lon="-4.0251450">
        <ele>895.4</ele>
        <time>2019-04-28T10:32:33Z</time>
      </trkpt>
      <trkpt lat="40.5720440" lon="-4.0251160">
        <ele>895.0</ele>
        <time>2019-04-28T10:32:34Z</time>
      </trkpt>
      <trkpt lat="40.5719740" lon="-4.0250790">
        <ele>894.6</ele>
        <time>2019-04-28T10:32:35Z</time>
      </trkpt>
      <trkpt lat="40.5719010" lon="-4.0250390">
        <ele>894.4</ele>
        <time>2019-04-28T10:32:36Z</time>
      </trkpt>
      <trkpt lat="40.5718240" lon="-4.0249970">
        <ele>894.4</ele>
        <time>2019-04-28T10:32:37Z</time>
      </trkpt>
      <trkpt lat="40.5717490" lon="-4.0249460">
        <ele>894.0</ele>
        <time>2019-04-28T10:32:38Z</time>
      </trkpt>
      <trkpt lat="40.5716720" lon="-4.0248960">
        <ele>893.4</ele>
        <time>2019-04-28T10:32:39Z</time>
      </trkpt>
      <trkpt lat="40.5715940" lon="-4.0248500">
        <ele>893.0</ele>
        <time>2019-04-28T10:32:40Z</time>
      </trkpt>
      <trkpt lat="40.5715190" lon="-4.0248080">
        <ele>892.6</ele>
        <time>2019-04-28T10:32:41Z</time>
      </trkpt>
      <trkpt lat="40.5714390" lon="-4.0247580">
        <ele>891.2</ele>
        <time>2019-04-28T10:32:42Z</time>
      </trkpt>
      <trkpt lat="40.5713560" lon="-4.0247040">
        <ele>891.0</ele>
        <time>2019-04-28T10:32:43Z</time>
      </trkpt>
      <trkpt lat="40.5712720" lon="-4.0246490">
        <ele>890.2</ele>
        <time>2019-04-28T10:32:44Z</time>
      </trkpt>
      <trkpt lat="40.5711890" lon="-4.0245930">
        <ele>889.4</ele>
        <time>2019-04-28T10:32:45Z</time>
      </trkpt>
      <trkpt lat="40.5711020" lon="-4.0245380">
        <ele>889.4</ele>
        <time>2019-04-28T10:32:46Z</time>
      </trkpt>
      <trkpt lat="40.5710110" lon="-4.0244850">
        <ele>888.2</ele>
        <time>2019-04-28T10:32:47Z</time>
      </trkpt>
      <trkpt lat="40.5709220" lon="-4.0244330">
        <ele>887.6</ele>
        <time>2019-04-28T10:32:48Z</time>
      </trkpt>
      <trkpt lat="40.5708310" lon="-4.0243790">
        <ele>887.2</ele>
        <time>2019-04-28T10:32:49Z</time>
      </trkpt>
      <trkpt lat="40.5707420" lon="-4.0243240">
        <ele>886.6</ele>
        <time>2019-04-28T10:32:50Z</time>
      </trkpt>
      <trkpt lat="40.5706530" lon="-4.0242650">
        <ele>885.8</ele>
        <time>2019-04-28T10:32:51Z</time>
      </trkpt>
      <trkpt lat="40.5705690" lon="-4.0241970">
        <ele>884.8</ele>
        <time>2019-04-28T10:32:52Z</time>
      </trkpt>
      <trkpt lat="40.5704870" lon="-4.0241200">
        <ele>884.6</ele>
        <time>2019-04-28T10:32:53Z</time>
      </trkpt>
      <trkpt lat="40.5704080" lon="-4.0240410">
        <ele>884.4</ele>
        <time>2019-04-28T10:32:54Z</time>
      </trkpt>
      <trkpt lat="40.5703310" lon="-4.0239610">
        <ele>884.2</ele>
        <time>2019-04-28T10:32:55Z</time>
      </trkpt>
      <trkpt lat="40.5702580" lon="-4.0238820">
        <ele>883.8</ele>
        <time>2019-04-28T10:32:56Z</time>
      </trkpt>
      <trkpt lat="40.5701850" lon="-4.0238040">
        <ele>883.2</ele>
        <time>2019-04-28T10:32:57Z</time>
      </trkpt>
      <trkpt lat="40.5701130" lon="-4.0237270">
        <ele>882.8</ele>
        <time>2019-04-28T10:32:58Z</time>
      </trkpt>
      <trkpt lat="40.5700420" lon="-4.0236500">
        <ele>882.2</ele>
        <time>2019-04-28T10:32:59Z</time>
      </trkpt>
      <trkpt lat="40.5699700" lon="-4.0235770">
        <ele>881.4</ele>
        <time>2019-04-28T10:33:00Z</time>
      </trkpt>
      <trkpt lat="40.5698950" lon="-4.0235040">
        <ele>880.8</ele>
        <time>2019-04-28T10:33:01Z</time>
      </trkpt>
      <trkpt lat="40.5698160" lon="-4.0234330">
        <ele>880.0</ele>
        <time>2019-04-28T10:33:02Z</time>
      </trkpt>
      <trkpt lat="40.5697360" lon="-4.0233660">
        <ele>879.4</ele>
        <time>2019-04-28T10:33:03Z</time>
      </trkpt>
      <trkpt lat="40.5696570" lon="-4.0232980">
        <ele>879.4</ele>
        <time>2019-04-28T10:33:04Z</time>
      </trkpt>
      <trkpt lat="40.5695790" lon="-4.0232300">
        <ele>879.2</ele>
        <time>2019-04-28T10:33:05Z</time>
      </trkpt>
      <trkpt lat="40.5695010" lon="-4.0231630">
        <ele>878.8</ele>
        <time>2019-04-28T10:33:06Z</time>
      </trkpt>
      <trkpt lat="40.5694260" lon="-4.0230900">
        <ele>878.0</ele>
        <time>2019-04-28T10:33:07Z</time>
      </trkpt>
      <trkpt lat="40.5693510" lon="-4.0230140">
        <ele>877.8</ele>
        <time>2019-04-28T10:33:08Z</time>
      </trkpt>
      <trkpt lat="40.5692790" lon="-4.0229370">
        <ele>878.2</ele>
        <time>2019-04-28T10:33:09Z</time>
      </trkpt>
      <trkpt lat="40.5692130" lon="-4.0228510">
        <ele>877.6</ele>
        <time>2019-04-28T10:33:10Z</time>
      </trkpt>
      <trkpt lat="40.5691510" lon="-4.0227630">
        <ele>876.4</ele>
        <time>2019-04-28T10:33:11Z</time>
      </trkpt>
      <trkpt lat="40.5690880" lon="-4.0226740">
        <ele>875.8</ele>
        <time>2019-04-28T10:33:12Z</time>
      </trkpt>
      <trkpt lat="40.5690310" lon="-4.0225830">
        <ele>875.6</ele>
        <time>2019-04-28T10:33:13Z</time>
      </trkpt>
      <trkpt lat="40.5689760" lon="-4.0224930">
        <ele>875.0</ele>
        <time>2019-04-28T10:33:14Z</time>
      </trkpt>
      <trkpt lat="40.5689190" lon="-4.0224080">
        <ele>874.6</ele>
        <time>2019-04-28T10:33:15Z</time>
      </trkpt>
      <trkpt lat="40.5688640" lon="-4.0223210">
        <ele>874.2</ele>
        <time>2019-04-28T10:33:16Z</time>
      </trkpt>
      <trkpt lat="40.5688100" lon="-4.0222290">
        <ele>873.6</ele>
        <time>2019-04-28T10:33:17Z</time>
      </trkpt>
      <trkpt lat="40.5687590" lon="-4.0221360">
        <ele>873.6</ele>
        <time>2019-04-28T10:33:18Z</time>
      </trkpt>
      <trkpt lat="40.5687070" lon="-4.0220430">
        <ele>873.0</ele>
        <time>2019-04-28T10:33:19Z</time>
      </trkpt>
      <trkpt lat="40.5686550" lon="-4.0219500">
        <ele>873.0</ele>
        <time>2019-04-28T10:33:20Z</time>
      </trkpt>
      <trkpt lat="40.5686070" lon="-4.0218600">
        <ele>872.8</ele>
        <time>2019-04-28T10:33:21Z</time>
      </trkpt>
      <trkpt lat="40.5685560" lon="-4.0217740">
        <ele>872.4</ele>
        <time>2019-04-28T10:33:22Z</time>
      </trkpt>
      <trkpt lat="40.5685080" lon="-4.0216900">
        <ele>872.0</ele>
        <time>2019-04-28T10:33:23Z</time>
      </trkpt>
      <trkpt lat="40.5684620" lon="-4.0216030">
        <ele>871.8</ele>
        <time>2019-04-28T10:33:24Z</time>
      </trkpt>
      <trkpt lat="40.5684180" lon="-4.0215150">
        <ele>871.6</ele>
        <time>2019-04-28T10:33:25Z</time>
      </trkpt>
      <trkpt lat="40.5683700" lon="-4.0214280">
        <ele>871.4</ele>
        <time>2019-04-28T10:33:26Z</time>
      </trkpt>
      <trkpt lat="40.5683220" lon="-4.0213420">
        <ele>871.2</ele>
        <time>2019-04-28T10:33:27Z</time>
      </trkpt>
      <trkpt lat="40.5682750" lon="-4.0212520">
        <ele>870.8</ele>
        <time>2019-04-28T10:33:28Z</time>
      </trkpt>
      <trkpt lat="40.5682270" lon="-4.0211640">
        <ele>870.8</ele>
        <time>2019-04-28T10:33:29Z</time>
      </trkpt>
      <trkpt lat="40.5681740" lon="-4.0210740">
        <ele>870.4</ele>
        <time>2019-04-28T10:33:30Z</time>
      </trkpt>
      <trkpt lat="40.5681210" lon="-4.0209890">
        <ele>870.2</ele>
        <time>2019-04-28T10:33:31Z</time>
      </trkpt>
      <trkpt lat="40.5680620" lon="-4.0209100">
        <ele>869.6</ele>
        <time>2019-04-28T10:33:32Z</time>
      </trkpt>
      <trkpt lat="40.5680030" lon="-4.0208350">
        <ele>869.4</ele>
        <time>2019-04-28T10:33:33Z</time>
      </trkpt>
      <trkpt lat="40.5679420" lon="-4.0207620">
        <ele>869.6</ele>
        <time>2019-04-28T10:33:34Z</time>
      </trkpt>
      <trkpt lat="40.5678810" lon="-4.0206950">
        <ele>869.0</ele>
        <time>2019-04-28T10:33:35Z</time>
      </trkpt>
      <trkpt lat="40.5678130" lon="-4.0206300">
        <ele>868.8</ele>
        <time>2019-04-28T10:33:36Z</time>
      </trkpt>
      <trkpt lat="40.5677440" lon="-4.0205640">
        <ele>868.4</ele>
        <time>2019-04-28T10:33:37Z</time>
      </trkpt>
      <trkpt lat="40.5676750" lon="-4.0204980">
        <ele>868.4</ele>
        <time>2019-04-28T10:33:38Z</time>
      </trkpt>
      <trkpt lat="40.5676050" lon="-4.0204320">
        <ele>868.4</ele>
        <time>2019-04-28T10:33:39Z</time>
      </trkpt>
      <trkpt lat="40.5675350" lon="-4.0203670">
        <ele>868.4</ele>
        <time>2019-04-28T10:33:40Z</time>
      </trkpt>
      <trkpt lat="40.5674660" lon="-4.0203120">
        <ele>868.4</ele>
        <time>2019-04-28T10:33:41Z</time>
      </trkpt>
      <trkpt lat="40.5673990" lon="-4.0202600">
        <ele>868.4</ele>
        <time>2019-04-28T10:33:42Z</time>
      </trkpt>
      <trkpt lat="40.5673350" lon="-4.0202030">
        <ele>868.4</ele>
        <time>2019-04-28T10:33:43Z</time>
      </trkpt>
      <trkpt lat="40.5672760" lon="-4.0201410">
        <ele>868.8</ele>
        <time>2019-04-28T10:33:44Z</time>
      </trkpt>
      <trkpt lat="40.5672200" lon="-4.0200850">
        <ele>869.0</ele>
        <time>2019-04-28T10:33:45Z</time>
      </trkpt>
      <trkpt lat="40.5671660" lon="-4.0200370">
        <ele>869.4</ele>
        <time>2019-04-28T10:33:46Z</time>
      </trkpt>
      <trkpt lat="40.5671140" lon="-4.0199940">
        <ele>869.6</ele>
        <time>2019-04-28T10:33:47Z</time>
      </trkpt>
      <trkpt lat="40.5670600" lon="-4.0199530">
        <ele>870.0</ele>
        <time>2019-04-28T10:33:48Z</time>
      </trkpt>
      <trkpt lat="40.5670080" lon="-4.0199070">
        <ele>870.4</ele>
        <time>2019-04-28T10:33:49Z</time>
      </trkpt>
      <trkpt lat="40.5669580" lon="-4.0198620">
        <ele>870.8</ele>
        <time>2019-04-28T10:33:50Z</time>
      </trkpt>
      <trkpt lat="40.5669070" lon="-4.0198180">
        <ele>871.2</ele>
        <time>2019-04-28T10:33:51Z</time>
      </trkpt>
      <trkpt lat="40.5668590" lon="-4.0197750">
        <ele>871.6</ele>
        <time>2019-04-28T10:33:52Z</time>
      </trkpt>
      <trkpt lat="40.5668130" lon="-4.0197320">
        <ele>871.8</ele>
        <time>2019-04-28T10:33:53Z</time>
      </trkpt>
      <trkpt lat="40.5667700" lon="-4.0196870">
        <ele>872.6</ele>
        <time>2019-04-28T10:33:54Z</time>
      </trkpt>
      <trkpt lat="40.5667280" lon="-4.0196460">
        <ele>872.8</ele>
        <time>2019-04-28T10:33:55Z</time>
      </trkpt>
      <trkpt lat="40.5666770" lon="-4.0196020">
        <ele>873.0</ele>
        <time>2019-04-28T10:33:56Z</time>
      </trkpt>
      <trkpt lat="40.5666260" lon="-4.0195620">
        <ele>873.4</ele>
        <time>2019-04-28T10:33:57Z</time>
      </trkpt>
      <trkpt lat="40.5665780" lon="-4.0195210">
        <ele>873.6</ele>
        <time>2019-04-28T10:33:58Z</time>
      </trkpt>
      <trkpt lat="40.5665250" lon="-4.0194750">
        <ele>873.6</ele>
        <time>2019-04-28T10:33:59Z</time>
      </trkpt>
      <trkpt lat="40.5664760" lon="-4.0194260">
        <ele>874.0</ele>
        <time>2019-04-28T10:34:00Z</time>
      </trkpt>
      <trkpt lat="40.5664270" lon="-4.0193750">
        <ele>874.2</ele>
        <time>2019-04-28T10:34:01Z</time>
      </trkpt>
      <trkpt lat="40.5663800" lon="-4.0193250">
        <ele>874.4</ele>
        <time>2019-04-28T10:34:02Z</time>
      </trkpt>
      <trkpt lat="40.5663380" lon="-4.0192770">
        <ele>874.6</ele>
        <time>2019-04-28T10:34:03Z</time>
      </trkpt>
      <trkpt lat="40.5662910" lon="-4.0192300">
        <ele>874.8</ele>
        <time>2019-04-28T10:34:04Z</time>
      </trkpt>
      <trkpt lat="40.5662480" lon="-4.0191830">
        <ele>875.0</ele>
        <time>2019-04-28T10:34:05Z</time>
      </trkpt>
      <trkpt lat="40.5662030" lon="-4.0191330">
        <ele>875.2</ele>
        <time>2019-04-28T10:34:06Z</time>
      </trkpt>
      <trkpt lat="40.5661620" lon="-4.0190870">
        <ele>875.2</ele>
        <time>2019-04-28T10:34:07Z</time>
      </trkpt>
      <trkpt lat="40.5661170" lon="-4.0190380">
        <ele>875.4</ele>
        <time>2019-04-28T10:34:08Z</time>
      </trkpt>
      <trkpt lat="40.5660710" lon="-4.0189850">
        <ele>875.8</ele>
        <time>2019-04-28T10:34:09Z</time>
      </trkpt>
      <trkpt lat="40.5660210" lon="-4.0189360">
        <ele>876.0</ele>
        <time>2019-04-28T10:34:10Z</time>
      </trkpt>
      <trkpt lat="40.5659740" lon="-4.0188940">
        <ele>876.4</ele>
        <time>2019-04-28T10:34:11Z</time>
      </trkpt>
      <trkpt lat="40.5659270" lon="-4.0188510">
        <ele>876.6</ele>
        <time>2019-04-28T10:34:12Z</time>
      </trkpt>
      <trkpt lat="40.5658840" lon="-4.0188090">
        <ele>877.0</ele>
        <time>2019-04-28T10:34:13Z</time>
      </trkpt>
      <trkpt lat="40.5658370" lon="-4.0187570">
        <ele>877.2</ele>
        <time>2019-04-28T10:34:14Z</time>
      </trkpt>
      <trkpt lat="40.5657960" lon="-4.0187140">
        <ele>877.4</ele>
        <time>2019-04-28T10:34:15Z</time>
      </trkpt>
      <trkpt lat="40.5657830" lon="-4.0186910">
        <ele>877.6</ele>
        <time>2019-04-28T10:34:16Z</time>
      </trkpt>
      <trkpt lat="40.5657490" lon="-4.0186600">
        <ele>877.8</ele>
        <time>2019-04-28T10:34:17Z</time>
      </trkpt>
      <trkpt lat="40.5657110" lon="-4.0186200">
        <ele>877.8</ele>
        <time>2019-04-28T10:34:18Z</time>
      </trkpt>
      <trkpt lat="40.5656750" lon="-4.0185870">
        <ele>878.0</ele>
        <time>2019-04-28T10:34:19Z</time>
      </trkpt>
      <trkpt lat="40.5656320" lon="-4.0185510">
        <ele>878.2</ele>
        <time>2019-04-28T10:34:20Z</time>
      </trkpt>
      <trkpt lat="40.5655950" lon="-4.0185170">
        <ele>878.4</ele>
        <time>2019-04-28T10:34:21Z</time>
      </trkpt>
      <trkpt lat="40.5655510" lon="-4.0184790">
        <ele>878.8</ele>
        <time>2019-04-28T10:34:22Z</time>
      </trkpt>
      <trkpt lat="40.5655050" lon="-4.0184380">
        <ele>878.8</ele>
        <time>2019-04-28T10:34:23Z</time>
      </trkpt>
      <trkpt lat="40.5654580" lon="-4.0183960">
        <ele>879.2</ele>
        <time>2019-04-28T10:34:24Z</time>
      </trkpt>
      <trkpt lat="40.5654050" lon="-4.0183520">
        <ele>879.4</ele>
        <time>2019-04-28T10:34:25Z</time>
      </trkpt>
      <trkpt lat="40.5653530" lon="-4.0183070">
        <ele>879.6</ele>
        <time>2019-04-28T10:34:26Z</time>
      </trkpt>
      <trkpt lat="40.5652970" lon="-4.0182590">
        <ele>879.8</ele>
        <time>2019-04-28T10:34:27Z</time>
      </trkpt>
      <trkpt lat="40.5652510" lon="-4.0182100">
        <ele>880.0</ele>
        <time>2019-04-28T10:34:28Z</time>
      </trkpt>
      <trkpt lat="40.5652030" lon="-4.0181640">
        <ele>880.4</ele>
        <time>2019-04-28T10:34:29Z</time>
      </trkpt>
      <trkpt lat="40.5651550" lon="-4.0181140">
        <ele>880.4</ele>
        <time>2019-04-28T10:34:30Z</time>
      </trkpt>
      <trkpt lat="40.5651100" lon="-4.0180660">
        <ele>880.6</ele>
        <time>2019-04-28T10:34:31Z</time>
      </trkpt>
      <trkpt lat="40.5650620" lon="-4.0180170">
        <ele>880.8</ele>
        <time>2019-04-28T10:34:32Z</time>
      </trkpt>
      <trkpt lat="40.5650140" lon="-4.0179680">
        <ele>880.8</ele>
        <time>2019-04-28T10:34:33Z</time>
      </trkpt>
      <trkpt lat="40.5649700" lon="-4.0179170">
        <ele>881.0</ele>
        <time>2019-04-28T10:34:34Z</time>
      </trkpt>
      <trkpt lat="40.5649200" lon="-4.0178700">
        <ele>881.2</ele>
        <time>2019-04-28T10:34:35Z</time>
      </trkpt>
      <trkpt lat="40.5648700" lon="-4.0178250">
        <ele>881.6</ele>
        <time>2019-04-28T10:34:36Z</time>
      </trkpt>
      <trkpt lat="40.5648150" lon="-4.0177770">
        <ele>881.8</ele>
        <time>2019-04-28T10:34:37Z</time>
      </trkpt>
      <trkpt lat="40.5647670" lon="-4.0177310">
        <ele>881.8</ele>
        <time>2019-04-28T10:34:38Z</time>
      </trkpt>
      <trkpt lat="40.5647070" lon="-4.0176780">
        <ele>881.8</ele>
        <time>2019-04-28T10:34:39Z</time>
      </trkpt>
      <trkpt lat="40.5646610" lon="-4.0176240">
        <ele>881.8</ele>
        <time>2019-04-28T10:34:40Z</time>
      </trkpt>
      <trkpt lat="40.5646210" lon="-4.0175680">
        <ele>881.6</ele>
        <time>2019-04-28T10:34:41Z</time>
      </trkpt>
      <trkpt lat="40.5645780" lon="-4.0175080">
        <ele>881.6</ele>
        <time>2019-04-28T10:34:42Z</time>
      </trkpt>
      <trkpt lat="40.5645360" lon="-4.0174430">
        <ele>881.6</ele>
        <time>2019-04-28T10:34:43Z</time>
      </trkpt>
      <trkpt lat="40.5644950" lon="-4.0173760">
        <ele>881.8</ele>
        <time>2019-04-28T10:34:44Z</time>
      </trkpt>
      <trkpt lat="40.5644490" lon="-4.0173100">
        <ele>881.8</ele>
        <time>2019-04-28T10:34:45Z</time>
      </trkpt>
      <trkpt lat="40.5644070" lon="-4.0172470">
        <ele>882.0</ele>
        <time>2019-04-28T10:34:46Z</time>
      </trkpt>
      <trkpt lat="40.5643640" lon="-4.0171860">
        <ele>882.0</ele>
        <time>2019-04-28T10:34:47Z</time>
      </trkpt>
      <trkpt lat="40.5643140" lon="-4.0171300">
        <ele>881.8</ele>
        <time>2019-04-28T10:34:48Z</time>
      </trkpt>
      <trkpt lat="40.5642750" lon="-4.0170670">
        <ele>881.8</ele>
        <time>2019-04-28T10:34:49Z</time>
      </trkpt>
      <trkpt lat="40.5642390" lon="-4.0170140">
        <ele>882.0</ele>
        <time>2019-04-28T10:34:50Z</time>
      </trkpt>
      <trkpt lat="40.5641990" lon="-4.0169640">
        <ele>882.0</ele>
        <time>2019-04-28T10:34:51Z</time>
      </trkpt>
      <trkpt lat="40.5641630" lon="-4.0169040">
        <ele>882.0</ele>
        <time>2019-04-28T10:34:52Z</time>
      </trkpt>
      <trkpt lat="40.5641250" lon="-4.0168440">
        <ele>882.0</ele>
        <time>2019-04-28T10:34:53Z</time>
      </trkpt>
      <trkpt lat="40.5640920" lon="-4.0167780">
        <ele>882.2</ele>
        <time>2019-04-28T10:34:54Z</time>
      </trkpt>
      <trkpt lat="40.5640580" lon="-4.0167120">
        <ele>882.4</ele>
        <time>2019-04-28T10:34:55Z</time>
      </trkpt>
      <trkpt lat="40.5640210" lon="-4.0166450">
        <ele>882.4</ele>
        <time>2019-04-28T10:34:56Z</time>
      </trkpt>
      <trkpt lat="40.5639840" lon="-4.0165820">
        <ele>882.4</ele>
        <time>2019-04-28T10:34:57Z</time>
      </trkpt>
      <trkpt lat="40.5639470" lon="-4.0165230">
        <ele>882.6</ele>
        <time>2019-04-28T10:34:58Z</time>
      </trkpt>
      <trkpt lat="40.5639050" lon="-4.0164670">
        <ele>882.8</ele>
        <time>2019-04-28T10:34:59Z</time>
      </trkpt>
      <trkpt lat="40.5638670" lon="-4.0164100">
        <ele>882.6</ele>
        <time>2019-04-28T10:35:01Z</time>
      </trkpt>
      <trkpt lat="40.5637870" lon="-4.0163030">
        <ele>882.2</ele>
        <time>2019-04-28T10:35:02Z</time>
      </trkpt>
      <trkpt lat="40.5637490" lon="-4.0162410">
        <ele>882.2</ele>
        <time>2019-04-28T10:35:03Z</time>
      </trkpt>
      <trkpt lat="40.5637140" lon="-4.0161760">
        <ele>882.6</ele>
        <time>2019-04-28T10:35:04Z</time>
      </trkpt>
      <trkpt lat="40.5636780" lon="-4.0161110">
        <ele>882.6</ele>
        <time>2019-04-28T10:35:06Z</time>
      </trkpt>
      <trkpt lat="40.5635950" lon="-4.0159850">
        <ele>882.2</ele>
        <time>2019-04-28T10:35:07Z</time>
      </trkpt>
      <trkpt lat="40.5635520" lon="-4.0159230">
        <ele>882.0</ele>
        <time>2019-04-28T10:35:08Z</time>
      </trkpt>
      <trkpt lat="40.5635090" lon="-4.0158610">
        <ele>882.2</ele>
        <time>2019-04-28T10:35:09Z</time>
      </trkpt>
      <trkpt lat="40.5634700" lon="-4.0157950">
        <ele>882.0</ele>
        <time>2019-04-28T10:35:10Z</time>
      </trkpt>
      <trkpt lat="40.5634310" lon="-4.0157330">
        <ele>882.0</ele>
        <time>2019-04-28T10:35:11Z</time>
      </trkpt>
      <trkpt lat="40.5633910" lon="-4.0156670">
        <ele>882.0</ele>
        <time>2019-04-28T10:35:13Z</time>
      </trkpt>
      <trkpt lat="40.5633090" lon="-4.0155490">
        <ele>882.2</ele>
        <time>2019-04-28T10:35:14Z</time>
      </trkpt>
      <trkpt lat="40.5632680" lon="-4.0154870">
        <ele>882.4</ele>
        <time>2019-04-28T10:35:16Z</time>
      </trkpt>
      <trkpt lat="40.5631960" lon="-4.0153880">
        <ele>882.8</ele>
        <time>2019-04-28T10:35:17Z</time>
      </trkpt>
      <trkpt lat="40.5631570" lon="-4.0153410">
        <ele>883.0</ele>
        <time>2019-04-28T10:35:19Z</time>
      </trkpt>
      <trkpt lat="40.5630730" lon="-4.0152470">
        <ele>883.4</ele>
        <time>2019-04-28T10:35:20Z</time>
      </trkpt>
      <trkpt lat="40.5630420" lon="-4.0152070">
        <ele>883.8</ele>
        <time>2019-04-28T10:35:21Z</time>
      </trkpt>
      <trkpt lat="40.5630110" lon="-4.0151670">
        <ele>883.8</ele>
        <time>2019-04-28T10:35:22Z</time>
      </trkpt>
      <trkpt lat="40.5629810" lon="-4.0151300">
        <ele>883.8</ele>
        <time>2019-04-28T10:35:23Z</time>
      </trkpt>
      <trkpt lat="40.5629510" lon="-4.0150930">
        <ele>883.8</ele>
        <time>2019-04-28T10:35:24Z</time>
      </trkpt>
      <trkpt lat="40.5629220" lon="-4.0150550">
        <ele>883.8</ele>
        <time>2019-04-28T10:35:25Z</time>
      </trkpt>
      <trkpt lat="40.5628960" lon="-4.0150170">
        <ele>883.8</ele>
        <time>2019-04-28T10:35:27Z</time>
      </trkpt>
      <trkpt lat="40.5628580" lon="-4.0149480">
        <ele>883.6</ele>
        <time>2019-04-28T10:35:28Z</time>
      </trkpt>
      <trkpt lat="40.5628510" lon="-4.0149390">
        <ele>883.6</ele>
        <time>2019-04-28T10:35:29Z</time>
      </trkpt>
      <trkpt lat="40.5628360" lon="-4.0149180">
        <ele>883.6</ele>
        <time>2019-04-28T10:35:30Z</time>
      </trkpt>
      <trkpt lat="40.5627870" lon="-4.0148590">
        <ele>883.8</ele>
        <time>2019-04-28T10:35:32Z</time>
      </trkpt>
      <trkpt lat="40.5627570" lon="-4.0148300">
        <ele>883.8</ele>
        <time>2019-04-28T10:35:33Z</time>
      </trkpt>
      <trkpt lat="40.5627240" lon="-4.0148000">
        <ele>883.6</ele>
        <time>2019-04-28T10:35:34Z</time>
      </trkpt>
      <trkpt lat="40.5626860" lon="-4.0147680">
        <ele>883.8</ele>
        <time>2019-04-28T10:35:35Z</time>
      </trkpt>
      <trkpt lat="40.5626570" lon="-4.0147300">
        <ele>883.8</ele>
        <time>2019-04-28T10:35:37Z</time>
      </trkpt>
      <trkpt lat="40.5626020" lon="-4.0146480">
        <ele>884.2</ele>
        <time>2019-04-28T10:35:38Z</time>
      </trkpt>
      <trkpt lat="40.5625830" lon="-4.0145920">
        <ele>884.4</ele>
        <time>2019-04-28T10:35:39Z</time>
      </trkpt>
      <trkpt lat="40.5625600" lon="-4.0145470">
        <ele>884.6</ele>
        <time>2019-04-28T10:35:41Z</time>
      </trkpt>
      <trkpt lat="40.5625270" lon="-4.0144690">
        <ele>885.0</ele>
        <time>2019-04-28T10:35:42Z</time>
      </trkpt>
      <trkpt lat="40.5624980" lon="-4.0144310">
        <ele>885.0</ele>
        <time>2019-04-28T10:35:43Z</time>
      </trkpt>
      <trkpt lat="40.5624630" lon="-4.0143930">
        <ele>885.2</ele>
        <time>2019-04-28T10:35:44Z</time>
      </trkpt>
      <trkpt lat="40.5624270" lon="-4.0143480">
        <ele>885.4</ele>
        <time>2019-04-28T10:35:45Z</time>
      </trkpt>
      <trkpt lat="40.5623990" lon="-4.0143060">
        <ele>885.6</ele>
        <time>2019-04-28T10:35:47Z</time>
      </trkpt>
      <trkpt lat="40.5623440" lon="-4.0142280">
        <ele>886.2</ele>
        <time>2019-04-28T10:35:48Z</time>
      </trkpt>
      <trkpt lat="40.5623180" lon="-4.0141900">
        <ele>886.6</ele>
        <time>2019-04-28T10:35:49Z</time>
      </trkpt>
      <trkpt lat="40.5622920" lon="-4.0141520">
        <ele>887.0</ele>
        <time>2019-04-28T10:35:50Z</time>
      </trkpt>
      <trkpt lat="40.5622570" lon="-4.0141140">
        <ele>887.2</ele>
        <time>2019-04-28T10:35:51Z</time>
      </trkpt>
      <trkpt lat="40.5622230" lon="-4.0140810">
        <ele>887.4</ele>
        <time>2019-04-28T10:35:52Z</time>
      </trkpt>
      <trkpt lat="40.5621920" lon="-4.0140510">
        <ele>887.6</ele>
        <time>2019-04-28T10:35:53Z</time>
      </trkpt>
      <trkpt lat="40.5621550" lon="-4.0140270">
        <ele>887.8</ele>
        <time>2019-04-28T10:35:55Z</time>
      </trkpt>
      <trkpt lat="40.5620880" lon="-4.0139840">
        <ele>888.0</ele>
        <time>2019-04-28T10:35:56Z</time>
      </trkpt>
      <trkpt lat="40.5620510" lon="-4.0139640">
        <ele>888.2</ele>
        <time>2019-04-28T10:35:57Z</time>
      </trkpt>
      <trkpt lat="40.5620140" lon="-4.0139480">
        <ele>888.2</ele>
        <time>2019-04-28T10:35:58Z</time>
      </trkpt>
      <trkpt lat="40.5619700" lon="-4.0139320">
        <ele>888.2</ele>
        <time>2019-04-28T10:35:59Z</time>
      </trkpt>
      <trkpt lat="40.5618810" lon="-4.0139040">
        <ele>888.2</ele>
        <time>2019-04-28T10:36:01Z</time>
      </trkpt>
      <trkpt lat="40.5618420" lon="-4.0138950">
        <ele>888.6</ele>
        <time>2019-04-28T10:36:02Z</time>
      </trkpt>
      <trkpt lat="40.5618020" lon="-4.0138850">
        <ele>888.6</ele>
        <time>2019-04-28T10:36:03Z</time>
      </trkpt>
      <trkpt lat="40.5617080" lon="-4.0138640">
        <ele>888.8</ele>
        <time>2019-04-28T10:36:05Z</time>
      </trkpt>
      <trkpt lat="40.5616640" lon="-4.0138550">
        <ele>889.2</ele>
        <time>2019-04-28T10:36:06Z</time>
      </trkpt>
      <trkpt lat="40.5616170" lon="-4.0138460">
        <ele>889.6</ele>
        <time>2019-04-28T10:36:07Z</time>
      </trkpt>
      <trkpt lat="40.5615200" lon="-4.0138320">
        <ele>889.8</ele>
        <time>2019-04-28T10:36:09Z</time>
      </trkpt>
      <trkpt lat="40.5614780" lon="-4.0138230">
        <ele>890.6</ele>
        <time>2019-04-28T10:36:10Z</time>
      </trkpt>
      <trkpt lat="40.5614350" lon="-4.0138140">
        <ele>890.6</ele>
        <time>2019-04-28T10:36:11Z</time>
      </trkpt>
      <trkpt lat="40.5613410" lon="-4.0137960">
        <ele>891.0</ele>
        <time>2019-04-28T10:36:13Z</time>
      </trkpt>
      <trkpt lat="40.5612970" lon="-4.0137850">
        <ele>891.8</ele>
        <time>2019-04-28T10:36:14Z</time>
      </trkpt>
      <trkpt lat="40.5612470" lon="-4.0137740">
        <ele>892.0</ele>
        <time>2019-04-28T10:36:16Z</time>
      </trkpt>
      <trkpt lat="40.5611440" lon="-4.0137540">
        <ele>892.6</ele>
        <time>2019-04-28T10:36:17Z</time>
      </trkpt>
      <trkpt lat="40.5610590" lon="-4.0137400">
        <ele>893.0</ele>
        <time>2019-04-28T10:36:19Z</time>
      </trkpt>
      <trkpt lat="40.5610160" lon="-4.0137310">
        <ele>893.6</ele>
        <time>2019-04-28T10:36:20Z</time>
      </trkpt>
      <trkpt lat="40.5609720" lon="-4.0137230">
        <ele>893.8</ele>
        <time>2019-04-28T10:36:22Z</time>
      </trkpt>
      <trkpt lat="40.5609290" lon="-4.0137190">
        <ele>894.2</ele>
        <time>2019-04-28T10:36:23Z</time>
      </trkpt>
      <trkpt lat="40.5608400" lon="-4.0137070">
        <ele>894.6</ele>
        <time>2019-04-28T10:36:25Z</time>
      </trkpt>
      <trkpt lat="40.5607490" lon="-4.0136880">
        <ele>894.8</ele>
        <time>2019-04-28T10:36:26Z</time>
      </trkpt>
      <trkpt lat="40.5607490" lon="-4.0136880">
        <ele>895.0</ele>
        <time>2019-04-28T10:36:27Z</time>
      </trkpt>
      <trkpt lat="40.5606600" lon="-4.0136690">
        <ele>895.6</ele>
        <time>2019-04-28T10:36:29Z</time>
      </trkpt>
      <trkpt lat="40.5606170" lon="-4.0136580">
        <ele>895.6</ele>
        <time>2019-04-28T10:36:30Z</time>
      </trkpt>
      <trkpt lat="40.5605750" lon="-4.0136410">
        <ele>895.8</ele>
        <time>2019-04-28T10:36:31Z</time>
      </trkpt>
      <trkpt lat="40.5605430" lon="-4.0136150">
        <ele>896.2</ele>
        <time>2019-04-28T10:36:32Z</time>
      </trkpt>
      <trkpt lat="40.5605190" lon="-4.0135850">
        <ele>896.4</ele>
        <time>2019-04-28T10:36:33Z</time>
      </trkpt>
      <trkpt lat="40.5604840" lon="-4.0135450">
        <ele>896.8</ele>
        <time>2019-04-28T10:36:34Z</time>
      </trkpt>
      <trkpt lat="40.5604570" lon="-4.0135010">
        <ele>897.0</ele>
        <time>2019-04-28T10:36:35Z</time>
      </trkpt>
      <trkpt lat="40.5604340" lon="-4.0134580">
        <ele>897.4</ele>
        <time>2019-04-28T10:36:36Z</time>
      </trkpt>
      <trkpt lat="40.5604180" lon="-4.0134050">
        <ele>897.6</ele>
        <time>2019-04-28T10:36:37Z</time>
      </trkpt>
      <trkpt lat="40.5603970" lon="-4.0133540">
        <ele>897.8</ele>
        <time>2019-04-28T10:36:38Z</time>
      </trkpt>
      <trkpt lat="40.5603740" lon="-4.0133090">
        <ele>898.2</ele>
        <time>2019-04-28T10:36:39Z</time>
      </trkpt>
      <trkpt lat="40.5603490" lon="-4.0132700">
        <ele>898.4</ele>
        <time>2019-04-28T10:36:40Z</time>
      </trkpt>
      <trkpt lat="40.5602990" lon="-4.0131920">
        <ele>898.6</ele>
        <time>2019-04-28T10:36:41Z</time>
      </trkpt>
      <trkpt lat="40.5602880" lon="-4.0131730">
        <ele>898.6</ele>
        <time>2019-04-28T10:36:42Z</time>
      </trkpt>
      <trkpt lat="40.5602760" lon="-4.0131540">
        <ele>898.8</ele>
        <time>2019-04-28T10:36:43Z</time>
      </trkpt>
      <trkpt lat="40.5602550" lon="-4.0131180">
        <ele>898.8</ele>
        <time>2019-04-28T10:36:44Z</time>
      </trkpt>
      <trkpt lat="40.5602310" lon="-4.0130800">
        <ele>899.0</ele>
        <time>2019-04-28T10:36:45Z</time>
      </trkpt>
      <trkpt lat="40.5602120" lon="-4.0130440">
        <ele>899.0</ele>
        <time>2019-04-28T10:36:46Z</time>
      </trkpt>
      <trkpt lat="40.5601900" lon="-4.0130100">
        <ele>899.0</ele>
        <time>2019-04-28T10:36:47Z</time>
      </trkpt>
      <trkpt lat="40.5601680" lon="-4.0129740">
        <ele>899.2</ele>
        <time>2019-04-28T10:36:48Z</time>
      </trkpt>
      <trkpt lat="40.5601560" lon="-4.0129390">
        <ele>899.2</ele>
        <time>2019-04-28T10:36:49Z</time>
      </trkpt>
      <trkpt lat="40.5601480" lon="-4.0129010">
        <ele>899.2</ele>
        <time>2019-04-28T10:36:50Z</time>
      </trkpt>
      <trkpt lat="40.5601160" lon="-4.0128260">
        <ele>899.2</ele>
        <time>2019-04-28T10:36:51Z</time>
      </trkpt>
      <trkpt lat="40.5600950" lon="-4.0127940">
        <ele>899.4</ele>
        <time>2019-04-28T10:36:52Z</time>
      </trkpt>
      <trkpt lat="40.5600950" lon="-4.0127940">
        <ele>899.4</ele>
        <time>2019-04-28T10:36:53Z</time>
      </trkpt>
      <trkpt lat="40.5600700" lon="-4.0127690">
        <ele>899.4</ele>
        <time>2019-04-28T10:36:54Z</time>
      </trkpt>
      <trkpt lat="40.5600220" lon="-4.0127140">
        <ele>899.6</ele>
        <time>2019-04-28T10:36:55Z</time>
      </trkpt>
      <trkpt lat="40.5600030" lon="-4.0126850">
        <ele>899.6</ele>
        <time>2019-04-28T10:36:56Z</time>
      </trkpt>
      <trkpt lat="40.5599830" lon="-4.0126570">
        <ele>899.8</ele>
        <time>2019-04-28T10:36:57Z</time>
      </trkpt>
      <trkpt lat="40.5599830" lon="-4.0126570">
        <ele>899.8</ele>
        <time>2019-04-28T10:36:58Z</time>
      </trkpt>
      <trkpt lat="40.5599610" lon="-4.0126260">
        <ele>899.8</ele>
        <time>2019-04-28T10:36:59Z</time>
      </trkpt>
      <trkpt lat="40.5599390" lon="-4.0125980">
        <ele>899.8</ele>
        <time>2019-04-28T10:37:00Z</time>
      </trkpt>
      <trkpt lat="40.5599170" lon="-4.0125680">
        <ele>899.6</ele>
        <time>2019-04-28T10:37:01Z</time>
      </trkpt>
      <trkpt lat="40.5598580" lon="-4.0125280">
        <ele>899.6</ele>
        <time>2019-04-28T10:37:02Z</time>
      </trkpt>
      <trkpt lat="40.5598190" lon="-4.0125150">
        <ele>899.6</ele>
        <time>2019-04-28T10:37:03Z</time>
      </trkpt>
      <trkpt lat="40.5597840" lon="-4.0125090">
        <ele>899.6</ele>
        <time>2019-04-28T10:37:04Z</time>
      </trkpt>
      <trkpt lat="40.5597660" lon="-4.0125050">
        <ele>899.4</ele>
        <time>2019-04-28T10:37:05Z</time>
      </trkpt>
      <trkpt lat="40.5597470" lon="-4.0125020">
        <ele>899.4</ele>
        <time>2019-04-28T10:37:06Z</time>
      </trkpt>
      <trkpt lat="40.5596740" lon="-4.0124870">
        <ele>899.4</ele>
        <time>2019-04-28T10:37:07Z</time>
      </trkpt>
      <trkpt lat="40.5596360" lon="-4.0124840">
        <ele>899.4</ele>
        <time>2019-04-28T10:37:08Z</time>
      </trkpt>
      <trkpt lat="40.5596000" lon="-4.0124790">
        <ele>899.2</ele>
        <time>2019-04-28T10:37:09Z</time>
      </trkpt>
      <trkpt lat="40.5595610" lon="-4.0124730">
        <ele>899.2</ele>
        <time>2019-04-28T10:37:10Z</time>
      </trkpt>
      <trkpt lat="40.5595610" lon="-4.0124730">
        <ele>899.2</ele>
        <time>2019-04-28T10:37:11Z</time>
      </trkpt>
      <trkpt lat="40.5595320" lon="-4.0124630">
        <ele>899.0</ele>
        <time>2019-04-28T10:37:12Z</time>
      </trkpt>
      <trkpt lat="40.5594520" lon="-4.0124320">
        <ele>899.2</ele>
        <time>2019-04-28T10:37:13Z</time>
      </trkpt>
      <trkpt lat="40.5594350" lon="-4.0124220">
        <ele>899.2</ele>
        <time>2019-04-28T10:37:14Z</time>
      </trkpt>
      <trkpt lat="40.5594180" lon="-4.0124120">
        <ele>899.2</ele>
        <time>2019-04-28T10:37:15Z</time>
      </trkpt>
      <trkpt lat="40.5593870" lon="-4.0124000">
        <ele>899.0</ele>
        <time>2019-04-28T10:37:16Z</time>
      </trkpt>
      <trkpt lat="40.5593280" lon="-4.0123710">
        <ele>899.0</ele>
        <time>2019-04-28T10:37:17Z</time>
      </trkpt>
      <trkpt lat="40.5593020" lon="-4.0123530">
        <ele>899.0</ele>
        <time>2019-04-28T10:37:18Z</time>
      </trkpt>
      <trkpt lat="40.5592750" lon="-4.0123360">
        <ele>899.0</ele>
        <time>2019-04-28T10:37:19Z</time>
      </trkpt>
      <trkpt lat="40.5592500" lon="-4.0123150">
        <ele>899.0</ele>
        <time>2019-04-28T10:37:20Z</time>
      </trkpt>
      <trkpt lat="40.5592500" lon="-4.0123150">
        <ele>899.0</ele>
        <time>2019-04-28T10:37:21Z</time>
      </trkpt>
      <trkpt lat="40.5592260" lon="-4.0122970">
        <ele>899.0</ele>
        <time>2019-04-28T10:37:22Z</time>
      </trkpt>
      <trkpt lat="40.5591960" lon="-4.0122620">
        <ele>898.8</ele>
        <time>2019-04-28T10:37:23Z</time>
      </trkpt>
      <trkpt lat="40.5591720" lon="-4.0122460">
        <ele>898.6</ele>
        <time>2019-04-28T10:37:24Z</time>
      </trkpt>
      <trkpt lat="40.5591470" lon="-4.0122300">
        <ele>898.8</ele>
        <time>2019-04-28T10:37:25Z</time>
      </trkpt>
      <trkpt lat="40.5591300" lon="-4.0122230">
        <ele>898.8</ele>
        <time>2019-04-28T10:37:26Z</time>
      </trkpt>
      <trkpt lat="40.5591130" lon="-4.0122160">
        <ele>898.8</ele>
        <time>2019-04-28T10:37:27Z</time>
      </trkpt>
      <trkpt lat="40.5590580" lon="-4.0121820">
        <ele>898.8</ele>
        <time>2019-04-28T10:37:28Z</time>
      </trkpt>
      <trkpt lat="40.5590200" lon="-4.0121690">
        <ele>898.8</ele>
        <time>2019-04-28T10:37:29Z</time>
      </trkpt>
      <trkpt lat="40.5589810" lon="-4.0121560">
        <ele>898.6</ele>
        <time>2019-04-28T10:37:30Z</time>
      </trkpt>
      <trkpt lat="40.5589430" lon="-4.0121420">
        <ele>898.6</ele>
        <time>2019-04-28T10:37:31Z</time>
      </trkpt>
      <trkpt lat="40.5589220" lon="-4.0121330">
        <ele>898.6</ele>
        <time>2019-04-28T10:37:32Z</time>
      </trkpt>
      <trkpt lat="40.5589010" lon="-4.0121250">
        <ele>898.6</ele>
        <time>2019-04-28T10:37:33Z</time>
      </trkpt>
      <trkpt lat="40.5588460" lon="-4.0121060">
        <ele>898.6</ele>
        <time>2019-04-28T10:37:34Z</time>
      </trkpt>
      <trkpt lat="40.5587440" lon="-4.0120690">
        <ele>898.4</ele>
        <time>2019-04-28T10:37:35Z</time>
      </trkpt>
      <trkpt lat="40.5586880" lon="-4.0120460">
        <ele>898.4</ele>
        <time>2019-04-28T10:37:36Z</time>
      </trkpt>
      <trkpt lat="40.5586470" lon="-4.0120300">
        <ele>898.2</ele>
        <time>2019-04-28T10:37:37Z</time>
      </trkpt>
      <trkpt lat="40.5586060" lon="-4.0120140">
        <ele>898.0</ele>
        <time>2019-04-28T10:37:38Z</time>
      </trkpt>
      <trkpt lat="40.5585240" lon="-4.0119820">
        <ele>897.6</ele>
        <time>2019-04-28T10:37:39Z</time>
      </trkpt>
      <trkpt lat="40.5584950" lon="-4.0119770">
        <ele>897.4</ele>
        <time>2019-04-28T10:37:40Z</time>
      </trkpt>
      <trkpt lat="40.5584650" lon="-4.0119720">
        <ele>897.0</ele>
        <time>2019-04-28T10:37:41Z</time>
      </trkpt>
      <trkpt lat="40.5583730" lon="-4.0119570">
        <ele>896.6</ele>
        <time>2019-04-28T10:37:42Z</time>
      </trkpt>
      <trkpt lat="40.5583400" lon="-4.0119530">
        <ele>895.8</ele>
        <time>2019-04-28T10:37:43Z</time>
      </trkpt>
      <trkpt lat="40.5582400" lon="-4.0119400">
        <ele>895.4</ele>
        <time>2019-04-28T10:37:44Z</time>
      </trkpt>
      <trkpt lat="40.5582050" lon="-4.0119360">
        <ele>895.0</ele>
        <time>2019-04-28T10:37:45Z</time>
      </trkpt>
      <trkpt lat="40.5580750" lon="-4.0119270">
        <ele>894.6</ele>
        <time>2019-04-28T10:37:46Z</time>
      </trkpt>
      <trkpt lat="40.5580150" lon="-4.0119270">
        <ele>894.0</ele>
        <time>2019-04-28T10:37:47Z</time>
      </trkpt>
      <trkpt lat="40.5578960" lon="-4.0119260">
        <ele>893.4</ele>
        <time>2019-04-28T10:37:48Z</time>
      </trkpt>
      <trkpt lat="40.5578090" lon="-4.0119440">
        <ele>892.8</ele>
        <time>2019-04-28T10:37:49Z</time>
      </trkpt>
      <trkpt lat="40.5577230" lon="-4.0119860">
        <ele>892.4</ele>
        <time>2019-04-28T10:37:50Z</time>
      </trkpt>
      <trkpt lat="40.5576640" lon="-4.0120250">
        <ele>892.2</ele>
        <time>2019-04-28T10:37:51Z</time>
      </trkpt>
      <trkpt lat="40.5576050" lon="-4.0120640">
        <ele>892.2</ele>
        <time>2019-04-28T10:37:52Z</time>
      </trkpt>
      <trkpt lat="40.5574860" lon="-4.0121420">
        <ele>892.0</ele>
        <time>2019-04-28T10:37:53Z</time>
      </trkpt>
      <trkpt lat="40.5574360" lon="-4.0121870">
        <ele>891.8</ele>
        <time>2019-04-28T10:37:54Z</time>
      </trkpt>
      <trkpt lat="40.5573850" lon="-4.0122310">
        <ele>891.0</ele>
        <time>2019-04-28T10:37:55Z</time>
      </trkpt>
      <trkpt lat="40.5572840" lon="-4.0123200">
        <ele>890.6</ele>
        <time>2019-04-28T10:37:56Z</time>
      </trkpt>
      <trkpt lat="40.5572190" lon="-4.0123770">
        <ele>890.6</ele>
        <time>2019-04-28T10:37:57Z</time>
      </trkpt>
      <trkpt lat="40.5571560" lon="-4.0124290">
        <ele>890.4</ele>
        <time>2019-04-28T10:37:58Z</time>
      </trkpt>
      <trkpt lat="40.5571290" lon="-4.0124550">
        <ele>890.2</ele>
        <time>2019-04-28T10:37:59Z</time>
      </trkpt>
      <trkpt lat="40.5571020" lon="-4.0124800">
        <ele>890.0</ele>
        <time>2019-04-28T10:38:00Z</time>
      </trkpt>
      <trkpt lat="40.5570350" lon="-4.0126080">
        <ele>889.6</ele>
        <time>2019-04-28T10:38:01Z</time>
      </trkpt>
      <trkpt lat="40.5570300" lon="-4.0126880">
        <ele>889.2</ele>
        <time>2019-04-28T10:38:02Z</time>
      </trkpt>
      <trkpt lat="40.5570070" lon="-4.0127380">
        <ele>888.6</ele>
        <time>2019-04-28T10:38:03Z</time>
      </trkpt>
      <trkpt lat="40.5569830" lon="-4.0127880">
        <ele>888.2</ele>
        <time>2019-04-28T10:38:04Z</time>
      </trkpt>
      <trkpt lat="40.5569350" lon="-4.0128870">
        <ele>888.0</ele>
        <time>2019-04-28T10:38:05Z</time>
      </trkpt>
      <trkpt lat="40.5568730" lon="-4.0129000">
        <ele>888.0</ele>
        <time>2019-04-28T10:38:06Z</time>
      </trkpt>
      <trkpt lat="40.5568440" lon="-4.0129100">
        <ele>887.8</ele>
        <time>2019-04-28T10:38:07Z</time>
      </trkpt>
      <trkpt lat="40.5568140" lon="-4.0129190">
        <ele>887.6</ele>
        <time>2019-04-28T10:38:08Z</time>
      </trkpt>
      <trkpt lat="40.5567070" lon="-4.0129560">
        <ele>887.4</ele>
        <time>2019-04-28T10:38:09Z</time>
      </trkpt>
      <trkpt lat="40.5566600" lon="-4.0129750">
        <ele>887.4</ele>
        <time>2019-04-28T10:38:10Z</time>
      </trkpt>
      <trkpt lat="40.5565650" lon="-4.0130130">
        <ele>887.0</ele>
        <time>2019-04-28T10:38:11Z</time>
      </trkpt>
      <trkpt lat="40.5565020" lon="-4.0130350">
        <ele>886.6</ele>
        <time>2019-04-28T10:38:12Z</time>
      </trkpt>
      <trkpt lat="40.5564370" lon="-4.0130590">
        <ele>886.4</ele>
        <time>2019-04-28T10:38:13Z</time>
      </trkpt>
      <trkpt lat="40.5563710" lon="-4.0130830">
        <ele>886.2</ele>
        <time>2019-04-28T10:38:14Z</time>
      </trkpt>
      <trkpt lat="40.5563170" lon="-4.0130940">
        <ele>885.8</ele>
        <time>2019-04-28T10:38:15Z</time>
      </trkpt>
      <trkpt lat="40.5562630" lon="-4.0131040">
        <ele>885.4</ele>
        <time>2019-04-28T10:38:16Z</time>
      </trkpt>
      <trkpt lat="40.5561540" lon="-4.0131250">
        <ele>884.8</ele>
        <time>2019-04-28T10:38:17Z</time>
      </trkpt>
      <trkpt lat="40.5560670" lon="-4.0131260">
        <ele>884.2</ele>
        <time>2019-04-28T10:38:18Z</time>
      </trkpt>
      <trkpt lat="40.5559720" lon="-4.0131230">
        <ele>883.6</ele>
        <time>2019-04-28T10:38:19Z</time>
      </trkpt>
      <trkpt lat="40.5558800" lon="-4.0131220">
        <ele>882.8</ele>
        <time>2019-04-28T10:38:20Z</time>
      </trkpt>
      <trkpt lat="40.5557850" lon="-4.0131240">
        <ele>881.8</ele>
        <time>2019-04-28T10:38:21Z</time>
      </trkpt>
      <trkpt lat="40.5557110" lon="-4.0131270">
        <ele>881.2</ele>
        <time>2019-04-28T10:38:22Z</time>
      </trkpt>
      <trkpt lat="40.5556360" lon="-4.0131300">
        <ele>879.8</ele>
        <time>2019-04-28T10:38:23Z</time>
      </trkpt>
      <trkpt lat="40.5554860" lon="-4.0131360">
        <ele>879.4</ele>
        <time>2019-04-28T10:38:24Z</time>
      </trkpt>
      <trkpt lat="40.5554070" lon="-4.0131380">
        <ele>878.6</ele>
        <time>2019-04-28T10:38:25Z</time>
      </trkpt>
      <trkpt lat="40.5553270" lon="-4.0131400">
        <ele>878.2</ele>
        <time>2019-04-28T10:38:26Z</time>
      </trkpt>
      <trkpt lat="40.5551680" lon="-4.0131430">
        <ele>878.4</ele>
        <time>2019-04-28T10:38:27Z</time>
      </trkpt>
      <trkpt lat="40.5550670" lon="-4.0131470">
        <ele>877.6</ele>
        <time>2019-04-28T10:38:28Z</time>
      </trkpt>
      <trkpt lat="40.5549700" lon="-4.0131570">
        <ele>877.0</ele>
        <time>2019-04-28T10:38:29Z</time>
      </trkpt>
      <trkpt lat="40.5548770" lon="-4.0131690">
        <ele>876.8</ele>
        <time>2019-04-28T10:38:30Z</time>
      </trkpt>
      <trkpt lat="40.5547850" lon="-4.0131750">
        <ele>876.8</ele>
        <time>2019-04-28T10:38:31Z</time>
      </trkpt>
      <trkpt lat="40.5546960" lon="-4.0131820">
        <ele>876.6</ele>
        <time>2019-04-28T10:38:32Z</time>
      </trkpt>
      <trkpt lat="40.5546090" lon="-4.0131900">
        <ele>876.4</ele>
        <time>2019-04-28T10:38:33Z</time>
      </trkpt>
      <trkpt lat="40.5545230" lon="-4.0131930">
        <ele>876.4</ele>
        <time>2019-04-28T10:38:34Z</time>
      </trkpt>
      <trkpt lat="40.5544440" lon="-4.0132000">
        <ele>876.6</ele>
        <time>2019-04-28T10:38:35Z</time>
      </trkpt>
      <trkpt lat="40.5543700" lon="-4.0132070">
        <ele>877.0</ele>
        <time>2019-04-28T10:38:36Z</time>
      </trkpt>
      <trkpt lat="40.5542980" lon="-4.0132110">
        <ele>877.2</ele>
        <time>2019-04-28T10:38:37Z</time>
      </trkpt>
      <trkpt lat="40.5542330" lon="-4.0132210">
        <ele>877.2</ele>
        <time>2019-04-28T10:38:38Z</time>
      </trkpt>
      <trkpt lat="40.5541710" lon="-4.0132320">
        <ele>877.4</ele>
        <time>2019-04-28T10:38:39Z</time>
      </trkpt>
      <trkpt lat="40.5541190" lon="-4.0132450">
        <ele>877.8</ele>
        <time>2019-04-28T10:38:40Z</time>
      </trkpt>
      <trkpt lat="40.5540710" lon="-4.0132570">
        <ele>878.0</ele>
        <time>2019-04-28T10:38:41Z</time>
      </trkpt>
      <trkpt lat="40.5540230" lon="-4.0132630">
        <ele>878.0</ele>
        <time>2019-04-28T10:38:42Z</time>
      </trkpt>
      <trkpt lat="40.5539830" lon="-4.0132650">
        <ele>878.2</ele>
        <time>2019-04-28T10:38:43Z</time>
      </trkpt>
      <trkpt lat="40.5539430" lon="-4.0132660">
        <ele>878.4</ele>
        <time>2019-04-28T10:38:44Z</time>
      </trkpt>
      <trkpt lat="40.5538620" lon="-4.0132690">
        <ele>878.6</ele>
        <time>2019-04-28T10:38:45Z</time>
      </trkpt>
      <trkpt lat="40.5538090" lon="-4.0132710">
        <ele>878.8</ele>
        <time>2019-04-28T10:38:46Z</time>
      </trkpt>
      <trkpt lat="40.5537570" lon="-4.0132750">
        <ele>879.0</ele>
        <time>2019-04-28T10:38:47Z</time>
      </trkpt>
      <trkpt lat="40.5537040" lon="-4.0132770">
        <ele>879.2</ele>
        <time>2019-04-28T10:38:48Z</time>
      </trkpt>
      <trkpt lat="40.5536550" lon="-4.0132840">
        <ele>879.4</ele>
        <time>2019-04-28T10:38:49Z</time>
      </trkpt>
      <trkpt lat="40.5536060" lon="-4.0132840">
        <ele>879.6</ele>
        <time>2019-04-28T10:38:50Z</time>
      </trkpt>
      <trkpt lat="40.5535430" lon="-4.0132810">
        <ele>879.6</ele>
        <time>2019-04-28T10:38:51Z</time>
      </trkpt>
      <trkpt lat="40.5534860" lon="-4.0132750">
        <ele>880.2</ele>
        <time>2019-04-28T10:38:52Z</time>
      </trkpt>
      <trkpt lat="40.5534270" lon="-4.0132590">
        <ele>880.4</ele>
        <time>2019-04-28T10:38:53Z</time>
      </trkpt>
      <trkpt lat="40.5533740" lon="-4.0132270">
        <ele>880.6</ele>
        <time>2019-04-28T10:38:54Z</time>
      </trkpt>
      <trkpt lat="40.5533360" lon="-4.0131810">
        <ele>880.8</ele>
        <time>2019-04-28T10:38:55Z</time>
      </trkpt>
      <trkpt lat="40.5533070" lon="-4.0131170">
        <ele>881.0</ele>
        <time>2019-04-28T10:38:56Z</time>
      </trkpt>
      <trkpt lat="40.5532840" lon="-4.0130500">
        <ele>880.8</ele>
        <time>2019-04-28T10:38:57Z</time>
      </trkpt>
      <trkpt lat="40.5532680" lon="-4.0129720">
        <ele>880.6</ele>
        <time>2019-04-28T10:38:58Z</time>
      </trkpt>
      <trkpt lat="40.5532550" lon="-4.0128930">
        <ele>880.6</ele>
        <time>2019-04-28T10:38:59Z</time>
      </trkpt>
      <trkpt lat="40.5532320" lon="-4.0128220">
        <ele>880.6</ele>
        <time>2019-04-28T10:39:00Z</time>
      </trkpt>
      <trkpt lat="40.5531990" lon="-4.0127660">
        <ele>880.4</ele>
        <time>2019-04-28T10:39:01Z</time>
      </trkpt>
      <trkpt lat="40.5531600" lon="-4.0127220">
        <ele>880.6</ele>
        <time>2019-04-28T10:39:02Z</time>
      </trkpt>
      <trkpt lat="40.5531250" lon="-4.0126800">
        <ele>880.4</ele>
        <time>2019-04-28T10:39:03Z</time>
      </trkpt>
      <trkpt lat="40.5530880" lon="-4.0126390">
        <ele>880.6</ele>
        <time>2019-04-28T10:39:04Z</time>
      </trkpt>
      <trkpt lat="40.5530490" lon="-4.0126030">
        <ele>880.6</ele>
        <time>2019-04-28T10:39:05Z</time>
      </trkpt>
      <trkpt lat="40.5530150" lon="-4.0125660">
        <ele>880.6</ele>
        <time>2019-04-28T10:39:06Z</time>
      </trkpt>
      <trkpt lat="40.5529870" lon="-4.0125370">
        <ele>881.0</ele>
        <time>2019-04-28T10:39:07Z</time>
      </trkpt>
      <trkpt lat="40.5529570" lon="-4.0125020">
        <ele>881.2</ele>
        <time>2019-04-28T10:39:08Z</time>
      </trkpt>
      <trkpt lat="40.5529310" lon="-4.0124650">
        <ele>881.4</ele>
        <time>2019-04-28T10:39:09Z</time>
      </trkpt>
      <trkpt lat="40.5529030" lon="-4.0124340">
        <ele>881.4</ele>
        <time>2019-04-28T10:39:10Z</time>
      </trkpt>
      <trkpt lat="40.5528740" lon="-4.0123940">
        <ele>881.4</ele>
        <time>2019-04-28T10:39:11Z</time>
      </trkpt>
      <trkpt lat="40.5528460" lon="-4.0123500">
        <ele>881.6</ele>
        <time>2019-04-28T10:39:12Z</time>
      </trkpt>
      <trkpt lat="40.5528130" lon="-4.0123100">
        <ele>881.6</ele>
        <time>2019-04-28T10:39:13Z</time>
      </trkpt>
      <trkpt lat="40.5527790" lon="-4.0122660">
        <ele>881.6</ele>
        <time>2019-04-28T10:39:14Z</time>
      </trkpt>
      <trkpt lat="40.5527440" lon="-4.0122230">
        <ele>881.6</ele>
        <time>2019-04-28T10:39:15Z</time>
      </trkpt>
      <trkpt lat="40.5527050" lon="-4.0121800">
        <ele>881.6</ele>
        <time>2019-04-28T10:39:16Z</time>
      </trkpt>
      <trkpt lat="40.5526650" lon="-4.0121350">
        <ele>881.4</ele>
        <time>2019-04-28T10:39:17Z</time>
      </trkpt>
      <trkpt lat="40.5526300" lon="-4.0120900">
        <ele>881.4</ele>
        <time>2019-04-28T10:39:18Z</time>
      </trkpt>
      <trkpt lat="40.5525960" lon="-4.0120480">
        <ele>881.4</ele>
        <time>2019-04-28T10:39:19Z</time>
      </trkpt>
      <trkpt lat="40.5525580" lon="-4.0120010">
        <ele>881.4</ele>
        <time>2019-04-28T10:39:20Z</time>
      </trkpt>
      <trkpt lat="40.5525180" lon="-4.0119560">
        <ele>881.4</ele>
        <time>2019-04-28T10:39:21Z</time>
      </trkpt>
      <trkpt lat="40.5524790" lon="-4.0119100">
        <ele>881.6</ele>
        <time>2019-04-28T10:39:22Z</time>
      </trkpt>
      <trkpt lat="40.5524390" lon="-4.0118650">
        <ele>881.6</ele>
        <time>2019-04-28T10:39:23Z</time>
      </trkpt>
      <trkpt lat="40.5523940" lon="-4.0118240">
        <ele>881.6</ele>
        <time>2019-04-28T10:39:24Z</time>
      </trkpt>
      <trkpt lat="40.5523480" lon="-4.0117940">
        <ele>881.6</ele>
        <time>2019-04-28T10:39:25Z</time>
      </trkpt>
      <trkpt lat="40.5522940" lon="-4.0117760">
        <ele>881.6</ele>
        <time>2019-04-28T10:39:26Z</time>
      </trkpt>
      <trkpt lat="40.5522410" lon="-4.0117630">
        <ele>881.6</ele>
        <time>2019-04-28T10:39:27Z</time>
      </trkpt>
      <trkpt lat="40.5521890" lon="-4.0117400">
        <ele>881.8</ele>
        <time>2019-04-28T10:39:28Z</time>
      </trkpt>
      <trkpt lat="40.5521410" lon="-4.0117070">
        <ele>881.8</ele>
        <time>2019-04-28T10:39:29Z</time>
      </trkpt>
      <trkpt lat="40.5520960" lon="-4.0116720">
        <ele>881.6</ele>
        <time>2019-04-28T10:39:30Z</time>
      </trkpt>
      <trkpt lat="40.5520430" lon="-4.0116450">
        <ele>881.6</ele>
        <time>2019-04-28T10:39:31Z</time>
      </trkpt>
      <trkpt lat="40.5519900" lon="-4.0116200">
        <ele>881.4</ele>
        <time>2019-04-28T10:39:32Z</time>
      </trkpt>
      <trkpt lat="40.5519340" lon="-4.0116070">
        <ele>881.4</ele>
        <time>2019-04-28T10:39:33Z</time>
      </trkpt>
      <trkpt lat="40.5518740" lon="-4.0116000">
        <ele>881.4</ele>
        <time>2019-04-28T10:39:34Z</time>
      </trkpt>
      <trkpt lat="40.5518150" lon="-4.0115950">
        <ele>881.2</ele>
        <time>2019-04-28T10:39:35Z</time>
      </trkpt>
      <trkpt lat="40.5517580" lon="-4.0115930">
        <ele>881.2</ele>
        <time>2019-04-28T10:39:36Z</time>
      </trkpt>
      <trkpt lat="40.5516990" lon="-4.0115900">
        <ele>881.2</ele>
        <time>2019-04-28T10:39:37Z</time>
      </trkpt>
      <trkpt lat="40.5516390" lon="-4.0115870">
        <ele>881.2</ele>
        <time>2019-04-28T10:39:38Z</time>
      </trkpt>
      <trkpt lat="40.5515810" lon="-4.0115830">
        <ele>881.2</ele>
        <time>2019-04-28T10:39:39Z</time>
      </trkpt>
      <trkpt lat="40.5515210" lon="-4.0115780">
        <ele>881.2</ele>
        <time>2019-04-28T10:39:40Z</time>
      </trkpt>
      <trkpt lat="40.5514630" lon="-4.0115730">
        <ele>881.2</ele>
        <time>2019-04-28T10:39:41Z</time>
      </trkpt>
      <trkpt lat="40.5514020" lon="-4.0115670">
        <ele>881.0</ele>
        <time>2019-04-28T10:39:42Z</time>
      </trkpt>
      <trkpt lat="40.5513420" lon="-4.0115610">
        <ele>881.2</ele>
        <time>2019-04-28T10:39:43Z</time>
      </trkpt>
      <trkpt lat="40.5512810" lon="-4.0115580">
        <ele>881.0</ele>
        <time>2019-04-28T10:39:44Z</time>
      </trkpt>
      <trkpt lat="40.5512200" lon="-4.0115570">
        <ele>881.2</ele>
        <time>2019-04-28T10:39:45Z</time>
      </trkpt>
      <trkpt lat="40.5511590" lon="-4.0115530">
        <ele>881.2</ele>
        <time>2019-04-28T10:39:46Z</time>
      </trkpt>
      <trkpt lat="40.5511000" lon="-4.0115480">
        <ele>881.2</ele>
        <time>2019-04-28T10:39:47Z</time>
      </trkpt>
      <trkpt lat="40.5510400" lon="-4.0115420">
        <ele>881.2</ele>
        <time>2019-04-28T10:39:48Z</time>
      </trkpt>
      <trkpt lat="40.5509790" lon="-4.0115360">
        <ele>881.2</ele>
        <time>2019-04-28T10:39:49Z</time>
      </trkpt>
      <trkpt lat="40.5509140" lon="-4.0115310">
        <ele>881.0</ele>
        <time>2019-04-28T10:39:50Z</time>
      </trkpt>
      <trkpt lat="40.5508520" lon="-4.0115220">
        <ele>881.0</ele>
        <time>2019-04-28T10:39:51Z</time>
      </trkpt>
      <trkpt lat="40.5507900" lon="-4.0115150">
        <ele>880.8</ele>
        <time>2019-04-28T10:39:52Z</time>
      </trkpt>
      <trkpt lat="40.5507280" lon="-4.0115070">
        <ele>880.8</ele>
        <time>2019-04-28T10:39:53Z</time>
      </trkpt>
      <trkpt lat="40.5506670" lon="-4.0114980">
        <ele>881.0</ele>
        <time>2019-04-28T10:39:54Z</time>
      </trkpt>
      <trkpt lat="40.5506070" lon="-4.0114900">
        <ele>881.0</ele>
        <time>2019-04-28T10:39:55Z</time>
      </trkpt>
      <trkpt lat="40.5505490" lon="-4.0114840">
        <ele>881.0</ele>
        <time>2019-04-28T10:39:56Z</time>
      </trkpt>
      <trkpt lat="40.5504910" lon="-4.0114780">
        <ele>881.0</ele>
        <time>2019-04-28T10:39:57Z</time>
      </trkpt>
      <trkpt lat="40.5504350" lon="-4.0114730">
        <ele>881.0</ele>
        <time>2019-04-28T10:39:58Z</time>
      </trkpt>
      <trkpt lat="40.5503770" lon="-4.0114670">
        <ele>881.0</ele>
        <time>2019-04-28T10:39:59Z</time>
      </trkpt>
      <trkpt lat="40.5503190" lon="-4.0114620">
        <ele>881.0</ele>
        <time>2019-04-28T10:40:00Z</time>
      </trkpt>
      <trkpt lat="40.5502600" lon="-4.0114580">
        <ele>881.0</ele>
        <time>2019-04-28T10:40:01Z</time>
      </trkpt>
      <trkpt lat="40.5502010" lon="-4.0114530">
        <ele>881.0</ele>
        <time>2019-04-28T10:40:02Z</time>
      </trkpt>
      <trkpt lat="40.5501380" lon="-4.0114460">
        <ele>880.8</ele>
        <time>2019-04-28T10:40:03Z</time>
      </trkpt>
      <trkpt lat="40.5500780" lon="-4.0114400">
        <ele>881.2</ele>
        <time>2019-04-28T10:40:04Z</time>
      </trkpt>
      <trkpt lat="40.5500180" lon="-4.0114340">
        <ele>881.0</ele>
        <time>2019-04-28T10:40:05Z</time>
      </trkpt>
      <trkpt lat="40.5499570" lon="-4.0114280">
        <ele>881.2</ele>
        <time>2019-04-28T10:40:06Z</time>
      </trkpt>
      <trkpt lat="40.5498970" lon="-4.0114210">
        <ele>881.2</ele>
        <time>2019-04-28T10:40:07Z</time>
      </trkpt>
      <trkpt lat="40.5498380" lon="-4.0114130">
        <ele>881.0</ele>
        <time>2019-04-28T10:40:08Z</time>
      </trkpt>
      <trkpt lat="40.5497790" lon="-4.0114070">
        <ele>881.0</ele>
        <time>2019-04-28T10:40:09Z</time>
      </trkpt>
      <trkpt lat="40.5497200" lon="-4.0113990">
        <ele>881.0</ele>
        <time>2019-04-28T10:40:10Z</time>
      </trkpt>
      <trkpt lat="40.5496610" lon="-4.0113910">
        <ele>881.2</ele>
        <time>2019-04-28T10:40:11Z</time>
      </trkpt>
      <trkpt lat="40.5496030" lon="-4.0113820">
        <ele>881.2</ele>
        <time>2019-04-28T10:40:12Z</time>
      </trkpt>
      <trkpt lat="40.5495480" lon="-4.0113770">
        <ele>881.0</ele>
        <time>2019-04-28T10:40:13Z</time>
      </trkpt>
      <trkpt lat="40.5494900" lon="-4.0113680">
        <ele>881.0</ele>
        <time>2019-04-28T10:40:14Z</time>
      </trkpt>
      <trkpt lat="40.5494260" lon="-4.0113580">
        <ele>881.0</ele>
        <time>2019-04-28T10:40:15Z</time>
      </trkpt>
      <trkpt lat="40.5493660" lon="-4.0113510">
        <ele>881.0</ele>
        <time>2019-04-28T10:40:16Z</time>
      </trkpt>
      <trkpt lat="40.5493040" lon="-4.0113440">
        <ele>880.8</ele>
        <time>2019-04-28T10:40:17Z</time>
      </trkpt>
      <trkpt lat="40.5492430" lon="-4.0113380">
        <ele>880.8</ele>
        <time>2019-04-28T10:40:18Z</time>
      </trkpt>
      <trkpt lat="40.5491780" lon="-4.0113340">
        <ele>880.6</ele>
        <time>2019-04-28T10:40:19Z</time>
      </trkpt>
      <trkpt lat="40.5491110" lon="-4.0113270">
        <ele>880.6</ele>
        <time>2019-04-28T10:40:20Z</time>
      </trkpt>
      <trkpt lat="40.5490470" lon="-4.0113200">
        <ele>880.6</ele>
        <time>2019-04-28T10:40:21Z</time>
      </trkpt>
      <trkpt lat="40.5489820" lon="-4.0113160">
        <ele>880.4</ele>
        <time>2019-04-28T10:40:22Z</time>
      </trkpt>
      <trkpt lat="40.5489150" lon="-4.0113110">
        <ele>880.4</ele>
        <time>2019-04-28T10:40:23Z</time>
      </trkpt>
      <trkpt lat="40.5488440" lon="-4.0113030">
        <ele>880.0</ele>
        <time>2019-04-28T10:40:24Z</time>
      </trkpt>
      <trkpt lat="40.5487740" lon="-4.0112970">
        <ele>880.0</ele>
        <time>2019-04-28T10:40:25Z</time>
      </trkpt>
      <trkpt lat="40.5487050" lon="-4.0112910">
        <ele>880.2</ele>
        <time>2019-04-28T10:40:26Z</time>
      </trkpt>
      <trkpt lat="40.5486360" lon="-4.0112840">
        <ele>880.0</ele>
        <time>2019-04-28T10:40:27Z</time>
      </trkpt>
      <trkpt lat="40.5485670" lon="-4.0112790">
        <ele>880.0</ele>
        <time>2019-04-28T10:40:28Z</time>
      </trkpt>
      <trkpt lat="40.5484980" lon="-4.0112700">
        <ele>879.8</ele>
        <time>2019-04-28T10:40:29Z</time>
      </trkpt>
      <trkpt lat="40.5484280" lon="-4.0112610">
        <ele>879.6</ele>
        <time>2019-04-28T10:40:30Z</time>
      </trkpt>
      <trkpt lat="40.5483570" lon="-4.0112540">
        <ele>879.6</ele>
        <time>2019-04-28T10:40:31Z</time>
      </trkpt>
      <trkpt lat="40.5482870" lon="-4.0112470">
        <ele>879.4</ele>
        <time>2019-04-28T10:40:32Z</time>
      </trkpt>
      <trkpt lat="40.5482160" lon="-4.0112390">
        <ele>879.2</ele>
        <time>2019-04-28T10:40:33Z</time>
      </trkpt>
      <trkpt lat="40.5481440" lon="-4.0112340">
        <ele>879.0</ele>
        <time>2019-04-28T10:40:34Z</time>
      </trkpt>
      <trkpt lat="40.5480710" lon="-4.0112270">
        <ele>879.0</ele>
        <time>2019-04-28T10:40:35Z</time>
      </trkpt>
      <trkpt lat="40.5479960" lon="-4.0112180">
        <ele>878.6</ele>
        <time>2019-04-28T10:40:36Z</time>
      </trkpt>
      <trkpt lat="40.5479200" lon="-4.0112110">
        <ele>878.4</ele>
        <time>2019-04-28T10:40:37Z</time>
      </trkpt>
      <trkpt lat="40.5478410" lon="-4.0112040">
        <ele>878.2</ele>
        <time>2019-04-28T10:40:38Z</time>
      </trkpt>
      <trkpt lat="40.5477620" lon="-4.0111990">
        <ele>878.0</ele>
        <time>2019-04-28T10:40:39Z</time>
      </trkpt>
      <trkpt lat="40.5476830" lon="-4.0111970">
        <ele>877.8</ele>
        <time>2019-04-28T10:40:40Z</time>
      </trkpt>
      <trkpt lat="40.5476020" lon="-4.0111950">
        <ele>877.6</ele>
        <time>2019-04-28T10:40:41Z</time>
      </trkpt>
      <trkpt lat="40.5475200" lon="-4.0111970">
        <ele>877.2</ele>
        <time>2019-04-28T10:40:42Z</time>
      </trkpt>
      <trkpt lat="40.5474380" lon="-4.0112010">
        <ele>876.8</ele>
        <time>2019-04-28T10:40:43Z</time>
      </trkpt>
      <trkpt lat="40.5473560" lon="-4.0112090">
        <ele>876.2</ele>
        <time>2019-04-28T10:40:44Z</time>
      </trkpt>
      <trkpt lat="40.5472750" lon="-4.0112190">
        <ele>875.8</ele>
        <time>2019-04-28T10:40:45Z</time>
      </trkpt>
      <trkpt lat="40.5471950" lon="-4.0112290">
        <ele>875.6</ele>
        <time>2019-04-28T10:40:46Z</time>
      </trkpt>
      <trkpt lat="40.5471130" lon="-4.0112420">
        <ele>875.2</ele>
        <time>2019-04-28T10:40:47Z</time>
      </trkpt>
      <trkpt lat="40.5470310" lon="-4.0112560">
        <ele>875.0</ele>
        <time>2019-04-28T10:40:48Z</time>
      </trkpt>
      <trkpt lat="40.5469500" lon="-4.0112710">
        <ele>874.8</ele>
        <time>2019-04-28T10:40:49Z</time>
      </trkpt>
      <trkpt lat="40.5468680" lon="-4.0112860">
        <ele>874.4</ele>
        <time>2019-04-28T10:40:50Z</time>
      </trkpt>
      <trkpt lat="40.5467860" lon="-4.0113030">
        <ele>874.4</ele>
        <time>2019-04-28T10:40:51Z</time>
      </trkpt>
      <trkpt lat="40.5467020" lon="-4.0113150">
        <ele>874.0</ele>
        <time>2019-04-28T10:40:52Z</time>
      </trkpt>
      <trkpt lat="40.5466160" lon="-4.0113280">
        <ele>874.0</ele>
        <time>2019-04-28T10:40:53Z</time>
      </trkpt>
      <trkpt lat="40.5465320" lon="-4.0113460">
        <ele>873.4</ele>
        <time>2019-04-28T10:40:54Z</time>
      </trkpt>
      <trkpt lat="40.5464500" lon="-4.0113720">
        <ele>873.2</ele>
        <time>2019-04-28T10:40:55Z</time>
      </trkpt>
      <trkpt lat="40.5463690" lon="-4.0113960">
        <ele>873.0</ele>
        <time>2019-04-28T10:40:56Z</time>
      </trkpt>
      <trkpt lat="40.5462860" lon="-4.0114150">
        <ele>872.8</ele>
        <time>2019-04-28T10:40:57Z</time>
      </trkpt>
      <trkpt lat="40.5462050" lon="-4.0114330">
        <ele>872.6</ele>
        <time>2019-04-28T10:40:58Z</time>
      </trkpt>
      <trkpt lat="40.5461220" lon="-4.0114490">
        <ele>872.2</ele>
        <time>2019-04-28T10:40:59Z</time>
      </trkpt>
      <trkpt lat="40.5460400" lon="-4.0114650">
        <ele>872.0</ele>
        <time>2019-04-28T10:41:00Z</time>
      </trkpt>
      <trkpt lat="40.5459570" lon="-4.0114810">
        <ele>871.6</ele>
        <time>2019-04-28T10:41:01Z</time>
      </trkpt>
      <trkpt lat="40.5458760" lon="-4.0115000">
        <ele>871.4</ele>
        <time>2019-04-28T10:41:02Z</time>
      </trkpt>
      <trkpt lat="40.5457940" lon="-4.0115160">
        <ele>871.2</ele>
        <time>2019-04-28T10:41:03Z</time>
      </trkpt>
      <trkpt lat="40.5457120" lon="-4.0115290">
        <ele>871.0</ele>
        <time>2019-04-28T10:41:04Z</time>
      </trkpt>
      <trkpt lat="40.5456310" lon="-4.0115460">
        <ele>871.0</ele>
        <time>2019-04-28T10:41:05Z</time>
      </trkpt>
      <trkpt lat="40.5455490" lon="-4.0115610">
        <ele>871.0</ele>
        <time>2019-04-28T10:41:06Z</time>
      </trkpt>
      <trkpt lat="40.5454670" lon="-4.0115740">
        <ele>870.8</ele>
        <time>2019-04-28T10:41:07Z</time>
      </trkpt>
      <trkpt lat="40.5453850" lon="-4.0115800">
        <ele>870.8</ele>
        <time>2019-04-28T10:41:08Z</time>
      </trkpt>
      <trkpt lat="40.5453050" lon="-4.0115780">
        <ele>870.8</ele>
        <time>2019-04-28T10:41:09Z</time>
      </trkpt>
      <trkpt lat="40.5452250" lon="-4.0115690">
        <ele>870.8</ele>
        <time>2019-04-28T10:41:10Z</time>
      </trkpt>
      <trkpt lat="40.5451470" lon="-4.0115510">
        <ele>870.6</ele>
        <time>2019-04-28T10:41:11Z</time>
      </trkpt>
      <trkpt lat="40.5450710" lon="-4.0115270">
        <ele>870.8</ele>
        <time>2019-04-28T10:41:12Z</time>
      </trkpt>
      <trkpt lat="40.5449970" lon="-4.0114980">
        <ele>870.6</ele>
        <time>2019-04-28T10:41:13Z</time>
      </trkpt>
      <trkpt lat="40.5449240" lon="-4.0114680">
        <ele>870.8</ele>
        <time>2019-04-28T10:41:14Z</time>
      </trkpt>
      <trkpt lat="40.5448540" lon="-4.0114380">
        <ele>871.0</ele>
        <time>2019-04-28T10:41:15Z</time>
      </trkpt>
      <trkpt lat="40.5447830" lon="-4.0114090">
        <ele>871.0</ele>
        <time>2019-04-28T10:41:16Z</time>
      </trkpt>
      <trkpt lat="40.5447130" lon="-4.0113850">
        <ele>871.2</ele>
        <time>2019-04-28T10:41:17Z</time>
      </trkpt>
      <trkpt lat="40.5446430" lon="-4.0113640">
        <ele>871.0</ele>
        <time>2019-04-28T10:41:18Z</time>
      </trkpt>
      <trkpt lat="40.5445720" lon="-4.0113480">
        <ele>871.2</ele>
        <time>2019-04-28T10:41:19Z</time>
      </trkpt>
      <trkpt lat="40.5445000" lon="-4.0113340">
        <ele>871.4</ele>
        <time>2019-04-28T10:41:20Z</time>
      </trkpt>
      <trkpt lat="40.5444250" lon="-4.0113210">
        <ele>871.6</ele>
        <time>2019-04-28T10:41:21Z</time>
      </trkpt>
      <trkpt lat="40.5443520" lon="-4.0113090">
        <ele>871.6</ele>
        <time>2019-04-28T10:41:22Z</time>
      </trkpt>
      <trkpt lat="40.5442800" lon="-4.0112990">
        <ele>871.6</ele>
        <time>2019-04-28T10:41:23Z</time>
      </trkpt>
      <trkpt lat="40.5442080" lon="-4.0112890">
        <ele>871.6</ele>
        <time>2019-04-28T10:41:24Z</time>
      </trkpt>
      <trkpt lat="40.5441360" lon="-4.0112790">
        <ele>871.8</ele>
        <time>2019-04-28T10:41:25Z</time>
      </trkpt>
      <trkpt lat="40.5440650" lon="-4.0112700">
        <ele>871.8</ele>
        <time>2019-04-28T10:41:26Z</time>
      </trkpt>
      <trkpt lat="40.5439950" lon="-4.0112630">
        <ele>871.8</ele>
        <time>2019-04-28T10:41:27Z</time>
      </trkpt>
      <trkpt lat="40.5439250" lon="-4.0112540">
        <ele>871.8</ele>
        <time>2019-04-28T10:41:28Z</time>
      </trkpt>
      <trkpt lat="40.5438550" lon="-4.0112470">
        <ele>872.0</ele>
        <time>2019-04-28T10:41:29Z</time>
      </trkpt>
      <trkpt lat="40.5437840" lon="-4.0112400">
        <ele>872.2</ele>
        <time>2019-04-28T10:41:30Z</time>
      </trkpt>
      <trkpt lat="40.5437140" lon="-4.0112320">
        <ele>872.2</ele>
        <time>2019-04-28T10:41:31Z</time>
      </trkpt>
      <trkpt lat="40.5436430" lon="-4.0112230">
        <ele>872.2</ele>
        <time>2019-04-28T10:41:32Z</time>
      </trkpt>
      <trkpt lat="40.5435730" lon="-4.0112160">
        <ele>872.4</ele>
        <time>2019-04-28T10:41:33Z</time>
      </trkpt>
      <trkpt lat="40.5435020" lon="-4.0112070">
        <ele>872.4</ele>
        <time>2019-04-28T10:41:34Z</time>
      </trkpt>
      <trkpt lat="40.5434340" lon="-4.0111980">
        <ele>872.4</ele>
        <time>2019-04-28T10:41:35Z</time>
      </trkpt>
      <trkpt lat="40.5433670" lon="-4.0111880">
        <ele>872.6</ele>
        <time>2019-04-28T10:41:36Z</time>
      </trkpt>
      <trkpt lat="40.5433010" lon="-4.0111790">
        <ele>872.6</ele>
        <time>2019-04-28T10:41:37Z</time>
      </trkpt>
      <trkpt lat="40.5432360" lon="-4.0111710">
        <ele>872.8</ele>
        <time>2019-04-28T10:41:38Z</time>
      </trkpt>
      <trkpt lat="40.5431690" lon="-4.0111640">
        <ele>872.8</ele>
        <time>2019-04-28T10:41:39Z</time>
      </trkpt>
      <trkpt lat="40.5431040" lon="-4.0111560">
        <ele>872.8</ele>
        <time>2019-04-28T10:41:40Z</time>
      </trkpt>
      <trkpt lat="40.5430390" lon="-4.0111450">
        <ele>873.0</ele>
        <time>2019-04-28T10:41:41Z</time>
      </trkpt>
      <trkpt lat="40.5429770" lon="-4.0111300">
        <ele>873.0</ele>
        <time>2019-04-28T10:41:42Z</time>
      </trkpt>
      <trkpt lat="40.5429140" lon="-4.0111150">
        <ele>873.2</ele>
        <time>2019-04-28T10:41:43Z</time>
      </trkpt>
      <trkpt lat="40.5428490" lon="-4.0111000">
        <ele>873.2</ele>
        <time>2019-04-28T10:41:44Z</time>
      </trkpt>
      <trkpt lat="40.5427820" lon="-4.0110880">
        <ele>873.4</ele>
        <time>2019-04-28T10:41:45Z</time>
      </trkpt>
      <trkpt lat="40.5427130" lon="-4.0110730">
        <ele>873.4</ele>
        <time>2019-04-28T10:41:46Z</time>
      </trkpt>
      <trkpt lat="40.5426470" lon="-4.0110660">
        <ele>873.4</ele>
        <time>2019-04-28T10:41:47Z</time>
      </trkpt>
      <trkpt lat="40.5425810" lon="-4.0110740">
        <ele>873.8</ele>
        <time>2019-04-28T10:41:48Z</time>
      </trkpt>
      <trkpt lat="40.5425140" lon="-4.0110760">
        <ele>873.8</ele>
        <time>2019-04-28T10:41:49Z</time>
      </trkpt>
      <trkpt lat="40.5424490" lon="-4.0110590">
        <ele>874.0</ele>
        <time>2019-04-28T10:41:50Z</time>
      </trkpt>
      <trkpt lat="40.5423900" lon="-4.0110210">
        <ele>874.0</ele>
        <time>2019-04-28T10:41:51Z</time>
      </trkpt>
      <trkpt lat="40.5423330" lon="-4.0109780">
        <ele>874.0</ele>
        <time>2019-04-28T10:41:52Z</time>
      </trkpt>
      <trkpt lat="40.5422760" lon="-4.0109370">
        <ele>874.2</ele>
        <time>2019-04-28T10:41:53Z</time>
      </trkpt>
      <trkpt lat="40.5422170" lon="-4.0109050">
        <ele>874.2</ele>
        <time>2019-04-28T10:41:54Z</time>
      </trkpt>
      <trkpt lat="40.5421570" lon="-4.0108790">
        <ele>874.2</ele>
        <time>2019-04-28T10:41:55Z</time>
      </trkpt>
      <trkpt lat="40.5421000" lon="-4.0108530">
        <ele>874.2</ele>
        <time>2019-04-28T10:41:56Z</time>
      </trkpt>
      <trkpt lat="40.5420430" lon="-4.0108310">
        <ele>874.2</ele>
        <time>2019-04-28T10:41:57Z</time>
      </trkpt>
      <trkpt lat="40.5419880" lon="-4.0108110">
        <ele>874.0</ele>
        <time>2019-04-28T10:41:58Z</time>
      </trkpt>
      <trkpt lat="40.5419320" lon="-4.0107930">
        <ele>873.8</ele>
        <time>2019-04-28T10:41:59Z</time>
      </trkpt>
      <trkpt lat="40.5418770" lon="-4.0107790">
        <ele>873.8</ele>
        <time>2019-04-28T10:42:00Z</time>
      </trkpt>
      <trkpt lat="40.5418260" lon="-4.0107670">
        <ele>873.4</ele>
        <time>2019-04-28T10:42:01Z</time>
      </trkpt>
      <trkpt lat="40.5417750" lon="-4.0107540">
        <ele>873.2</ele>
        <time>2019-04-28T10:42:02Z</time>
      </trkpt>
      <trkpt lat="40.5417240" lon="-4.0107440">
        <ele>873.0</ele>
        <time>2019-04-28T10:42:03Z</time>
      </trkpt>
      <trkpt lat="40.5416720" lon="-4.0107360">
        <ele>872.6</ele>
        <time>2019-04-28T10:42:04Z</time>
      </trkpt>
      <trkpt lat="40.5416190" lon="-4.0107310">
        <ele>872.4</ele>
        <time>2019-04-28T10:42:05Z</time>
      </trkpt>
      <trkpt lat="40.5415690" lon="-4.0107270">
        <ele>872.2</ele>
        <time>2019-04-28T10:42:06Z</time>
      </trkpt>
      <trkpt lat="40.5415190" lon="-4.0107220">
        <ele>872.0</ele>
        <time>2019-04-28T10:42:07Z</time>
      </trkpt>
      <trkpt lat="40.5414670" lon="-4.0107180">
        <ele>871.8</ele>
        <time>2019-04-28T10:42:08Z</time>
      </trkpt>
      <trkpt lat="40.5414130" lon="-4.0107120">
        <ele>871.6</ele>
        <time>2019-04-28T10:42:09Z</time>
      </trkpt>
      <trkpt lat="40.5413620" lon="-4.0107060">
        <ele>871.4</ele>
        <time>2019-04-28T10:42:10Z</time>
      </trkpt>
      <trkpt lat="40.5413070" lon="-4.0106990">
        <ele>871.4</ele>
        <time>2019-04-28T10:42:11Z</time>
      </trkpt>
      <trkpt lat="40.5412500" lon="-4.0106920">
        <ele>871.4</ele>
        <time>2019-04-28T10:42:12Z</time>
      </trkpt>
      <trkpt lat="40.5411900" lon="-4.0106870">
        <ele>871.4</ele>
        <time>2019-04-28T10:42:13Z</time>
      </trkpt>
      <trkpt lat="40.5411260" lon="-4.0106820">
        <ele>871.4</ele>
        <time>2019-04-28T10:42:14Z</time>
      </trkpt>
      <trkpt lat="40.5410600" lon="-4.0106780">
        <ele>871.2</ele>
        <time>2019-04-28T10:42:15Z</time>
      </trkpt>
      <trkpt lat="40.5409920" lon="-4.0106690">
        <ele>871.0</ele>
        <time>2019-04-28T10:42:16Z</time>
      </trkpt>
      <trkpt lat="40.5409230" lon="-4.0106590">
        <ele>870.8</ele>
        <time>2019-04-28T10:42:17Z</time>
      </trkpt>
      <trkpt lat="40.5408530" lon="-4.0106510">
        <ele>870.8</ele>
        <time>2019-04-28T10:42:18Z</time>
      </trkpt>
      <trkpt lat="40.5407830" lon="-4.0106440">
        <ele>870.4</ele>
        <time>2019-04-28T10:42:19Z</time>
      </trkpt>
      <trkpt lat="40.5407150" lon="-4.0106380">
        <ele>870.2</ele>
        <time>2019-04-28T10:42:20Z</time>
      </trkpt>
      <trkpt lat="40.5406500" lon="-4.0106320">
        <ele>870.2</ele>
        <time>2019-04-28T10:42:21Z</time>
      </trkpt>
      <trkpt lat="40.5405850" lon="-4.0106270">
        <ele>869.8</ele>
        <time>2019-04-28T10:42:22Z</time>
      </trkpt>
      <trkpt lat="40.5405190" lon="-4.0106160">
        <ele>869.6</ele>
        <time>2019-04-28T10:42:23Z</time>
      </trkpt>
      <trkpt lat="40.5404500" lon="-4.0106040">
        <ele>869.6</ele>
        <time>2019-04-28T10:42:24Z</time>
      </trkpt>
      <trkpt lat="40.5403780" lon="-4.0105910">
        <ele>870.0</ele>
        <time>2019-04-28T10:42:25Z</time>
      </trkpt>
      <trkpt lat="40.5403030" lon="-4.0105800">
        <ele>869.8</ele>
        <time>2019-04-28T10:42:26Z</time>
      </trkpt>
      <trkpt lat="40.5402270" lon="-4.0105670">
        <ele>869.4</ele>
        <time>2019-04-28T10:42:27Z</time>
      </trkpt>
      <trkpt lat="40.5401500" lon="-4.0105520">
        <ele>869.0</ele>
        <time>2019-04-28T10:42:28Z</time>
      </trkpt>
      <trkpt lat="40.5400720" lon="-4.0105310">
        <ele>868.6</ele>
        <time>2019-04-28T10:42:29Z</time>
      </trkpt>
      <trkpt lat="40.5399920" lon="-4.0105060">
        <ele>868.2</ele>
        <time>2019-04-28T10:42:30Z</time>
      </trkpt>
      <trkpt lat="40.5399110" lon="-4.0104760">
        <ele>867.8</ele>
        <time>2019-04-28T10:42:31Z</time>
      </trkpt>
      <trkpt lat="40.5398290" lon="-4.0104430">
        <ele>867.4</ele>
        <time>2019-04-28T10:42:32Z</time>
      </trkpt>
      <trkpt lat="40.5397450" lon="-4.0104090">
        <ele>867.0</ele>
        <time>2019-04-28T10:42:33Z</time>
      </trkpt>
      <trkpt lat="40.5396600" lon="-4.0103720">
        <ele>866.6</ele>
        <time>2019-04-28T10:42:34Z</time>
      </trkpt>
      <trkpt lat="40.5395740" lon="-4.0103320">
        <ele>866.2</ele>
        <time>2019-04-28T10:42:35Z</time>
      </trkpt>
      <trkpt lat="40.5394860" lon="-4.0102900">
        <ele>865.8</ele>
        <time>2019-04-28T10:42:36Z</time>
      </trkpt>
      <trkpt lat="40.5393950" lon="-4.0102480">
        <ele>865.2</ele>
        <time>2019-04-28T10:42:37Z</time>
      </trkpt>
      <trkpt lat="40.5393040" lon="-4.0102070">
        <ele>864.6</ele>
        <time>2019-04-28T10:42:38Z</time>
      </trkpt>
      <trkpt lat="40.5392100" lon="-4.0101690">
        <ele>864.4</ele>
        <time>2019-04-28T10:42:39Z</time>
      </trkpt>
      <trkpt lat="40.5391170" lon="-4.0101300">
        <ele>864.0</ele>
        <time>2019-04-28T10:42:40Z</time>
      </trkpt>
      <trkpt lat="40.5390220" lon="-4.0100900">
        <ele>863.8</ele>
        <time>2019-04-28T10:42:41Z</time>
      </trkpt>
      <trkpt lat="40.5389300" lon="-4.0100500">
        <ele>863.4</ele>
        <time>2019-04-28T10:42:42Z</time>
      </trkpt>
      <trkpt lat="40.5388370" lon="-4.0100090">
        <ele>863.0</ele>
        <time>2019-04-28T10:42:43Z</time>
      </trkpt>
      <trkpt lat="40.5387460" lon="-4.0099670">
        <ele>862.8</ele>
        <time>2019-04-28T10:42:44Z</time>
      </trkpt>
      <trkpt lat="40.5386560" lon="-4.0099240">
        <ele>862.8</ele>
        <time>2019-04-28T10:42:45Z</time>
      </trkpt>
      <trkpt lat="40.5385680" lon="-4.0098780">
        <ele>862.6</ele>
        <time>2019-04-28T10:42:46Z</time>
      </trkpt>
      <trkpt lat="40.5384820" lon="-4.0098320">
        <ele>862.4</ele>
        <time>2019-04-28T10:42:47Z</time>
      </trkpt>
      <trkpt lat="40.5383970" lon="-4.0097840">
        <ele>862.2</ele>
        <time>2019-04-28T10:42:48Z</time>
      </trkpt>
      <trkpt lat="40.5383150" lon="-4.0097350">
        <ele>862.0</ele>
        <time>2019-04-28T10:42:49Z</time>
      </trkpt>
      <trkpt lat="40.5382330" lon="-4.0096890">
        <ele>861.8</ele>
        <time>2019-04-28T10:42:50Z</time>
      </trkpt>
      <trkpt lat="40.5381510" lon="-4.0096450">
        <ele>861.8</ele>
        <time>2019-04-28T10:42:51Z</time>
      </trkpt>
      <trkpt lat="40.5380680" lon="-4.0095980">
        <ele>861.6</ele>
        <time>2019-04-28T10:42:52Z</time>
      </trkpt>
      <trkpt lat="40.5379850" lon="-4.0095530">
        <ele>861.8</ele>
        <time>2019-04-28T10:42:53Z</time>
      </trkpt>
      <trkpt lat="40.5379000" lon="-4.0095110">
        <ele>862.0</ele>
        <time>2019-04-28T10:42:54Z</time>
      </trkpt>
      <trkpt lat="40.5378150" lon="-4.0094720">
        <ele>861.8</ele>
        <time>2019-04-28T10:42:55Z</time>
      </trkpt>
      <trkpt lat="40.5377300" lon="-4.0094390">
        <ele>861.2</ele>
        <time>2019-04-28T10:42:56Z</time>
      </trkpt>
      <trkpt lat="40.5376450" lon="-4.0094140">
        <ele>861.0</ele>
        <time>2019-04-28T10:42:57Z</time>
      </trkpt>
      <trkpt lat="40.5375590" lon="-4.0093990">
        <ele>861.2</ele>
        <time>2019-04-28T10:42:58Z</time>
      </trkpt>
      <trkpt lat="40.5374710" lon="-4.0093950">
        <ele>861.2</ele>
        <time>2019-04-28T10:42:59Z</time>
      </trkpt>
      <trkpt lat="40.5373840" lon="-4.0094020">
        <ele>861.4</ele>
        <time>2019-04-28T10:43:00Z</time>
      </trkpt>
      <trkpt lat="40.5372990" lon="-4.0094190">
        <ele>861.0</ele>
        <time>2019-04-28T10:43:01Z</time>
      </trkpt>
      <trkpt lat="40.5372150" lon="-4.0094410">
        <ele>860.8</ele>
        <time>2019-04-28T10:43:02Z</time>
      </trkpt>
      <trkpt lat="40.5371350" lon="-4.0094730">
        <ele>860.8</ele>
        <time>2019-04-28T10:43:03Z</time>
      </trkpt>
      <trkpt lat="40.5370590" lon="-4.0095180">
        <ele>860.8</ele>
        <time>2019-04-28T10:43:04Z</time>
      </trkpt>
      <trkpt lat="40.5369880" lon="-4.0095720">
        <ele>861.0</ele>
        <time>2019-04-28T10:43:05Z</time>
      </trkpt>
      <trkpt lat="40.5369190" lon="-4.0096280">
        <ele>861.2</ele>
        <time>2019-04-28T10:43:06Z</time>
      </trkpt>
      <trkpt lat="40.5368490" lon="-4.0096850">
        <ele>861.0</ele>
        <time>2019-04-28T10:43:07Z</time>
      </trkpt>
      <trkpt lat="40.5367810" lon="-4.0097490">
        <ele>861.0</ele>
        <time>2019-04-28T10:43:08Z</time>
      </trkpt>
      <trkpt lat="40.5367160" lon="-4.0098150">
        <ele>860.8</ele>
        <time>2019-04-28T10:43:09Z</time>
      </trkpt>
      <trkpt lat="40.5366510" lon="-4.0098840">
        <ele>860.8</ele>
        <time>2019-04-28T10:43:10Z</time>
      </trkpt>
      <trkpt lat="40.5365870" lon="-4.0099530">
        <ele>860.4</ele>
        <time>2019-04-28T10:43:11Z</time>
      </trkpt>
      <trkpt lat="40.5365280" lon="-4.0100170">
        <ele>860.2</ele>
        <time>2019-04-28T10:43:12Z</time>
      </trkpt>
      <trkpt lat="40.5364710" lon="-4.0100780">
        <ele>860.0</ele>
        <time>2019-04-28T10:43:13Z</time>
      </trkpt>
      <trkpt lat="40.5364180" lon="-4.0101370">
        <ele>860.4</ele>
        <time>2019-04-28T10:43:14Z</time>
      </trkpt>
      <trkpt lat="40.5363630" lon="-4.0101930">
        <ele>860.4</ele>
        <time>2019-04-28T10:43:15Z</time>
      </trkpt>
      <trkpt lat="40.5363070" lon="-4.0102450">
        <ele>860.4</ele>
        <time>2019-04-28T10:43:16Z</time>
      </trkpt>
      <trkpt lat="40.5362400" lon="-4.0102910">
        <ele>860.4</ele>
        <time>2019-04-28T10:43:17Z</time>
      </trkpt>
      <trkpt lat="40.5361720" lon="-4.0103320">
        <ele>860.4</ele>
        <time>2019-04-28T10:43:18Z</time>
      </trkpt>
      <trkpt lat="40.5361010" lon="-4.0103690">
        <ele>860.4</ele>
        <time>2019-04-28T10:43:19Z</time>
      </trkpt>
      <trkpt lat="40.5360290" lon="-4.0104040">
        <ele>860.2</ele>
        <time>2019-04-28T10:43:20Z</time>
      </trkpt>
      <trkpt lat="40.5359570" lon="-4.0104350">
        <ele>860.0</ele>
        <time>2019-04-28T10:43:21Z</time>
      </trkpt>
      <trkpt lat="40.5358850" lon="-4.0104600">
        <ele>860.0</ele>
        <time>2019-04-28T10:43:22Z</time>
      </trkpt>
      <trkpt lat="40.5358140" lon="-4.0104830">
        <ele>860.0</ele>
        <time>2019-04-28T10:43:23Z</time>
      </trkpt>
      <trkpt lat="40.5357430" lon="-4.0105000">
        <ele>860.2</ele>
        <time>2019-04-28T10:43:24Z</time>
      </trkpt>
      <trkpt lat="40.5356730" lon="-4.0105110">
        <ele>860.2</ele>
        <time>2019-04-28T10:43:25Z</time>
      </trkpt>
      <trkpt lat="40.5356030" lon="-4.0105220">
        <ele>860.0</ele>
        <time>2019-04-28T10:43:26Z</time>
      </trkpt>
      <trkpt lat="40.5355350" lon="-4.0105370">
        <ele>860.2</ele>
        <time>2019-04-28T10:43:27Z</time>
      </trkpt>
      <trkpt lat="40.5354680" lon="-4.0105500">
        <ele>860.6</ele>
        <time>2019-04-28T10:43:28Z</time>
      </trkpt>
      <trkpt lat="40.5354010" lon="-4.0105630">
        <ele>860.8</ele>
        <time>2019-04-28T10:43:29Z</time>
      </trkpt>
      <trkpt lat="40.5353360" lon="-4.0105810">
        <ele>860.8</ele>
        <time>2019-04-28T10:43:30Z</time>
      </trkpt>
      <trkpt lat="40.5352720" lon="-4.0106000">
        <ele>860.8</ele>
        <time>2019-04-28T10:43:31Z</time>
      </trkpt>
      <trkpt lat="40.5352100" lon="-4.0106210">
        <ele>860.6</ele>
        <time>2019-04-28T10:43:32Z</time>
      </trkpt>
      <trkpt lat="40.5351470" lon="-4.0106460">
        <ele>860.6</ele>
        <time>2019-04-28T10:43:33Z</time>
      </trkpt>
      <trkpt lat="40.5350870" lon="-4.0106760">
        <ele>860.4</ele>
        <time>2019-04-28T10:43:34Z</time>
      </trkpt>
      <trkpt lat="40.5350270" lon="-4.0107020">
        <ele>860.8</ele>
        <time>2019-04-28T10:43:35Z</time>
      </trkpt>
      <trkpt lat="40.5349650" lon="-4.0107230">
        <ele>860.8</ele>
        <time>2019-04-28T10:43:36Z</time>
      </trkpt>
      <trkpt lat="40.5349030" lon="-4.0107450">
        <ele>861.0</ele>
        <time>2019-04-28T10:43:37Z</time>
      </trkpt>
      <trkpt lat="40.5348400" lon="-4.0107690">
        <ele>860.8</ele>
        <time>2019-04-28T10:43:38Z</time>
      </trkpt>
      <trkpt lat="40.5347770" lon="-4.0107910">
        <ele>860.8</ele>
        <time>2019-04-28T10:43:39Z</time>
      </trkpt>
      <trkpt lat="40.5347130" lon="-4.0108120">
        <ele>860.8</ele>
        <time>2019-04-28T10:43:40Z</time>
      </trkpt>
      <trkpt lat="40.5346490" lon="-4.0108280">
        <ele>860.8</ele>
        <time>2019-04-28T10:43:41Z</time>
      </trkpt>
      <trkpt lat="40.5345840" lon="-4.0108460">
        <ele>861.0</ele>
        <time>2019-04-28T10:43:42Z</time>
      </trkpt>
      <trkpt lat="40.5345210" lon="-4.0108630">
        <ele>860.6</ele>
        <time>2019-04-28T10:43:43Z</time>
      </trkpt>
      <trkpt lat="40.5344570" lon="-4.0108810">
        <ele>860.6</ele>
        <time>2019-04-28T10:43:44Z</time>
      </trkpt>
      <trkpt lat="40.5343930" lon="-4.0108990">
        <ele>860.8</ele>
        <time>2019-04-28T10:43:45Z</time>
      </trkpt>
      <trkpt lat="40.5343300" lon="-4.0109210">
        <ele>860.8</ele>
        <time>2019-04-28T10:43:46Z</time>
      </trkpt>
      <trkpt lat="40.5342660" lon="-4.0109410">
        <ele>860.6</ele>
        <time>2019-04-28T10:43:47Z</time>
      </trkpt>
      <trkpt lat="40.5342020" lon="-4.0109600">
        <ele>860.6</ele>
        <time>2019-04-28T10:43:48Z</time>
      </trkpt>
      <trkpt lat="40.5341380" lon="-4.0109750">
        <ele>860.6</ele>
        <time>2019-04-28T10:43:49Z</time>
      </trkpt>
      <trkpt lat="40.5340750" lon="-4.0109900">
        <ele>860.6</ele>
        <time>2019-04-28T10:43:50Z</time>
      </trkpt>
      <trkpt lat="40.5340110" lon="-4.0110010">
        <ele>860.8</ele>
        <time>2019-04-28T10:43:51Z</time>
      </trkpt>
      <trkpt lat="40.5339460" lon="-4.0110090">
        <ele>860.6</ele>
        <time>2019-04-28T10:43:52Z</time>
      </trkpt>
      <trkpt lat="40.5338810" lon="-4.0110110">
        <ele>860.4</ele>
        <time>2019-04-28T10:43:53Z</time>
      </trkpt>
      <trkpt lat="40.5338160" lon="-4.0110010">
        <ele>860.2</ele>
        <time>2019-04-28T10:43:54Z</time>
      </trkpt>
      <trkpt lat="40.5337490" lon="-4.0109890">
        <ele>860.0</ele>
        <time>2019-04-28T10:43:55Z</time>
      </trkpt>
      <trkpt lat="40.5336790" lon="-4.0109770">
        <ele>859.8</ele>
        <time>2019-04-28T10:43:56Z</time>
      </trkpt>
      <trkpt lat="40.5336070" lon="-4.0109610">
        <ele>859.6</ele>
        <time>2019-04-28T10:43:57Z</time>
      </trkpt>
      <trkpt lat="40.5335310" lon="-4.0109430">
        <ele>859.0</ele>
        <time>2019-04-28T10:43:58Z</time>
      </trkpt>
      <trkpt lat="40.5334520" lon="-4.0109210">
        <ele>858.8</ele>
        <time>2019-04-28T10:43:59Z</time>
      </trkpt>
      <trkpt lat="40.5333730" lon="-4.0108930">
        <ele>858.0</ele>
        <time>2019-04-28T10:44:00Z</time>
      </trkpt>
      <trkpt lat="40.5332920" lon="-4.0108630">
        <ele>857.6</ele>
        <time>2019-04-28T10:44:01Z</time>
      </trkpt>
      <trkpt lat="40.5332120" lon="-4.0108330">
        <ele>857.2</ele>
        <time>2019-04-28T10:44:02Z</time>
      </trkpt>
      <trkpt lat="40.5331310" lon="-4.0108010">
        <ele>857.0</ele>
        <time>2019-04-28T10:44:03Z</time>
      </trkpt>
      <trkpt lat="40.5330500" lon="-4.0107680">
        <ele>856.8</ele>
        <time>2019-04-28T10:44:04Z</time>
      </trkpt>
      <trkpt lat="40.5329690" lon="-4.0107360">
        <ele>856.6</ele>
        <time>2019-04-28T10:44:05Z</time>
      </trkpt>
      <trkpt lat="40.5328840" lon="-4.0107140">
        <ele>856.2</ele>
        <time>2019-04-28T10:44:06Z</time>
      </trkpt>
      <trkpt lat="40.5327970" lon="-4.0107050">
        <ele>856.0</ele>
        <time>2019-04-28T10:44:07Z</time>
      </trkpt>
      <trkpt lat="40.5327120" lon="-4.0107110">
        <ele>855.8</ele>
        <time>2019-04-28T10:44:08Z</time>
      </trkpt>
      <trkpt lat="40.5326290" lon="-4.0107260">
        <ele>855.4</ele>
        <time>2019-04-28T10:44:09Z</time>
      </trkpt>
      <trkpt lat="40.5325450" lon="-4.0107400">
        <ele>855.4</ele>
        <time>2019-04-28T10:44:10Z</time>
      </trkpt>
      <trkpt lat="40.5324630" lon="-4.0107550">
        <ele>855.2</ele>
        <time>2019-04-28T10:44:11Z</time>
      </trkpt>
      <trkpt lat="40.5323820" lon="-4.0107660">
        <ele>855.2</ele>
        <time>2019-04-28T10:44:12Z</time>
      </trkpt>
      <trkpt lat="40.5323010" lon="-4.0107750">
        <ele>854.8</ele>
        <time>2019-04-28T10:44:13Z</time>
      </trkpt>
      <trkpt lat="40.5322210" lon="-4.0107820">
        <ele>854.6</ele>
        <time>2019-04-28T10:44:14Z</time>
      </trkpt>
      <trkpt lat="40.5321440" lon="-4.0107840">
        <ele>854.6</ele>
        <time>2019-04-28T10:44:15Z</time>
      </trkpt>
      <trkpt lat="40.5320670" lon="-4.0107820">
        <ele>854.6</ele>
        <time>2019-04-28T10:44:16Z</time>
      </trkpt>
      <trkpt lat="40.5319870" lon="-4.0107870">
        <ele>854.6</ele>
        <time>2019-04-28T10:44:17Z</time>
      </trkpt>
      <trkpt lat="40.5319070" lon="-4.0107890">
        <ele>854.4</ele>
        <time>2019-04-28T10:44:18Z</time>
      </trkpt>
      <trkpt lat="40.5318260" lon="-4.0107900">
        <ele>854.2</ele>
        <time>2019-04-28T10:44:19Z</time>
      </trkpt>
      <trkpt lat="40.5317470" lon="-4.0107950">
        <ele>854.2</ele>
        <time>2019-04-28T10:44:20Z</time>
      </trkpt>
      <trkpt lat="40.5316650" lon="-4.0108010">
        <ele>854.2</ele>
        <time>2019-04-28T10:44:21Z</time>
      </trkpt>
      <trkpt lat="40.5315840" lon="-4.0108040">
        <ele>854.2</ele>
        <time>2019-04-28T10:44:22Z</time>
      </trkpt>
      <trkpt lat="40.5315060" lon="-4.0108030">
        <ele>854.2</ele>
        <time>2019-04-28T10:44:23Z</time>
      </trkpt>
      <trkpt lat="40.5314280" lon="-4.0107980">
        <ele>854.2</ele>
        <time>2019-04-28T10:44:24Z</time>
      </trkpt>
      <trkpt lat="40.5313520" lon="-4.0107870">
        <ele>854.2</ele>
        <time>2019-04-28T10:44:25Z</time>
      </trkpt>
      <trkpt lat="40.5312770" lon="-4.0107710">
        <ele>854.2</ele>
        <time>2019-04-28T10:44:26Z</time>
      </trkpt>
      <trkpt lat="40.5312040" lon="-4.0107520">
        <ele>854.0</ele>
        <time>2019-04-28T10:44:27Z</time>
      </trkpt>
      <trkpt lat="40.5311310" lon="-4.0107320">
        <ele>854.0</ele>
        <time>2019-04-28T10:44:28Z</time>
      </trkpt>
      <trkpt lat="40.5310600" lon="-4.0107060">
        <ele>854.0</ele>
        <time>2019-04-28T10:44:29Z</time>
      </trkpt>
      <trkpt lat="40.5309900" lon="-4.0106740">
        <ele>853.8</ele>
        <time>2019-04-28T10:44:30Z</time>
      </trkpt>
      <trkpt lat="40.5309210" lon="-4.0106380">
        <ele>853.8</ele>
        <time>2019-04-28T10:44:31Z</time>
      </trkpt>
      <trkpt lat="40.5308540" lon="-4.0106010">
        <ele>853.8</ele>
        <time>2019-04-28T10:44:32Z</time>
      </trkpt>
      <trkpt lat="40.5307850" lon="-4.0105600">
        <ele>853.8</ele>
        <time>2019-04-28T10:44:33Z</time>
      </trkpt>
      <trkpt lat="40.5307210" lon="-4.0105160">
        <ele>854.0</ele>
        <time>2019-04-28T10:44:34Z</time>
      </trkpt>
      <trkpt lat="40.5306590" lon="-4.0104670">
        <ele>854.0</ele>
        <time>2019-04-28T10:44:35Z</time>
      </trkpt>
      <trkpt lat="40.5306010" lon="-4.0104230">
        <ele>854.0</ele>
        <time>2019-04-28T10:44:36Z</time>
      </trkpt>
      <trkpt lat="40.5305440" lon="-4.0103750">
        <ele>853.8</ele>
        <time>2019-04-28T10:44:37Z</time>
      </trkpt>
      <trkpt lat="40.5304860" lon="-4.0103290">
        <ele>853.8</ele>
        <time>2019-04-28T10:44:38Z</time>
      </trkpt>
      <trkpt lat="40.5304260" lon="-4.0102830">
        <ele>853.6</ele>
        <time>2019-04-28T10:44:39Z</time>
      </trkpt>
      <trkpt lat="40.5303660" lon="-4.0102380">
        <ele>853.4</ele>
        <time>2019-04-28T10:44:40Z</time>
      </trkpt>
      <trkpt lat="40.5303050" lon="-4.0101930">
        <ele>853.2</ele>
        <time>2019-04-28T10:44:41Z</time>
      </trkpt>
      <trkpt lat="40.5302450" lon="-4.0101490">
        <ele>853.0</ele>
        <time>2019-04-28T10:44:42Z</time>
      </trkpt>
      <trkpt lat="40.5301810" lon="-4.0101090">
        <ele>852.8</ele>
        <time>2019-04-28T10:44:43Z</time>
      </trkpt>
      <trkpt lat="40.5301200" lon="-4.0100720">
        <ele>852.8</ele>
        <time>2019-04-28T10:44:44Z</time>
      </trkpt>
      <trkpt lat="40.5300570" lon="-4.0100370">
        <ele>852.6</ele>
        <time>2019-04-28T10:44:45Z</time>
      </trkpt>
      <trkpt lat="40.5299950" lon="-4.0100030">
        <ele>852.4</ele>
        <time>2019-04-28T10:44:46Z</time>
      </trkpt>
      <trkpt lat="40.5299310" lon="-4.0099740">
        <ele>852.2</ele>
        <time>2019-04-28T10:44:47Z</time>
      </trkpt>
      <trkpt lat="40.5298640" lon="-4.0099460">
        <ele>852.0</ele>
        <time>2019-04-28T10:44:48Z</time>
      </trkpt>
      <trkpt lat="40.5297960" lon="-4.0099190">
        <ele>851.8</ele>
        <time>2019-04-28T10:44:49Z</time>
      </trkpt>
      <trkpt lat="40.5297270" lon="-4.0098950">
        <ele>851.4</ele>
        <time>2019-04-28T10:44:50Z</time>
      </trkpt>
      <trkpt lat="40.5296560" lon="-4.0098720">
        <ele>851.2</ele>
        <time>2019-04-28T10:44:51Z</time>
      </trkpt>
      <trkpt lat="40.5295810" lon="-4.0098470">
        <ele>850.8</ele>
        <time>2019-04-28T10:44:52Z</time>
      </trkpt>
      <trkpt lat="40.5295080" lon="-4.0098270">
        <ele>850.6</ele>
        <time>2019-04-28T10:44:53Z</time>
      </trkpt>
      <trkpt lat="40.5294340" lon="-4.0098080">
        <ele>850.2</ele>
        <time>2019-04-28T10:44:54Z</time>
      </trkpt>
      <trkpt lat="40.5293560" lon="-4.0097910">
        <ele>849.8</ele>
        <time>2019-04-28T10:44:55Z</time>
      </trkpt>
      <trkpt lat="40.5292800" lon="-4.0097750">
        <ele>849.8</ele>
        <time>2019-04-28T10:44:56Z</time>
      </trkpt>
      <trkpt lat="40.5292060" lon="-4.0097650">
        <ele>849.8</ele>
        <time>2019-04-28T10:44:57Z</time>
      </trkpt>
      <trkpt lat="40.5291290" lon="-4.0097550">
        <ele>849.6</ele>
        <time>2019-04-28T10:44:58Z</time>
      </trkpt>
      <trkpt lat="40.5290540" lon="-4.0097460">
        <ele>849.4</ele>
        <time>2019-04-28T10:44:59Z</time>
      </trkpt>
      <trkpt lat="40.5289800" lon="-4.0097350">
        <ele>849.2</ele>
        <time>2019-04-28T10:45:00Z</time>
      </trkpt>
      <trkpt lat="40.5289070" lon="-4.0097270">
        <ele>849.4</ele>
        <time>2019-04-28T10:45:01Z</time>
      </trkpt>
      <trkpt lat="40.5288360" lon="-4.0097230">
        <ele>849.4</ele>
        <time>2019-04-28T10:45:02Z</time>
      </trkpt>
      <trkpt lat="40.5287640" lon="-4.0097230">
        <ele>849.6</ele>
        <time>2019-04-28T10:45:03Z</time>
      </trkpt>
      <trkpt lat="40.5286920" lon="-4.0097250">
        <ele>849.4</ele>
        <time>2019-04-28T10:45:04Z</time>
      </trkpt>
      <trkpt lat="40.5286210" lon="-4.0097260">
        <ele>850.0</ele>
        <time>2019-04-28T10:45:05Z</time>
      </trkpt>
      <trkpt lat="40.5285510" lon="-4.0097260">
        <ele>850.0</ele>
        <time>2019-04-28T10:45:06Z</time>
      </trkpt>
      <trkpt lat="40.5284830" lon="-4.0097240">
        <ele>850.0</ele>
        <time>2019-04-28T10:45:07Z</time>
      </trkpt>
      <trkpt lat="40.5284150" lon="-4.0097210">
        <ele>850.0</ele>
        <time>2019-04-28T10:45:08Z</time>
      </trkpt>
      <trkpt lat="40.5283480" lon="-4.0097210">
        <ele>849.6</ele>
        <time>2019-04-28T10:45:09Z</time>
      </trkpt>
      <trkpt lat="40.5282820" lon="-4.0097220">
        <ele>849.4</ele>
        <time>2019-04-28T10:45:10Z</time>
      </trkpt>
      <trkpt lat="40.5282150" lon="-4.0097210">
        <ele>849.6</ele>
        <time>2019-04-28T10:45:11Z</time>
      </trkpt>
      <trkpt lat="40.5281480" lon="-4.0097190">
        <ele>849.8</ele>
        <time>2019-04-28T10:45:12Z</time>
      </trkpt>
      <trkpt lat="40.5280800" lon="-4.0097170">
        <ele>849.6</ele>
        <time>2019-04-28T10:45:13Z</time>
      </trkpt>
      <trkpt lat="40.5280100" lon="-4.0097190">
        <ele>849.4</ele>
        <time>2019-04-28T10:45:14Z</time>
      </trkpt>
      <trkpt lat="40.5279400" lon="-4.0097200">
        <ele>849.4</ele>
        <time>2019-04-28T10:45:15Z</time>
      </trkpt>
      <trkpt lat="40.5278690" lon="-4.0097190">
        <ele>849.2</ele>
        <time>2019-04-28T10:45:16Z</time>
      </trkpt>
      <trkpt lat="40.5277980" lon="-4.0097200">
        <ele>849.0</ele>
        <time>2019-04-28T10:45:17Z</time>
      </trkpt>
      <trkpt lat="40.5277270" lon="-4.0097190">
        <ele>848.8</ele>
        <time>2019-04-28T10:45:18Z</time>
      </trkpt>
      <trkpt lat="40.5276580" lon="-4.0097150">
        <ele>848.8</ele>
        <time>2019-04-28T10:45:19Z</time>
      </trkpt>
      <trkpt lat="40.5275900" lon="-4.0097080">
        <ele>848.8</ele>
        <time>2019-04-28T10:45:20Z</time>
      </trkpt>
      <trkpt lat="40.5275270" lon="-4.0097010">
        <ele>848.6</ele>
        <time>2019-04-28T10:45:21Z</time>
      </trkpt>
      <trkpt lat="40.5274640" lon="-4.0096890">
        <ele>848.6</ele>
        <time>2019-04-28T10:45:22Z</time>
      </trkpt>
      <trkpt lat="40.5274000" lon="-4.0096660">
        <ele>848.6</ele>
        <time>2019-04-28T10:45:23Z</time>
      </trkpt>
      <trkpt lat="40.5273350" lon="-4.0096300">
        <ele>848.4</ele>
        <time>2019-04-28T10:45:24Z</time>
      </trkpt>
      <trkpt lat="40.5272680" lon="-4.0095900">
        <ele>848.0</ele>
        <time>2019-04-28T10:45:25Z</time>
      </trkpt>
      <trkpt lat="40.5271990" lon="-4.0095510">
        <ele>847.8</ele>
        <time>2019-04-28T10:45:26Z</time>
      </trkpt>
      <trkpt lat="40.5271260" lon="-4.0095180">
        <ele>847.4</ele>
        <time>2019-04-28T10:45:27Z</time>
      </trkpt>
      <trkpt lat="40.5270470" lon="-4.0094960">
        <ele>847.0</ele>
        <time>2019-04-28T10:45:28Z</time>
      </trkpt>
      <trkpt lat="40.5269650" lon="-4.0094850">
        <ele>846.6</ele>
        <time>2019-04-28T10:45:29Z</time>
      </trkpt>
      <trkpt lat="40.5268830" lon="-4.0094860">
        <ele>846.2</ele>
        <time>2019-04-28T10:45:30Z</time>
      </trkpt>
      <trkpt lat="40.5268030" lon="-4.0094930">
        <ele>845.6</ele>
        <time>2019-04-28T10:45:31Z</time>
      </trkpt>
      <trkpt lat="40.5267230" lon="-4.0095000">
        <ele>845.4</ele>
        <time>2019-04-28T10:45:32Z</time>
      </trkpt>
      <trkpt lat="40.5266430" lon="-4.0095070">
        <ele>845.4</ele>
        <time>2019-04-28T10:45:33Z</time>
      </trkpt>
      <trkpt lat="40.5265640" lon="-4.0095140">
        <ele>845.2</ele>
        <time>2019-04-28T10:45:34Z</time>
      </trkpt>
      <trkpt lat="40.5264860" lon="-4.0095220">
        <ele>845.2</ele>
        <time>2019-04-28T10:45:35Z</time>
      </trkpt>
      <trkpt lat="40.5264080" lon="-4.0095270">
        <ele>845.2</ele>
        <time>2019-04-28T10:45:36Z</time>
      </trkpt>
      <trkpt lat="40.5263320" lon="-4.0095340">
        <ele>845.0</ele>
        <time>2019-04-28T10:45:37Z</time>
      </trkpt>
      <trkpt lat="40.5262540" lon="-4.0095410">
        <ele>844.4</ele>
        <time>2019-04-28T10:45:38Z</time>
      </trkpt>
      <trkpt lat="40.5261790" lon="-4.0095500">
        <ele>844.4</ele>
        <time>2019-04-28T10:45:39Z</time>
      </trkpt>
      <trkpt lat="40.5261060" lon="-4.0095580">
        <ele>844.6</ele>
        <time>2019-04-28T10:45:40Z</time>
      </trkpt>
      <trkpt lat="40.5260340" lon="-4.0095650">
        <ele>844.4</ele>
        <time>2019-04-28T10:45:41Z</time>
      </trkpt>
      <trkpt lat="40.5259620" lon="-4.0095710">
        <ele>844.2</ele>
        <time>2019-04-28T10:45:42Z</time>
      </trkpt>
      <trkpt lat="40.5258910" lon="-4.0095770">
        <ele>844.2</ele>
        <time>2019-04-28T10:45:43Z</time>
      </trkpt>
      <trkpt lat="40.5258200" lon="-4.0095830">
        <ele>843.8</ele>
        <time>2019-04-28T10:45:44Z</time>
      </trkpt>
      <trkpt lat="40.5257490" lon="-4.0095880">
        <ele>843.6</ele>
        <time>2019-04-28T10:45:45Z</time>
      </trkpt>
      <trkpt lat="40.5256810" lon="-4.0095930">
        <ele>843.8</ele>
        <time>2019-04-28T10:45:46Z</time>
      </trkpt>
      <trkpt lat="40.5256130" lon="-4.0096010">
        <ele>843.8</ele>
        <time>2019-04-28T10:45:47Z</time>
      </trkpt>
      <trkpt lat="40.5255450" lon="-4.0096080">
        <ele>843.6</ele>
        <time>2019-04-28T10:45:48Z</time>
      </trkpt>
      <trkpt lat="40.5254750" lon="-4.0096150">
        <ele>843.6</ele>
        <time>2019-04-28T10:45:49Z</time>
      </trkpt>
      <trkpt lat="40.5254060" lon="-4.0096200">
        <ele>843.8</ele>
        <time>2019-04-28T10:45:50Z</time>
      </trkpt>
      <trkpt lat="40.5253370" lon="-4.0096220">
        <ele>843.6</ele>
        <time>2019-04-28T10:45:51Z</time>
      </trkpt>
      <trkpt lat="40.5252700" lon="-4.0096240">
        <ele>843.8</ele>
        <time>2019-04-28T10:45:52Z</time>
      </trkpt>
      <trkpt lat="40.5252020" lon="-4.0096230">
        <ele>843.6</ele>
        <time>2019-04-28T10:45:53Z</time>
      </trkpt>
      <trkpt lat="40.5251340" lon="-4.0096200">
        <ele>843.6</ele>
        <time>2019-04-28T10:45:54Z</time>
      </trkpt>
      <trkpt lat="40.5250640" lon="-4.0096120">
        <ele>843.6</ele>
        <time>2019-04-28T10:45:55Z</time>
      </trkpt>
      <trkpt lat="40.5249950" lon="-4.0096030">
        <ele>843.8</ele>
        <time>2019-04-28T10:45:56Z</time>
      </trkpt>
      <trkpt lat="40.5249290" lon="-4.0095930">
        <ele>843.8</ele>
        <time>2019-04-28T10:45:57Z</time>
      </trkpt>
      <trkpt lat="40.5248650" lon="-4.0095840">
        <ele>843.8</ele>
        <time>2019-04-28T10:45:58Z</time>
      </trkpt>
      <trkpt lat="40.5248030" lon="-4.0095710">
        <ele>843.8</ele>
        <time>2019-04-28T10:45:59Z</time>
      </trkpt>
      <trkpt lat="40.5247410" lon="-4.0095610">
        <ele>843.8</ele>
        <time>2019-04-28T10:46:00Z</time>
      </trkpt>
      <trkpt lat="40.5246780" lon="-4.0095520">
        <ele>843.8</ele>
        <time>2019-04-28T10:46:01Z</time>
      </trkpt>
      <trkpt lat="40.5246140" lon="-4.0095430">
        <ele>843.8</ele>
        <time>2019-04-28T10:46:02Z</time>
      </trkpt>
      <trkpt lat="40.5245460" lon="-4.0095410">
        <ele>844.0</ele>
        <time>2019-04-28T10:46:03Z</time>
      </trkpt>
      <trkpt lat="40.5244760" lon="-4.0095450">
        <ele>843.8</ele>
        <time>2019-04-28T10:46:04Z</time>
      </trkpt>
      <trkpt lat="40.5244040" lon="-4.0095540">
        <ele>843.6</ele>
        <time>2019-04-28T10:46:05Z</time>
      </trkpt>
      <trkpt lat="40.5243310" lon="-4.0095720">
        <ele>843.4</ele>
        <time>2019-04-28T10:46:06Z</time>
      </trkpt>
      <trkpt lat="40.5242570" lon="-4.0096000">
        <ele>843.2</ele>
        <time>2019-04-28T10:46:07Z</time>
      </trkpt>
      <trkpt lat="40.5241830" lon="-4.0096300">
        <ele>843.2</ele>
        <time>2019-04-28T10:46:08Z</time>
      </trkpt>
      <trkpt lat="40.5241100" lon="-4.0096640">
        <ele>843.2</ele>
        <time>2019-04-28T10:46:09Z</time>
      </trkpt>
      <trkpt lat="40.5240380" lon="-4.0096990">
        <ele>842.6</ele>
        <time>2019-04-28T10:46:10Z</time>
      </trkpt>
      <trkpt lat="40.5239660" lon="-4.0097340">
        <ele>842.2</ele>
        <time>2019-04-28T10:46:11Z</time>
      </trkpt>
      <trkpt lat="40.5238960" lon="-4.0097690">
        <ele>842.4</ele>
        <time>2019-04-28T10:46:12Z</time>
      </trkpt>
      <trkpt lat="40.5238280" lon="-4.0098070">
        <ele>842.0</ele>
        <time>2019-04-28T10:46:13Z</time>
      </trkpt>
      <trkpt lat="40.5237580" lon="-4.0098440">
        <ele>841.8</ele>
        <time>2019-04-28T10:46:14Z</time>
      </trkpt>
      <trkpt lat="40.5236880" lon="-4.0098770">
        <ele>841.6</ele>
        <time>2019-04-28T10:46:15Z</time>
      </trkpt>
      <trkpt lat="40.5236170" lon="-4.0099080">
        <ele>841.4</ele>
        <time>2019-04-28T10:46:16Z</time>
      </trkpt>
      <trkpt lat="40.5235470" lon="-4.0099390">
        <ele>841.2</ele>
        <time>2019-04-28T10:46:17Z</time>
      </trkpt>
      <trkpt lat="40.5234760" lon="-4.0099710">
        <ele>841.2</ele>
        <time>2019-04-28T10:46:18Z</time>
      </trkpt>
      <trkpt lat="40.5234060" lon="-4.0100020">
        <ele>840.8</ele>
        <time>2019-04-28T10:46:19Z</time>
      </trkpt>
      <trkpt lat="40.5233370" lon="-4.0100320">
        <ele>841.0</ele>
        <time>2019-04-28T10:46:20Z</time>
      </trkpt>
      <trkpt lat="40.5232700" lon="-4.0100580">
        <ele>841.2</ele>
        <time>2019-04-28T10:46:21Z</time>
      </trkpt>
      <trkpt lat="40.5232040" lon="-4.0100710">
        <ele>841.0</ele>
        <time>2019-04-28T10:46:22Z</time>
      </trkpt>
      <trkpt lat="40.5231390" lon="-4.0100690">
        <ele>840.8</ele>
        <time>2019-04-28T10:46:23Z</time>
      </trkpt>
      <trkpt lat="40.5230750" lon="-4.0100570">
        <ele>840.8</ele>
        <time>2019-04-28T10:46:24Z</time>
      </trkpt>
      <trkpt lat="40.5230120" lon="-4.0100290">
        <ele>840.6</ele>
        <time>2019-04-28T10:46:25Z</time>
      </trkpt>
      <trkpt lat="40.5229480" lon="-4.0099900">
        <ele>840.2</ele>
        <time>2019-04-28T10:46:26Z</time>
      </trkpt>
      <trkpt lat="40.5228800" lon="-4.0099430">
        <ele>839.8</ele>
        <time>2019-04-28T10:46:27Z</time>
      </trkpt>
      <trkpt lat="40.5228070" lon="-4.0098880">
        <ele>838.6</ele>
        <time>2019-04-28T10:46:28Z</time>
      </trkpt>
      <trkpt lat="40.5227280" lon="-4.0098280">
        <ele>837.8</ele>
        <time>2019-04-28T10:46:29Z</time>
      </trkpt>
      <trkpt lat="40.5226450" lon="-4.0097650">
        <ele>836.8</ele>
        <time>2019-04-28T10:46:30Z</time>
      </trkpt>
      <trkpt lat="40.5225600" lon="-4.0097020">
        <ele>836.0</ele>
        <time>2019-04-28T10:46:31Z</time>
      </trkpt>
      <trkpt lat="40.5224760" lon="-4.0096390">
        <ele>835.2</ele>
        <time>2019-04-28T10:46:32Z</time>
      </trkpt>
      <trkpt lat="40.5223920" lon="-4.0095740">
        <ele>835.2</ele>
        <time>2019-04-28T10:46:33Z</time>
      </trkpt>
      <trkpt lat="40.5223100" lon="-4.0095060">
        <ele>834.4</ele>
        <time>2019-04-28T10:46:34Z</time>
      </trkpt>
      <trkpt lat="40.5222280" lon="-4.0094350">
        <ele>833.6</ele>
        <time>2019-04-28T10:46:35Z</time>
      </trkpt>
      <trkpt lat="40.5221460" lon="-4.0093670">
        <ele>833.2</ele>
        <time>2019-04-28T10:46:36Z</time>
      </trkpt>
      <trkpt lat="40.5220670" lon="-4.0092980">
        <ele>832.8</ele>
        <time>2019-04-28T10:46:37Z</time>
      </trkpt>
      <trkpt lat="40.5219880" lon="-4.0092300">
        <ele>832.6</ele>
        <time>2019-04-28T10:46:38Z</time>
      </trkpt>
      <trkpt lat="40.5219140" lon="-4.0091580">
        <ele>832.4</ele>
        <time>2019-04-28T10:46:39Z</time>
      </trkpt>
      <trkpt lat="40.5218400" lon="-4.0090840">
        <ele>832.0</ele>
        <time>2019-04-28T10:46:40Z</time>
      </trkpt>
      <trkpt lat="40.5217660" lon="-4.0090150">
        <ele>832.0</ele>
        <time>2019-04-28T10:46:41Z</time>
      </trkpt>
      <trkpt lat="40.5216940" lon="-4.0089450">
        <ele>831.8</ele>
        <time>2019-04-28T10:46:42Z</time>
      </trkpt>
      <trkpt lat="40.5216250" lon="-4.0088670">
        <ele>831.4</ele>
        <time>2019-04-28T10:46:43Z</time>
      </trkpt>
      <trkpt lat="40.5215570" lon="-4.0087860">
        <ele>831.4</ele>
        <time>2019-04-28T10:46:44Z</time>
      </trkpt>
      <trkpt lat="40.5214890" lon="-4.0086990">
        <ele>831.2</ele>
        <time>2019-04-28T10:46:45Z</time>
      </trkpt>
      <trkpt lat="40.5214220" lon="-4.0086090">
        <ele>831.0</ele>
        <time>2019-04-28T10:46:46Z</time>
      </trkpt>
      <trkpt lat="40.5213580" lon="-4.0085150">
        <ele>830.6</ele>
        <time>2019-04-28T10:46:47Z</time>
      </trkpt>
      <trkpt lat="40.5212960" lon="-4.0084180">
        <ele>829.8</ele>
        <time>2019-04-28T10:46:48Z</time>
      </trkpt>
      <trkpt lat="40.5212370" lon="-4.0083200">
        <ele>829.2</ele>
        <time>2019-04-28T10:46:49Z</time>
      </trkpt>
      <trkpt lat="40.5211800" lon="-4.0082200">
        <ele>828.8</ele>
        <time>2019-04-28T10:46:50Z</time>
      </trkpt>
      <trkpt lat="40.5211180" lon="-4.0081250">
        <ele>828.4</ele>
        <time>2019-04-28T10:46:51Z</time>
      </trkpt>
      <trkpt lat="40.5210500" lon="-4.0080380">
        <ele>828.2</ele>
        <time>2019-04-28T10:46:52Z</time>
      </trkpt>
      <trkpt lat="40.5209780" lon="-4.0079570">
        <ele>827.8</ele>
        <time>2019-04-28T10:46:53Z</time>
      </trkpt>
      <trkpt lat="40.5209010" lon="-4.0078770">
        <ele>827.0</ele>
        <time>2019-04-28T10:46:54Z</time>
      </trkpt>
      <trkpt lat="40.5208220" lon="-4.0078010">
        <ele>826.8</ele>
        <time>2019-04-28T10:46:55Z</time>
      </trkpt>
      <trkpt lat="40.5207400" lon="-4.0077280">
        <ele>826.4</ele>
        <time>2019-04-28T10:46:56Z</time>
      </trkpt>
      <trkpt lat="40.5206600" lon="-4.0076580">
        <ele>825.8</ele>
        <time>2019-04-28T10:46:57Z</time>
      </trkpt>
      <trkpt lat="40.5205830" lon="-4.0075920">
        <ele>825.0</ele>
        <time>2019-04-28T10:46:58Z</time>
      </trkpt>
      <trkpt lat="40.5205070" lon="-4.0075270">
        <ele>825.0</ele>
        <time>2019-04-28T10:46:59Z</time>
      </trkpt>
      <trkpt lat="40.5204300" lon="-4.0074620">
        <ele>824.2</ele>
        <time>2019-04-28T10:47:00Z</time>
      </trkpt>
      <trkpt lat="40.5203540" lon="-4.0073960">
        <ele>823.8</ele>
        <time>2019-04-28T10:47:01Z</time>
      </trkpt>
      <trkpt lat="40.5202770" lon="-4.0073320">
        <ele>823.8</ele>
        <time>2019-04-28T10:47:02Z</time>
      </trkpt>
      <trkpt lat="40.5201980" lon="-4.0072710">
        <ele>823.4</ele>
        <time>2019-04-28T10:47:03Z</time>
      </trkpt>
      <trkpt lat="40.5201170" lon="-4.0072080">
        <ele>822.8</ele>
        <time>2019-04-28T10:47:04Z</time>
      </trkpt>
      <trkpt lat="40.5200340" lon="-4.0071520">
        <ele>822.6</ele>
        <time>2019-04-28T10:47:05Z</time>
      </trkpt>
      <trkpt lat="40.5199500" lon="-4.0070980">
        <ele>822.8</ele>
        <time>2019-04-28T10:47:06Z</time>
      </trkpt>
      <trkpt lat="40.5198650" lon="-4.0070430">
        <ele>822.6</ele>
        <time>2019-04-28T10:47:07Z</time>
      </trkpt>
      <trkpt lat="40.5197800" lon="-4.0069940">
        <ele>822.2</ele>
        <time>2019-04-28T10:47:08Z</time>
      </trkpt>
      <trkpt lat="40.5196940" lon="-4.0069500">
        <ele>821.8</ele>
        <time>2019-04-28T10:47:09Z</time>
      </trkpt>
      <trkpt lat="40.5196100" lon="-4.0069140">
        <ele>821.4</ele>
        <time>2019-04-28T10:47:10Z</time>
      </trkpt>
      <trkpt lat="40.5195240" lon="-4.0068800">
        <ele>821.0</ele>
        <time>2019-04-28T10:47:11Z</time>
      </trkpt>
      <trkpt lat="40.5194410" lon="-4.0068390">
        <ele>820.8</ele>
        <time>2019-04-28T10:47:12Z</time>
      </trkpt>
      <trkpt lat="40.5193610" lon="-4.0067920">
        <ele>820.6</ele>
        <time>2019-04-28T10:47:13Z</time>
      </trkpt>
      <trkpt lat="40.5192870" lon="-4.0067320">
        <ele>820.4</ele>
        <time>2019-04-28T10:47:14Z</time>
      </trkpt>
      <trkpt lat="40.5192160" lon="-4.0066600">
        <ele>820.2</ele>
        <time>2019-04-28T10:47:15Z</time>
      </trkpt>
      <trkpt lat="40.5191500" lon="-4.0065760">
        <ele>819.6</ele>
        <time>2019-04-28T10:47:16Z</time>
      </trkpt>
      <trkpt lat="40.5190870" lon="-4.0064810">
        <ele>819.0</ele>
        <time>2019-04-28T10:47:17Z</time>
      </trkpt>
      <trkpt lat="40.5190260" lon="-4.0063770">
        <ele>818.4</ele>
        <time>2019-04-28T10:47:18Z</time>
      </trkpt>
      <trkpt lat="40.5189650" lon="-4.0062650">
        <ele>817.8</ele>
        <time>2019-04-28T10:47:19Z</time>
      </trkpt>
      <trkpt lat="40.5189050" lon="-4.0061500">
        <ele>816.6</ele>
        <time>2019-04-28T10:47:20Z</time>
      </trkpt>
      <trkpt lat="40.5188460" lon="-4.0060310">
        <ele>815.8</ele>
        <time>2019-04-28T10:47:21Z</time>
      </trkpt>
      <trkpt lat="40.5187850" lon="-4.0059110">
        <ele>815.4</ele>
        <time>2019-04-28T10:47:22Z</time>
      </trkpt>
      <trkpt lat="40.5187270" lon="-4.0057920">
        <ele>814.8</ele>
        <time>2019-04-28T10:47:23Z</time>
      </trkpt>
      <trkpt lat="40.5186740" lon="-4.0056750">
        <ele>814.0</ele>
        <time>2019-04-28T10:47:24Z</time>
      </trkpt>
      <trkpt lat="40.5186270" lon="-4.0055610">
        <ele>813.6</ele>
        <time>2019-04-28T10:47:25Z</time>
      </trkpt>
      <trkpt lat="40.5185850" lon="-4.0054570">
        <ele>813.0</ele>
        <time>2019-04-28T10:47:26Z</time>
      </trkpt>
      <trkpt lat="40.5185470" lon="-4.0053630">
        <ele>812.8</ele>
        <time>2019-04-28T10:47:27Z</time>
      </trkpt>
      <trkpt lat="40.5185060" lon="-4.0052800">
        <ele>812.4</ele>
        <time>2019-04-28T10:47:28Z</time>
      </trkpt>
      <trkpt lat="40.5184550" lon="-4.0052160">
        <ele>812.2</ele>
        <time>2019-04-28T10:47:29Z</time>
      </trkpt>
      <trkpt lat="40.5183930" lon="-4.0051740">
        <ele>811.6</ele>
        <time>2019-04-28T10:47:30Z</time>
      </trkpt>
      <trkpt lat="40.5183200" lon="-4.0051550">
        <ele>811.2</ele>
        <time>2019-04-28T10:47:31Z</time>
      </trkpt>
      <trkpt lat="40.5182420" lon="-4.0051630">
        <ele>810.6</ele>
        <time>2019-04-28T10:47:32Z</time>
      </trkpt>
      <trkpt lat="40.5181660" lon="-4.0051980">
        <ele>809.6</ele>
        <time>2019-04-28T10:47:33Z</time>
      </trkpt>
      <trkpt lat="40.5180910" lon="-4.0052510">
        <ele>808.8</ele>
        <time>2019-04-28T10:47:34Z</time>
      </trkpt>
      <trkpt lat="40.5180130" lon="-4.0053130">
        <ele>808.2</ele>
        <time>2019-04-28T10:47:35Z</time>
      </trkpt>
      <trkpt lat="40.5179320" lon="-4.0053760">
        <ele>807.2</ele>
        <time>2019-04-28T10:47:36Z</time>
      </trkpt>
      <trkpt lat="40.5178460" lon="-4.0054400">
        <ele>806.6</ele>
        <time>2019-04-28T10:47:37Z</time>
      </trkpt>
      <trkpt lat="40.5177530" lon="-4.0055040">
        <ele>805.6</ele>
        <time>2019-04-28T10:47:38Z</time>
      </trkpt>
      <trkpt lat="40.5176530" lon="-4.0055640">
        <ele>804.6</ele>
        <time>2019-04-28T10:47:39Z</time>
      </trkpt>
      <trkpt lat="40.5175490" lon="-4.0056260">
        <ele>802.8</ele>
        <time>2019-04-28T10:47:40Z</time>
      </trkpt>
      <trkpt lat="40.5174420" lon="-4.0056960">
        <ele>802.0</ele>
        <time>2019-04-28T10:47:41Z</time>
      </trkpt>
      <trkpt lat="40.5173330" lon="-4.0057700">
        <ele>800.6</ele>
        <time>2019-04-28T10:47:42Z</time>
      </trkpt>
      <trkpt lat="40.5172210" lon="-4.0058450">
        <ele>800.2</ele>
        <time>2019-04-28T10:47:43Z</time>
      </trkpt>
      <trkpt lat="40.5171110" lon="-4.0059080">
        <ele>799.4</ele>
        <time>2019-04-28T10:47:44Z</time>
      </trkpt>
      <trkpt lat="40.5170020" lon="-4.0059480">
        <ele>798.6</ele>
        <time>2019-04-28T10:47:45Z</time>
      </trkpt>
      <trkpt lat="40.5168920" lon="-4.0059600">
        <ele>797.8</ele>
        <time>2019-04-28T10:47:46Z</time>
      </trkpt>
      <trkpt lat="40.5167840" lon="-4.0059450">
        <ele>797.4</ele>
        <time>2019-04-28T10:47:47Z</time>
      </trkpt>
      <trkpt lat="40.5166730" lon="-4.0059170">
        <ele>796.8</ele>
        <time>2019-04-28T10:47:48Z</time>
      </trkpt>
      <trkpt lat="40.5165620" lon="-4.0058840">
        <ele>796.0</ele>
        <time>2019-04-28T10:47:49Z</time>
      </trkpt>
      <trkpt lat="40.5164480" lon="-4.0058530">
        <ele>795.2</ele>
        <time>2019-04-28T10:47:50Z</time>
      </trkpt>
      <trkpt lat="40.5163320" lon="-4.0058220">
        <ele>794.6</ele>
        <time>2019-04-28T10:47:51Z</time>
      </trkpt>
      <trkpt lat="40.5162160" lon="-4.0057870">
        <ele>794.0</ele>
        <time>2019-04-28T10:47:52Z</time>
      </trkpt>
      <trkpt lat="40.5161030" lon="-4.0057410">
        <ele>793.4</ele>
        <time>2019-04-28T10:47:53Z</time>
      </trkpt>
      <trkpt lat="40.5159940" lon="-4.0056850">
        <ele>793.0</ele>
        <time>2019-04-28T10:47:54Z</time>
      </trkpt>
      <trkpt lat="40.5158850" lon="-4.0056230">
        <ele>792.2</ele>
        <time>2019-04-28T10:47:55Z</time>
      </trkpt>
      <trkpt lat="40.5157740" lon="-4.0055690">
        <ele>791.4</ele>
        <time>2019-04-28T10:47:56Z</time>
      </trkpt>
      <trkpt lat="40.5156600" lon="-4.0055200">
        <ele>790.8</ele>
        <time>2019-04-28T10:47:57Z</time>
      </trkpt>
      <trkpt lat="40.5155470" lon="-4.0054780">
        <ele>789.8</ele>
        <time>2019-04-28T10:47:58Z</time>
      </trkpt>
      <trkpt lat="40.5154390" lon="-4.0054290">
        <ele>789.2</ele>
        <time>2019-04-28T10:47:59Z</time>
      </trkpt>
      <trkpt lat="40.5153320" lon="-4.0053800">
        <ele>787.8</ele>
        <time>2019-04-28T10:48:00Z</time>
      </trkpt>
      <trkpt lat="40.5152240" lon="-4.0053320">
        <ele>787.0</ele>
        <time>2019-04-28T10:48:01Z</time>
      </trkpt>
      <trkpt lat="40.5151150" lon="-4.0052780">
        <ele>786.8</ele>
        <time>2019-04-28T10:48:02Z</time>
      </trkpt>
      <trkpt lat="40.5150100" lon="-4.0052120">
        <ele>785.4</ele>
        <time>2019-04-28T10:48:03Z</time>
      </trkpt>
      <trkpt lat="40.5149060" lon="-4.0051380">
        <ele>783.8</ele>
        <time>2019-04-28T10:48:04Z</time>
      </trkpt>
      <trkpt lat="40.5148020" lon="-4.0050580">
        <ele>782.6</ele>
        <time>2019-04-28T10:48:05Z</time>
      </trkpt>
      <trkpt lat="40.5147030" lon="-4.0049720">
        <ele>782.0</ele>
        <time>2019-04-28T10:48:06Z</time>
      </trkpt>
      <trkpt lat="40.5146030" lon="-4.0048940">
        <ele>781.4</ele>
        <time>2019-04-28T10:48:07Z</time>
      </trkpt>
      <trkpt lat="40.5145010" lon="-4.0048350">
        <ele>781.0</ele>
        <time>2019-04-28T10:48:08Z</time>
      </trkpt>
      <trkpt lat="40.5143960" lon="-4.0047920">
        <ele>780.6</ele>
        <time>2019-04-28T10:48:09Z</time>
      </trkpt>
      <trkpt lat="40.5142950" lon="-4.0047500">
        <ele>779.8</ele>
        <time>2019-04-28T10:48:10Z</time>
      </trkpt>
      <trkpt lat="40.5141970" lon="-4.0046980">
        <ele>779.2</ele>
        <time>2019-04-28T10:48:11Z</time>
      </trkpt>
      <trkpt lat="40.5141020" lon="-4.0046360">
        <ele>778.8</ele>
        <time>2019-04-28T10:48:12Z</time>
      </trkpt>
      <trkpt lat="40.5140130" lon="-4.0045660">
        <ele>778.6</ele>
        <time>2019-04-28T10:48:13Z</time>
      </trkpt>
      <trkpt lat="40.5139350" lon="-4.0044820">
        <ele>778.0</ele>
        <time>2019-04-28T10:48:14Z</time>
      </trkpt>
      <trkpt lat="40.5138690" lon="-4.0043850">
        <ele>777.4</ele>
        <time>2019-04-28T10:48:15Z</time>
      </trkpt>
      <trkpt lat="40.5138150" lon="-4.0042770">
        <ele>777.2</ele>
        <time>2019-04-28T10:48:16Z</time>
      </trkpt>
      <trkpt lat="40.5137610" lon="-4.0041700">
        <ele>777.0</ele>
        <time>2019-04-28T10:48:17Z</time>
      </trkpt>
      <trkpt lat="40.5136940" lon="-4.0040790">
        <ele>776.6</ele>
        <time>2019-04-28T10:48:18Z</time>
      </trkpt>
      <trkpt lat="40.5136150" lon="-4.0040090">
        <ele>776.2</ele>
        <time>2019-04-28T10:48:19Z</time>
      </trkpt>
      <trkpt lat="40.5135280" lon="-4.0039590">
        <ele>776.2</ele>
        <time>2019-04-28T10:48:20Z</time>
      </trkpt>
      <trkpt lat="40.5134520" lon="-4.0039210">
        <ele>775.4</ele>
        <time>2019-04-28T10:48:21Z</time>
      </trkpt>
      <trkpt lat="40.5133900" lon="-4.0038940">
        <ele>774.2</ele>
        <time>2019-04-28T10:48:22Z</time>
      </trkpt>
      <trkpt lat="40.5133490" lon="-4.0038680">
        <ele>773.6</ele>
        <time>2019-04-28T10:48:23Z</time>
      </trkpt>
      <trkpt lat="40.5133250" lon="-4.0038530">
        <ele>773.0</ele>
        <time>2019-04-28T10:48:24Z</time>
      </trkpt>
      <trkpt lat="40.5132650" lon="-4.0038050">
        <ele>772.8</ele>
        <time>2019-04-28T10:48:25Z</time>
      </trkpt>
      <trkpt lat="40.5132100" lon="-4.0037630">
        <ele>772.6</ele>
        <time>2019-04-28T10:48:26Z</time>
      </trkpt>
      <trkpt lat="40.5131560" lon="-4.0037210">
        <ele>772.4</ele>
        <time>2019-04-28T10:48:27Z</time>
      </trkpt>
      <trkpt lat="40.5131020" lon="-4.0036790">
        <ele>772.2</ele>
        <time>2019-04-28T10:48:28Z</time>
      </trkpt>
      <trkpt lat="40.5130480" lon="-4.0036370">
        <ele>772.2</ele>
        <time>2019-04-28T10:48:29Z</time>
      </trkpt>
      <trkpt lat="40.5129930" lon="-4.0035950">
        <ele>772.2</ele>
        <time>2019-04-28T10:48:30Z</time>
      </trkpt>
      <trkpt lat="40.5129390" lon="-4.0035530">
        <ele>772.4</ele>
        <time>2019-04-28T10:48:31Z</time>
      </trkpt>
      <trkpt lat="40.5128850" lon="-4.0035110">
        <ele>772.0</ele>
        <time>2019-04-28T10:48:32Z</time>
      </trkpt>
      <trkpt lat="40.5128300" lon="-4.0034690">
        <ele>770.0</ele>
        <time>2019-04-28T10:56:08Z</time>
      </trkpt>
      <trkpt lat="40.5127760" lon="-4.0034270">
        <ele>769.6</ele>
        <time>2019-04-28T10:56:09Z</time>
      </trkpt>
      <trkpt lat="40.5127150" lon="-4.0033790">
        <ele>769.4</ele>
        <time>2019-04-28T10:56:10Z</time>
      </trkpt>
      <trkpt lat="40.5126540" lon="-4.0033340">
        <ele>769.4</ele>
        <time>2019-04-28T10:56:11Z</time>
      </trkpt>
      <trkpt lat="40.5125910" lon="-4.0032930">
        <ele>769.4</ele>
        <time>2019-04-28T10:56:12Z</time>
      </trkpt>
      <trkpt lat="40.5125300" lon="-4.0032550">
        <ele>768.8</ele>
        <time>2019-04-28T10:56:13Z</time>
      </trkpt>
      <trkpt lat="40.5124680" lon="-4.0032210">
        <ele>768.4</ele>
        <time>2019-04-28T10:56:14Z</time>
      </trkpt>
      <trkpt lat="40.5124070" lon="-4.0031870">
        <ele>768.0</ele>
        <time>2019-04-28T10:56:15Z</time>
      </trkpt>
      <trkpt lat="40.5123510" lon="-4.0031490">
        <ele>768.0</ele>
        <time>2019-04-28T10:56:16Z</time>
      </trkpt>
      <trkpt lat="40.5122990" lon="-4.0031030">
        <ele>768.0</ele>
        <time>2019-04-28T10:56:17Z</time>
      </trkpt>
      <trkpt lat="40.5122510" lon="-4.0030500">
        <ele>767.8</ele>
        <time>2019-04-28T10:56:18Z</time>
      </trkpt>
      <trkpt lat="40.5122080" lon="-4.0029930">
        <ele>767.4</ele>
        <time>2019-04-28T10:56:19Z</time>
      </trkpt>
      <trkpt lat="40.5121670" lon="-4.0029350">
        <ele>767.0</ele>
        <time>2019-04-28T10:56:20Z</time>
      </trkpt>
      <trkpt lat="40.5121230" lon="-4.0028780">
        <ele>766.2</ele>
        <time>2019-04-28T10:56:21Z</time>
      </trkpt>
      <trkpt lat="40.5120740" lon="-4.0028260">
        <ele>765.8</ele>
        <time>2019-04-28T10:56:22Z</time>
      </trkpt>
      <trkpt lat="40.5120180" lon="-4.0027720">
        <ele>765.0</ele>
        <time>2019-04-28T10:56:23Z</time>
      </trkpt>
      <trkpt lat="40.5119550" lon="-4.0027180">
        <ele>763.8</ele>
        <time>2019-04-28T10:56:24Z</time>
      </trkpt>
      <trkpt lat="40.5118840" lon="-4.0026670">
        <ele>763.0</ele>
        <time>2019-04-28T10:56:25Z</time>
      </trkpt>
      <trkpt lat="40.5118080" lon="-4.0026220">
        <ele>762.4</ele>
        <time>2019-04-28T10:56:26Z</time>
      </trkpt>
      <trkpt lat="40.5117300" lon="-4.0025800">
        <ele>761.6</ele>
        <time>2019-04-28T10:56:27Z</time>
      </trkpt>
      <trkpt lat="40.5116560" lon="-4.0025410">
        <ele>761.0</ele>
        <time>2019-04-28T10:56:28Z</time>
      </trkpt>
      <trkpt lat="40.5115870" lon="-4.0024970">
        <ele>760.2</ele>
        <time>2019-04-28T10:56:29Z</time>
      </trkpt>
      <trkpt lat="40.5115190" lon="-4.0024510">
        <ele>759.4</ele>
        <time>2019-04-28T10:56:30Z</time>
      </trkpt>
      <trkpt lat="40.5114550" lon="-4.0023940">
        <ele>758.8</ele>
        <time>2019-04-28T10:56:31Z</time>
      </trkpt>
      <trkpt lat="40.5114030" lon="-4.0023240">
        <ele>758.4</ele>
        <time>2019-04-28T10:56:32Z</time>
      </trkpt>
      <trkpt lat="40.5113600" lon="-4.0022470">
        <ele>757.8</ele>
        <time>2019-04-28T10:56:33Z</time>
      </trkpt>
      <trkpt lat="40.5113260" lon="-4.0021620">
        <ele>757.4</ele>
        <time>2019-04-28T10:56:34Z</time>
      </trkpt>
      <trkpt lat="40.5112960" lon="-4.0020740">
        <ele>757.0</ele>
        <time>2019-04-28T10:56:35Z</time>
      </trkpt>
      <trkpt lat="40.5112580" lon="-4.0019890">
        <ele>756.6</ele>
        <time>2019-04-28T10:56:36Z</time>
      </trkpt>
      <trkpt lat="40.5112140" lon="-4.0019170">
        <ele>756.0</ele>
        <time>2019-04-28T10:56:37Z</time>
      </trkpt>
      <trkpt lat="40.5111650" lon="-4.0018630">
        <ele>755.6</ele>
        <time>2019-04-28T10:56:38Z</time>
      </trkpt>
      <trkpt lat="40.5111070" lon="-4.0018200">
        <ele>755.4</ele>
        <time>2019-04-28T10:56:39Z</time>
      </trkpt>
      <trkpt lat="40.5110440" lon="-4.0017870">
        <ele>755.0</ele>
        <time>2019-04-28T10:56:40Z</time>
      </trkpt>
      <trkpt lat="40.5109800" lon="-4.0017580">
        <ele>754.2</ele>
        <time>2019-04-28T10:56:41Z</time>
      </trkpt>
      <trkpt lat="40.5109190" lon="-4.0017290">
        <ele>754.0</ele>
        <time>2019-04-28T10:56:42Z</time>
      </trkpt>
      <trkpt lat="40.5108610" lon="-4.0016970">
        <ele>753.6</ele>
        <time>2019-04-28T10:56:43Z</time>
      </trkpt>
      <trkpt lat="40.5108050" lon="-4.0016650">
        <ele>753.4</ele>
        <time>2019-04-28T10:56:44Z</time>
      </trkpt>
      <trkpt lat="40.5107510" lon="-4.0016320">
        <ele>753.2</ele>
        <time>2019-04-28T10:56:45Z</time>
      </trkpt>
      <trkpt lat="40.5107020" lon="-4.0015940">
        <ele>752.8</ele>
        <time>2019-04-28T10:56:46Z</time>
      </trkpt>
      <trkpt lat="40.5106510" lon="-4.0015560">
        <ele>752.2</ele>
        <time>2019-04-28T10:56:47Z</time>
      </trkpt>
      <trkpt lat="40.5105990" lon="-4.0015150">
        <ele>751.8</ele>
        <time>2019-04-28T10:56:48Z</time>
      </trkpt>
      <trkpt lat="40.5105510" lon="-4.0014730">
        <ele>751.4</ele>
        <time>2019-04-28T10:56:49Z</time>
      </trkpt>
      <trkpt lat="40.5105070" lon="-4.0014250">
        <ele>751.2</ele>
        <time>2019-04-28T10:56:50Z</time>
      </trkpt>
      <trkpt lat="40.5104590" lon="-4.0013780">
        <ele>751.0</ele>
        <time>2019-04-28T10:56:51Z</time>
      </trkpt>
      <trkpt lat="40.5104100" lon="-4.0013380">
        <ele>750.6</ele>
        <time>2019-04-28T10:56:52Z</time>
      </trkpt>
      <trkpt lat="40.5103590" lon="-4.0013000">
        <ele>750.4</ele>
        <time>2019-04-28T10:56:53Z</time>
      </trkpt>
      <trkpt lat="40.5103070" lon="-4.0012610">
        <ele>750.0</ele>
        <time>2019-04-28T10:56:54Z</time>
      </trkpt>
      <trkpt lat="40.5102560" lon="-4.0012210">
        <ele>749.8</ele>
        <time>2019-04-28T10:56:55Z</time>
      </trkpt>
      <trkpt lat="40.5102070" lon="-4.0011780">
        <ele>749.8</ele>
        <time>2019-04-28T10:56:56Z</time>
      </trkpt>
      <trkpt lat="40.5101610" lon="-4.0011250">
        <ele>749.2</ele>
        <time>2019-04-28T10:56:57Z</time>
      </trkpt>
      <trkpt lat="40.5101120" lon="-4.0010670">
        <ele>748.4</ele>
        <time>2019-04-28T10:56:58Z</time>
      </trkpt>
      <trkpt lat="40.5100600" lon="-4.0010050">
        <ele>748.0</ele>
        <time>2019-04-28T10:56:59Z</time>
      </trkpt>
      <trkpt lat="40.5100020" lon="-4.0009400">
        <ele>747.4</ele>
        <time>2019-04-28T10:57:00Z</time>
      </trkpt>
      <trkpt lat="40.5099430" lon="-4.0008710">
        <ele>747.4</ele>
        <time>2019-04-28T10:57:01Z</time>
      </trkpt>
      <trkpt lat="40.5098840" lon="-4.0007980">
        <ele>746.4</ele>
        <time>2019-04-28T10:57:02Z</time>
      </trkpt>
      <trkpt lat="40.5098190" lon="-4.0007320">
        <ele>745.8</ele>
        <time>2019-04-28T10:57:03Z</time>
      </trkpt>
      <trkpt lat="40.5097470" lon="-4.0006810">
        <ele>745.2</ele>
        <time>2019-04-28T10:57:04Z</time>
      </trkpt>
      <trkpt lat="40.5096670" lon="-4.0006430">
        <ele>744.6</ele>
        <time>2019-04-28T10:57:05Z</time>
      </trkpt>
      <trkpt lat="40.5095830" lon="-4.0006160">
        <ele>743.8</ele>
        <time>2019-04-28T10:57:06Z</time>
      </trkpt>
      <trkpt lat="40.5094950" lon="-4.0005900">
        <ele>742.8</ele>
        <time>2019-04-28T10:57:07Z</time>
      </trkpt>
      <trkpt lat="40.5094030" lon="-4.0005720">
        <ele>742.6</ele>
        <time>2019-04-28T10:57:08Z</time>
      </trkpt>
      <trkpt lat="40.5093100" lon="-4.0005600">
        <ele>742.2</ele>
        <time>2019-04-28T10:57:09Z</time>
      </trkpt>
      <trkpt lat="40.5092150" lon="-4.0005500">
        <ele>741.6</ele>
        <time>2019-04-28T10:57:10Z</time>
      </trkpt>
      <trkpt lat="40.5091210" lon="-4.0005270">
        <ele>740.8</ele>
        <time>2019-04-28T10:57:11Z</time>
      </trkpt>
      <trkpt lat="40.5090230" lon="-4.0004920">
        <ele>739.4</ele>
        <time>2019-04-28T10:57:12Z</time>
      </trkpt>
      <trkpt lat="40.5089210" lon="-4.0004500">
        <ele>738.0</ele>
        <time>2019-04-28T10:57:13Z</time>
      </trkpt>
      <trkpt lat="40.5088130" lon="-4.0004120">
        <ele>736.8</ele>
        <time>2019-04-28T10:57:14Z</time>
      </trkpt>
      <trkpt lat="40.5087000" lon="-4.0003810">
        <ele>736.0</ele>
        <time>2019-04-28T10:57:15Z</time>
      </trkpt>
      <trkpt lat="40.5085860" lon="-4.0003430">
        <ele>734.2</ele>
        <time>2019-04-28T10:57:16Z</time>
      </trkpt>
      <trkpt lat="40.5084730" lon="-4.0002970">
        <ele>733.0</ele>
        <time>2019-04-28T10:57:17Z</time>
      </trkpt>
      <trkpt lat="40.5083590" lon="-4.0002520">
        <ele>732.0</ele>
        <time>2019-04-28T10:57:18Z</time>
      </trkpt>
      <trkpt lat="40.5082470" lon="-4.0002050">
        <ele>731.2</ele>
        <time>2019-04-28T10:57:19Z</time>
      </trkpt>
      <trkpt lat="40.5081350" lon="-4.0001620">
        <ele>730.0</ele>
        <time>2019-04-28T10:57:20Z</time>
      </trkpt>
      <trkpt lat="40.5080230" lon="-4.0001200">
        <ele>729.0</ele>
        <time>2019-04-28T10:57:21Z</time>
      </trkpt>
      <trkpt lat="40.5079140" lon="-4.0000750">
        <ele>728.2</ele>
        <time>2019-04-28T10:57:22Z</time>
      </trkpt>
      <trkpt lat="40.5078040" lon="-4.0000310">
        <ele>727.0</ele>
        <time>2019-04-28T10:57:23Z</time>
      </trkpt>
      <trkpt lat="40.5076970" lon="-3.9999890">
        <ele>726.2</ele>
        <time>2019-04-28T10:57:24Z</time>
      </trkpt>
      <trkpt lat="40.5075940" lon="-3.9999490">
        <ele>725.6</ele>
        <time>2019-04-28T10:57:25Z</time>
      </trkpt>
      <trkpt lat="40.5074930" lon="-3.9999060">
        <ele>724.8</ele>
        <time>2019-04-28T10:57:26Z</time>
      </trkpt>
      <trkpt lat="40.5073940" lon="-3.9998590">
        <ele>724.0</ele>
        <time>2019-04-28T10:57:27Z</time>
      </trkpt>
      <trkpt lat="40.5072990" lon="-3.9998050">
        <ele>723.4</ele>
        <time>2019-04-28T10:57:28Z</time>
      </trkpt>
      <trkpt lat="40.5072060" lon="-3.9997480">
        <ele>722.4</ele>
        <time>2019-04-28T10:57:29Z</time>
      </trkpt>
      <trkpt lat="40.5071110" lon="-3.9996930">
        <ele>722.0</ele>
        <time>2019-04-28T10:57:30Z</time>
      </trkpt>
      <trkpt lat="40.5070160" lon="-3.9996360">
        <ele>721.0</ele>
        <time>2019-04-28T10:57:31Z</time>
      </trkpt>
      <trkpt lat="40.5069230" lon="-3.9995720">
        <ele>720.0</ele>
        <time>2019-04-28T10:57:32Z</time>
      </trkpt>
      <trkpt lat="40.5068280" lon="-3.9995110">
        <ele>719.8</ele>
        <time>2019-04-28T10:57:33Z</time>
      </trkpt>
      <trkpt lat="40.5067340" lon="-3.9994510">
        <ele>718.8</ele>
        <time>2019-04-28T10:57:34Z</time>
      </trkpt>
      <trkpt lat="40.5066400" lon="-3.9993900">
        <ele>718.0</ele>
        <time>2019-04-28T10:57:35Z</time>
      </trkpt>
      <trkpt lat="40.5065470" lon="-3.9993300">
        <ele>717.0</ele>
        <time>2019-04-28T10:57:36Z</time>
      </trkpt>
      <trkpt lat="40.5064530" lon="-3.9992710">
        <ele>716.6</ele>
        <time>2019-04-28T10:57:37Z</time>
      </trkpt>
      <trkpt lat="40.5063630" lon="-3.9992030">
        <ele>715.6</ele>
        <time>2019-04-28T10:57:38Z</time>
      </trkpt>
      <trkpt lat="40.5062780" lon="-3.9991290">
        <ele>714.8</ele>
        <time>2019-04-28T10:57:39Z</time>
      </trkpt>
      <trkpt lat="40.5061970" lon="-3.9990550">
        <ele>714.0</ele>
        <time>2019-04-28T10:57:40Z</time>
      </trkpt>
      <trkpt lat="40.5061230" lon="-3.9989780">
        <ele>713.4</ele>
        <time>2019-04-28T10:57:41Z</time>
      </trkpt>
      <trkpt lat="40.5060560" lon="-3.9988950">
        <ele>712.8</ele>
        <time>2019-04-28T10:57:42Z</time>
      </trkpt>
      <trkpt lat="40.5059930" lon="-3.9988060">
        <ele>712.0</ele>
        <time>2019-04-28T10:57:43Z</time>
      </trkpt>
      <trkpt lat="40.5059320" lon="-3.9987140">
        <ele>711.6</ele>
        <time>2019-04-28T10:57:44Z</time>
      </trkpt>
      <trkpt lat="40.5058730" lon="-3.9986180">
        <ele>710.8</ele>
        <time>2019-04-28T10:57:45Z</time>
      </trkpt>
      <trkpt lat="40.5058230" lon="-3.9985110">
        <ele>710.2</ele>
        <time>2019-04-28T10:57:46Z</time>
      </trkpt>
      <trkpt lat="40.5057780" lon="-3.9983980">
        <ele>709.8</ele>
        <time>2019-04-28T10:57:47Z</time>
      </trkpt>
      <trkpt lat="40.5057350" lon="-3.9982870">
        <ele>708.8</ele>
        <time>2019-04-28T10:57:48Z</time>
      </trkpt>
      <trkpt lat="40.5056940" lon="-3.9981800">
        <ele>708.2</ele>
        <time>2019-04-28T10:57:49Z</time>
      </trkpt>
      <trkpt lat="40.5056500" lon="-3.9980780">
        <ele>707.6</ele>
        <time>2019-04-28T10:57:50Z</time>
      </trkpt>
      <trkpt lat="40.5055970" lon="-3.9979810">
        <ele>706.8</ele>
        <time>2019-04-28T10:57:51Z</time>
      </trkpt>
      <trkpt lat="40.5055390" lon="-3.9978840">
        <ele>706.2</ele>
        <time>2019-04-28T10:57:52Z</time>
      </trkpt>
      <trkpt lat="40.5054720" lon="-3.9977930">
        <ele>705.2</ele>
        <time>2019-04-28T10:57:53Z</time>
      </trkpt>
      <trkpt lat="40.5053940" lon="-3.9977080">
        <ele>704.2</ele>
        <time>2019-04-28T10:57:54Z</time>
      </trkpt>
      <trkpt lat="40.5053090" lon="-3.9976300">
        <ele>703.0</ele>
        <time>2019-04-28T10:57:55Z</time>
      </trkpt>
      <trkpt lat="40.5052190" lon="-3.9975610">
        <ele>702.6</ele>
        <time>2019-04-28T10:57:56Z</time>
      </trkpt>
      <trkpt lat="40.5051250" lon="-3.9975020">
        <ele>702.0</ele>
        <time>2019-04-28T10:57:57Z</time>
      </trkpt>
      <trkpt lat="40.5050310" lon="-3.9974470">
        <ele>701.2</ele>
        <time>2019-04-28T10:57:58Z</time>
      </trkpt>
      <trkpt lat="40.5049380" lon="-3.9973860">
        <ele>701.0</ele>
        <time>2019-04-28T10:57:59Z</time>
      </trkpt>
      <trkpt lat="40.5048520" lon="-3.9973150">
        <ele>700.0</ele>
        <time>2019-04-28T10:58:00Z</time>
      </trkpt>
      <trkpt lat="40.5047680" lon="-3.9972410">
        <ele>699.6</ele>
        <time>2019-04-28T10:58:01Z</time>
      </trkpt>
      <trkpt lat="40.5046860" lon="-3.9971640">
        <ele>699.2</ele>
        <time>2019-04-28T10:58:02Z</time>
      </trkpt>
      <trkpt lat="40.5046080" lon="-3.9970840">
        <ele>698.8</ele>
        <time>2019-04-28T10:58:03Z</time>
      </trkpt>
      <trkpt lat="40.5045340" lon="-3.9969990">
        <ele>698.4</ele>
        <time>2019-04-28T10:58:04Z</time>
      </trkpt>
      <trkpt lat="40.5044620" lon="-3.9969170">
        <ele>698.0</ele>
        <time>2019-04-28T10:58:05Z</time>
      </trkpt>
      <trkpt lat="40.5043940" lon="-3.9968270">
        <ele>697.6</ele>
        <time>2019-04-28T10:58:06Z</time>
      </trkpt>
      <trkpt lat="40.5043310" lon="-3.9967290">
        <ele>697.4</ele>
        <time>2019-04-28T10:58:07Z</time>
      </trkpt>
      <trkpt lat="40.5042730" lon="-3.9966270">
        <ele>697.4</ele>
        <time>2019-04-28T10:58:08Z</time>
      </trkpt>
      <trkpt lat="40.5042160" lon="-3.9965240">
        <ele>697.0</ele>
        <time>2019-04-28T10:58:09Z</time>
      </trkpt>
      <trkpt lat="40.5041630" lon="-3.9964160">
        <ele>696.8</ele>
        <time>2019-04-28T10:58:10Z</time>
      </trkpt>
      <trkpt lat="40.5041100" lon="-3.9963090">
        <ele>696.8</ele>
        <time>2019-04-28T10:58:11Z</time>
      </trkpt>
      <trkpt lat="40.5040550" lon="-3.9962020">
        <ele>696.2</ele>
        <time>2019-04-28T10:58:12Z</time>
      </trkpt>
      <trkpt lat="40.5040050" lon="-3.9960890">
        <ele>696.0</ele>
        <time>2019-04-28T10:58:13Z</time>
      </trkpt>
      <trkpt lat="40.5039550" lon="-3.9959780">
        <ele>695.6</ele>
        <time>2019-04-28T10:58:14Z</time>
      </trkpt>
      <trkpt lat="40.5039060" lon="-3.9958670">
        <ele>695.2</ele>
        <time>2019-04-28T10:58:15Z</time>
      </trkpt>
      <trkpt lat="40.5038600" lon="-3.9957550">
        <ele>695.2</ele>
        <time>2019-04-28T10:58:16Z</time>
      </trkpt>
      <trkpt lat="40.5038140" lon="-3.9956450">
        <ele>694.8</ele>
        <time>2019-04-28T10:58:17Z</time>
      </trkpt>
      <trkpt lat="40.5037680" lon="-3.9955370">
        <ele>694.6</ele>
        <time>2019-04-28T10:58:18Z</time>
      </trkpt>
      <trkpt lat="40.5037220" lon="-3.9954330">
        <ele>694.4</ele>
        <time>2019-04-28T10:58:19Z</time>
      </trkpt>
      <trkpt lat="40.5036740" lon="-3.9953320">
        <ele>694.4</ele>
        <time>2019-04-28T10:58:20Z</time>
      </trkpt>
      <trkpt lat="40.5036260" lon="-3.9952320">
        <ele>694.0</ele>
        <time>2019-04-28T10:58:21Z</time>
      </trkpt>
      <trkpt lat="40.5035750" lon="-3.9951360">
        <ele>693.6</ele>
        <time>2019-04-28T10:58:22Z</time>
      </trkpt>
      <trkpt lat="40.5035200" lon="-3.9950450">
        <ele>693.2</ele>
        <time>2019-04-28T10:58:23Z</time>
      </trkpt>
      <trkpt lat="40.5034620" lon="-3.9949580">
        <ele>693.0</ele>
        <time>2019-04-28T10:58:24Z</time>
      </trkpt>
      <trkpt lat="40.5033990" lon="-3.9948780">
        <ele>693.0</ele>
        <time>2019-04-28T10:58:25Z</time>
      </trkpt>
      <trkpt lat="40.5033360" lon="-3.9947990">
        <ele>692.8</ele>
        <time>2019-04-28T10:58:26Z</time>
      </trkpt>
      <trkpt lat="40.5032750" lon="-3.9947180">
        <ele>692.2</ele>
        <time>2019-04-28T10:58:27Z</time>
      </trkpt>
      <trkpt lat="40.5032150" lon="-3.9946370">
        <ele>691.8</ele>
        <time>2019-04-28T10:58:28Z</time>
      </trkpt>
      <trkpt lat="40.5031540" lon="-3.9945610">
        <ele>691.8</ele>
        <time>2019-04-28T10:58:29Z</time>
      </trkpt>
      <trkpt lat="40.5030940" lon="-3.9944880">
        <ele>691.6</ele>
        <time>2019-04-28T10:58:30Z</time>
      </trkpt>
      <trkpt lat="40.5030340" lon="-3.9944150">
        <ele>691.4</ele>
        <time>2019-04-28T10:58:31Z</time>
      </trkpt>
      <trkpt lat="40.5029750" lon="-3.9943440">
        <ele>691.2</ele>
        <time>2019-04-28T10:58:32Z</time>
      </trkpt>
      <trkpt lat="40.5029140" lon="-3.9942780">
        <ele>691.2</ele>
        <time>2019-04-28T10:58:33Z</time>
      </trkpt>
      <trkpt lat="40.5028500" lon="-3.9942180">
        <ele>691.0</ele>
        <time>2019-04-28T10:58:34Z</time>
      </trkpt>
      <trkpt lat="40.5027840" lon="-3.9941670">
        <ele>690.6</ele>
        <time>2019-04-28T10:58:35Z</time>
      </trkpt>
      <trkpt lat="40.5027120" lon="-3.9941260">
        <ele>690.4</ele>
        <time>2019-04-28T10:58:36Z</time>
      </trkpt>
      <trkpt lat="40.5026360" lon="-3.9940940">
        <ele>690.2</ele>
        <time>2019-04-28T10:58:37Z</time>
      </trkpt>
      <trkpt lat="40.5025570" lon="-3.9940700">
        <ele>690.2</ele>
        <time>2019-04-28T10:58:38Z</time>
      </trkpt>
      <trkpt lat="40.5024750" lon="-3.9940570">
        <ele>690.0</ele>
        <time>2019-04-28T10:58:39Z</time>
      </trkpt>
      <trkpt lat="40.5023920" lon="-3.9940570">
        <ele>689.8</ele>
        <time>2019-04-28T10:58:40Z</time>
      </trkpt>
      <trkpt lat="40.5023080" lon="-3.9940640">
        <ele>689.8</ele>
        <time>2019-04-28T10:58:41Z</time>
      </trkpt>
      <trkpt lat="40.5022250" lon="-3.9940680">
        <ele>689.6</ele>
        <time>2019-04-28T10:58:42Z</time>
      </trkpt>
      <trkpt lat="40.5021410" lon="-3.9940730">
        <ele>689.4</ele>
        <time>2019-04-28T10:58:43Z</time>
      </trkpt>
      <trkpt lat="40.5020560" lon="-3.9940740">
        <ele>689.4</ele>
        <time>2019-04-28T10:58:44Z</time>
      </trkpt>
      <trkpt lat="40.5019700" lon="-3.9940770">
        <ele>689.2</ele>
        <time>2019-04-28T10:58:45Z</time>
      </trkpt>
      <trkpt lat="40.5018880" lon="-3.9940800">
        <ele>689.0</ele>
        <time>2019-04-28T10:58:46Z</time>
      </trkpt>
      <trkpt lat="40.5018090" lon="-3.9940800">
        <ele>688.6</ele>
        <time>2019-04-28T10:58:47Z</time>
      </trkpt>
      <trkpt lat="40.5017330" lon="-3.9940800">
        <ele>688.4</ele>
        <time>2019-04-28T10:58:48Z</time>
      </trkpt>
      <trkpt lat="40.5016610" lon="-3.9940790">
        <ele>688.6</ele>
        <time>2019-04-28T10:58:49Z</time>
      </trkpt>
      <trkpt lat="40.5015940" lon="-3.9940770">
        <ele>688.4</ele>
        <time>2019-04-28T10:58:50Z</time>
      </trkpt>
      <trkpt lat="40.5015350" lon="-3.9940730">
        <ele>688.0</ele>
        <time>2019-04-28T10:58:51Z</time>
      </trkpt>
      <trkpt lat="40.5014840" lon="-3.9940710">
        <ele>687.4</ele>
        <time>2019-04-28T10:58:52Z</time>
      </trkpt>
      <trkpt lat="40.5014430" lon="-3.9940710">
        <ele>687.2</ele>
        <time>2019-04-28T10:58:53Z</time>
      </trkpt>
      <trkpt lat="40.5014130" lon="-3.9940710">
        <ele>687.0</ele>
        <time>2019-04-28T10:58:54Z</time>
      </trkpt>
      <trkpt lat="40.5014000" lon="-3.9940690">
        <ele>687.0</ele>
        <time>2019-04-28T10:58:55Z</time>
      </trkpt>
      <trkpt lat="40.5013960" lon="-3.9940680">
        <ele>687.0</ele>
        <time>2019-04-28T10:58:56Z</time>
      </trkpt>
      <trkpt lat="40.5013940" lon="-3.9940670">
        <ele>686.8</ele>
        <time>2019-04-28T10:58:57Z</time>
      </trkpt>
      <trkpt lat="40.5013960" lon="-3.9940670">
        <ele>686.8</ele>
        <time>2019-04-28T10:58:58Z</time>
      </trkpt>
      <trkpt lat="40.5013970" lon="-3.9940670">
        <ele>686.8</ele>
        <time>2019-04-28T10:58:59Z</time>
      </trkpt>
      <trkpt lat="40.5013970" lon="-3.9940660">
        <ele>686.8</ele>
        <time>2019-04-28T10:59:00Z</time>
      </trkpt>
      <trkpt lat="40.5013960" lon="-3.9940660">
        <ele>686.6</ele>
        <time>2019-04-28T10:59:01Z</time>
      </trkpt>
      <trkpt lat="40.5013960" lon="-3.9940650">
        <ele>686.6</ele>
        <time>2019-04-28T10:59:02Z</time>
      </trkpt>
      <trkpt lat="40.5013970" lon="-3.9940670">
        <ele>686.6</ele>
        <time>2019-04-28T10:59:03Z</time>
      </trkpt>
      <trkpt lat="40.5012650" lon="-3.9940630">
        <ele>686.4</ele>
        <time>2019-04-28T10:59:51Z</time>
      </trkpt>
      <trkpt lat="40.5012280" lon="-3.9940580">
        <ele>686.6</ele>
        <time>2019-04-28T10:59:52Z</time>
      </trkpt>
      <trkpt lat="40.5011880" lon="-3.9940540">
        <ele>686.4</ele>
        <time>2019-04-28T10:59:53Z</time>
      </trkpt>
      <trkpt lat="40.5011420" lon="-3.9940520">
        <ele>686.4</ele>
        <time>2019-04-28T10:59:54Z</time>
      </trkpt>
      <trkpt lat="40.5010930" lon="-3.9940470">
        <ele>686.2</ele>
        <time>2019-04-28T10:59:55Z</time>
      </trkpt>
      <trkpt lat="40.5010430" lon="-3.9940350">
        <ele>686.2</ele>
        <time>2019-04-28T10:59:56Z</time>
      </trkpt>
      <trkpt lat="40.5009920" lon="-3.9940210">
        <ele>686.2</ele>
        <time>2019-04-28T10:59:57Z</time>
      </trkpt>
      <trkpt lat="40.5009400" lon="-3.9940070">
        <ele>686.2</ele>
        <time>2019-04-28T10:59:58Z</time>
      </trkpt>
      <trkpt lat="40.5008930" lon="-3.9939900">
        <ele>686.0</ele>
        <time>2019-04-28T10:59:59Z</time>
      </trkpt>
      <trkpt lat="40.5008540" lon="-3.9939750">
        <ele>686.0</ele>
        <time>2019-04-28T11:00:00Z</time>
      </trkpt>
      <trkpt lat="40.5008270" lon="-3.9939600">
        <ele>685.6</ele>
        <time>2019-04-28T11:00:01Z</time>
      </trkpt>
      <trkpt lat="40.5008050" lon="-3.9939580">
        <ele>685.8</ele>
        <time>2019-04-28T11:00:02Z</time>
      </trkpt>
      <trkpt lat="40.5007860" lon="-3.9939560">
        <ele>685.8</ele>
        <time>2019-04-28T11:00:03Z</time>
      </trkpt>
      <trkpt lat="40.5007740" lon="-3.9939490">
        <ele>685.2</ele>
        <time>2019-04-28T11:00:04Z</time>
      </trkpt>
      <trkpt lat="40.5007710" lon="-3.9939450">
        <ele>685.4</ele>
        <time>2019-04-28T11:00:05Z</time>
      </trkpt>
      <trkpt lat="40.5007720" lon="-3.9939430">
        <ele>685.4</ele>
        <time>2019-04-28T11:00:06Z</time>
      </trkpt>
      <trkpt lat="40.5007730" lon="-3.9939420">
        <ele>685.4</ele>
        <time>2019-04-28T11:00:07Z</time>
      </trkpt>
      <trkpt lat="40.5007730" lon="-3.9939410">
        <ele>685.4</ele>
        <time>2019-04-28T11:00:08Z</time>
      </trkpt>
      <trkpt lat="40.5007730" lon="-3.9939410">
        <ele>685.4</ele>
        <time>2019-04-28T11:00:09Z</time>
      </trkpt>
      <trkpt lat="40.5007730" lon="-3.9939410">
        <ele>685.4</ele>
        <time>2019-04-28T11:00:10Z</time>
      </trkpt>
      <trkpt lat="40.5007720" lon="-3.9939420">
        <ele>685.4</ele>
        <time>2019-04-28T11:00:11Z</time>
      </trkpt>
      <trkpt lat="40.5007610" lon="-3.9939360">
        <ele>685.4</ele>
        <time>2019-04-28T11:00:12Z</time>
      </trkpt>
      <trkpt lat="40.5006110" lon="-3.9938700">
        <ele>685.2</ele>
        <time>2019-04-28T11:00:17Z</time>
      </trkpt>
      <trkpt lat="40.5005750" lon="-3.9938530">
        <ele>685.0</ele>
        <time>2019-04-28T11:00:18Z</time>
      </trkpt>
      <trkpt lat="40.5005380" lon="-3.9938350">
        <ele>685.0</ele>
        <time>2019-04-28T11:00:19Z</time>
      </trkpt>
      <trkpt lat="40.5005030" lon="-3.9938130">
        <ele>685.0</ele>
        <time>2019-04-28T11:00:20Z</time>
      </trkpt>
      <trkpt lat="40.5004690" lon="-3.9937880">
        <ele>684.8</ele>
        <time>2019-04-28T11:00:21Z</time>
      </trkpt>
      <trkpt lat="40.5004350" lon="-3.9937610">
        <ele>685.0</ele>
        <time>2019-04-28T11:00:22Z</time>
      </trkpt>
      <trkpt lat="40.5003970" lon="-3.9937370">
        <ele>684.8</ele>
        <time>2019-04-28T11:00:23Z</time>
      </trkpt>
      <trkpt lat="40.5003560" lon="-3.9937130">
        <ele>684.8</ele>
        <time>2019-04-28T11:00:24Z</time>
      </trkpt>
      <trkpt lat="40.5003140" lon="-3.9936860">
        <ele>684.6</ele>
        <time>2019-04-28T11:00:25Z</time>
      </trkpt>
      <trkpt lat="40.5002730" lon="-3.9936570">
        <ele>684.6</ele>
        <time>2019-04-28T11:00:26Z</time>
      </trkpt>
      <trkpt lat="40.5002320" lon="-3.9936280">
        <ele>684.6</ele>
        <time>2019-04-28T11:00:27Z</time>
      </trkpt>
      <trkpt lat="40.5001920" lon="-3.9935980">
        <ele>684.6</ele>
        <time>2019-04-28T11:00:28Z</time>
      </trkpt>
      <trkpt lat="40.5001510" lon="-3.9935680">
        <ele>684.4</ele>
        <time>2019-04-28T11:00:29Z</time>
      </trkpt>
      <trkpt lat="40.5001090" lon="-3.9935400">
        <ele>684.4</ele>
        <time>2019-04-28T11:00:30Z</time>
      </trkpt>
      <trkpt lat="40.5000670" lon="-3.9935110">
        <ele>684.2</ele>
        <time>2019-04-28T11:00:31Z</time>
      </trkpt>
      <trkpt lat="40.5000230" lon="-3.9934800">
        <ele>684.2</ele>
        <time>2019-04-28T11:00:32Z</time>
      </trkpt>
      <trkpt lat="40.4999770" lon="-3.9934500">
        <ele>684.0</ele>
        <time>2019-04-28T11:00:33Z</time>
      </trkpt>
      <trkpt lat="40.4999290" lon="-3.9934200">
        <ele>684.0</ele>
        <time>2019-04-28T11:00:34Z</time>
      </trkpt>
      <trkpt lat="40.4998800" lon="-3.9933860">
        <ele>683.8</ele>
        <time>2019-04-28T11:00:35Z</time>
      </trkpt>
      <trkpt lat="40.4998310" lon="-3.9933470">
        <ele>683.8</ele>
        <time>2019-04-28T11:00:36Z</time>
      </trkpt>
      <trkpt lat="40.4997790" lon="-3.9933110">
        <ele>683.6</ele>
        <time>2019-04-28T11:00:37Z</time>
      </trkpt>
      <trkpt lat="40.4997250" lon="-3.9932760">
        <ele>683.6</ele>
        <time>2019-04-28T11:00:38Z</time>
      </trkpt>
      <trkpt lat="40.4996700" lon="-3.9932390">
        <ele>683.6</ele>
        <time>2019-04-28T11:00:39Z</time>
      </trkpt>
      <trkpt lat="40.4996140" lon="-3.9932020">
        <ele>683.6</ele>
        <time>2019-04-28T11:00:40Z</time>
      </trkpt>
      <trkpt lat="40.4995590" lon="-3.9931610">
        <ele>683.4</ele>
        <time>2019-04-28T11:00:41Z</time>
      </trkpt>
      <trkpt lat="40.4995040" lon="-3.9931180">
        <ele>683.4</ele>
        <time>2019-04-28T11:00:42Z</time>
      </trkpt>
      <trkpt lat="40.4994510" lon="-3.9930740">
        <ele>683.4</ele>
        <time>2019-04-28T11:00:43Z</time>
      </trkpt>
      <trkpt lat="40.4993960" lon="-3.9930330">
        <ele>683.2</ele>
        <time>2019-04-28T11:00:44Z</time>
      </trkpt>
      <trkpt lat="40.4993380" lon="-3.9929980">
        <ele>683.0</ele>
        <time>2019-04-28T11:00:45Z</time>
      </trkpt>
      <trkpt lat="40.4992800" lon="-3.9929620">
        <ele>683.0</ele>
        <time>2019-04-28T11:00:46Z</time>
      </trkpt>
      <trkpt lat="40.4992220" lon="-3.9929270">
        <ele>683.0</ele>
        <time>2019-04-28T11:00:47Z</time>
      </trkpt>
      <trkpt lat="40.4991620" lon="-3.9928940">
        <ele>682.8</ele>
        <time>2019-04-28T11:00:48Z</time>
      </trkpt>
      <trkpt lat="40.4991000" lon="-3.9928630">
        <ele>682.8</ele>
        <time>2019-04-28T11:00:49Z</time>
      </trkpt>
      <trkpt lat="40.4990380" lon="-3.9928360">
        <ele>682.6</ele>
        <time>2019-04-28T11:00:50Z</time>
      </trkpt>
      <trkpt lat="40.4989760" lon="-3.9928170">
        <ele>682.4</ele>
        <time>2019-04-28T11:00:51Z</time>
      </trkpt>
      <trkpt lat="40.4989160" lon="-3.9927970">
        <ele>682.4</ele>
        <time>2019-04-28T11:00:52Z</time>
      </trkpt>
      <trkpt lat="40.4988570" lon="-3.9927780">
        <ele>682.4</ele>
        <time>2019-04-28T11:00:53Z</time>
      </trkpt>
      <trkpt lat="40.4988000" lon="-3.9927570">
        <ele>682.2</ele>
        <time>2019-04-28T11:00:54Z</time>
      </trkpt>
      <trkpt lat="40.4987480" lon="-3.9927360">
        <ele>682.2</ele>
        <time>2019-04-28T11:00:55Z</time>
      </trkpt>
      <trkpt lat="40.4987010" lon="-3.9927180">
        <ele>682.0</ele>
        <time>2019-04-28T11:00:56Z</time>
      </trkpt>
      <trkpt lat="40.4986550" lon="-3.9927030">
        <ele>681.8</ele>
        <time>2019-04-28T11:00:57Z</time>
      </trkpt>
      <trkpt lat="40.4986110" lon="-3.9926870">
        <ele>681.8</ele>
        <time>2019-04-28T11:00:58Z</time>
      </trkpt>
      <trkpt lat="40.4985690" lon="-3.9926690">
        <ele>681.6</ele>
        <time>2019-04-28T11:00:59Z</time>
      </trkpt>
      <trkpt lat="40.4985250" lon="-3.9926520">
        <ele>681.6</ele>
        <time>2019-04-28T11:01:00Z</time>
      </trkpt>
      <trkpt lat="40.4984820" lon="-3.9926390">
        <ele>681.4</ele>
        <time>2019-04-28T11:01:01Z</time>
      </trkpt>
      <trkpt lat="40.4984380" lon="-3.9926270">
        <ele>681.4</ele>
        <time>2019-04-28T11:01:02Z</time>
      </trkpt>
      <trkpt lat="40.4983950" lon="-3.9926150">
        <ele>681.4</ele>
        <time>2019-04-28T11:01:03Z</time>
      </trkpt>
      <trkpt lat="40.4983520" lon="-3.9925990">
        <ele>681.2</ele>
        <time>2019-04-28T11:01:04Z</time>
      </trkpt>
      <trkpt lat="40.4983100" lon="-3.9925800">
        <ele>681.0</ele>
        <time>2019-04-28T11:01:05Z</time>
      </trkpt>
      <trkpt lat="40.4982670" lon="-3.9925650">
        <ele>681.2</ele>
        <time>2019-04-28T11:01:06Z</time>
      </trkpt>
      <trkpt lat="40.4982240" lon="-3.9925520">
        <ele>681.2</ele>
        <time>2019-04-28T11:01:07Z</time>
      </trkpt>
      <trkpt lat="40.4981830" lon="-3.9925330">
        <ele>681.0</ele>
        <time>2019-04-28T11:01:08Z</time>
      </trkpt>
      <trkpt lat="40.4981400" lon="-3.9925150">
        <ele>681.0</ele>
        <time>2019-04-28T11:01:09Z</time>
      </trkpt>
      <trkpt lat="40.4980980" lon="-3.9924980">
        <ele>681.0</ele>
        <time>2019-04-28T11:01:10Z</time>
      </trkpt>
      <trkpt lat="40.4980560" lon="-3.9924790">
        <ele>680.8</ele>
        <time>2019-04-28T11:01:11Z</time>
      </trkpt>
      <trkpt lat="40.4980140" lon="-3.9924590">
        <ele>680.8</ele>
        <time>2019-04-28T11:01:12Z</time>
      </trkpt>
      <trkpt lat="40.4979710" lon="-3.9924370">
        <ele>680.8</ele>
        <time>2019-04-28T11:01:13Z</time>
      </trkpt>
      <trkpt lat="40.4979250" lon="-3.9924150">
        <ele>680.8</ele>
        <time>2019-04-28T11:01:14Z</time>
      </trkpt>
      <trkpt lat="40.4978780" lon="-3.9923940">
        <ele>680.8</ele>
        <time>2019-04-28T11:01:15Z</time>
      </trkpt>
      <trkpt lat="40.4978310" lon="-3.9923730">
        <ele>680.6</ele>
        <time>2019-04-28T11:01:16Z</time>
      </trkpt>
      <trkpt lat="40.4977840" lon="-3.9923490">
        <ele>680.6</ele>
        <time>2019-04-28T11:01:17Z</time>
      </trkpt>
      <trkpt lat="40.4977370" lon="-3.9923270">
        <ele>680.6</ele>
        <time>2019-04-28T11:01:18Z</time>
      </trkpt>
      <trkpt lat="40.4976920" lon="-3.9923060">
        <ele>680.6</ele>
        <time>2019-04-28T11:01:19Z</time>
      </trkpt>
      <trkpt lat="40.4976460" lon="-3.9922880">
        <ele>680.4</ele>
        <time>2019-04-28T11:01:20Z</time>
      </trkpt>
      <trkpt lat="40.4975990" lon="-3.9922720">
        <ele>680.4</ele>
        <time>2019-04-28T11:01:21Z</time>
      </trkpt>
      <trkpt lat="40.4975520" lon="-3.9922540">
        <ele>680.2</ele>
        <time>2019-04-28T11:01:22Z</time>
      </trkpt>
      <trkpt lat="40.4975050" lon="-3.9922340">
        <ele>680.2</ele>
        <time>2019-04-28T11:01:23Z</time>
      </trkpt>
      <trkpt lat="40.4974560" lon="-3.9922130">
        <ele>680.2</ele>
        <time>2019-04-28T11:01:24Z</time>
      </trkpt>
      <trkpt lat="40.4974070" lon="-3.9921900">
        <ele>680.2</ele>
        <time>2019-04-28T11:01:25Z</time>
      </trkpt>
      <trkpt lat="40.4973560" lon="-3.9921690">
        <ele>680.2</ele>
        <time>2019-04-28T11:01:26Z</time>
      </trkpt>
      <trkpt lat="40.4973030" lon="-3.9921470">
        <ele>680.0</ele>
        <time>2019-04-28T11:01:27Z</time>
      </trkpt>
      <trkpt lat="40.4972500" lon="-3.9921270">
        <ele>680.0</ele>
        <time>2019-04-28T11:01:28Z</time>
      </trkpt>
      <trkpt lat="40.4971960" lon="-3.9921100">
        <ele>679.8</ele>
        <time>2019-04-28T11:01:29Z</time>
      </trkpt>
      <trkpt lat="40.4971420" lon="-3.9920930">
        <ele>680.0</ele>
        <time>2019-04-28T11:01:30Z</time>
      </trkpt>
      <trkpt lat="40.4970880" lon="-3.9920730">
        <ele>680.0</ele>
        <time>2019-04-28T11:01:31Z</time>
      </trkpt>
      <trkpt lat="40.4970310" lon="-3.9920610">
        <ele>679.8</ele>
        <time>2019-04-28T11:01:32Z</time>
      </trkpt>
      <trkpt lat="40.4969740" lon="-3.9920530">
        <ele>680.0</ele>
        <time>2019-04-28T11:01:33Z</time>
      </trkpt>
      <trkpt lat="40.4969170" lon="-3.9920370">
        <ele>680.0</ele>
        <time>2019-04-28T11:01:34Z</time>
      </trkpt>
      <trkpt lat="40.4968620" lon="-3.9920190">
        <ele>679.8</ele>
        <time>2019-04-28T11:01:35Z</time>
      </trkpt>
      <trkpt lat="40.4968050" lon="-3.9920050">
        <ele>680.0</ele>
        <time>2019-04-28T11:01:36Z</time>
      </trkpt>
      <trkpt lat="40.4967460" lon="-3.9919870">
        <ele>680.0</ele>
        <time>2019-04-28T11:01:37Z</time>
      </trkpt>
      <trkpt lat="40.4966870" lon="-3.9919690">
        <ele>679.8</ele>
        <time>2019-04-28T11:01:38Z</time>
      </trkpt>
      <trkpt lat="40.4966280" lon="-3.9919500">
        <ele>679.8</ele>
        <time>2019-04-28T11:01:39Z</time>
      </trkpt>
      <trkpt lat="40.4965670" lon="-3.9919300">
        <ele>679.8</ele>
        <time>2019-04-28T11:01:40Z</time>
      </trkpt>
      <trkpt lat="40.4965060" lon="-3.9919120">
        <ele>679.6</ele>
        <time>2019-04-28T11:01:41Z</time>
      </trkpt>
      <trkpt lat="40.4964430" lon="-3.9918970">
        <ele>679.6</ele>
        <time>2019-04-28T11:01:42Z</time>
      </trkpt>
      <trkpt lat="40.4963770" lon="-3.9918800">
        <ele>679.6</ele>
        <time>2019-04-28T11:01:43Z</time>
      </trkpt>
      <trkpt lat="40.4963100" lon="-3.9918620">
        <ele>679.6</ele>
        <time>2019-04-28T11:01:44Z</time>
      </trkpt>
      <trkpt lat="40.4962440" lon="-3.9918390">
        <ele>679.6</ele>
        <time>2019-04-28T11:01:45Z</time>
      </trkpt>
      <trkpt lat="40.4961770" lon="-3.9918110">
        <ele>679.6</ele>
        <time>2019-04-28T11:01:46Z</time>
      </trkpt>
      <trkpt lat="40.4961100" lon="-3.9917760">
        <ele>679.6</ele>
        <time>2019-04-28T11:01:47Z</time>
      </trkpt>
      <trkpt lat="40.4960420" lon="-3.9917370">
        <ele>679.4</ele>
        <time>2019-04-28T11:01:48Z</time>
      </trkpt>
      <trkpt lat="40.4959740" lon="-3.9916940">
        <ele>679.4</ele>
        <time>2019-04-28T11:01:49Z</time>
      </trkpt>
      <trkpt lat="40.4959070" lon="-3.9916480">
        <ele>679.2</ele>
        <time>2019-04-28T11:01:50Z</time>
      </trkpt>
      <trkpt lat="40.4958390" lon="-3.9916000">
        <ele>679.4</ele>
        <time>2019-04-28T11:01:51Z</time>
      </trkpt>
      <trkpt lat="40.4957710" lon="-3.9915520">
        <ele>679.2</ele>
        <time>2019-04-28T11:01:52Z</time>
      </trkpt>
      <trkpt lat="40.4957030" lon="-3.9915060">
        <ele>679.2</ele>
        <time>2019-04-28T11:01:53Z</time>
      </trkpt>
      <trkpt lat="40.4956390" lon="-3.9914600">
        <ele>679.0</ele>
        <time>2019-04-28T11:01:54Z</time>
      </trkpt>
      <trkpt lat="40.4955800" lon="-3.9914160">
        <ele>679.0</ele>
        <time>2019-04-28T11:01:55Z</time>
      </trkpt>
      <trkpt lat="40.4955230" lon="-3.9913730">
        <ele>679.0</ele>
        <time>2019-04-28T11:01:56Z</time>
      </trkpt>
      <trkpt lat="40.4954670" lon="-3.9913320">
        <ele>678.8</ele>
        <time>2019-04-28T11:01:57Z</time>
      </trkpt>
      <trkpt lat="40.4954120" lon="-3.9912930">
        <ele>678.8</ele>
        <time>2019-04-28T11:01:58Z</time>
      </trkpt>
      <trkpt lat="40.4953590" lon="-3.9912530">
        <ele>678.8</ele>
        <time>2019-04-28T11:01:59Z</time>
      </trkpt>
      <trkpt lat="40.4953040" lon="-3.9912120">
        <ele>678.8</ele>
        <time>2019-04-28T11:02:00Z</time>
      </trkpt>
      <trkpt lat="40.4952460" lon="-3.9911720">
        <ele>678.8</ele>
        <time>2019-04-28T11:02:01Z</time>
      </trkpt>
      <trkpt lat="40.4951860" lon="-3.9911340">
        <ele>678.6</ele>
        <time>2019-04-28T11:02:02Z</time>
      </trkpt>
      <trkpt lat="40.4951260" lon="-3.9910920">
        <ele>678.6</ele>
        <time>2019-04-28T11:02:03Z</time>
      </trkpt>
      <trkpt lat="40.4950670" lon="-3.9910440">
        <ele>678.6</ele>
        <time>2019-04-28T11:02:04Z</time>
      </trkpt>
      <trkpt lat="40.4950090" lon="-3.9909910">
        <ele>679.0</ele>
        <time>2019-04-28T11:02:05Z</time>
      </trkpt>
      <trkpt lat="40.4949490" lon="-3.9909360">
        <ele>680.0</ele>
        <time>2019-04-28T11:02:06Z</time>
      </trkpt>
      <trkpt lat="40.4948910" lon="-3.9908770">
        <ele>681.2</ele>
        <time>2019-04-28T11:02:07Z</time>
      </trkpt>
      <trkpt lat="40.4948370" lon="-3.9908120">
        <ele>679.8</ele>
        <time>2019-04-28T11:02:08Z</time>
      </trkpt>
      <trkpt lat="40.4947840" lon="-3.9907470">
        <ele>679.0</ele>
        <time>2019-04-28T11:02:09Z</time>
      </trkpt>
      <trkpt lat="40.4947290" lon="-3.9906840">
        <ele>678.6</ele>
        <time>2019-04-28T11:02:10Z</time>
      </trkpt>
      <trkpt lat="40.4946750" lon="-3.9906200">
        <ele>678.2</ele>
        <time>2019-04-28T11:02:11Z</time>
      </trkpt>
      <trkpt lat="40.4946210" lon="-3.9905550">
        <ele>678.0</ele>
        <time>2019-04-28T11:02:12Z</time>
      </trkpt>
      <trkpt lat="40.4945690" lon="-3.9904880">
        <ele>677.8</ele>
        <time>2019-04-28T11:02:13Z</time>
      </trkpt>
      <trkpt lat="40.4945150" lon="-3.9904230">
        <ele>677.8</ele>
        <time>2019-04-28T11:02:14Z</time>
      </trkpt>
      <trkpt lat="40.4944580" lon="-3.9903650">
        <ele>677.6</ele>
        <time>2019-04-28T11:02:15Z</time>
      </trkpt>
      <trkpt lat="40.4943960" lon="-3.9903140">
        <ele>677.4</ele>
        <time>2019-04-28T11:02:16Z</time>
      </trkpt>
      <trkpt lat="40.4943330" lon="-3.9902660">
        <ele>677.4</ele>
        <time>2019-04-28T11:02:17Z</time>
      </trkpt>
      <trkpt lat="40.4942690" lon="-3.9902180">
        <ele>677.4</ele>
        <time>2019-04-28T11:02:18Z</time>
      </trkpt>
      <trkpt lat="40.4942050" lon="-3.9901700">
        <ele>677.4</ele>
        <time>2019-04-28T11:02:19Z</time>
      </trkpt>
      <trkpt lat="40.4941420" lon="-3.9901230">
        <ele>677.2</ele>
        <time>2019-04-28T11:02:20Z</time>
      </trkpt>
      <trkpt lat="40.4940790" lon="-3.9900770">
        <ele>677.2</ele>
        <time>2019-04-28T11:02:21Z</time>
      </trkpt>
      <trkpt lat="40.4940160" lon="-3.9900320">
        <ele>676.8</ele>
        <time>2019-04-28T11:02:22Z</time>
      </trkpt>
      <trkpt lat="40.4939520" lon="-3.9899890">
        <ele>677.0</ele>
        <time>2019-04-28T11:02:23Z</time>
      </trkpt>
      <trkpt lat="40.4938880" lon="-3.9899460">
        <ele>677.0</ele>
        <time>2019-04-28T11:02:24Z</time>
      </trkpt>
      <trkpt lat="40.4938240" lon="-3.9899040">
        <ele>676.8</ele>
        <time>2019-04-28T11:02:25Z</time>
      </trkpt>
      <trkpt lat="40.4937580" lon="-3.9898680">
        <ele>676.8</ele>
        <time>2019-04-28T11:02:26Z</time>
      </trkpt>
      <trkpt lat="40.4936900" lon="-3.9898370">
        <ele>676.8</ele>
        <time>2019-04-28T11:02:27Z</time>
      </trkpt>
      <trkpt lat="40.4936220" lon="-3.9898040">
        <ele>676.6</ele>
        <time>2019-04-28T11:02:28Z</time>
      </trkpt>
      <trkpt lat="40.4935550" lon="-3.9897630">
        <ele>676.2</ele>
        <time>2019-04-28T11:02:29Z</time>
      </trkpt>
      <trkpt lat="40.4934910" lon="-3.9897140">
        <ele>676.2</ele>
        <time>2019-04-28T11:02:30Z</time>
      </trkpt>
      <trkpt lat="40.4934310" lon="-3.9896590">
        <ele>676.6</ele>
        <time>2019-04-28T11:02:31Z</time>
      </trkpt>
      <trkpt lat="40.4933700" lon="-3.9896050">
        <ele>676.6</ele>
        <time>2019-04-28T11:02:32Z</time>
      </trkpt>
      <trkpt lat="40.4933100" lon="-3.9895490">
        <ele>676.4</ele>
        <time>2019-04-28T11:02:33Z</time>
      </trkpt>
      <trkpt lat="40.4932500" lon="-3.9894900">
        <ele>676.2</ele>
        <time>2019-04-28T11:02:34Z</time>
      </trkpt>
      <trkpt lat="40.4931890" lon="-3.9894350">
        <ele>676.0</ele>
        <time>2019-04-28T11:02:35Z</time>
      </trkpt>
      <trkpt lat="40.4931280" lon="-3.9893780">
        <ele>675.8</ele>
        <time>2019-04-28T11:02:36Z</time>
      </trkpt>
      <trkpt lat="40.4930690" lon="-3.9893190">
        <ele>675.8</ele>
        <time>2019-04-28T11:02:37Z</time>
      </trkpt>
      <trkpt lat="40.4930130" lon="-3.9892550">
        <ele>675.6</ele>
        <time>2019-04-28T11:02:38Z</time>
      </trkpt>
      <trkpt lat="40.4929550" lon="-3.9891950">
        <ele>675.6</ele>
        <time>2019-04-28T11:02:39Z</time>
      </trkpt>
      <trkpt lat="40.4928960" lon="-3.9891380">
        <ele>675.2</ele>
        <time>2019-04-28T11:02:40Z</time>
      </trkpt>
      <trkpt lat="40.4928340" lon="-3.9890850">
        <ele>675.0</ele>
        <time>2019-04-28T11:02:41Z</time>
      </trkpt>
      <trkpt lat="40.4927700" lon="-3.9890360">
        <ele>675.0</ele>
        <time>2019-04-28T11:02:42Z</time>
      </trkpt>
      <trkpt lat="40.4927050" lon="-3.9889900">
        <ele>675.2</ele>
        <time>2019-04-28T11:02:43Z</time>
      </trkpt>
      <trkpt lat="40.4926370" lon="-3.9889520">
        <ele>675.2</ele>
        <time>2019-04-28T11:02:44Z</time>
      </trkpt>
      <trkpt lat="40.4925720" lon="-3.9889100">
        <ele>674.8</ele>
        <time>2019-04-28T11:02:45Z</time>
      </trkpt>
      <trkpt lat="40.4925070" lon="-3.9888700">
        <ele>674.8</ele>
        <time>2019-04-28T11:02:46Z</time>
      </trkpt>
      <trkpt lat="40.4924400" lon="-3.9888340">
        <ele>674.8</ele>
        <time>2019-04-28T11:02:47Z</time>
      </trkpt>
      <trkpt lat="40.4923710" lon="-3.9888050">
        <ele>674.6</ele>
        <time>2019-04-28T11:02:48Z</time>
      </trkpt>
      <trkpt lat="40.4923000" lon="-3.9887830">
        <ele>674.4</ele>
        <time>2019-04-28T11:02:49Z</time>
      </trkpt>
      <trkpt lat="40.4922270" lon="-3.9887670">
        <ele>674.4</ele>
        <time>2019-04-28T11:02:50Z</time>
      </trkpt>
      <trkpt lat="40.4921530" lon="-3.9887550">
        <ele>674.4</ele>
        <time>2019-04-28T11:02:51Z</time>
      </trkpt>
      <trkpt lat="40.4920800" lon="-3.9887410">
        <ele>674.0</ele>
        <time>2019-04-28T11:02:52Z</time>
      </trkpt>
      <trkpt lat="40.4920070" lon="-3.9887230">
        <ele>674.0</ele>
        <time>2019-04-28T11:02:53Z</time>
      </trkpt>
      <trkpt lat="40.4919350" lon="-3.9887070">
        <ele>673.8</ele>
        <time>2019-04-28T11:02:54Z</time>
      </trkpt>
      <trkpt lat="40.4918620" lon="-3.9886930">
        <ele>673.8</ele>
        <time>2019-04-28T11:02:55Z</time>
      </trkpt>
      <trkpt lat="40.4917890" lon="-3.9886800">
        <ele>673.6</ele>
        <time>2019-04-28T11:02:56Z</time>
      </trkpt>
      <trkpt lat="40.4917160" lon="-3.9886660">
        <ele>673.4</ele>
        <time>2019-04-28T11:02:57Z</time>
      </trkpt>
      <trkpt lat="40.4916420" lon="-3.9886520">
        <ele>673.4</ele>
        <time>2019-04-28T11:02:58Z</time>
      </trkpt>
      <trkpt lat="40.4915700" lon="-3.9886320">
        <ele>673.0</ele>
        <time>2019-04-28T11:02:59Z</time>
      </trkpt>
      <trkpt lat="40.4914990" lon="-3.9886090">
        <ele>672.8</ele>
        <time>2019-04-28T11:03:00Z</time>
      </trkpt>
      <trkpt lat="40.4914280" lon="-3.9885900">
        <ele>673.0</ele>
        <time>2019-04-28T11:03:01Z</time>
      </trkpt>
      <trkpt lat="40.4913560" lon="-3.9885730">
        <ele>672.6</ele>
        <time>2019-04-28T11:03:02Z</time>
      </trkpt>
      <trkpt lat="40.4912840" lon="-3.9885550">
        <ele>672.8</ele>
        <time>2019-04-28T11:03:03Z</time>
      </trkpt>
      <trkpt lat="40.4912120" lon="-3.9885330">
        <ele>672.6</ele>
        <time>2019-04-28T11:03:04Z</time>
      </trkpt>
      <trkpt lat="40.4911410" lon="-3.9885090">
        <ele>672.6</ele>
        <time>2019-04-28T11:03:05Z</time>
      </trkpt>
      <trkpt lat="40.4910700" lon="-3.9884840">
        <ele>672.4</ele>
        <time>2019-04-28T11:03:06Z</time>
      </trkpt>
      <trkpt lat="40.4909980" lon="-3.9884600">
        <ele>672.4</ele>
        <time>2019-04-28T11:03:07Z</time>
      </trkpt>
      <trkpt lat="40.4909260" lon="-3.9884360">
        <ele>672.2</ele>
        <time>2019-04-28T11:03:08Z</time>
      </trkpt>
      <trkpt lat="40.4908530" lon="-3.9884080">
        <ele>672.2</ele>
        <time>2019-04-28T11:03:09Z</time>
      </trkpt>
      <trkpt lat="40.4907790" lon="-3.9883790">
        <ele>672.2</ele>
        <time>2019-04-28T11:03:10Z</time>
      </trkpt>
      <trkpt lat="40.4907060" lon="-3.9883510">
        <ele>672.0</ele>
        <time>2019-04-28T11:03:11Z</time>
      </trkpt>
      <trkpt lat="40.4906330" lon="-3.9883210">
        <ele>672.0</ele>
        <time>2019-04-28T11:03:12Z</time>
      </trkpt>
      <trkpt lat="40.4905600" lon="-3.9882900">
        <ele>671.8</ele>
        <time>2019-04-28T11:03:13Z</time>
      </trkpt>
      <trkpt lat="40.4904870" lon="-3.9882610">
        <ele>671.6</ele>
        <time>2019-04-28T11:03:14Z</time>
      </trkpt>
      <trkpt lat="40.4904140" lon="-3.9882340">
        <ele>671.4</ele>
        <time>2019-04-28T11:03:15Z</time>
      </trkpt>
      <trkpt lat="40.4903440" lon="-3.9882020">
        <ele>671.4</ele>
        <time>2019-04-28T11:03:16Z</time>
      </trkpt>
      <trkpt lat="40.4902730" lon="-3.9881710">
        <ele>671.0</ele>
        <time>2019-04-28T11:03:17Z</time>
      </trkpt>
      <trkpt lat="40.4902000" lon="-3.9881500">
        <ele>671.0</ele>
        <time>2019-04-28T11:03:18Z</time>
      </trkpt>
      <trkpt lat="40.4901270" lon="-3.9881300">
        <ele>671.0</ele>
        <time>2019-04-28T11:03:19Z</time>
      </trkpt>
      <trkpt lat="40.4900550" lon="-3.9881040">
        <ele>671.0</ele>
        <time>2019-04-28T11:03:20Z</time>
      </trkpt>
      <trkpt lat="40.4899830" lon="-3.9880750">
        <ele>670.8</ele>
        <time>2019-04-28T11:03:21Z</time>
      </trkpt>
      <trkpt lat="40.4899100" lon="-3.9880460">
        <ele>670.8</ele>
        <time>2019-04-28T11:03:22Z</time>
      </trkpt>
      <trkpt lat="40.4898390" lon="-3.9880170">
        <ele>670.8</ele>
        <time>2019-04-28T11:03:23Z</time>
      </trkpt>
      <trkpt lat="40.4897700" lon="-3.9879830">
        <ele>670.4</ele>
        <time>2019-04-28T11:03:24Z</time>
      </trkpt>
      <trkpt lat="40.4897010" lon="-3.9879520">
        <ele>670.4</ele>
        <time>2019-04-28T11:03:25Z</time>
      </trkpt>
      <trkpt lat="40.4896320" lon="-3.9879240">
        <ele>670.6</ele>
        <time>2019-04-28T11:03:26Z</time>
      </trkpt>
      <trkpt lat="40.4895630" lon="-3.9878960">
        <ele>670.4</ele>
        <time>2019-04-28T11:03:27Z</time>
      </trkpt>
      <trkpt lat="40.4894940" lon="-3.9878730">
        <ele>670.4</ele>
        <time>2019-04-28T11:03:28Z</time>
      </trkpt>
      <trkpt lat="40.4894250" lon="-3.9878570">
        <ele>670.4</ele>
        <time>2019-04-28T11:03:29Z</time>
      </trkpt>
      <trkpt lat="40.4893560" lon="-3.9878440">
        <ele>670.2</ele>
        <time>2019-04-28T11:03:30Z</time>
      </trkpt>
      <trkpt lat="40.4892860" lon="-3.9878310">
        <ele>670.2</ele>
        <time>2019-04-28T11:03:31Z</time>
      </trkpt>
      <trkpt lat="40.4892160" lon="-3.9878180">
        <ele>670.0</ele>
        <time>2019-04-28T11:03:32Z</time>
      </trkpt>
      <trkpt lat="40.4891450" lon="-3.9878090">
        <ele>669.8</ele>
        <time>2019-04-28T11:03:33Z</time>
      </trkpt>
      <trkpt lat="40.4890750" lon="-3.9877960">
        <ele>669.6</ele>
        <time>2019-04-28T11:03:34Z</time>
      </trkpt>
      <trkpt lat="40.4890060" lon="-3.9877780">
        <ele>669.4</ele>
        <time>2019-04-28T11:03:35Z</time>
      </trkpt>
      <trkpt lat="40.4889370" lon="-3.9877650">
        <ele>669.6</ele>
        <time>2019-04-28T11:03:36Z</time>
      </trkpt>
      <trkpt lat="40.4888680" lon="-3.9877510">
        <ele>669.6</ele>
        <time>2019-04-28T11:03:37Z</time>
      </trkpt>
      <trkpt lat="40.4888010" lon="-3.9877330">
        <ele>669.2</ele>
        <time>2019-04-28T11:03:38Z</time>
      </trkpt>
      <trkpt lat="40.4887330" lon="-3.9877140">
        <ele>669.0</ele>
        <time>2019-04-28T11:03:39Z</time>
      </trkpt>
      <trkpt lat="40.4886650" lon="-3.9876960">
        <ele>669.0</ele>
        <time>2019-04-28T11:03:40Z</time>
      </trkpt>
      <trkpt lat="40.4885970" lon="-3.9876790">
        <ele>669.2</ele>
        <time>2019-04-28T11:03:41Z</time>
      </trkpt>
      <trkpt lat="40.4885290" lon="-3.9876560">
        <ele>668.8</ele>
        <time>2019-04-28T11:03:42Z</time>
      </trkpt>
      <trkpt lat="40.4884630" lon="-3.9876370">
        <ele>668.8</ele>
        <time>2019-04-28T11:03:43Z</time>
      </trkpt>
      <trkpt lat="40.4883940" lon="-3.9876180">
        <ele>668.0</ele>
        <time>2019-04-28T11:03:44Z</time>
      </trkpt>
      <trkpt lat="40.4883240" lon="-3.9875940">
        <ele>668.4</ele>
        <time>2019-04-28T11:03:45Z</time>
      </trkpt>
      <trkpt lat="40.4882570" lon="-3.9875590">
        <ele>668.2</ele>
        <time>2019-04-28T11:03:46Z</time>
      </trkpt>
      <trkpt lat="40.4881920" lon="-3.9875160">
        <ele>668.0</ele>
        <time>2019-04-28T11:03:47Z</time>
      </trkpt>
      <trkpt lat="40.4881260" lon="-3.9874740">
        <ele>668.0</ele>
        <time>2019-04-28T11:03:48Z</time>
      </trkpt>
      <trkpt lat="40.4880610" lon="-3.9874310">
        <ele>667.8</ele>
        <time>2019-04-28T11:03:49Z</time>
      </trkpt>
      <trkpt lat="40.4879970" lon="-3.9873860">
        <ele>667.6</ele>
        <time>2019-04-28T11:03:50Z</time>
      </trkpt>
      <trkpt lat="40.4879350" lon="-3.9873350">
        <ele>667.6</ele>
        <time>2019-04-28T11:03:51Z</time>
      </trkpt>
      <trkpt lat="40.4878740" lon="-3.9872870">
        <ele>667.6</ele>
        <time>2019-04-28T11:03:52Z</time>
      </trkpt>
      <trkpt lat="40.4878120" lon="-3.9872400">
        <ele>667.4</ele>
        <time>2019-04-28T11:03:53Z</time>
      </trkpt>
      <trkpt lat="40.4877490" lon="-3.9871960">
        <ele>667.2</ele>
        <time>2019-04-28T11:03:54Z</time>
      </trkpt>
      <trkpt lat="40.4876880" lon="-3.9871520">
        <ele>667.2</ele>
        <time>2019-04-28T11:03:55Z</time>
      </trkpt>
      <trkpt lat="40.4876250" lon="-3.9871120">
        <ele>667.2</ele>
        <time>2019-04-28T11:03:56Z</time>
      </trkpt>
      <trkpt lat="40.4875620" lon="-3.9870760">
        <ele>667.2</ele>
        <time>2019-04-28T11:03:57Z</time>
      </trkpt>
      <trkpt lat="40.4874990" lon="-3.9870400">
        <ele>667.2</ele>
        <time>2019-04-28T11:03:58Z</time>
      </trkpt>
      <trkpt lat="40.4874350" lon="-3.9870040">
        <ele>667.2</ele>
        <time>2019-04-28T11:03:59Z</time>
      </trkpt>
      <trkpt lat="40.4873730" lon="-3.9869670">
        <ele>667.0</ele>
        <time>2019-04-28T11:04:00Z</time>
      </trkpt>
      <trkpt lat="40.4873090" lon="-3.9869310">
        <ele>667.0</ele>
        <time>2019-04-28T11:04:01Z</time>
      </trkpt>
      <trkpt lat="40.4872420" lon="-3.9869010">
        <ele>667.0</ele>
        <time>2019-04-28T11:04:02Z</time>
      </trkpt>
      <trkpt lat="40.4871770" lon="-3.9868680">
        <ele>666.8</ele>
        <time>2019-04-28T11:04:03Z</time>
      </trkpt>
      <trkpt lat="40.4871120" lon="-3.9868310">
        <ele>666.8</ele>
        <time>2019-04-28T11:04:04Z</time>
      </trkpt>
      <trkpt lat="40.4870490" lon="-3.9867890">
        <ele>666.8</ele>
        <time>2019-04-28T11:04:05Z</time>
      </trkpt>
      <trkpt lat="40.4869860" lon="-3.9867510">
        <ele>666.6</ele>
        <time>2019-04-28T11:04:06Z</time>
      </trkpt>
      <trkpt lat="40.4869230" lon="-3.9867160">
        <ele>666.8</ele>
        <time>2019-04-28T11:04:07Z</time>
      </trkpt>
      <trkpt lat="40.4868620" lon="-3.9866740">
        <ele>666.8</ele>
        <time>2019-04-28T11:04:08Z</time>
      </trkpt>
      <trkpt lat="40.4868010" lon="-3.9866290">
        <ele>666.6</ele>
        <time>2019-04-28T11:04:09Z</time>
      </trkpt>
      <trkpt lat="40.4867420" lon="-3.9865830">
        <ele>666.4</ele>
        <time>2019-04-28T11:04:10Z</time>
      </trkpt>
      <trkpt lat="40.4866870" lon="-3.9865350">
        <ele>666.4</ele>
        <time>2019-04-28T11:04:11Z</time>
      </trkpt>
      <trkpt lat="40.4866290" lon="-3.9864930">
        <ele>666.6</ele>
        <time>2019-04-28T11:04:12Z</time>
      </trkpt>
      <trkpt lat="40.4865690" lon="-3.9864530">
        <ele>666.4</ele>
        <time>2019-04-28T11:04:13Z</time>
      </trkpt>
      <trkpt lat="40.4865080" lon="-3.9864080">
        <ele>666.4</ele>
        <time>2019-04-28T11:04:14Z</time>
      </trkpt>
      <trkpt lat="40.4864470" lon="-3.9863630">
        <ele>666.4</ele>
        <time>2019-04-28T11:04:15Z</time>
      </trkpt>
      <trkpt lat="40.4863860" lon="-3.9863160">
        <ele>666.4</ele>
        <time>2019-04-28T11:04:16Z</time>
      </trkpt>
      <trkpt lat="40.4863260" lon="-3.9862680">
        <ele>666.4</ele>
        <time>2019-04-28T11:04:17Z</time>
      </trkpt>
      <trkpt lat="40.4862670" lon="-3.9862200">
        <ele>666.4</ele>
        <time>2019-04-28T11:04:18Z</time>
      </trkpt>
      <trkpt lat="40.4862090" lon="-3.9861760">
        <ele>666.4</ele>
        <time>2019-04-28T11:04:19Z</time>
      </trkpt>
      <trkpt lat="40.4861500" lon="-3.9861340">
        <ele>666.6</ele>
        <time>2019-04-28T11:04:20Z</time>
      </trkpt>
      <trkpt lat="40.4860910" lon="-3.9860930">
        <ele>666.6</ele>
        <time>2019-04-28T11:04:21Z</time>
      </trkpt>
      <trkpt lat="40.4860340" lon="-3.9860510">
        <ele>666.6</ele>
        <time>2019-04-28T11:04:22Z</time>
      </trkpt>
      <trkpt lat="40.4859770" lon="-3.9860120">
        <ele>666.6</ele>
        <time>2019-04-28T11:04:23Z</time>
      </trkpt>
      <trkpt lat="40.4859230" lon="-3.9859700">
        <ele>666.6</ele>
        <time>2019-04-28T11:04:24Z</time>
      </trkpt>
      <trkpt lat="40.4858700" lon="-3.9859270">
        <ele>666.6</ele>
        <time>2019-04-28T11:04:25Z</time>
      </trkpt>
      <trkpt lat="40.4858180" lon="-3.9858850">
        <ele>666.6</ele>
        <time>2019-04-28T11:04:26Z</time>
      </trkpt>
      <trkpt lat="40.4857660" lon="-3.9858430">
        <ele>666.6</ele>
        <time>2019-04-28T11:04:27Z</time>
      </trkpt>
      <trkpt lat="40.4857150" lon="-3.9858020">
        <ele>666.6</ele>
        <time>2019-04-28T11:04:28Z</time>
      </trkpt>
      <trkpt lat="40.4856620" lon="-3.9857620">
        <ele>666.6</ele>
        <time>2019-04-28T11:04:29Z</time>
      </trkpt>
      <trkpt lat="40.4856100" lon="-3.9857200">
        <ele>666.6</ele>
        <time>2019-04-28T11:04:30Z</time>
      </trkpt>
      <trkpt lat="40.4855580" lon="-3.9856730">
        <ele>666.6</ele>
        <time>2019-04-28T11:04:31Z</time>
      </trkpt>
      <trkpt lat="40.4855070" lon="-3.9856260">
        <ele>666.8</ele>
        <time>2019-04-28T11:04:32Z</time>
      </trkpt>
      <trkpt lat="40.4854530" lon="-3.9855830">
        <ele>666.8</ele>
        <time>2019-04-28T11:04:33Z</time>
      </trkpt>
      <trkpt lat="40.4853990" lon="-3.9855400">
        <ele>666.8</ele>
        <time>2019-04-28T11:04:34Z</time>
      </trkpt>
      <trkpt lat="40.4853440" lon="-3.9854940">
        <ele>666.8</ele>
        <time>2019-04-28T11:04:35Z</time>
      </trkpt>
      <trkpt lat="40.4852880" lon="-3.9854510">
        <ele>667.0</ele>
        <time>2019-04-28T11:04:36Z</time>
      </trkpt>
      <trkpt lat="40.4852310" lon="-3.9854060">
        <ele>666.8</ele>
        <time>2019-04-28T11:04:37Z</time>
      </trkpt>
      <trkpt lat="40.4851750" lon="-3.9853630">
        <ele>666.6</ele>
        <time>2019-04-28T11:04:38Z</time>
      </trkpt>
      <trkpt lat="40.4851190" lon="-3.9853230">
        <ele>666.4</ele>
        <time>2019-04-28T11:04:39Z</time>
      </trkpt>
      <trkpt lat="40.4850650" lon="-3.9852830">
        <ele>666.4</ele>
        <time>2019-04-28T11:04:40Z</time>
      </trkpt>
      <trkpt lat="40.4850140" lon="-3.9852420">
        <ele>666.4</ele>
        <time>2019-04-28T11:04:41Z</time>
      </trkpt>
      <trkpt lat="40.4849660" lon="-3.9852020">
        <ele>666.4</ele>
        <time>2019-04-28T11:04:42Z</time>
      </trkpt>
      <trkpt lat="40.4849170" lon="-3.9851590">
        <ele>666.4</ele>
        <time>2019-04-28T11:04:43Z</time>
      </trkpt>
      <trkpt lat="40.4848710" lon="-3.9851110">
        <ele>666.4</ele>
        <time>2019-04-28T11:04:44Z</time>
      </trkpt>
      <trkpt lat="40.4848310" lon="-3.9850520">
        <ele>666.6</ele>
        <time>2019-04-28T11:04:45Z</time>
      </trkpt>
      <trkpt lat="40.4847990" lon="-3.9849860">
        <ele>666.6</ele>
        <time>2019-04-28T11:04:46Z</time>
      </trkpt>
      <trkpt lat="40.4847750" lon="-3.9849140">
        <ele>666.6</ele>
        <time>2019-04-28T11:04:47Z</time>
      </trkpt>
      <trkpt lat="40.4847550" lon="-3.9848400">
        <ele>666.6</ele>
        <time>2019-04-28T11:04:48Z</time>
      </trkpt>
      <trkpt lat="40.4847380" lon="-3.9847650">
        <ele>666.6</ele>
        <time>2019-04-28T11:04:49Z</time>
      </trkpt>
      <trkpt lat="40.4847190" lon="-3.9846920">
        <ele>666.4</ele>
        <time>2019-04-28T11:04:50Z</time>
      </trkpt>
      <trkpt lat="40.4846980" lon="-3.9846210">
        <ele>666.4</ele>
        <time>2019-04-28T11:04:51Z</time>
      </trkpt>
      <trkpt lat="40.4846720" lon="-3.9845550">
        <ele>666.8</ele>
        <time>2019-04-28T11:04:52Z</time>
      </trkpt>
      <trkpt lat="40.4846470" lon="-3.9844890">
        <ele>666.4</ele>
        <time>2019-04-28T11:04:53Z</time>
      </trkpt>
      <trkpt lat="40.4846220" lon="-3.9844220">
        <ele>666.8</ele>
        <time>2019-04-28T11:04:54Z</time>
      </trkpt>
      <trkpt lat="40.4845950" lon="-3.9843590">
        <ele>667.0</ele>
        <time>2019-04-28T11:04:55Z</time>
      </trkpt>
      <trkpt lat="40.4845690" lon="-3.9842950">
        <ele>667.0</ele>
        <time>2019-04-28T11:04:56Z</time>
      </trkpt>
      <trkpt lat="40.4845420" lon="-3.9842320">
        <ele>667.0</ele>
        <time>2019-04-28T11:04:57Z</time>
      </trkpt>
      <trkpt lat="40.4845120" lon="-3.9841710">
        <ele>667.0</ele>
        <time>2019-04-28T11:04:58Z</time>
      </trkpt>
      <trkpt lat="40.4844800" lon="-3.9841110">
        <ele>667.2</ele>
        <time>2019-04-28T11:04:59Z</time>
      </trkpt>
      <trkpt lat="40.4844480" lon="-3.9840500">
        <ele>666.8</ele>
        <time>2019-04-28T11:05:00Z</time>
      </trkpt>
      <trkpt lat="40.4844160" lon="-3.9839880">
        <ele>666.8</ele>
        <time>2019-04-28T11:05:01Z</time>
      </trkpt>
      <trkpt lat="40.4843820" lon="-3.9839280">
        <ele>666.8</ele>
        <time>2019-04-28T11:05:02Z</time>
      </trkpt>
      <trkpt lat="40.4843470" lon="-3.9838680">
        <ele>667.0</ele>
        <time>2019-04-28T11:05:03Z</time>
      </trkpt>
      <trkpt lat="40.4843120" lon="-3.9838090">
        <ele>667.0</ele>
        <time>2019-04-28T11:05:04Z</time>
      </trkpt>
      <trkpt lat="40.4842750" lon="-3.9837500">
        <ele>667.0</ele>
        <time>2019-04-28T11:05:05Z</time>
      </trkpt>
      <trkpt lat="40.4842380" lon="-3.9836920">
        <ele>667.2</ele>
        <time>2019-04-28T11:05:06Z</time>
      </trkpt>
      <trkpt lat="40.4842020" lon="-3.9836380">
        <ele>667.2</ele>
        <time>2019-04-28T11:05:07Z</time>
      </trkpt>
      <trkpt lat="40.4841650" lon="-3.9835870">
        <ele>667.2</ele>
        <time>2019-04-28T11:05:08Z</time>
      </trkpt>
      <trkpt lat="40.4841270" lon="-3.9835380">
        <ele>667.2</ele>
        <time>2019-04-28T11:05:09Z</time>
      </trkpt>
      <trkpt lat="40.4840910" lon="-3.9834870">
        <ele>667.0</ele>
        <time>2019-04-28T11:05:10Z</time>
      </trkpt>
      <trkpt lat="40.4840550" lon="-3.9834360">
        <ele>667.0</ele>
        <time>2019-04-28T11:05:11Z</time>
      </trkpt>
      <trkpt lat="40.4840210" lon="-3.9833860">
        <ele>667.0</ele>
        <time>2019-04-28T11:05:12Z</time>
      </trkpt>
      <trkpt lat="40.4839870" lon="-3.9833390">
        <ele>667.0</ele>
        <time>2019-04-28T11:05:13Z</time>
      </trkpt>
      <trkpt lat="40.4839540" lon="-3.9832930">
        <ele>667.0</ele>
        <time>2019-04-28T11:05:14Z</time>
      </trkpt>
      <trkpt lat="40.4839210" lon="-3.9832500">
        <ele>667.0</ele>
        <time>2019-04-28T11:05:15Z</time>
      </trkpt>
      <trkpt lat="40.4838880" lon="-3.9832090">
        <ele>667.0</ele>
        <time>2019-04-28T11:05:16Z</time>
      </trkpt>
      <trkpt lat="40.4838570" lon="-3.9831700">
        <ele>666.8</ele>
        <time>2019-04-28T11:05:17Z</time>
      </trkpt>
      <trkpt lat="40.4838270" lon="-3.9831370">
        <ele>667.0</ele>
        <time>2019-04-28T11:05:18Z</time>
      </trkpt>
      <trkpt lat="40.4837980" lon="-3.9831080">
        <ele>666.8</ele>
        <time>2019-04-28T11:05:19Z</time>
      </trkpt>
      <trkpt lat="40.4837710" lon="-3.9830870">
        <ele>666.8</ele>
        <time>2019-04-28T11:05:20Z</time>
      </trkpt>
      <trkpt lat="40.4837470" lon="-3.9830730">
        <ele>666.6</ele>
        <time>2019-04-28T11:05:21Z</time>
      </trkpt>
      <trkpt lat="40.4837290" lon="-3.9830610">
        <ele>666.6</ele>
        <time>2019-04-28T11:05:22Z</time>
      </trkpt>
      <trkpt lat="40.4837180" lon="-3.9830490">
        <ele>666.6</ele>
        <time>2019-04-28T11:05:23Z</time>
      </trkpt>
      <trkpt lat="40.4837140" lon="-3.9830460">
        <ele>666.8</ele>
        <time>2019-04-28T11:05:24Z</time>
      </trkpt>
      <trkpt lat="40.4837110" lon="-3.9830440">
        <ele>666.8</ele>
        <time>2019-04-28T11:05:25Z</time>
      </trkpt>
      <trkpt lat="40.4837090" lon="-3.9830430">
        <ele>666.8</ele>
        <time>2019-04-28T11:05:26Z</time>
      </trkpt>
      <trkpt lat="40.4837090" lon="-3.9830420">
        <ele>666.8</ele>
        <time>2019-04-28T11:05:27Z</time>
      </trkpt>
      <trkpt lat="40.4837100" lon="-3.9830410">
        <ele>666.8</ele>
        <time>2019-04-28T11:05:28Z</time>
      </trkpt>
      <trkpt lat="40.4837070" lon="-3.9830390">
        <ele>666.8</ele>
        <time>2019-04-28T11:05:29Z</time>
      </trkpt>
      <trkpt lat="40.4837040" lon="-3.9830400">
        <ele>666.6</ele>
        <time>2019-04-28T11:05:30Z</time>
      </trkpt>
      <trkpt lat="40.4837030" lon="-3.9830410">
        <ele>666.6</ele>
        <time>2019-04-28T11:05:31Z</time>
      </trkpt>
      <trkpt lat="40.4836390" lon="-3.9829450">
        <ele>673.0</ele>
        <time>2019-04-28T12:24:58Z</time>
      </trkpt>
      <trkpt lat="40.4836380" lon="-3.9829400">
        <ele>673.2</ele>
        <time>2019-04-28T12:24:59Z</time>
      </trkpt>
      <trkpt lat="40.4836370" lon="-3.9829390">
        <ele>673.2</ele>
        <time>2019-04-28T12:25:00Z</time>
      </trkpt>
      <trkpt lat="40.4836350" lon="-3.9829390">
        <ele>673.2</ele>
        <time>2019-04-28T12:25:01Z</time>
      </trkpt>
      <trkpt lat="40.4836340" lon="-3.9829390">
        <ele>673.4</ele>
        <time>2019-04-28T12:25:02Z</time>
      </trkpt>
      <trkpt lat="40.4834320" lon="-3.9826810">
        <ele>673.0</ele>
        <time>2019-04-28T12:25:15Z</time>
      </trkpt>
      <trkpt lat="40.4833960" lon="-3.9826420">
        <ele>672.8</ele>
        <time>2019-04-28T12:25:16Z</time>
      </trkpt>
      <trkpt lat="40.4833600" lon="-3.9825980">
        <ele>672.8</ele>
        <time>2019-04-28T12:25:17Z</time>
      </trkpt>
      <trkpt lat="40.4833230" lon="-3.9825560">
        <ele>672.8</ele>
        <time>2019-04-28T12:25:18Z</time>
      </trkpt>
      <trkpt lat="40.4832870" lon="-3.9825090">
        <ele>672.8</ele>
        <time>2019-04-28T12:25:19Z</time>
      </trkpt>
      <trkpt lat="40.4832510" lon="-3.9824600">
        <ele>672.8</ele>
        <time>2019-04-28T12:25:20Z</time>
      </trkpt>
      <trkpt lat="40.4832090" lon="-3.9824170">
        <ele>672.8</ele>
        <time>2019-04-28T12:25:21Z</time>
      </trkpt>
      <trkpt lat="40.4831630" lon="-3.9823800">
        <ele>672.8</ele>
        <time>2019-04-28T12:25:22Z</time>
      </trkpt>
      <trkpt lat="40.4831170" lon="-3.9823430">
        <ele>672.6</ele>
        <time>2019-04-28T12:25:23Z</time>
      </trkpt>
      <trkpt lat="40.4830690" lon="-3.9823090">
        <ele>672.6</ele>
        <time>2019-04-28T12:25:24Z</time>
      </trkpt>
      <trkpt lat="40.4830210" lon="-3.9822770">
        <ele>672.6</ele>
        <time>2019-04-28T12:25:25Z</time>
      </trkpt>
      <trkpt lat="40.4829730" lon="-3.9822450">
        <ele>672.6</ele>
        <time>2019-04-28T12:25:26Z</time>
      </trkpt>
      <trkpt lat="40.4829250" lon="-3.9822130">
        <ele>672.6</ele>
        <time>2019-04-28T12:25:27Z</time>
      </trkpt>
      <trkpt lat="40.4828760" lon="-3.9821790">
        <ele>672.4</ele>
        <time>2019-04-28T12:25:28Z</time>
      </trkpt>
      <trkpt lat="40.4828260" lon="-3.9821440">
        <ele>672.4</ele>
        <time>2019-04-28T12:25:29Z</time>
      </trkpt>
      <trkpt lat="40.4827760" lon="-3.9821100">
        <ele>672.4</ele>
        <time>2019-04-28T12:25:30Z</time>
      </trkpt>
      <trkpt lat="40.4827240" lon="-3.9820760">
        <ele>672.2</ele>
        <time>2019-04-28T12:25:31Z</time>
      </trkpt>
      <trkpt lat="40.4826720" lon="-3.9820420">
        <ele>672.2</ele>
        <time>2019-04-28T12:25:32Z</time>
      </trkpt>
      <trkpt lat="40.4826200" lon="-3.9820090">
        <ele>671.8</ele>
        <time>2019-04-28T12:25:33Z</time>
      </trkpt>
      <trkpt lat="40.4825670" lon="-3.9819760">
        <ele>671.8</ele>
        <time>2019-04-28T12:25:34Z</time>
      </trkpt>
      <trkpt lat="40.4825160" lon="-3.9819420">
        <ele>672.0</ele>
        <time>2019-04-28T12:25:35Z</time>
      </trkpt>
      <trkpt lat="40.4824640" lon="-3.9819070">
        <ele>671.8</ele>
        <time>2019-04-28T12:25:36Z</time>
      </trkpt>
      <trkpt lat="40.4824120" lon="-3.9818740">
        <ele>672.0</ele>
        <time>2019-04-28T12:25:37Z</time>
      </trkpt>
      <trkpt lat="40.4823600" lon="-3.9818420">
        <ele>671.6</ele>
        <time>2019-04-28T12:25:38Z</time>
      </trkpt>
      <trkpt lat="40.4823080" lon="-3.9818080">
        <ele>671.6</ele>
        <time>2019-04-28T12:25:39Z</time>
      </trkpt>
      <trkpt lat="40.4822560" lon="-3.9817720">
        <ele>671.8</ele>
        <time>2019-04-28T12:25:40Z</time>
      </trkpt>
      <trkpt lat="40.4822040" lon="-3.9817330">
        <ele>671.6</ele>
        <time>2019-04-28T12:25:41Z</time>
      </trkpt>
      <trkpt lat="40.4821510" lon="-3.9816960">
        <ele>671.6</ele>
        <time>2019-04-28T12:25:42Z</time>
      </trkpt>
      <trkpt lat="40.4820970" lon="-3.9816600">
        <ele>671.6</ele>
        <time>2019-04-28T12:25:43Z</time>
      </trkpt>
      <trkpt lat="40.4820440" lon="-3.9816220">
        <ele>671.4</ele>
        <time>2019-04-28T12:25:44Z</time>
      </trkpt>
      <trkpt lat="40.4819890" lon="-3.9815850">
        <ele>671.6</ele>
        <time>2019-04-28T12:25:45Z</time>
      </trkpt>
      <trkpt lat="40.4819340" lon="-3.9815470">
        <ele>671.6</ele>
        <time>2019-04-28T12:25:46Z</time>
      </trkpt>
      <trkpt lat="40.4818770" lon="-3.9815140">
        <ele>671.2</ele>
        <time>2019-04-28T12:25:47Z</time>
      </trkpt>
      <trkpt lat="40.4818210" lon="-3.9814820">
        <ele>671.4</ele>
        <time>2019-04-28T12:25:48Z</time>
      </trkpt>
      <trkpt lat="40.4817660" lon="-3.9814470">
        <ele>671.4</ele>
        <time>2019-04-28T12:25:49Z</time>
      </trkpt>
      <trkpt lat="40.4817120" lon="-3.9814070">
        <ele>671.4</ele>
        <time>2019-04-28T12:25:50Z</time>
      </trkpt>
      <trkpt lat="40.4816550" lon="-3.9813680">
        <ele>671.2</ele>
        <time>2019-04-28T12:25:51Z</time>
      </trkpt>
      <trkpt lat="40.4815980" lon="-3.9813320">
        <ele>671.2</ele>
        <time>2019-04-28T12:25:52Z</time>
      </trkpt>
      <trkpt lat="40.4815410" lon="-3.9812940">
        <ele>671.2</ele>
        <time>2019-04-28T12:25:53Z</time>
      </trkpt>
      <trkpt lat="40.4814850" lon="-3.9812530">
        <ele>671.2</ele>
        <time>2019-04-28T12:25:54Z</time>
      </trkpt>
      <trkpt lat="40.4814280" lon="-3.9812120">
        <ele>671.0</ele>
        <time>2019-04-28T12:25:55Z</time>
      </trkpt>
      <trkpt lat="40.4813720" lon="-3.9811690">
        <ele>671.0</ele>
        <time>2019-04-28T12:25:56Z</time>
      </trkpt>
      <trkpt lat="40.4813180" lon="-3.9811230">
        <ele>671.0</ele>
        <time>2019-04-28T12:25:57Z</time>
      </trkpt>
      <trkpt lat="40.4812650" lon="-3.9810730">
        <ele>671.2</ele>
        <time>2019-04-28T12:25:58Z</time>
      </trkpt>
      <trkpt lat="40.4812110" lon="-3.9810230">
        <ele>671.2</ele>
        <time>2019-04-28T12:25:59Z</time>
      </trkpt>
      <trkpt lat="40.4811560" lon="-3.9809720">
        <ele>671.2</ele>
        <time>2019-04-28T12:26:00Z</time>
      </trkpt>
      <trkpt lat="40.4811020" lon="-3.9809180">
        <ele>671.4</ele>
        <time>2019-04-28T12:26:01Z</time>
      </trkpt>
      <trkpt lat="40.4810450" lon="-3.9808710">
        <ele>671.2</ele>
        <time>2019-04-28T12:26:02Z</time>
      </trkpt>
      <trkpt lat="40.4809880" lon="-3.9808240">
        <ele>671.0</ele>
        <time>2019-04-28T12:26:03Z</time>
      </trkpt>
      <trkpt lat="40.4809310" lon="-3.9807770">
        <ele>671.0</ele>
        <time>2019-04-28T12:26:04Z</time>
      </trkpt>
      <trkpt lat="40.4808740" lon="-3.9807280">
        <ele>671.0</ele>
        <time>2019-04-28T12:26:05Z</time>
      </trkpt>
      <trkpt lat="40.4808180" lon="-3.9806790">
        <ele>671.0</ele>
        <time>2019-04-28T12:26:06Z</time>
      </trkpt>
      <trkpt lat="40.4807600" lon="-3.9806310">
        <ele>671.0</ele>
        <time>2019-04-28T12:26:07Z</time>
      </trkpt>
      <trkpt lat="40.4807010" lon="-3.9805850">
        <ele>671.0</ele>
        <time>2019-04-28T12:26:08Z</time>
      </trkpt>
      <trkpt lat="40.4806400" lon="-3.9805410">
        <ele>671.0</ele>
        <time>2019-04-28T12:26:09Z</time>
      </trkpt>
      <trkpt lat="40.4805780" lon="-3.9805010">
        <ele>670.8</ele>
        <time>2019-04-28T12:26:10Z</time>
      </trkpt>
      <trkpt lat="40.4805170" lon="-3.9804610">
        <ele>670.8</ele>
        <time>2019-04-28T12:26:11Z</time>
      </trkpt>
      <trkpt lat="40.4804560" lon="-3.9804220">
        <ele>670.8</ele>
        <time>2019-04-28T12:26:12Z</time>
      </trkpt>
      <trkpt lat="40.4803950" lon="-3.9803830">
        <ele>670.8</ele>
        <time>2019-04-28T12:26:13Z</time>
      </trkpt>
      <trkpt lat="40.4803350" lon="-3.9803430">
        <ele>670.6</ele>
        <time>2019-04-28T12:26:14Z</time>
      </trkpt>
      <trkpt lat="40.4802750" lon="-3.9803040">
        <ele>670.6</ele>
        <time>2019-04-28T12:26:15Z</time>
      </trkpt>
      <trkpt lat="40.4802150" lon="-3.9802630">
        <ele>670.4</ele>
        <time>2019-04-28T12:26:16Z</time>
      </trkpt>
      <trkpt lat="40.4801530" lon="-3.9802260">
        <ele>670.4</ele>
        <time>2019-04-28T12:26:17Z</time>
      </trkpt>
      <trkpt lat="40.4800900" lon="-3.9801910">
        <ele>670.4</ele>
        <time>2019-04-28T12:26:18Z</time>
      </trkpt>
      <trkpt lat="40.4800260" lon="-3.9801570">
        <ele>670.2</ele>
        <time>2019-04-28T12:26:19Z</time>
      </trkpt>
      <trkpt lat="40.4799630" lon="-3.9801230">
        <ele>670.2</ele>
        <time>2019-04-28T12:26:20Z</time>
      </trkpt>
      <trkpt lat="40.4798990" lon="-3.9800930">
        <ele>670.0</ele>
        <time>2019-04-28T12:26:21Z</time>
      </trkpt>
      <trkpt lat="40.4798360" lon="-3.9800610">
        <ele>670.0</ele>
        <time>2019-04-28T12:26:22Z</time>
      </trkpt>
      <trkpt lat="40.4797720" lon="-3.9800280">
        <ele>670.0</ele>
        <time>2019-04-28T12:26:23Z</time>
      </trkpt>
      <trkpt lat="40.4797080" lon="-3.9799970">
        <ele>670.0</ele>
        <time>2019-04-28T12:26:24Z</time>
      </trkpt>
      <trkpt lat="40.4796430" lon="-3.9799660">
        <ele>670.0</ele>
        <time>2019-04-28T12:26:25Z</time>
      </trkpt>
      <trkpt lat="40.4795780" lon="-3.9799370">
        <ele>670.0</ele>
        <time>2019-04-28T12:26:26Z</time>
      </trkpt>
      <trkpt lat="40.4795140" lon="-3.9799080">
        <ele>669.6</ele>
        <time>2019-04-28T12:26:27Z</time>
      </trkpt>
      <trkpt lat="40.4794520" lon="-3.9798790">
        <ele>669.6</ele>
        <time>2019-04-28T12:26:28Z</time>
      </trkpt>
      <trkpt lat="40.4793920" lon="-3.9798480">
        <ele>669.4</ele>
        <time>2019-04-28T12:26:29Z</time>
      </trkpt>
      <trkpt lat="40.4793330" lon="-3.9798190">
        <ele>669.2</ele>
        <time>2019-04-28T12:26:30Z</time>
      </trkpt>
      <trkpt lat="40.4792760" lon="-3.9797920">
        <ele>669.4</ele>
        <time>2019-04-28T12:26:31Z</time>
      </trkpt>
      <trkpt lat="40.4792230" lon="-3.9797700">
        <ele>669.2</ele>
        <time>2019-04-28T12:26:32Z</time>
      </trkpt>
      <trkpt lat="40.4791720" lon="-3.9797490">
        <ele>669.2</ele>
        <time>2019-04-28T12:26:33Z</time>
      </trkpt>
      <trkpt lat="40.4791210" lon="-3.9797290">
        <ele>669.2</ele>
        <time>2019-04-28T12:26:34Z</time>
      </trkpt>
      <trkpt lat="40.4790670" lon="-3.9797070">
        <ele>669.2</ele>
        <time>2019-04-28T12:26:35Z</time>
      </trkpt>
      <trkpt lat="40.4790170" lon="-3.9796860">
        <ele>669.2</ele>
        <time>2019-04-28T12:26:36Z</time>
      </trkpt>
      <trkpt lat="40.4789760" lon="-3.9796680">
        <ele>669.2</ele>
        <time>2019-04-28T12:26:37Z</time>
      </trkpt>
      <trkpt lat="40.4789410" lon="-3.9796530">
        <ele>669.2</ele>
        <time>2019-04-28T12:26:38Z</time>
      </trkpt>
      <trkpt lat="40.4789180" lon="-3.9796430">
        <ele>669.2</ele>
        <time>2019-04-28T12:26:39Z</time>
      </trkpt>
      <trkpt lat="40.4789030" lon="-3.9796340">
        <ele>669.2</ele>
        <time>2019-04-28T12:26:40Z</time>
      </trkpt>
      <trkpt lat="40.4788930" lon="-3.9796270">
        <ele>669.0</ele>
        <time>2019-04-28T12:26:41Z</time>
      </trkpt>
      <trkpt lat="40.4788850" lon="-3.9796210">
        <ele>669.0</ele>
        <time>2019-04-28T12:26:42Z</time>
      </trkpt>
      <trkpt lat="40.4788780" lon="-3.9796160">
        <ele>669.0</ele>
        <time>2019-04-28T12:26:43Z</time>
      </trkpt>
      <trkpt lat="40.4788710" lon="-3.9796130">
        <ele>668.8</ele>
        <time>2019-04-28T12:26:44Z</time>
      </trkpt>
      <trkpt lat="40.4788630" lon="-3.9796100">
        <ele>668.8</ele>
        <time>2019-04-28T12:26:45Z</time>
      </trkpt>
      <trkpt lat="40.4788550" lon="-3.9796090">
        <ele>668.8</ele>
        <time>2019-04-28T12:26:46Z</time>
      </trkpt>
      <trkpt lat="40.4788470" lon="-3.9796080">
        <ele>668.8</ele>
        <time>2019-04-28T12:26:47Z</time>
      </trkpt>
      <trkpt lat="40.4788350" lon="-3.9796050">
        <ele>668.8</ele>
        <time>2019-04-28T12:26:48Z</time>
      </trkpt>
      <trkpt lat="40.4788230" lon="-3.9795990">
        <ele>668.8</ele>
        <time>2019-04-28T12:26:49Z</time>
      </trkpt>
      <trkpt lat="40.4788080" lon="-3.9795940">
        <ele>668.8</ele>
        <time>2019-04-28T12:26:50Z</time>
      </trkpt>
      <trkpt lat="40.4787920" lon="-3.9795890">
        <ele>668.8</ele>
        <time>2019-04-28T12:26:51Z</time>
      </trkpt>
      <trkpt lat="40.4787740" lon="-3.9795800">
        <ele>668.8</ele>
        <time>2019-04-28T12:26:52Z</time>
      </trkpt>
      <trkpt lat="40.4787560" lon="-3.9795700">
        <ele>668.8</ele>
        <time>2019-04-28T12:26:53Z</time>
      </trkpt>
      <trkpt lat="40.4787390" lon="-3.9795590">
        <ele>668.8</ele>
        <time>2019-04-28T12:26:54Z</time>
      </trkpt>
      <trkpt lat="40.4787210" lon="-3.9795460">
        <ele>668.8</ele>
        <time>2019-04-28T12:26:55Z</time>
      </trkpt>
      <trkpt lat="40.4787040" lon="-3.9795320">
        <ele>668.6</ele>
        <time>2019-04-28T12:26:56Z</time>
      </trkpt>
      <trkpt lat="40.4786870" lon="-3.9795210">
        <ele>668.8</ele>
        <time>2019-04-28T12:26:57Z</time>
      </trkpt>
      <trkpt lat="40.4786690" lon="-3.9795080">
        <ele>669.0</ele>
        <time>2019-04-28T12:26:58Z</time>
      </trkpt>
      <trkpt lat="40.4786500" lon="-3.9794920">
        <ele>669.0</ele>
        <time>2019-04-28T12:26:59Z</time>
      </trkpt>
      <trkpt lat="40.4786350" lon="-3.9794800">
        <ele>669.0</ele>
        <time>2019-04-28T12:27:00Z</time>
      </trkpt>
      <trkpt lat="40.4786220" lon="-3.9794710">
        <ele>669.0</ele>
        <time>2019-04-28T12:27:01Z</time>
      </trkpt>
      <trkpt lat="40.4786100" lon="-3.9794620">
        <ele>668.6</ele>
        <time>2019-04-28T12:27:02Z</time>
      </trkpt>
      <trkpt lat="40.4785990" lon="-3.9794490">
        <ele>668.6</ele>
        <time>2019-04-28T12:27:03Z</time>
      </trkpt>
      <trkpt lat="40.4785860" lon="-3.9794330">
        <ele>668.6</ele>
        <time>2019-04-28T12:27:04Z</time>
      </trkpt>
      <trkpt lat="40.4785730" lon="-3.9794170">
        <ele>668.6</ele>
        <time>2019-04-28T12:27:05Z</time>
      </trkpt>
      <trkpt lat="40.4785590" lon="-3.9793970">
        <ele>668.8</ele>
        <time>2019-04-28T12:27:06Z</time>
      </trkpt>
      <trkpt lat="40.4785490" lon="-3.9793800">
        <ele>668.8</ele>
        <time>2019-04-28T12:27:07Z</time>
      </trkpt>
      <trkpt lat="40.4785340" lon="-3.9793620">
        <ele>668.8</ele>
        <time>2019-04-28T12:27:08Z</time>
      </trkpt>
      <trkpt lat="40.4785150" lon="-3.9793460">
        <ele>668.8</ele>
        <time>2019-04-28T12:27:09Z</time>
      </trkpt>
      <trkpt lat="40.4784910" lon="-3.9793260">
        <ele>669.0</ele>
        <time>2019-04-28T12:27:10Z</time>
      </trkpt>
      <trkpt lat="40.4784650" lon="-3.9793060">
        <ele>669.2</ele>
        <time>2019-04-28T12:27:11Z</time>
      </trkpt>
      <trkpt lat="40.4784380" lon="-3.9792820">
        <ele>669.2</ele>
        <time>2019-04-28T12:27:12Z</time>
      </trkpt>
      <trkpt lat="40.4784120" lon="-3.9792540">
        <ele>669.2</ele>
        <time>2019-04-28T12:27:13Z</time>
      </trkpt>
      <trkpt lat="40.4783820" lon="-3.9792240">
        <ele>669.2</ele>
        <time>2019-04-28T12:27:14Z</time>
      </trkpt>
      <trkpt lat="40.4783480" lon="-3.9791910">
        <ele>669.0</ele>
        <time>2019-04-28T12:27:15Z</time>
      </trkpt>
      <trkpt lat="40.4783120" lon="-3.9791560">
        <ele>669.0</ele>
        <time>2019-04-28T12:27:16Z</time>
      </trkpt>
      <trkpt lat="40.4782730" lon="-3.9791150">
        <ele>668.8</ele>
        <time>2019-04-28T12:27:17Z</time>
      </trkpt>
      <trkpt lat="40.4782330" lon="-3.9790740">
        <ele>668.8</ele>
        <time>2019-04-28T12:27:18Z</time>
      </trkpt>
      <trkpt lat="40.4781930" lon="-3.9790270">
        <ele>668.8</ele>
        <time>2019-04-28T12:27:19Z</time>
      </trkpt>
      <trkpt lat="40.4781530" lon="-3.9789790">
        <ele>668.6</ele>
        <time>2019-04-28T12:27:20Z</time>
      </trkpt>
      <trkpt lat="40.4781140" lon="-3.9789290">
        <ele>668.8</ele>
        <time>2019-04-28T12:27:21Z</time>
      </trkpt>
      <trkpt lat="40.4780730" lon="-3.9788790">
        <ele>668.8</ele>
        <time>2019-04-28T12:27:22Z</time>
      </trkpt>
      <trkpt lat="40.4780310" lon="-3.9788260">
        <ele>668.8</ele>
        <time>2019-04-28T12:27:23Z</time>
      </trkpt>
      <trkpt lat="40.4779920" lon="-3.9787700">
        <ele>668.8</ele>
        <time>2019-04-28T12:27:24Z</time>
      </trkpt>
      <trkpt lat="40.4779520" lon="-3.9787140">
        <ele>668.8</ele>
        <time>2019-04-28T12:27:25Z</time>
      </trkpt>
      <trkpt lat="40.4779100" lon="-3.9786590">
        <ele>668.8</ele>
        <time>2019-04-28T12:27:26Z</time>
      </trkpt>
      <trkpt lat="40.4778690" lon="-3.9786020">
        <ele>668.8</ele>
        <time>2019-04-28T12:27:27Z</time>
      </trkpt>
      <trkpt lat="40.4778310" lon="-3.9785420">
        <ele>668.8</ele>
        <time>2019-04-28T12:27:28Z</time>
      </trkpt>
      <trkpt lat="40.4777930" lon="-3.9784820">
        <ele>668.8</ele>
        <time>2019-04-28T12:27:29Z</time>
      </trkpt>
      <trkpt lat="40.4777580" lon="-3.9784220">
        <ele>668.8</ele>
        <time>2019-04-28T12:27:30Z</time>
      </trkpt>
      <trkpt lat="40.4777270" lon="-3.9783600">
        <ele>669.0</ele>
        <time>2019-04-28T12:27:31Z</time>
      </trkpt>
      <trkpt lat="40.4776930" lon="-3.9783010">
        <ele>668.8</ele>
        <time>2019-04-28T12:27:32Z</time>
      </trkpt>
      <trkpt lat="40.4776600" lon="-3.9782470">
        <ele>669.2</ele>
        <time>2019-04-28T12:27:33Z</time>
      </trkpt>
      <trkpt lat="40.4776280" lon="-3.9781960">
        <ele>669.0</ele>
        <time>2019-04-28T12:27:34Z</time>
      </trkpt>
      <trkpt lat="40.4775980" lon="-3.9781510">
        <ele>669.0</ele>
        <time>2019-04-28T12:27:35Z</time>
      </trkpt>
      <trkpt lat="40.4775650" lon="-3.9781030">
        <ele>668.6</ele>
        <time>2019-04-28T12:27:36Z</time>
      </trkpt>
      <trkpt lat="40.4775300" lon="-3.9780580">
        <ele>668.6</ele>
        <time>2019-04-28T12:27:37Z</time>
      </trkpt>
      <trkpt lat="40.4774960" lon="-3.9780110">
        <ele>668.6</ele>
        <time>2019-04-28T12:27:38Z</time>
      </trkpt>
      <trkpt lat="40.4774630" lon="-3.9779610">
        <ele>668.6</ele>
        <time>2019-04-28T12:27:39Z</time>
      </trkpt>
      <trkpt lat="40.4774320" lon="-3.9779110">
        <ele>668.8</ele>
        <time>2019-04-28T12:27:40Z</time>
      </trkpt>
      <trkpt lat="40.4774020" lon="-3.9778630">
        <ele>668.8</ele>
        <time>2019-04-28T12:27:41Z</time>
      </trkpt>
      <trkpt lat="40.4773700" lon="-3.9778130">
        <ele>668.6</ele>
        <time>2019-04-28T12:27:42Z</time>
      </trkpt>
      <trkpt lat="40.4773390" lon="-3.9777670">
        <ele>668.8</ele>
        <time>2019-04-28T12:27:43Z</time>
      </trkpt>
      <trkpt lat="40.4773050" lon="-3.9777200">
        <ele>669.0</ele>
        <time>2019-04-28T12:27:44Z</time>
      </trkpt>
      <trkpt lat="40.4772700" lon="-3.9776720">
        <ele>669.0</ele>
        <time>2019-04-28T12:27:45Z</time>
      </trkpt>
      <trkpt lat="40.4772360" lon="-3.9776230">
        <ele>669.0</ele>
        <time>2019-04-28T12:27:46Z</time>
      </trkpt>
      <trkpt lat="40.4772030" lon="-3.9775670">
        <ele>669.0</ele>
        <time>2019-04-28T12:27:47Z</time>
      </trkpt>
      <trkpt lat="40.4771650" lon="-3.9775170">
        <ele>668.8</ele>
        <time>2019-04-28T12:27:48Z</time>
      </trkpt>
      <trkpt lat="40.4771260" lon="-3.9774660">
        <ele>669.0</ele>
        <time>2019-04-28T12:27:49Z</time>
      </trkpt>
      <trkpt lat="40.4770880" lon="-3.9774170">
        <ele>669.0</ele>
        <time>2019-04-28T12:27:50Z</time>
      </trkpt>
      <trkpt lat="40.4770520" lon="-3.9773690">
        <ele>669.0</ele>
        <time>2019-04-28T12:27:51Z</time>
      </trkpt>
      <trkpt lat="40.4770190" lon="-3.9773180">
        <ele>669.0</ele>
        <time>2019-04-28T12:27:52Z</time>
      </trkpt>
      <trkpt lat="40.4769890" lon="-3.9772610">
        <ele>669.0</ele>
        <time>2019-04-28T12:27:53Z</time>
      </trkpt>
      <trkpt lat="40.4769560" lon="-3.9772090">
        <ele>669.0</ele>
        <time>2019-04-28T12:27:54Z</time>
      </trkpt>
      <trkpt lat="40.4769180" lon="-3.9771660">
        <ele>669.0</ele>
        <time>2019-04-28T12:27:55Z</time>
      </trkpt>
      <trkpt lat="40.4768790" lon="-3.9771190">
        <ele>669.2</ele>
        <time>2019-04-28T12:27:56Z</time>
      </trkpt>
      <trkpt lat="40.4768410" lon="-3.9770710">
        <ele>669.2</ele>
        <time>2019-04-28T12:27:57Z</time>
      </trkpt>
      <trkpt lat="40.4768030" lon="-3.9770230">
        <ele>669.2</ele>
        <time>2019-04-28T12:27:58Z</time>
      </trkpt>
      <trkpt lat="40.4767660" lon="-3.9769720">
        <ele>669.2</ele>
        <time>2019-04-28T12:27:59Z</time>
      </trkpt>
      <trkpt lat="40.4767270" lon="-3.9769250">
        <ele>669.4</ele>
        <time>2019-04-28T12:28:00Z</time>
      </trkpt>
      <trkpt lat="40.4766860" lon="-3.9768780">
        <ele>669.2</ele>
        <time>2019-04-28T12:28:01Z</time>
      </trkpt>
      <trkpt lat="40.4766450" lon="-3.9768320">
        <ele>669.2</ele>
        <time>2019-04-28T12:28:02Z</time>
      </trkpt>
      <trkpt lat="40.4766030" lon="-3.9767860">
        <ele>669.2</ele>
        <time>2019-04-28T12:28:03Z</time>
      </trkpt>
      <trkpt lat="40.4765620" lon="-3.9767420">
        <ele>669.2</ele>
        <time>2019-04-28T12:28:04Z</time>
      </trkpt>
      <trkpt lat="40.4765200" lon="-3.9766980">
        <ele>669.4</ele>
        <time>2019-04-28T12:28:05Z</time>
      </trkpt>
      <trkpt lat="40.4764790" lon="-3.9766540">
        <ele>669.8</ele>
        <time>2019-04-28T12:28:06Z</time>
      </trkpt>
      <trkpt lat="40.4764400" lon="-3.9766090">
        <ele>669.8</ele>
        <time>2019-04-28T12:28:07Z</time>
      </trkpt>
      <trkpt lat="40.4764000" lon="-3.9765660">
        <ele>669.6</ele>
        <time>2019-04-28T12:28:08Z</time>
      </trkpt>
      <trkpt lat="40.4763600" lon="-3.9765260">
        <ele>669.8</ele>
        <time>2019-04-28T12:28:09Z</time>
      </trkpt>
      <trkpt lat="40.4763200" lon="-3.9764850">
        <ele>669.8</ele>
        <time>2019-04-28T12:28:10Z</time>
      </trkpt>
      <trkpt lat="40.4762810" lon="-3.9764460">
        <ele>669.8</ele>
        <time>2019-04-28T12:28:11Z</time>
      </trkpt>
      <trkpt lat="40.4762400" lon="-3.9764060">
        <ele>669.8</ele>
        <time>2019-04-28T12:28:12Z</time>
      </trkpt>
      <trkpt lat="40.4762000" lon="-3.9763630">
        <ele>670.0</ele>
        <time>2019-04-28T12:28:13Z</time>
      </trkpt>
      <trkpt lat="40.4761620" lon="-3.9763180">
        <ele>670.0</ele>
        <time>2019-04-28T12:28:14Z</time>
      </trkpt>
      <trkpt lat="40.4761220" lon="-3.9762770">
        <ele>670.0</ele>
        <time>2019-04-28T12:28:15Z</time>
      </trkpt>
      <trkpt lat="40.4760810" lon="-3.9762360">
        <ele>670.0</ele>
        <time>2019-04-28T12:28:16Z</time>
      </trkpt>
      <trkpt lat="40.4760420" lon="-3.9761950">
        <ele>670.0</ele>
        <time>2019-04-28T12:28:17Z</time>
      </trkpt>
      <trkpt lat="40.4760010" lon="-3.9761560">
        <ele>670.0</ele>
        <time>2019-04-28T12:28:18Z</time>
      </trkpt>
      <trkpt lat="40.4759570" lon="-3.9761160">
        <ele>670.0</ele>
        <time>2019-04-28T12:28:19Z</time>
      </trkpt>
      <trkpt lat="40.4759160" lon="-3.9760780">
        <ele>670.2</ele>
        <time>2019-04-28T12:28:20Z</time>
      </trkpt>
      <trkpt lat="40.4758760" lon="-3.9760390">
        <ele>670.2</ele>
        <time>2019-04-28T12:28:21Z</time>
      </trkpt>
      <trkpt lat="40.4758360" lon="-3.9759950">
        <ele>670.2</ele>
        <time>2019-04-28T12:28:22Z</time>
      </trkpt>
      <trkpt lat="40.4757950" lon="-3.9759510">
        <ele>670.2</ele>
        <time>2019-04-28T12:28:23Z</time>
      </trkpt>
      <trkpt lat="40.4757530" lon="-3.9759060">
        <ele>670.2</ele>
        <time>2019-04-28T12:28:24Z</time>
      </trkpt>
      <trkpt lat="40.4757110" lon="-3.9758610">
        <ele>670.2</ele>
        <time>2019-04-28T12:28:25Z</time>
      </trkpt>
      <trkpt lat="40.4756680" lon="-3.9758180">
        <ele>670.2</ele>
        <time>2019-04-28T12:28:26Z</time>
      </trkpt>
      <trkpt lat="40.4756250" lon="-3.9757730">
        <ele>670.0</ele>
        <time>2019-04-28T12:28:27Z</time>
      </trkpt>
      <trkpt lat="40.4755830" lon="-3.9757260">
        <ele>670.2</ele>
        <time>2019-04-28T12:28:28Z</time>
      </trkpt>
      <trkpt lat="40.4755440" lon="-3.9756750">
        <ele>670.4</ele>
        <time>2019-04-28T12:28:29Z</time>
      </trkpt>
      <trkpt lat="40.4755050" lon="-3.9756260">
        <ele>670.4</ele>
        <time>2019-04-28T12:28:30Z</time>
      </trkpt>
      <trkpt lat="40.4754660" lon="-3.9755790">
        <ele>670.6</ele>
        <time>2019-04-28T12:28:31Z</time>
      </trkpt>
      <trkpt lat="40.4754240" lon="-3.9755320">
        <ele>670.6</ele>
        <time>2019-04-28T12:28:32Z</time>
      </trkpt>
      <trkpt lat="40.4753830" lon="-3.9754830">
        <ele>670.8</ele>
        <time>2019-04-28T12:28:33Z</time>
      </trkpt>
      <trkpt lat="40.4753460" lon="-3.9754350">
        <ele>670.8</ele>
        <time>2019-04-28T12:28:34Z</time>
      </trkpt>
      <trkpt lat="40.4753090" lon="-3.9753840">
        <ele>670.6</ele>
        <time>2019-04-28T12:28:35Z</time>
      </trkpt>
      <trkpt lat="40.4752720" lon="-3.9753330">
        <ele>670.6</ele>
        <time>2019-04-28T12:28:36Z</time>
      </trkpt>
      <trkpt lat="40.4752350" lon="-3.9752820">
        <ele>671.0</ele>
        <time>2019-04-28T12:28:37Z</time>
      </trkpt>
      <trkpt lat="40.4751990" lon="-3.9752320">
        <ele>671.0</ele>
        <time>2019-04-28T12:28:38Z</time>
      </trkpt>
      <trkpt lat="40.4751630" lon="-3.9751830">
        <ele>671.0</ele>
        <time>2019-04-28T12:28:39Z</time>
      </trkpt>
      <trkpt lat="40.4751280" lon="-3.9751350">
        <ele>671.4</ele>
        <time>2019-04-28T12:28:40Z</time>
      </trkpt>
      <trkpt lat="40.4750910" lon="-3.9750850">
        <ele>671.4</ele>
        <time>2019-04-28T12:28:41Z</time>
      </trkpt>
      <trkpt lat="40.4750550" lon="-3.9750340">
        <ele>671.2</ele>
        <time>2019-04-28T12:28:42Z</time>
      </trkpt>
      <trkpt lat="40.4750200" lon="-3.9749850">
        <ele>671.0</ele>
        <time>2019-04-28T12:28:43Z</time>
      </trkpt>
      <trkpt lat="40.4749870" lon="-3.9749370">
        <ele>671.0</ele>
        <time>2019-04-28T12:28:44Z</time>
      </trkpt>
      <trkpt lat="40.4749520" lon="-3.9748850">
        <ele>671.0</ele>
        <time>2019-04-28T12:28:45Z</time>
      </trkpt>
      <trkpt lat="40.4749210" lon="-3.9748380">
        <ele>670.8</ele>
        <time>2019-04-28T12:28:46Z</time>
      </trkpt>
      <trkpt lat="40.4748870" lon="-3.9747890">
        <ele>671.0</ele>
        <time>2019-04-28T12:28:47Z</time>
      </trkpt>
      <trkpt lat="40.4748510" lon="-3.9747420">
        <ele>671.0</ele>
        <time>2019-04-28T12:28:48Z</time>
      </trkpt>
      <trkpt lat="40.4748150" lon="-3.9746970">
        <ele>670.8</ele>
        <time>2019-04-28T12:28:49Z</time>
      </trkpt>
      <trkpt lat="40.4747780" lon="-3.9746530">
        <ele>670.8</ele>
        <time>2019-04-28T12:28:50Z</time>
      </trkpt>
      <trkpt lat="40.4747430" lon="-3.9746080">
        <ele>670.8</ele>
        <time>2019-04-28T12:28:51Z</time>
      </trkpt>
      <trkpt lat="40.4747080" lon="-3.9745650">
        <ele>670.8</ele>
        <time>2019-04-28T12:28:52Z</time>
      </trkpt>
      <trkpt lat="40.4746730" lon="-3.9745220">
        <ele>671.0</ele>
        <time>2019-04-28T12:28:53Z</time>
      </trkpt>
      <trkpt lat="40.4746370" lon="-3.9744770">
        <ele>671.0</ele>
        <time>2019-04-28T12:28:54Z</time>
      </trkpt>
      <trkpt lat="40.4746010" lon="-3.9744360">
        <ele>671.0</ele>
        <time>2019-04-28T12:28:55Z</time>
      </trkpt>
      <trkpt lat="40.4745640" lon="-3.9743890">
        <ele>671.0</ele>
        <time>2019-04-28T12:28:56Z</time>
      </trkpt>
      <trkpt lat="40.4745290" lon="-3.9743400">
        <ele>671.0</ele>
        <time>2019-04-28T12:28:57Z</time>
      </trkpt>
      <trkpt lat="40.4744920" lon="-3.9742900">
        <ele>671.0</ele>
        <time>2019-04-28T12:28:58Z</time>
      </trkpt>
      <trkpt lat="40.4744570" lon="-3.9742410">
        <ele>671.0</ele>
        <time>2019-04-28T12:28:59Z</time>
      </trkpt>
      <trkpt lat="40.4744220" lon="-3.9741940">
        <ele>671.0</ele>
        <time>2019-04-28T12:29:00Z</time>
      </trkpt>
      <trkpt lat="40.4743880" lon="-3.9741470">
        <ele>671.0</ele>
        <time>2019-04-28T12:29:01Z</time>
      </trkpt>
      <trkpt lat="40.4743520" lon="-3.9741000">
        <ele>671.2</ele>
        <time>2019-04-28T12:29:02Z</time>
      </trkpt>
      <trkpt lat="40.4743160" lon="-3.9740490">
        <ele>671.2</ele>
        <time>2019-04-28T12:29:03Z</time>
      </trkpt>
      <trkpt lat="40.4742810" lon="-3.9740020">
        <ele>671.2</ele>
        <time>2019-04-28T12:29:04Z</time>
      </trkpt>
      <trkpt lat="40.4742440" lon="-3.9739520">
        <ele>671.2</ele>
        <time>2019-04-28T12:29:05Z</time>
      </trkpt>
      <trkpt lat="40.4742070" lon="-3.9739020">
        <ele>671.2</ele>
        <time>2019-04-28T12:29:06Z</time>
      </trkpt>
      <trkpt lat="40.4741700" lon="-3.9738490">
        <ele>671.0</ele>
        <time>2019-04-28T12:29:07Z</time>
      </trkpt>
      <trkpt lat="40.4741330" lon="-3.9737930">
        <ele>671.0</ele>
        <time>2019-04-28T12:29:08Z</time>
      </trkpt>
      <trkpt lat="40.4740960" lon="-3.9737350">
        <ele>671.0</ele>
        <time>2019-04-28T12:29:09Z</time>
      </trkpt>
      <trkpt lat="40.4740580" lon="-3.9736810">
        <ele>671.0</ele>
        <time>2019-04-28T12:29:10Z</time>
      </trkpt>
      <trkpt lat="40.4740180" lon="-3.9736280">
        <ele>670.8</ele>
        <time>2019-04-28T12:29:11Z</time>
      </trkpt>
      <trkpt lat="40.4739790" lon="-3.9735740">
        <ele>671.0</ele>
        <time>2019-04-28T12:29:12Z</time>
      </trkpt>
      <trkpt lat="40.4739400" lon="-3.9735200">
        <ele>671.0</ele>
        <time>2019-04-28T12:29:13Z</time>
      </trkpt>
      <trkpt lat="40.4739010" lon="-3.9734670">
        <ele>670.8</ele>
        <time>2019-04-28T12:29:14Z</time>
      </trkpt>
      <trkpt lat="40.4738630" lon="-3.9734180">
        <ele>670.8</ele>
        <time>2019-04-28T12:29:15Z</time>
      </trkpt>
      <trkpt lat="40.4738230" lon="-3.9733640">
        <ele>670.8</ele>
        <time>2019-04-28T12:29:16Z</time>
      </trkpt>
      <trkpt lat="40.4737810" lon="-3.9733150">
        <ele>670.8</ele>
        <time>2019-04-28T12:29:17Z</time>
      </trkpt>
      <trkpt lat="40.4737380" lon="-3.9732700">
        <ele>670.8</ele>
        <time>2019-04-28T12:29:18Z</time>
      </trkpt>
      <trkpt lat="40.4736940" lon="-3.9732230">
        <ele>670.8</ele>
        <time>2019-04-28T12:29:19Z</time>
      </trkpt>
      <trkpt lat="40.4736510" lon="-3.9731770">
        <ele>670.8</ele>
        <time>2019-04-28T12:29:20Z</time>
      </trkpt>
      <trkpt lat="40.4736080" lon="-3.9731310">
        <ele>670.8</ele>
        <time>2019-04-28T12:29:21Z</time>
      </trkpt>
      <trkpt lat="40.4735650" lon="-3.9730850">
        <ele>670.8</ele>
        <time>2019-04-28T12:29:22Z</time>
      </trkpt>
      <trkpt lat="40.4735210" lon="-3.9730430">
        <ele>670.8</ele>
        <time>2019-04-28T12:29:23Z</time>
      </trkpt>
      <trkpt lat="40.4734780" lon="-3.9729980">
        <ele>670.8</ele>
        <time>2019-04-28T12:29:24Z</time>
      </trkpt>
      <trkpt lat="40.4734350" lon="-3.9729520">
        <ele>670.8</ele>
        <time>2019-04-28T12:29:25Z</time>
      </trkpt>
      <trkpt lat="40.4733940" lon="-3.9729030">
        <ele>670.8</ele>
        <time>2019-04-28T12:29:26Z</time>
      </trkpt>
      <trkpt lat="40.4733560" lon="-3.9728520">
        <ele>670.8</ele>
        <time>2019-04-28T12:29:27Z</time>
      </trkpt>
      <trkpt lat="40.4733190" lon="-3.9727980">
        <ele>670.8</ele>
        <time>2019-04-28T12:29:28Z</time>
      </trkpt>
      <trkpt lat="40.4732830" lon="-3.9727440">
        <ele>670.8</ele>
        <time>2019-04-28T12:29:29Z</time>
      </trkpt>
      <trkpt lat="40.4732460" lon="-3.9726920">
        <ele>670.8</ele>
        <time>2019-04-28T12:29:30Z</time>
      </trkpt>
      <trkpt lat="40.4732080" lon="-3.9726400">
        <ele>670.8</ele>
        <time>2019-04-28T12:29:31Z</time>
      </trkpt>
      <trkpt lat="40.4731750" lon="-3.9725820">
        <ele>670.6</ele>
        <time>2019-04-28T12:29:32Z</time>
      </trkpt>
      <trkpt lat="40.4731440" lon="-3.9725210">
        <ele>670.8</ele>
        <time>2019-04-28T12:29:33Z</time>
      </trkpt>
      <trkpt lat="40.4731120" lon="-3.9724640">
        <ele>670.8</ele>
        <time>2019-04-28T12:29:34Z</time>
      </trkpt>
      <trkpt lat="40.4730800" lon="-3.9724040">
        <ele>670.6</ele>
        <time>2019-04-28T12:29:35Z</time>
      </trkpt>
      <trkpt lat="40.4730510" lon="-3.9723450">
        <ele>670.8</ele>
        <time>2019-04-28T12:29:36Z</time>
      </trkpt>
      <trkpt lat="40.4730220" lon="-3.9722870">
        <ele>670.8</ele>
        <time>2019-04-28T12:29:37Z</time>
      </trkpt>
      <trkpt lat="40.4729920" lon="-3.9722250">
        <ele>670.8</ele>
        <time>2019-04-28T12:29:38Z</time>
      </trkpt>
      <trkpt lat="40.4729580" lon="-3.9721690">
        <ele>670.8</ele>
        <time>2019-04-28T12:29:39Z</time>
      </trkpt>
      <trkpt lat="40.4729260" lon="-3.9721090">
        <ele>670.6</ele>
        <time>2019-04-28T12:29:40Z</time>
      </trkpt>
      <trkpt lat="40.4728980" lon="-3.9720450">
        <ele>670.6</ele>
        <time>2019-04-28T12:29:41Z</time>
      </trkpt>
      <trkpt lat="40.4728690" lon="-3.9719790">
        <ele>671.0</ele>
        <time>2019-04-28T12:29:42Z</time>
      </trkpt>
      <trkpt lat="40.4728450" lon="-3.9719190">
        <ele>671.0</ele>
        <time>2019-04-28T12:29:43Z</time>
      </trkpt>
      <trkpt lat="40.4728230" lon="-3.9718580">
        <ele>670.8</ele>
        <time>2019-04-28T12:29:44Z</time>
      </trkpt>
      <trkpt lat="40.4727980" lon="-3.9717990">
        <ele>670.8</ele>
        <time>2019-04-28T12:29:45Z</time>
      </trkpt>
      <trkpt lat="40.4727700" lon="-3.9717410">
        <ele>670.6</ele>
        <time>2019-04-28T12:29:46Z</time>
      </trkpt>
      <trkpt lat="40.4727380" lon="-3.9716820">
        <ele>670.6</ele>
        <time>2019-04-28T12:29:47Z</time>
      </trkpt>
      <trkpt lat="40.4727030" lon="-3.9716230">
        <ele>670.8</ele>
        <time>2019-04-28T12:29:48Z</time>
      </trkpt>
      <trkpt lat="40.4726710" lon="-3.9715610">
        <ele>670.4</ele>
        <time>2019-04-28T12:29:49Z</time>
      </trkpt>
      <trkpt lat="40.4726350" lon="-3.9715000">
        <ele>670.4</ele>
        <time>2019-04-28T12:29:50Z</time>
      </trkpt>
      <trkpt lat="40.4725980" lon="-3.9714410">
        <ele>670.2</ele>
        <time>2019-04-28T12:29:51Z</time>
      </trkpt>
      <trkpt lat="40.4725610" lon="-3.9713790">
        <ele>670.4</ele>
        <time>2019-04-28T12:29:52Z</time>
      </trkpt>
      <trkpt lat="40.4725240" lon="-3.9713170">
        <ele>670.2</ele>
        <time>2019-04-28T12:29:53Z</time>
      </trkpt>
      <trkpt lat="40.4724890" lon="-3.9712550">
        <ele>670.0</ele>
        <time>2019-04-28T12:29:54Z</time>
      </trkpt>
      <trkpt lat="40.4724540" lon="-3.9711930">
        <ele>669.8</ele>
        <time>2019-04-28T12:29:55Z</time>
      </trkpt>
      <trkpt lat="40.4724190" lon="-3.9711330">
        <ele>670.0</ele>
        <time>2019-04-28T12:29:56Z</time>
      </trkpt>
      <trkpt lat="40.4723850" lon="-3.9710740">
        <ele>670.0</ele>
        <time>2019-04-28T12:29:57Z</time>
      </trkpt>
      <trkpt lat="40.4723490" lon="-3.9710160">
        <ele>669.8</ele>
        <time>2019-04-28T12:29:58Z</time>
      </trkpt>
      <trkpt lat="40.4723130" lon="-3.9709590">
        <ele>669.6</ele>
        <time>2019-04-28T12:29:59Z</time>
      </trkpt>
      <trkpt lat="40.4722780" lon="-3.9709000">
        <ele>669.6</ele>
        <time>2019-04-28T12:30:00Z</time>
      </trkpt>
      <trkpt lat="40.4722430" lon="-3.9708420">
        <ele>669.4</ele>
        <time>2019-04-28T12:30:01Z</time>
      </trkpt>
      <trkpt lat="40.4722080" lon="-3.9707850">
        <ele>669.4</ele>
        <time>2019-04-28T12:30:02Z</time>
      </trkpt>
      <trkpt lat="40.4721700" lon="-3.9707290">
        <ele>669.4</ele>
        <time>2019-04-28T12:30:03Z</time>
      </trkpt>
      <trkpt lat="40.4721280" lon="-3.9706780">
        <ele>669.4</ele>
        <time>2019-04-28T12:30:04Z</time>
      </trkpt>
      <trkpt lat="40.4720840" lon="-3.9706280">
        <ele>669.2</ele>
        <time>2019-04-28T12:30:05Z</time>
      </trkpt>
      <trkpt lat="40.4720390" lon="-3.9705810">
        <ele>669.4</ele>
        <time>2019-04-28T12:30:06Z</time>
      </trkpt>
      <trkpt lat="40.4719920" lon="-3.9705330">
        <ele>669.2</ele>
        <time>2019-04-28T12:30:07Z</time>
      </trkpt>
      <trkpt lat="40.4719430" lon="-3.9704890">
        <ele>669.2</ele>
        <time>2019-04-28T12:30:08Z</time>
      </trkpt>
      <trkpt lat="40.4718970" lon="-3.9704610">
        <ele>669.0</ele>
        <time>2019-04-28T12:30:09Z</time>
      </trkpt>
      <trkpt lat="40.4718450" lon="-3.9704350">
        <ele>669.0</ele>
        <time>2019-04-28T12:30:10Z</time>
      </trkpt>
      <trkpt lat="40.4718030" lon="-3.9703940">
        <ele>669.0</ele>
        <time>2019-04-28T12:30:11Z</time>
      </trkpt>
      <trkpt lat="40.4717620" lon="-3.9703540">
        <ele>668.8</ele>
        <time>2019-04-28T12:30:12Z</time>
      </trkpt>
      <trkpt lat="40.4717210" lon="-3.9703100">
        <ele>668.8</ele>
        <time>2019-04-28T12:30:13Z</time>
      </trkpt>
      <trkpt lat="40.4716800" lon="-3.9702590">
        <ele>668.8</ele>
        <time>2019-04-28T12:30:14Z</time>
      </trkpt>
      <trkpt lat="40.4716400" lon="-3.9702090">
        <ele>668.8</ele>
        <time>2019-04-28T12:30:15Z</time>
      </trkpt>
      <trkpt lat="40.4716050" lon="-3.9701690">
        <ele>668.8</ele>
        <time>2019-04-28T12:30:16Z</time>
      </trkpt>
      <trkpt lat="40.4715700" lon="-3.9701280">
        <ele>668.8</ele>
        <time>2019-04-28T12:30:17Z</time>
      </trkpt>
      <trkpt lat="40.4715300" lon="-3.9700830">
        <ele>668.8</ele>
        <time>2019-04-28T12:30:18Z</time>
      </trkpt>
      <trkpt lat="40.4714860" lon="-3.9700470">
        <ele>668.6</ele>
        <time>2019-04-28T12:30:19Z</time>
      </trkpt>
      <trkpt lat="40.4714380" lon="-3.9699980">
        <ele>668.6</ele>
        <time>2019-04-28T12:30:20Z</time>
      </trkpt>
      <trkpt lat="40.4713930" lon="-3.9699490">
        <ele>668.6</ele>
        <time>2019-04-28T12:30:21Z</time>
      </trkpt>
      <trkpt lat="40.4713510" lon="-3.9699020">
        <ele>668.6</ele>
        <time>2019-04-28T12:30:22Z</time>
      </trkpt>
      <trkpt lat="40.4713080" lon="-3.9698500">
        <ele>668.6</ele>
        <time>2019-04-28T12:30:23Z</time>
      </trkpt>
      <trkpt lat="40.4712640" lon="-3.9698030">
        <ele>668.4</ele>
        <time>2019-04-28T12:30:24Z</time>
      </trkpt>
      <trkpt lat="40.4712210" lon="-3.9697520">
        <ele>668.6</ele>
        <time>2019-04-28T12:30:25Z</time>
      </trkpt>
      <trkpt lat="40.4711790" lon="-3.9696940">
        <ele>668.6</ele>
        <time>2019-04-28T12:30:26Z</time>
      </trkpt>
      <trkpt lat="40.4711320" lon="-3.9696480">
        <ele>668.6</ele>
        <time>2019-04-28T12:30:27Z</time>
      </trkpt>
      <trkpt lat="40.4710830" lon="-3.9696000">
        <ele>668.4</ele>
        <time>2019-04-28T12:30:28Z</time>
      </trkpt>
      <trkpt lat="40.4710360" lon="-3.9695520">
        <ele>668.4</ele>
        <time>2019-04-28T12:30:29Z</time>
      </trkpt>
      <trkpt lat="40.4709940" lon="-3.9695010">
        <ele>668.4</ele>
        <time>2019-04-28T12:30:30Z</time>
      </trkpt>
      <trkpt lat="40.4709560" lon="-3.9694460">
        <ele>668.2</ele>
        <time>2019-04-28T12:30:31Z</time>
      </trkpt>
      <trkpt lat="40.4709190" lon="-3.9693880">
        <ele>668.2</ele>
        <time>2019-04-28T12:30:32Z</time>
      </trkpt>
      <trkpt lat="40.4708840" lon="-3.9693300">
        <ele>668.2</ele>
        <time>2019-04-28T12:30:33Z</time>
      </trkpt>
      <trkpt lat="40.4708500" lon="-3.9692700">
        <ele>668.2</ele>
        <time>2019-04-28T12:30:34Z</time>
      </trkpt>
      <trkpt lat="40.4708150" lon="-3.9692100">
        <ele>668.4</ele>
        <time>2019-04-28T12:30:35Z</time>
      </trkpt>
      <trkpt lat="40.4707820" lon="-3.9691470">
        <ele>668.4</ele>
        <time>2019-04-28T12:30:36Z</time>
      </trkpt>
      <trkpt lat="40.4707460" lon="-3.9690790">
        <ele>668.4</ele>
        <time>2019-04-28T12:30:37Z</time>
      </trkpt>
      <trkpt lat="40.4707090" lon="-3.9690210">
        <ele>668.4</ele>
        <time>2019-04-28T12:30:38Z</time>
      </trkpt>
      <trkpt lat="40.4706750" lon="-3.9689620">
        <ele>668.4</ele>
        <time>2019-04-28T12:30:39Z</time>
      </trkpt>
      <trkpt lat="40.4706390" lon="-3.9689010">
        <ele>668.4</ele>
        <time>2019-04-28T12:30:40Z</time>
      </trkpt>
      <trkpt lat="40.4706000" lon="-3.9688390">
        <ele>668.4</ele>
        <time>2019-04-28T12:30:41Z</time>
      </trkpt>
      <trkpt lat="40.4705580" lon="-3.9687850">
        <ele>668.4</ele>
        <time>2019-04-28T12:30:42Z</time>
      </trkpt>
      <trkpt lat="40.4705170" lon="-3.9687390">
        <ele>668.6</ele>
        <time>2019-04-28T12:30:43Z</time>
      </trkpt>
      <trkpt lat="40.4704800" lon="-3.9686850">
        <ele>668.8</ele>
        <time>2019-04-28T12:30:44Z</time>
      </trkpt>
      <trkpt lat="40.4704490" lon="-3.9686300">
        <ele>668.6</ele>
        <time>2019-04-28T12:30:45Z</time>
      </trkpt>
      <trkpt lat="40.4704130" lon="-3.9685730">
        <ele>668.6</ele>
        <time>2019-04-28T12:30:46Z</time>
      </trkpt>
      <trkpt lat="40.4703740" lon="-3.9685210">
        <ele>668.6</ele>
        <time>2019-04-28T12:30:47Z</time>
      </trkpt>
      <trkpt lat="40.4703310" lon="-3.9684630">
        <ele>668.8</ele>
        <time>2019-04-28T12:30:48Z</time>
      </trkpt>
      <trkpt lat="40.4702880" lon="-3.9684070">
        <ele>668.8</ele>
        <time>2019-04-28T12:30:49Z</time>
      </trkpt>
      <trkpt lat="40.4702450" lon="-3.9683540">
        <ele>668.8</ele>
        <time>2019-04-28T12:30:50Z</time>
      </trkpt>
      <trkpt lat="40.4702030" lon="-3.9683030">
        <ele>668.8</ele>
        <time>2019-04-28T12:30:51Z</time>
      </trkpt>
      <trkpt lat="40.4701620" lon="-3.9682490">
        <ele>669.0</ele>
        <time>2019-04-28T12:30:52Z</time>
      </trkpt>
      <trkpt lat="40.4701200" lon="-3.9682010">
        <ele>669.0</ele>
        <time>2019-04-28T12:30:53Z</time>
      </trkpt>
      <trkpt lat="40.4700770" lon="-3.9681550">
        <ele>669.0</ele>
        <time>2019-04-28T12:30:54Z</time>
      </trkpt>
      <trkpt lat="40.4700370" lon="-3.9681040">
        <ele>669.4</ele>
        <time>2019-04-28T12:30:55Z</time>
      </trkpt>
      <trkpt lat="40.4699960" lon="-3.9680530">
        <ele>669.4</ele>
        <time>2019-04-28T12:30:56Z</time>
      </trkpt>
      <trkpt lat="40.4699540" lon="-3.9680020">
        <ele>669.4</ele>
        <time>2019-04-28T12:30:57Z</time>
      </trkpt>
      <trkpt lat="40.4699130" lon="-3.9679510">
        <ele>669.4</ele>
        <time>2019-04-28T12:30:58Z</time>
      </trkpt>
      <trkpt lat="40.4698710" lon="-3.9678970">
        <ele>669.6</ele>
        <time>2019-04-28T12:30:59Z</time>
      </trkpt>
      <trkpt lat="40.4698310" lon="-3.9678440">
        <ele>669.8</ele>
        <time>2019-04-28T12:31:00Z</time>
      </trkpt>
      <trkpt lat="40.4697890" lon="-3.9677900">
        <ele>669.6</ele>
        <time>2019-04-28T12:31:01Z</time>
      </trkpt>
      <trkpt lat="40.4697470" lon="-3.9677410">
        <ele>669.6</ele>
        <time>2019-04-28T12:31:02Z</time>
      </trkpt>
      <trkpt lat="40.4697040" lon="-3.9676900">
        <ele>669.8</ele>
        <time>2019-04-28T12:31:03Z</time>
      </trkpt>
      <trkpt lat="40.4696620" lon="-3.9676410">
        <ele>669.6</ele>
        <time>2019-04-28T12:31:04Z</time>
      </trkpt>
      <trkpt lat="40.4696160" lon="-3.9675920">
        <ele>669.4</ele>
        <time>2019-04-28T12:31:05Z</time>
      </trkpt>
      <trkpt lat="40.4695720" lon="-3.9675400">
        <ele>669.6</ele>
        <time>2019-04-28T12:31:06Z</time>
      </trkpt>
      <trkpt lat="40.4695270" lon="-3.9674890">
        <ele>669.6</ele>
        <time>2019-04-28T12:31:07Z</time>
      </trkpt>
      <trkpt lat="40.4694810" lon="-3.9674420">
        <ele>669.8</ele>
        <time>2019-04-28T12:31:08Z</time>
      </trkpt>
      <trkpt lat="40.4694320" lon="-3.9673940">
        <ele>669.6</ele>
        <time>2019-04-28T12:31:09Z</time>
      </trkpt>
      <trkpt lat="40.4693880" lon="-3.9673420">
        <ele>669.6</ele>
        <time>2019-04-28T12:31:10Z</time>
      </trkpt>
      <trkpt lat="40.4693510" lon="-3.9672830">
        <ele>669.8</ele>
        <time>2019-04-28T12:31:11Z</time>
      </trkpt>
      <trkpt lat="40.4693180" lon="-3.9672210">
        <ele>669.8</ele>
        <time>2019-04-28T12:31:12Z</time>
      </trkpt>
      <trkpt lat="40.4692840" lon="-3.9671600">
        <ele>669.8</ele>
        <time>2019-04-28T12:31:13Z</time>
      </trkpt>
      <trkpt lat="40.4692480" lon="-3.9671030">
        <ele>670.0</ele>
        <time>2019-04-28T12:31:14Z</time>
      </trkpt>
      <trkpt lat="40.4692130" lon="-3.9670410">
        <ele>670.0</ele>
        <time>2019-04-28T12:31:15Z</time>
      </trkpt>
      <trkpt lat="40.4691790" lon="-3.9669780">
        <ele>669.8</ele>
        <time>2019-04-28T12:31:16Z</time>
      </trkpt>
      <trkpt lat="40.4691460" lon="-3.9669190">
        <ele>670.0</ele>
        <time>2019-04-28T12:31:17Z</time>
      </trkpt>
      <trkpt lat="40.4691120" lon="-3.9668560">
        <ele>670.2</ele>
        <time>2019-04-28T12:31:18Z</time>
      </trkpt>
      <trkpt lat="40.4690800" lon="-3.9667980">
        <ele>670.0</ele>
        <time>2019-04-28T12:31:19Z</time>
      </trkpt>
      <trkpt lat="40.4690470" lon="-3.9667370">
        <ele>670.0</ele>
        <time>2019-04-28T12:31:20Z</time>
      </trkpt>
      <trkpt lat="40.4690170" lon="-3.9666760">
        <ele>670.2</ele>
        <time>2019-04-28T12:31:21Z</time>
      </trkpt>
      <trkpt lat="40.4689850" lon="-3.9666160">
        <ele>670.0</ele>
        <time>2019-04-28T12:31:22Z</time>
      </trkpt>
      <trkpt lat="40.4689530" lon="-3.9665590">
        <ele>670.0</ele>
        <time>2019-04-28T12:31:23Z</time>
      </trkpt>
      <trkpt lat="40.4689200" lon="-3.9665030">
        <ele>670.0</ele>
        <time>2019-04-28T12:31:24Z</time>
      </trkpt>
      <trkpt lat="40.4688860" lon="-3.9664440">
        <ele>670.0</ele>
        <time>2019-04-28T12:31:25Z</time>
      </trkpt>
      <trkpt lat="40.4688540" lon="-3.9663850">
        <ele>670.0</ele>
        <time>2019-04-28T12:31:26Z</time>
      </trkpt>
      <trkpt lat="40.4688230" lon="-3.9663260">
        <ele>670.0</ele>
        <time>2019-04-28T12:31:27Z</time>
      </trkpt>
      <trkpt lat="40.4687920" lon="-3.9662680">
        <ele>670.2</ele>
        <time>2019-04-28T12:31:28Z</time>
      </trkpt>
      <trkpt lat="40.4687620" lon="-3.9662110">
        <ele>670.2</ele>
        <time>2019-04-28T12:31:29Z</time>
      </trkpt>
      <trkpt lat="40.4687320" lon="-3.9661540">
        <ele>670.0</ele>
        <time>2019-04-28T12:31:30Z</time>
      </trkpt>
      <trkpt lat="40.4687020" lon="-3.9660930">
        <ele>670.2</ele>
        <time>2019-04-28T12:31:31Z</time>
      </trkpt>
      <trkpt lat="40.4686710" lon="-3.9660320">
        <ele>670.2</ele>
        <time>2019-04-28T12:31:32Z</time>
      </trkpt>
      <trkpt lat="40.4686400" lon="-3.9659750">
        <ele>670.2</ele>
        <time>2019-04-28T12:31:33Z</time>
      </trkpt>
      <trkpt lat="40.4686080" lon="-3.9659190">
        <ele>670.2</ele>
        <time>2019-04-28T12:31:34Z</time>
      </trkpt>
      <trkpt lat="40.4685790" lon="-3.9658600">
        <ele>670.0</ele>
        <time>2019-04-28T12:31:35Z</time>
      </trkpt>
      <trkpt lat="40.4685500" lon="-3.9658000">
        <ele>670.2</ele>
        <time>2019-04-28T12:31:36Z</time>
      </trkpt>
      <trkpt lat="40.4685210" lon="-3.9657410">
        <ele>670.2</ele>
        <time>2019-04-28T12:31:37Z</time>
      </trkpt>
      <trkpt lat="40.4684920" lon="-3.9656800">
        <ele>670.2</ele>
        <time>2019-04-28T12:31:38Z</time>
      </trkpt>
      <trkpt lat="40.4684620" lon="-3.9656180">
        <ele>670.4</ele>
        <time>2019-04-28T12:31:39Z</time>
      </trkpt>
      <trkpt lat="40.4684320" lon="-3.9655590">
        <ele>670.2</ele>
        <time>2019-04-28T12:31:40Z</time>
      </trkpt>
      <trkpt lat="40.4684010" lon="-3.9655000">
        <ele>670.4</ele>
        <time>2019-04-28T12:31:41Z</time>
      </trkpt>
      <trkpt lat="40.4683700" lon="-3.9654360">
        <ele>670.4</ele>
        <time>2019-04-28T12:31:42Z</time>
      </trkpt>
      <trkpt lat="40.4683400" lon="-3.9653780">
        <ele>670.4</ele>
        <time>2019-04-28T12:31:43Z</time>
      </trkpt>
      <trkpt lat="40.4683100" lon="-3.9653200">
        <ele>670.4</ele>
        <time>2019-04-28T12:31:44Z</time>
      </trkpt>
      <trkpt lat="40.4682790" lon="-3.9652620">
        <ele>670.4</ele>
        <time>2019-04-28T12:31:45Z</time>
      </trkpt>
      <trkpt lat="40.4682470" lon="-3.9652050">
        <ele>670.4</ele>
        <time>2019-04-28T12:31:46Z</time>
      </trkpt>
      <trkpt lat="40.4682160" lon="-3.9651480">
        <ele>670.6</ele>
        <time>2019-04-28T12:31:47Z</time>
      </trkpt>
      <trkpt lat="40.4681850" lon="-3.9650910">
        <ele>670.6</ele>
        <time>2019-04-28T12:31:48Z</time>
      </trkpt>
      <trkpt lat="40.4681530" lon="-3.9650320">
        <ele>670.6</ele>
        <time>2019-04-28T12:31:49Z</time>
      </trkpt>
      <trkpt lat="40.4681250" lon="-3.9649780">
        <ele>670.8</ele>
        <time>2019-04-28T12:31:50Z</time>
      </trkpt>
      <trkpt lat="40.4680960" lon="-3.9649190">
        <ele>670.8</ele>
        <time>2019-04-28T12:31:51Z</time>
      </trkpt>
      <trkpt lat="40.4680680" lon="-3.9648600">
        <ele>670.8</ele>
        <time>2019-04-28T12:31:52Z</time>
      </trkpt>
      <trkpt lat="40.4680410" lon="-3.9647980">
        <ele>670.8</ele>
        <time>2019-04-28T12:31:53Z</time>
      </trkpt>
      <trkpt lat="40.4680140" lon="-3.9647350">
        <ele>670.8</ele>
        <time>2019-04-28T12:31:54Z</time>
      </trkpt>
      <trkpt lat="40.4679860" lon="-3.9646740">
        <ele>671.0</ele>
        <time>2019-04-28T12:31:55Z</time>
      </trkpt>
      <trkpt lat="40.4679530" lon="-3.9646140">
        <ele>671.2</ele>
        <time>2019-04-28T12:31:56Z</time>
      </trkpt>
      <trkpt lat="40.4679170" lon="-3.9645610">
        <ele>671.2</ele>
        <time>2019-04-28T12:31:57Z</time>
      </trkpt>
      <trkpt lat="40.4678840" lon="-3.9645070">
        <ele>671.2</ele>
        <time>2019-04-28T12:31:58Z</time>
      </trkpt>
      <trkpt lat="40.4678600" lon="-3.9644420">
        <ele>671.2</ele>
        <time>2019-04-28T12:31:59Z</time>
      </trkpt>
      <trkpt lat="40.4678420" lon="-3.9643740">
        <ele>671.2</ele>
        <time>2019-04-28T12:32:00Z</time>
      </trkpt>
      <trkpt lat="40.4678180" lon="-3.9643080">
        <ele>671.4</ele>
        <time>2019-04-28T12:32:01Z</time>
      </trkpt>
      <trkpt lat="40.4677950" lon="-3.9642430">
        <ele>671.4</ele>
        <time>2019-04-28T12:32:02Z</time>
      </trkpt>
      <trkpt lat="40.4677730" lon="-3.9641760">
        <ele>671.6</ele>
        <time>2019-04-28T12:32:03Z</time>
      </trkpt>
      <trkpt lat="40.4677470" lon="-3.9641110">
        <ele>671.6</ele>
        <time>2019-04-28T12:32:04Z</time>
      </trkpt>
      <trkpt lat="40.4677210" lon="-3.9640490">
        <ele>671.6</ele>
        <time>2019-04-28T12:32:05Z</time>
      </trkpt>
      <trkpt lat="40.4676950" lon="-3.9639840">
        <ele>671.8</ele>
        <time>2019-04-28T12:32:06Z</time>
      </trkpt>
      <trkpt lat="40.4676730" lon="-3.9639170">
        <ele>671.8</ele>
        <time>2019-04-28T12:32:07Z</time>
      </trkpt>
      <trkpt lat="40.4676530" lon="-3.9638480">
        <ele>672.0</ele>
        <time>2019-04-28T12:32:08Z</time>
      </trkpt>
      <trkpt lat="40.4676350" lon="-3.9637810">
        <ele>672.2</ele>
        <time>2019-04-28T12:32:09Z</time>
      </trkpt>
      <trkpt lat="40.4676150" lon="-3.9637140">
        <ele>672.2</ele>
        <time>2019-04-28T12:32:10Z</time>
      </trkpt>
      <trkpt lat="40.4675970" lon="-3.9636460">
        <ele>672.2</ele>
        <time>2019-04-28T12:32:11Z</time>
      </trkpt>
      <trkpt lat="40.4675830" lon="-3.9635760">
        <ele>672.2</ele>
        <time>2019-04-28T12:32:12Z</time>
      </trkpt>
      <trkpt lat="40.4675650" lon="-3.9635070">
        <ele>672.4</ele>
        <time>2019-04-28T12:32:13Z</time>
      </trkpt>
      <trkpt lat="40.4675470" lon="-3.9634370">
        <ele>672.4</ele>
        <time>2019-04-28T12:32:14Z</time>
      </trkpt>
      <trkpt lat="40.4675300" lon="-3.9633660">
        <ele>672.4</ele>
        <time>2019-04-28T12:32:15Z</time>
      </trkpt>
      <trkpt lat="40.4675060" lon="-3.9632950">
        <ele>672.4</ele>
        <time>2019-04-28T12:32:16Z</time>
      </trkpt>
      <trkpt lat="40.4674810" lon="-3.9632230">
        <ele>672.6</ele>
        <time>2019-04-28T12:32:17Z</time>
      </trkpt>
      <trkpt lat="40.4674580" lon="-3.9631550">
        <ele>672.8</ele>
        <time>2019-04-28T12:32:18Z</time>
      </trkpt>
      <trkpt lat="40.4674320" lon="-3.9630860">
        <ele>672.8</ele>
        <time>2019-04-28T12:32:19Z</time>
      </trkpt>
      <trkpt lat="40.4674100" lon="-3.9630190">
        <ele>673.0</ele>
        <time>2019-04-28T12:32:20Z</time>
      </trkpt>
      <trkpt lat="40.4673890" lon="-3.9629520">
        <ele>673.2</ele>
        <time>2019-04-28T12:32:21Z</time>
      </trkpt>
      <trkpt lat="40.4673700" lon="-3.9628870">
        <ele>673.2</ele>
        <time>2019-04-28T12:32:22Z</time>
      </trkpt>
      <trkpt lat="40.4673510" lon="-3.9628210">
        <ele>673.4</ele>
        <time>2019-04-28T12:32:23Z</time>
      </trkpt>
      <trkpt lat="40.4673330" lon="-3.9627580">
        <ele>673.4</ele>
        <time>2019-04-28T12:32:24Z</time>
      </trkpt>
      <trkpt lat="40.4673190" lon="-3.9627010">
        <ele>673.6</ele>
        <time>2019-04-28T12:32:25Z</time>
      </trkpt>
      <trkpt lat="40.4673040" lon="-3.9626440">
        <ele>674.0</ele>
        <time>2019-04-28T12:32:26Z</time>
      </trkpt>
      <trkpt lat="40.4672870" lon="-3.9625910">
        <ele>674.2</ele>
        <time>2019-04-28T12:32:27Z</time>
      </trkpt>
      <trkpt lat="40.4672690" lon="-3.9625390">
        <ele>674.2</ele>
        <time>2019-04-28T12:32:28Z</time>
      </trkpt>
      <trkpt lat="40.4672500" lon="-3.9624850">
        <ele>674.4</ele>
        <time>2019-04-28T12:32:29Z</time>
      </trkpt>
      <trkpt lat="40.4672320" lon="-3.9624290">
        <ele>674.6</ele>
        <time>2019-04-28T12:32:30Z</time>
      </trkpt>
      <trkpt lat="40.4672170" lon="-3.9623720">
        <ele>674.8</ele>
        <time>2019-04-28T12:32:31Z</time>
      </trkpt>
      <trkpt lat="40.4672020" lon="-3.9623140">
        <ele>675.0</ele>
        <time>2019-04-28T12:32:32Z</time>
      </trkpt>
      <trkpt lat="40.4671870" lon="-3.9622600">
        <ele>675.8</ele>
        <time>2019-04-28T12:32:33Z</time>
      </trkpt>
      <trkpt lat="40.4671730" lon="-3.9622060">
        <ele>676.0</ele>
        <time>2019-04-28T12:32:34Z</time>
      </trkpt>
      <trkpt lat="40.4671570" lon="-3.9621500">
        <ele>676.2</ele>
        <time>2019-04-28T12:32:35Z</time>
      </trkpt>
      <trkpt lat="40.4671400" lon="-3.9620960">
        <ele>676.4</ele>
        <time>2019-04-28T12:32:36Z</time>
      </trkpt>
      <trkpt lat="40.4671270" lon="-3.9620470">
        <ele>676.8</ele>
        <time>2019-04-28T12:32:37Z</time>
      </trkpt>
      <trkpt lat="40.4671150" lon="-3.9619970">
        <ele>677.2</ele>
        <time>2019-04-28T12:32:38Z</time>
      </trkpt>
      <trkpt lat="40.4671030" lon="-3.9619480">
        <ele>677.4</ele>
        <time>2019-04-28T12:32:39Z</time>
      </trkpt>
      <trkpt lat="40.4670860" lon="-3.9618920">
        <ele>677.6</ele>
        <time>2019-04-28T12:32:40Z</time>
      </trkpt>
      <trkpt lat="40.4670730" lon="-3.9618470">
        <ele>678.0</ele>
        <time>2019-04-28T12:32:41Z</time>
      </trkpt>
      <trkpt lat="40.4670630" lon="-3.9618010">
        <ele>678.4</ele>
        <time>2019-04-28T12:32:42Z</time>
      </trkpt>
      <trkpt lat="40.4670550" lon="-3.9617600">
        <ele>678.6</ele>
        <time>2019-04-28T12:32:43Z</time>
      </trkpt>
      <trkpt lat="40.4670530" lon="-3.9617370">
        <ele>679.2</ele>
        <time>2019-04-28T12:32:44Z</time>
      </trkpt>
      <trkpt lat="40.4670430" lon="-3.9616890">
        <ele>679.6</ele>
        <time>2019-04-28T12:32:45Z</time>
      </trkpt>
      <trkpt lat="40.4670350" lon="-3.9616420">
        <ele>679.8</ele>
        <time>2019-04-28T12:32:46Z</time>
      </trkpt>
      <trkpt lat="40.4670250" lon="-3.9616020">
        <ele>680.0</ele>
        <time>2019-04-28T12:32:47Z</time>
      </trkpt>
      <trkpt lat="40.4670130" lon="-3.9615590">
        <ele>680.2</ele>
        <time>2019-04-28T12:32:48Z</time>
      </trkpt>
      <trkpt lat="40.4669990" lon="-3.9615120">
        <ele>680.6</ele>
        <time>2019-04-28T12:32:49Z</time>
      </trkpt>
      <trkpt lat="40.4669840" lon="-3.9614600">
        <ele>681.0</ele>
        <time>2019-04-28T12:32:50Z</time>
      </trkpt>
      <trkpt lat="40.4669720" lon="-3.9614220">
        <ele>681.4</ele>
        <time>2019-04-28T12:32:51Z</time>
      </trkpt>
      <trkpt lat="40.4669640" lon="-3.9613840">
        <ele>681.6</ele>
        <time>2019-04-28T12:32:52Z</time>
      </trkpt>
      <trkpt lat="40.4669540" lon="-3.9613420">
        <ele>682.0</ele>
        <time>2019-04-28T12:32:53Z</time>
      </trkpt>
      <trkpt lat="40.4669380" lon="-3.9612900">
        <ele>682.4</ele>
        <time>2019-04-28T12:32:54Z</time>
      </trkpt>
      <trkpt lat="40.4669250" lon="-3.9612340">
        <ele>682.8</ele>
        <time>2019-04-28T12:32:55Z</time>
      </trkpt>
      <trkpt lat="40.4669130" lon="-3.9611970">
        <ele>683.0</ele>
        <time>2019-04-28T12:32:56Z</time>
      </trkpt>
      <trkpt lat="40.4669000" lon="-3.9611580">
        <ele>683.6</ele>
        <time>2019-04-28T12:32:57Z</time>
      </trkpt>
      <trkpt lat="40.4668950" lon="-3.9611210">
        <ele>684.0</ele>
        <time>2019-04-28T12:32:58Z</time>
      </trkpt>
      <trkpt lat="40.4668930" lon="-3.9610890">
        <ele>684.4</ele>
        <time>2019-04-28T12:32:59Z</time>
      </trkpt>
      <trkpt lat="40.4668870" lon="-3.9610520">
        <ele>684.8</ele>
        <time>2019-04-28T12:33:00Z</time>
      </trkpt>
      <trkpt lat="40.4668760" lon="-3.9610080">
        <ele>685.0</ele>
        <time>2019-04-28T12:33:01Z</time>
      </trkpt>
      <trkpt lat="40.4668680" lon="-3.9609760">
        <ele>685.2</ele>
        <time>2019-04-28T12:33:02Z</time>
      </trkpt>
      <trkpt lat="40.4668590" lon="-3.9609540">
        <ele>685.6</ele>
        <time>2019-04-28T12:33:03Z</time>
      </trkpt>
      <trkpt lat="40.4668490" lon="-3.9609310">
        <ele>685.8</ele>
        <time>2019-04-28T12:33:04Z</time>
      </trkpt>
      <trkpt lat="40.4668390" lon="-3.9609000">
        <ele>686.0</ele>
        <time>2019-04-28T12:33:05Z</time>
      </trkpt>
      <trkpt lat="40.4668270" lon="-3.9608630">
        <ele>686.0</ele>
        <time>2019-04-28T12:33:06Z</time>
      </trkpt>
      <trkpt lat="40.4668120" lon="-3.9608150">
        <ele>686.2</ele>
        <time>2019-04-28T12:33:07Z</time>
      </trkpt>
      <trkpt lat="40.4667970" lon="-3.9607730">
        <ele>686.0</ele>
        <time>2019-04-28T12:33:08Z</time>
      </trkpt>
      <trkpt lat="40.4667770" lon="-3.9607160">
        <ele>686.0</ele>
        <time>2019-04-28T12:33:09Z</time>
      </trkpt>
      <trkpt lat="40.4667570" lon="-3.9606590">
        <ele>685.8</ele>
        <time>2019-04-28T12:33:10Z</time>
      </trkpt>
      <trkpt lat="40.4667380" lon="-3.9605980">
        <ele>685.6</ele>
        <time>2019-04-28T12:33:11Z</time>
      </trkpt>
      <trkpt lat="40.4667220" lon="-3.9605330">
        <ele>685.4</ele>
        <time>2019-04-28T12:33:12Z</time>
      </trkpt>
      <trkpt lat="40.4667030" lon="-3.9604660">
        <ele>685.0</ele>
        <time>2019-04-28T12:33:13Z</time>
      </trkpt>
      <trkpt lat="40.4666880" lon="-3.9603950">
        <ele>684.8</ele>
        <time>2019-04-28T12:33:14Z</time>
      </trkpt>
      <trkpt lat="40.4666770" lon="-3.9603200">
        <ele>684.6</ele>
        <time>2019-04-28T12:33:15Z</time>
      </trkpt>
      <trkpt lat="40.4666710" lon="-3.9602400">
        <ele>684.2</ele>
        <time>2019-04-28T12:33:16Z</time>
      </trkpt>
      <trkpt lat="40.4666670" lon="-3.9601570">
        <ele>684.0</ele>
        <time>2019-04-28T12:33:17Z</time>
      </trkpt>
      <trkpt lat="40.4666610" lon="-3.9600710">
        <ele>683.8</ele>
        <time>2019-04-28T12:33:18Z</time>
      </trkpt>
      <trkpt lat="40.4666630" lon="-3.9599900">
        <ele>683.4</ele>
        <time>2019-04-28T12:33:19Z</time>
      </trkpt>
      <trkpt lat="40.4666570" lon="-3.9598990">
        <ele>682.8</ele>
        <time>2019-04-28T12:33:20Z</time>
      </trkpt>
      <trkpt lat="40.4666460" lon="-3.9598040">
        <ele>682.2</ele>
        <time>2019-04-28T12:33:21Z</time>
      </trkpt>
      <trkpt lat="40.4666350" lon="-3.9597030">
        <ele>681.6</ele>
        <time>2019-04-28T12:33:22Z</time>
      </trkpt>
      <trkpt lat="40.4666280" lon="-3.9596070">
        <ele>681.4</ele>
        <time>2019-04-28T12:33:23Z</time>
      </trkpt>
      <trkpt lat="40.4666220" lon="-3.9595080">
        <ele>681.0</ele>
        <time>2019-04-28T12:33:24Z</time>
      </trkpt>
      <trkpt lat="40.4666180" lon="-3.9594080">
        <ele>680.2</ele>
        <time>2019-04-28T12:33:25Z</time>
      </trkpt>
      <trkpt lat="40.4666130" lon="-3.9593040">
        <ele>679.6</ele>
        <time>2019-04-28T12:33:26Z</time>
      </trkpt>
      <trkpt lat="40.4666090" lon="-3.9591980">
        <ele>679.2</ele>
        <time>2019-04-28T12:33:27Z</time>
      </trkpt>
      <trkpt lat="40.4666050" lon="-3.9590910">
        <ele>678.4</ele>
        <time>2019-04-28T12:33:28Z</time>
      </trkpt>
      <trkpt lat="40.4666000" lon="-3.9589820">
        <ele>678.0</ele>
        <time>2019-04-28T12:33:29Z</time>
      </trkpt>
      <trkpt lat="40.4665960" lon="-3.9588700">
        <ele>677.2</ele>
        <time>2019-04-28T12:33:30Z</time>
      </trkpt>
      <trkpt lat="40.4665900" lon="-3.9587540">
        <ele>676.6</ele>
        <time>2019-04-28T12:33:31Z</time>
      </trkpt>
      <trkpt lat="40.4665830" lon="-3.9586320">
        <ele>676.0</ele>
        <time>2019-04-28T12:33:32Z</time>
      </trkpt>
      <trkpt lat="40.4665790" lon="-3.9585210">
        <ele>675.6</ele>
        <time>2019-04-28T12:33:33Z</time>
      </trkpt>
      <trkpt lat="40.4665720" lon="-3.9584090">
        <ele>675.0</ele>
        <time>2019-04-28T12:33:34Z</time>
      </trkpt>
      <trkpt lat="40.4665650" lon="-3.9582970">
        <ele>674.6</ele>
        <time>2019-04-28T12:33:35Z</time>
      </trkpt>
      <trkpt lat="40.4665580" lon="-3.9581850">
        <ele>674.2</ele>
        <time>2019-04-28T12:33:36Z</time>
      </trkpt>
      <trkpt lat="40.4665520" lon="-3.9580710">
        <ele>673.8</ele>
        <time>2019-04-28T12:33:37Z</time>
      </trkpt>
      <trkpt lat="40.4665480" lon="-3.9579570">
        <ele>673.2</ele>
        <time>2019-04-28T12:33:38Z</time>
      </trkpt>
      <trkpt lat="40.4665420" lon="-3.9578410">
        <ele>672.6</ele>
        <time>2019-04-28T12:33:39Z</time>
      </trkpt>
      <trkpt lat="40.4665370" lon="-3.9577240">
        <ele>672.2</ele>
        <time>2019-04-28T12:33:40Z</time>
      </trkpt>
      <trkpt lat="40.4665320" lon="-3.9576070">
        <ele>671.4</ele>
        <time>2019-04-28T12:33:41Z</time>
      </trkpt>
      <trkpt lat="40.4665260" lon="-3.9574870">
        <ele>670.6</ele>
        <time>2019-04-28T12:33:42Z</time>
      </trkpt>
      <trkpt lat="40.4665180" lon="-3.9573680">
        <ele>669.8</ele>
        <time>2019-04-28T12:33:43Z</time>
      </trkpt>
      <trkpt lat="40.4665110" lon="-3.9572600">
        <ele>669.2</ele>
        <time>2019-04-28T12:33:44Z</time>
      </trkpt>
      <trkpt lat="40.4665010" lon="-3.9571470">
        <ele>668.6</ele>
        <time>2019-04-28T12:33:45Z</time>
      </trkpt>
      <trkpt lat="40.4664950" lon="-3.9570410">
        <ele>668.0</ele>
        <time>2019-04-28T12:33:46Z</time>
      </trkpt>
      <trkpt lat="40.4664940" lon="-3.9569530">
        <ele>667.2</ele>
        <time>2019-04-28T12:33:47Z</time>
      </trkpt>
      <trkpt lat="40.4664850" lon="-3.9568680">
        <ele>666.8</ele>
        <time>2019-04-28T12:33:48Z</time>
      </trkpt>
      <trkpt lat="40.4664660" lon="-3.9567890">
        <ele>666.2</ele>
        <time>2019-04-28T12:33:49Z</time>
      </trkpt>
      <trkpt lat="40.4664460" lon="-3.9567270">
        <ele>665.6</ele>
        <time>2019-04-28T12:33:50Z</time>
      </trkpt>
      <trkpt lat="40.4664240" lon="-3.9566640">
        <ele>665.4</ele>
        <time>2019-04-28T12:33:51Z</time>
      </trkpt>
      <trkpt lat="40.4664050" lon="-3.9566110">
        <ele>665.0</ele>
        <time>2019-04-28T12:33:52Z</time>
      </trkpt>
      <trkpt lat="40.4663870" lon="-3.9565490">
        <ele>665.0</ele>
        <time>2019-04-28T12:33:53Z</time>
      </trkpt>
      <trkpt lat="40.4663750" lon="-3.9564830">
        <ele>665.0</ele>
        <time>2019-04-28T12:33:54Z</time>
      </trkpt>
      <trkpt lat="40.4663690" lon="-3.9564070">
        <ele>664.6</ele>
        <time>2019-04-28T12:33:55Z</time>
      </trkpt>
      <trkpt lat="40.4663620" lon="-3.9563200">
        <ele>664.6</ele>
        <time>2019-04-28T12:33:56Z</time>
      </trkpt>
      <trkpt lat="40.4663560" lon="-3.9562360">
        <ele>664.4</ele>
        <time>2019-04-28T12:33:57Z</time>
      </trkpt>
      <trkpt lat="40.4663490" lon="-3.9561490">
        <ele>664.0</ele>
        <time>2019-04-28T12:33:58Z</time>
      </trkpt>
      <trkpt lat="40.4663440" lon="-3.9560680">
        <ele>664.0</ele>
        <time>2019-04-28T12:33:59Z</time>
      </trkpt>
      <trkpt lat="40.4663370" lon="-3.9559760">
        <ele>663.6</ele>
        <time>2019-04-28T12:34:00Z</time>
      </trkpt>
      <trkpt lat="40.4663210" lon="-3.9558650">
        <ele>663.6</ele>
        <time>2019-04-28T12:34:01Z</time>
      </trkpt>
      <trkpt lat="40.4663080" lon="-3.9557550">
        <ele>663.2</ele>
        <time>2019-04-28T12:34:02Z</time>
      </trkpt>
      <trkpt lat="40.4662960" lon="-3.9556580">
        <ele>663.2</ele>
        <time>2019-04-28T12:34:03Z</time>
      </trkpt>
      <trkpt lat="40.4662890" lon="-3.9555760">
        <ele>663.0</ele>
        <time>2019-04-28T12:34:04Z</time>
      </trkpt>
      <trkpt lat="40.4662840" lon="-3.9554900">
        <ele>662.8</ele>
        <time>2019-04-28T12:34:05Z</time>
      </trkpt>
      <trkpt lat="40.4662790" lon="-3.9553990">
        <ele>662.6</ele>
        <time>2019-04-28T12:34:06Z</time>
      </trkpt>
      <trkpt lat="40.4662720" lon="-3.9553080">
        <ele>662.4</ele>
        <time>2019-04-28T12:34:07Z</time>
      </trkpt>
      <trkpt lat="40.4662660" lon="-3.9552200">
        <ele>662.2</ele>
        <time>2019-04-28T12:34:08Z</time>
      </trkpt>
      <trkpt lat="40.4662590" lon="-3.9551350">
        <ele>661.8</ele>
        <time>2019-04-28T12:34:09Z</time>
      </trkpt>
      <trkpt lat="40.4662510" lon="-3.9550460">
        <ele>661.6</ele>
        <time>2019-04-28T12:34:10Z</time>
      </trkpt>
      <trkpt lat="40.4662460" lon="-3.9549620">
        <ele>661.6</ele>
        <time>2019-04-28T12:34:11Z</time>
      </trkpt>
      <trkpt lat="40.4662340" lon="-3.9548790">
        <ele>661.4</ele>
        <time>2019-04-28T12:34:12Z</time>
      </trkpt>
      <trkpt lat="40.4662260" lon="-3.9547910">
        <ele>661.0</ele>
        <time>2019-04-28T12:34:13Z</time>
      </trkpt>
      <trkpt lat="40.4662210" lon="-3.9547090">
        <ele>661.0</ele>
        <time>2019-04-28T12:34:14Z</time>
      </trkpt>
      <trkpt lat="40.4662160" lon="-3.9546330">
        <ele>660.6</ele>
        <time>2019-04-28T12:34:15Z</time>
      </trkpt>
      <trkpt lat="40.4662100" lon="-3.9545520">
        <ele>660.4</ele>
        <time>2019-04-28T12:34:16Z</time>
      </trkpt>
      <trkpt lat="40.4662040" lon="-3.9544680">
        <ele>660.2</ele>
        <time>2019-04-28T12:34:17Z</time>
      </trkpt>
      <trkpt lat="40.4661980" lon="-3.9543830">
        <ele>660.2</ele>
        <time>2019-04-28T12:34:18Z</time>
      </trkpt>
      <trkpt lat="40.4661950" lon="-3.9542960">
        <ele>659.8</ele>
        <time>2019-04-28T12:34:19Z</time>
      </trkpt>
      <trkpt lat="40.4661910" lon="-3.9542080">
        <ele>659.6</ele>
        <time>2019-04-28T12:34:20Z</time>
      </trkpt>
      <trkpt lat="40.4661870" lon="-3.9541170">
        <ele>659.2</ele>
        <time>2019-04-28T12:34:21Z</time>
      </trkpt>
      <trkpt lat="40.4661820" lon="-3.9540250">
        <ele>658.8</ele>
        <time>2019-04-28T12:34:22Z</time>
      </trkpt>
      <trkpt lat="40.4661750" lon="-3.9539310">
        <ele>658.6</ele>
        <time>2019-04-28T12:34:23Z</time>
      </trkpt>
      <trkpt lat="40.4661680" lon="-3.9538320">
        <ele>658.2</ele>
        <time>2019-04-28T12:34:24Z</time>
      </trkpt>
      <trkpt lat="40.4661630" lon="-3.9537340">
        <ele>658.2</ele>
        <time>2019-04-28T12:34:25Z</time>
      </trkpt>
      <trkpt lat="40.4661560" lon="-3.9536360">
        <ele>658.0</ele>
        <time>2019-04-28T12:34:26Z</time>
      </trkpt>
      <trkpt lat="40.4661480" lon="-3.9535390">
        <ele>657.8</ele>
        <time>2019-04-28T12:34:27Z</time>
      </trkpt>
      <trkpt lat="40.4661400" lon="-3.9534450">
        <ele>657.8</ele>
        <time>2019-04-28T12:34:28Z</time>
      </trkpt>
      <trkpt lat="40.4661340" lon="-3.9533530">
        <ele>657.6</ele>
        <time>2019-04-28T12:34:29Z</time>
      </trkpt>
      <trkpt lat="40.4661330" lon="-3.9532590">
        <ele>657.4</ele>
        <time>2019-04-28T12:34:30Z</time>
      </trkpt>
      <trkpt lat="40.4661360" lon="-3.9531690">
        <ele>657.4</ele>
        <time>2019-04-28T12:34:31Z</time>
      </trkpt>
      <trkpt lat="40.4661460" lon="-3.9530770">
        <ele>657.4</ele>
        <time>2019-04-28T12:34:32Z</time>
      </trkpt>
      <trkpt lat="40.4661610" lon="-3.9529900">
        <ele>657.0</ele>
        <time>2019-04-28T12:34:33Z</time>
      </trkpt>
      <trkpt lat="40.4661730" lon="-3.9529080">
        <ele>657.0</ele>
        <time>2019-04-28T12:34:34Z</time>
      </trkpt>
      <trkpt lat="40.4661790" lon="-3.9528160">
        <ele>656.8</ele>
        <time>2019-04-28T12:34:35Z</time>
      </trkpt>
      <trkpt lat="40.4661810" lon="-3.9527230">
        <ele>656.6</ele>
        <time>2019-04-28T12:34:36Z</time>
      </trkpt>
      <trkpt lat="40.4661800" lon="-3.9526300">
        <ele>656.6</ele>
        <time>2019-04-28T12:34:37Z</time>
      </trkpt>
      <trkpt lat="40.4661750" lon="-3.9525380">
        <ele>656.4</ele>
        <time>2019-04-28T12:34:38Z</time>
      </trkpt>
      <trkpt lat="40.4661690" lon="-3.9524440">
        <ele>656.2</ele>
        <time>2019-04-28T12:34:39Z</time>
      </trkpt>
      <trkpt lat="40.4661630" lon="-3.9523460">
        <ele>655.8</ele>
        <time>2019-04-28T12:34:40Z</time>
      </trkpt>
      <trkpt lat="40.4661580" lon="-3.9522500">
        <ele>655.4</ele>
        <time>2019-04-28T12:34:41Z</time>
      </trkpt>
      <trkpt lat="40.4661550" lon="-3.9521530">
        <ele>655.2</ele>
        <time>2019-04-28T12:34:42Z</time>
      </trkpt>
      <trkpt lat="40.4661490" lon="-3.9520490">
        <ele>654.6</ele>
        <time>2019-04-28T12:34:43Z</time>
      </trkpt>
      <trkpt lat="40.4661400" lon="-3.9519430">
        <ele>654.4</ele>
        <time>2019-04-28T12:34:44Z</time>
      </trkpt>
      <trkpt lat="40.4661320" lon="-3.9518320">
        <ele>653.6</ele>
        <time>2019-04-28T12:34:45Z</time>
      </trkpt>
      <trkpt lat="40.4661330" lon="-3.9517200">
        <ele>653.0</ele>
        <time>2019-04-28T12:34:46Z</time>
      </trkpt>
      <trkpt lat="40.4661310" lon="-3.9516100">
        <ele>652.2</ele>
        <time>2019-04-28T12:34:47Z</time>
      </trkpt>
      <trkpt lat="40.4661290" lon="-3.9515020">
        <ele>651.8</ele>
        <time>2019-04-28T12:34:48Z</time>
      </trkpt>
      <trkpt lat="40.4661240" lon="-3.9513860">
        <ele>651.4</ele>
        <time>2019-04-28T12:34:49Z</time>
      </trkpt>
      <trkpt lat="40.4661150" lon="-3.9512780">
        <ele>650.6</ele>
        <time>2019-04-28T12:34:50Z</time>
      </trkpt>
      <trkpt lat="40.4661010" lon="-3.9511520">
        <ele>650.0</ele>
        <time>2019-04-28T12:34:51Z</time>
      </trkpt>
      <trkpt lat="40.4660910" lon="-3.9510340">
        <ele>649.4</ele>
        <time>2019-04-28T12:34:52Z</time>
      </trkpt>
      <trkpt lat="40.4660870" lon="-3.9509150">
        <ele>649.6</ele>
        <time>2019-04-28T12:34:53Z</time>
      </trkpt>
      <trkpt lat="40.4660810" lon="-3.9507900">
        <ele>648.8</ele>
        <time>2019-04-28T12:34:54Z</time>
      </trkpt>
      <trkpt lat="40.4660720" lon="-3.9506590">
        <ele>648.2</ele>
        <time>2019-04-28T12:34:55Z</time>
      </trkpt>
      <trkpt lat="40.4660600" lon="-3.9505210">
        <ele>647.6</ele>
        <time>2019-04-28T12:34:56Z</time>
      </trkpt>
      <trkpt lat="40.4660530" lon="-3.9503920">
        <ele>647.0</ele>
        <time>2019-04-28T12:34:57Z</time>
      </trkpt>
      <trkpt lat="40.4660430" lon="-3.9502600">
        <ele>646.6</ele>
        <time>2019-04-28T12:34:58Z</time>
      </trkpt>
      <trkpt lat="40.4660350" lon="-3.9501380">
        <ele>646.0</ele>
        <time>2019-04-28T12:34:59Z</time>
      </trkpt>
      <trkpt lat="40.4660310" lon="-3.9500380">
        <ele>645.4</ele>
        <time>2019-04-28T12:35:00Z</time>
      </trkpt>
      <trkpt lat="40.4660210" lon="-3.9499600">
        <ele>645.0</ele>
        <time>2019-04-28T12:35:01Z</time>
      </trkpt>
      <trkpt lat="40.4660060" lon="-3.9498970">
        <ele>644.6</ele>
        <time>2019-04-28T12:35:02Z</time>
      </trkpt>
      <trkpt lat="40.4659730" lon="-3.9498540">
        <ele>644.6</ele>
        <time>2019-04-28T12:35:03Z</time>
      </trkpt>
      <trkpt lat="40.4659320" lon="-3.9498270">
        <ele>644.2</ele>
        <time>2019-04-28T12:35:04Z</time>
      </trkpt>
      <trkpt lat="40.4658930" lon="-3.9498160">
        <ele>644.0</ele>
        <time>2019-04-28T12:35:05Z</time>
      </trkpt>
      <trkpt lat="40.4658690" lon="-3.9498440">
        <ele>644.0</ele>
        <time>2019-04-28T12:35:06Z</time>
      </trkpt>
      <trkpt lat="40.4658370" lon="-3.9498690">
        <ele>644.0</ele>
        <time>2019-04-28T12:35:07Z</time>
      </trkpt>
      <trkpt lat="40.4657920" lon="-3.9498720">
        <ele>644.0</ele>
        <time>2019-04-28T12:35:08Z</time>
      </trkpt>
      <trkpt lat="40.4657390" lon="-3.9498740">
        <ele>644.0</ele>
        <time>2019-04-28T12:35:09Z</time>
      </trkpt>
      <trkpt lat="40.4656890" lon="-3.9498750">
        <ele>644.2</ele>
        <time>2019-04-28T12:35:10Z</time>
      </trkpt>
      <trkpt lat="40.4656410" lon="-3.9498730">
        <ele>644.2</ele>
        <time>2019-04-28T12:35:11Z</time>
      </trkpt>
      <trkpt lat="40.4656020" lon="-3.9498720">
        <ele>644.2</ele>
        <time>2019-04-28T12:35:12Z</time>
      </trkpt>
      <trkpt lat="40.4655650" lon="-3.9498760">
        <ele>644.2</ele>
        <time>2019-04-28T12:35:13Z</time>
      </trkpt>
      <trkpt lat="40.4655300" lon="-3.9498700">
        <ele>644.2</ele>
        <time>2019-04-28T12:35:14Z</time>
      </trkpt>
      <trkpt lat="40.4654960" lon="-3.9498750">
        <ele>644.2</ele>
        <time>2019-04-28T12:35:15Z</time>
      </trkpt>
      <trkpt lat="40.4654660" lon="-3.9498740">
        <ele>644.4</ele>
        <time>2019-04-28T12:35:16Z</time>
      </trkpt>
      <trkpt lat="40.4654420" lon="-3.9498780">
        <ele>644.4</ele>
        <time>2019-04-28T12:35:17Z</time>
      </trkpt>
      <trkpt lat="40.4654160" lon="-3.9498820">
        <ele>644.4</ele>
        <time>2019-04-28T12:35:18Z</time>
      </trkpt>
      <trkpt lat="40.4653920" lon="-3.9498800">
        <ele>644.6</ele>
        <time>2019-04-28T12:35:19Z</time>
      </trkpt>
      <trkpt lat="40.4653660" lon="-3.9498760">
        <ele>644.6</ele>
        <time>2019-04-28T12:35:20Z</time>
      </trkpt>
      <trkpt lat="40.4653410" lon="-3.9498790">
        <ele>644.6</ele>
        <time>2019-04-28T12:35:21Z</time>
      </trkpt>
      <trkpt lat="40.4653200" lon="-3.9498810">
        <ele>644.6</ele>
        <time>2019-04-28T12:35:22Z</time>
      </trkpt>
      <trkpt lat="40.4653000" lon="-3.9498780">
        <ele>644.6</ele>
        <time>2019-04-28T12:35:23Z</time>
      </trkpt>
      <trkpt lat="40.4652790" lon="-3.9498790">
        <ele>644.6</ele>
        <time>2019-04-28T12:35:24Z</time>
      </trkpt>
      <trkpt lat="40.4652560" lon="-3.9498790">
        <ele>644.8</ele>
        <time>2019-04-28T12:35:25Z</time>
      </trkpt>
      <trkpt lat="40.4652310" lon="-3.9498780">
        <ele>644.8</ele>
        <time>2019-04-28T12:35:26Z</time>
      </trkpt>
      <trkpt lat="40.4652120" lon="-3.9498800">
        <ele>644.8</ele>
        <time>2019-04-28T12:35:27Z</time>
      </trkpt>
      <trkpt lat="40.4651940" lon="-3.9498730">
        <ele>644.8</ele>
        <time>2019-04-28T12:35:28Z</time>
      </trkpt>
      <trkpt lat="40.4651760" lon="-3.9498810">
        <ele>644.8</ele>
        <time>2019-04-28T12:35:29Z</time>
      </trkpt>
      <trkpt lat="40.4651460" lon="-3.9498850">
        <ele>645.0</ele>
        <time>2019-04-28T12:35:30Z</time>
      </trkpt>
      <trkpt lat="40.4651100" lon="-3.9498890">
        <ele>645.0</ele>
        <time>2019-04-28T12:35:31Z</time>
      </trkpt>
      <trkpt lat="40.4650730" lon="-3.9498920">
        <ele>645.0</ele>
        <time>2019-04-28T12:35:32Z</time>
      </trkpt>
      <trkpt lat="40.4650310" lon="-3.9498910">
        <ele>645.0</ele>
        <time>2019-04-28T12:35:33Z</time>
      </trkpt>
      <trkpt lat="40.4649840" lon="-3.9498880">
        <ele>645.2</ele>
        <time>2019-04-28T12:35:34Z</time>
      </trkpt>
      <trkpt lat="40.4649440" lon="-3.9498770">
        <ele>645.4</ele>
        <time>2019-04-28T12:35:35Z</time>
      </trkpt>
      <trkpt lat="40.4649040" lon="-3.9498510">
        <ele>645.6</ele>
        <time>2019-04-28T12:35:36Z</time>
      </trkpt>
      <trkpt lat="40.4648790" lon="-3.9498190">
        <ele>645.8</ele>
        <time>2019-04-28T12:35:37Z</time>
      </trkpt>
      <trkpt lat="40.4648620" lon="-3.9497740">
        <ele>646.0</ele>
        <time>2019-04-28T12:35:38Z</time>
      </trkpt>
      <trkpt lat="40.4648540" lon="-3.9497190">
        <ele>645.6</ele>
        <time>2019-04-28T12:35:39Z</time>
      </trkpt>
      <trkpt lat="40.4648550" lon="-3.9496630">
        <ele>645.4</ele>
        <time>2019-04-28T12:35:40Z</time>
      </trkpt>
      <trkpt lat="40.4648690" lon="-3.9496080">
        <ele>645.0</ele>
        <time>2019-04-28T12:35:41Z</time>
      </trkpt>
      <trkpt lat="40.4648940" lon="-3.9495580">
        <ele>644.8</ele>
        <time>2019-04-28T12:35:42Z</time>
      </trkpt>
      <trkpt lat="40.4649260" lon="-3.9495140">
        <ele>644.6</ele>
        <time>2019-04-28T12:35:43Z</time>
      </trkpt>
      <trkpt lat="40.4649600" lon="-3.9494690">
        <ele>644.4</ele>
        <time>2019-04-28T12:35:44Z</time>
      </trkpt>
      <trkpt lat="40.4649970" lon="-3.9494270">
        <ele>644.2</ele>
        <time>2019-04-28T12:35:45Z</time>
      </trkpt>
      <trkpt lat="40.4650300" lon="-3.9493840">
        <ele>644.0</ele>
        <time>2019-04-28T12:35:46Z</time>
      </trkpt>
      <trkpt lat="40.4650590" lon="-3.9493490">
        <ele>643.8</ele>
        <time>2019-04-28T12:35:47Z</time>
      </trkpt>
      <trkpt lat="40.4650820" lon="-3.9493070">
        <ele>643.4</ele>
        <time>2019-04-28T12:35:48Z</time>
      </trkpt>
      <trkpt lat="40.4650990" lon="-3.9492690">
        <ele>643.2</ele>
        <time>2019-04-28T12:35:49Z</time>
      </trkpt>
      <trkpt lat="40.4651130" lon="-3.9492330">
        <ele>643.0</ele>
        <time>2019-04-28T12:35:50Z</time>
      </trkpt>
      <trkpt lat="40.4651290" lon="-3.9492070">
        <ele>643.0</ele>
        <time>2019-04-28T12:35:51Z</time>
      </trkpt>
      <trkpt lat="40.4651470" lon="-3.9491890">
        <ele>642.8</ele>
        <time>2019-04-28T12:35:52Z</time>
      </trkpt>
      <trkpt lat="40.4651670" lon="-3.9491780">
        <ele>642.8</ele>
        <time>2019-04-28T12:35:53Z</time>
      </trkpt>
      <trkpt lat="40.4651860" lon="-3.9491770">
        <ele>643.0</ele>
        <time>2019-04-28T12:35:54Z</time>
      </trkpt>
      <trkpt lat="40.4651980" lon="-3.9491880">
        <ele>642.8</ele>
        <time>2019-04-28T12:35:55Z</time>
      </trkpt>
      <trkpt lat="40.4652080" lon="-3.9492010">
        <ele>642.6</ele>
        <time>2019-04-28T12:35:56Z</time>
      </trkpt>
      <trkpt lat="40.4652170" lon="-3.9492110">
        <ele>642.6</ele>
        <time>2019-04-28T12:35:57Z</time>
      </trkpt>
      <trkpt lat="40.4652210" lon="-3.9492140">
        <ele>642.8</ele>
        <time>2019-04-28T12:35:58Z</time>
      </trkpt>
      <trkpt lat="40.4652200" lon="-3.9492120">
        <ele>642.8</ele>
        <time>2019-04-28T12:35:59Z</time>
      </trkpt>
      <trkpt lat="40.4652200" lon="-3.9492140">
        <ele>643.0</ele>
        <time>2019-04-28T12:36:00Z</time>
      </trkpt>
      <trkpt lat="40.4652220" lon="-3.9492110">
        <ele>642.8</ele>
        <time>2019-04-28T12:36:01Z</time>
      </trkpt>
      <trkpt lat="40.4652240" lon="-3.9492140">
        <ele>642.8</ele>
        <time>2019-04-28T12:36:02Z</time>
      </trkpt>
      <trkpt lat="40.4652260" lon="-3.9492110">
        <ele>642.8</ele>
        <time>2019-04-28T12:36:03Z</time>
      </trkpt>
      <trkpt lat="40.4652300" lon="-3.9492060">
        <ele>642.6</ele>
        <time>2019-04-28T12:36:04Z</time>
      </trkpt>
      <trkpt lat="40.4652350" lon="-3.9492060">
        <ele>642.6</ele>
        <time>2019-04-28T12:36:05Z</time>
      </trkpt>
      <trkpt lat="40.4652160" lon="-3.9489740">
        <ele>642.8</ele>
        <time>2019-04-28T12:56:11Z</time>
      </trkpt>
      <trkpt lat="40.4652060" lon="-3.9489590">
        <ele>642.8</ele>
        <time>2019-04-28T12:56:12Z</time>
      </trkpt>
      <trkpt lat="40.4651910" lon="-3.9489500">
        <ele>642.8</ele>
        <time>2019-04-28T12:56:13Z</time>
      </trkpt>
      <trkpt lat="40.4651780" lon="-3.9489400">
        <ele>643.0</ele>
        <time>2019-04-28T12:56:14Z</time>
      </trkpt>
      <trkpt lat="40.4651740" lon="-3.9489280">
        <ele>643.2</ele>
        <time>2019-04-28T12:56:15Z</time>
      </trkpt>
      <trkpt lat="40.4651670" lon="-3.9489130">
        <ele>643.2</ele>
        <time>2019-04-28T12:56:16Z</time>
      </trkpt>
      <trkpt lat="40.4651700" lon="-3.9488980">
        <ele>643.2</ele>
        <time>2019-04-28T12:56:17Z</time>
      </trkpt>
      <trkpt lat="40.4651690" lon="-3.9488860">
        <ele>643.2</ele>
        <time>2019-04-28T12:56:18Z</time>
      </trkpt>
      <trkpt lat="40.4651690" lon="-3.9488730">
        <ele>643.2</ele>
        <time>2019-04-28T12:56:19Z</time>
      </trkpt>
      <trkpt lat="40.4651780" lon="-3.9488600">
        <ele>643.2</ele>
        <time>2019-04-28T12:56:20Z</time>
      </trkpt>
      <trkpt lat="40.4651850" lon="-3.9488520">
        <ele>643.2</ele>
        <time>2019-04-28T12:56:21Z</time>
      </trkpt>
      <trkpt lat="40.4651910" lon="-3.9488440">
        <ele>643.0</ele>
        <time>2019-04-28T12:56:22Z</time>
      </trkpt>
      <trkpt lat="40.4651940" lon="-3.9488300">
        <ele>643.0</ele>
        <time>2019-04-28T12:56:23Z</time>
      </trkpt>
      <trkpt lat="40.4651970" lon="-3.9488130">
        <ele>643.0</ele>
        <time>2019-04-28T12:56:24Z</time>
      </trkpt>
      <trkpt lat="40.4651950" lon="-3.9487960">
        <ele>643.0</ele>
        <time>2019-04-28T12:56:25Z</time>
      </trkpt>
      <trkpt lat="40.4651950" lon="-3.9487790">
        <ele>642.8</ele>
        <time>2019-04-28T12:56:26Z</time>
      </trkpt>
      <trkpt lat="40.4651820" lon="-3.9487550">
        <ele>642.8</ele>
        <time>2019-04-28T12:56:27Z</time>
      </trkpt>
      <trkpt lat="40.4651550" lon="-3.9487320">
        <ele>642.6</ele>
        <time>2019-04-28T12:56:28Z</time>
      </trkpt>
      <trkpt lat="40.4651290" lon="-3.9487160">
        <ele>642.6</ele>
        <time>2019-04-28T12:56:29Z</time>
      </trkpt>
      <trkpt lat="40.4650960" lon="-3.9487090">
        <ele>642.6</ele>
        <time>2019-04-28T12:56:30Z</time>
      </trkpt>
      <trkpt lat="40.4650640" lon="-3.9487110">
        <ele>642.8</ele>
        <time>2019-04-28T12:56:31Z</time>
      </trkpt>
      <trkpt lat="40.4650400" lon="-3.9487110">
        <ele>642.8</ele>
        <time>2019-04-28T12:56:32Z</time>
      </trkpt>
      <trkpt lat="40.4650110" lon="-3.9487010">
        <ele>642.6</ele>
        <time>2019-04-28T12:56:33Z</time>
      </trkpt>
      <trkpt lat="40.4649870" lon="-3.9486920">
        <ele>642.6</ele>
        <time>2019-04-28T12:56:34Z</time>
      </trkpt>
      <trkpt lat="40.4649580" lon="-3.9486740">
        <ele>642.6</ele>
        <time>2019-04-28T12:56:35Z</time>
      </trkpt>
      <trkpt lat="40.4649340" lon="-3.9486540">
        <ele>642.4</ele>
        <time>2019-04-28T12:56:36Z</time>
      </trkpt>
      <trkpt lat="40.4649050" lon="-3.9486140">
        <ele>642.2</ele>
        <time>2019-04-28T12:56:37Z</time>
      </trkpt>
      <trkpt lat="40.4648840" lon="-3.9485660">
        <ele>642.2</ele>
        <time>2019-04-28T12:56:38Z</time>
      </trkpt>
      <trkpt lat="40.4648620" lon="-3.9485130">
        <ele>642.2</ele>
        <time>2019-04-28T12:56:39Z</time>
      </trkpt>
      <trkpt lat="40.4648400" lon="-3.9484630">
        <ele>642.2</ele>
        <time>2019-04-28T12:56:40Z</time>
      </trkpt>
      <trkpt lat="40.4648190" lon="-3.9484080">
        <ele>642.2</ele>
        <time>2019-04-28T12:56:41Z</time>
      </trkpt>
      <trkpt lat="40.4648030" lon="-3.9483600">
        <ele>642.4</ele>
        <time>2019-04-28T12:56:42Z</time>
      </trkpt>
      <trkpt lat="40.4647870" lon="-3.9483170">
        <ele>642.2</ele>
        <time>2019-04-28T12:56:43Z</time>
      </trkpt>
      <trkpt lat="40.4647900" lon="-3.9482790">
        <ele>642.2</ele>
        <time>2019-04-28T12:56:44Z</time>
      </trkpt>
      <trkpt lat="40.4647880" lon="-3.9482460">
        <ele>642.2</ele>
        <time>2019-04-28T12:56:45Z</time>
      </trkpt>
      <trkpt lat="40.4647870" lon="-3.9482070">
        <ele>642.2</ele>
        <time>2019-04-28T12:56:46Z</time>
      </trkpt>
      <trkpt lat="40.4647800" lon="-3.9481730">
        <ele>642.0</ele>
        <time>2019-04-28T12:56:47Z</time>
      </trkpt>
      <trkpt lat="40.4647640" lon="-3.9481170">
        <ele>641.8</ele>
        <time>2019-04-28T12:56:48Z</time>
      </trkpt>
      <trkpt lat="40.4647500" lon="-3.9480580">
        <ele>641.6</ele>
        <time>2019-04-28T12:56:49Z</time>
      </trkpt>
      <trkpt lat="40.4647460" lon="-3.9480020">
        <ele>641.6</ele>
        <time>2019-04-28T12:56:50Z</time>
      </trkpt>
      <trkpt lat="40.4647360" lon="-3.9479320">
        <ele>641.4</ele>
        <time>2019-04-28T12:56:51Z</time>
      </trkpt>
      <trkpt lat="40.4647330" lon="-3.9478710">
        <ele>641.2</ele>
        <time>2019-04-28T12:56:52Z</time>
      </trkpt>
      <trkpt lat="40.4647280" lon="-3.9477900">
        <ele>641.2</ele>
        <time>2019-04-28T12:56:53Z</time>
      </trkpt>
      <trkpt lat="40.4647210" lon="-3.9477150">
        <ele>640.8</ele>
        <time>2019-04-28T12:56:54Z</time>
      </trkpt>
      <trkpt lat="40.4647090" lon="-3.9476110">
        <ele>640.4</ele>
        <time>2019-04-28T12:56:55Z</time>
      </trkpt>
      <trkpt lat="40.4647060" lon="-3.9475190">
        <ele>640.6</ele>
        <time>2019-04-28T12:56:56Z</time>
      </trkpt>
      <trkpt lat="40.4646870" lon="-3.9474430">
        <ele>640.6</ele>
        <time>2019-04-28T12:56:57Z</time>
      </trkpt>
      <trkpt lat="40.4646660" lon="-3.9473980">
        <ele>640.2</ele>
        <time>2019-04-28T12:56:58Z</time>
      </trkpt>
      <trkpt lat="40.4646520" lon="-3.9473450">
        <ele>640.0</ele>
        <time>2019-04-28T12:56:59Z</time>
      </trkpt>
      <trkpt lat="40.4646260" lon="-3.9472930">
        <ele>639.6</ele>
        <time>2019-04-28T12:57:00Z</time>
      </trkpt>
      <trkpt lat="40.4646200" lon="-3.9472250">
        <ele>639.2</ele>
        <time>2019-04-28T12:57:01Z</time>
      </trkpt>
      <trkpt lat="40.4646170" lon="-3.9471490">
        <ele>639.0</ele>
        <time>2019-04-28T12:57:02Z</time>
      </trkpt>
      <trkpt lat="40.4646230" lon="-3.9470600">
        <ele>638.8</ele>
        <time>2019-04-28T12:57:03Z</time>
      </trkpt>
      <trkpt lat="40.4646130" lon="-3.9469400">
        <ele>638.8</ele>
        <time>2019-04-28T12:57:04Z</time>
      </trkpt>
      <trkpt lat="40.4646250" lon="-3.9468410">
        <ele>638.6</ele>
        <time>2019-04-28T12:57:05Z</time>
      </trkpt>
      <trkpt lat="40.4646320" lon="-3.9467710">
        <ele>638.6</ele>
        <time>2019-04-28T12:57:06Z</time>
      </trkpt>
      <trkpt lat="40.4646340" lon="-3.9467240">
        <ele>638.4</ele>
        <time>2019-04-28T12:57:07Z</time>
      </trkpt>
      <trkpt lat="40.4646300" lon="-3.9466640">
        <ele>638.6</ele>
        <time>2019-04-28T12:57:08Z</time>
      </trkpt>
      <trkpt lat="40.4646230" lon="-3.9466390">
        <ele>638.4</ele>
        <time>2019-04-28T12:57:09Z</time>
      </trkpt>
      <trkpt lat="40.4646150" lon="-3.9465930">
        <ele>638.2</ele>
        <time>2019-04-28T12:57:10Z</time>
      </trkpt>
      <trkpt lat="40.4646030" lon="-3.9465730">
        <ele>638.0</ele>
        <time>2019-04-28T12:57:11Z</time>
      </trkpt>
      <trkpt lat="40.4645900" lon="-3.9465480">
        <ele>638.2</ele>
        <time>2019-04-28T12:57:12Z</time>
      </trkpt>
      <trkpt lat="40.4645600" lon="-3.9465040">
        <ele>638.2</ele>
        <time>2019-04-28T12:57:13Z</time>
      </trkpt>
      <trkpt lat="40.4645370" lon="-3.9464640">
        <ele>638.2</ele>
        <time>2019-04-28T12:57:14Z</time>
      </trkpt>
      <trkpt lat="40.4645020" lon="-3.9464330">
        <ele>638.6</ele>
        <time>2019-04-28T12:57:15Z</time>
      </trkpt>
      <trkpt lat="40.4644750" lon="-3.9464170">
        <ele>638.8</ele>
        <time>2019-04-28T12:57:16Z</time>
      </trkpt>
      <trkpt lat="40.4644520" lon="-3.9463870">
        <ele>639.0</ele>
        <time>2019-04-28T12:57:17Z</time>
      </trkpt>
      <trkpt lat="40.4644420" lon="-3.9463580">
        <ele>639.2</ele>
        <time>2019-04-28T12:57:18Z</time>
      </trkpt>
      <trkpt lat="40.4644300" lon="-3.9463410">
        <ele>639.4</ele>
        <time>2019-04-28T12:57:19Z</time>
      </trkpt>
      <trkpt lat="40.4644160" lon="-3.9463190">
        <ele>639.4</ele>
        <time>2019-04-28T12:57:20Z</time>
      </trkpt>
      <trkpt lat="40.4643940" lon="-3.9463020">
        <ele>639.2</ele>
        <time>2019-04-28T12:57:21Z</time>
      </trkpt>
      <trkpt lat="40.4643780" lon="-3.9463090">
        <ele>639.2</ele>
        <time>2019-04-28T12:57:22Z</time>
      </trkpt>
      <trkpt lat="40.4643600" lon="-3.9463110">
        <ele>639.2</ele>
        <time>2019-04-28T12:57:23Z</time>
      </trkpt>
      <trkpt lat="40.4643390" lon="-3.9463050">
        <ele>639.2</ele>
        <time>2019-04-28T12:57:24Z</time>
      </trkpt>
      <trkpt lat="40.4643160" lon="-3.9463100">
        <ele>639.0</ele>
        <time>2019-04-28T12:57:25Z</time>
      </trkpt>
      <trkpt lat="40.4642940" lon="-3.9463130">
        <ele>639.0</ele>
        <time>2019-04-28T12:57:26Z</time>
      </trkpt>
      <trkpt lat="40.4642630" lon="-3.9463090">
        <ele>639.0</ele>
        <time>2019-04-28T12:57:27Z</time>
      </trkpt>
      <trkpt lat="40.4642270" lon="-3.9462980">
        <ele>638.8</ele>
        <time>2019-04-28T12:57:28Z</time>
      </trkpt>
      <trkpt lat="40.4641880" lon="-3.9462770">
        <ele>638.6</ele>
        <time>2019-04-28T12:57:29Z</time>
      </trkpt>
      <trkpt lat="40.4641490" lon="-3.9462630">
        <ele>638.6</ele>
        <time>2019-04-28T12:57:30Z</time>
      </trkpt>
      <trkpt lat="40.4641160" lon="-3.9462640">
        <ele>638.6</ele>
        <time>2019-04-28T12:57:31Z</time>
      </trkpt>
      <trkpt lat="40.4640840" lon="-3.9462590">
        <ele>638.4</ele>
        <time>2019-04-28T12:57:32Z</time>
      </trkpt>
      <trkpt lat="40.4640410" lon="-3.9462490">
        <ele>638.0</ele>
        <time>2019-04-28T12:57:33Z</time>
      </trkpt>
      <trkpt lat="40.4640000" lon="-3.9462520">
        <ele>637.8</ele>
        <time>2019-04-28T12:57:34Z</time>
      </trkpt>
      <trkpt lat="40.4639520" lon="-3.9462440">
        <ele>637.8</ele>
        <time>2019-04-28T12:57:35Z</time>
      </trkpt>
      <trkpt lat="40.4639040" lon="-3.9462380">
        <ele>637.6</ele>
        <time>2019-04-28T12:57:36Z</time>
      </trkpt>
      <trkpt lat="40.4638550" lon="-3.9462260">
        <ele>637.6</ele>
        <time>2019-04-28T12:57:37Z</time>
      </trkpt>
      <trkpt lat="40.4637970" lon="-3.9462140">
        <ele>637.4</ele>
        <time>2019-04-28T12:57:38Z</time>
      </trkpt>
      <trkpt lat="40.4637430" lon="-3.9462050">
        <ele>637.4</ele>
        <time>2019-04-28T12:57:39Z</time>
      </trkpt>
      <trkpt lat="40.4636820" lon="-3.9461980">
        <ele>637.2</ele>
        <time>2019-04-28T12:57:40Z</time>
      </trkpt>
      <trkpt lat="40.4636200" lon="-3.9461930">
        <ele>637.0</ele>
        <time>2019-04-28T12:57:41Z</time>
      </trkpt>
      <trkpt lat="40.4635590" lon="-3.9461940">
        <ele>637.0</ele>
        <time>2019-04-28T12:57:42Z</time>
      </trkpt>
      <trkpt lat="40.4634940" lon="-3.9461860">
        <ele>636.6</ele>
        <time>2019-04-28T12:57:43Z</time>
      </trkpt>
      <trkpt lat="40.4634300" lon="-3.9461810">
        <ele>636.6</ele>
        <time>2019-04-28T12:57:44Z</time>
      </trkpt>
      <trkpt lat="40.4633610" lon="-3.9461740">
        <ele>636.4</ele>
        <time>2019-04-28T12:57:45Z</time>
      </trkpt>
      <trkpt lat="40.4632940" lon="-3.9461680">
        <ele>636.2</ele>
        <time>2019-04-28T12:57:46Z</time>
      </trkpt>
      <trkpt lat="40.4632270" lon="-3.9461630">
        <ele>636.0</ele>
        <time>2019-04-28T12:57:47Z</time>
      </trkpt>
      <trkpt lat="40.4631590" lon="-3.9461600">
        <ele>636.0</ele>
        <time>2019-04-28T12:57:48Z</time>
      </trkpt>
      <trkpt lat="40.4630920" lon="-3.9461560">
        <ele>635.6</ele>
        <time>2019-04-28T12:57:49Z</time>
      </trkpt>
      <trkpt lat="40.4630260" lon="-3.9461560">
        <ele>635.2</ele>
        <time>2019-04-28T12:57:50Z</time>
      </trkpt>
      <trkpt lat="40.4629540" lon="-3.9461480">
        <ele>634.8</ele>
        <time>2019-04-28T12:57:51Z</time>
      </trkpt>
      <trkpt lat="40.4628810" lon="-3.9461290">
        <ele>634.8</ele>
        <time>2019-04-28T12:57:52Z</time>
      </trkpt>
      <trkpt lat="40.4628080" lon="-3.9461000">
        <ele>634.6</ele>
        <time>2019-04-28T12:57:53Z</time>
      </trkpt>
      <trkpt lat="40.4627370" lon="-3.9460660">
        <ele>634.2</ele>
        <time>2019-04-28T12:57:54Z</time>
      </trkpt>
      <trkpt lat="40.4626680" lon="-3.9460290">
        <ele>634.0</ele>
        <time>2019-04-28T12:57:55Z</time>
      </trkpt>
      <trkpt lat="40.4626040" lon="-3.9459970">
        <ele>633.8</ele>
        <time>2019-04-28T12:57:56Z</time>
      </trkpt>
      <trkpt lat="40.4625360" lon="-3.9459570">
        <ele>633.4</ele>
        <time>2019-04-28T12:57:57Z</time>
      </trkpt>
      <trkpt lat="40.4624650" lon="-3.9459090">
        <ele>633.2</ele>
        <time>2019-04-28T12:57:58Z</time>
      </trkpt>
      <trkpt lat="40.4624030" lon="-3.9458680">
        <ele>633.0</ele>
        <time>2019-04-28T12:57:59Z</time>
      </trkpt>
      <trkpt lat="40.4623500" lon="-3.9458360">
        <ele>632.8</ele>
        <time>2019-04-28T12:58:00Z</time>
      </trkpt>
      <trkpt lat="40.4622980" lon="-3.9458010">
        <ele>632.8</ele>
        <time>2019-04-28T12:58:01Z</time>
      </trkpt>
      <trkpt lat="40.4622300" lon="-3.9457610">
        <ele>633.0</ele>
        <time>2019-04-28T12:58:02Z</time>
      </trkpt>
      <trkpt lat="40.4621620" lon="-3.9457330">
        <ele>632.6</ele>
        <time>2019-04-28T12:58:03Z</time>
      </trkpt>
      <trkpt lat="40.4620910" lon="-3.9457110">
        <ele>632.2</ele>
        <time>2019-04-28T12:58:04Z</time>
      </trkpt>
      <trkpt lat="40.4620230" lon="-3.9457020">
        <ele>632.2</ele>
        <time>2019-04-28T12:58:05Z</time>
      </trkpt>
      <trkpt lat="40.4619540" lon="-3.9456980">
        <ele>632.2</ele>
        <time>2019-04-28T12:58:06Z</time>
      </trkpt>
      <trkpt lat="40.4618800" lon="-3.9456950">
        <ele>632.2</ele>
        <time>2019-04-28T12:58:07Z</time>
      </trkpt>
      <trkpt lat="40.4618070" lon="-3.9456940">
        <ele>632.2</ele>
        <time>2019-04-28T12:58:08Z</time>
      </trkpt>
      <trkpt lat="40.4617330" lon="-3.9456970">
        <ele>632.4</ele>
        <time>2019-04-28T12:58:09Z</time>
      </trkpt>
      <trkpt lat="40.4616620" lon="-3.9457040">
        <ele>632.4</ele>
        <time>2019-04-28T12:58:10Z</time>
      </trkpt>
      <trkpt lat="40.4615950" lon="-3.9457140">
        <ele>632.8</ele>
        <time>2019-04-28T12:58:11Z</time>
      </trkpt>
      <trkpt lat="40.4615270" lon="-3.9457240">
        <ele>633.0</ele>
        <time>2019-04-28T12:58:12Z</time>
      </trkpt>
      <trkpt lat="40.4614650" lon="-3.9457410">
        <ele>633.2</ele>
        <time>2019-04-28T12:58:13Z</time>
      </trkpt>
      <trkpt lat="40.4614060" lon="-3.9457580">
        <ele>633.4</ele>
        <time>2019-04-28T12:58:14Z</time>
      </trkpt>
      <trkpt lat="40.4613450" lon="-3.9457720">
        <ele>633.6</ele>
        <time>2019-04-28T12:58:15Z</time>
      </trkpt>
      <trkpt lat="40.4612870" lon="-3.9457890">
        <ele>633.6</ele>
        <time>2019-04-28T12:58:16Z</time>
      </trkpt>
      <trkpt lat="40.4612260" lon="-3.9458060">
        <ele>633.6</ele>
        <time>2019-04-28T12:58:17Z</time>
      </trkpt>
      <trkpt lat="40.4611660" lon="-3.9458260">
        <ele>633.6</ele>
        <time>2019-04-28T12:58:18Z</time>
      </trkpt>
      <trkpt lat="40.4611060" lon="-3.9458470">
        <ele>633.8</ele>
        <time>2019-04-28T12:58:19Z</time>
      </trkpt>
      <trkpt lat="40.4610460" lon="-3.9458700">
        <ele>633.8</ele>
        <time>2019-04-28T12:58:20Z</time>
      </trkpt>
      <trkpt lat="40.4609850" lon="-3.9458940">
        <ele>633.8</ele>
        <time>2019-04-28T12:58:21Z</time>
      </trkpt>
      <trkpt lat="40.4609250" lon="-3.9459220">
        <ele>633.8</ele>
        <time>2019-04-28T12:58:22Z</time>
      </trkpt>
      <trkpt lat="40.4608650" lon="-3.9459530">
        <ele>633.8</ele>
        <time>2019-04-28T12:58:23Z</time>
      </trkpt>
      <trkpt lat="40.4608040" lon="-3.9459830">
        <ele>633.8</ele>
        <time>2019-04-28T12:58:24Z</time>
      </trkpt>
      <trkpt lat="40.4607420" lon="-3.9460130">
        <ele>633.8</ele>
        <time>2019-04-28T12:58:25Z</time>
      </trkpt>
      <trkpt lat="40.4606790" lon="-3.9460430">
        <ele>633.6</ele>
        <time>2019-04-28T12:58:26Z</time>
      </trkpt>
      <trkpt lat="40.4606160" lon="-3.9460730">
        <ele>633.4</ele>
        <time>2019-04-28T12:58:27Z</time>
      </trkpt>
      <trkpt lat="40.4605530" lon="-3.9461030">
        <ele>633.8</ele>
        <time>2019-04-28T12:58:28Z</time>
      </trkpt>
      <trkpt lat="40.4604900" lon="-3.9461320">
        <ele>633.2</ele>
        <time>2019-04-28T12:58:29Z</time>
      </trkpt>
      <trkpt lat="40.4604270" lon="-3.9461580">
        <ele>633.0</ele>
        <time>2019-04-28T12:58:30Z</time>
      </trkpt>
      <trkpt lat="40.4603650" lon="-3.9461820">
        <ele>632.8</ele>
        <time>2019-04-28T12:58:31Z</time>
      </trkpt>
      <trkpt lat="40.4602960" lon="-3.9461910">
        <ele>632.8</ele>
        <time>2019-04-28T12:58:32Z</time>
      </trkpt>
      <trkpt lat="40.4602270" lon="-3.9462050">
        <ele>632.6</ele>
        <time>2019-04-28T12:58:33Z</time>
      </trkpt>
      <trkpt lat="40.4601590" lon="-3.9462200">
        <ele>632.6</ele>
        <time>2019-04-28T12:58:34Z</time>
      </trkpt>
      <trkpt lat="40.4600880" lon="-3.9462340">
        <ele>632.4</ele>
        <time>2019-04-28T12:58:35Z</time>
      </trkpt>
      <trkpt lat="40.4600200" lon="-3.9462510">
        <ele>632.2</ele>
        <time>2019-04-28T12:58:36Z</time>
      </trkpt>
      <trkpt lat="40.4599480" lon="-3.9462730">
        <ele>632.0</ele>
        <time>2019-04-28T12:58:37Z</time>
      </trkpt>
      <trkpt lat="40.4598780" lon="-3.9463050">
        <ele>631.6</ele>
        <time>2019-04-28T12:58:38Z</time>
      </trkpt>
      <trkpt lat="40.4598040" lon="-3.9463380">
        <ele>631.2</ele>
        <time>2019-04-28T12:58:39Z</time>
      </trkpt>
      <trkpt lat="40.4597280" lon="-3.9463710">
        <ele>631.2</ele>
        <time>2019-04-28T12:58:40Z</time>
      </trkpt>
      <trkpt lat="40.4596550" lon="-3.9464060">
        <ele>631.0</ele>
        <time>2019-04-28T12:58:41Z</time>
      </trkpt>
      <trkpt lat="40.4595820" lon="-3.9464390">
        <ele>630.8</ele>
        <time>2019-04-28T12:58:42Z</time>
      </trkpt>
      <trkpt lat="40.4595090" lon="-3.9464730">
        <ele>630.8</ele>
        <time>2019-04-28T12:58:43Z</time>
      </trkpt>
      <trkpt lat="40.4594380" lon="-3.9465050">
        <ele>630.6</ele>
        <time>2019-04-28T12:58:44Z</time>
      </trkpt>
      <trkpt lat="40.4593690" lon="-3.9465380">
        <ele>630.4</ele>
        <time>2019-04-28T12:58:45Z</time>
      </trkpt>
      <trkpt lat="40.4593030" lon="-3.9465730">
        <ele>630.4</ele>
        <time>2019-04-28T12:58:46Z</time>
      </trkpt>
      <trkpt lat="40.4592430" lon="-3.9466090">
        <ele>630.6</ele>
        <time>2019-04-28T12:58:47Z</time>
      </trkpt>
      <trkpt lat="40.4591870" lon="-3.9466420">
        <ele>630.8</ele>
        <time>2019-04-28T12:58:48Z</time>
      </trkpt>
      <trkpt lat="40.4591350" lon="-3.9466760">
        <ele>630.6</ele>
        <time>2019-04-28T12:58:49Z</time>
      </trkpt>
      <trkpt lat="40.4590870" lon="-3.9467070">
        <ele>630.6</ele>
        <time>2019-04-28T12:58:50Z</time>
      </trkpt>
      <trkpt lat="40.4590430" lon="-3.9467350">
        <ele>630.8</ele>
        <time>2019-04-28T12:58:51Z</time>
      </trkpt>
      <trkpt lat="40.4590030" lon="-3.9467570">
        <ele>631.0</ele>
        <time>2019-04-28T12:58:52Z</time>
      </trkpt>
      <trkpt lat="40.4589660" lon="-3.9467670">
        <ele>630.8</ele>
        <time>2019-04-28T12:58:53Z</time>
      </trkpt>
      <trkpt lat="40.4589340" lon="-3.9467630">
        <ele>631.0</ele>
        <time>2019-04-28T12:58:54Z</time>
      </trkpt>
      <trkpt lat="40.4589150" lon="-3.9467550">
        <ele>631.0</ele>
        <time>2019-04-28T12:58:55Z</time>
      </trkpt>
      <trkpt lat="40.4589050" lon="-3.9467510">
        <ele>631.0</ele>
        <time>2019-04-28T12:58:56Z</time>
      </trkpt>
      <trkpt lat="40.4588950" lon="-3.9467480">
        <ele>631.0</ele>
        <time>2019-04-28T12:58:57Z</time>
      </trkpt>
      <trkpt lat="40.4588890" lon="-3.9467480">
        <ele>631.0</ele>
        <time>2019-04-28T12:58:58Z</time>
      </trkpt>
      <trkpt lat="40.4588850" lon="-3.9467480">
        <ele>631.0</ele>
        <time>2019-04-28T12:58:59Z</time>
      </trkpt>
      <trkpt lat="40.4588860" lon="-3.9467480">
        <ele>631.0</ele>
        <time>2019-04-28T12:59:00Z</time>
      </trkpt>
      <trkpt lat="40.4588790" lon="-3.9467420">
        <ele>631.0</ele>
        <time>2019-04-28T12:59:01Z</time>
      </trkpt>
      <trkpt lat="40.4588700" lon="-3.9467380">
        <ele>631.0</ele>
        <time>2019-04-28T12:59:02Z</time>
      </trkpt>
      <trkpt lat="40.4588570" lon="-3.9467370">
        <ele>631.0</ele>
        <time>2019-04-28T12:59:03Z</time>
      </trkpt>
      <trkpt lat="40.4588350" lon="-3.9467370">
        <ele>631.2</ele>
        <time>2019-04-28T12:59:04Z</time>
      </trkpt>
      <trkpt lat="40.4588180" lon="-3.9467400">
        <ele>631.2</ele>
        <time>2019-04-28T12:59:05Z</time>
      </trkpt>
      <trkpt lat="40.4588050" lon="-3.9467450">
        <ele>631.4</ele>
        <time>2019-04-28T12:59:06Z</time>
      </trkpt>
      <trkpt lat="40.4587810" lon="-3.9467450">
        <ele>631.4</ele>
        <time>2019-04-28T12:59:07Z</time>
      </trkpt>
      <trkpt lat="40.4587500" lon="-3.9467450">
        <ele>631.6</ele>
        <time>2019-04-28T12:59:08Z</time>
      </trkpt>
      <trkpt lat="40.4587280" lon="-3.9467470">
        <ele>631.6</ele>
        <time>2019-04-28T12:59:09Z</time>
      </trkpt>
      <trkpt lat="40.4586970" lon="-3.9467340">
        <ele>631.6</ele>
        <time>2019-04-28T12:59:10Z</time>
      </trkpt>
      <trkpt lat="40.4586650" lon="-3.9467120">
        <ele>631.8</ele>
        <time>2019-04-28T12:59:11Z</time>
      </trkpt>
      <trkpt lat="40.4586410" lon="-3.9466990">
        <ele>631.8</ele>
        <time>2019-04-28T12:59:12Z</time>
      </trkpt>
      <trkpt lat="40.4586120" lon="-3.9466840">
        <ele>631.8</ele>
        <time>2019-04-28T12:59:13Z</time>
      </trkpt>
      <trkpt lat="40.4585790" lon="-3.9466620">
        <ele>631.8</ele>
        <time>2019-04-28T12:59:14Z</time>
      </trkpt>
      <trkpt lat="40.4585530" lon="-3.9466380">
        <ele>631.8</ele>
        <time>2019-04-28T12:59:15Z</time>
      </trkpt>
      <trkpt lat="40.4585340" lon="-3.9466230">
        <ele>632.0</ele>
        <time>2019-04-28T12:59:16Z</time>
      </trkpt>
      <trkpt lat="40.4585140" lon="-3.9466160">
        <ele>632.0</ele>
        <time>2019-04-28T12:59:17Z</time>
      </trkpt>
      <trkpt lat="40.4584950" lon="-3.9466070">
        <ele>631.8</ele>
        <time>2019-04-28T12:59:18Z</time>
      </trkpt>
      <trkpt lat="40.4584750" lon="-3.9465850">
        <ele>631.6</ele>
        <time>2019-04-28T12:59:19Z</time>
      </trkpt>
      <trkpt lat="40.4584500" lon="-3.9465660">
        <ele>631.6</ele>
        <time>2019-04-28T12:59:20Z</time>
      </trkpt>
      <trkpt lat="40.4584230" lon="-3.9465480">
        <ele>631.6</ele>
        <time>2019-04-28T12:59:21Z</time>
      </trkpt>
      <trkpt lat="40.4584010" lon="-3.9465340">
        <ele>631.6</ele>
        <time>2019-04-28T12:59:22Z</time>
      </trkpt>
      <trkpt lat="40.4583840" lon="-3.9465080">
        <ele>631.4</ele>
        <time>2019-04-28T12:59:23Z</time>
      </trkpt>
      <trkpt lat="40.4583580" lon="-3.9464510">
        <ele>631.2</ele>
        <time>2019-04-28T12:59:24Z</time>
      </trkpt>
      <trkpt lat="40.4583440" lon="-3.9463830">
        <ele>630.8</ele>
        <time>2019-04-28T12:59:25Z</time>
      </trkpt>
      <trkpt lat="40.4583400" lon="-3.9463060">
        <ele>630.6</ele>
        <time>2019-04-28T12:59:26Z</time>
      </trkpt>
      <trkpt lat="40.4583560" lon="-3.9462420">
        <ele>630.2</ele>
        <time>2019-04-28T12:59:27Z</time>
      </trkpt>
      <trkpt lat="40.4583470" lon="-3.9461560">
        <ele>629.8</ele>
        <time>2019-04-28T12:59:28Z</time>
      </trkpt>
      <trkpt lat="40.4583290" lon="-3.9460550">
        <ele>629.4</ele>
        <time>2019-04-28T12:59:29Z</time>
      </trkpt>
      <trkpt lat="40.4583170" lon="-3.9459600">
        <ele>629.0</ele>
        <time>2019-04-28T12:59:30Z</time>
      </trkpt>
      <trkpt lat="40.4583010" lon="-3.9458670">
        <ele>629.0</ele>
        <time>2019-04-28T12:59:31Z</time>
      </trkpt>
      <trkpt lat="40.4582780" lon="-3.9457740">
        <ele>628.6</ele>
        <time>2019-04-28T12:59:32Z</time>
      </trkpt>
      <trkpt lat="40.4582600" lon="-3.9456890">
        <ele>628.4</ele>
        <time>2019-04-28T12:59:33Z</time>
      </trkpt>
      <trkpt lat="40.4582320" lon="-3.9455950">
        <ele>628.4</ele>
        <time>2019-04-28T12:59:34Z</time>
      </trkpt>
      <trkpt lat="40.4582120" lon="-3.9455150">
        <ele>628.0</ele>
        <time>2019-04-28T12:59:35Z</time>
      </trkpt>
      <trkpt lat="40.4581790" lon="-3.9454170">
        <ele>628.0</ele>
        <time>2019-04-28T12:59:36Z</time>
      </trkpt>
      <trkpt lat="40.4581500" lon="-3.9453130">
        <ele>627.8</ele>
        <time>2019-04-28T12:59:37Z</time>
      </trkpt>
      <trkpt lat="40.4581150" lon="-3.9452040">
        <ele>627.6</ele>
        <time>2019-04-28T12:59:38Z</time>
      </trkpt>
      <trkpt lat="40.4580750" lon="-3.9450950">
        <ele>627.2</ele>
        <time>2019-04-28T12:59:39Z</time>
      </trkpt>
      <trkpt lat="40.4580330" lon="-3.9449910">
        <ele>627.2</ele>
        <time>2019-04-28T12:59:40Z</time>
      </trkpt>
      <trkpt lat="40.4579880" lon="-3.9448840">
        <ele>627.2</ele>
        <time>2019-04-28T12:59:41Z</time>
      </trkpt>
      <trkpt lat="40.4579410" lon="-3.9447750">
        <ele>626.8</ele>
        <time>2019-04-28T12:59:42Z</time>
      </trkpt>
      <trkpt lat="40.4578980" lon="-3.9446750">
        <ele>626.8</ele>
        <time>2019-04-28T12:59:43Z</time>
      </trkpt>
      <trkpt lat="40.4578460" lon="-3.9445670">
        <ele>626.8</ele>
        <time>2019-04-28T12:59:44Z</time>
      </trkpt>
      <trkpt lat="40.4577970" lon="-3.9444680">
        <ele>626.6</ele>
        <time>2019-04-28T12:59:45Z</time>
      </trkpt>
      <trkpt lat="40.4577490" lon="-3.9443650">
        <ele>626.6</ele>
        <time>2019-04-28T12:59:46Z</time>
      </trkpt>
      <trkpt lat="40.4577050" lon="-3.9442780">
        <ele>626.6</ele>
        <time>2019-04-28T12:59:47Z</time>
      </trkpt>
      <trkpt lat="40.4576620" lon="-3.9441910">
        <ele>626.8</ele>
        <time>2019-04-28T12:59:48Z</time>
      </trkpt>
      <trkpt lat="40.4576230" lon="-3.9441160">
        <ele>626.8</ele>
        <time>2019-04-28T12:59:49Z</time>
      </trkpt>
      <trkpt lat="40.4575850" lon="-3.9440440">
        <ele>626.8</ele>
        <time>2019-04-28T12:59:50Z</time>
      </trkpt>
      <trkpt lat="40.4575520" lon="-3.9439770">
        <ele>626.8</ele>
        <time>2019-04-28T12:59:51Z</time>
      </trkpt>
      <trkpt lat="40.4575180" lon="-3.9439230">
        <ele>626.8</ele>
        <time>2019-04-28T12:59:52Z</time>
      </trkpt>
      <trkpt lat="40.4574820" lon="-3.9438610">
        <ele>626.6</ele>
        <time>2019-04-28T12:59:53Z</time>
      </trkpt>
      <trkpt lat="40.4574470" lon="-3.9437990">
        <ele>626.8</ele>
        <time>2019-04-28T12:59:54Z</time>
      </trkpt>
      <trkpt lat="40.4574130" lon="-3.9437420">
        <ele>626.8</ele>
        <time>2019-04-28T12:59:55Z</time>
      </trkpt>
      <trkpt lat="40.4573860" lon="-3.9436940">
        <ele>627.0</ele>
        <time>2019-04-28T12:59:56Z</time>
      </trkpt>
      <trkpt lat="40.4573700" lon="-3.9436580">
        <ele>627.0</ele>
        <time>2019-04-28T12:59:57Z</time>
      </trkpt>
      <trkpt lat="40.4573460" lon="-3.9436170">
        <ele>626.8</ele>
        <time>2019-04-28T12:59:58Z</time>
      </trkpt>
      <trkpt lat="40.4573070" lon="-3.9435710">
        <ele>626.8</ele>
        <time>2019-04-28T12:59:59Z</time>
      </trkpt>
      <trkpt lat="40.4572670" lon="-3.9435510">
        <ele>626.8</ele>
        <time>2019-04-28T13:00:00Z</time>
      </trkpt>
      <trkpt lat="40.4572360" lon="-3.9435480">
        <ele>626.8</ele>
        <time>2019-04-28T13:00:01Z</time>
      </trkpt>
      <trkpt lat="40.4572090" lon="-3.9435420">
        <ele>626.8</ele>
        <time>2019-04-28T13:00:02Z</time>
      </trkpt>
      <trkpt lat="40.4571830" lon="-3.9435330">
        <ele>626.6</ele>
        <time>2019-04-28T13:00:03Z</time>
      </trkpt>
      <trkpt lat="40.4571570" lon="-3.9435330">
        <ele>626.4</ele>
        <time>2019-04-28T13:00:04Z</time>
      </trkpt>
      <trkpt lat="40.4571290" lon="-3.9435290">
        <ele>626.4</ele>
        <time>2019-04-28T13:00:05Z</time>
      </trkpt>
      <trkpt lat="40.4571020" lon="-3.9435230">
        <ele>626.4</ele>
        <time>2019-04-28T13:00:06Z</time>
      </trkpt>
      <trkpt lat="40.4570760" lon="-3.9435190">
        <ele>626.4</ele>
        <time>2019-04-28T13:00:07Z</time>
      </trkpt>
      <trkpt lat="40.4570500" lon="-3.9435170">
        <ele>626.4</ele>
        <time>2019-04-28T13:00:08Z</time>
      </trkpt>
      <trkpt lat="40.4570280" lon="-3.9435130">
        <ele>626.4</ele>
        <time>2019-04-28T13:00:09Z</time>
      </trkpt>
      <trkpt lat="40.4570150" lon="-3.9435080">
        <ele>626.6</ele>
        <time>2019-04-28T13:00:10Z</time>
      </trkpt>
      <trkpt lat="40.4570070" lon="-3.9435010">
        <ele>626.6</ele>
        <time>2019-04-28T13:00:11Z</time>
      </trkpt>
      <trkpt lat="40.4570030" lon="-3.9435020">
        <ele>626.4</ele>
        <time>2019-04-28T13:00:12Z</time>
      </trkpt>
      <trkpt lat="40.4569970" lon="-3.9435020">
        <ele>626.6</ele>
        <time>2019-04-28T13:00:13Z</time>
      </trkpt>
      <trkpt lat="40.4569890" lon="-3.9435000">
        <ele>627.4</ele>
        <time>2019-04-28T13:00:14Z</time>
      </trkpt>
      <trkpt lat="40.4569850" lon="-3.9435060">
        <ele>627.0</ele>
        <time>2019-04-28T13:00:15Z</time>
      </trkpt>
      <trkpt lat="40.4569840" lon="-3.9435100">
        <ele>626.6</ele>
        <time>2019-04-28T13:00:16Z</time>
      </trkpt>
      <trkpt lat="40.4569840" lon="-3.9435100">
        <ele>626.4</ele>
        <time>2019-04-28T13:00:17Z</time>
      </trkpt>
      <trkpt lat="40.4569800" lon="-3.9435100">
        <ele>626.4</ele>
        <time>2019-04-28T13:00:18Z</time>
      </trkpt>
      <trkpt lat="40.4569780" lon="-3.9435100">
        <ele>626.4</ele>
        <time>2019-04-28T13:00:19Z</time>
      </trkpt>
      <trkpt lat="40.4569750" lon="-3.9435090">
        <ele>626.4</ele>
        <time>2019-04-28T13:00:20Z</time>
      </trkpt>
      <trkpt lat="40.4569760" lon="-3.9435130">
        <ele>626.4</ele>
        <time>2019-04-28T13:00:21Z</time>
      </trkpt>
      <trkpt lat="40.4566230" lon="-3.9438870">
        <ele>622.0</ele>
        <time>2019-04-28T13:00:35Z</time>
      </trkpt>
      <trkpt lat="40.4565600" lon="-3.9439050">
        <ele>621.6</ele>
        <time>2019-04-28T13:00:36Z</time>
      </trkpt>
      <trkpt lat="40.4565010" lon="-3.9439250">
        <ele>621.4</ele>
        <time>2019-04-28T13:00:37Z</time>
      </trkpt>
      <trkpt lat="40.4564440" lon="-3.9439410">
        <ele>621.2</ele>
        <time>2019-04-28T13:00:38Z</time>
      </trkpt>
      <trkpt lat="40.4563940" lon="-3.9439550">
        <ele>621.0</ele>
        <time>2019-04-28T13:00:39Z</time>
      </trkpt>
      <trkpt lat="40.4563460" lon="-3.9439610">
        <ele>620.8</ele>
        <time>2019-04-28T13:00:40Z</time>
      </trkpt>
      <trkpt lat="40.4562980" lon="-3.9439610">
        <ele>620.8</ele>
        <time>2019-04-28T13:00:41Z</time>
      </trkpt>
      <trkpt lat="40.4562550" lon="-3.9439570">
        <ele>620.8</ele>
        <time>2019-04-28T13:00:42Z</time>
      </trkpt>
      <trkpt lat="40.4562170" lon="-3.9439510">
        <ele>620.8</ele>
        <time>2019-04-28T13:00:43Z</time>
      </trkpt>
      <trkpt lat="40.4561770" lon="-3.9439500">
        <ele>620.6</ele>
        <time>2019-04-28T13:00:44Z</time>
      </trkpt>
      <trkpt lat="40.4561380" lon="-3.9439630">
        <ele>620.6</ele>
        <time>2019-04-28T13:00:45Z</time>
      </trkpt>
      <trkpt lat="40.4560940" lon="-3.9439850">
        <ele>619.6</ele>
        <time>2019-04-28T13:00:46Z</time>
      </trkpt>
      <trkpt lat="40.4560340" lon="-3.9440120">
        <ele>619.0</ele>
        <time>2019-04-28T13:00:47Z</time>
      </trkpt>
      <trkpt lat="40.4559770" lon="-3.9440330">
        <ele>619.8</ele>
        <time>2019-04-28T13:00:48Z</time>
      </trkpt>
      <trkpt lat="40.4559310" lon="-3.9440430">
        <ele>620.6</ele>
        <time>2019-04-28T13:00:49Z</time>
      </trkpt>
      <trkpt lat="40.4558940" lon="-3.9440560">
        <ele>621.2</ele>
        <time>2019-04-28T13:00:50Z</time>
      </trkpt>
      <trkpt lat="40.4558600" lon="-3.9440790">
        <ele>621.4</ele>
        <time>2019-04-28T13:00:51Z</time>
      </trkpt>
      <trkpt lat="40.4558190" lon="-3.9441110">
        <ele>621.4</ele>
        <time>2019-04-28T13:00:52Z</time>
      </trkpt>
      <trkpt lat="40.4557780" lon="-3.9441460">
        <ele>621.6</ele>
        <time>2019-04-28T13:00:53Z</time>
      </trkpt>
      <trkpt lat="40.4557410" lon="-3.9441840">
        <ele>621.8</ele>
        <time>2019-04-28T13:00:54Z</time>
      </trkpt>
      <trkpt lat="40.4557060" lon="-3.9442220">
        <ele>621.8</ele>
        <time>2019-04-28T13:00:55Z</time>
      </trkpt>
      <trkpt lat="40.4556770" lon="-3.9442570">
        <ele>622.2</ele>
        <time>2019-04-28T13:00:56Z</time>
      </trkpt>
      <trkpt lat="40.4556490" lon="-3.9442850">
        <ele>622.2</ele>
        <time>2019-04-28T13:00:57Z</time>
      </trkpt>
      <trkpt lat="40.4556250" lon="-3.9443100">
        <ele>622.0</ele>
        <time>2019-04-28T13:00:58Z</time>
      </trkpt>
      <trkpt lat="40.4555950" lon="-3.9443320">
        <ele>621.8</ele>
        <time>2019-04-28T13:00:59Z</time>
      </trkpt>
      <trkpt lat="40.4555570" lon="-3.9443500">
        <ele>621.6</ele>
        <time>2019-04-28T13:01:00Z</time>
      </trkpt>
      <trkpt lat="40.4555120" lon="-3.9443600">
        <ele>621.6</ele>
        <time>2019-04-28T13:01:01Z</time>
      </trkpt>
      <trkpt lat="40.4554660" lon="-3.9443600">
        <ele>621.4</ele>
        <time>2019-04-28T13:01:02Z</time>
      </trkpt>
      <trkpt lat="40.4554200" lon="-3.9443590">
        <ele>621.4</ele>
        <time>2019-04-28T13:01:03Z</time>
      </trkpt>
      <trkpt lat="40.4553730" lon="-3.9443550">
        <ele>621.6</ele>
        <time>2019-04-28T13:01:04Z</time>
      </trkpt>
      <trkpt lat="40.4553310" lon="-3.9443450">
        <ele>621.6</ele>
        <time>2019-04-28T13:01:05Z</time>
      </trkpt>
      <trkpt lat="40.4552900" lon="-3.9443260">
        <ele>621.6</ele>
        <time>2019-04-28T13:01:06Z</time>
      </trkpt>
      <trkpt lat="40.4552550" lon="-3.9442990">
        <ele>621.8</ele>
        <time>2019-04-28T13:01:07Z</time>
      </trkpt>
      <trkpt lat="40.4552210" lon="-3.9442690">
        <ele>622.0</ele>
        <time>2019-04-28T13:01:08Z</time>
      </trkpt>
      <trkpt lat="40.4551880" lon="-3.9442340">
        <ele>622.0</ele>
        <time>2019-04-28T13:01:09Z</time>
      </trkpt>
      <trkpt lat="40.4551570" lon="-3.9441980">
        <ele>622.2</ele>
        <time>2019-04-28T13:01:10Z</time>
      </trkpt>
      <trkpt lat="40.4551290" lon="-3.9441710">
        <ele>622.2</ele>
        <time>2019-04-28T13:01:11Z</time>
      </trkpt>
      <trkpt lat="40.4551030" lon="-3.9441490">
        <ele>622.4</ele>
        <time>2019-04-28T13:01:12Z</time>
      </trkpt>
      <trkpt lat="40.4550770" lon="-3.9441300">
        <ele>622.6</ele>
        <time>2019-04-28T13:01:13Z</time>
      </trkpt>
      <trkpt lat="40.4550470" lon="-3.9441220">
        <ele>622.6</ele>
        <time>2019-04-28T13:01:14Z</time>
      </trkpt>
      <trkpt lat="40.4550140" lon="-3.9441340">
        <ele>622.8</ele>
        <time>2019-04-28T13:01:15Z</time>
      </trkpt>
      <trkpt lat="40.4549860" lon="-3.9441550">
        <ele>622.6</ele>
        <time>2019-04-28T13:01:16Z</time>
      </trkpt>
      <trkpt lat="40.4549550" lon="-3.9441740">
        <ele>622.8</ele>
        <time>2019-04-28T13:01:17Z</time>
      </trkpt>
      <trkpt lat="40.4549260" lon="-3.9441830">
        <ele>622.8</ele>
        <time>2019-04-28T13:01:18Z</time>
      </trkpt>
      <trkpt lat="40.4548940" lon="-3.9441890">
        <ele>622.6</ele>
        <time>2019-04-28T13:01:19Z</time>
      </trkpt>
      <trkpt lat="40.4548550" lon="-3.9441930">
        <ele>622.4</ele>
        <time>2019-04-28T13:01:20Z</time>
      </trkpt>
      <trkpt lat="40.4548120" lon="-3.9442040">
        <ele>622.6</ele>
        <time>2019-04-28T13:01:21Z</time>
      </trkpt>
      <trkpt lat="40.4547790" lon="-3.9442120">
        <ele>622.8</ele>
        <time>2019-04-28T13:01:22Z</time>
      </trkpt>
      <trkpt lat="40.4547370" lon="-3.9442230">
        <ele>622.8</ele>
        <time>2019-04-28T13:01:23Z</time>
      </trkpt>
      <trkpt lat="40.4546950" lon="-3.9442400">
        <ele>622.6</ele>
        <time>2019-04-28T13:01:24Z</time>
      </trkpt>
      <trkpt lat="40.4546550" lon="-3.9442650">
        <ele>622.6</ele>
        <time>2019-04-28T13:01:25Z</time>
      </trkpt>
      <trkpt lat="40.4546180" lon="-3.9442950">
        <ele>622.6</ele>
        <time>2019-04-28T13:01:26Z</time>
      </trkpt>
      <trkpt lat="40.4545820" lon="-3.9443270">
        <ele>622.6</ele>
        <time>2019-04-28T13:01:27Z</time>
      </trkpt>
      <trkpt lat="40.4545480" lon="-3.9443600">
        <ele>622.8</ele>
        <time>2019-04-28T13:01:28Z</time>
      </trkpt>
      <trkpt lat="40.4545140" lon="-3.9443940">
        <ele>622.6</ele>
        <time>2019-04-28T13:01:29Z</time>
      </trkpt>
      <trkpt lat="40.4544990" lon="-3.9444260">
        <ele>622.8</ele>
        <time>2019-04-28T13:01:30Z</time>
      </trkpt>
      <trkpt lat="40.4544650" lon="-3.9444500">
        <ele>623.0</ele>
        <time>2019-04-28T13:01:31Z</time>
      </trkpt>
      <trkpt lat="40.4544410" lon="-3.9444570">
        <ele>623.2</ele>
        <time>2019-04-28T13:01:32Z</time>
      </trkpt>
      <trkpt lat="40.4544020" lon="-3.9444640">
        <ele>623.2</ele>
        <time>2019-04-28T13:01:33Z</time>
      </trkpt>
      <trkpt lat="40.4543460" lon="-3.9444640">
        <ele>623.4</ele>
        <time>2019-04-28T13:01:34Z</time>
      </trkpt>
      <trkpt lat="40.4542990" lon="-3.9444730">
        <ele>623.8</ele>
        <time>2019-04-28T13:01:35Z</time>
      </trkpt>
      <trkpt lat="40.4542530" lon="-3.9444870">
        <ele>624.0</ele>
        <time>2019-04-28T13:01:36Z</time>
      </trkpt>
      <trkpt lat="40.4542070" lon="-3.9444990">
        <ele>624.0</ele>
        <time>2019-04-28T13:01:37Z</time>
      </trkpt>
      <trkpt lat="40.4541610" lon="-3.9445110">
        <ele>624.2</ele>
        <time>2019-04-28T13:01:38Z</time>
      </trkpt>
      <trkpt lat="40.4541160" lon="-3.9445290">
        <ele>624.4</ele>
        <time>2019-04-28T13:01:39Z</time>
      </trkpt>
      <trkpt lat="40.4540750" lon="-3.9445530">
        <ele>624.4</ele>
        <time>2019-04-28T13:01:40Z</time>
      </trkpt>
      <trkpt lat="40.4540340" lon="-3.9445740">
        <ele>624.4</ele>
        <time>2019-04-28T13:01:41Z</time>
      </trkpt>
      <trkpt lat="40.4539900" lon="-3.9445920">
        <ele>624.6</ele>
        <time>2019-04-28T13:01:42Z</time>
      </trkpt>
      <trkpt lat="40.4539510" lon="-3.9446100">
        <ele>624.6</ele>
        <time>2019-04-28T13:01:43Z</time>
      </trkpt>
      <trkpt lat="40.4539070" lon="-3.9446190">
        <ele>624.4</ele>
        <time>2019-04-28T13:01:44Z</time>
      </trkpt>
      <trkpt lat="40.4538570" lon="-3.9446260">
        <ele>624.6</ele>
        <time>2019-04-28T13:01:45Z</time>
      </trkpt>
      <trkpt lat="40.4538070" lon="-3.9446320">
        <ele>624.6</ele>
        <time>2019-04-28T13:01:46Z</time>
      </trkpt>
      <trkpt lat="40.4537600" lon="-3.9446430">
        <ele>624.6</ele>
        <time>2019-04-28T13:01:47Z</time>
      </trkpt>
      <trkpt lat="40.4537100" lon="-3.9446600">
        <ele>624.6</ele>
        <time>2019-04-28T13:01:48Z</time>
      </trkpt>
      <trkpt lat="40.4536590" lon="-3.9446820">
        <ele>624.6</ele>
        <time>2019-04-28T13:01:49Z</time>
      </trkpt>
      <trkpt lat="40.4536120" lon="-3.9447070">
        <ele>624.6</ele>
        <time>2019-04-28T13:01:50Z</time>
      </trkpt>
      <trkpt lat="40.4535640" lon="-3.9447250">
        <ele>624.6</ele>
        <time>2019-04-28T13:01:51Z</time>
      </trkpt>
      <trkpt lat="40.4535130" lon="-3.9447450">
        <ele>624.4</ele>
        <time>2019-04-28T13:01:52Z</time>
      </trkpt>
      <trkpt lat="40.4534630" lon="-3.9447620">
        <ele>624.6</ele>
        <time>2019-04-28T13:01:53Z</time>
      </trkpt>
      <trkpt lat="40.4534180" lon="-3.9447810">
        <ele>624.4</ele>
        <time>2019-04-28T13:01:54Z</time>
      </trkpt>
      <trkpt lat="40.4533740" lon="-3.9447940">
        <ele>624.2</ele>
        <time>2019-04-28T13:01:55Z</time>
      </trkpt>
      <trkpt lat="40.4533270" lon="-3.9448130">
        <ele>624.0</ele>
        <time>2019-04-28T13:01:56Z</time>
      </trkpt>
      <trkpt lat="40.4532760" lon="-3.9448370">
        <ele>624.0</ele>
        <time>2019-04-28T13:01:57Z</time>
      </trkpt>
      <trkpt lat="40.4532340" lon="-3.9448730">
        <ele>624.2</ele>
        <time>2019-04-28T13:01:58Z</time>
      </trkpt>
      <trkpt lat="40.4532070" lon="-3.9449200">
        <ele>624.2</ele>
        <time>2019-04-28T13:01:59Z</time>
      </trkpt>
      <trkpt lat="40.4531720" lon="-3.9449690">
        <ele>624.4</ele>
        <time>2019-04-28T13:02:00Z</time>
      </trkpt>
      <trkpt lat="40.4531290" lon="-3.9450090">
        <ele>624.4</ele>
        <time>2019-04-28T13:02:01Z</time>
      </trkpt>
      <trkpt lat="40.4530850" lon="-3.9450420">
        <ele>624.4</ele>
        <time>2019-04-28T13:02:02Z</time>
      </trkpt>
      <trkpt lat="40.4530390" lon="-3.9450640">
        <ele>624.4</ele>
        <time>2019-04-28T13:02:03Z</time>
      </trkpt>
      <trkpt lat="40.4529880" lon="-3.9450790">
        <ele>624.4</ele>
        <time>2019-04-28T13:02:04Z</time>
      </trkpt>
      <trkpt lat="40.4529370" lon="-3.9450970">
        <ele>624.4</ele>
        <time>2019-04-28T13:02:05Z</time>
      </trkpt>
      <trkpt lat="40.4528880" lon="-3.9451270">
        <ele>624.2</ele>
        <time>2019-04-28T13:02:06Z</time>
      </trkpt>
      <trkpt lat="40.4528420" lon="-3.9451680">
        <ele>624.4</ele>
        <time>2019-04-28T13:02:07Z</time>
      </trkpt>
      <trkpt lat="40.4528010" lon="-3.9452170">
        <ele>624.2</ele>
        <time>2019-04-28T13:02:08Z</time>
      </trkpt>
      <trkpt lat="40.4527650" lon="-3.9452740">
        <ele>624.2</ele>
        <time>2019-04-28T13:02:09Z</time>
      </trkpt>
      <trkpt lat="40.4527280" lon="-3.9453290">
        <ele>624.2</ele>
        <time>2019-04-28T13:02:10Z</time>
      </trkpt>
      <trkpt lat="40.4526900" lon="-3.9453800">
        <ele>624.2</ele>
        <time>2019-04-28T13:02:11Z</time>
      </trkpt>
      <trkpt lat="40.4526550" lon="-3.9454320">
        <ele>624.2</ele>
        <time>2019-04-28T13:02:12Z</time>
      </trkpt>
      <trkpt lat="40.4526250" lon="-3.9454760">
        <ele>624.2</ele>
        <time>2019-04-28T13:02:13Z</time>
      </trkpt>
      <trkpt lat="40.4525900" lon="-3.9455170">
        <ele>624.2</ele>
        <time>2019-04-28T13:02:14Z</time>
      </trkpt>
      <trkpt lat="40.4525520" lon="-3.9455560">
        <ele>624.0</ele>
        <time>2019-04-28T13:02:15Z</time>
      </trkpt>
      <trkpt lat="40.4525140" lon="-3.9455930">
        <ele>624.0</ele>
        <time>2019-04-28T13:02:16Z</time>
      </trkpt>
      <trkpt lat="40.4524760" lon="-3.9456310">
        <ele>624.0</ele>
        <time>2019-04-28T13:02:17Z</time>
      </trkpt>
      <trkpt lat="40.4524330" lon="-3.9456740">
        <ele>623.8</ele>
        <time>2019-04-28T13:02:18Z</time>
      </trkpt>
      <trkpt lat="40.4523880" lon="-3.9457170">
        <ele>623.6</ele>
        <time>2019-04-28T13:02:19Z</time>
      </trkpt>
      <trkpt lat="40.4523400" lon="-3.9457580">
        <ele>623.6</ele>
        <time>2019-04-28T13:02:20Z</time>
      </trkpt>
      <trkpt lat="40.4522900" lon="-3.9457980">
        <ele>623.2</ele>
        <time>2019-04-28T13:02:21Z</time>
      </trkpt>
      <trkpt lat="40.4522370" lon="-3.9458380">
        <ele>623.0</ele>
        <time>2019-04-28T13:02:22Z</time>
      </trkpt>
      <trkpt lat="40.4521820" lon="-3.9458790">
        <ele>622.8</ele>
        <time>2019-04-28T13:02:23Z</time>
      </trkpt>
      <trkpt lat="40.4521270" lon="-3.9459220">
        <ele>622.8</ele>
        <time>2019-04-28T13:02:24Z</time>
      </trkpt>
      <trkpt lat="40.4520720" lon="-3.9459640">
        <ele>622.6</ele>
        <time>2019-04-28T13:02:25Z</time>
      </trkpt>
      <trkpt lat="40.4520190" lon="-3.9460100">
        <ele>622.6</ele>
        <time>2019-04-28T13:02:26Z</time>
      </trkpt>
      <trkpt lat="40.4519630" lon="-3.9460510">
        <ele>622.4</ele>
        <time>2019-04-28T13:02:27Z</time>
      </trkpt>
      <trkpt lat="40.4519030" lon="-3.9460870">
        <ele>622.2</ele>
        <time>2019-04-28T13:02:28Z</time>
      </trkpt>
      <trkpt lat="40.4518430" lon="-3.9461230">
        <ele>622.2</ele>
        <time>2019-04-28T13:02:29Z</time>
      </trkpt>
      <trkpt lat="40.4517870" lon="-3.9461630">
        <ele>622.0</ele>
        <time>2019-04-28T13:02:30Z</time>
      </trkpt>
      <trkpt lat="40.4517300" lon="-3.9461980">
        <ele>622.2</ele>
        <time>2019-04-28T13:02:31Z</time>
      </trkpt>
      <trkpt lat="40.4516750" lon="-3.9462290">
        <ele>622.0</ele>
        <time>2019-04-28T13:02:32Z</time>
      </trkpt>
      <trkpt lat="40.4516210" lon="-3.9462660">
        <ele>621.8</ele>
        <time>2019-04-28T13:02:33Z</time>
      </trkpt>
      <trkpt lat="40.4515690" lon="-3.9463110">
        <ele>621.6</ele>
        <time>2019-04-28T13:02:34Z</time>
      </trkpt>
      <trkpt lat="40.4515090" lon="-3.9463560">
        <ele>621.6</ele>
        <time>2019-04-28T13:02:35Z</time>
      </trkpt>
      <trkpt lat="40.4514540" lon="-3.9464050">
        <ele>621.6</ele>
        <time>2019-04-28T13:02:36Z</time>
      </trkpt>
      <trkpt lat="40.4513980" lon="-3.9464500">
        <ele>621.6</ele>
        <time>2019-04-28T13:02:37Z</time>
      </trkpt>
      <trkpt lat="40.4513360" lon="-3.9464920">
        <ele>621.6</ele>
        <time>2019-04-28T13:02:38Z</time>
      </trkpt>
      <trkpt lat="40.4512790" lon="-3.9465380">
        <ele>621.4</ele>
        <time>2019-04-28T13:02:39Z</time>
      </trkpt>
      <trkpt lat="40.4512260" lon="-3.9465870">
        <ele>621.2</ele>
        <time>2019-04-28T13:02:40Z</time>
      </trkpt>
      <trkpt lat="40.4511730" lon="-3.9466320">
        <ele>621.2</ele>
        <time>2019-04-28T13:02:41Z</time>
      </trkpt>
      <trkpt lat="40.4511230" lon="-3.9466710">
        <ele>621.0</ele>
        <time>2019-04-28T13:02:42Z</time>
      </trkpt>
      <trkpt lat="40.4510720" lon="-3.9467000">
        <ele>621.0</ele>
        <time>2019-04-28T13:02:43Z</time>
      </trkpt>
      <trkpt lat="40.4510220" lon="-3.9467380">
        <ele>621.0</ele>
        <time>2019-04-28T13:02:44Z</time>
      </trkpt>
      <trkpt lat="40.4509830" lon="-3.9467830">
        <ele>620.8</ele>
        <time>2019-04-28T13:02:45Z</time>
      </trkpt>
      <trkpt lat="40.4509360" lon="-3.9468350">
        <ele>621.0</ele>
        <time>2019-04-28T13:02:46Z</time>
      </trkpt>
      <trkpt lat="40.4508820" lon="-3.9468800">
        <ele>621.0</ele>
        <time>2019-04-28T13:02:47Z</time>
      </trkpt>
      <trkpt lat="40.4508300" lon="-3.9469190">
        <ele>621.0</ele>
        <time>2019-04-28T13:02:48Z</time>
      </trkpt>
      <trkpt lat="40.4507830" lon="-3.9469580">
        <ele>621.0</ele>
        <time>2019-04-28T13:02:49Z</time>
      </trkpt>
      <trkpt lat="40.4507360" lon="-3.9469990">
        <ele>621.0</ele>
        <time>2019-04-28T13:02:50Z</time>
      </trkpt>
      <trkpt lat="40.4506880" lon="-3.9470400">
        <ele>621.0</ele>
        <time>2019-04-28T13:02:51Z</time>
      </trkpt>
      <trkpt lat="40.4506380" lon="-3.9470590">
        <ele>621.0</ele>
        <time>2019-04-28T13:02:52Z</time>
      </trkpt>
      <trkpt lat="40.4505810" lon="-3.9470590">
        <ele>621.2</ele>
        <time>2019-04-28T13:02:53Z</time>
      </trkpt>
      <trkpt lat="40.4505230" lon="-3.9470560">
        <ele>621.2</ele>
        <time>2019-04-28T13:02:54Z</time>
      </trkpt>
      <trkpt lat="40.4504620" lon="-3.9470740">
        <ele>621.4</ele>
        <time>2019-04-28T13:02:55Z</time>
      </trkpt>
      <trkpt lat="40.4504100" lon="-3.9471110">
        <ele>621.4</ele>
        <time>2019-04-28T13:02:56Z</time>
      </trkpt>
      <trkpt lat="40.4503620" lon="-3.9471560">
        <ele>621.0</ele>
        <time>2019-04-28T13:02:57Z</time>
      </trkpt>
      <trkpt lat="40.4503190" lon="-3.9472030">
        <ele>621.2</ele>
        <time>2019-04-28T13:02:58Z</time>
      </trkpt>
      <trkpt lat="40.4502720" lon="-3.9472470">
        <ele>621.0</ele>
        <time>2019-04-28T13:02:59Z</time>
      </trkpt>
      <trkpt lat="40.4502170" lon="-3.9472940">
        <ele>621.0</ele>
        <time>2019-04-28T13:03:00Z</time>
      </trkpt>
      <trkpt lat="40.4501600" lon="-3.9473320">
        <ele>621.0</ele>
        <time>2019-04-28T13:03:01Z</time>
      </trkpt>
      <trkpt lat="40.4500970" lon="-3.9473690">
        <ele>621.0</ele>
        <time>2019-04-28T13:03:02Z</time>
      </trkpt>
      <trkpt lat="40.4500330" lon="-3.9474110">
        <ele>620.8</ele>
        <time>2019-04-28T13:03:03Z</time>
      </trkpt>
      <trkpt lat="40.4499700" lon="-3.9474500">
        <ele>620.6</ele>
        <time>2019-04-28T13:03:04Z</time>
      </trkpt>
      <trkpt lat="40.4499060" lon="-3.9474870">
        <ele>620.4</ele>
        <time>2019-04-28T13:03:05Z</time>
      </trkpt>
      <trkpt lat="40.4498440" lon="-3.9475190">
        <ele>620.4</ele>
        <time>2019-04-28T13:03:06Z</time>
      </trkpt>
      <trkpt lat="40.4497810" lon="-3.9475480">
        <ele>620.6</ele>
        <time>2019-04-28T13:03:07Z</time>
      </trkpt>
      <trkpt lat="40.4497160" lon="-3.9475620">
        <ele>620.4</ele>
        <time>2019-04-28T13:03:08Z</time>
      </trkpt>
      <trkpt lat="40.4496550" lon="-3.9475630">
        <ele>620.0</ele>
        <time>2019-04-28T13:03:09Z</time>
      </trkpt>
      <trkpt lat="40.4495960" lon="-3.9475560">
        <ele>620.2</ele>
        <time>2019-04-28T13:03:10Z</time>
      </trkpt>
      <trkpt lat="40.4495380" lon="-3.9475530">
        <ele>620.2</ele>
        <time>2019-04-28T13:03:11Z</time>
      </trkpt>
      <trkpt lat="40.4494800" lon="-3.9475570">
        <ele>620.4</ele>
        <time>2019-04-28T13:03:12Z</time>
      </trkpt>
      <trkpt lat="40.4494210" lon="-3.9475630">
        <ele>620.6</ele>
        <time>2019-04-28T13:03:13Z</time>
      </trkpt>
      <trkpt lat="40.4493630" lon="-3.9475710">
        <ele>620.2</ele>
        <time>2019-04-28T13:03:14Z</time>
      </trkpt>
      <trkpt lat="40.4493050" lon="-3.9475850">
        <ele>620.2</ele>
        <time>2019-04-28T13:03:15Z</time>
      </trkpt>
      <trkpt lat="40.4492540" lon="-3.9476050">
        <ele>620.2</ele>
        <time>2019-04-28T13:03:16Z</time>
      </trkpt>
      <trkpt lat="40.4492050" lon="-3.9476370">
        <ele>620.2</ele>
        <time>2019-04-28T13:03:17Z</time>
      </trkpt>
      <trkpt lat="40.4491530" lon="-3.9476660">
        <ele>620.2</ele>
        <time>2019-04-28T13:03:18Z</time>
      </trkpt>
      <trkpt lat="40.4490970" lon="-3.9476980">
        <ele>620.2</ele>
        <time>2019-04-28T13:03:19Z</time>
      </trkpt>
      <trkpt lat="40.4490390" lon="-3.9477280">
        <ele>620.4</ele>
        <time>2019-04-28T13:03:20Z</time>
      </trkpt>
      <trkpt lat="40.4489760" lon="-3.9477500">
        <ele>620.4</ele>
        <time>2019-04-28T13:03:21Z</time>
      </trkpt>
      <trkpt lat="40.4489120" lon="-3.9477650">
        <ele>620.4</ele>
        <time>2019-04-28T13:03:22Z</time>
      </trkpt>
      <trkpt lat="40.4488500" lon="-3.9477750">
        <ele>620.6</ele>
        <time>2019-04-28T13:03:23Z</time>
      </trkpt>
      <trkpt lat="40.4487860" lon="-3.9477850">
        <ele>620.4</ele>
        <time>2019-04-28T13:03:24Z</time>
      </trkpt>
      <trkpt lat="40.4487280" lon="-3.9478040">
        <ele>620.4</ele>
        <time>2019-04-28T13:03:25Z</time>
      </trkpt>
      <trkpt lat="40.4486720" lon="-3.9478340">
        <ele>620.6</ele>
        <time>2019-04-28T13:03:26Z</time>
      </trkpt>
      <trkpt lat="40.4486190" lon="-3.9478730">
        <ele>620.6</ele>
        <time>2019-04-28T13:03:27Z</time>
      </trkpt>
      <trkpt lat="40.4485730" lon="-3.9479210">
        <ele>620.4</ele>
        <time>2019-04-28T13:03:28Z</time>
      </trkpt>
      <trkpt lat="40.4485250" lon="-3.9479760">
        <ele>620.4</ele>
        <time>2019-04-28T13:03:29Z</time>
      </trkpt>
      <trkpt lat="40.4484770" lon="-3.9480330">
        <ele>620.2</ele>
        <time>2019-04-28T13:03:30Z</time>
      </trkpt>
      <trkpt lat="40.4484250" lon="-3.9480870">
        <ele>620.4</ele>
        <time>2019-04-28T13:03:31Z</time>
      </trkpt>
      <trkpt lat="40.4483670" lon="-3.9481290">
        <ele>620.4</ele>
        <time>2019-04-28T13:03:32Z</time>
      </trkpt>
      <trkpt lat="40.4483070" lon="-3.9481620">
        <ele>620.2</ele>
        <time>2019-04-28T13:03:33Z</time>
      </trkpt>
      <trkpt lat="40.4482480" lon="-3.9481990">
        <ele>620.2</ele>
        <time>2019-04-28T13:03:34Z</time>
      </trkpt>
      <trkpt lat="40.4481920" lon="-3.9482430">
        <ele>620.4</ele>
        <time>2019-04-28T13:03:35Z</time>
      </trkpt>
      <trkpt lat="40.4481410" lon="-3.9482880">
        <ele>620.4</ele>
        <time>2019-04-28T13:03:36Z</time>
      </trkpt>
      <trkpt lat="40.4480860" lon="-3.9483300">
        <ele>620.4</ele>
        <time>2019-04-28T13:03:37Z</time>
      </trkpt>
      <trkpt lat="40.4480330" lon="-3.9483680">
        <ele>620.4</ele>
        <time>2019-04-28T13:03:38Z</time>
      </trkpt>
      <trkpt lat="40.4479800" lon="-3.9483990">
        <ele>620.4</ele>
        <time>2019-04-28T13:03:39Z</time>
      </trkpt>
      <trkpt lat="40.4479200" lon="-3.9484230">
        <ele>620.4</ele>
        <time>2019-04-28T13:03:40Z</time>
      </trkpt>
      <trkpt lat="40.4478650" lon="-3.9484370">
        <ele>620.8</ele>
        <time>2019-04-28T13:03:41Z</time>
      </trkpt>
      <trkpt lat="40.4478030" lon="-3.9484550">
        <ele>620.8</ele>
        <time>2019-04-28T13:03:42Z</time>
      </trkpt>
      <trkpt lat="40.4477410" lon="-3.9484730">
        <ele>620.8</ele>
        <time>2019-04-28T13:03:43Z</time>
      </trkpt>
      <trkpt lat="40.4476800" lon="-3.9484900">
        <ele>620.8</ele>
        <time>2019-04-28T13:03:44Z</time>
      </trkpt>
      <trkpt lat="40.4476180" lon="-3.9485050">
        <ele>620.8</ele>
        <time>2019-04-28T13:03:45Z</time>
      </trkpt>
      <trkpt lat="40.4475570" lon="-3.9485180">
        <ele>621.0</ele>
        <time>2019-04-28T13:03:46Z</time>
      </trkpt>
      <trkpt lat="40.4474930" lon="-3.9485270">
        <ele>621.0</ele>
        <time>2019-04-28T13:03:47Z</time>
      </trkpt>
      <trkpt lat="40.4474260" lon="-3.9485350">
        <ele>621.0</ele>
        <time>2019-04-28T13:03:48Z</time>
      </trkpt>
      <trkpt lat="40.4473610" lon="-3.9485460">
        <ele>621.0</ele>
        <time>2019-04-28T13:03:49Z</time>
      </trkpt>
      <trkpt lat="40.4472920" lon="-3.9485590">
        <ele>621.0</ele>
        <time>2019-04-28T13:03:50Z</time>
      </trkpt>
      <trkpt lat="40.4472270" lon="-3.9485750">
        <ele>621.0</ele>
        <time>2019-04-28T13:03:51Z</time>
      </trkpt>
      <trkpt lat="40.4471630" lon="-3.9485930">
        <ele>621.0</ele>
        <time>2019-04-28T13:03:52Z</time>
      </trkpt>
      <trkpt lat="40.4471020" lon="-3.9486170">
        <ele>621.0</ele>
        <time>2019-04-28T13:03:53Z</time>
      </trkpt>
      <trkpt lat="40.4470450" lon="-3.9486450">
        <ele>621.2</ele>
        <time>2019-04-28T13:03:54Z</time>
      </trkpt>
      <trkpt lat="40.4469900" lon="-3.9486780">
        <ele>621.2</ele>
        <time>2019-04-28T13:03:55Z</time>
      </trkpt>
      <trkpt lat="40.4469330" lon="-3.9487110">
        <ele>621.0</ele>
        <time>2019-04-28T13:03:56Z</time>
      </trkpt>
      <trkpt lat="40.4468780" lon="-3.9487410">
        <ele>621.0</ele>
        <time>2019-04-28T13:03:57Z</time>
      </trkpt>
      <trkpt lat="40.4468230" lon="-3.9487710">
        <ele>620.8</ele>
        <time>2019-04-28T13:03:58Z</time>
      </trkpt>
      <trkpt lat="40.4467610" lon="-3.9488020">
        <ele>620.8</ele>
        <time>2019-04-28T13:03:59Z</time>
      </trkpt>
      <trkpt lat="40.4466990" lon="-3.9488330">
        <ele>620.4</ele>
        <time>2019-04-28T13:04:00Z</time>
      </trkpt>
      <trkpt lat="40.4466380" lon="-3.9488580">
        <ele>620.2</ele>
        <time>2019-04-28T13:04:01Z</time>
      </trkpt>
      <trkpt lat="40.4465770" lon="-3.9488800">
        <ele>620.2</ele>
        <time>2019-04-28T13:04:02Z</time>
      </trkpt>
      <trkpt lat="40.4465160" lon="-3.9488940">
        <ele>620.2</ele>
        <time>2019-04-28T13:04:03Z</time>
      </trkpt>
      <trkpt lat="40.4464560" lon="-3.9489050">
        <ele>620.0</ele>
        <time>2019-04-28T13:04:04Z</time>
      </trkpt>
      <trkpt lat="40.4463960" lon="-3.9489060">
        <ele>620.0</ele>
        <time>2019-04-28T13:04:05Z</time>
      </trkpt>
      <trkpt lat="40.4463340" lon="-3.9489000">
        <ele>619.6</ele>
        <time>2019-04-28T13:04:06Z</time>
      </trkpt>
      <trkpt lat="40.4462700" lon="-3.9488910">
        <ele>619.8</ele>
        <time>2019-04-28T13:04:07Z</time>
      </trkpt>
      <trkpt lat="40.4462060" lon="-3.9488790">
        <ele>619.6</ele>
        <time>2019-04-28T13:04:08Z</time>
      </trkpt>
      <trkpt lat="40.4461400" lon="-3.9488660">
        <ele>619.8</ele>
        <time>2019-04-28T13:04:09Z</time>
      </trkpt>
      <trkpt lat="40.4460760" lon="-3.9488450">
        <ele>619.6</ele>
        <time>2019-04-28T13:04:10Z</time>
      </trkpt>
      <trkpt lat="40.4460130" lon="-3.9488230">
        <ele>619.6</ele>
        <time>2019-04-28T13:04:11Z</time>
      </trkpt>
      <trkpt lat="40.4459550" lon="-3.9488140">
        <ele>619.4</ele>
        <time>2019-04-28T13:04:12Z</time>
      </trkpt>
      <trkpt lat="40.4459060" lon="-3.9488220">
        <ele>619.4</ele>
        <time>2019-04-28T13:04:13Z</time>
      </trkpt>
      <trkpt lat="40.4458680" lon="-3.9488480">
        <ele>619.4</ele>
        <time>2019-04-28T13:04:14Z</time>
      </trkpt>
      <trkpt lat="40.4458350" lon="-3.9488720">
        <ele>619.2</ele>
        <time>2019-04-28T13:04:15Z</time>
      </trkpt>
      <trkpt lat="40.4457980" lon="-3.9488850">
        <ele>619.2</ele>
        <time>2019-04-28T13:04:16Z</time>
      </trkpt>
      <trkpt lat="40.4457520" lon="-3.9488880">
        <ele>619.4</ele>
        <time>2019-04-28T13:04:17Z</time>
      </trkpt>
      <trkpt lat="40.4457010" lon="-3.9488910">
        <ele>619.6</ele>
        <time>2019-04-28T13:04:18Z</time>
      </trkpt>
      <trkpt lat="40.4456560" lon="-3.9488960">
        <ele>619.6</ele>
        <time>2019-04-28T13:04:19Z</time>
      </trkpt>
      <trkpt lat="40.4456020" lon="-3.9488940">
        <ele>619.6</ele>
        <time>2019-04-28T13:04:20Z</time>
      </trkpt>
      <trkpt lat="40.4455440" lon="-3.9489000">
        <ele>619.8</ele>
        <time>2019-04-28T13:04:21Z</time>
      </trkpt>
      <trkpt lat="40.4454870" lon="-3.9489090">
        <ele>619.8</ele>
        <time>2019-04-28T13:04:22Z</time>
      </trkpt>
      <trkpt lat="40.4454280" lon="-3.9489190">
        <ele>619.8</ele>
        <time>2019-04-28T13:04:23Z</time>
      </trkpt>
      <trkpt lat="40.4453700" lon="-3.9489220">
        <ele>620.0</ele>
        <time>2019-04-28T13:04:24Z</time>
      </trkpt>
      <trkpt lat="40.4453160" lon="-3.9489270">
        <ele>619.8</ele>
        <time>2019-04-28T13:04:25Z</time>
      </trkpt>
      <trkpt lat="40.4452580" lon="-3.9489270">
        <ele>619.8</ele>
        <time>2019-04-28T13:04:26Z</time>
      </trkpt>
      <trkpt lat="40.4452050" lon="-3.9489310">
        <ele>619.6</ele>
        <time>2019-04-28T13:04:27Z</time>
      </trkpt>
      <trkpt lat="40.4451480" lon="-3.9489250">
        <ele>619.8</ele>
        <time>2019-04-28T13:04:28Z</time>
      </trkpt>
      <trkpt lat="40.4450930" lon="-3.9489180">
        <ele>619.8</ele>
        <time>2019-04-28T13:04:29Z</time>
      </trkpt>
      <trkpt lat="40.4450440" lon="-3.9489080">
        <ele>619.8</ele>
        <time>2019-04-28T13:04:30Z</time>
      </trkpt>
      <trkpt lat="40.4449910" lon="-3.9488900">
        <ele>619.8</ele>
        <time>2019-04-28T13:04:31Z</time>
      </trkpt>
      <trkpt lat="40.4449390" lon="-3.9488710">
        <ele>619.8</ele>
        <time>2019-04-28T13:04:32Z</time>
      </trkpt>
      <trkpt lat="40.4448850" lon="-3.9488490">
        <ele>619.8</ele>
        <time>2019-04-28T13:04:33Z</time>
      </trkpt>
      <trkpt lat="40.4448390" lon="-3.9488410">
        <ele>619.8</ele>
        <time>2019-04-28T13:04:34Z</time>
      </trkpt>
      <trkpt lat="40.4447940" lon="-3.9488330">
        <ele>619.6</ele>
        <time>2019-04-28T13:04:35Z</time>
      </trkpt>
      <trkpt lat="40.4447480" lon="-3.9488210">
        <ele>619.6</ele>
        <time>2019-04-28T13:04:36Z</time>
      </trkpt>
      <trkpt lat="40.4446990" lon="-3.9488080">
        <ele>619.4</ele>
        <time>2019-04-28T13:04:37Z</time>
      </trkpt>
      <trkpt lat="40.4446490" lon="-3.9488030">
        <ele>619.4</ele>
        <time>2019-04-28T13:04:38Z</time>
      </trkpt>
      <trkpt lat="40.4446070" lon="-3.9488000">
        <ele>619.4</ele>
        <time>2019-04-28T13:04:39Z</time>
      </trkpt>
      <trkpt lat="40.4445560" lon="-3.9487910">
        <ele>619.2</ele>
        <time>2019-04-28T13:04:40Z</time>
      </trkpt>
      <trkpt lat="40.4445220" lon="-3.9487760">
        <ele>619.0</ele>
        <time>2019-04-28T13:04:41Z</time>
      </trkpt>
      <trkpt lat="40.4444800" lon="-3.9487760">
        <ele>619.2</ele>
        <time>2019-04-28T13:04:42Z</time>
      </trkpt>
      <trkpt lat="40.4444270" lon="-3.9487830">
        <ele>619.2</ele>
        <time>2019-04-28T13:04:43Z</time>
      </trkpt>
      <trkpt lat="40.4443770" lon="-3.9487910">
        <ele>619.4</ele>
        <time>2019-04-28T13:04:44Z</time>
      </trkpt>
      <trkpt lat="40.4443160" lon="-3.9487880">
        <ele>619.6</ele>
        <time>2019-04-28T13:04:45Z</time>
      </trkpt>
      <trkpt lat="40.4442650" lon="-3.9487940">
        <ele>619.8</ele>
        <time>2019-04-28T13:04:46Z</time>
      </trkpt>
      <trkpt lat="40.4442170" lon="-3.9488000">
        <ele>620.0</ele>
        <time>2019-04-28T13:04:47Z</time>
      </trkpt>
      <trkpt lat="40.4441720" lon="-3.9488050">
        <ele>620.2</ele>
        <time>2019-04-28T13:04:48Z</time>
      </trkpt>
      <trkpt lat="40.4441220" lon="-3.9488060">
        <ele>620.4</ele>
        <time>2019-04-28T13:04:49Z</time>
      </trkpt>
      <trkpt lat="40.4440770" lon="-3.9488000">
        <ele>620.6</ele>
        <time>2019-04-28T13:04:50Z</time>
      </trkpt>
      <trkpt lat="40.4440340" lon="-3.9487930">
        <ele>620.8</ele>
        <time>2019-04-28T13:04:51Z</time>
      </trkpt>
      <trkpt lat="40.4439960" lon="-3.9487870">
        <ele>621.0</ele>
        <time>2019-04-28T13:04:52Z</time>
      </trkpt>
      <trkpt lat="40.4439650" lon="-3.9487800">
        <ele>621.2</ele>
        <time>2019-04-28T13:04:53Z</time>
      </trkpt>
      <trkpt lat="40.4439380" lon="-3.9487770">
        <ele>621.2</ele>
        <time>2019-04-28T13:04:54Z</time>
      </trkpt>
      <trkpt lat="40.4439120" lon="-3.9487740">
        <ele>621.2</ele>
        <time>2019-04-28T13:04:55Z</time>
      </trkpt>
      <trkpt lat="40.4438880" lon="-3.9487770">
        <ele>621.0</ele>
        <time>2019-04-28T13:04:56Z</time>
      </trkpt>
      <trkpt lat="40.4438640" lon="-3.9487770">
        <ele>620.6</ele>
        <time>2019-04-28T13:04:57Z</time>
      </trkpt>
      <trkpt lat="40.4438380" lon="-3.9487710">
        <ele>620.4</ele>
        <time>2019-04-28T13:04:58Z</time>
      </trkpt>
      <trkpt lat="40.4438210" lon="-3.9487640">
        <ele>620.2</ele>
        <time>2019-04-28T13:04:59Z</time>
      </trkpt>
      <trkpt lat="40.4437980" lon="-3.9487600">
        <ele>620.2</ele>
        <time>2019-04-28T13:05:00Z</time>
      </trkpt>
      <trkpt lat="40.4437690" lon="-3.9487610">
        <ele>620.2</ele>
        <time>2019-04-28T13:05:01Z</time>
      </trkpt>
      <trkpt lat="40.4437340" lon="-3.9487650">
        <ele>620.0</ele>
        <time>2019-04-28T13:05:02Z</time>
      </trkpt>
      <trkpt lat="40.4436940" lon="-3.9487650">
        <ele>619.8</ele>
        <time>2019-04-28T13:05:03Z</time>
      </trkpt>
      <trkpt lat="40.4436580" lon="-3.9487650">
        <ele>619.6</ele>
        <time>2019-04-28T13:05:04Z</time>
      </trkpt>
      <trkpt lat="40.4436180" lon="-3.9487570">
        <ele>619.6</ele>
        <time>2019-04-28T13:05:05Z</time>
      </trkpt>
      <trkpt lat="40.4435830" lon="-3.9487510">
        <ele>619.8</ele>
        <time>2019-04-28T13:05:06Z</time>
      </trkpt>
      <trkpt lat="40.4435490" lon="-3.9487480">
        <ele>619.6</ele>
        <time>2019-04-28T13:05:07Z</time>
      </trkpt>
      <trkpt lat="40.4435170" lon="-3.9487470">
        <ele>619.6</ele>
        <time>2019-04-28T13:05:08Z</time>
      </trkpt>
      <trkpt lat="40.4434840" lon="-3.9487450">
        <ele>619.6</ele>
        <time>2019-04-28T13:05:09Z</time>
      </trkpt>
      <trkpt lat="40.4434500" lon="-3.9487440">
        <ele>619.6</ele>
        <time>2019-04-28T13:05:10Z</time>
      </trkpt>
      <trkpt lat="40.4434110" lon="-3.9487480">
        <ele>619.6</ele>
        <time>2019-04-28T13:05:11Z</time>
      </trkpt>
      <trkpt lat="40.4433720" lon="-3.9487460">
        <ele>620.4</ele>
        <time>2019-04-28T13:05:12Z</time>
      </trkpt>
      <trkpt lat="40.4433290" lon="-3.9487400">
        <ele>621.6</ele>
        <time>2019-04-28T13:05:13Z</time>
      </trkpt>
      <trkpt lat="40.4432920" lon="-3.9487350">
        <ele>621.6</ele>
        <time>2019-04-28T13:05:14Z</time>
      </trkpt>
      <trkpt lat="40.4432500" lon="-3.9487270">
        <ele>621.6</ele>
        <time>2019-04-28T13:05:15Z</time>
      </trkpt>
      <trkpt lat="40.4432040" lon="-3.9487190">
        <ele>621.6</ele>
        <time>2019-04-28T13:05:16Z</time>
      </trkpt>
      <trkpt lat="40.4431610" lon="-3.9487130">
        <ele>621.6</ele>
        <time>2019-04-28T13:05:17Z</time>
      </trkpt>
      <trkpt lat="40.4431190" lon="-3.9487110">
        <ele>621.6</ele>
        <time>2019-04-28T13:05:18Z</time>
      </trkpt>
      <trkpt lat="40.4430710" lon="-3.9487080">
        <ele>621.6</ele>
        <time>2019-04-28T13:05:19Z</time>
      </trkpt>
      <trkpt lat="40.4430170" lon="-3.9487000">
        <ele>621.6</ele>
        <time>2019-04-28T13:05:20Z</time>
      </trkpt>
      <trkpt lat="40.4429640" lon="-3.9486940">
        <ele>621.6</ele>
        <time>2019-04-28T13:05:21Z</time>
      </trkpt>
      <trkpt lat="40.4429120" lon="-3.9486830">
        <ele>621.6</ele>
        <time>2019-04-28T13:05:22Z</time>
      </trkpt>
      <trkpt lat="40.4428590" lon="-3.9486740">
        <ele>621.6</ele>
        <time>2019-04-28T13:05:23Z</time>
      </trkpt>
      <trkpt lat="40.4428100" lon="-3.9486670">
        <ele>621.6</ele>
        <time>2019-04-28T13:05:24Z</time>
      </trkpt>
      <trkpt lat="40.4427570" lon="-3.9486490">
        <ele>621.2</ele>
        <time>2019-04-28T13:05:25Z</time>
      </trkpt>
      <trkpt lat="40.4427050" lon="-3.9486250">
        <ele>621.0</ele>
        <time>2019-04-28T13:05:26Z</time>
      </trkpt>
      <trkpt lat="40.4426530" lon="-3.9486030">
        <ele>620.8</ele>
        <time>2019-04-28T13:05:27Z</time>
      </trkpt>
      <trkpt lat="40.4425990" lon="-3.9485870">
        <ele>621.0</ele>
        <time>2019-04-28T13:05:28Z</time>
      </trkpt>
      <trkpt lat="40.4425460" lon="-3.9485800">
        <ele>621.0</ele>
        <time>2019-04-28T13:05:29Z</time>
      </trkpt>
      <trkpt lat="40.4424960" lon="-3.9485920">
        <ele>621.0</ele>
        <time>2019-04-28T13:05:30Z</time>
      </trkpt>
      <trkpt lat="40.4424530" lon="-3.9486100">
        <ele>621.2</ele>
        <time>2019-04-28T13:05:31Z</time>
      </trkpt>
      <trkpt lat="40.4424110" lon="-3.9486280">
        <ele>621.2</ele>
        <time>2019-04-28T13:05:32Z</time>
      </trkpt>
      <trkpt lat="40.4423630" lon="-3.9486410">
        <ele>621.4</ele>
        <time>2019-04-28T13:05:33Z</time>
      </trkpt>
      <trkpt lat="40.4423150" lon="-3.9486430">
        <ele>621.4</ele>
        <time>2019-04-28T13:05:34Z</time>
      </trkpt>
      <trkpt lat="40.4422630" lon="-3.9486420">
        <ele>621.4</ele>
        <time>2019-04-28T13:05:35Z</time>
      </trkpt>
      <trkpt lat="40.4422030" lon="-3.9486400">
        <ele>621.4</ele>
        <time>2019-04-28T13:05:36Z</time>
      </trkpt>
      <trkpt lat="40.4421480" lon="-3.9486310">
        <ele>621.4</ele>
        <time>2019-04-28T13:05:37Z</time>
      </trkpt>
      <trkpt lat="40.4420930" lon="-3.9486240">
        <ele>621.6</ele>
        <time>2019-04-28T13:05:38Z</time>
      </trkpt>
      <trkpt lat="40.4420480" lon="-3.9486210">
        <ele>621.6</ele>
        <time>2019-04-28T13:05:39Z</time>
      </trkpt>
      <trkpt lat="40.4420020" lon="-3.9486130">
        <ele>621.6</ele>
        <time>2019-04-28T13:05:40Z</time>
      </trkpt>
      <trkpt lat="40.4419540" lon="-3.9485990">
        <ele>621.8</ele>
        <time>2019-04-28T13:05:41Z</time>
      </trkpt>
      <trkpt lat="40.4419060" lon="-3.9485810">
        <ele>622.0</ele>
        <time>2019-04-28T13:05:42Z</time>
      </trkpt>
      <trkpt lat="40.4418700" lon="-3.9485660">
        <ele>622.2</ele>
        <time>2019-04-28T13:05:43Z</time>
      </trkpt>
      <trkpt lat="40.4418280" lon="-3.9485390">
        <ele>622.0</ele>
        <time>2019-04-28T13:05:44Z</time>
      </trkpt>
      <trkpt lat="40.4417840" lon="-3.9485180">
        <ele>622.0</ele>
        <time>2019-04-28T13:05:45Z</time>
      </trkpt>
      <trkpt lat="40.4417370" lon="-3.9484940">
        <ele>622.4</ele>
        <time>2019-04-28T13:05:46Z</time>
      </trkpt>
      <trkpt lat="40.4416960" lon="-3.9484770">
        <ele>622.6</ele>
        <time>2019-04-28T13:05:47Z</time>
      </trkpt>
      <trkpt lat="40.4416560" lon="-3.9484670">
        <ele>622.6</ele>
        <time>2019-04-28T13:05:48Z</time>
      </trkpt>
      <trkpt lat="40.4416070" lon="-3.9484540">
        <ele>622.4</ele>
        <time>2019-04-28T13:05:49Z</time>
      </trkpt>
      <trkpt lat="40.4415610" lon="-3.9484520">
        <ele>622.2</ele>
        <time>2019-04-28T13:05:50Z</time>
      </trkpt>
      <trkpt lat="40.4415250" lon="-3.9484570">
        <ele>622.0</ele>
        <time>2019-04-28T13:05:51Z</time>
      </trkpt>
      <trkpt lat="40.4414790" lon="-3.9484410">
        <ele>622.0</ele>
        <time>2019-04-28T13:05:52Z</time>
      </trkpt>
      <trkpt lat="40.4414360" lon="-3.9484330">
        <ele>622.0</ele>
        <time>2019-04-28T13:05:53Z</time>
      </trkpt>
      <trkpt lat="40.4413920" lon="-3.9484200">
        <ele>622.0</ele>
        <time>2019-04-28T13:05:54Z</time>
      </trkpt>
      <trkpt lat="40.4413430" lon="-3.9483860">
        <ele>622.0</ele>
        <time>2019-04-28T13:05:55Z</time>
      </trkpt>
      <trkpt lat="40.4413090" lon="-3.9483380">
        <ele>622.0</ele>
        <time>2019-04-28T13:05:56Z</time>
      </trkpt>
      <trkpt lat="40.4412790" lon="-3.9482790">
        <ele>621.8</ele>
        <time>2019-04-28T13:05:57Z</time>
      </trkpt>
      <trkpt lat="40.4412440" lon="-3.9482240">
        <ele>621.8</ele>
        <time>2019-04-28T13:05:58Z</time>
      </trkpt>
      <trkpt lat="40.4411920" lon="-3.9481740">
        <ele>621.8</ele>
        <time>2019-04-28T13:05:59Z</time>
      </trkpt>
      <trkpt lat="40.4411420" lon="-3.9481580">
        <ele>621.8</ele>
        <time>2019-04-28T13:06:00Z</time>
      </trkpt>
      <trkpt lat="40.4410930" lon="-3.9481540">
        <ele>621.8</ele>
        <time>2019-04-28T13:06:01Z</time>
      </trkpt>
      <trkpt lat="40.4410400" lon="-3.9481620">
        <ele>621.8</ele>
        <time>2019-04-28T13:06:02Z</time>
      </trkpt>
      <trkpt lat="40.4409890" lon="-3.9481760">
        <ele>621.8</ele>
        <time>2019-04-28T13:06:03Z</time>
      </trkpt>
      <trkpt lat="40.4409370" lon="-3.9481860">
        <ele>621.6</ele>
        <time>2019-04-28T13:06:04Z</time>
      </trkpt>
      <trkpt lat="40.4408790" lon="-3.9481870">
        <ele>621.2</ele>
        <time>2019-04-28T13:06:05Z</time>
      </trkpt>
      <trkpt lat="40.4408210" lon="-3.9482000">
        <ele>621.4</ele>
        <time>2019-04-28T13:06:06Z</time>
      </trkpt>
      <trkpt lat="40.4407700" lon="-3.9482360">
        <ele>621.4</ele>
        <time>2019-04-28T13:06:07Z</time>
      </trkpt>
      <trkpt lat="40.4407260" lon="-3.9482850">
        <ele>621.6</ele>
        <time>2019-04-28T13:06:08Z</time>
      </trkpt>
      <trkpt lat="40.4406900" lon="-3.9483440">
        <ele>621.6</ele>
        <time>2019-04-28T13:06:09Z</time>
      </trkpt>
      <trkpt lat="40.4406610" lon="-3.9484080">
        <ele>621.6</ele>
        <time>2019-04-28T13:06:10Z</time>
      </trkpt>
      <trkpt lat="40.4406320" lon="-3.9484740">
        <ele>621.6</ele>
        <time>2019-04-28T13:06:11Z</time>
      </trkpt>
      <trkpt lat="40.4405900" lon="-3.9485320">
        <ele>621.2</ele>
        <time>2019-04-28T13:06:12Z</time>
      </trkpt>
      <trkpt lat="40.4405470" lon="-3.9485890">
        <ele>621.0</ele>
        <time>2019-04-28T13:06:13Z</time>
      </trkpt>
      <trkpt lat="40.4405010" lon="-3.9486410">
        <ele>620.8</ele>
        <time>2019-04-28T13:06:14Z</time>
      </trkpt>
      <trkpt lat="40.4404520" lon="-3.9486900">
        <ele>620.6</ele>
        <time>2019-04-28T13:06:15Z</time>
      </trkpt>
      <trkpt lat="40.4404040" lon="-3.9487400">
        <ele>620.4</ele>
        <time>2019-04-28T13:06:16Z</time>
      </trkpt>
      <trkpt lat="40.4403520" lon="-3.9487890">
        <ele>620.2</ele>
        <time>2019-04-28T13:06:17Z</time>
      </trkpt>
      <trkpt lat="40.4402980" lon="-3.9488360">
        <ele>620.2</ele>
        <time>2019-04-28T13:06:18Z</time>
      </trkpt>
      <trkpt lat="40.4402400" lon="-3.9488810">
        <ele>620.0</ele>
        <time>2019-04-28T13:06:19Z</time>
      </trkpt>
      <trkpt lat="40.4401820" lon="-3.9489270">
        <ele>619.8</ele>
        <time>2019-04-28T13:06:20Z</time>
      </trkpt>
      <trkpt lat="40.4401240" lon="-3.9489730">
        <ele>619.8</ele>
        <time>2019-04-28T13:06:21Z</time>
      </trkpt>
      <trkpt lat="40.4400660" lon="-3.9490210">
        <ele>619.4</ele>
        <time>2019-04-28T13:06:22Z</time>
      </trkpt>
      <trkpt lat="40.4400110" lon="-3.9490690">
        <ele>619.4</ele>
        <time>2019-04-28T13:06:23Z</time>
      </trkpt>
      <trkpt lat="40.4399550" lon="-3.9491130">
        <ele>619.4</ele>
        <time>2019-04-28T13:06:24Z</time>
      </trkpt>
      <trkpt lat="40.4398990" lon="-3.9491540">
        <ele>619.0</ele>
        <time>2019-04-28T13:06:25Z</time>
      </trkpt>
      <trkpt lat="40.4398450" lon="-3.9491920">
        <ele>619.0</ele>
        <time>2019-04-28T13:06:26Z</time>
      </trkpt>
      <trkpt lat="40.4397870" lon="-3.9492230">
        <ele>619.0</ele>
        <time>2019-04-28T13:06:27Z</time>
      </trkpt>
      <trkpt lat="40.4397320" lon="-3.9492420">
        <ele>619.0</ele>
        <time>2019-04-28T13:06:28Z</time>
      </trkpt>
      <trkpt lat="40.4396720" lon="-3.9492570">
        <ele>619.0</ele>
        <time>2019-04-28T13:06:29Z</time>
      </trkpt>
      <trkpt lat="40.4396140" lon="-3.9492800">
        <ele>619.2</ele>
        <time>2019-04-28T13:06:30Z</time>
      </trkpt>
      <trkpt lat="40.4395640" lon="-3.9493200">
        <ele>619.0</ele>
        <time>2019-04-28T13:06:31Z</time>
      </trkpt>
      <trkpt lat="40.4395190" lon="-3.9493730">
        <ele>619.0</ele>
        <time>2019-04-28T13:06:32Z</time>
      </trkpt>
      <trkpt lat="40.4394790" lon="-3.9494310">
        <ele>619.0</ele>
        <time>2019-04-28T13:06:33Z</time>
      </trkpt>
      <trkpt lat="40.4394470" lon="-3.9494950">
        <ele>619.0</ele>
        <time>2019-04-28T13:06:34Z</time>
      </trkpt>
      <trkpt lat="40.4394150" lon="-3.9495530">
        <ele>618.8</ele>
        <time>2019-04-28T13:06:35Z</time>
      </trkpt>
      <trkpt lat="40.4393770" lon="-3.9496050">
        <ele>618.8</ele>
        <time>2019-04-28T13:06:36Z</time>
      </trkpt>
      <trkpt lat="40.4393260" lon="-3.9496480">
        <ele>618.6</ele>
        <time>2019-04-28T13:06:37Z</time>
      </trkpt>
      <trkpt lat="40.4392720" lon="-3.9496750">
        <ele>618.4</ele>
        <time>2019-04-28T13:06:38Z</time>
      </trkpt>
      <trkpt lat="40.4392140" lon="-3.9496940">
        <ele>618.0</ele>
        <time>2019-04-28T13:06:39Z</time>
      </trkpt>
      <trkpt lat="40.4391610" lon="-3.9497300">
        <ele>617.8</ele>
        <time>2019-04-28T13:06:40Z</time>
      </trkpt>
      <trkpt lat="40.4391180" lon="-3.9497850">
        <ele>618.2</ele>
        <time>2019-04-28T13:06:41Z</time>
      </trkpt>
      <trkpt lat="40.4390780" lon="-3.9498450">
        <ele>618.2</ele>
        <time>2019-04-28T13:06:42Z</time>
      </trkpt>
      <trkpt lat="40.4390390" lon="-3.9499080">
        <ele>618.2</ele>
        <time>2019-04-28T13:06:43Z</time>
      </trkpt>
      <trkpt lat="40.4389950" lon="-3.9499650">
        <ele>618.2</ele>
        <time>2019-04-28T13:06:44Z</time>
      </trkpt>
      <trkpt lat="40.4389500" lon="-3.9500170">
        <ele>618.4</ele>
        <time>2019-04-28T13:06:45Z</time>
      </trkpt>
      <trkpt lat="40.4389060" lon="-3.9500620">
        <ele>618.4</ele>
        <time>2019-04-28T13:06:46Z</time>
      </trkpt>
      <trkpt lat="40.4388580" lon="-3.9501000">
        <ele>618.4</ele>
        <time>2019-04-28T13:06:47Z</time>
      </trkpt>
      <trkpt lat="40.4388070" lon="-3.9501240">
        <ele>618.0</ele>
        <time>2019-04-28T13:06:48Z</time>
      </trkpt>
      <trkpt lat="40.4387530" lon="-3.9501360">
        <ele>618.0</ele>
        <time>2019-04-28T13:06:49Z</time>
      </trkpt>
      <trkpt lat="40.4386950" lon="-3.9501410">
        <ele>617.8</ele>
        <time>2019-04-28T13:06:50Z</time>
      </trkpt>
      <trkpt lat="40.4386400" lon="-3.9501600">
        <ele>617.8</ele>
        <time>2019-04-28T13:06:51Z</time>
      </trkpt>
      <trkpt lat="40.4385880" lon="-3.9501970">
        <ele>617.8</ele>
        <time>2019-04-28T13:06:52Z</time>
      </trkpt>
      <trkpt lat="40.4385420" lon="-3.9502420">
        <ele>618.0</ele>
        <time>2019-04-28T13:06:53Z</time>
      </trkpt>
      <trkpt lat="40.4384970" lon="-3.9502870">
        <ele>618.0</ele>
        <time>2019-04-28T13:06:54Z</time>
      </trkpt>
      <trkpt lat="40.4384480" lon="-3.9503230">
        <ele>617.8</ele>
        <time>2019-04-28T13:06:55Z</time>
      </trkpt>
      <trkpt lat="40.4384010" lon="-3.9503570">
        <ele>617.8</ele>
        <time>2019-04-28T13:06:56Z</time>
      </trkpt>
      <trkpt lat="40.4383530" lon="-3.9503860">
        <ele>617.8</ele>
        <time>2019-04-28T13:06:57Z</time>
      </trkpt>
      <trkpt lat="40.4383030" lon="-3.9503940">
        <ele>617.8</ele>
        <time>2019-04-28T13:06:58Z</time>
      </trkpt>
      <trkpt lat="40.4382480" lon="-3.9503870">
        <ele>617.6</ele>
        <time>2019-04-28T13:06:59Z</time>
      </trkpt>
      <trkpt lat="40.4381900" lon="-3.9503670">
        <ele>617.0</ele>
        <time>2019-04-28T13:07:00Z</time>
      </trkpt>
      <trkpt lat="40.4381400" lon="-3.9503470">
        <ele>616.8</ele>
        <time>2019-04-28T13:07:01Z</time>
      </trkpt>
      <trkpt lat="40.4380920" lon="-3.9503250">
        <ele>616.8</ele>
        <time>2019-04-28T13:07:02Z</time>
      </trkpt>
      <trkpt lat="40.4380410" lon="-3.9503150">
        <ele>616.6</ele>
        <time>2019-04-28T13:07:03Z</time>
      </trkpt>
      <trkpt lat="40.4379900" lon="-3.9503270">
        <ele>616.8</ele>
        <time>2019-04-28T13:07:04Z</time>
      </trkpt>
      <trkpt lat="40.4379470" lon="-3.9503660">
        <ele>616.8</ele>
        <time>2019-04-28T13:07:05Z</time>
      </trkpt>
      <trkpt lat="40.4379060" lon="-3.9504060">
        <ele>617.0</ele>
        <time>2019-04-28T13:07:06Z</time>
      </trkpt>
      <trkpt lat="40.4378640" lon="-3.9504340">
        <ele>617.2</ele>
        <time>2019-04-28T13:07:07Z</time>
      </trkpt>
      <trkpt lat="40.4378170" lon="-3.9504510">
        <ele>617.4</ele>
        <time>2019-04-28T13:07:08Z</time>
      </trkpt>
      <trkpt lat="40.4377810" lon="-3.9504540">
        <ele>617.6</ele>
        <time>2019-04-28T13:07:09Z</time>
      </trkpt>
      <trkpt lat="40.4377360" lon="-3.9504590">
        <ele>618.0</ele>
        <time>2019-04-28T13:07:10Z</time>
      </trkpt>
      <trkpt lat="40.4376920" lon="-3.9504650">
        <ele>617.8</ele>
        <time>2019-04-28T13:07:11Z</time>
      </trkpt>
      <trkpt lat="40.4376390" lon="-3.9504500">
        <ele>617.8</ele>
        <time>2019-04-28T13:07:12Z</time>
      </trkpt>
      <trkpt lat="40.4375850" lon="-3.9504200">
        <ele>617.8</ele>
        <time>2019-04-28T13:07:13Z</time>
      </trkpt>
      <trkpt lat="40.4375310" lon="-3.9503880">
        <ele>618.0</ele>
        <time>2019-04-28T13:07:14Z</time>
      </trkpt>
      <trkpt lat="40.4374780" lon="-3.9503600">
        <ele>618.2</ele>
        <time>2019-04-28T13:07:15Z</time>
      </trkpt>
      <trkpt lat="40.4374250" lon="-3.9503280">
        <ele>618.2</ele>
        <time>2019-04-28T13:07:16Z</time>
      </trkpt>
      <trkpt lat="40.4373640" lon="-3.9502990">
        <ele>618.2</ele>
        <time>2019-04-28T13:07:17Z</time>
      </trkpt>
      <trkpt lat="40.4373050" lon="-3.9502860">
        <ele>618.2</ele>
        <time>2019-04-28T13:07:18Z</time>
      </trkpt>
      <trkpt lat="40.4372490" lon="-3.9502700">
        <ele>618.4</ele>
        <time>2019-04-28T13:07:19Z</time>
      </trkpt>
      <trkpt lat="40.4371950" lon="-3.9502520">
        <ele>618.4</ele>
        <time>2019-04-28T13:07:20Z</time>
      </trkpt>
      <trkpt lat="40.4371380" lon="-3.9502460">
        <ele>618.2</ele>
        <time>2019-04-28T13:07:21Z</time>
      </trkpt>
      <trkpt lat="40.4370830" lon="-3.9502590">
        <ele>618.2</ele>
        <time>2019-04-28T13:07:22Z</time>
      </trkpt>
      <trkpt lat="40.4370250" lon="-3.9502840">
        <ele>618.4</ele>
        <time>2019-04-28T13:07:23Z</time>
      </trkpt>
      <trkpt lat="40.4369620" lon="-3.9503030">
        <ele>618.4</ele>
        <time>2019-04-28T13:07:24Z</time>
      </trkpt>
      <trkpt lat="40.4369020" lon="-3.9503150">
        <ele>618.4</ele>
        <time>2019-04-28T13:07:25Z</time>
      </trkpt>
      <trkpt lat="40.4368430" lon="-3.9503140">
        <ele>618.4</ele>
        <time>2019-04-28T13:07:26Z</time>
      </trkpt>
      <trkpt lat="40.4367790" lon="-3.9503150">
        <ele>618.4</ele>
        <time>2019-04-28T13:07:27Z</time>
      </trkpt>
      <trkpt lat="40.4367210" lon="-3.9503200">
        <ele>618.4</ele>
        <time>2019-04-28T13:07:28Z</time>
      </trkpt>
      <trkpt lat="40.4366610" lon="-3.9503300">
        <ele>618.4</ele>
        <time>2019-04-28T13:07:29Z</time>
      </trkpt>
      <trkpt lat="40.4366060" lon="-3.9503480">
        <ele>618.6</ele>
        <time>2019-04-28T13:07:30Z</time>
      </trkpt>
      <trkpt lat="40.4365500" lon="-3.9503600">
        <ele>618.8</ele>
        <time>2019-04-28T13:07:31Z</time>
      </trkpt>
      <trkpt lat="40.4364960" lon="-3.9503650">
        <ele>618.6</ele>
        <time>2019-04-28T13:07:32Z</time>
      </trkpt>
      <trkpt lat="40.4364380" lon="-3.9503610">
        <ele>618.6</ele>
        <time>2019-04-28T13:07:33Z</time>
      </trkpt>
      <trkpt lat="40.4363870" lon="-3.9503600">
        <ele>618.8</ele>
        <time>2019-04-28T13:07:34Z</time>
      </trkpt>
      <trkpt lat="40.4363370" lon="-3.9503680">
        <ele>619.0</ele>
        <time>2019-04-28T13:07:35Z</time>
      </trkpt>
      <trkpt lat="40.4362800" lon="-3.9503730">
        <ele>619.0</ele>
        <time>2019-04-28T13:07:36Z</time>
      </trkpt>
      <trkpt lat="40.4362230" lon="-3.9503810">
        <ele>619.0</ele>
        <time>2019-04-28T13:07:37Z</time>
      </trkpt>
      <trkpt lat="40.4361620" lon="-3.9503820">
        <ele>619.0</ele>
        <time>2019-04-28T13:07:38Z</time>
      </trkpt>
      <trkpt lat="40.4361090" lon="-3.9503870">
        <ele>619.0</ele>
        <time>2019-04-28T13:07:39Z</time>
      </trkpt>
      <trkpt lat="40.4360530" lon="-3.9503850">
        <ele>619.0</ele>
        <time>2019-04-28T13:07:40Z</time>
      </trkpt>
      <trkpt lat="40.4359950" lon="-3.9503870">
        <ele>619.0</ele>
        <time>2019-04-28T13:07:41Z</time>
      </trkpt>
      <trkpt lat="40.4359340" lon="-3.9503910">
        <ele>619.0</ele>
        <time>2019-04-28T13:07:42Z</time>
      </trkpt>
      <trkpt lat="40.4358730" lon="-3.9503960">
        <ele>619.0</ele>
        <time>2019-04-28T13:07:43Z</time>
      </trkpt>
      <trkpt lat="40.4358150" lon="-3.9504030">
        <ele>618.8</ele>
        <time>2019-04-28T13:07:44Z</time>
      </trkpt>
      <trkpt lat="40.4357590" lon="-3.9504090">
        <ele>619.0</ele>
        <time>2019-04-28T13:07:45Z</time>
      </trkpt>
      <trkpt lat="40.4357040" lon="-3.9504150">
        <ele>618.8</ele>
        <time>2019-04-28T13:07:46Z</time>
      </trkpt>
      <trkpt lat="40.4356490" lon="-3.9504200">
        <ele>618.6</ele>
        <time>2019-04-28T13:07:47Z</time>
      </trkpt>
      <trkpt lat="40.4355920" lon="-3.9504190">
        <ele>618.6</ele>
        <time>2019-04-28T13:07:48Z</time>
      </trkpt>
      <trkpt lat="40.4355340" lon="-3.9504130">
        <ele>618.0</ele>
        <time>2019-04-28T13:07:49Z</time>
      </trkpt>
      <trkpt lat="40.4354660" lon="-3.9503990">
        <ele>617.8</ele>
        <time>2019-04-28T13:07:50Z</time>
      </trkpt>
      <trkpt lat="40.4353950" lon="-3.9503910">
        <ele>617.6</ele>
        <time>2019-04-28T13:07:51Z</time>
      </trkpt>
      <trkpt lat="40.4353270" lon="-3.9503870">
        <ele>617.4</ele>
        <time>2019-04-28T13:07:52Z</time>
      </trkpt>
      <trkpt lat="40.4352600" lon="-3.9504010">
        <ele>617.2</ele>
        <time>2019-04-28T13:07:53Z</time>
      </trkpt>
      <trkpt lat="40.4351900" lon="-3.9504210">
        <ele>616.8</ele>
        <time>2019-04-28T13:07:54Z</time>
      </trkpt>
      <trkpt lat="40.4351220" lon="-3.9504450">
        <ele>616.8</ele>
        <time>2019-04-28T13:07:55Z</time>
      </trkpt>
      <trkpt lat="40.4350520" lon="-3.9504670">
        <ele>616.4</ele>
        <time>2019-04-28T13:07:56Z</time>
      </trkpt>
      <trkpt lat="40.4349800" lon="-3.9504880">
        <ele>616.2</ele>
        <time>2019-04-28T13:07:57Z</time>
      </trkpt>
      <trkpt lat="40.4349090" lon="-3.9505100">
        <ele>616.0</ele>
        <time>2019-04-28T13:07:58Z</time>
      </trkpt>
      <trkpt lat="40.4348450" lon="-3.9505350">
        <ele>616.0</ele>
        <time>2019-04-28T13:07:59Z</time>
      </trkpt>
      <trkpt lat="40.4347910" lon="-3.9505560">
        <ele>615.8</ele>
        <time>2019-04-28T13:08:00Z</time>
      </trkpt>
      <trkpt lat="40.4347470" lon="-3.9505860">
        <ele>615.8</ele>
        <time>2019-04-28T13:08:01Z</time>
      </trkpt>
      <trkpt lat="40.4347120" lon="-3.9506290">
        <ele>615.8</ele>
        <time>2019-04-28T13:08:02Z</time>
      </trkpt>
      <trkpt lat="40.4346900" lon="-3.9506810">
        <ele>615.8</ele>
        <time>2019-04-28T13:08:03Z</time>
      </trkpt>
      <trkpt lat="40.4346690" lon="-3.9507230">
        <ele>616.4</ele>
        <time>2019-04-28T13:08:04Z</time>
      </trkpt>
      <trkpt lat="40.4346340" lon="-3.9507560">
        <ele>616.8</ele>
        <time>2019-04-28T13:08:05Z</time>
      </trkpt>
      <trkpt lat="40.4345900" lon="-3.9507820">
        <ele>617.0</ele>
        <time>2019-04-28T13:08:06Z</time>
      </trkpt>
      <trkpt lat="40.4345460" lon="-3.9508110">
        <ele>617.0</ele>
        <time>2019-04-28T13:08:07Z</time>
      </trkpt>
      <trkpt lat="40.4344930" lon="-3.9508460">
        <ele>617.0</ele>
        <time>2019-04-28T13:08:08Z</time>
      </trkpt>
      <trkpt lat="40.4344350" lon="-3.9508780">
        <ele>616.8</ele>
        <time>2019-04-28T13:08:09Z</time>
      </trkpt>
      <trkpt lat="40.4343740" lon="-3.9509140">
        <ele>617.0</ele>
        <time>2019-04-28T13:08:10Z</time>
      </trkpt>
      <trkpt lat="40.4343210" lon="-3.9509550">
        <ele>617.4</ele>
        <time>2019-04-28T13:08:11Z</time>
      </trkpt>
      <trkpt lat="40.4342650" lon="-3.9509930">
        <ele>617.6</ele>
        <time>2019-04-28T13:08:12Z</time>
      </trkpt>
      <trkpt lat="40.4342050" lon="-3.9510250">
        <ele>617.6</ele>
        <time>2019-04-28T13:08:13Z</time>
      </trkpt>
      <trkpt lat="40.4341460" lon="-3.9510510">
        <ele>617.4</ele>
        <time>2019-04-28T13:08:14Z</time>
      </trkpt>
      <trkpt lat="40.4340850" lon="-3.9510660">
        <ele>617.4</ele>
        <time>2019-04-28T13:08:15Z</time>
      </trkpt>
      <trkpt lat="40.4340210" lon="-3.9510770">
        <ele>617.4</ele>
        <time>2019-04-28T13:08:16Z</time>
      </trkpt>
      <trkpt lat="40.4339620" lon="-3.9510840">
        <ele>617.4</ele>
        <time>2019-04-28T13:08:17Z</time>
      </trkpt>
      <trkpt lat="40.4339030" lon="-3.9511000">
        <ele>617.4</ele>
        <time>2019-04-28T13:08:18Z</time>
      </trkpt>
      <trkpt lat="40.4338530" lon="-3.9511350">
        <ele>617.4</ele>
        <time>2019-04-28T13:08:19Z</time>
      </trkpt>
      <trkpt lat="40.4338070" lon="-3.9511790">
        <ele>617.2</ele>
        <time>2019-04-28T13:08:20Z</time>
      </trkpt>
      <trkpt lat="40.4337650" lon="-3.9512140">
        <ele>617.0</ele>
        <time>2019-04-28T13:08:21Z</time>
      </trkpt>
      <trkpt lat="40.4337110" lon="-3.9512300">
        <ele>617.0</ele>
        <time>2019-04-28T13:08:22Z</time>
      </trkpt>
      <trkpt lat="40.4336560" lon="-3.9512350">
        <ele>617.0</ele>
        <time>2019-04-28T13:08:23Z</time>
      </trkpt>
      <trkpt lat="40.4335930" lon="-3.9512380">
        <ele>617.0</ele>
        <time>2019-04-28T13:08:24Z</time>
      </trkpt>
      <trkpt lat="40.4335280" lon="-3.9512420">
        <ele>617.0</ele>
        <time>2019-04-28T13:08:25Z</time>
      </trkpt>
      <trkpt lat="40.4334650" lon="-3.9512560">
        <ele>616.8</ele>
        <time>2019-04-28T13:08:26Z</time>
      </trkpt>
      <trkpt lat="40.4333970" lon="-3.9512740">
        <ele>616.8</ele>
        <time>2019-04-28T13:08:27Z</time>
      </trkpt>
      <trkpt lat="40.4333350" lon="-3.9512960">
        <ele>616.8</ele>
        <time>2019-04-28T13:08:28Z</time>
      </trkpt>
      <trkpt lat="40.4332800" lon="-3.9513230">
        <ele>616.8</ele>
        <time>2019-04-28T13:08:29Z</time>
      </trkpt>
      <trkpt lat="40.4332250" lon="-3.9513520">
        <ele>616.8</ele>
        <time>2019-04-28T13:08:30Z</time>
      </trkpt>
      <trkpt lat="40.4331690" lon="-3.9513730">
        <ele>616.6</ele>
        <time>2019-04-28T13:08:31Z</time>
      </trkpt>
      <trkpt lat="40.4331100" lon="-3.9513890">
        <ele>616.4</ele>
        <time>2019-04-28T13:08:32Z</time>
      </trkpt>
      <trkpt lat="40.4330470" lon="-3.9513900">
        <ele>616.4</ele>
        <time>2019-04-28T13:08:33Z</time>
      </trkpt>
      <trkpt lat="40.4329820" lon="-3.9513850">
        <ele>616.2</ele>
        <time>2019-04-28T13:08:34Z</time>
      </trkpt>
      <trkpt lat="40.4329140" lon="-3.9513820">
        <ele>616.4</ele>
        <time>2019-04-28T13:08:35Z</time>
      </trkpt>
      <trkpt lat="40.4328490" lon="-3.9513830">
        <ele>616.4</ele>
        <time>2019-04-28T13:08:36Z</time>
      </trkpt>
      <trkpt lat="40.4327870" lon="-3.9513840">
        <ele>616.4</ele>
        <time>2019-04-28T13:08:37Z</time>
      </trkpt>
      <trkpt lat="40.4327260" lon="-3.9513830">
        <ele>616.4</ele>
        <time>2019-04-28T13:08:38Z</time>
      </trkpt>
      <trkpt lat="40.4326640" lon="-3.9513840">
        <ele>616.4</ele>
        <time>2019-04-28T13:08:39Z</time>
      </trkpt>
      <trkpt lat="40.4326060" lon="-3.9513920">
        <ele>616.4</ele>
        <time>2019-04-28T13:08:40Z</time>
      </trkpt>
      <trkpt lat="40.4325560" lon="-3.9514040">
        <ele>616.6</ele>
        <time>2019-04-28T13:08:41Z</time>
      </trkpt>
      <trkpt lat="40.4324990" lon="-3.9514090">
        <ele>616.6</ele>
        <time>2019-04-28T13:08:42Z</time>
      </trkpt>
      <trkpt lat="40.4324360" lon="-3.9514100">
        <ele>616.6</ele>
        <time>2019-04-28T13:08:43Z</time>
      </trkpt>
      <trkpt lat="40.4323690" lon="-3.9514090">
        <ele>616.6</ele>
        <time>2019-04-28T13:08:44Z</time>
      </trkpt>
      <trkpt lat="40.4323050" lon="-3.9514080">
        <ele>616.6</ele>
        <time>2019-04-28T13:08:45Z</time>
      </trkpt>
      <trkpt lat="40.4322420" lon="-3.9514050">
        <ele>616.4</ele>
        <time>2019-04-28T13:08:46Z</time>
      </trkpt>
      <trkpt lat="40.4321770" lon="-3.9514050">
        <ele>616.6</ele>
        <time>2019-04-28T13:08:47Z</time>
      </trkpt>
      <trkpt lat="40.4321180" lon="-3.9514180">
        <ele>616.6</ele>
        <time>2019-04-28T13:08:48Z</time>
      </trkpt>
      <trkpt lat="40.4320570" lon="-3.9514250">
        <ele>616.8</ele>
        <time>2019-04-28T13:08:49Z</time>
      </trkpt>
      <trkpt lat="40.4319920" lon="-3.9514290">
        <ele>616.6</ele>
        <time>2019-04-28T13:08:50Z</time>
      </trkpt>
      <trkpt lat="40.4319250" lon="-3.9514310">
        <ele>616.4</ele>
        <time>2019-04-28T13:08:51Z</time>
      </trkpt>
      <trkpt lat="40.4318590" lon="-3.9514290">
        <ele>616.6</ele>
        <time>2019-04-28T13:08:52Z</time>
      </trkpt>
      <trkpt lat="40.4317930" lon="-3.9514250">
        <ele>616.6</ele>
        <time>2019-04-28T13:08:53Z</time>
      </trkpt>
      <trkpt lat="40.4317290" lon="-3.9514190">
        <ele>616.6</ele>
        <time>2019-04-28T13:08:54Z</time>
      </trkpt>
      <trkpt lat="40.4316650" lon="-3.9514110">
        <ele>616.6</ele>
        <time>2019-04-28T13:08:55Z</time>
      </trkpt>
      <trkpt lat="40.4316040" lon="-3.9513950">
        <ele>616.6</ele>
        <time>2019-04-28T13:08:56Z</time>
      </trkpt>
      <trkpt lat="40.4315460" lon="-3.9513820">
        <ele>616.4</ele>
        <time>2019-04-28T13:08:57Z</time>
      </trkpt>
      <trkpt lat="40.4314910" lon="-3.9513890">
        <ele>616.6</ele>
        <time>2019-04-28T13:08:58Z</time>
      </trkpt>
      <trkpt lat="40.4314360" lon="-3.9513980">
        <ele>616.4</ele>
        <time>2019-04-28T13:08:59Z</time>
      </trkpt>
      <trkpt lat="40.4313740" lon="-3.9514090">
        <ele>616.0</ele>
        <time>2019-04-28T13:09:00Z</time>
      </trkpt>
      <trkpt lat="40.4313100" lon="-3.9514230">
        <ele>615.6</ele>
        <time>2019-04-28T13:09:01Z</time>
      </trkpt>
      <trkpt lat="40.4312410" lon="-3.9514390">
        <ele>615.4</ele>
        <time>2019-04-28T13:09:02Z</time>
      </trkpt>
      <trkpt lat="40.4311770" lon="-3.9514590">
        <ele>615.2</ele>
        <time>2019-04-28T13:09:03Z</time>
      </trkpt>
      <trkpt lat="40.4311190" lon="-3.9514760">
        <ele>615.0</ele>
        <time>2019-04-28T13:09:04Z</time>
      </trkpt>
      <trkpt lat="40.4310640" lon="-3.9514880">
        <ele>615.0</ele>
        <time>2019-04-28T13:09:05Z</time>
      </trkpt>
      <trkpt lat="40.4310150" lon="-3.9514990">
        <ele>614.8</ele>
        <time>2019-04-28T13:09:06Z</time>
      </trkpt>
      <trkpt lat="40.4309670" lon="-3.9514930">
        <ele>614.8</ele>
        <time>2019-04-28T13:09:07Z</time>
      </trkpt>
      <trkpt lat="40.4309100" lon="-3.9514790">
        <ele>615.0</ele>
        <time>2019-04-28T13:09:08Z</time>
      </trkpt>
      <trkpt lat="40.4308500" lon="-3.9514820">
        <ele>615.0</ele>
        <time>2019-04-28T13:09:09Z</time>
      </trkpt>
      <trkpt lat="40.4307900" lon="-3.9514900">
        <ele>615.0</ele>
        <time>2019-04-28T13:09:10Z</time>
      </trkpt>
      <trkpt lat="40.4307340" lon="-3.9514870">
        <ele>615.2</ele>
        <time>2019-04-28T13:09:11Z</time>
      </trkpt>
      <trkpt lat="40.4306790" lon="-3.9514650">
        <ele>615.0</ele>
        <time>2019-04-28T13:09:12Z</time>
      </trkpt>
      <trkpt lat="40.4306290" lon="-3.9514340">
        <ele>615.0</ele>
        <time>2019-04-28T13:09:13Z</time>
      </trkpt>
      <trkpt lat="40.4305710" lon="-3.9514030">
        <ele>615.0</ele>
        <time>2019-04-28T13:09:14Z</time>
      </trkpt>
      <trkpt lat="40.4305100" lon="-3.9513860">
        <ele>615.0</ele>
        <time>2019-04-28T13:09:15Z</time>
      </trkpt>
      <trkpt lat="40.4304560" lon="-3.9513660">
        <ele>615.0</ele>
        <time>2019-04-28T13:09:16Z</time>
      </trkpt>
      <trkpt lat="40.4304080" lon="-3.9513290">
        <ele>615.0</ele>
        <time>2019-04-28T13:09:17Z</time>
      </trkpt>
      <trkpt lat="40.4303510" lon="-3.9512980">
        <ele>615.0</ele>
        <time>2019-04-28T13:09:18Z</time>
      </trkpt>
      <trkpt lat="40.4302950" lon="-3.9512930">
        <ele>615.2</ele>
        <time>2019-04-28T13:09:19Z</time>
      </trkpt>
      <trkpt lat="40.4302340" lon="-3.9512970">
        <ele>615.4</ele>
        <time>2019-04-28T13:09:20Z</time>
      </trkpt>
      <trkpt lat="40.4301770" lon="-3.9513040">
        <ele>615.4</ele>
        <time>2019-04-28T13:09:21Z</time>
      </trkpt>
      <trkpt lat="40.4301190" lon="-3.9513040">
        <ele>615.2</ele>
        <time>2019-04-28T13:09:22Z</time>
      </trkpt>
      <trkpt lat="40.4300550" lon="-3.9513020">
        <ele>615.2</ele>
        <time>2019-04-28T13:09:23Z</time>
      </trkpt>
      <trkpt lat="40.4299940" lon="-3.9512960">
        <ele>615.2</ele>
        <time>2019-04-28T13:09:24Z</time>
      </trkpt>
      <trkpt lat="40.4299320" lon="-3.9512820">
        <ele>615.4</ele>
        <time>2019-04-28T13:09:25Z</time>
      </trkpt>
      <trkpt lat="40.4298690" lon="-3.9512680">
        <ele>615.2</ele>
        <time>2019-04-28T13:09:26Z</time>
      </trkpt>
      <trkpt lat="40.4298050" lon="-3.9512540">
        <ele>615.2</ele>
        <time>2019-04-28T13:09:27Z</time>
      </trkpt>
      <trkpt lat="40.4297390" lon="-3.9512390">
        <ele>615.4</ele>
        <time>2019-04-28T13:09:28Z</time>
      </trkpt>
      <trkpt lat="40.4296720" lon="-3.9512230">
        <ele>615.4</ele>
        <time>2019-04-28T13:09:29Z</time>
      </trkpt>
      <trkpt lat="40.4296080" lon="-3.9511960">
        <ele>615.2</ele>
        <time>2019-04-28T13:09:30Z</time>
      </trkpt>
      <trkpt lat="40.4295450" lon="-3.9511680">
        <ele>615.2</ele>
        <time>2019-04-28T13:09:31Z</time>
      </trkpt>
      <trkpt lat="40.4294810" lon="-3.9511500">
        <ele>615.0</ele>
        <time>2019-04-28T13:09:32Z</time>
      </trkpt>
      <trkpt lat="40.4294220" lon="-3.9511340">
        <ele>615.0</ele>
        <time>2019-04-28T13:09:33Z</time>
      </trkpt>
      <trkpt lat="40.4293670" lon="-3.9511190">
        <ele>615.0</ele>
        <time>2019-04-28T13:09:34Z</time>
      </trkpt>
      <trkpt lat="40.4293130" lon="-3.9511110">
        <ele>614.8</ele>
        <time>2019-04-28T13:09:35Z</time>
      </trkpt>
      <trkpt lat="40.4292600" lon="-3.9510950">
        <ele>614.8</ele>
        <time>2019-04-28T13:09:36Z</time>
      </trkpt>
      <trkpt lat="40.4292030" lon="-3.9510770">
        <ele>614.8</ele>
        <time>2019-04-28T13:09:37Z</time>
      </trkpt>
      <trkpt lat="40.4291450" lon="-3.9510680">
        <ele>615.0</ele>
        <time>2019-04-28T13:09:38Z</time>
      </trkpt>
      <trkpt lat="40.4290850" lon="-3.9510630">
        <ele>615.0</ele>
        <time>2019-04-28T13:09:39Z</time>
      </trkpt>
      <trkpt lat="40.4290250" lon="-3.9510640">
        <ele>615.0</ele>
        <time>2019-04-28T13:09:40Z</time>
      </trkpt>
      <trkpt lat="40.4289640" lon="-3.9510580">
        <ele>615.0</ele>
        <time>2019-04-28T13:09:41Z</time>
      </trkpt>
      <trkpt lat="40.4289030" lon="-3.9510440">
        <ele>615.2</ele>
        <time>2019-04-28T13:09:42Z</time>
      </trkpt>
      <trkpt lat="40.4288420" lon="-3.9510250">
        <ele>615.2</ele>
        <time>2019-04-28T13:09:43Z</time>
      </trkpt>
      <trkpt lat="40.4287800" lon="-3.9510060">
        <ele>615.0</ele>
        <time>2019-04-28T13:09:44Z</time>
      </trkpt>
      <trkpt lat="40.4287160" lon="-3.9509840">
        <ele>614.8</ele>
        <time>2019-04-28T13:09:45Z</time>
      </trkpt>
      <trkpt lat="40.4286510" lon="-3.9509640">
        <ele>615.0</ele>
        <time>2019-04-28T13:09:46Z</time>
      </trkpt>
      <trkpt lat="40.4285860" lon="-3.9509440">
        <ele>614.8</ele>
        <time>2019-04-28T13:09:47Z</time>
      </trkpt>
      <trkpt lat="40.4285200" lon="-3.9509240">
        <ele>614.8</ele>
        <time>2019-04-28T13:09:48Z</time>
      </trkpt>
      <trkpt lat="40.4284570" lon="-3.9508980">
        <ele>614.6</ele>
        <time>2019-04-28T13:09:49Z</time>
      </trkpt>
      <trkpt lat="40.4283930" lon="-3.9508680">
        <ele>614.6</ele>
        <time>2019-04-28T13:09:50Z</time>
      </trkpt>
      <trkpt lat="40.4283300" lon="-3.9508370">
        <ele>614.6</ele>
        <time>2019-04-28T13:09:51Z</time>
      </trkpt>
      <trkpt lat="40.4282690" lon="-3.9507990">
        <ele>614.6</ele>
        <time>2019-04-28T13:09:52Z</time>
      </trkpt>
      <trkpt lat="40.4282080" lon="-3.9507570">
        <ele>614.4</ele>
        <time>2019-04-28T13:09:53Z</time>
      </trkpt>
      <trkpt lat="40.4281460" lon="-3.9507170">
        <ele>614.4</ele>
        <time>2019-04-28T13:09:54Z</time>
      </trkpt>
      <trkpt lat="40.4280850" lon="-3.9506790">
        <ele>614.4</ele>
        <time>2019-04-28T13:09:55Z</time>
      </trkpt>
      <trkpt lat="40.4280270" lon="-3.9506430">
        <ele>614.2</ele>
        <time>2019-04-28T13:09:56Z</time>
      </trkpt>
      <trkpt lat="40.4279760" lon="-3.9506080">
        <ele>614.2</ele>
        <time>2019-04-28T13:09:57Z</time>
      </trkpt>
      <trkpt lat="40.4279280" lon="-3.9505730">
        <ele>614.0</ele>
        <time>2019-04-28T13:09:58Z</time>
      </trkpt>
      <trkpt lat="40.4278820" lon="-3.9505460">
        <ele>614.2</ele>
        <time>2019-04-28T13:09:59Z</time>
      </trkpt>
      <trkpt lat="40.4278330" lon="-3.9505310">
        <ele>614.2</ele>
        <time>2019-04-28T13:10:00Z</time>
      </trkpt>
      <trkpt lat="40.4277850" lon="-3.9505170">
        <ele>614.2</ele>
        <time>2019-04-28T13:10:01Z</time>
      </trkpt>
      <trkpt lat="40.4277380" lon="-3.9504920">
        <ele>614.2</ele>
        <time>2019-04-28T13:10:02Z</time>
      </trkpt>
      <trkpt lat="40.4276890" lon="-3.9504610">
        <ele>614.2</ele>
        <time>2019-04-28T13:10:03Z</time>
      </trkpt>
      <trkpt lat="40.4276500" lon="-3.9504400">
        <ele>614.2</ele>
        <time>2019-04-28T13:10:04Z</time>
      </trkpt>
      <trkpt lat="40.4276230" lon="-3.9504270">
        <ele>614.4</ele>
        <time>2019-04-28T13:10:05Z</time>
      </trkpt>
      <trkpt lat="40.4276050" lon="-3.9504130">
        <ele>614.4</ele>
        <time>2019-04-28T13:10:06Z</time>
      </trkpt>
      <trkpt lat="40.4275940" lon="-3.9504010">
        <ele>614.2</ele>
        <time>2019-04-28T13:10:07Z</time>
      </trkpt>
      <trkpt lat="40.4275840" lon="-3.9503900">
        <ele>614.2</ele>
        <time>2019-04-28T13:10:08Z</time>
      </trkpt>
      <trkpt lat="40.4275730" lon="-3.9503710">
        <ele>614.0</ele>
        <time>2019-04-28T13:10:09Z</time>
      </trkpt>
      <trkpt lat="40.4275640" lon="-3.9503500">
        <ele>614.0</ele>
        <time>2019-04-28T13:10:10Z</time>
      </trkpt>
      <trkpt lat="40.4275640" lon="-3.9503270">
        <ele>614.0</ele>
        <time>2019-04-28T13:10:11Z</time>
      </trkpt>
      <trkpt lat="40.4275680" lon="-3.9503050">
        <ele>614.2</ele>
        <time>2019-04-28T13:10:12Z</time>
      </trkpt>
      <trkpt lat="40.4275710" lon="-3.9502790">
        <ele>614.0</ele>
        <time>2019-04-28T13:10:13Z</time>
      </trkpt>
      <trkpt lat="40.4275750" lon="-3.9502500">
        <ele>614.0</ele>
        <time>2019-04-28T13:10:14Z</time>
      </trkpt>
      <trkpt lat="40.4275780" lon="-3.9502160">
        <ele>614.0</ele>
        <time>2019-04-28T13:10:15Z</time>
      </trkpt>
      <trkpt lat="40.4275690" lon="-3.9501840">
        <ele>614.0</ele>
        <time>2019-04-28T13:10:16Z</time>
      </trkpt>
      <trkpt lat="40.4275450" lon="-3.9501640">
        <ele>614.2</ele>
        <time>2019-04-28T13:10:17Z</time>
      </trkpt>
      <trkpt lat="40.4275190" lon="-3.9501390">
        <ele>614.2</ele>
        <time>2019-04-28T13:10:18Z</time>
      </trkpt>
      <trkpt lat="40.4274950" lon="-3.9501110">
        <ele>614.4</ele>
        <time>2019-04-28T13:10:19Z</time>
      </trkpt>
      <trkpt lat="40.4274690" lon="-3.9500780">
        <ele>614.2</ele>
        <time>2019-04-28T13:10:20Z</time>
      </trkpt>
      <trkpt lat="40.4274380" lon="-3.9500480">
        <ele>614.4</ele>
        <time>2019-04-28T13:10:21Z</time>
      </trkpt>
      <trkpt lat="40.4274120" lon="-3.9500190">
        <ele>614.4</ele>
        <time>2019-04-28T13:10:22Z</time>
      </trkpt>
      <trkpt lat="40.4273810" lon="-3.9499890">
        <ele>614.6</ele>
        <time>2019-04-28T13:10:23Z</time>
      </trkpt>
      <trkpt lat="40.4273470" lon="-3.9499540">
        <ele>614.8</ele>
        <time>2019-04-28T13:10:24Z</time>
      </trkpt>
      <trkpt lat="40.4273110" lon="-3.9499260">
        <ele>614.8</ele>
        <time>2019-04-28T13:10:25Z</time>
      </trkpt>
      <trkpt lat="40.4272730" lon="-3.9498980">
        <ele>614.8</ele>
        <time>2019-04-28T13:10:26Z</time>
      </trkpt>
      <trkpt lat="40.4272350" lon="-3.9498680">
        <ele>614.8</ele>
        <time>2019-04-28T13:10:27Z</time>
      </trkpt>
      <trkpt lat="40.4271980" lon="-3.9498320">
        <ele>614.8</ele>
        <time>2019-04-28T13:10:28Z</time>
      </trkpt>
      <trkpt lat="40.4271610" lon="-3.9497800">
        <ele>615.0</ele>
        <time>2019-04-28T13:10:29Z</time>
      </trkpt>
      <trkpt lat="40.4271320" lon="-3.9497150">
        <ele>615.2</ele>
        <time>2019-04-28T13:10:30Z</time>
      </trkpt>
      <trkpt lat="40.4271090" lon="-3.9496460">
        <ele>615.2</ele>
        <time>2019-04-28T13:10:31Z</time>
      </trkpt>
      <trkpt lat="40.4270940" lon="-3.9495760">
        <ele>615.4</ele>
        <time>2019-04-28T13:10:32Z</time>
      </trkpt>
      <trkpt lat="40.4270810" lon="-3.9494980">
        <ele>615.6</ele>
        <time>2019-04-28T13:10:33Z</time>
      </trkpt>
      <trkpt lat="40.4270610" lon="-3.9494270">
        <ele>615.8</ele>
        <time>2019-04-28T13:10:34Z</time>
      </trkpt>
      <trkpt lat="40.4270330" lon="-3.9493600">
        <ele>616.0</ele>
        <time>2019-04-28T13:10:35Z</time>
      </trkpt>
      <trkpt lat="40.4269990" lon="-3.9492890">
        <ele>616.0</ele>
        <time>2019-04-28T13:10:36Z</time>
      </trkpt>
      <trkpt lat="40.4269620" lon="-3.9492330">
        <ele>616.0</ele>
        <time>2019-04-28T13:10:37Z</time>
      </trkpt>
      <trkpt lat="40.4269230" lon="-3.9491800">
        <ele>616.0</ele>
        <time>2019-04-28T13:10:38Z</time>
      </trkpt>
      <trkpt lat="40.4268730" lon="-3.9491270">
        <ele>616.0</ele>
        <time>2019-04-28T13:10:39Z</time>
      </trkpt>
      <trkpt lat="40.4268230" lon="-3.9490920">
        <ele>616.0</ele>
        <time>2019-04-28T13:10:40Z</time>
      </trkpt>
      <trkpt lat="40.4267740" lon="-3.9490820">
        <ele>616.0</ele>
        <time>2019-04-28T13:10:41Z</time>
      </trkpt>
      <trkpt lat="40.4267270" lon="-3.9490780">
        <ele>616.2</ele>
        <time>2019-04-28T13:10:42Z</time>
      </trkpt>
      <trkpt lat="40.4266820" lon="-3.9490770">
        <ele>616.2</ele>
        <time>2019-04-28T13:10:43Z</time>
      </trkpt>
      <trkpt lat="40.4266340" lon="-3.9490720">
        <ele>616.0</ele>
        <time>2019-04-28T13:10:44Z</time>
      </trkpt>
      <trkpt lat="40.4265790" lon="-3.9490610">
        <ele>616.2</ele>
        <time>2019-04-28T13:10:45Z</time>
      </trkpt>
      <trkpt lat="40.4265250" lon="-3.9490540">
        <ele>616.0</ele>
        <time>2019-04-28T13:10:46Z</time>
      </trkpt>
      <trkpt lat="40.4265010" lon="-3.9490560">
        <ele>616.2</ele>
        <time>2019-04-28T13:10:47Z</time>
      </trkpt>
      <trkpt lat="40.4264650" lon="-3.9490260">
        <ele>616.4</ele>
        <time>2019-04-28T13:10:48Z</time>
      </trkpt>
      <trkpt lat="40.4264370" lon="-3.9489930">
        <ele>616.4</ele>
        <time>2019-04-28T13:10:49Z</time>
      </trkpt>
      <trkpt lat="40.4264170" lon="-3.9489780">
        <ele>616.2</ele>
        <time>2019-04-28T13:10:50Z</time>
      </trkpt>
      <trkpt lat="40.4263840" lon="-3.9489490">
        <ele>616.4</ele>
        <time>2019-04-28T13:10:51Z</time>
      </trkpt>
      <trkpt lat="40.4263510" lon="-3.9489150">
        <ele>616.4</ele>
        <time>2019-04-28T13:10:52Z</time>
      </trkpt>
      <trkpt lat="40.4263050" lon="-3.9488780">
        <ele>616.4</ele>
        <time>2019-04-28T13:10:53Z</time>
      </trkpt>
      <trkpt lat="40.4262490" lon="-3.9488550">
        <ele>616.4</ele>
        <time>2019-04-28T13:10:54Z</time>
      </trkpt>
      <trkpt lat="40.4261960" lon="-3.9488380">
        <ele>616.4</ele>
        <time>2019-04-28T13:10:55Z</time>
      </trkpt>
      <trkpt lat="40.4261390" lon="-3.9488040">
        <ele>616.2</ele>
        <time>2019-04-28T13:10:56Z</time>
      </trkpt>
      <trkpt lat="40.4260860" lon="-3.9487740">
        <ele>616.2</ele>
        <time>2019-04-28T13:10:57Z</time>
      </trkpt>
      <trkpt lat="40.4260350" lon="-3.9487420">
        <ele>615.8</ele>
        <time>2019-04-28T13:10:58Z</time>
      </trkpt>
      <trkpt lat="40.4259830" lon="-3.9487090">
        <ele>615.6</ele>
        <time>2019-04-28T13:10:59Z</time>
      </trkpt>
      <trkpt lat="40.4259310" lon="-3.9486890">
        <ele>615.4</ele>
        <time>2019-04-28T13:11:00Z</time>
      </trkpt>
      <trkpt lat="40.4258620" lon="-3.9486610">
        <ele>615.2</ele>
        <time>2019-04-28T13:11:01Z</time>
      </trkpt>
      <trkpt lat="40.4257920" lon="-3.9486500">
        <ele>615.2</ele>
        <time>2019-04-28T13:11:02Z</time>
      </trkpt>
      <trkpt lat="40.4257280" lon="-3.9486460">
        <ele>614.8</ele>
        <time>2019-04-28T13:11:03Z</time>
      </trkpt>
      <trkpt lat="40.4256460" lon="-3.9486030">
        <ele>614.6</ele>
        <time>2019-04-28T13:11:04Z</time>
      </trkpt>
      <trkpt lat="40.4255370" lon="-3.9484830">
        <ele>614.6</ele>
        <time>2019-04-28T13:11:05Z</time>
      </trkpt>
      <trkpt lat="40.4254800" lon="-3.9484440">
        <ele>614.2</ele>
        <time>2019-04-28T13:11:06Z</time>
      </trkpt>
      <trkpt lat="40.4254230" lon="-3.9484030">
        <ele>614.2</ele>
        <time>2019-04-28T13:11:07Z</time>
      </trkpt>
      <trkpt lat="40.4253290" lon="-3.9483140">
        <ele>614.0</ele>
        <time>2019-04-28T13:11:08Z</time>
      </trkpt>
      <trkpt lat="40.4252530" lon="-3.9482840">
        <ele>614.0</ele>
        <time>2019-04-28T13:11:09Z</time>
      </trkpt>
      <trkpt lat="40.4251760" lon="-3.9482570">
        <ele>614.0</ele>
        <time>2019-04-28T13:11:10Z</time>
      </trkpt>
      <trkpt lat="40.4251050" lon="-3.9482320">
        <ele>614.2</ele>
        <time>2019-04-28T13:11:11Z</time>
      </trkpt>
      <trkpt lat="40.4250440" lon="-3.9482170">
        <ele>614.2</ele>
        <time>2019-04-28T13:11:12Z</time>
      </trkpt>
      <trkpt lat="40.4249820" lon="-3.9481890">
        <ele>614.2</ele>
        <time>2019-04-28T13:11:13Z</time>
      </trkpt>
      <trkpt lat="40.4249170" lon="-3.9481650">
        <ele>614.0</ele>
        <time>2019-04-28T13:11:14Z</time>
      </trkpt>
      <trkpt lat="40.4248520" lon="-3.9481440">
        <ele>614.0</ele>
        <time>2019-04-28T13:11:15Z</time>
      </trkpt>
      <trkpt lat="40.4247810" lon="-3.9481200">
        <ele>613.8</ele>
        <time>2019-04-28T13:11:16Z</time>
      </trkpt>
      <trkpt lat="40.4247120" lon="-3.9481120">
        <ele>613.8</ele>
        <time>2019-04-28T13:11:17Z</time>
      </trkpt>
      <trkpt lat="40.4246470" lon="-3.9481180">
        <ele>613.8</ele>
        <time>2019-04-28T13:11:18Z</time>
      </trkpt>
      <trkpt lat="40.4245880" lon="-3.9481150">
        <ele>613.8</ele>
        <time>2019-04-28T13:11:19Z</time>
      </trkpt>
      <trkpt lat="40.4245420" lon="-3.9481080">
        <ele>613.6</ele>
        <time>2019-04-28T13:11:20Z</time>
      </trkpt>
      <trkpt lat="40.4244930" lon="-3.9480840">
        <ele>613.4</ele>
        <time>2019-04-28T13:11:21Z</time>
      </trkpt>
      <trkpt lat="40.4244400" lon="-3.9480560">
        <ele>613.6</ele>
        <time>2019-04-28T13:11:22Z</time>
      </trkpt>
      <trkpt lat="40.4243870" lon="-3.9480330">
        <ele>613.6</ele>
        <time>2019-04-28T13:11:23Z</time>
      </trkpt>
      <trkpt lat="40.4243320" lon="-3.9480150">
        <ele>613.6</ele>
        <time>2019-04-28T13:11:24Z</time>
      </trkpt>
      <trkpt lat="40.4242760" lon="-3.9479900">
        <ele>613.6</ele>
        <time>2019-04-28T13:11:25Z</time>
      </trkpt>
      <trkpt lat="40.4242320" lon="-3.9479630">
        <ele>613.8</ele>
        <time>2019-04-28T13:11:26Z</time>
      </trkpt>
      <trkpt lat="40.4241990" lon="-3.9479490">
        <ele>614.2</ele>
        <time>2019-04-28T13:11:27Z</time>
      </trkpt>
      <trkpt lat="40.4241570" lon="-3.9479290">
        <ele>614.2</ele>
        <time>2019-04-28T13:11:28Z</time>
      </trkpt>
      <trkpt lat="40.4241250" lon="-3.9479070">
        <ele>614.0</ele>
        <time>2019-04-28T13:11:29Z</time>
      </trkpt>
      <trkpt lat="40.4241110" lon="-3.9479110">
        <ele>613.4</ele>
        <time>2019-04-28T13:11:30Z</time>
      </trkpt>
      <trkpt lat="40.4240700" lon="-3.9478880">
        <ele>613.2</ele>
        <time>2019-04-28T13:11:31Z</time>
      </trkpt>
      <trkpt lat="40.4240130" lon="-3.9478540">
        <ele>612.8</ele>
        <time>2019-04-28T13:11:32Z</time>
      </trkpt>
      <trkpt lat="40.4239650" lon="-3.9478280">
        <ele>612.8</ele>
        <time>2019-04-28T13:11:33Z</time>
      </trkpt>
      <trkpt lat="40.4239280" lon="-3.9478180">
        <ele>612.6</ele>
        <time>2019-04-28T13:11:34Z</time>
      </trkpt>
      <trkpt lat="40.4238760" lon="-3.9478230">
        <ele>612.6</ele>
        <time>2019-04-28T13:11:35Z</time>
      </trkpt>
      <trkpt lat="40.4238110" lon="-3.9478200">
        <ele>612.6</ele>
        <time>2019-04-28T13:11:36Z</time>
      </trkpt>
      <trkpt lat="40.4237610" lon="-3.9478210">
        <ele>612.6</ele>
        <time>2019-04-28T13:11:37Z</time>
      </trkpt>
      <trkpt lat="40.4236910" lon="-3.9478170">
        <ele>612.4</ele>
        <time>2019-04-28T13:11:38Z</time>
      </trkpt>
      <trkpt lat="40.4236350" lon="-3.9478130">
        <ele>612.6</ele>
        <time>2019-04-28T13:11:39Z</time>
      </trkpt>
      <trkpt lat="40.4235880" lon="-3.9478050">
        <ele>612.4</ele>
        <time>2019-04-28T13:11:40Z</time>
      </trkpt>
      <trkpt lat="40.4235320" lon="-3.9477830">
        <ele>612.4</ele>
        <time>2019-04-28T13:11:41Z</time>
      </trkpt>
      <trkpt lat="40.4234690" lon="-3.9477580">
        <ele>612.4</ele>
        <time>2019-04-28T13:11:42Z</time>
      </trkpt>
      <trkpt lat="40.4234280" lon="-3.9477530">
        <ele>612.4</ele>
        <time>2019-04-28T13:11:43Z</time>
      </trkpt>
      <trkpt lat="40.4233880" lon="-3.9477390">
        <ele>612.4</ele>
        <time>2019-04-28T13:11:44Z</time>
      </trkpt>
      <trkpt lat="40.4233600" lon="-3.9477330">
        <ele>612.4</ele>
        <time>2019-04-28T13:11:45Z</time>
      </trkpt>
      <trkpt lat="40.4233370" lon="-3.9477270">
        <ele>612.2</ele>
        <time>2019-04-28T13:11:46Z</time>
      </trkpt>
      <trkpt lat="40.4233100" lon="-3.9477140">
        <ele>612.2</ele>
        <time>2019-04-28T13:11:47Z</time>
      </trkpt>
      <trkpt lat="40.4233010" lon="-3.9477130">
        <ele>612.2</ele>
        <time>2019-04-28T13:11:48Z</time>
      </trkpt>
      <trkpt lat="40.4232980" lon="-3.9477080">
        <ele>612.0</ele>
        <time>2019-04-28T13:11:49Z</time>
      </trkpt>
      <trkpt lat="40.4232750" lon="-3.9476950">
        <ele>612.0</ele>
        <time>2019-04-28T13:11:50Z</time>
      </trkpt>
      <trkpt lat="40.4232590" lon="-3.9476890">
        <ele>612.0</ele>
        <time>2019-04-28T13:11:51Z</time>
      </trkpt>
      <trkpt lat="40.4232400" lon="-3.9476770">
        <ele>611.8</ele>
        <time>2019-04-28T13:11:52Z</time>
      </trkpt>
      <trkpt lat="40.4232090" lon="-3.9476550">
        <ele>611.8</ele>
        <time>2019-04-28T13:11:53Z</time>
      </trkpt>
      <trkpt lat="40.4231690" lon="-3.9476360">
        <ele>612.2</ele>
        <time>2019-04-28T13:11:54Z</time>
      </trkpt>
      <trkpt lat="40.4231420" lon="-3.9476170">
        <ele>612.4</ele>
        <time>2019-04-28T13:11:55Z</time>
      </trkpt>
      <trkpt lat="40.4231110" lon="-3.9475870">
        <ele>612.6</ele>
        <time>2019-04-28T13:11:56Z</time>
      </trkpt>
      <trkpt lat="40.4230830" lon="-3.9475580">
        <ele>612.6</ele>
        <time>2019-04-28T13:11:57Z</time>
      </trkpt>
      <trkpt lat="40.4230600" lon="-3.9475120">
        <ele>612.6</ele>
        <time>2019-04-28T13:11:58Z</time>
      </trkpt>
      <trkpt lat="40.4230460" lon="-3.9474580">
        <ele>612.6</ele>
        <time>2019-04-28T13:11:59Z</time>
      </trkpt>
      <trkpt lat="40.4230130" lon="-3.9474040">
        <ele>612.6</ele>
        <time>2019-04-28T13:12:00Z</time>
      </trkpt>
      <trkpt lat="40.4229740" lon="-3.9473550">
        <ele>612.8</ele>
        <time>2019-04-28T13:12:01Z</time>
      </trkpt>
      <trkpt lat="40.4229290" lon="-3.9472970">
        <ele>612.8</ele>
        <time>2019-04-28T13:12:02Z</time>
      </trkpt>
      <trkpt lat="40.4228930" lon="-3.9472440">
        <ele>612.6</ele>
        <time>2019-04-28T13:12:03Z</time>
      </trkpt>
      <trkpt lat="40.4228550" lon="-3.9471940">
        <ele>612.6</ele>
        <time>2019-04-28T13:12:04Z</time>
      </trkpt>
      <trkpt lat="40.4227960" lon="-3.9471100">
        <ele>612.8</ele>
        <time>2019-04-28T13:12:05Z</time>
      </trkpt>
      <trkpt lat="40.4227170" lon="-3.9469970">
        <ele>612.4</ele>
        <time>2019-04-28T13:12:06Z</time>
      </trkpt>
      <trkpt lat="40.4226820" lon="-3.9469440">
        <ele>612.6</ele>
        <time>2019-04-28T13:12:07Z</time>
      </trkpt>
      <trkpt lat="40.4226540" lon="-3.9469170">
        <ele>612.6</ele>
        <time>2019-04-28T13:12:08Z</time>
      </trkpt>
      <trkpt lat="40.4226260" lon="-3.9468930">
        <ele>612.6</ele>
        <time>2019-04-28T13:12:09Z</time>
      </trkpt>
      <trkpt lat="40.4225690" lon="-3.9468280">
        <ele>612.6</ele>
        <time>2019-04-28T13:12:10Z</time>
      </trkpt>
      <trkpt lat="40.4225220" lon="-3.9467850">
        <ele>612.6</ele>
        <time>2019-04-28T13:12:11Z</time>
      </trkpt>
      <trkpt lat="40.4224650" lon="-3.9467280">
        <ele>612.6</ele>
        <time>2019-04-28T13:12:12Z</time>
      </trkpt>
      <trkpt lat="40.4224130" lon="-3.9466540">
        <ele>612.6</ele>
        <time>2019-04-28T13:12:13Z</time>
      </trkpt>
      <trkpt lat="40.4223390" lon="-3.9465670">
        <ele>612.4</ele>
        <time>2019-04-28T13:12:14Z</time>
      </trkpt>
      <trkpt lat="40.4222940" lon="-3.9465460">
        <ele>612.4</ele>
        <time>2019-04-28T13:12:15Z</time>
      </trkpt>
      <trkpt lat="40.4222580" lon="-3.9465300">
        <ele>612.4</ele>
        <time>2019-04-28T13:12:16Z</time>
      </trkpt>
      <trkpt lat="40.4222170" lon="-3.9464990">
        <ele>612.4</ele>
        <time>2019-04-28T13:12:17Z</time>
      </trkpt>
      <trkpt lat="40.4222000" lon="-3.9464750">
        <ele>612.4</ele>
        <time>2019-04-28T13:12:18Z</time>
      </trkpt>
      <trkpt lat="40.4221590" lon="-3.9464100">
        <ele>612.6</ele>
        <time>2019-04-28T13:12:19Z</time>
      </trkpt>
      <trkpt lat="40.4221140" lon="-3.9463620">
        <ele>612.6</ele>
        <time>2019-04-28T13:12:20Z</time>
      </trkpt>
      <trkpt lat="40.4220380" lon="-3.9462930">
        <ele>612.4</ele>
        <time>2019-04-28T13:12:21Z</time>
      </trkpt>
      <trkpt lat="40.4219490" lon="-3.9462060">
        <ele>612.4</ele>
        <time>2019-04-28T13:12:22Z</time>
      </trkpt>
      <trkpt lat="40.4218730" lon="-3.9461530">
        <ele>612.2</ele>
        <time>2019-04-28T13:12:23Z</time>
      </trkpt>
      <trkpt lat="40.4218020" lon="-3.9461070">
        <ele>612.2</ele>
        <time>2019-04-28T13:12:24Z</time>
      </trkpt>
      <trkpt lat="40.4217340" lon="-3.9460750">
        <ele>612.2</ele>
        <time>2019-04-28T13:12:25Z</time>
      </trkpt>
      <trkpt lat="40.4216690" lon="-3.9460580">
        <ele>612.2</ele>
        <time>2019-04-28T13:12:26Z</time>
      </trkpt>
      <trkpt lat="40.4216010" lon="-3.9460470">
        <ele>612.4</ele>
        <time>2019-04-28T13:12:27Z</time>
      </trkpt>
      <trkpt lat="40.4215330" lon="-3.9460450">
        <ele>612.2</ele>
        <time>2019-04-28T13:12:28Z</time>
      </trkpt>
      <trkpt lat="40.4214790" lon="-3.9460710">
        <ele>612.2</ele>
        <time>2019-04-28T13:12:29Z</time>
      </trkpt>
      <trkpt lat="40.4214250" lon="-3.9460780">
        <ele>612.0</ele>
        <time>2019-04-28T13:12:30Z</time>
      </trkpt>
      <trkpt lat="40.4213620" lon="-3.9460850">
        <ele>612.0</ele>
        <time>2019-04-28T13:12:31Z</time>
      </trkpt>
      <trkpt lat="40.4213040" lon="-3.9460980">
        <ele>611.8</ele>
        <time>2019-04-28T13:12:32Z</time>
      </trkpt>
      <trkpt lat="40.4212500" lon="-3.9461180">
        <ele>611.8</ele>
        <time>2019-04-28T13:12:33Z</time>
      </trkpt>
      <trkpt lat="40.4211890" lon="-3.9461220">
        <ele>611.8</ele>
        <time>2019-04-28T13:12:34Z</time>
      </trkpt>
      <trkpt lat="40.4211370" lon="-3.9461300">
        <ele>611.8</ele>
        <time>2019-04-28T13:12:35Z</time>
      </trkpt>
      <trkpt lat="40.4210860" lon="-3.9461380">
        <ele>611.6</ele>
        <time>2019-04-28T13:12:36Z</time>
      </trkpt>
      <trkpt lat="40.4210320" lon="-3.9461550">
        <ele>611.6</ele>
        <time>2019-04-28T13:12:37Z</time>
      </trkpt>
      <trkpt lat="40.4209840" lon="-3.9461770">
        <ele>611.8</ele>
        <time>2019-04-28T13:12:38Z</time>
      </trkpt>
      <trkpt lat="40.4209390" lon="-3.9461940">
        <ele>611.6</ele>
        <time>2019-04-28T13:12:39Z</time>
      </trkpt>
      <trkpt lat="40.4208860" lon="-3.9462010">
        <ele>611.6</ele>
        <time>2019-04-28T13:12:40Z</time>
      </trkpt>
      <trkpt lat="40.4208500" lon="-3.9461900">
        <ele>611.6</ele>
        <time>2019-04-28T13:12:41Z</time>
      </trkpt>
      <trkpt lat="40.4208140" lon="-3.9461700">
        <ele>611.4</ele>
        <time>2019-04-28T13:12:42Z</time>
      </trkpt>
      <trkpt lat="40.4207650" lon="-3.9461570">
        <ele>611.4</ele>
        <time>2019-04-28T13:12:43Z</time>
      </trkpt>
      <trkpt lat="40.4207170" lon="-3.9461630">
        <ele>611.2</ele>
        <time>2019-04-28T13:12:44Z</time>
      </trkpt>
      <trkpt lat="40.4206870" lon="-3.9461820">
        <ele>611.2</ele>
        <time>2019-04-28T13:12:45Z</time>
      </trkpt>
      <trkpt lat="40.4206620" lon="-3.9462190">
        <ele>611.6</ele>
        <time>2019-04-28T13:12:46Z</time>
      </trkpt>
      <trkpt lat="40.4206360" lon="-3.9462500">
        <ele>611.6</ele>
        <time>2019-04-28T13:12:47Z</time>
      </trkpt>
      <trkpt lat="40.4206070" lon="-3.9462800">
        <ele>611.6</ele>
        <time>2019-04-28T13:12:48Z</time>
      </trkpt>
      <trkpt lat="40.4205830" lon="-3.9463090">
        <ele>611.6</ele>
        <time>2019-04-28T13:12:49Z</time>
      </trkpt>
      <trkpt lat="40.4205610" lon="-3.9463410">
        <ele>611.6</ele>
        <time>2019-04-28T13:12:50Z</time>
      </trkpt>
      <trkpt lat="40.4205220" lon="-3.9463630">
        <ele>611.4</ele>
        <time>2019-04-28T13:12:51Z</time>
      </trkpt>
      <trkpt lat="40.4205190" lon="-3.9463700">
        <ele>611.4</ele>
        <time>2019-04-28T13:12:52Z</time>
      </trkpt>
      <trkpt lat="40.4205050" lon="-3.9463860">
        <ele>611.6</ele>
        <time>2019-04-28T13:12:53Z</time>
      </trkpt>
      <trkpt lat="40.4204730" lon="-3.9463920">
        <ele>611.6</ele>
        <time>2019-04-28T13:12:54Z</time>
      </trkpt>
      <trkpt lat="40.4204370" lon="-3.9463880">
        <ele>611.6</ele>
        <time>2019-04-28T13:12:55Z</time>
      </trkpt>
      <trkpt lat="40.4204000" lon="-3.9464060">
        <ele>611.6</ele>
        <time>2019-04-28T13:12:56Z</time>
      </trkpt>
      <trkpt lat="40.4203200" lon="-3.9464340">
        <ele>611.6</ele>
        <time>2019-04-28T13:12:57Z</time>
      </trkpt>
      <trkpt lat="40.4202860" lon="-3.9464590">
        <ele>611.6</ele>
        <time>2019-04-28T13:12:58Z</time>
      </trkpt>
      <trkpt lat="40.4202610" lon="-3.9464520">
        <ele>611.6</ele>
        <time>2019-04-28T13:12:59Z</time>
      </trkpt>
      <trkpt lat="40.4202230" lon="-3.9464480">
        <ele>611.6</ele>
        <time>2019-04-28T13:13:00Z</time>
      </trkpt>
      <trkpt lat="40.4201730" lon="-3.9464370">
        <ele>611.4</ele>
        <time>2019-04-28T13:13:01Z</time>
      </trkpt>
      <trkpt lat="40.4201350" lon="-3.9464320">
        <ele>611.4</ele>
        <time>2019-04-28T13:13:02Z</time>
      </trkpt>
      <trkpt lat="40.4201010" lon="-3.9464290">
        <ele>611.4</ele>
        <time>2019-04-28T13:13:03Z</time>
      </trkpt>
      <trkpt lat="40.4200620" lon="-3.9464290">
        <ele>611.6</ele>
        <time>2019-04-28T13:13:04Z</time>
      </trkpt>
      <trkpt lat="40.4199800" lon="-3.9464050">
        <ele>611.8</ele>
        <time>2019-04-28T13:13:05Z</time>
      </trkpt>
      <trkpt lat="40.4199090" lon="-3.9463900">
        <ele>612.0</ele>
        <time>2019-04-28T13:13:06Z</time>
      </trkpt>
      <trkpt lat="40.4198390" lon="-3.9463740">
        <ele>612.0</ele>
        <time>2019-04-28T13:13:07Z</time>
      </trkpt>
      <trkpt lat="40.4197810" lon="-3.9463490">
        <ele>612.4</ele>
        <time>2019-04-28T13:13:08Z</time>
      </trkpt>
      <trkpt lat="40.4197190" lon="-3.9463510">
        <ele>612.8</ele>
        <time>2019-04-28T13:13:09Z</time>
      </trkpt>
      <trkpt lat="40.4196550" lon="-3.9463480">
        <ele>613.2</ele>
        <time>2019-04-28T13:13:10Z</time>
      </trkpt>
      <trkpt lat="40.4195810" lon="-3.9463510">
        <ele>613.8</ele>
        <time>2019-04-28T13:13:11Z</time>
      </trkpt>
      <trkpt lat="40.4195100" lon="-3.9463630">
        <ele>614.2</ele>
        <time>2019-04-28T13:13:12Z</time>
      </trkpt>
      <trkpt lat="40.4194480" lon="-3.9463670">
        <ele>614.4</ele>
        <time>2019-04-28T13:13:13Z</time>
      </trkpt>
      <trkpt lat="40.4193700" lon="-3.9463510">
        <ele>614.6</ele>
        <time>2019-04-28T13:13:14Z</time>
      </trkpt>
      <trkpt lat="40.4193020" lon="-3.9463300">
        <ele>614.6</ele>
        <time>2019-04-28T13:13:15Z</time>
      </trkpt>
      <trkpt lat="40.4192270" lon="-3.9463160">
        <ele>614.8</ele>
        <time>2019-04-28T13:13:16Z</time>
      </trkpt>
      <trkpt lat="40.4191530" lon="-3.9463170">
        <ele>614.8</ele>
        <time>2019-04-28T13:13:17Z</time>
      </trkpt>
      <trkpt lat="40.4190850" lon="-3.9463120">
        <ele>614.8</ele>
        <time>2019-04-28T13:13:18Z</time>
      </trkpt>
      <trkpt lat="40.4190140" lon="-3.9463110">
        <ele>614.6</ele>
        <time>2019-04-28T13:13:19Z</time>
      </trkpt>
      <trkpt lat="40.4189530" lon="-3.9463360">
        <ele>614.0</ele>
        <time>2019-04-28T13:13:20Z</time>
      </trkpt>
      <trkpt lat="40.4188940" lon="-3.9463810">
        <ele>613.6</ele>
        <time>2019-04-28T13:13:21Z</time>
      </trkpt>
      <trkpt lat="40.4188480" lon="-3.9464410">
        <ele>613.0</ele>
        <time>2019-04-28T13:13:22Z</time>
      </trkpt>
      <trkpt lat="40.4188130" lon="-3.9464960">
        <ele>612.8</ele>
        <time>2019-04-28T13:13:23Z</time>
      </trkpt>
      <trkpt lat="40.4187890" lon="-3.9465490">
        <ele>612.2</ele>
        <time>2019-04-28T13:13:24Z</time>
      </trkpt>
      <trkpt lat="40.4187460" lon="-3.9465790">
        <ele>611.6</ele>
        <time>2019-04-28T13:13:25Z</time>
      </trkpt>
      <trkpt lat="40.4187040" lon="-3.9465930">
        <ele>611.2</ele>
        <time>2019-04-28T13:13:26Z</time>
      </trkpt>
      <trkpt lat="40.4186570" lon="-3.9466070">
        <ele>611.2</ele>
        <time>2019-04-28T13:13:27Z</time>
      </trkpt>
      <trkpt lat="40.4186320" lon="-3.9466250">
        <ele>611.8</ele>
        <time>2019-04-28T13:13:28Z</time>
      </trkpt>
      <trkpt lat="40.4185920" lon="-3.9466450">
        <ele>612.0</ele>
        <time>2019-04-28T13:13:29Z</time>
      </trkpt>
      <trkpt lat="40.4185600" lon="-3.9466920">
        <ele>612.4</ele>
        <time>2019-04-28T13:13:30Z</time>
      </trkpt>
      <trkpt lat="40.4185350" lon="-3.9467270">
        <ele>612.2</ele>
        <time>2019-04-28T13:13:31Z</time>
      </trkpt>
      <trkpt lat="40.4184960" lon="-3.9467570">
        <ele>612.2</ele>
        <time>2019-04-28T13:13:32Z</time>
      </trkpt>
      <trkpt lat="40.4184280" lon="-3.9468110">
        <ele>612.2</ele>
        <time>2019-04-28T13:13:33Z</time>
      </trkpt>
      <trkpt lat="40.4183630" lon="-3.9468360">
        <ele>612.4</ele>
        <time>2019-04-28T13:13:34Z</time>
      </trkpt>
      <trkpt lat="40.4183150" lon="-3.9468380">
        <ele>612.4</ele>
        <time>2019-04-28T13:13:35Z</time>
      </trkpt>
      <trkpt lat="40.4182570" lon="-3.9468540">
        <ele>612.2</ele>
        <time>2019-04-28T13:13:36Z</time>
      </trkpt>
      <trkpt lat="40.4182200" lon="-3.9468730">
        <ele>612.4</ele>
        <time>2019-04-28T13:13:37Z</time>
      </trkpt>
      <trkpt lat="40.4181820" lon="-3.9469030">
        <ele>612.4</ele>
        <time>2019-04-28T13:13:38Z</time>
      </trkpt>
      <trkpt lat="40.4181310" lon="-3.9469370">
        <ele>612.6</ele>
        <time>2019-04-28T13:13:39Z</time>
      </trkpt>
      <trkpt lat="40.4180670" lon="-3.9469550">
        <ele>612.4</ele>
        <time>2019-04-28T13:13:40Z</time>
      </trkpt>
      <trkpt lat="40.4180040" lon="-3.9469620">
        <ele>612.4</ele>
        <time>2019-04-28T13:13:41Z</time>
      </trkpt>
      <trkpt lat="40.4179360" lon="-3.9469560">
        <ele>612.4</ele>
        <time>2019-04-28T13:13:42Z</time>
      </trkpt>
      <trkpt lat="40.4178680" lon="-3.9469520">
        <ele>612.4</ele>
        <time>2019-04-28T13:13:43Z</time>
      </trkpt>
      <trkpt lat="40.4177940" lon="-3.9469630">
        <ele>612.2</ele>
        <time>2019-04-28T13:13:44Z</time>
      </trkpt>
      <trkpt lat="40.4177280" lon="-3.9469740">
        <ele>612.2</ele>
        <time>2019-04-28T13:13:45Z</time>
      </trkpt>
      <trkpt lat="40.4176670" lon="-3.9469930">
        <ele>612.2</ele>
        <time>2019-04-28T13:13:46Z</time>
      </trkpt>
      <trkpt lat="40.4176030" lon="-3.9470210">
        <ele>612.4</ele>
        <time>2019-04-28T13:13:47Z</time>
      </trkpt>
      <trkpt lat="40.4175380" lon="-3.9470420">
        <ele>612.4</ele>
        <time>2019-04-28T13:13:48Z</time>
      </trkpt>
      <trkpt lat="40.4174690" lon="-3.9470610">
        <ele>612.4</ele>
        <time>2019-04-28T13:13:49Z</time>
      </trkpt>
      <trkpt lat="40.4174030" lon="-3.9470790">
        <ele>612.6</ele>
        <time>2019-04-28T13:13:50Z</time>
      </trkpt>
      <trkpt lat="40.4173400" lon="-3.9470910">
        <ele>612.8</ele>
        <time>2019-04-28T13:13:51Z</time>
      </trkpt>
      <trkpt lat="40.4172740" lon="-3.9470960">
        <ele>613.0</ele>
        <time>2019-04-28T13:13:52Z</time>
      </trkpt>
      <trkpt lat="40.4172050" lon="-3.9471000">
        <ele>613.2</ele>
        <time>2019-04-28T13:13:53Z</time>
      </trkpt>
      <trkpt lat="40.4171370" lon="-3.9470970">
        <ele>613.6</ele>
        <time>2019-04-28T13:13:54Z</time>
      </trkpt>
      <trkpt lat="40.4170790" lon="-3.9470860">
        <ele>613.8</ele>
        <time>2019-04-28T13:13:55Z</time>
      </trkpt>
      <trkpt lat="40.4170140" lon="-3.9470790">
        <ele>614.0</ele>
        <time>2019-04-28T13:13:56Z</time>
      </trkpt>
      <trkpt lat="40.4169500" lon="-3.9470810">
        <ele>614.0</ele>
        <time>2019-04-28T13:13:57Z</time>
      </trkpt>
      <trkpt lat="40.4168840" lon="-3.9470820">
        <ele>614.0</ele>
        <time>2019-04-28T13:13:58Z</time>
      </trkpt>
      <trkpt lat="40.4168240" lon="-3.9470740">
        <ele>614.0</ele>
        <time>2019-04-28T13:13:59Z</time>
      </trkpt>
      <trkpt lat="40.4167640" lon="-3.9470560">
        <ele>614.0</ele>
        <time>2019-04-28T13:14:00Z</time>
      </trkpt>
      <trkpt lat="40.4167010" lon="-3.9470390">
        <ele>614.0</ele>
        <time>2019-04-28T13:14:01Z</time>
      </trkpt>
      <trkpt lat="40.4166400" lon="-3.9470260">
        <ele>613.8</ele>
        <time>2019-04-28T13:14:02Z</time>
      </trkpt>
      <trkpt lat="40.4165790" lon="-3.9470200">
        <ele>613.8</ele>
        <time>2019-04-28T13:14:03Z</time>
      </trkpt>
      <trkpt lat="40.4165180" lon="-3.9470210">
        <ele>614.0</ele>
        <time>2019-04-28T13:14:04Z</time>
      </trkpt>
      <trkpt lat="40.4164590" lon="-3.9470250">
        <ele>614.0</ele>
        <time>2019-04-28T13:14:05Z</time>
      </trkpt>
      <trkpt lat="40.4163990" lon="-3.9470240">
        <ele>613.8</ele>
        <time>2019-04-28T13:14:06Z</time>
      </trkpt>
      <trkpt lat="40.4163360" lon="-3.9470260">
        <ele>614.0</ele>
        <time>2019-04-28T13:14:07Z</time>
      </trkpt>
      <trkpt lat="40.4162750" lon="-3.9470280">
        <ele>614.0</ele>
        <time>2019-04-28T13:14:08Z</time>
      </trkpt>
      <trkpt lat="40.4162110" lon="-3.9470290">
        <ele>614.0</ele>
        <time>2019-04-28T13:14:09Z</time>
      </trkpt>
      <trkpt lat="40.4161440" lon="-3.9470330">
        <ele>614.0</ele>
        <time>2019-04-28T13:14:10Z</time>
      </trkpt>
      <trkpt lat="40.4160820" lon="-3.9470360">
        <ele>614.0</ele>
        <time>2019-04-28T13:14:11Z</time>
      </trkpt>
      <trkpt lat="40.4160180" lon="-3.9470390">
        <ele>614.0</ele>
        <time>2019-04-28T13:14:12Z</time>
      </trkpt>
      <trkpt lat="40.4159510" lon="-3.9470410">
        <ele>614.0</ele>
        <time>2019-04-28T13:14:13Z</time>
      </trkpt>
      <trkpt lat="40.4158850" lon="-3.9470410">
        <ele>614.0</ele>
        <time>2019-04-28T13:14:14Z</time>
      </trkpt>
      <trkpt lat="40.4158230" lon="-3.9470340">
        <ele>614.0</ele>
        <time>2019-04-28T13:14:15Z</time>
      </trkpt>
      <trkpt lat="40.4157600" lon="-3.9470220">
        <ele>613.8</ele>
        <time>2019-04-28T13:14:16Z</time>
      </trkpt>
      <trkpt lat="40.4156990" lon="-3.9470070">
        <ele>613.8</ele>
        <time>2019-04-28T13:14:17Z</time>
      </trkpt>
      <trkpt lat="40.4156420" lon="-3.9469860">
        <ele>613.8</ele>
        <time>2019-04-28T13:14:18Z</time>
      </trkpt>
      <trkpt lat="40.4155860" lon="-3.9469660">
        <ele>614.0</ele>
        <time>2019-04-28T13:14:19Z</time>
      </trkpt>
      <trkpt lat="40.4155380" lon="-3.9469480">
        <ele>614.2</ele>
        <time>2019-04-28T13:14:20Z</time>
      </trkpt>
      <trkpt lat="40.4155030" lon="-3.9469310">
        <ele>614.0</ele>
        <time>2019-04-28T13:14:21Z</time>
      </trkpt>
      <trkpt lat="40.4154710" lon="-3.9469200">
        <ele>614.2</ele>
        <time>2019-04-28T13:14:22Z</time>
      </trkpt>
      <trkpt lat="40.4154420" lon="-3.9469180">
        <ele>614.4</ele>
        <time>2019-04-28T13:14:23Z</time>
      </trkpt>
      <trkpt lat="40.4154150" lon="-3.9469290">
        <ele>614.2</ele>
        <time>2019-04-28T13:14:24Z</time>
      </trkpt>
      <trkpt lat="40.4153880" lon="-3.9469530">
        <ele>614.0</ele>
        <time>2019-04-28T13:14:25Z</time>
      </trkpt>
      <trkpt lat="40.4153570" lon="-3.9469870">
        <ele>614.0</ele>
        <time>2019-04-28T13:14:26Z</time>
      </trkpt>
      <trkpt lat="40.4153320" lon="-3.9470290">
        <ele>613.6</ele>
        <time>2019-04-28T13:14:27Z</time>
      </trkpt>
      <trkpt lat="40.4153150" lon="-3.9470850">
        <ele>613.4</ele>
        <time>2019-04-28T13:14:28Z</time>
      </trkpt>
      <trkpt lat="40.4152990" lon="-3.9471440">
        <ele>613.2</ele>
        <time>2019-04-28T13:14:29Z</time>
      </trkpt>
      <trkpt lat="40.4152820" lon="-3.9472030">
        <ele>613.0</ele>
        <time>2019-04-28T13:14:30Z</time>
      </trkpt>
      <trkpt lat="40.4152600" lon="-3.9472610">
        <ele>613.0</ele>
        <time>2019-04-28T13:14:31Z</time>
      </trkpt>
      <trkpt lat="40.4152360" lon="-3.9473140">
        <ele>612.8</ele>
        <time>2019-04-28T13:14:32Z</time>
      </trkpt>
      <trkpt lat="40.4152140" lon="-3.9473670">
        <ele>612.8</ele>
        <time>2019-04-28T13:14:33Z</time>
      </trkpt>
      <trkpt lat="40.4151940" lon="-3.9474220">
        <ele>612.8</ele>
        <time>2019-04-28T13:14:34Z</time>
      </trkpt>
      <trkpt lat="40.4151780" lon="-3.9474780">
        <ele>612.6</ele>
        <time>2019-04-28T13:14:35Z</time>
      </trkpt>
      <trkpt lat="40.4151620" lon="-3.9475340">
        <ele>612.6</ele>
        <time>2019-04-28T13:14:36Z</time>
      </trkpt>
      <trkpt lat="40.4151450" lon="-3.9475880">
        <ele>612.6</ele>
        <time>2019-04-28T13:14:37Z</time>
      </trkpt>
      <trkpt lat="40.4151270" lon="-3.9476400">
        <ele>612.6</ele>
        <time>2019-04-28T13:14:38Z</time>
      </trkpt>
      <trkpt lat="40.4151040" lon="-3.9476890">
        <ele>612.6</ele>
        <time>2019-04-28T13:14:39Z</time>
      </trkpt>
      <trkpt lat="40.4150770" lon="-3.9477390">
        <ele>612.6</ele>
        <time>2019-04-28T13:14:40Z</time>
      </trkpt>
      <trkpt lat="40.4150460" lon="-3.9477830">
        <ele>612.4</ele>
        <time>2019-04-28T13:14:41Z</time>
      </trkpt>
      <trkpt lat="40.4150090" lon="-3.9478210">
        <ele>612.2</ele>
        <time>2019-04-28T13:14:42Z</time>
      </trkpt>
      <trkpt lat="40.4149660" lon="-3.9478590">
        <ele>612.4</ele>
        <time>2019-04-28T13:14:43Z</time>
      </trkpt>
      <trkpt lat="40.4149220" lon="-3.9478980">
        <ele>612.2</ele>
        <time>2019-04-28T13:14:44Z</time>
      </trkpt>
      <trkpt lat="40.4148840" lon="-3.9479460">
        <ele>611.8</ele>
        <time>2019-04-28T13:14:45Z</time>
      </trkpt>
      <trkpt lat="40.4148470" lon="-3.9480020">
        <ele>611.6</ele>
        <time>2019-04-28T13:14:46Z</time>
      </trkpt>
      <trkpt lat="40.4148010" lon="-3.9480550">
        <ele>611.2</ele>
        <time>2019-04-28T13:14:47Z</time>
      </trkpt>
      <trkpt lat="40.4147530" lon="-3.9481000">
        <ele>611.0</ele>
        <time>2019-04-28T13:14:48Z</time>
      </trkpt>
      <trkpt lat="40.4147190" lon="-3.9481500">
        <ele>611.2</ele>
        <time>2019-04-28T13:14:49Z</time>
      </trkpt>
      <trkpt lat="40.4146980" lon="-3.9482180">
        <ele>611.2</ele>
        <time>2019-04-28T13:14:50Z</time>
      </trkpt>
      <trkpt lat="40.4146850" lon="-3.9482940">
        <ele>611.2</ele>
        <time>2019-04-28T13:14:51Z</time>
      </trkpt>
      <trkpt lat="40.4146820" lon="-3.9483630">
        <ele>611.2</ele>
        <time>2019-04-28T13:14:52Z</time>
      </trkpt>
      <trkpt lat="40.4146680" lon="-3.9484270">
        <ele>611.0</ele>
        <time>2019-04-28T13:14:53Z</time>
      </trkpt>
      <trkpt lat="40.4146410" lon="-3.9484790">
        <ele>611.0</ele>
        <time>2019-04-28T13:14:54Z</time>
      </trkpt>
      <trkpt lat="40.4146040" lon="-3.9485140">
        <ele>611.2</ele>
        <time>2019-04-28T13:14:55Z</time>
      </trkpt>
      <trkpt lat="40.4145700" lon="-3.9485350">
        <ele>611.2</ele>
        <time>2019-04-28T13:14:56Z</time>
      </trkpt>
      <trkpt lat="40.4145360" lon="-3.9485330">
        <ele>611.0</ele>
        <time>2019-04-28T13:14:57Z</time>
      </trkpt>
      <trkpt lat="40.4144840" lon="-3.9485100">
        <ele>611.0</ele>
        <time>2019-04-28T13:14:58Z</time>
      </trkpt>
      <trkpt lat="40.4144390" lon="-3.9484760">
        <ele>611.0</ele>
        <time>2019-04-28T13:14:59Z</time>
      </trkpt>
      <trkpt lat="40.4143970" lon="-3.9484610">
        <ele>611.0</ele>
        <time>2019-04-28T13:15:00Z</time>
      </trkpt>
      <trkpt lat="40.4143470" lon="-3.9484450">
        <ele>610.8</ele>
        <time>2019-04-28T13:15:01Z</time>
      </trkpt>
      <trkpt lat="40.4142920" lon="-3.9484320">
        <ele>610.8</ele>
        <time>2019-04-28T13:15:02Z</time>
      </trkpt>
      <trkpt lat="40.4142580" lon="-3.9484220">
        <ele>610.8</ele>
        <time>2019-04-28T13:15:03Z</time>
      </trkpt>
      <trkpt lat="40.4142370" lon="-3.9484060">
        <ele>610.8</ele>
        <time>2019-04-28T13:15:04Z</time>
      </trkpt>
      <trkpt lat="40.4142100" lon="-3.9483830">
        <ele>610.8</ele>
        <time>2019-04-28T13:15:05Z</time>
      </trkpt>
      <trkpt lat="40.4141790" lon="-3.9483650">
        <ele>610.8</ele>
        <time>2019-04-28T13:15:06Z</time>
      </trkpt>
      <trkpt lat="40.4141460" lon="-3.9483520">
        <ele>611.2</ele>
        <time>2019-04-28T13:15:07Z</time>
      </trkpt>
      <trkpt lat="40.4141170" lon="-3.9483460">
        <ele>611.2</ele>
        <time>2019-04-28T13:15:08Z</time>
      </trkpt>
      <trkpt lat="40.4140730" lon="-3.9483360">
        <ele>611.2</ele>
        <time>2019-04-28T13:15:09Z</time>
      </trkpt>
      <trkpt lat="40.4140410" lon="-3.9483310">
        <ele>611.0</ele>
        <time>2019-04-28T13:15:10Z</time>
      </trkpt>
      <trkpt lat="40.4140160" lon="-3.9483130">
        <ele>610.8</ele>
        <time>2019-04-28T13:15:11Z</time>
      </trkpt>
      <trkpt lat="40.4140040" lon="-3.9482800">
        <ele>611.2</ele>
        <time>2019-04-28T13:15:12Z</time>
      </trkpt>
      <trkpt lat="40.4140150" lon="-3.9482580">
        <ele>611.2</ele>
        <time>2019-04-28T13:15:13Z</time>
      </trkpt>
      <trkpt lat="40.4140040" lon="-3.9482010">
        <ele>611.2</ele>
        <time>2019-04-28T13:15:14Z</time>
      </trkpt>
      <trkpt lat="40.4139970" lon="-3.9481380">
        <ele>611.4</ele>
        <time>2019-04-28T13:15:15Z</time>
      </trkpt>
      <trkpt lat="40.4139930" lon="-3.9480760">
        <ele>611.6</ele>
        <time>2019-04-28T13:15:16Z</time>
      </trkpt>
      <trkpt lat="40.4139910" lon="-3.9480120">
        <ele>611.6</ele>
        <time>2019-04-28T13:15:17Z</time>
      </trkpt>
      <trkpt lat="40.4139850" lon="-3.9479470">
        <ele>611.6</ele>
        <time>2019-04-28T13:15:18Z</time>
      </trkpt>
      <trkpt lat="40.4139700" lon="-3.9478860">
        <ele>611.8</ele>
        <time>2019-04-28T13:15:19Z</time>
      </trkpt>
      <trkpt lat="40.4139470" lon="-3.9478270">
        <ele>611.8</ele>
        <time>2019-04-28T13:15:20Z</time>
      </trkpt>
      <trkpt lat="40.4139130" lon="-3.9477720">
        <ele>611.8</ele>
        <time>2019-04-28T13:15:21Z</time>
      </trkpt>
      <trkpt lat="40.4138680" lon="-3.9477220">
        <ele>611.8</ele>
        <time>2019-04-28T13:15:22Z</time>
      </trkpt>
      <trkpt lat="40.4138190" lon="-3.9476730">
        <ele>612.0</ele>
        <time>2019-04-28T13:15:23Z</time>
      </trkpt>
      <trkpt lat="40.4137790" lon="-3.9476270">
        <ele>612.0</ele>
        <time>2019-04-28T13:15:24Z</time>
      </trkpt>
      <trkpt lat="40.4137420" lon="-3.9475750">
        <ele>612.0</ele>
        <time>2019-04-28T13:15:25Z</time>
      </trkpt>
      <trkpt lat="40.4137110" lon="-3.9475230">
        <ele>612.2</ele>
        <time>2019-04-28T13:15:26Z</time>
      </trkpt>
      <trkpt lat="40.4136890" lon="-3.9474690">
        <ele>612.4</ele>
        <time>2019-04-28T13:15:27Z</time>
      </trkpt>
      <trkpt lat="40.4136770" lon="-3.9474160">
        <ele>612.6</ele>
        <time>2019-04-28T13:15:28Z</time>
      </trkpt>
      <trkpt lat="40.4136710" lon="-3.9473660">
        <ele>612.8</ele>
        <time>2019-04-28T13:15:29Z</time>
      </trkpt>
      <trkpt lat="40.4136390" lon="-3.9473290">
        <ele>612.8</ele>
        <time>2019-04-28T13:15:30Z</time>
      </trkpt>
      <trkpt lat="40.4136060" lon="-3.9473040">
        <ele>612.8</ele>
        <time>2019-04-28T13:15:31Z</time>
      </trkpt>
      <trkpt lat="40.4135730" lon="-3.9472840">
        <ele>613.0</ele>
        <time>2019-04-28T13:15:32Z</time>
      </trkpt>
      <trkpt lat="40.4135270" lon="-3.9472730">
        <ele>613.0</ele>
        <time>2019-04-28T13:15:33Z</time>
      </trkpt>
      <trkpt lat="40.4134760" lon="-3.9472650">
        <ele>613.0</ele>
        <time>2019-04-28T13:15:34Z</time>
      </trkpt>
      <trkpt lat="40.4134250" lon="-3.9472470">
        <ele>613.2</ele>
        <time>2019-04-28T13:15:35Z</time>
      </trkpt>
      <trkpt lat="40.4133780" lon="-3.9472300">
        <ele>613.2</ele>
        <time>2019-04-28T13:15:36Z</time>
      </trkpt>
      <trkpt lat="40.4133240" lon="-3.9472130">
        <ele>613.0</ele>
        <time>2019-04-28T13:15:37Z</time>
      </trkpt>
      <trkpt lat="40.4132660" lon="-3.9471930">
        <ele>613.2</ele>
        <time>2019-04-28T13:15:38Z</time>
      </trkpt>
      <trkpt lat="40.4132100" lon="-3.9471770">
        <ele>613.2</ele>
        <time>2019-04-28T13:15:39Z</time>
      </trkpt>
      <trkpt lat="40.4131550" lon="-3.9471620">
        <ele>613.2</ele>
        <time>2019-04-28T13:15:40Z</time>
      </trkpt>
      <trkpt lat="40.4130980" lon="-3.9471450">
        <ele>613.2</ele>
        <time>2019-04-28T13:15:41Z</time>
      </trkpt>
      <trkpt lat="40.4130440" lon="-3.9471300">
        <ele>613.2</ele>
        <time>2019-04-28T13:15:42Z</time>
      </trkpt>
      <trkpt lat="40.4129910" lon="-3.9471150">
        <ele>613.0</ele>
        <time>2019-04-28T13:15:43Z</time>
      </trkpt>
      <trkpt lat="40.4129410" lon="-3.9471000">
        <ele>613.2</ele>
        <time>2019-04-28T13:15:44Z</time>
      </trkpt>
      <trkpt lat="40.4128980" lon="-3.9470860">
        <ele>613.0</ele>
        <time>2019-04-28T13:15:45Z</time>
      </trkpt>
      <trkpt lat="40.4128640" lon="-3.9470740">
        <ele>613.0</ele>
        <time>2019-04-28T13:15:46Z</time>
      </trkpt>
      <trkpt lat="40.4128390" lon="-3.9470640">
        <ele>613.0</ele>
        <time>2019-04-28T13:15:47Z</time>
      </trkpt>
      <trkpt lat="40.4128120" lon="-3.9470560">
        <ele>613.0</ele>
        <time>2019-04-28T13:15:48Z</time>
      </trkpt>
      <trkpt lat="40.4127900" lon="-3.9470580">
        <ele>613.0</ele>
        <time>2019-04-28T13:15:49Z</time>
      </trkpt>
      <trkpt lat="40.4127680" lon="-3.9470560">
        <ele>613.2</ele>
        <time>2019-04-28T13:15:50Z</time>
      </trkpt>
      <trkpt lat="40.4127440" lon="-3.9470550">
        <ele>613.0</ele>
        <time>2019-04-28T13:15:51Z</time>
      </trkpt>
      <trkpt lat="40.4127350" lon="-3.9470670">
        <ele>613.0</ele>
        <time>2019-04-28T13:15:52Z</time>
      </trkpt>
      <trkpt lat="40.4127300" lon="-3.9470720">
        <ele>613.0</ele>
        <time>2019-04-28T13:15:53Z</time>
      </trkpt>
      <trkpt lat="40.4126990" lon="-3.9470620">
        <ele>613.0</ele>
        <time>2019-04-28T13:15:54Z</time>
      </trkpt>
      <trkpt lat="40.4126880" lon="-3.9470660">
        <ele>613.2</ele>
        <time>2019-04-28T13:15:55Z</time>
      </trkpt>
      <trkpt lat="40.4126520" lon="-3.9470630">
        <ele>613.2</ele>
        <time>2019-04-28T13:15:56Z</time>
      </trkpt>
      <trkpt lat="40.4126320" lon="-3.9470670">
        <ele>613.4</ele>
        <time>2019-04-28T13:15:57Z</time>
      </trkpt>
      <trkpt lat="40.4125880" lon="-3.9470540">
        <ele>613.2</ele>
        <time>2019-04-28T13:15:58Z</time>
      </trkpt>
      <trkpt lat="40.4125380" lon="-3.9470380">
        <ele>613.2</ele>
        <time>2019-04-28T13:15:59Z</time>
      </trkpt>
      <trkpt lat="40.4124840" lon="-3.9470190">
        <ele>613.2</ele>
        <time>2019-04-28T13:16:00Z</time>
      </trkpt>
      <trkpt lat="40.4124380" lon="-3.9470000">
        <ele>613.0</ele>
        <time>2019-04-28T13:16:01Z</time>
      </trkpt>
      <trkpt lat="40.4123980" lon="-3.9469850">
        <ele>613.2</ele>
        <time>2019-04-28T13:16:02Z</time>
      </trkpt>
      <trkpt lat="40.4123500" lon="-3.9469740">
        <ele>613.4</ele>
        <time>2019-04-28T13:16:03Z</time>
      </trkpt>
      <trkpt lat="40.4123080" lon="-3.9469760">
        <ele>613.4</ele>
        <time>2019-04-28T13:16:04Z</time>
      </trkpt>
      <trkpt lat="40.4122500" lon="-3.9469700">
        <ele>613.2</ele>
        <time>2019-04-28T13:16:05Z</time>
      </trkpt>
      <trkpt lat="40.4121820" lon="-3.9469540">
        <ele>613.0</ele>
        <time>2019-04-28T13:16:06Z</time>
      </trkpt>
      <trkpt lat="40.4121130" lon="-3.9469330">
        <ele>613.0</ele>
        <time>2019-04-28T13:16:07Z</time>
      </trkpt>
      <trkpt lat="40.4120460" lon="-3.9469090">
        <ele>612.8</ele>
        <time>2019-04-28T13:16:08Z</time>
      </trkpt>
      <trkpt lat="40.4119750" lon="-3.9469020">
        <ele>612.8</ele>
        <time>2019-04-28T13:16:09Z</time>
      </trkpt>
      <trkpt lat="40.4119060" lon="-3.9469040">
        <ele>612.6</ele>
        <time>2019-04-28T13:16:10Z</time>
      </trkpt>
      <trkpt lat="40.4118390" lon="-3.9468950">
        <ele>612.6</ele>
        <time>2019-04-28T13:16:11Z</time>
      </trkpt>
      <trkpt lat="40.4117760" lon="-3.9468780">
        <ele>612.6</ele>
        <time>2019-04-28T13:16:12Z</time>
      </trkpt>
      <trkpt lat="40.4117010" lon="-3.9468600">
        <ele>612.4</ele>
        <time>2019-04-28T13:16:13Z</time>
      </trkpt>
      <trkpt lat="40.4116230" lon="-3.9468390">
        <ele>612.4</ele>
        <time>2019-04-28T13:16:14Z</time>
      </trkpt>
      <trkpt lat="40.4115560" lon="-3.9468090">
        <ele>612.6</ele>
        <time>2019-04-28T13:16:15Z</time>
      </trkpt>
      <trkpt lat="40.4114790" lon="-3.9467690">
        <ele>612.8</ele>
        <time>2019-04-28T13:16:16Z</time>
      </trkpt>
      <trkpt lat="40.4114160" lon="-3.9467450">
        <ele>613.0</ele>
        <time>2019-04-28T13:16:17Z</time>
      </trkpt>
      <trkpt lat="40.4113510" lon="-3.9467230">
        <ele>613.0</ele>
        <time>2019-04-28T13:16:18Z</time>
      </trkpt>
      <trkpt lat="40.4112830" lon="-3.9467000">
        <ele>612.8</ele>
        <time>2019-04-28T13:16:19Z</time>
      </trkpt>
      <trkpt lat="40.4112140" lon="-3.9466800">
        <ele>612.8</ele>
        <time>2019-04-28T13:16:20Z</time>
      </trkpt>
      <trkpt lat="40.4111480" lon="-3.9466650">
        <ele>612.8</ele>
        <time>2019-04-28T13:16:21Z</time>
      </trkpt>
      <trkpt lat="40.4110820" lon="-3.9466490">
        <ele>612.8</ele>
        <time>2019-04-28T13:16:22Z</time>
      </trkpt>
      <trkpt lat="40.4110170" lon="-3.9466340">
        <ele>612.8</ele>
        <time>2019-04-28T13:16:23Z</time>
      </trkpt>
      <trkpt lat="40.4109530" lon="-3.9466300">
        <ele>612.6</ele>
        <time>2019-04-28T13:16:24Z</time>
      </trkpt>
      <trkpt lat="40.4108870" lon="-3.9466330">
        <ele>612.6</ele>
        <time>2019-04-28T13:16:25Z</time>
      </trkpt>
      <trkpt lat="40.4108240" lon="-3.9466290">
        <ele>612.6</ele>
        <time>2019-04-28T13:16:26Z</time>
      </trkpt>
      <trkpt lat="40.4107580" lon="-3.9466180">
        <ele>612.4</ele>
        <time>2019-04-28T13:16:27Z</time>
      </trkpt>
      <trkpt lat="40.4106920" lon="-3.9466040">
        <ele>612.6</ele>
        <time>2019-04-28T13:16:28Z</time>
      </trkpt>
      <trkpt lat="40.4106250" lon="-3.9465920">
        <ele>612.6</ele>
        <time>2019-04-28T13:16:29Z</time>
      </trkpt>
      <trkpt lat="40.4105570" lon="-3.9465810">
        <ele>612.6</ele>
        <time>2019-04-28T13:16:30Z</time>
      </trkpt>
      <trkpt lat="40.4104890" lon="-3.9465740">
        <ele>612.4</ele>
        <time>2019-04-28T13:16:31Z</time>
      </trkpt>
      <trkpt lat="40.4104220" lon="-3.9465610">
        <ele>612.2</ele>
        <time>2019-04-28T13:16:32Z</time>
      </trkpt>
      <trkpt lat="40.4103580" lon="-3.9465460">
        <ele>612.4</ele>
        <time>2019-04-28T13:16:33Z</time>
      </trkpt>
      <trkpt lat="40.4102940" lon="-3.9465320">
        <ele>612.4</ele>
        <time>2019-04-28T13:16:34Z</time>
      </trkpt>
      <trkpt lat="40.4102290" lon="-3.9465270">
        <ele>612.4</ele>
        <time>2019-04-28T13:16:35Z</time>
      </trkpt>
      <trkpt lat="40.4101630" lon="-3.9465250">
        <ele>612.4</ele>
        <time>2019-04-28T13:16:36Z</time>
      </trkpt>
      <trkpt lat="40.4100970" lon="-3.9465330">
        <ele>612.2</ele>
        <time>2019-04-28T13:16:37Z</time>
      </trkpt>
      <trkpt lat="40.4100290" lon="-3.9465460">
        <ele>612.2</ele>
        <time>2019-04-28T13:16:38Z</time>
      </trkpt>
      <trkpt lat="40.4099610" lon="-3.9465480">
        <ele>612.2</ele>
        <time>2019-04-28T13:16:39Z</time>
      </trkpt>
      <trkpt lat="40.4098930" lon="-3.9465420">
        <ele>612.2</ele>
        <time>2019-04-28T13:16:40Z</time>
      </trkpt>
      <trkpt lat="40.4098230" lon="-3.9465340">
        <ele>612.0</ele>
        <time>2019-04-28T13:16:41Z</time>
      </trkpt>
      <trkpt lat="40.4097520" lon="-3.9465180">
        <ele>611.8</ele>
        <time>2019-04-28T13:16:42Z</time>
      </trkpt>
      <trkpt lat="40.4096830" lon="-3.9464990">
        <ele>611.8</ele>
        <time>2019-04-28T13:16:43Z</time>
      </trkpt>
      <trkpt lat="40.4096200" lon="-3.9464790">
        <ele>611.8</ele>
        <time>2019-04-28T13:16:44Z</time>
      </trkpt>
      <trkpt lat="40.4095710" lon="-3.9464490">
        <ele>612.0</ele>
        <time>2019-04-28T13:16:45Z</time>
      </trkpt>
      <trkpt lat="40.4095270" lon="-3.9464230">
        <ele>612.2</ele>
        <time>2019-04-28T13:16:46Z</time>
      </trkpt>
      <trkpt lat="40.4094850" lon="-3.9464320">
        <ele>611.8</ele>
        <time>2019-04-28T13:16:47Z</time>
      </trkpt>
      <trkpt lat="40.4094330" lon="-3.9464490">
        <ele>611.8</ele>
        <time>2019-04-28T13:16:48Z</time>
      </trkpt>
      <trkpt lat="40.4093740" lon="-3.9464460">
        <ele>611.6</ele>
        <time>2019-04-28T13:16:49Z</time>
      </trkpt>
      <trkpt lat="40.4093090" lon="-3.9464250">
        <ele>611.6</ele>
        <time>2019-04-28T13:16:50Z</time>
      </trkpt>
      <trkpt lat="40.4092410" lon="-3.9464010">
        <ele>611.6</ele>
        <time>2019-04-28T13:16:51Z</time>
      </trkpt>
      <trkpt lat="40.4091700" lon="-3.9463840">
        <ele>611.4</ele>
        <time>2019-04-28T13:16:52Z</time>
      </trkpt>
      <trkpt lat="40.4090960" lon="-3.9463710">
        <ele>611.0</ele>
        <time>2019-04-28T13:16:53Z</time>
      </trkpt>
      <trkpt lat="40.4090190" lon="-3.9463580">
        <ele>611.0</ele>
        <time>2019-04-28T13:16:54Z</time>
      </trkpt>
      <trkpt lat="40.4089410" lon="-3.9463460">
        <ele>610.8</ele>
        <time>2019-04-28T13:16:55Z</time>
      </trkpt>
      <trkpt lat="40.4088640" lon="-3.9463310">
        <ele>610.8</ele>
        <time>2019-04-28T13:16:56Z</time>
      </trkpt>
      <trkpt lat="40.4087870" lon="-3.9463130">
        <ele>610.8</ele>
        <time>2019-04-28T13:16:57Z</time>
      </trkpt>
      <trkpt lat="40.4087120" lon="-3.9462940">
        <ele>610.8</ele>
        <time>2019-04-28T13:16:58Z</time>
      </trkpt>
      <trkpt lat="40.4086380" lon="-3.9462730">
        <ele>610.8</ele>
        <time>2019-04-28T13:16:59Z</time>
      </trkpt>
      <trkpt lat="40.4085650" lon="-3.9462500">
        <ele>610.8</ele>
        <time>2019-04-28T13:17:00Z</time>
      </trkpt>
      <trkpt lat="40.4084950" lon="-3.9462360">
        <ele>610.6</ele>
        <time>2019-04-28T13:17:01Z</time>
      </trkpt>
      <trkpt lat="40.4084250" lon="-3.9462170">
        <ele>610.6</ele>
        <time>2019-04-28T13:17:02Z</time>
      </trkpt>
      <trkpt lat="40.4083560" lon="-3.9462010">
        <ele>610.4</ele>
        <time>2019-04-28T13:17:03Z</time>
      </trkpt>
      <trkpt lat="40.4082870" lon="-3.9461890">
        <ele>610.6</ele>
        <time>2019-04-28T13:17:04Z</time>
      </trkpt>
      <trkpt lat="40.4082230" lon="-3.9461640">
        <ele>610.6</ele>
        <time>2019-04-28T13:17:05Z</time>
      </trkpt>
      <trkpt lat="40.4081620" lon="-3.9461300">
        <ele>610.4</ele>
        <time>2019-04-28T13:17:06Z</time>
      </trkpt>
      <trkpt lat="40.4081000" lon="-3.9460950">
        <ele>610.6</ele>
        <time>2019-04-28T13:17:07Z</time>
      </trkpt>
      <trkpt lat="40.4080360" lon="-3.9460570">
        <ele>610.4</ele>
        <time>2019-04-28T13:17:08Z</time>
      </trkpt>
      <trkpt lat="40.4079690" lon="-3.9460200">
        <ele>610.2</ele>
        <time>2019-04-28T13:17:09Z</time>
      </trkpt>
      <trkpt lat="40.4079000" lon="-3.9460010">
        <ele>610.6</ele>
        <time>2019-04-28T13:17:10Z</time>
      </trkpt>
      <trkpt lat="40.4078370" lon="-3.9459950">
        <ele>610.6</ele>
        <time>2019-04-28T13:17:11Z</time>
      </trkpt>
      <trkpt lat="40.4077720" lon="-3.9459850">
        <ele>610.8</ele>
        <time>2019-04-28T13:17:12Z</time>
      </trkpt>
      <trkpt lat="40.4077230" lon="-3.9459820">
        <ele>611.0</ele>
        <time>2019-04-28T13:17:13Z</time>
      </trkpt>
      <trkpt lat="40.4076800" lon="-3.9459800">
        <ele>611.2</ele>
        <time>2019-04-28T13:17:14Z</time>
      </trkpt>
      <trkpt lat="40.4076460" lon="-3.9459700">
        <ele>611.0</ele>
        <time>2019-04-28T13:17:15Z</time>
      </trkpt>
      <trkpt lat="40.4076130" lon="-3.9459550">
        <ele>611.0</ele>
        <time>2019-04-28T13:17:16Z</time>
      </trkpt>
      <trkpt lat="40.4075850" lon="-3.9459460">
        <ele>610.6</ele>
        <time>2019-04-28T13:17:17Z</time>
      </trkpt>
      <trkpt lat="40.4075560" lon="-3.9459320">
        <ele>610.4</ele>
        <time>2019-04-28T13:17:18Z</time>
      </trkpt>
      <trkpt lat="40.4075570" lon="-3.9459130">
        <ele>610.4</ele>
        <time>2019-04-28T13:17:19Z</time>
      </trkpt>
      <trkpt lat="40.4075380" lon="-3.9458850">
        <ele>611.0</ele>
        <time>2019-04-28T13:17:20Z</time>
      </trkpt>
      <trkpt lat="40.4075070" lon="-3.9458510">
        <ele>610.8</ele>
        <time>2019-04-28T13:17:21Z</time>
      </trkpt>
      <trkpt lat="40.4074680" lon="-3.9458380">
        <ele>610.4</ele>
        <time>2019-04-28T13:17:22Z</time>
      </trkpt>
      <trkpt lat="40.4074170" lon="-3.9458320">
        <ele>610.2</ele>
        <time>2019-04-28T13:17:23Z</time>
      </trkpt>
      <trkpt lat="40.4073660" lon="-3.9458280">
        <ele>610.0</ele>
        <time>2019-04-28T13:17:24Z</time>
      </trkpt>
      <trkpt lat="40.4073310" lon="-3.9458160">
        <ele>610.0</ele>
        <time>2019-04-28T13:17:25Z</time>
      </trkpt>
      <trkpt lat="40.4073070" lon="-3.9457980">
        <ele>609.8</ele>
        <time>2019-04-28T13:17:26Z</time>
      </trkpt>
      <trkpt lat="40.4072530" lon="-3.9457660">
        <ele>609.8</ele>
        <time>2019-04-28T13:17:27Z</time>
      </trkpt>
      <trkpt lat="40.4072010" lon="-3.9457450">
        <ele>609.8</ele>
        <time>2019-04-28T13:17:28Z</time>
      </trkpt>
      <trkpt lat="40.4071730" lon="-3.9457370">
        <ele>609.8</ele>
        <time>2019-04-28T13:17:29Z</time>
      </trkpt>
      <trkpt lat="40.4071370" lon="-3.9456970">
        <ele>609.8</ele>
        <time>2019-04-28T13:17:30Z</time>
      </trkpt>
      <trkpt lat="40.4071020" lon="-3.9456700">
        <ele>609.6</ele>
        <time>2019-04-28T13:17:31Z</time>
      </trkpt>
      <trkpt lat="40.4070490" lon="-3.9456400">
        <ele>609.6</ele>
        <time>2019-04-28T13:17:32Z</time>
      </trkpt>
      <trkpt lat="40.4069970" lon="-3.9456040">
        <ele>609.6</ele>
        <time>2019-04-28T13:17:33Z</time>
      </trkpt>
      <trkpt lat="40.4069480" lon="-3.9455530">
        <ele>609.8</ele>
        <time>2019-04-28T13:17:34Z</time>
      </trkpt>
      <trkpt lat="40.4068950" lon="-3.9454990">
        <ele>609.8</ele>
        <time>2019-04-28T13:17:35Z</time>
      </trkpt>
      <trkpt lat="40.4068330" lon="-3.9454540">
        <ele>609.8</ele>
        <time>2019-04-28T13:17:36Z</time>
      </trkpt>
      <trkpt lat="40.4067680" lon="-3.9454220">
        <ele>609.8</ele>
        <time>2019-04-28T13:17:37Z</time>
      </trkpt>
      <trkpt lat="40.4067070" lon="-3.9453980">
        <ele>610.0</ele>
        <time>2019-04-28T13:17:38Z</time>
      </trkpt>
      <trkpt lat="40.4066400" lon="-3.9453710">
        <ele>610.0</ele>
        <time>2019-04-28T13:17:39Z</time>
      </trkpt>
      <trkpt lat="40.4065770" lon="-3.9453570">
        <ele>610.0</ele>
        <time>2019-04-28T13:17:40Z</time>
      </trkpt>
      <trkpt lat="40.4065240" lon="-3.9453470">
        <ele>610.0</ele>
        <time>2019-04-28T13:17:41Z</time>
      </trkpt>
      <trkpt lat="40.4064700" lon="-3.9453150">
        <ele>609.8</ele>
        <time>2019-04-28T13:17:42Z</time>
      </trkpt>
      <trkpt lat="40.4064180" lon="-3.9452770">
        <ele>609.8</ele>
        <time>2019-04-28T13:17:43Z</time>
      </trkpt>
      <trkpt lat="40.4063630" lon="-3.9452480">
        <ele>609.8</ele>
        <time>2019-04-28T13:17:44Z</time>
      </trkpt>
      <trkpt lat="40.4063090" lon="-3.9452280">
        <ele>609.6</ele>
        <time>2019-04-28T13:17:45Z</time>
      </trkpt>
      <trkpt lat="40.4062490" lon="-3.9452150">
        <ele>609.8</ele>
        <time>2019-04-28T13:17:46Z</time>
      </trkpt>
      <trkpt lat="40.4061960" lon="-3.9452040">
        <ele>609.8</ele>
        <time>2019-04-28T13:17:47Z</time>
      </trkpt>
      <trkpt lat="40.4061570" lon="-3.9451980">
        <ele>609.6</ele>
        <time>2019-04-28T13:17:48Z</time>
      </trkpt>
      <trkpt lat="40.4061200" lon="-3.9451940">
        <ele>609.4</ele>
        <time>2019-04-28T13:17:49Z</time>
      </trkpt>
      <trkpt lat="40.4060880" lon="-3.9451800">
        <ele>609.6</ele>
        <time>2019-04-28T13:17:50Z</time>
      </trkpt>
      <trkpt lat="40.4060590" lon="-3.9451500">
        <ele>609.4</ele>
        <time>2019-04-28T13:17:51Z</time>
      </trkpt>
      <trkpt lat="40.4060260" lon="-3.9451060">
        <ele>609.4</ele>
        <time>2019-04-28T13:17:52Z</time>
      </trkpt>
      <trkpt lat="40.4059890" lon="-3.9450530">
        <ele>609.6</ele>
        <time>2019-04-28T13:17:53Z</time>
      </trkpt>
      <trkpt lat="40.4059530" lon="-3.9449980">
        <ele>609.8</ele>
        <time>2019-04-28T13:17:54Z</time>
      </trkpt>
      <trkpt lat="40.4059180" lon="-3.9449400">
        <ele>610.0</ele>
        <time>2019-04-28T13:17:55Z</time>
      </trkpt>
      <trkpt lat="40.4058840" lon="-3.9448820">
        <ele>610.0</ele>
        <time>2019-04-28T13:17:56Z</time>
      </trkpt>
      <trkpt lat="40.4058440" lon="-3.9448280">
        <ele>610.2</ele>
        <time>2019-04-28T13:17:57Z</time>
      </trkpt>
      <trkpt lat="40.4058030" lon="-3.9447810">
        <ele>610.4</ele>
        <time>2019-04-28T13:17:58Z</time>
      </trkpt>
      <trkpt lat="40.4057610" lon="-3.9447420">
        <ele>610.4</ele>
        <time>2019-04-28T13:17:59Z</time>
      </trkpt>
      <trkpt lat="40.4057110" lon="-3.9446920">
        <ele>610.6</ele>
        <time>2019-04-28T13:18:00Z</time>
      </trkpt>
      <trkpt lat="40.4056620" lon="-3.9446440">
        <ele>610.8</ele>
        <time>2019-04-28T13:18:01Z</time>
      </trkpt>
      <trkpt lat="40.4056140" lon="-3.9445960">
        <ele>611.0</ele>
        <time>2019-04-28T13:18:02Z</time>
      </trkpt>
      <trkpt lat="40.4055670" lon="-3.9445510">
        <ele>611.4</ele>
        <time>2019-04-28T13:18:03Z</time>
      </trkpt>
      <trkpt lat="40.4055200" lon="-3.9445060">
        <ele>611.4</ele>
        <time>2019-04-28T13:18:04Z</time>
      </trkpt>
      <trkpt lat="40.4054720" lon="-3.9444620">
        <ele>611.2</ele>
        <time>2019-04-28T13:18:05Z</time>
      </trkpt>
      <trkpt lat="40.4054290" lon="-3.9444170">
        <ele>611.6</ele>
        <time>2019-04-28T13:18:06Z</time>
      </trkpt>
      <trkpt lat="40.4053930" lon="-3.9443680">
        <ele>611.4</ele>
        <time>2019-04-28T13:18:07Z</time>
      </trkpt>
      <trkpt lat="40.4053600" lon="-3.9443190">
        <ele>611.4</ele>
        <time>2019-04-28T13:18:08Z</time>
      </trkpt>
      <trkpt lat="40.4053350" lon="-3.9442670">
        <ele>611.6</ele>
        <time>2019-04-28T13:18:09Z</time>
      </trkpt>
      <trkpt lat="40.4053140" lon="-3.9442030">
        <ele>611.8</ele>
        <time>2019-04-28T13:18:10Z</time>
      </trkpt>
      <trkpt lat="40.4052960" lon="-3.9441520">
        <ele>612.0</ele>
        <time>2019-04-28T13:18:11Z</time>
      </trkpt>
      <trkpt lat="40.4052720" lon="-3.9441010">
        <ele>612.2</ele>
        <time>2019-04-28T13:18:12Z</time>
      </trkpt>
      <trkpt lat="40.4052440" lon="-3.9440480">
        <ele>612.2</ele>
        <time>2019-04-28T13:18:13Z</time>
      </trkpt>
      <trkpt lat="40.4052150" lon="-3.9439960">
        <ele>612.4</ele>
        <time>2019-04-28T13:18:14Z</time>
      </trkpt>
      <trkpt lat="40.4051900" lon="-3.9439510">
        <ele>612.6</ele>
        <time>2019-04-28T13:18:15Z</time>
      </trkpt>
      <trkpt lat="40.4051650" lon="-3.9439040">
        <ele>613.0</ele>
        <time>2019-04-28T13:18:16Z</time>
      </trkpt>
      <trkpt lat="40.4051420" lon="-3.9438660">
        <ele>613.6</ele>
        <time>2019-04-28T13:18:17Z</time>
      </trkpt>
      <trkpt lat="40.4051120" lon="-3.9438340">
        <ele>613.8</ele>
        <time>2019-04-28T13:18:18Z</time>
      </trkpt>
      <trkpt lat="40.4050800" lon="-3.9438120">
        <ele>614.0</ele>
        <time>2019-04-28T13:18:19Z</time>
      </trkpt>
      <trkpt lat="40.4050450" lon="-3.9437950">
        <ele>614.8</ele>
        <time>2019-04-28T13:18:20Z</time>
      </trkpt>
      <trkpt lat="40.4050150" lon="-3.9437790">
        <ele>615.2</ele>
        <time>2019-04-28T13:18:21Z</time>
      </trkpt>
      <trkpt lat="40.4049820" lon="-3.9437560">
        <ele>615.4</ele>
        <time>2019-04-28T13:18:22Z</time>
      </trkpt>
      <trkpt lat="40.4049490" lon="-3.9437320">
        <ele>615.6</ele>
        <time>2019-04-28T13:18:23Z</time>
      </trkpt>
      <trkpt lat="40.4049090" lon="-3.9437020">
        <ele>615.6</ele>
        <time>2019-04-28T13:18:24Z</time>
      </trkpt>
      <trkpt lat="40.4048700" lon="-3.9436800">
        <ele>615.6</ele>
        <time>2019-04-28T13:18:25Z</time>
      </trkpt>
      <trkpt lat="40.4048280" lon="-3.9436560">
        <ele>615.4</ele>
        <time>2019-04-28T13:18:26Z</time>
      </trkpt>
      <trkpt lat="40.4047830" lon="-3.9436420">
        <ele>615.4</ele>
        <time>2019-04-28T13:18:27Z</time>
      </trkpt>
      <trkpt lat="40.4047340" lon="-3.9436350">
        <ele>615.2</ele>
        <time>2019-04-28T13:18:28Z</time>
      </trkpt>
      <trkpt lat="40.4046840" lon="-3.9436410">
        <ele>615.0</ele>
        <time>2019-04-28T13:18:29Z</time>
      </trkpt>
      <trkpt lat="40.4046330" lon="-3.9436550">
        <ele>615.0</ele>
        <time>2019-04-28T13:18:30Z</time>
      </trkpt>
      <trkpt lat="40.4045780" lon="-3.9436700">
        <ele>614.8</ele>
        <time>2019-04-28T13:18:31Z</time>
      </trkpt>
      <trkpt lat="40.4045180" lon="-3.9436890">
        <ele>614.4</ele>
        <time>2019-04-28T13:18:32Z</time>
      </trkpt>
      <trkpt lat="40.4044690" lon="-3.9437130">
        <ele>614.4</ele>
        <time>2019-04-28T13:18:33Z</time>
      </trkpt>
      <trkpt lat="40.4044140" lon="-3.9437270">
        <ele>614.2</ele>
        <time>2019-04-28T13:18:34Z</time>
      </trkpt>
      <trkpt lat="40.4043550" lon="-3.9437230">
        <ele>614.0</ele>
        <time>2019-04-28T13:18:35Z</time>
      </trkpt>
      <trkpt lat="40.4043070" lon="-3.9437020">
        <ele>614.0</ele>
        <time>2019-04-28T13:18:36Z</time>
      </trkpt>
      <trkpt lat="40.4042570" lon="-3.9436690">
        <ele>614.0</ele>
        <time>2019-04-28T13:18:37Z</time>
      </trkpt>
      <trkpt lat="40.4042050" lon="-3.9436500">
        <ele>613.8</ele>
        <time>2019-04-28T13:18:38Z</time>
      </trkpt>
      <trkpt lat="40.4041540" lon="-3.9436510">
        <ele>613.6</ele>
        <time>2019-04-28T13:18:39Z</time>
      </trkpt>
      <trkpt lat="40.4041130" lon="-3.9436730">
        <ele>613.4</ele>
        <time>2019-04-28T13:18:40Z</time>
      </trkpt>
      <trkpt lat="40.4040820" lon="-3.9436850">
        <ele>613.4</ele>
        <time>2019-04-28T13:18:41Z</time>
      </trkpt>
      <trkpt lat="40.4040390" lon="-3.9437020">
        <ele>613.0</ele>
        <time>2019-04-28T13:18:42Z</time>
      </trkpt>
      <trkpt lat="40.4039910" lon="-3.9437320">
        <ele>612.8</ele>
        <time>2019-04-28T13:18:43Z</time>
      </trkpt>
      <trkpt lat="40.4039390" lon="-3.9437420">
        <ele>612.6</ele>
        <time>2019-04-28T13:18:44Z</time>
      </trkpt>
      <trkpt lat="40.4038760" lon="-3.9437450">
        <ele>612.6</ele>
        <time>2019-04-28T13:18:45Z</time>
      </trkpt>
      <trkpt lat="40.4038140" lon="-3.9437530">
        <ele>612.4</ele>
        <time>2019-04-28T13:18:46Z</time>
      </trkpt>
      <trkpt lat="40.4037560" lon="-3.9437700">
        <ele>612.2</ele>
        <time>2019-04-28T13:18:47Z</time>
      </trkpt>
      <trkpt lat="40.4036950" lon="-3.9437810">
        <ele>612.2</ele>
        <time>2019-04-28T13:18:48Z</time>
      </trkpt>
      <trkpt lat="40.4036430" lon="-3.9438000">
        <ele>612.0</ele>
        <time>2019-04-28T13:18:49Z</time>
      </trkpt>
      <trkpt lat="40.4035790" lon="-3.9438100">
        <ele>611.8</ele>
        <time>2019-04-28T13:18:50Z</time>
      </trkpt>
      <trkpt lat="40.4035190" lon="-3.9438260">
        <ele>611.6</ele>
        <time>2019-04-28T13:18:51Z</time>
      </trkpt>
      <trkpt lat="40.4034580" lon="-3.9438490">
        <ele>611.6</ele>
        <time>2019-04-28T13:18:52Z</time>
      </trkpt>
      <trkpt lat="40.4034090" lon="-3.9438620">
        <ele>611.6</ele>
        <time>2019-04-28T13:18:53Z</time>
      </trkpt>
      <trkpt lat="40.4033600" lon="-3.9438780">
        <ele>611.6</ele>
        <time>2019-04-28T13:18:54Z</time>
      </trkpt>
      <trkpt lat="40.4033040" lon="-3.9438970">
        <ele>611.6</ele>
        <time>2019-04-28T13:18:55Z</time>
      </trkpt>
      <trkpt lat="40.4032590" lon="-3.9439100">
        <ele>611.6</ele>
        <time>2019-04-28T13:18:56Z</time>
      </trkpt>
      <trkpt lat="40.4032110" lon="-3.9439110">
        <ele>611.6</ele>
        <time>2019-04-28T13:18:57Z</time>
      </trkpt>
      <trkpt lat="40.4031600" lon="-3.9439210">
        <ele>611.6</ele>
        <time>2019-04-28T13:18:58Z</time>
      </trkpt>
      <trkpt lat="40.4031220" lon="-3.9439380">
        <ele>611.4</ele>
        <time>2019-04-28T13:18:59Z</time>
      </trkpt>
      <trkpt lat="40.4030840" lon="-3.9439600">
        <ele>611.6</ele>
        <time>2019-04-28T13:19:00Z</time>
      </trkpt>
      <trkpt lat="40.4030470" lon="-3.9439790">
        <ele>611.6</ele>
        <time>2019-04-28T13:19:01Z</time>
      </trkpt>
      <trkpt lat="40.4030170" lon="-3.9440010">
        <ele>611.6</ele>
        <time>2019-04-28T13:19:02Z</time>
      </trkpt>
      <trkpt lat="40.4029890" lon="-3.9440140">
        <ele>611.4</ele>
        <time>2019-04-28T13:19:03Z</time>
      </trkpt>
      <trkpt lat="40.4029550" lon="-3.9440310">
        <ele>611.0</ele>
        <time>2019-04-28T13:19:04Z</time>
      </trkpt>
      <trkpt lat="40.4028730" lon="-3.9440480">
        <ele>610.8</ele>
        <time>2019-04-28T13:19:05Z</time>
      </trkpt>
      <trkpt lat="40.4028240" lon="-3.9440910">
        <ele>610.2</ele>
        <time>2019-04-28T13:19:06Z</time>
      </trkpt>
      <trkpt lat="40.4027640" lon="-3.9441450">
        <ele>610.0</ele>
        <time>2019-04-28T13:19:07Z</time>
      </trkpt>
      <trkpt lat="40.4027160" lon="-3.9442120">
        <ele>609.4</ele>
        <time>2019-04-28T13:19:08Z</time>
      </trkpt>
      <trkpt lat="40.4026630" lon="-3.9442750">
        <ele>609.2</ele>
        <time>2019-04-28T13:19:09Z</time>
      </trkpt>
      <trkpt lat="40.4026030" lon="-3.9443320">
        <ele>609.0</ele>
        <time>2019-04-28T13:19:10Z</time>
      </trkpt>
      <trkpt lat="40.4025470" lon="-3.9443770">
        <ele>608.8</ele>
        <time>2019-04-28T13:19:11Z</time>
      </trkpt>
      <trkpt lat="40.4024980" lon="-3.9444110">
        <ele>608.6</ele>
        <time>2019-04-28T13:19:12Z</time>
      </trkpt>
      <trkpt lat="40.4024590" lon="-3.9444560">
        <ele>608.8</ele>
        <time>2019-04-28T13:19:13Z</time>
      </trkpt>
      <trkpt lat="40.4024350" lon="-3.9444890">
        <ele>608.8</ele>
        <time>2019-04-28T13:19:14Z</time>
      </trkpt>
      <trkpt lat="40.4024170" lon="-3.9444970">
        <ele>609.2</ele>
        <time>2019-04-28T13:19:15Z</time>
      </trkpt>
      <trkpt lat="40.4023960" lon="-3.9444900">
        <ele>609.2</ele>
        <time>2019-04-28T13:19:16Z</time>
      </trkpt>
      <trkpt lat="40.4023670" lon="-3.9444670">
        <ele>609.0</ele>
        <time>2019-04-28T13:19:17Z</time>
      </trkpt>
      <trkpt lat="40.4023300" lon="-3.9444200">
        <ele>609.2</ele>
        <time>2019-04-28T13:19:18Z</time>
      </trkpt>
      <trkpt lat="40.4023270" lon="-3.9443680">
        <ele>609.2</ele>
        <time>2019-04-28T13:19:19Z</time>
      </trkpt>
      <trkpt lat="40.4023100" lon="-3.9443170">
        <ele>609.2</ele>
        <time>2019-04-28T13:19:20Z</time>
      </trkpt>
      <trkpt lat="40.4022640" lon="-3.9442650">
        <ele>609.2</ele>
        <time>2019-04-28T13:19:21Z</time>
      </trkpt>
      <trkpt lat="40.4022100" lon="-3.9442360">
        <ele>609.8</ele>
        <time>2019-04-28T13:19:22Z</time>
      </trkpt>
      <trkpt lat="40.4021530" lon="-3.9442280">
        <ele>610.2</ele>
        <time>2019-04-28T13:19:23Z</time>
      </trkpt>
      <trkpt lat="40.4021040" lon="-3.9442180">
        <ele>610.4</ele>
        <time>2019-04-28T13:19:24Z</time>
      </trkpt>
      <trkpt lat="40.4020620" lon="-3.9441930">
        <ele>610.4</ele>
        <time>2019-04-28T13:19:25Z</time>
      </trkpt>
      <trkpt lat="40.4020060" lon="-3.9441550">
        <ele>610.6</ele>
        <time>2019-04-28T13:19:26Z</time>
      </trkpt>
      <trkpt lat="40.4019510" lon="-3.9441260">
        <ele>610.6</ele>
        <time>2019-04-28T13:19:27Z</time>
      </trkpt>
      <trkpt lat="40.4018930" lon="-3.9441080">
        <ele>610.8</ele>
        <time>2019-04-28T13:19:28Z</time>
      </trkpt>
      <trkpt lat="40.4018330" lon="-3.9440910">
        <ele>610.4</ele>
        <time>2019-04-28T13:19:29Z</time>
      </trkpt>
      <trkpt lat="40.4017780" lon="-3.9440740">
        <ele>610.6</ele>
        <time>2019-04-28T13:19:30Z</time>
      </trkpt>
      <trkpt lat="40.4017200" lon="-3.9440550">
        <ele>610.6</ele>
        <time>2019-04-28T13:19:31Z</time>
      </trkpt>
      <trkpt lat="40.4016570" lon="-3.9440340">
        <ele>610.4</ele>
        <time>2019-04-28T13:19:32Z</time>
      </trkpt>
      <trkpt lat="40.4015980" lon="-3.9440160">
        <ele>610.2</ele>
        <time>2019-04-28T13:19:33Z</time>
      </trkpt>
      <trkpt lat="40.4015360" lon="-3.9439940">
        <ele>610.2</ele>
        <time>2019-04-28T13:19:34Z</time>
      </trkpt>
      <trkpt lat="40.4014720" lon="-3.9439750">
        <ele>610.2</ele>
        <time>2019-04-28T13:19:35Z</time>
      </trkpt>
      <trkpt lat="40.4014080" lon="-3.9439630">
        <ele>610.2</ele>
        <time>2019-04-28T13:19:36Z</time>
      </trkpt>
      <trkpt lat="40.4013440" lon="-3.9439480">
        <ele>610.2</ele>
        <time>2019-04-28T13:19:37Z</time>
      </trkpt>
      <trkpt lat="40.4012810" lon="-3.9439250">
        <ele>610.2</ele>
        <time>2019-04-28T13:19:38Z</time>
      </trkpt>
      <trkpt lat="40.4012180" lon="-3.9439020">
        <ele>610.0</ele>
        <time>2019-04-28T13:19:39Z</time>
      </trkpt>
      <trkpt lat="40.4011530" lon="-3.9438830">
        <ele>610.0</ele>
        <time>2019-04-28T13:19:40Z</time>
      </trkpt>
      <trkpt lat="40.4010870" lon="-3.9438740">
        <ele>609.8</ele>
        <time>2019-04-28T13:19:41Z</time>
      </trkpt>
      <trkpt lat="40.4010220" lon="-3.9438710">
        <ele>609.8</ele>
        <time>2019-04-28T13:19:42Z</time>
      </trkpt>
      <trkpt lat="40.4009560" lon="-3.9438730">
        <ele>609.8</ele>
        <time>2019-04-28T13:19:43Z</time>
      </trkpt>
      <trkpt lat="40.4008880" lon="-3.9438860">
        <ele>609.8</ele>
        <time>2019-04-28T13:19:44Z</time>
      </trkpt>
      <trkpt lat="40.4008270" lon="-3.9439000">
        <ele>609.8</ele>
        <time>2019-04-28T13:19:45Z</time>
      </trkpt>
      <trkpt lat="40.4007590" lon="-3.9439050">
        <ele>609.8</ele>
        <time>2019-04-28T13:19:46Z</time>
      </trkpt>
      <trkpt lat="40.4006920" lon="-3.9439000">
        <ele>609.4</ele>
        <time>2019-04-28T13:19:47Z</time>
      </trkpt>
      <trkpt lat="40.4006360" lon="-3.9438910">
        <ele>609.4</ele>
        <time>2019-04-28T13:19:48Z</time>
      </trkpt>
      <trkpt lat="40.4005770" lon="-3.9438890">
        <ele>609.2</ele>
        <time>2019-04-28T13:19:49Z</time>
      </trkpt>
      <trkpt lat="40.4005240" lon="-3.9438930">
        <ele>609.0</ele>
        <time>2019-04-28T13:19:50Z</time>
      </trkpt>
      <trkpt lat="40.4004750" lon="-3.9439020">
        <ele>608.6</ele>
        <time>2019-04-28T13:19:51Z</time>
      </trkpt>
      <trkpt lat="40.4004430" lon="-3.9439030">
        <ele>608.6</ele>
        <time>2019-04-28T13:19:52Z</time>
      </trkpt>
      <trkpt lat="40.4004030" lon="-3.9438920">
        <ele>608.4</ele>
        <time>2019-04-28T13:19:53Z</time>
      </trkpt>
      <trkpt lat="40.4003790" lon="-3.9438690">
        <ele>608.4</ele>
        <time>2019-04-28T13:19:54Z</time>
      </trkpt>
      <trkpt lat="40.4003320" lon="-3.9438350">
        <ele>608.4</ele>
        <time>2019-04-28T13:19:55Z</time>
      </trkpt>
      <trkpt lat="40.4002780" lon="-3.9437990">
        <ele>608.4</ele>
        <time>2019-04-28T13:19:56Z</time>
      </trkpt>
      <trkpt lat="40.4002210" lon="-3.9437820">
        <ele>608.6</ele>
        <time>2019-04-28T13:19:57Z</time>
      </trkpt>
      <trkpt lat="40.4001640" lon="-3.9437830">
        <ele>608.6</ele>
        <time>2019-04-28T13:19:58Z</time>
      </trkpt>
      <trkpt lat="40.4001060" lon="-3.9437860">
        <ele>608.6</ele>
        <time>2019-04-28T13:19:59Z</time>
      </trkpt>
      <trkpt lat="40.4000480" lon="-3.9437800">
        <ele>608.8</ele>
        <time>2019-04-28T13:20:00Z</time>
      </trkpt>
      <trkpt lat="40.3999890" lon="-3.9437730">
        <ele>609.0</ele>
        <time>2019-04-28T13:20:01Z</time>
      </trkpt>
      <trkpt lat="40.3999300" lon="-3.9437600">
        <ele>609.0</ele>
        <time>2019-04-28T13:20:02Z</time>
      </trkpt>
      <trkpt lat="40.3998670" lon="-3.9437420">
        <ele>609.0</ele>
        <time>2019-04-28T13:20:03Z</time>
      </trkpt>
      <trkpt lat="40.3998120" lon="-3.9437290">
        <ele>608.6</ele>
        <time>2019-04-28T13:20:04Z</time>
      </trkpt>
      <trkpt lat="40.3997540" lon="-3.9437110">
        <ele>608.4</ele>
        <time>2019-04-28T13:20:05Z</time>
      </trkpt>
      <trkpt lat="40.3996920" lon="-3.9436950">
        <ele>608.2</ele>
        <time>2019-04-28T13:20:06Z</time>
      </trkpt>
      <trkpt lat="40.3996330" lon="-3.9436810">
        <ele>608.6</ele>
        <time>2019-04-28T13:20:07Z</time>
      </trkpt>
      <trkpt lat="40.3995880" lon="-3.9436640">
        <ele>608.8</ele>
        <time>2019-04-28T13:20:08Z</time>
      </trkpt>
      <trkpt lat="40.3995470" lon="-3.9436350">
        <ele>609.0</ele>
        <time>2019-04-28T13:20:09Z</time>
      </trkpt>
      <trkpt lat="40.3995000" lon="-3.9435880">
        <ele>609.0</ele>
        <time>2019-04-28T13:20:10Z</time>
      </trkpt>
      <trkpt lat="40.3994600" lon="-3.9435350">
        <ele>608.8</ele>
        <time>2019-04-28T13:20:11Z</time>
      </trkpt>
      <trkpt lat="40.3994280" lon="-3.9434760">
        <ele>609.0</ele>
        <time>2019-04-28T13:20:12Z</time>
      </trkpt>
      <trkpt lat="40.3993860" lon="-3.9434320">
        <ele>608.8</ele>
        <time>2019-04-28T13:20:13Z</time>
      </trkpt>
      <trkpt lat="40.3993280" lon="-3.9434080">
        <ele>608.8</ele>
        <time>2019-04-28T13:20:14Z</time>
      </trkpt>
      <trkpt lat="40.3992730" lon="-3.9434140">
        <ele>608.8</ele>
        <time>2019-04-28T13:20:15Z</time>
      </trkpt>
      <trkpt lat="40.3992280" lon="-3.9434290">
        <ele>609.2</ele>
        <time>2019-04-28T13:20:16Z</time>
      </trkpt>
      <trkpt lat="40.3991830" lon="-3.9434410">
        <ele>609.0</ele>
        <time>2019-04-28T13:20:17Z</time>
      </trkpt>
      <trkpt lat="40.3991400" lon="-3.9434420">
        <ele>608.6</ele>
        <time>2019-04-28T13:20:18Z</time>
      </trkpt>
      <trkpt lat="40.3990770" lon="-3.9434360">
        <ele>608.6</ele>
        <time>2019-04-28T13:20:19Z</time>
      </trkpt>
      <trkpt lat="40.3990230" lon="-3.9434130">
        <ele>608.6</ele>
        <time>2019-04-28T13:20:20Z</time>
      </trkpt>
      <trkpt lat="40.3989720" lon="-3.9433710">
        <ele>608.6</ele>
        <time>2019-04-28T13:20:21Z</time>
      </trkpt>
      <trkpt lat="40.3989330" lon="-3.9433260">
        <ele>608.8</ele>
        <time>2019-04-28T13:20:22Z</time>
      </trkpt>
      <trkpt lat="40.3988970" lon="-3.9432890">
        <ele>608.8</ele>
        <time>2019-04-28T13:20:23Z</time>
      </trkpt>
      <trkpt lat="40.3988530" lon="-3.9432870">
        <ele>609.0</ele>
        <time>2019-04-28T13:20:24Z</time>
      </trkpt>
      <trkpt lat="40.3988230" lon="-3.9433120">
        <ele>608.8</ele>
        <time>2019-04-28T13:20:25Z</time>
      </trkpt>
      <trkpt lat="40.3987810" lon="-3.9433350">
        <ele>608.8</ele>
        <time>2019-04-28T13:20:26Z</time>
      </trkpt>
      <trkpt lat="40.3987370" lon="-3.9433660">
        <ele>608.8</ele>
        <time>2019-04-28T13:20:27Z</time>
      </trkpt>
      <trkpt lat="40.3986920" lon="-3.9433850">
        <ele>608.8</ele>
        <time>2019-04-28T13:20:28Z</time>
      </trkpt>
      <trkpt lat="40.3986350" lon="-3.9433870">
        <ele>608.8</ele>
        <time>2019-04-28T13:20:29Z</time>
      </trkpt>
      <trkpt lat="40.3985850" lon="-3.9433820">
        <ele>608.8</ele>
        <time>2019-04-28T13:20:30Z</time>
      </trkpt>
      <trkpt lat="40.3985300" lon="-3.9433820">
        <ele>608.6</ele>
        <time>2019-04-28T13:20:31Z</time>
      </trkpt>
      <trkpt lat="40.3984710" lon="-3.9433760">
        <ele>608.6</ele>
        <time>2019-04-28T13:20:32Z</time>
      </trkpt>
      <trkpt lat="40.3984080" lon="-3.9433740">
        <ele>608.6</ele>
        <time>2019-04-28T13:20:33Z</time>
      </trkpt>
      <trkpt lat="40.3983450" lon="-3.9433750">
        <ele>608.4</ele>
        <time>2019-04-28T13:20:34Z</time>
      </trkpt>
      <trkpt lat="40.3982840" lon="-3.9433760">
        <ele>608.4</ele>
        <time>2019-04-28T13:20:35Z</time>
      </trkpt>
      <trkpt lat="40.3982220" lon="-3.9433850">
        <ele>608.8</ele>
        <time>2019-04-28T13:20:36Z</time>
      </trkpt>
      <trkpt lat="40.3981740" lon="-3.9433900">
        <ele>609.0</ele>
        <time>2019-04-28T13:20:37Z</time>
      </trkpt>
      <trkpt lat="40.3981390" lon="-3.9434030">
        <ele>608.8</ele>
        <time>2019-04-28T13:20:38Z</time>
      </trkpt>
      <trkpt lat="40.3980900" lon="-3.9434190">
        <ele>608.8</ele>
        <time>2019-04-28T13:20:39Z</time>
      </trkpt>
      <trkpt lat="40.3980400" lon="-3.9434300">
        <ele>609.0</ele>
        <time>2019-04-28T13:20:40Z</time>
      </trkpt>
      <trkpt lat="40.3979970" lon="-3.9434420">
        <ele>609.4</ele>
        <time>2019-04-28T13:20:41Z</time>
      </trkpt>
      <trkpt lat="40.3979560" lon="-3.9434530">
        <ele>609.6</ele>
        <time>2019-04-28T13:20:42Z</time>
      </trkpt>
      <trkpt lat="40.3979140" lon="-3.9434590">
        <ele>609.4</ele>
        <time>2019-04-28T13:20:43Z</time>
      </trkpt>
      <trkpt lat="40.3978680" lon="-3.9434590">
        <ele>609.2</ele>
        <time>2019-04-28T13:20:44Z</time>
      </trkpt>
      <trkpt lat="40.3978360" lon="-3.9434560">
        <ele>609.0</ele>
        <time>2019-04-28T13:20:45Z</time>
      </trkpt>
      <trkpt lat="40.3977950" lon="-3.9434350">
        <ele>609.0</ele>
        <time>2019-04-28T13:20:46Z</time>
      </trkpt>
      <trkpt lat="40.3977620" lon="-3.9434160">
        <ele>608.6</ele>
        <time>2019-04-28T13:20:47Z</time>
      </trkpt>
      <trkpt lat="40.3977410" lon="-3.9434150">
        <ele>608.4</ele>
        <time>2019-04-28T13:20:48Z</time>
      </trkpt>
      <trkpt lat="40.3977090" lon="-3.9434150">
        <ele>608.2</ele>
        <time>2019-04-28T13:20:49Z</time>
      </trkpt>
      <trkpt lat="40.3976770" lon="-3.9434260">
        <ele>608.0</ele>
        <time>2019-04-28T13:20:50Z</time>
      </trkpt>
      <trkpt lat="40.3976470" lon="-3.9434370">
        <ele>607.6</ele>
        <time>2019-04-28T13:20:51Z</time>
      </trkpt>
      <trkpt lat="40.3975980" lon="-3.9434310">
        <ele>607.6</ele>
        <time>2019-04-28T13:20:52Z</time>
      </trkpt>
      <trkpt lat="40.3975480" lon="-3.9434180">
        <ele>607.8</ele>
        <time>2019-04-28T13:20:53Z</time>
      </trkpt>
      <trkpt lat="40.3975050" lon="-3.9433960">
        <ele>608.2</ele>
        <time>2019-04-28T13:20:54Z</time>
      </trkpt>
      <trkpt lat="40.3974860" lon="-3.9433720">
        <ele>608.4</ele>
        <time>2019-04-28T13:20:55Z</time>
      </trkpt>
      <trkpt lat="40.3974540" lon="-3.9433590">
        <ele>608.8</ele>
        <time>2019-04-28T13:20:56Z</time>
      </trkpt>
      <trkpt lat="40.3973960" lon="-3.9433410">
        <ele>609.2</ele>
        <time>2019-04-28T13:20:57Z</time>
      </trkpt>
      <trkpt lat="40.3973080" lon="-3.9433070">
        <ele>609.4</ele>
        <time>2019-04-28T13:20:58Z</time>
      </trkpt>
      <trkpt lat="40.3972670" lon="-3.9432940">
        <ele>609.8</ele>
        <time>2019-04-28T13:20:59Z</time>
      </trkpt>
      <trkpt lat="40.3972190" lon="-3.9432790">
        <ele>610.0</ele>
        <time>2019-04-28T13:21:00Z</time>
      </trkpt>
      <trkpt lat="40.3971630" lon="-3.9432600">
        <ele>610.0</ele>
        <time>2019-04-28T13:21:01Z</time>
      </trkpt>
      <trkpt lat="40.3971100" lon="-3.9432410">
        <ele>610.2</ele>
        <time>2019-04-28T13:21:02Z</time>
      </trkpt>
      <trkpt lat="40.3970690" lon="-3.9432340">
        <ele>610.0</ele>
        <time>2019-04-28T13:21:03Z</time>
      </trkpt>
      <trkpt lat="40.3970270" lon="-3.9432400">
        <ele>609.6</ele>
        <time>2019-04-28T13:21:04Z</time>
      </trkpt>
      <trkpt lat="40.3969880" lon="-3.9432540">
        <ele>609.0</ele>
        <time>2019-04-28T13:21:05Z</time>
      </trkpt>
      <trkpt lat="40.3969270" lon="-3.9432690">
        <ele>608.8</ele>
        <time>2019-04-28T13:21:06Z</time>
      </trkpt>
      <trkpt lat="40.3968710" lon="-3.9432850">
        <ele>608.6</ele>
        <time>2019-04-28T13:21:07Z</time>
      </trkpt>
      <trkpt lat="40.3968160" lon="-3.9432990">
        <ele>608.4</ele>
        <time>2019-04-28T13:21:08Z</time>
      </trkpt>
      <trkpt lat="40.3967510" lon="-3.9433080">
        <ele>608.2</ele>
        <time>2019-04-28T13:21:09Z</time>
      </trkpt>
      <trkpt lat="40.3966770" lon="-3.9433100">
        <ele>607.8</ele>
        <time>2019-04-28T13:21:10Z</time>
      </trkpt>
      <trkpt lat="40.3966260" lon="-3.9432970">
        <ele>607.8</ele>
        <time>2019-04-28T13:21:11Z</time>
      </trkpt>
      <trkpt lat="40.3965740" lon="-3.9432700">
        <ele>608.0</ele>
        <time>2019-04-28T13:21:12Z</time>
      </trkpt>
      <trkpt lat="40.3965260" lon="-3.9432570">
        <ele>607.8</ele>
        <time>2019-04-28T13:21:13Z</time>
      </trkpt>
      <trkpt lat="40.3964730" lon="-3.9432410">
        <ele>607.8</ele>
        <time>2019-04-28T13:21:14Z</time>
      </trkpt>
      <trkpt lat="40.3964240" lon="-3.9432160">
        <ele>607.8</ele>
        <time>2019-04-28T13:21:15Z</time>
      </trkpt>
      <trkpt lat="40.3963740" lon="-3.9432030">
        <ele>607.8</ele>
        <time>2019-04-28T13:21:16Z</time>
      </trkpt>
      <trkpt lat="40.3963330" lon="-3.9431980">
        <ele>607.8</ele>
        <time>2019-04-28T13:21:17Z</time>
      </trkpt>
      <trkpt lat="40.3962960" lon="-3.9431950">
        <ele>608.0</ele>
        <time>2019-04-28T13:21:18Z</time>
      </trkpt>
      <trkpt lat="40.3962600" lon="-3.9431910">
        <ele>608.0</ele>
        <time>2019-04-28T13:21:19Z</time>
      </trkpt>
      <trkpt lat="40.3962170" lon="-3.9431890">
        <ele>608.2</ele>
        <time>2019-04-28T13:21:20Z</time>
      </trkpt>
      <trkpt lat="40.3961730" lon="-3.9431870">
        <ele>608.2</ele>
        <time>2019-04-28T13:21:21Z</time>
      </trkpt>
      <trkpt lat="40.3961310" lon="-3.9431850">
        <ele>607.8</ele>
        <time>2019-04-28T13:21:22Z</time>
      </trkpt>
      <trkpt lat="40.3960790" lon="-3.9431730">
        <ele>607.6</ele>
        <time>2019-04-28T13:21:23Z</time>
      </trkpt>
      <trkpt lat="40.3960330" lon="-3.9431640">
        <ele>607.6</ele>
        <time>2019-04-28T13:21:24Z</time>
      </trkpt>
      <trkpt lat="40.3959790" lon="-3.9431600">
        <ele>607.6</ele>
        <time>2019-04-28T13:21:25Z</time>
      </trkpt>
      <trkpt lat="40.3959170" lon="-3.9431510">
        <ele>607.6</ele>
        <time>2019-04-28T13:21:26Z</time>
      </trkpt>
      <trkpt lat="40.3958580" lon="-3.9431600">
        <ele>607.8</ele>
        <time>2019-04-28T13:21:27Z</time>
      </trkpt>
      <trkpt lat="40.3957650" lon="-3.9431680">
        <ele>608.0</ele>
        <time>2019-04-28T13:21:28Z</time>
      </trkpt>
      <trkpt lat="40.3956960" lon="-3.9431890">
        <ele>608.2</ele>
        <time>2019-04-28T13:21:29Z</time>
      </trkpt>
      <trkpt lat="40.3956180" lon="-3.9432080">
        <ele>608.0</ele>
        <time>2019-04-28T13:21:30Z</time>
      </trkpt>
      <trkpt lat="40.3955420" lon="-3.9432320">
        <ele>608.0</ele>
        <time>2019-04-28T13:21:31Z</time>
      </trkpt>
      <trkpt lat="40.3954830" lon="-3.9432480">
        <ele>608.2</ele>
        <time>2019-04-28T13:21:32Z</time>
      </trkpt>
      <trkpt lat="40.3954180" lon="-3.9432550">
        <ele>608.0</ele>
        <time>2019-04-28T13:21:33Z</time>
      </trkpt>
      <trkpt lat="40.3953480" lon="-3.9432590">
        <ele>608.0</ele>
        <time>2019-04-28T13:21:34Z</time>
      </trkpt>
      <trkpt lat="40.3952980" lon="-3.9432620">
        <ele>608.0</ele>
        <time>2019-04-28T13:21:35Z</time>
      </trkpt>
      <trkpt lat="40.3952370" lon="-3.9432680">
        <ele>607.8</ele>
        <time>2019-04-28T13:21:36Z</time>
      </trkpt>
      <trkpt lat="40.3951700" lon="-3.9432670">
        <ele>607.2</ele>
        <time>2019-04-28T13:21:37Z</time>
      </trkpt>
      <trkpt lat="40.3950990" lon="-3.9432650">
        <ele>607.0</ele>
        <time>2019-04-28T13:21:38Z</time>
      </trkpt>
      <trkpt lat="40.3950360" lon="-3.9432690">
        <ele>606.8</ele>
        <time>2019-04-28T13:21:39Z</time>
      </trkpt>
      <trkpt lat="40.3949690" lon="-3.9432840">
        <ele>606.6</ele>
        <time>2019-04-28T13:21:40Z</time>
      </trkpt>
      <trkpt lat="40.3949030" lon="-3.9433080">
        <ele>606.6</ele>
        <time>2019-04-28T13:21:41Z</time>
      </trkpt>
      <trkpt lat="40.3948400" lon="-3.9433340">
        <ele>606.2</ele>
        <time>2019-04-28T13:21:42Z</time>
      </trkpt>
      <trkpt lat="40.3947820" lon="-3.9433590">
        <ele>606.4</ele>
        <time>2019-04-28T13:21:43Z</time>
      </trkpt>
      <trkpt lat="40.3947200" lon="-3.9433810">
        <ele>606.4</ele>
        <time>2019-04-28T13:21:44Z</time>
      </trkpt>
      <trkpt lat="40.3946570" lon="-3.9433870">
        <ele>606.6</ele>
        <time>2019-04-28T13:21:45Z</time>
      </trkpt>
      <trkpt lat="40.3946020" lon="-3.9433870">
        <ele>606.8</ele>
        <time>2019-04-28T13:21:46Z</time>
      </trkpt>
      <trkpt lat="40.3945490" lon="-3.9433950">
        <ele>607.0</ele>
        <time>2019-04-28T13:21:47Z</time>
      </trkpt>
      <trkpt lat="40.3944980" lon="-3.9434110">
        <ele>607.4</ele>
        <time>2019-04-28T13:21:48Z</time>
      </trkpt>
      <trkpt lat="40.3944500" lon="-3.9434320">
        <ele>607.4</ele>
        <time>2019-04-28T13:21:49Z</time>
      </trkpt>
      <trkpt lat="40.3944040" lon="-3.9434560">
        <ele>607.6</ele>
        <time>2019-04-28T13:21:50Z</time>
      </trkpt>
      <trkpt lat="40.3943610" lon="-3.9434830">
        <ele>607.8</ele>
        <time>2019-04-28T13:21:51Z</time>
      </trkpt>
      <trkpt lat="40.3943190" lon="-3.9435090">
        <ele>607.6</ele>
        <time>2019-04-28T13:21:52Z</time>
      </trkpt>
      <trkpt lat="40.3942860" lon="-3.9435410">
        <ele>607.4</ele>
        <time>2019-04-28T13:21:53Z</time>
      </trkpt>
      <trkpt lat="40.3942510" lon="-3.9435690">
        <ele>607.2</ele>
        <time>2019-04-28T13:21:54Z</time>
      </trkpt>
      <trkpt lat="40.3942070" lon="-3.9435950">
        <ele>607.2</ele>
        <time>2019-04-28T13:21:55Z</time>
      </trkpt>
      <trkpt lat="40.3941630" lon="-3.9436180">
        <ele>607.0</ele>
        <time>2019-04-28T13:21:56Z</time>
      </trkpt>
      <trkpt lat="40.3941100" lon="-3.9436380">
        <ele>606.8</ele>
        <time>2019-04-28T13:21:57Z</time>
      </trkpt>
      <trkpt lat="40.3940730" lon="-3.9436580">
        <ele>607.0</ele>
        <time>2019-04-28T13:21:58Z</time>
      </trkpt>
      <trkpt lat="40.3940320" lon="-3.9436850">
        <ele>607.0</ele>
        <time>2019-04-28T13:21:59Z</time>
      </trkpt>
      <trkpt lat="40.3939900" lon="-3.9437180">
        <ele>607.0</ele>
        <time>2019-04-28T13:22:00Z</time>
      </trkpt>
      <trkpt lat="40.3939590" lon="-3.9437430">
        <ele>607.0</ele>
        <time>2019-04-28T13:22:01Z</time>
      </trkpt>
      <trkpt lat="40.3939110" lon="-3.9437730">
        <ele>607.0</ele>
        <time>2019-04-28T13:22:02Z</time>
      </trkpt>
      <trkpt lat="40.3938600" lon="-3.9438020">
        <ele>606.8</ele>
        <time>2019-04-28T13:22:03Z</time>
      </trkpt>
      <trkpt lat="40.3938150" lon="-3.9438230">
        <ele>606.8</ele>
        <time>2019-04-28T13:22:04Z</time>
      </trkpt>
      <trkpt lat="40.3937770" lon="-3.9438540">
        <ele>606.8</ele>
        <time>2019-04-28T13:22:05Z</time>
      </trkpt>
      <trkpt lat="40.3937400" lon="-3.9438850">
        <ele>606.6</ele>
        <time>2019-04-28T13:22:06Z</time>
      </trkpt>
      <trkpt lat="40.3936800" lon="-3.9439150">
        <ele>606.6</ele>
        <time>2019-04-28T13:22:07Z</time>
      </trkpt>
      <trkpt lat="40.3936300" lon="-3.9439510">
        <ele>606.6</ele>
        <time>2019-04-28T13:22:08Z</time>
      </trkpt>
      <trkpt lat="40.3935860" lon="-3.9439880">
        <ele>606.6</ele>
        <time>2019-04-28T13:22:09Z</time>
      </trkpt>
      <trkpt lat="40.3935280" lon="-3.9440200">
        <ele>606.4</ele>
        <time>2019-04-28T13:22:10Z</time>
      </trkpt>
      <trkpt lat="40.3934730" lon="-3.9440510">
        <ele>606.2</ele>
        <time>2019-04-28T13:22:11Z</time>
      </trkpt>
      <trkpt lat="40.3934220" lon="-3.9440870">
        <ele>606.2</ele>
        <time>2019-04-28T13:22:12Z</time>
      </trkpt>
      <trkpt lat="40.3933760" lon="-3.9441230">
        <ele>606.4</ele>
        <time>2019-04-28T13:22:13Z</time>
      </trkpt>
      <trkpt lat="40.3933260" lon="-3.9441390">
        <ele>606.2</ele>
        <time>2019-04-28T13:22:14Z</time>
      </trkpt>
      <trkpt lat="40.3932880" lon="-3.9441610">
        <ele>606.2</ele>
        <time>2019-04-28T13:22:15Z</time>
      </trkpt>
      <trkpt lat="40.3932660" lon="-3.9441820">
        <ele>606.2</ele>
        <time>2019-04-28T13:22:16Z</time>
      </trkpt>
      <trkpt lat="40.3932470" lon="-3.9442040">
        <ele>606.4</ele>
        <time>2019-04-28T13:22:17Z</time>
      </trkpt>
      <trkpt lat="40.3932170" lon="-3.9442220">
        <ele>606.8</ele>
        <time>2019-04-28T13:22:18Z</time>
      </trkpt>
      <trkpt lat="40.3931920" lon="-3.9442400">
        <ele>606.4</ele>
        <time>2019-04-28T13:22:19Z</time>
      </trkpt>
      <trkpt lat="40.3931620" lon="-3.9442680">
        <ele>606.2</ele>
        <time>2019-04-28T13:22:20Z</time>
      </trkpt>
      <trkpt lat="40.3931120" lon="-3.9443060">
        <ele>606.2</ele>
        <time>2019-04-28T13:22:21Z</time>
      </trkpt>
      <trkpt lat="40.3930580" lon="-3.9443430">
        <ele>606.2</ele>
        <time>2019-04-28T13:22:22Z</time>
      </trkpt>
      <trkpt lat="40.3930180" lon="-3.9443890">
        <ele>606.4</ele>
        <time>2019-04-28T13:22:23Z</time>
      </trkpt>
      <trkpt lat="40.3929710" lon="-3.9444350">
        <ele>606.4</ele>
        <time>2019-04-28T13:22:24Z</time>
      </trkpt>
      <trkpt lat="40.3929250" lon="-3.9444760">
        <ele>606.4</ele>
        <time>2019-04-28T13:22:25Z</time>
      </trkpt>
      <trkpt lat="40.3928630" lon="-3.9445190">
        <ele>606.6</ele>
        <time>2019-04-28T13:22:26Z</time>
      </trkpt>
      <trkpt lat="40.3928130" lon="-3.9445600">
        <ele>606.8</ele>
        <time>2019-04-28T13:22:27Z</time>
      </trkpt>
      <trkpt lat="40.3927640" lon="-3.9446030">
        <ele>607.0</ele>
        <time>2019-04-28T13:22:28Z</time>
      </trkpt>
      <trkpt lat="40.3927210" lon="-3.9446390">
        <ele>607.0</ele>
        <time>2019-04-28T13:22:29Z</time>
      </trkpt>
      <trkpt lat="40.3926760" lon="-3.9446750">
        <ele>607.2</ele>
        <time>2019-04-28T13:22:30Z</time>
      </trkpt>
      <trkpt lat="40.3926350" lon="-3.9447180">
        <ele>607.4</ele>
        <time>2019-04-28T13:22:31Z</time>
      </trkpt>
      <trkpt lat="40.3926040" lon="-3.9447690">
        <ele>607.6</ele>
        <time>2019-04-28T13:22:32Z</time>
      </trkpt>
      <trkpt lat="40.3925690" lon="-3.9448230">
        <ele>607.6</ele>
        <time>2019-04-28T13:22:33Z</time>
      </trkpt>
      <trkpt lat="40.3925350" lon="-3.9448720">
        <ele>607.6</ele>
        <time>2019-04-28T13:22:34Z</time>
      </trkpt>
      <trkpt lat="40.3924990" lon="-3.9449210">
        <ele>607.8</ele>
        <time>2019-04-28T13:22:35Z</time>
      </trkpt>
      <trkpt lat="40.3924530" lon="-3.9449750">
        <ele>607.8</ele>
        <time>2019-04-28T13:22:36Z</time>
      </trkpt>
      <trkpt lat="40.3924220" lon="-3.9450230">
        <ele>608.0</ele>
        <time>2019-04-28T13:22:37Z</time>
      </trkpt>
      <trkpt lat="40.3923920" lon="-3.9450750">
        <ele>608.2</ele>
        <time>2019-04-28T13:22:38Z</time>
      </trkpt>
      <trkpt lat="40.3923540" lon="-3.9451280">
        <ele>608.2</ele>
        <time>2019-04-28T13:22:39Z</time>
      </trkpt>
      <trkpt lat="40.3923170" lon="-3.9451680">
        <ele>608.2</ele>
        <time>2019-04-28T13:22:40Z</time>
      </trkpt>
      <trkpt lat="40.3922710" lon="-3.9452030">
        <ele>608.4</ele>
        <time>2019-04-28T13:22:41Z</time>
      </trkpt>
      <trkpt lat="40.3922220" lon="-3.9452350">
        <ele>608.6</ele>
        <time>2019-04-28T13:22:42Z</time>
      </trkpt>
      <trkpt lat="40.3921760" lon="-3.9452530">
        <ele>608.6</ele>
        <time>2019-04-28T13:22:43Z</time>
      </trkpt>
      <trkpt lat="40.3921250" lon="-3.9452600">
        <ele>608.6</ele>
        <time>2019-04-28T13:22:44Z</time>
      </trkpt>
      <trkpt lat="40.3920770" lon="-3.9452550">
        <ele>609.0</ele>
        <time>2019-04-28T13:22:45Z</time>
      </trkpt>
      <trkpt lat="40.3920410" lon="-3.9452420">
        <ele>609.2</ele>
        <time>2019-04-28T13:22:46Z</time>
      </trkpt>
      <trkpt lat="40.3920070" lon="-3.9452410">
        <ele>609.6</ele>
        <time>2019-04-28T13:22:47Z</time>
      </trkpt>
      <trkpt lat="40.3919720" lon="-3.9452300">
        <ele>609.4</ele>
        <time>2019-04-28T13:22:48Z</time>
      </trkpt>
      <trkpt lat="40.3919610" lon="-3.9452010">
        <ele>609.2</ele>
        <time>2019-04-28T13:22:49Z</time>
      </trkpt>
      <trkpt lat="40.3919180" lon="-3.9451600">
        <ele>609.2</ele>
        <time>2019-04-28T13:22:50Z</time>
      </trkpt>
      <trkpt lat="40.3918740" lon="-3.9451140">
        <ele>609.4</ele>
        <time>2019-04-28T13:22:51Z</time>
      </trkpt>
      <trkpt lat="40.3918360" lon="-3.9450450">
        <ele>609.4</ele>
        <time>2019-04-28T13:22:52Z</time>
      </trkpt>
      <trkpt lat="40.3918150" lon="-3.9449800">
        <ele>609.6</ele>
        <time>2019-04-28T13:22:53Z</time>
      </trkpt>
      <trkpt lat="40.3917840" lon="-3.9449170">
        <ele>609.6</ele>
        <time>2019-04-28T13:22:54Z</time>
      </trkpt>
      <trkpt lat="40.3917570" lon="-3.9448580">
        <ele>609.8</ele>
        <time>2019-04-28T13:22:55Z</time>
      </trkpt>
      <trkpt lat="40.3917170" lon="-3.9447540">
        <ele>609.8</ele>
        <time>2019-04-28T13:22:56Z</time>
      </trkpt>
      <trkpt lat="40.3917170" lon="-3.9447540">
        <ele>609.6</ele>
        <time>2019-04-28T13:22:57Z</time>
      </trkpt>
      <trkpt lat="40.3916970" lon="-3.9447180">
        <ele>609.6</ele>
        <time>2019-04-28T13:22:58Z</time>
      </trkpt>
      <trkpt lat="40.3916690" lon="-3.9446840">
        <ele>609.6</ele>
        <time>2019-04-28T13:22:59Z</time>
      </trkpt>
      <trkpt lat="40.3916430" lon="-3.9446390">
        <ele>609.6</ele>
        <time>2019-04-28T13:23:00Z</time>
      </trkpt>
      <trkpt lat="40.3916000" lon="-3.9445430">
        <ele>609.6</ele>
        <time>2019-04-28T13:23:01Z</time>
      </trkpt>
      <trkpt lat="40.3915890" lon="-3.9445190">
        <ele>609.8</ele>
        <time>2019-04-28T13:23:02Z</time>
      </trkpt>
      <trkpt lat="40.3915770" lon="-3.9444960">
        <ele>609.8</ele>
        <time>2019-04-28T13:23:03Z</time>
      </trkpt>
      <trkpt lat="40.3915590" lon="-3.9444510">
        <ele>609.6</ele>
        <time>2019-04-28T13:23:04Z</time>
      </trkpt>
      <trkpt lat="40.3914890" lon="-3.9443440">
        <ele>609.6</ele>
        <time>2019-04-28T13:23:05Z</time>
      </trkpt>
      <trkpt lat="40.3914760" lon="-3.9443160">
        <ele>609.4</ele>
        <time>2019-04-28T13:23:06Z</time>
      </trkpt>
      <trkpt lat="40.3914620" lon="-3.9442880">
        <ele>609.4</ele>
        <time>2019-04-28T13:23:07Z</time>
      </trkpt>
      <trkpt lat="40.3914320" lon="-3.9442420">
        <ele>609.6</ele>
        <time>2019-04-28T13:23:08Z</time>
      </trkpt>
      <trkpt lat="40.3914110" lon="-3.9442100">
        <ele>609.6</ele>
        <time>2019-04-28T13:23:09Z</time>
      </trkpt>
      <trkpt lat="40.3913910" lon="-3.9441730">
        <ele>609.8</ele>
        <time>2019-04-28T13:23:10Z</time>
      </trkpt>
      <trkpt lat="40.3913700" lon="-3.9441300">
        <ele>609.8</ele>
        <time>2019-04-28T13:23:11Z</time>
      </trkpt>
      <trkpt lat="40.3913500" lon="-3.9440800">
        <ele>610.2</ele>
        <time>2019-04-28T13:23:12Z</time>
      </trkpt>
      <trkpt lat="40.3913320" lon="-3.9440330">
        <ele>610.2</ele>
        <time>2019-04-28T13:23:13Z</time>
      </trkpt>
      <trkpt lat="40.3913060" lon="-3.9439810">
        <ele>610.4</ele>
        <time>2019-04-28T13:23:14Z</time>
      </trkpt>
      <trkpt lat="40.3912720" lon="-3.9439380">
        <ele>610.8</ele>
        <time>2019-04-28T13:23:15Z</time>
      </trkpt>
      <trkpt lat="40.3912400" lon="-3.9439150">
        <ele>610.6</ele>
        <time>2019-04-28T13:23:16Z</time>
      </trkpt>
      <trkpt lat="40.3912100" lon="-3.9438910">
        <ele>610.0</ele>
        <time>2019-04-28T13:23:17Z</time>
      </trkpt>
      <trkpt lat="40.3911860" lon="-3.9438690">
        <ele>610.0</ele>
        <time>2019-04-28T13:23:18Z</time>
      </trkpt>
      <trkpt lat="40.3911590" lon="-3.9438230">
        <ele>610.4</ele>
        <time>2019-04-28T13:23:19Z</time>
      </trkpt>
      <trkpt lat="40.3911360" lon="-3.9437880">
        <ele>610.2</ele>
        <time>2019-04-28T13:23:20Z</time>
      </trkpt>
      <trkpt lat="40.3911010" lon="-3.9437490">
        <ele>610.0</ele>
        <time>2019-04-28T13:23:21Z</time>
      </trkpt>
      <trkpt lat="40.3910600" lon="-3.9437110">
        <ele>609.6</ele>
        <time>2019-04-28T13:23:22Z</time>
      </trkpt>
      <trkpt lat="40.3910160" lon="-3.9436760">
        <ele>609.6</ele>
        <time>2019-04-28T13:23:23Z</time>
      </trkpt>
      <trkpt lat="40.3909710" lon="-3.9436390">
        <ele>609.8</ele>
        <time>2019-04-28T13:23:24Z</time>
      </trkpt>
      <trkpt lat="40.3909310" lon="-3.9435990">
        <ele>609.8</ele>
        <time>2019-04-28T13:23:25Z</time>
      </trkpt>
      <trkpt lat="40.3908930" lon="-3.9435740">
        <ele>610.0</ele>
        <time>2019-04-28T13:23:26Z</time>
      </trkpt>
      <trkpt lat="40.3908600" lon="-3.9435460">
        <ele>610.4</ele>
        <time>2019-04-28T13:23:27Z</time>
      </trkpt>
      <trkpt lat="40.3908390" lon="-3.9435260">
        <ele>610.8</ele>
        <time>2019-04-28T13:23:28Z</time>
      </trkpt>
      <trkpt lat="40.3908160" lon="-3.9435060">
        <ele>611.2</ele>
        <time>2019-04-28T13:23:29Z</time>
      </trkpt>
      <trkpt lat="40.3907810" lon="-3.9434840">
        <ele>611.4</ele>
        <time>2019-04-28T13:23:30Z</time>
      </trkpt>
      <trkpt lat="40.3907100" lon="-3.9434420">
        <ele>611.2</ele>
        <time>2019-04-28T13:23:31Z</time>
      </trkpt>
      <trkpt lat="40.3907100" lon="-3.9434420">
        <ele>611.2</ele>
        <time>2019-04-28T13:23:32Z</time>
      </trkpt>
      <trkpt lat="40.3906780" lon="-3.9434260">
        <ele>611.4</ele>
        <time>2019-04-28T13:23:33Z</time>
      </trkpt>
      <trkpt lat="40.3906550" lon="-3.9434180">
        <ele>611.6</ele>
        <time>2019-04-28T13:23:34Z</time>
      </trkpt>
      <trkpt lat="40.3905740" lon="-3.9433920">
        <ele>611.8</ele>
        <time>2019-04-28T13:23:35Z</time>
      </trkpt>
      <trkpt lat="40.3905550" lon="-3.9433840">
        <ele>611.6</ele>
        <time>2019-04-28T13:23:36Z</time>
      </trkpt>
      <trkpt lat="40.3905360" lon="-3.9433760">
        <ele>611.2</ele>
        <time>2019-04-28T13:23:37Z</time>
      </trkpt>
      <trkpt lat="40.3905010" lon="-3.9433570">
        <ele>611.2</ele>
        <time>2019-04-28T13:23:38Z</time>
      </trkpt>
      <trkpt lat="40.3904680" lon="-3.9433270">
        <ele>611.4</ele>
        <time>2019-04-28T13:23:39Z</time>
      </trkpt>
      <trkpt lat="40.3904350" lon="-3.9432400">
        <ele>611.8</ele>
        <time>2019-04-28T13:23:40Z</time>
      </trkpt>
      <trkpt lat="40.3904000" lon="-3.9431950">
        <ele>611.8</ele>
        <time>2019-04-28T13:23:41Z</time>
      </trkpt>
      <trkpt lat="40.3903650" lon="-3.9431510">
        <ele>611.8</ele>
        <time>2019-04-28T13:23:42Z</time>
      </trkpt>
      <trkpt lat="40.3903320" lon="-3.9431170">
        <ele>612.0</ele>
        <time>2019-04-28T13:23:43Z</time>
      </trkpt>
      <trkpt lat="40.3903320" lon="-3.9431170">
        <ele>612.2</ele>
        <time>2019-04-28T13:23:44Z</time>
      </trkpt>
      <trkpt lat="40.3903080" lon="-3.9430870">
        <ele>612.2</ele>
        <time>2019-04-28T13:23:45Z</time>
      </trkpt>
      <trkpt lat="40.3902630" lon="-3.9430440">
        <ele>612.4</ele>
        <time>2019-04-28T13:23:46Z</time>
      </trkpt>
      <trkpt lat="40.3902230" lon="-3.9430060">
        <ele>612.4</ele>
        <time>2019-04-28T13:23:47Z</time>
      </trkpt>
      <trkpt lat="40.3901940" lon="-3.9429930">
        <ele>612.4</ele>
        <time>2019-04-28T13:23:48Z</time>
      </trkpt>
      <trkpt lat="40.3901500" lon="-3.9429380">
        <ele>612.6</ele>
        <time>2019-04-28T13:23:49Z</time>
      </trkpt>
      <trkpt lat="40.3901500" lon="-3.9429380">
        <ele>612.4</ele>
        <time>2019-04-28T13:23:50Z</time>
      </trkpt>
      <trkpt lat="40.3901340" lon="-3.9428990">
        <ele>612.0</ele>
        <time>2019-04-28T13:23:51Z</time>
      </trkpt>
      <trkpt lat="40.3901100" lon="-3.9428560">
        <ele>612.0</ele>
        <time>2019-04-28T13:23:52Z</time>
      </trkpt>
      <trkpt lat="40.3900570" lon="-3.9427770">
        <ele>612.2</ele>
        <time>2019-04-28T13:23:53Z</time>
      </trkpt>
      <trkpt lat="40.3900330" lon="-3.9427430">
        <ele>612.2</ele>
        <time>2019-04-28T13:23:54Z</time>
      </trkpt>
      <trkpt lat="40.3900330" lon="-3.9427430">
        <ele>612.4</ele>
        <time>2019-04-28T13:23:55Z</time>
      </trkpt>
      <trkpt lat="40.3900240" lon="-3.9427040">
        <ele>612.6</ele>
        <time>2019-04-28T13:23:56Z</time>
      </trkpt>
      <trkpt lat="40.3900000" lon="-3.9426340">
        <ele>612.6</ele>
        <time>2019-04-28T13:23:57Z</time>
      </trkpt>
      <trkpt lat="40.3899690" lon="-3.9424980">
        <ele>613.0</ele>
        <time>2019-04-28T13:23:58Z</time>
      </trkpt>
      <trkpt lat="40.3899590" lon="-3.9424490">
        <ele>613.2</ele>
        <time>2019-04-28T13:23:59Z</time>
      </trkpt>
      <trkpt lat="40.3899490" lon="-3.9424010">
        <ele>613.2</ele>
        <time>2019-04-28T13:24:00Z</time>
      </trkpt>
      <trkpt lat="40.3899280" lon="-3.9423050">
        <ele>613.4</ele>
        <time>2019-04-28T13:24:01Z</time>
      </trkpt>
      <trkpt lat="40.3899280" lon="-3.9423050">
        <ele>613.4</ele>
        <time>2019-04-28T13:24:02Z</time>
      </trkpt>
      <trkpt lat="40.3899400" lon="-3.9422630">
        <ele>613.6</ele>
        <time>2019-04-28T13:24:03Z</time>
      </trkpt>
      <trkpt lat="40.3899440" lon="-3.9421730">
        <ele>613.8</ele>
        <time>2019-04-28T13:24:04Z</time>
      </trkpt>
      <trkpt lat="40.3899440" lon="-3.9421730">
        <ele>613.6</ele>
        <time>2019-04-28T13:24:05Z</time>
      </trkpt>
      <trkpt lat="40.3899330" lon="-3.9421330">
        <ele>612.8</ele>
        <time>2019-04-28T13:24:06Z</time>
      </trkpt>
      <trkpt lat="40.3899240" lon="-3.9420240">
        <ele>612.8</ele>
        <time>2019-04-28T13:24:07Z</time>
      </trkpt>
      <trkpt lat="40.3899280" lon="-3.9419770">
        <ele>612.8</ele>
        <time>2019-04-28T13:24:08Z</time>
      </trkpt>
      <trkpt lat="40.3899310" lon="-3.9419300">
        <ele>613.4</ele>
        <time>2019-04-28T13:24:09Z</time>
      </trkpt>
      <trkpt lat="40.3899290" lon="-3.9418690">
        <ele>614.0</ele>
        <time>2019-04-28T13:24:10Z</time>
      </trkpt>
      <trkpt lat="40.3899260" lon="-3.9418090">
        <ele>614.0</ele>
        <time>2019-04-28T13:24:11Z</time>
      </trkpt>
      <trkpt lat="40.3899190" lon="-3.9417720">
        <ele>613.8</ele>
        <time>2019-04-28T13:24:12Z</time>
      </trkpt>
      <trkpt lat="40.3899110" lon="-3.9417360">
        <ele>614.2</ele>
        <time>2019-04-28T13:24:13Z</time>
      </trkpt>
      <trkpt lat="40.3899280" lon="-3.9416320">
        <ele>614.4</ele>
        <time>2019-04-28T13:24:14Z</time>
      </trkpt>
      <trkpt lat="40.3899360" lon="-3.9415660">
        <ele>614.4</ele>
        <time>2019-04-28T13:24:15Z</time>
      </trkpt>
      <trkpt lat="40.3899390" lon="-3.9415060">
        <ele>614.4</ele>
        <time>2019-04-28T13:24:16Z</time>
      </trkpt>
      <trkpt lat="40.3899410" lon="-3.9414780">
        <ele>614.6</ele>
        <time>2019-04-28T13:24:17Z</time>
      </trkpt>
      <trkpt lat="40.3899430" lon="-3.9414500">
        <ele>614.6</ele>
        <time>2019-04-28T13:24:18Z</time>
      </trkpt>
      <trkpt lat="40.3899490" lon="-3.9413910">
        <ele>614.6</ele>
        <time>2019-04-28T13:24:19Z</time>
      </trkpt>
      <trkpt lat="40.3899680" lon="-3.9412800">
        <ele>614.6</ele>
        <time>2019-04-28T13:24:20Z</time>
      </trkpt>
      <trkpt lat="40.3899800" lon="-3.9412210">
        <ele>614.8</ele>
        <time>2019-04-28T13:24:21Z</time>
      </trkpt>
      <trkpt lat="40.3899940" lon="-3.9411610">
        <ele>615.0</ele>
        <time>2019-04-28T13:24:22Z</time>
      </trkpt>
      <trkpt lat="40.3900070" lon="-3.9410990">
        <ele>614.8</ele>
        <time>2019-04-28T13:24:23Z</time>
      </trkpt>
      <trkpt lat="40.3900250" lon="-3.9410470">
        <ele>615.0</ele>
        <time>2019-04-28T13:24:24Z</time>
      </trkpt>
      <trkpt lat="40.3900240" lon="-3.9409950">
        <ele>614.8</ele>
        <time>2019-04-28T13:24:25Z</time>
      </trkpt>
      <trkpt lat="40.3900320" lon="-3.9409620">
        <ele>614.8</ele>
        <time>2019-04-28T13:24:26Z</time>
      </trkpt>
      <trkpt lat="40.3900390" lon="-3.9409290">
        <ele>614.8</ele>
        <time>2019-04-28T13:24:27Z</time>
      </trkpt>
      <trkpt lat="40.3900640" lon="-3.9408760">
        <ele>615.0</ele>
        <time>2019-04-28T13:24:28Z</time>
      </trkpt>
      <trkpt lat="40.3900900" lon="-3.9408460">
        <ele>615.2</ele>
        <time>2019-04-28T13:24:29Z</time>
      </trkpt>
      <trkpt lat="40.3901190" lon="-3.9408180">
        <ele>615.2</ele>
        <time>2019-04-28T13:24:30Z</time>
      </trkpt>
      <trkpt lat="40.3901540" lon="-3.9407870">
        <ele>615.4</ele>
        <time>2019-04-28T13:24:31Z</time>
      </trkpt>
      <trkpt lat="40.3902010" lon="-3.9407330">
        <ele>615.6</ele>
        <time>2019-04-28T13:24:32Z</time>
      </trkpt>
      <trkpt lat="40.3902070" lon="-3.9407070">
        <ele>615.4</ele>
        <time>2019-04-28T13:24:33Z</time>
      </trkpt>
      <trkpt lat="40.3902210" lon="-3.9406790">
        <ele>615.0</ele>
        <time>2019-04-28T13:24:34Z</time>
      </trkpt>
      <trkpt lat="40.3902210" lon="-3.9406790">
        <ele>614.8</ele>
        <time>2019-04-28T13:24:35Z</time>
      </trkpt>
      <trkpt lat="40.3902130" lon="-3.9406610">
        <ele>614.6</ele>
        <time>2019-04-28T13:24:36Z</time>
      </trkpt>
      <trkpt lat="40.3902180" lon="-3.9406400">
        <ele>614.6</ele>
        <time>2019-04-28T13:24:37Z</time>
      </trkpt>
      <trkpt lat="40.3902320" lon="-3.9405860">
        <ele>614.6</ele>
        <time>2019-04-28T13:24:38Z</time>
      </trkpt>
      <trkpt lat="40.3902330" lon="-3.9405500">
        <ele>614.4</ele>
        <time>2019-04-28T13:24:39Z</time>
      </trkpt>
      <trkpt lat="40.3902360" lon="-3.9405220">
        <ele>614.0</ele>
        <time>2019-04-28T13:24:40Z</time>
      </trkpt>
      <trkpt lat="40.3902380" lon="-3.9404930">
        <ele>613.8</ele>
        <time>2019-04-28T13:24:41Z</time>
      </trkpt>
      <trkpt lat="40.3902550" lon="-3.9403830">
        <ele>613.8</ele>
        <time>2019-04-28T13:24:42Z</time>
      </trkpt>
      <trkpt lat="40.3902660" lon="-3.9403310">
        <ele>614.4</ele>
        <time>2019-04-28T13:24:43Z</time>
      </trkpt>
      <trkpt lat="40.3902770" lon="-3.9402780">
        <ele>615.2</ele>
        <time>2019-04-28T13:24:44Z</time>
      </trkpt>
      <trkpt lat="40.3902580" lon="-3.9402370">
        <ele>615.6</ele>
        <time>2019-04-28T13:24:45Z</time>
      </trkpt>
      <trkpt lat="40.3902450" lon="-3.9402010">
        <ele>616.0</ele>
        <time>2019-04-28T13:24:46Z</time>
      </trkpt>
      <trkpt lat="40.3902450" lon="-3.9402010">
        <ele>616.6</ele>
        <time>2019-04-28T13:24:47Z</time>
      </trkpt>
      <trkpt lat="40.3902350" lon="-3.9401640">
        <ele>616.6</ele>
        <time>2019-04-28T13:24:48Z</time>
      </trkpt>
      <trkpt lat="40.3902330" lon="-3.9401030">
        <ele>616.4</ele>
        <time>2019-04-28T13:24:49Z</time>
      </trkpt>
      <trkpt lat="40.3902270" lon="-3.9399740">
        <ele>616.2</ele>
        <time>2019-04-28T13:24:50Z</time>
      </trkpt>
      <trkpt lat="40.3902220" lon="-3.9399170">
        <ele>616.2</ele>
        <time>2019-04-28T13:24:51Z</time>
      </trkpt>
      <trkpt lat="40.3902120" lon="-3.9398720">
        <ele>616.4</ele>
        <time>2019-04-28T13:24:52Z</time>
      </trkpt>
      <trkpt lat="40.3901980" lon="-3.9398390">
        <ele>616.8</ele>
        <time>2019-04-28T13:24:53Z</time>
      </trkpt>
      <trkpt lat="40.3901820" lon="-3.9398200">
        <ele>617.2</ele>
        <time>2019-04-28T13:24:54Z</time>
      </trkpt>
      <trkpt lat="40.3901820" lon="-3.9398200">
        <ele>617.4</ele>
        <time>2019-04-28T13:24:55Z</time>
      </trkpt>
      <trkpt lat="40.3901510" lon="-3.9398120">
        <ele>617.6</ele>
        <time>2019-04-28T13:24:56Z</time>
      </trkpt>
      <trkpt lat="40.3901330" lon="-3.9398180">
        <ele>617.8</ele>
        <time>2019-04-28T13:24:57Z</time>
      </trkpt>
      <trkpt lat="40.3901120" lon="-3.9398300">
        <ele>618.2</ele>
        <time>2019-04-28T13:24:58Z</time>
      </trkpt>
      <trkpt lat="40.3900990" lon="-3.9398420">
        <ele>618.8</ele>
        <time>2019-04-28T13:24:59Z</time>
      </trkpt>
      <trkpt lat="40.3900840" lon="-3.9398550">
        <ele>619.2</ele>
        <time>2019-04-28T13:25:00Z</time>
      </trkpt>
      <trkpt lat="40.3900670" lon="-3.9398640">
        <ele>620.0</ele>
        <time>2019-04-28T13:25:01Z</time>
      </trkpt>
      <trkpt lat="40.3900460" lon="-3.9398740">
        <ele>620.8</ele>
        <time>2019-04-28T13:25:02Z</time>
      </trkpt>
      <trkpt lat="40.3900250" lon="-3.9398830">
        <ele>621.0</ele>
        <time>2019-04-28T13:25:03Z</time>
      </trkpt>
      <trkpt lat="40.3900080" lon="-3.9398950">
        <ele>621.8</ele>
        <time>2019-04-28T13:25:04Z</time>
      </trkpt>
      <trkpt lat="40.3899890" lon="-3.9399080">
        <ele>622.2</ele>
        <time>2019-04-28T13:25:05Z</time>
      </trkpt>
      <trkpt lat="40.3899700" lon="-3.9399200">
        <ele>622.8</ele>
        <time>2019-04-28T13:25:06Z</time>
      </trkpt>
      <trkpt lat="40.3899430" lon="-3.9399320">
        <ele>623.2</ele>
        <time>2019-04-28T13:25:07Z</time>
      </trkpt>
      <trkpt lat="40.3899230" lon="-3.9399480">
        <ele>623.4</ele>
        <time>2019-04-28T13:25:08Z</time>
      </trkpt>
      <trkpt lat="40.3899000" lon="-3.9399490">
        <ele>623.6</ele>
        <time>2019-04-28T13:25:09Z</time>
      </trkpt>
      <trkpt lat="40.3898760" lon="-3.9399500">
        <ele>623.6</ele>
        <time>2019-04-28T13:25:10Z</time>
      </trkpt>
      <trkpt lat="40.3898610" lon="-3.9399420">
        <ele>623.8</ele>
        <time>2019-04-28T13:25:11Z</time>
      </trkpt>
      <trkpt lat="40.3898510" lon="-3.9399320">
        <ele>623.8</ele>
        <time>2019-04-28T13:25:12Z</time>
      </trkpt>
      <trkpt lat="40.3898370" lon="-3.9399170">
        <ele>623.8</ele>
        <time>2019-04-28T13:25:13Z</time>
      </trkpt>
      <trkpt lat="40.3898120" lon="-3.9398930">
        <ele>623.8</ele>
        <time>2019-04-28T13:25:14Z</time>
      </trkpt>
      <trkpt lat="40.3897860" lon="-3.9398690">
        <ele>624.2</ele>
        <time>2019-04-28T13:25:15Z</time>
      </trkpt>
      <trkpt lat="40.3897590" lon="-3.9398510">
        <ele>624.8</ele>
        <time>2019-04-28T13:25:16Z</time>
      </trkpt>
      <trkpt lat="40.3897350" lon="-3.9398450">
        <ele>625.2</ele>
        <time>2019-04-28T13:25:17Z</time>
      </trkpt>
      <trkpt lat="40.3897350" lon="-3.9398450">
        <ele>625.4</ele>
        <time>2019-04-28T13:25:18Z</time>
      </trkpt>
      <trkpt lat="40.3897010" lon="-3.9398610">
        <ele>625.4</ele>
        <time>2019-04-28T13:25:19Z</time>
      </trkpt>
      <trkpt lat="40.3896830" lon="-3.9398740">
        <ele>625.4</ele>
        <time>2019-04-28T13:25:20Z</time>
      </trkpt>
      <trkpt lat="40.3896630" lon="-3.9398840">
        <ele>625.2</ele>
        <time>2019-04-28T13:25:21Z</time>
      </trkpt>
      <trkpt lat="40.3896440" lon="-3.9398950">
        <ele>625.2</ele>
        <time>2019-04-28T13:25:22Z</time>
      </trkpt>
      <trkpt lat="40.3896230" lon="-3.9399080">
        <ele>625.0</ele>
        <time>2019-04-28T13:25:23Z</time>
      </trkpt>
      <trkpt lat="40.3895900" lon="-3.9399250">
        <ele>625.2</ele>
        <time>2019-04-28T13:25:24Z</time>
      </trkpt>
      <trkpt lat="40.3895560" lon="-3.9399410">
        <ele>625.2</ele>
        <time>2019-04-28T13:25:25Z</time>
      </trkpt>
      <trkpt lat="40.3895270" lon="-3.9399510">
        <ele>625.2</ele>
        <time>2019-04-28T13:25:26Z</time>
      </trkpt>
      <trkpt lat="40.3894890" lon="-3.9399630">
        <ele>625.8</ele>
        <time>2019-04-28T13:25:27Z</time>
      </trkpt>
      <trkpt lat="40.3894480" lon="-3.9399760">
        <ele>626.2</ele>
        <time>2019-04-28T13:25:28Z</time>
      </trkpt>
      <trkpt lat="40.3894170" lon="-3.9399860">
        <ele>626.6</ele>
        <time>2019-04-28T13:25:29Z</time>
      </trkpt>
      <trkpt lat="40.3893870" lon="-3.9400000">
        <ele>627.0</ele>
        <time>2019-04-28T13:25:30Z</time>
      </trkpt>
      <trkpt lat="40.3893560" lon="-3.9400130">
        <ele>627.2</ele>
        <time>2019-04-28T13:25:31Z</time>
      </trkpt>
      <trkpt lat="40.3893260" lon="-3.9400200">
        <ele>627.4</ele>
        <time>2019-04-28T13:25:32Z</time>
      </trkpt>
      <trkpt lat="40.3892990" lon="-3.9400290">
        <ele>627.4</ele>
        <time>2019-04-28T13:25:33Z</time>
      </trkpt>
      <trkpt lat="40.3892710" lon="-3.9400460">
        <ele>627.2</ele>
        <time>2019-04-28T13:25:34Z</time>
      </trkpt>
      <trkpt lat="40.3892370" lon="-3.9400790">
        <ele>626.8</ele>
        <time>2019-04-28T13:25:35Z</time>
      </trkpt>
      <trkpt lat="40.3891930" lon="-3.9401170">
        <ele>625.8</ele>
        <time>2019-04-28T13:25:36Z</time>
      </trkpt>
      <trkpt lat="40.3891530" lon="-3.9401400">
        <ele>625.2</ele>
        <time>2019-04-28T13:25:37Z</time>
      </trkpt>
      <trkpt lat="40.3891030" lon="-3.9401590">
        <ele>624.4</ele>
        <time>2019-04-28T13:25:38Z</time>
      </trkpt>
      <trkpt lat="40.3890520" lon="-3.9401710">
        <ele>624.2</ele>
        <time>2019-04-28T13:25:39Z</time>
      </trkpt>
      <trkpt lat="40.3890080" lon="-3.9401820">
        <ele>624.0</ele>
        <time>2019-04-28T13:25:40Z</time>
      </trkpt>
      <trkpt lat="40.3889390" lon="-3.9401970">
        <ele>623.2</ele>
        <time>2019-04-28T13:25:41Z</time>
      </trkpt>
      <trkpt lat="40.3889000" lon="-3.9402130">
        <ele>622.4</ele>
        <time>2019-04-28T13:25:42Z</time>
      </trkpt>
      <trkpt lat="40.3888610" lon="-3.9402290">
        <ele>621.4</ele>
        <time>2019-04-28T13:25:43Z</time>
      </trkpt>
      <trkpt lat="40.3887820" lon="-3.9402610">
        <ele>621.0</ele>
        <time>2019-04-28T13:25:44Z</time>
      </trkpt>
      <trkpt lat="40.3887390" lon="-3.9402490">
        <ele>620.6</ele>
        <time>2019-04-28T13:25:45Z</time>
      </trkpt>
      <trkpt lat="40.3886880" lon="-3.9402300">
        <ele>620.4</ele>
        <time>2019-04-28T13:25:46Z</time>
      </trkpt>
      <trkpt lat="40.3886340" lon="-3.9402000">
        <ele>620.4</ele>
        <time>2019-04-28T13:25:47Z</time>
      </trkpt>
      <trkpt lat="40.3885860" lon="-3.9401690">
        <ele>620.6</ele>
        <time>2019-04-28T13:25:48Z</time>
      </trkpt>
      <trkpt lat="40.3885350" lon="-3.9401460">
        <ele>620.6</ele>
        <time>2019-04-28T13:25:49Z</time>
      </trkpt>
      <trkpt lat="40.3885030" lon="-3.9401410">
        <ele>620.6</ele>
        <time>2019-04-28T13:25:50Z</time>
      </trkpt>
      <trkpt lat="40.3884710" lon="-3.9401590">
        <ele>620.6</ele>
        <time>2019-04-28T13:25:51Z</time>
      </trkpt>
      <trkpt lat="40.3884420" lon="-3.9401850">
        <ele>620.6</ele>
        <time>2019-04-28T13:25:52Z</time>
      </trkpt>
      <trkpt lat="40.3884150" lon="-3.9402210">
        <ele>620.8</ele>
        <time>2019-04-28T13:25:53Z</time>
      </trkpt>
      <trkpt lat="40.3883840" lon="-3.9402550">
        <ele>621.0</ele>
        <time>2019-04-28T13:25:54Z</time>
      </trkpt>
      <trkpt lat="40.3883510" lon="-3.9402840">
        <ele>621.0</ele>
        <time>2019-04-28T13:25:55Z</time>
      </trkpt>
      <trkpt lat="40.3883160" lon="-3.9403080">
        <ele>621.4</ele>
        <time>2019-04-28T13:25:56Z</time>
      </trkpt>
      <trkpt lat="40.3882810" lon="-3.9403290">
        <ele>622.0</ele>
        <time>2019-04-28T13:25:57Z</time>
      </trkpt>
      <trkpt lat="40.3882540" lon="-3.9403500">
        <ele>622.4</ele>
        <time>2019-04-28T13:25:58Z</time>
      </trkpt>
      <trkpt lat="40.3882330" lon="-3.9403710">
        <ele>623.4</ele>
        <time>2019-04-28T13:25:59Z</time>
      </trkpt>
      <trkpt lat="40.3882090" lon="-3.9403920">
        <ele>624.2</ele>
        <time>2019-04-28T13:26:00Z</time>
      </trkpt>
      <trkpt lat="40.3881780" lon="-3.9404080">
        <ele>625.0</ele>
        <time>2019-04-28T13:26:01Z</time>
      </trkpt>
      <trkpt lat="40.3881470" lon="-3.9404200">
        <ele>625.6</ele>
        <time>2019-04-28T13:26:02Z</time>
      </trkpt>
      <trkpt lat="40.3881150" lon="-3.9404290">
        <ele>626.2</ele>
        <time>2019-04-28T13:26:03Z</time>
      </trkpt>
      <trkpt lat="40.3880780" lon="-3.9404380">
        <ele>626.6</ele>
        <time>2019-04-28T13:26:04Z</time>
      </trkpt>
      <trkpt lat="40.3880460" lon="-3.9404440">
        <ele>627.0</ele>
        <time>2019-04-28T13:26:05Z</time>
      </trkpt>
      <trkpt lat="40.3880040" lon="-3.9404560">
        <ele>627.4</ele>
        <time>2019-04-28T13:26:06Z</time>
      </trkpt>
      <trkpt lat="40.3879740" lon="-3.9404650">
        <ele>628.0</ele>
        <time>2019-04-28T13:26:07Z</time>
      </trkpt>
      <trkpt lat="40.3879480" lon="-3.9404730">
        <ele>628.6</ele>
        <time>2019-04-28T13:26:08Z</time>
      </trkpt>
      <trkpt lat="40.3879240" lon="-3.9404800">
        <ele>628.8</ele>
        <time>2019-04-28T13:26:09Z</time>
      </trkpt>
      <trkpt lat="40.3878990" lon="-3.9404850">
        <ele>629.4</ele>
        <time>2019-04-28T13:26:10Z</time>
      </trkpt>
      <trkpt lat="40.3878770" lon="-3.9404890">
        <ele>629.4</ele>
        <time>2019-04-28T13:26:11Z</time>
      </trkpt>
      <trkpt lat="40.3878560" lon="-3.9404920">
        <ele>629.6</ele>
        <time>2019-04-28T13:26:12Z</time>
      </trkpt>
      <trkpt lat="40.3878360" lon="-3.9404970">
        <ele>629.8</ele>
        <time>2019-04-28T13:26:13Z</time>
      </trkpt>
      <trkpt lat="40.3878150" lon="-3.9405000">
        <ele>629.8</ele>
        <time>2019-04-28T13:26:14Z</time>
      </trkpt>
      <trkpt lat="40.3877960" lon="-3.9405020">
        <ele>629.8</ele>
        <time>2019-04-28T13:26:15Z</time>
      </trkpt>
      <trkpt lat="40.3877800" lon="-3.9405080">
        <ele>630.0</ele>
        <time>2019-04-28T13:26:16Z</time>
      </trkpt>
      <trkpt lat="40.3877670" lon="-3.9405210">
        <ele>630.2</ele>
        <time>2019-04-28T13:26:17Z</time>
      </trkpt>
      <trkpt lat="40.3877580" lon="-3.9405380">
        <ele>630.2</ele>
        <time>2019-04-28T13:26:18Z</time>
      </trkpt>
      <trkpt lat="40.3877480" lon="-3.9405500">
        <ele>630.4</ele>
        <time>2019-04-28T13:26:19Z</time>
      </trkpt>
      <trkpt lat="40.3877330" lon="-3.9405650">
        <ele>630.6</ele>
        <time>2019-04-28T13:26:20Z</time>
      </trkpt>
      <trkpt lat="40.3877220" lon="-3.9405800">
        <ele>630.6</ele>
        <time>2019-04-28T13:26:21Z</time>
      </trkpt>
      <trkpt lat="40.3877040" lon="-3.9405980">
        <ele>630.6</ele>
        <time>2019-04-28T13:26:22Z</time>
      </trkpt>
      <trkpt lat="40.3876870" lon="-3.9406200">
        <ele>630.6</ele>
        <time>2019-04-28T13:26:23Z</time>
      </trkpt>
      <trkpt lat="40.3876730" lon="-3.9406400">
        <ele>630.6</ele>
        <time>2019-04-28T13:26:24Z</time>
      </trkpt>
      <trkpt lat="40.3876610" lon="-3.9406580">
        <ele>630.6</ele>
        <time>2019-04-28T13:26:25Z</time>
      </trkpt>
      <trkpt lat="40.3876500" lon="-3.9406790">
        <ele>630.8</ele>
        <time>2019-04-28T13:26:26Z</time>
      </trkpt>
      <trkpt lat="40.3876380" lon="-3.9407010">
        <ele>631.0</ele>
        <time>2019-04-28T13:26:27Z</time>
      </trkpt>
      <trkpt lat="40.3876300" lon="-3.9407190">
        <ele>631.0</ele>
        <time>2019-04-28T13:26:28Z</time>
      </trkpt>
      <trkpt lat="40.3876070" lon="-3.9407370">
        <ele>631.0</ele>
        <time>2019-04-28T13:26:29Z</time>
      </trkpt>
      <trkpt lat="40.3875910" lon="-3.9407560">
        <ele>631.0</ele>
        <time>2019-04-28T13:26:30Z</time>
      </trkpt>
      <trkpt lat="40.3875790" lon="-3.9407750">
        <ele>631.2</ele>
        <time>2019-04-28T13:26:31Z</time>
      </trkpt>
      <trkpt lat="40.3875640" lon="-3.9407970">
        <ele>631.2</ele>
        <time>2019-04-28T13:26:32Z</time>
      </trkpt>
      <trkpt lat="40.3875550" lon="-3.9408160">
        <ele>631.4</ele>
        <time>2019-04-28T13:26:33Z</time>
      </trkpt>
      <trkpt lat="40.3875430" lon="-3.9408310">
        <ele>631.6</ele>
        <time>2019-04-28T13:26:34Z</time>
      </trkpt>
      <trkpt lat="40.3875360" lon="-3.9408470">
        <ele>631.6</ele>
        <time>2019-04-28T13:26:35Z</time>
      </trkpt>
      <trkpt lat="40.3875270" lon="-3.9408700">
        <ele>632.0</ele>
        <time>2019-04-28T13:26:36Z</time>
      </trkpt>
      <trkpt lat="40.3875240" lon="-3.9408920">
        <ele>632.2</ele>
        <time>2019-04-28T13:26:37Z</time>
      </trkpt>
      <trkpt lat="40.3875260" lon="-3.9409100">
        <ele>632.2</ele>
        <time>2019-04-28T13:26:38Z</time>
      </trkpt>
      <trkpt lat="40.3875270" lon="-3.9409270">
        <ele>632.2</ele>
        <time>2019-04-28T13:26:39Z</time>
      </trkpt>
      <trkpt lat="40.3875190" lon="-3.9409480">
        <ele>632.4</ele>
        <time>2019-04-28T13:26:40Z</time>
      </trkpt>
      <trkpt lat="40.3875110" lon="-3.9409690">
        <ele>632.6</ele>
        <time>2019-04-28T13:26:41Z</time>
      </trkpt>
      <trkpt lat="40.3875120" lon="-3.9410040">
        <ele>632.8</ele>
        <time>2019-04-28T13:26:42Z</time>
      </trkpt>
      <trkpt lat="40.3875190" lon="-3.9410230">
        <ele>633.0</ele>
        <time>2019-04-28T13:26:43Z</time>
      </trkpt>
      <trkpt lat="40.3875270" lon="-3.9410420">
        <ele>633.2</ele>
        <time>2019-04-28T13:26:44Z</time>
      </trkpt>
      <trkpt lat="40.3875340" lon="-3.9410610">
        <ele>633.4</ele>
        <time>2019-04-28T13:26:45Z</time>
      </trkpt>
      <trkpt lat="40.3875420" lon="-3.9410800">
        <ele>633.6</ele>
        <time>2019-04-28T13:26:46Z</time>
      </trkpt>
      <trkpt lat="40.3875500" lon="-3.9410990">
        <ele>633.8</ele>
        <time>2019-04-28T13:26:47Z</time>
      </trkpt>
      <trkpt lat="40.3875570" lon="-3.9411180">
        <ele>634.0</ele>
        <time>2019-04-28T13:26:48Z</time>
      </trkpt>
      <trkpt lat="40.3875650" lon="-3.9411370">
        <ele>633.8</ele>
        <time>2019-04-28T13:26:49Z</time>
      </trkpt>
      <trkpt lat="40.3875720" lon="-3.9411560">
        <ele>634.0</ele>
        <time>2019-04-28T13:26:50Z</time>
      </trkpt>
      <trkpt lat="40.3875800" lon="-3.9411750">
        <ele>634.0</ele>
        <time>2019-04-28T13:26:51Z</time>
      </trkpt>
      <trkpt lat="40.3875880" lon="-3.9411950">
        <ele>634.0</ele>
        <time>2019-04-28T13:26:52Z</time>
      </trkpt>
      <trkpt lat="40.3875950" lon="-3.9412140">
        <ele>634.0</ele>
        <time>2019-04-28T13:26:53Z</time>
      </trkpt>
      <trkpt lat="40.3876030" lon="-3.9412330">
        <ele>634.0</ele>
        <time>2019-04-28T13:26:54Z</time>
      </trkpt>
      <trkpt lat="40.3876100" lon="-3.9412520">
        <ele>634.0</ele>
        <time>2019-04-28T13:26:55Z</time>
      </trkpt>
      <trkpt lat="40.3876180" lon="-3.9412710">
        <ele>633.8</ele>
        <time>2019-04-28T13:26:56Z</time>
      </trkpt>
      <trkpt lat="40.3876260" lon="-3.9412900">
        <ele>634.2</ele>
        <time>2019-04-28T13:26:57Z</time>
      </trkpt>
      <trkpt lat="40.3876330" lon="-3.9413090">
        <ele>634.2</ele>
        <time>2019-04-28T13:26:58Z</time>
      </trkpt>
      <trkpt lat="40.3876410" lon="-3.9413280">
        <ele>634.0</ele>
        <time>2019-04-28T13:26:59Z</time>
      </trkpt>
      <trkpt lat="40.3876480" lon="-3.9413470">
        <ele>633.2</ele>
        <time>2019-04-28T13:28:47Z</time>
      </trkpt>
      <trkpt lat="40.3876560" lon="-3.9413660">
        <ele>633.0</ele>
        <time>2019-04-28T13:28:48Z</time>
      </trkpt>
      <trkpt lat="40.3876920" lon="-3.9413950">
        <ele>632.8</ele>
        <time>2019-04-28T13:28:49Z</time>
      </trkpt>
      <trkpt lat="40.3877200" lon="-3.9414070">
        <ele>632.4</ele>
        <time>2019-04-28T13:28:50Z</time>
      </trkpt>
      <trkpt lat="40.3877620" lon="-3.9414410">
        <ele>632.0</ele>
        <time>2019-04-28T13:28:51Z</time>
      </trkpt>
      <trkpt lat="40.3878200" lon="-3.9414960">
        <ele>631.4</ele>
        <time>2019-04-28T13:28:53Z</time>
      </trkpt>
      <trkpt lat="40.3878550" lon="-3.9415240">
        <ele>631.0</ele>
        <time>2019-04-28T13:28:54Z</time>
      </trkpt>
      <trkpt lat="40.3878990" lon="-3.9415710">
        <ele>630.6</ele>
        <time>2019-04-28T13:28:55Z</time>
      </trkpt>
      <trkpt lat="40.3879440" lon="-3.9416230">
        <ele>630.2</ele>
        <time>2019-04-28T13:28:56Z</time>
      </trkpt>
      <trkpt lat="40.3879810" lon="-3.9416790">
        <ele>630.0</ele>
        <time>2019-04-28T13:28:57Z</time>
      </trkpt>
      <trkpt lat="40.3880280" lon="-3.9417440">
        <ele>629.4</ele>
        <time>2019-04-28T13:28:58Z</time>
      </trkpt>
      <trkpt lat="40.3880740" lon="-3.9418050">
        <ele>628.8</ele>
        <time>2019-04-28T13:28:59Z</time>
      </trkpt>
      <trkpt lat="40.3881320" lon="-3.9418760">
        <ele>628.4</ele>
        <time>2019-04-28T13:29:00Z</time>
      </trkpt>
      <trkpt lat="40.3881860" lon="-3.9419330">
        <ele>628.2</ele>
        <time>2019-04-28T13:29:01Z</time>
      </trkpt>
      <trkpt lat="40.3882500" lon="-3.9419930">
        <ele>627.8</ele>
        <time>2019-04-28T13:29:02Z</time>
      </trkpt>
      <trkpt lat="40.3883080" lon="-3.9420620">
        <ele>627.4</ele>
        <time>2019-04-28T13:29:03Z</time>
      </trkpt>
      <trkpt lat="40.3883620" lon="-3.9421090">
        <ele>627.0</ele>
        <time>2019-04-28T13:29:04Z</time>
      </trkpt>
      <trkpt lat="40.3884160" lon="-3.9421560">
        <ele>626.2</ele>
        <time>2019-04-28T13:29:05Z</time>
      </trkpt>
      <trkpt lat="40.3884700" lon="-3.9422010">
        <ele>626.0</ele>
        <time>2019-04-28T13:29:06Z</time>
      </trkpt>
      <trkpt lat="40.3885100" lon="-3.9422460">
        <ele>625.4</ele>
        <time>2019-04-28T13:29:07Z</time>
      </trkpt>
      <trkpt lat="40.3885600" lon="-3.9423020">
        <ele>625.2</ele>
        <time>2019-04-28T13:29:08Z</time>
      </trkpt>
      <trkpt lat="40.3886220" lon="-3.9423360">
        <ele>624.6</ele>
        <time>2019-04-28T13:29:09Z</time>
      </trkpt>
      <trkpt lat="40.3886820" lon="-3.9423480">
        <ele>624.4</ele>
        <time>2019-04-28T13:29:10Z</time>
      </trkpt>
      <trkpt lat="40.3887330" lon="-3.9424030">
        <ele>624.0</ele>
        <time>2019-04-28T13:29:11Z</time>
      </trkpt>
      <trkpt lat="40.3887850" lon="-3.9424650">
        <ele>623.8</ele>
        <time>2019-04-28T13:29:12Z</time>
      </trkpt>
      <trkpt lat="40.3888340" lon="-3.9425380">
        <ele>623.4</ele>
        <time>2019-04-28T13:29:13Z</time>
      </trkpt>
      <trkpt lat="40.3888930" lon="-3.9426160">
        <ele>623.0</ele>
        <time>2019-04-28T13:29:14Z</time>
      </trkpt>
      <trkpt lat="40.3889510" lon="-3.9426970">
        <ele>622.8</ele>
        <time>2019-04-28T13:29:15Z</time>
      </trkpt>
      <trkpt lat="40.3890220" lon="-3.9427750">
        <ele>622.4</ele>
        <time>2019-04-28T13:29:16Z</time>
      </trkpt>
      <trkpt lat="40.3890770" lon="-3.9428580">
        <ele>622.0</ele>
        <time>2019-04-28T13:29:17Z</time>
      </trkpt>
      <trkpt lat="40.3891170" lon="-3.9429440">
        <ele>621.6</ele>
        <time>2019-04-28T13:29:18Z</time>
      </trkpt>
      <trkpt lat="40.3891800" lon="-3.9430190">
        <ele>621.2</ele>
        <time>2019-04-28T13:29:19Z</time>
      </trkpt>
      <trkpt lat="40.3892400" lon="-3.9431020">
        <ele>621.0</ele>
        <time>2019-04-28T13:29:20Z</time>
      </trkpt>
      <trkpt lat="40.3893000" lon="-3.9431720">
        <ele>620.4</ele>
        <time>2019-04-28T13:29:21Z</time>
      </trkpt>
      <trkpt lat="40.3893670" lon="-3.9432470">
        <ele>620.0</ele>
        <time>2019-04-28T13:29:22Z</time>
      </trkpt>
      <trkpt lat="40.3894220" lon="-3.9433330">
        <ele>619.4</ele>
        <time>2019-04-28T13:29:23Z</time>
      </trkpt>
      <trkpt lat="40.3894770" lon="-3.9434100">
        <ele>619.2</ele>
        <time>2019-04-28T13:29:24Z</time>
      </trkpt>
      <trkpt lat="40.3895310" lon="-3.9435060">
        <ele>618.6</ele>
        <time>2019-04-28T13:29:25Z</time>
      </trkpt>
      <trkpt lat="40.3895940" lon="-3.9435950">
        <ele>618.2</ele>
        <time>2019-04-28T13:29:26Z</time>
      </trkpt>
      <trkpt lat="40.3896350" lon="-3.9438280">
        <ele>617.8</ele>
        <time>2019-04-28T13:29:27Z</time>
      </trkpt>
      <trkpt lat="40.3896750" lon="-3.9440610">
        <ele>617.4</ele>
        <time>2019-04-28T13:29:28Z</time>
      </trkpt>
      <trkpt lat="40.3896810" lon="-3.9441690">
        <ele>616.6</ele>
        <time>2019-04-28T13:29:29Z</time>
      </trkpt>
      <trkpt lat="40.3896920" lon="-3.9442540">
        <ele>615.8</ele>
        <time>2019-04-28T13:29:30Z</time>
      </trkpt>
      <trkpt lat="40.3897020" lon="-3.9443520">
        <ele>615.0</ele>
        <time>2019-04-28T13:29:31Z</time>
      </trkpt>
      <trkpt lat="40.3897110" lon="-3.9444870">
        <ele>614.0</ele>
        <time>2019-04-28T13:29:32Z</time>
      </trkpt>
      <trkpt lat="40.3896960" lon="-3.9446110">
        <ele>613.0</ele>
        <time>2019-04-28T13:29:33Z</time>
      </trkpt>
      <trkpt lat="40.3896420" lon="-3.9447450">
        <ele>612.4</ele>
        <time>2019-04-28T13:29:34Z</time>
      </trkpt>
      <trkpt lat="40.3896070" lon="-3.9448340">
        <ele>612.0</ele>
        <time>2019-04-28T13:29:35Z</time>
      </trkpt>
      <trkpt lat="40.3895320" lon="-3.9449320">
        <ele>611.6</ele>
        <time>2019-04-28T13:29:36Z</time>
      </trkpt>
      <trkpt lat="40.3894590" lon="-3.9450180">
        <ele>610.8</ele>
        <time>2019-04-28T13:29:37Z</time>
      </trkpt>
      <trkpt lat="40.3893830" lon="-3.9450940">
        <ele>610.4</ele>
        <time>2019-04-28T13:29:38Z</time>
      </trkpt>
      <trkpt lat="40.3892930" lon="-3.9451680">
        <ele>610.0</ele>
        <time>2019-04-28T13:29:39Z</time>
      </trkpt>
      <trkpt lat="40.3892030" lon="-3.9452270">
        <ele>609.6</ele>
        <time>2019-04-28T13:29:40Z</time>
      </trkpt>
      <trkpt lat="40.3891290" lon="-3.9452600">
        <ele>609.4</ele>
        <time>2019-04-28T13:29:41Z</time>
      </trkpt>
      <trkpt lat="40.3890530" lon="-3.9452690">
        <ele>609.2</ele>
        <time>2019-04-28T13:29:42Z</time>
      </trkpt>
      <trkpt lat="40.3889280" lon="-3.9452910">
        <ele>609.0</ele>
        <time>2019-04-28T13:29:43Z</time>
      </trkpt>
      <trkpt lat="40.3887990" lon="-3.9453120">
        <ele>609.0</ele>
        <time>2019-04-28T13:29:44Z</time>
      </trkpt>
      <trkpt lat="40.3887020" lon="-3.9453090">
        <ele>609.0</ele>
        <time>2019-04-28T13:29:45Z</time>
      </trkpt>
      <trkpt lat="40.3886100" lon="-3.9453130">
        <ele>609.0</ele>
        <time>2019-04-28T13:29:46Z</time>
      </trkpt>
      <trkpt lat="40.3885160" lon="-3.9453010">
        <ele>609.0</ele>
        <time>2019-04-28T13:29:47Z</time>
      </trkpt>
      <trkpt lat="40.3884220" lon="-3.9452840">
        <ele>608.8</ele>
        <time>2019-04-28T13:29:48Z</time>
      </trkpt>
      <trkpt lat="40.3883270" lon="-3.9452550">
        <ele>608.8</ele>
        <time>2019-04-28T13:29:49Z</time>
      </trkpt>
      <trkpt lat="40.3882310" lon="-3.9452270">
        <ele>608.8</ele>
        <time>2019-04-28T13:29:50Z</time>
      </trkpt>
      <trkpt lat="40.3881570" lon="-3.9452010">
        <ele>608.8</ele>
        <time>2019-04-28T13:29:51Z</time>
      </trkpt>
      <trkpt lat="40.3880730" lon="-3.9451780">
        <ele>609.2</ele>
        <time>2019-04-28T13:29:52Z</time>
      </trkpt>
      <trkpt lat="40.3879890" lon="-3.9451500">
        <ele>609.0</ele>
        <time>2019-04-28T13:29:53Z</time>
      </trkpt>
      <trkpt lat="40.3879120" lon="-3.9451230">
        <ele>608.8</ele>
        <time>2019-04-28T13:29:54Z</time>
      </trkpt>
      <trkpt lat="40.3878360" lon="-3.9450970">
        <ele>609.0</ele>
        <time>2019-04-28T13:29:55Z</time>
      </trkpt>
      <trkpt lat="40.3877540" lon="-3.9450730">
        <ele>609.0</ele>
        <time>2019-04-28T13:29:56Z</time>
      </trkpt>
      <trkpt lat="40.3876760" lon="-3.9450600">
        <ele>608.8</ele>
        <time>2019-04-28T13:29:57Z</time>
      </trkpt>
      <trkpt lat="40.3875940" lon="-3.9450440">
        <ele>608.8</ele>
        <time>2019-04-28T13:29:58Z</time>
      </trkpt>
      <trkpt lat="40.3875300" lon="-3.9450430">
        <ele>608.8</ele>
        <time>2019-04-28T13:29:59Z</time>
      </trkpt>
      <trkpt lat="40.3874630" lon="-3.9450430">
        <ele>608.8</ele>
        <time>2019-04-28T13:30:00Z</time>
      </trkpt>
      <trkpt lat="40.3873890" lon="-3.9450430">
        <ele>608.8</ele>
        <time>2019-04-28T13:30:01Z</time>
      </trkpt>
      <trkpt lat="40.3873170" lon="-3.9450450">
        <ele>608.8</ele>
        <time>2019-04-28T13:30:02Z</time>
      </trkpt>
      <trkpt lat="40.3872350" lon="-3.9450500">
        <ele>608.8</ele>
        <time>2019-04-28T13:30:03Z</time>
      </trkpt>
      <trkpt lat="40.3871710" lon="-3.9450560">
        <ele>608.8</ele>
        <time>2019-04-28T13:30:04Z</time>
      </trkpt>
      <trkpt lat="40.3871020" lon="-3.9450630">
        <ele>608.6</ele>
        <time>2019-04-28T13:30:05Z</time>
      </trkpt>
      <trkpt lat="40.3870340" lon="-3.9450830">
        <ele>608.6</ele>
        <time>2019-04-28T13:30:06Z</time>
      </trkpt>
      <trkpt lat="40.3869620" lon="-3.9450970">
        <ele>609.0</ele>
        <time>2019-04-28T13:30:07Z</time>
      </trkpt>
      <trkpt lat="40.3868850" lon="-3.9451110">
        <ele>609.0</ele>
        <time>2019-04-28T13:30:08Z</time>
      </trkpt>
      <trkpt lat="40.3867930" lon="-3.9451230">
        <ele>608.8</ele>
        <time>2019-04-28T13:30:09Z</time>
      </trkpt>
      <trkpt lat="40.3867260" lon="-3.9451370">
        <ele>608.8</ele>
        <time>2019-04-28T13:30:10Z</time>
      </trkpt>
      <trkpt lat="40.3866680" lon="-3.9451560">
        <ele>609.0</ele>
        <time>2019-04-28T13:30:11Z</time>
      </trkpt>
      <trkpt lat="40.3865890" lon="-3.9451780">
        <ele>609.0</ele>
        <time>2019-04-28T13:30:12Z</time>
      </trkpt>
      <trkpt lat="40.3865250" lon="-3.9451990">
        <ele>609.0</ele>
        <time>2019-04-28T13:30:13Z</time>
      </trkpt>
      <trkpt lat="40.3864640" lon="-3.9452140">
        <ele>608.8</ele>
        <time>2019-04-28T13:30:14Z</time>
      </trkpt>
      <trkpt lat="40.3863990" lon="-3.9452240">
        <ele>609.0</ele>
        <time>2019-04-28T13:30:15Z</time>
      </trkpt>
      <trkpt lat="40.3863460" lon="-3.9452330">
        <ele>609.0</ele>
        <time>2019-04-28T13:30:16Z</time>
      </trkpt>
      <trkpt lat="40.3863030" lon="-3.9452520">
        <ele>609.2</ele>
        <time>2019-04-28T13:30:17Z</time>
      </trkpt>
      <trkpt lat="40.3862530" lon="-3.9452730">
        <ele>609.2</ele>
        <time>2019-04-28T13:30:18Z</time>
      </trkpt>
      <trkpt lat="40.3861890" lon="-3.9452770">
        <ele>609.2</ele>
        <time>2019-04-28T13:30:19Z</time>
      </trkpt>
      <trkpt lat="40.3861210" lon="-3.9452820">
        <ele>609.2</ele>
        <time>2019-04-28T13:30:20Z</time>
      </trkpt>
      <trkpt lat="40.3860500" lon="-3.9452830">
        <ele>609.4</ele>
        <time>2019-04-28T13:30:21Z</time>
      </trkpt>
      <trkpt lat="40.3859890" lon="-3.9452890">
        <ele>609.4</ele>
        <time>2019-04-28T13:30:22Z</time>
      </trkpt>
      <trkpt lat="40.3859360" lon="-3.9452860">
        <ele>609.4</ele>
        <time>2019-04-28T13:30:23Z</time>
      </trkpt>
      <trkpt lat="40.3858780" lon="-3.9452880">
        <ele>609.4</ele>
        <time>2019-04-28T13:30:24Z</time>
      </trkpt>
      <trkpt lat="40.3857930" lon="-3.9452860">
        <ele>609.4</ele>
        <time>2019-04-28T13:30:25Z</time>
      </trkpt>
      <trkpt lat="40.3857240" lon="-3.9452760">
        <ele>609.4</ele>
        <time>2019-04-28T13:30:26Z</time>
      </trkpt>
      <trkpt lat="40.3856630" lon="-3.9452610">
        <ele>609.4</ele>
        <time>2019-04-28T13:30:27Z</time>
      </trkpt>
      <trkpt lat="40.3855890" lon="-3.9452510">
        <ele>609.2</ele>
        <time>2019-04-28T13:30:28Z</time>
      </trkpt>
      <trkpt lat="40.3855190" lon="-3.9452300">
        <ele>609.0</ele>
        <time>2019-04-28T13:30:29Z</time>
      </trkpt>
      <trkpt lat="40.3854390" lon="-3.9452170">
        <ele>609.0</ele>
        <time>2019-04-28T13:30:30Z</time>
      </trkpt>
      <trkpt lat="40.3853680" lon="-3.9452110">
        <ele>608.8</ele>
        <time>2019-04-28T13:30:31Z</time>
      </trkpt>
      <trkpt lat="40.3852980" lon="-3.9452100">
        <ele>608.8</ele>
        <time>2019-04-28T13:30:32Z</time>
      </trkpt>
      <trkpt lat="40.3852290" lon="-3.9451990">
        <ele>608.8</ele>
        <time>2019-04-28T13:30:33Z</time>
      </trkpt>
      <trkpt lat="40.3851820" lon="-3.9452030">
        <ele>608.8</ele>
        <time>2019-04-28T13:30:34Z</time>
      </trkpt>
      <trkpt lat="40.3851130" lon="-3.9451990">
        <ele>608.8</ele>
        <time>2019-04-28T13:30:35Z</time>
      </trkpt>
      <trkpt lat="40.3850440" lon="-3.9451970">
        <ele>608.6</ele>
        <time>2019-04-28T13:30:36Z</time>
      </trkpt>
      <trkpt lat="40.3849710" lon="-3.9451920">
        <ele>608.6</ele>
        <time>2019-04-28T13:30:37Z</time>
      </trkpt>
      <trkpt lat="40.3849170" lon="-3.9451920">
        <ele>608.8</ele>
        <time>2019-04-28T13:30:38Z</time>
      </trkpt>
      <trkpt lat="40.3848600" lon="-3.9452030">
        <ele>608.8</ele>
        <time>2019-04-28T13:30:39Z</time>
      </trkpt>
      <trkpt lat="40.3847870" lon="-3.9451930">
        <ele>608.6</ele>
        <time>2019-04-28T13:30:40Z</time>
      </trkpt>
      <trkpt lat="40.3847100" lon="-3.9451870">
        <ele>608.6</ele>
        <time>2019-04-28T13:30:41Z</time>
      </trkpt>
      <trkpt lat="40.3846430" lon="-3.9451780">
        <ele>608.6</ele>
        <time>2019-04-28T13:30:42Z</time>
      </trkpt>
      <trkpt lat="40.3845860" lon="-3.9451630">
        <ele>608.8</ele>
        <time>2019-04-28T13:30:43Z</time>
      </trkpt>
      <trkpt lat="40.3845120" lon="-3.9451570">
        <ele>608.8</ele>
        <time>2019-04-28T13:30:44Z</time>
      </trkpt>
      <trkpt lat="40.3844460" lon="-3.9451380">
        <ele>609.0</ele>
        <time>2019-04-28T13:30:45Z</time>
      </trkpt>
      <trkpt lat="40.3843790" lon="-3.9451320">
        <ele>609.0</ele>
        <time>2019-04-28T13:30:46Z</time>
      </trkpt>
      <trkpt lat="40.3843040" lon="-3.9451300">
        <ele>609.2</ele>
        <time>2019-04-28T13:30:47Z</time>
      </trkpt>
      <trkpt lat="40.3842400" lon="-3.9451150">
        <ele>609.2</ele>
        <time>2019-04-28T13:30:48Z</time>
      </trkpt>
      <trkpt lat="40.3841650" lon="-3.9451080">
        <ele>609.2</ele>
        <time>2019-04-28T13:30:49Z</time>
      </trkpt>
      <trkpt lat="40.3840930" lon="-3.9451030">
        <ele>609.2</ele>
        <time>2019-04-28T13:30:50Z</time>
      </trkpt>
      <trkpt lat="40.3840270" lon="-3.9451070">
        <ele>609.2</ele>
        <time>2019-04-28T13:30:51Z</time>
      </trkpt>
      <trkpt lat="40.3839840" lon="-3.9450970">
        <ele>609.2</ele>
        <time>2019-04-28T13:30:52Z</time>
      </trkpt>
      <trkpt lat="40.3839530" lon="-3.9450920">
        <ele>609.2</ele>
        <time>2019-04-28T13:30:53Z</time>
      </trkpt>
      <trkpt lat="40.3839050" lon="-3.9450830">
        <ele>609.2</ele>
        <time>2019-04-28T13:30:54Z</time>
      </trkpt>
      <trkpt lat="40.3838300" lon="-3.9450730">
        <ele>609.2</ele>
        <time>2019-04-28T13:30:55Z</time>
      </trkpt>
      <trkpt lat="40.3837630" lon="-3.9450690">
        <ele>609.2</ele>
        <time>2019-04-28T13:30:56Z</time>
      </trkpt>
      <trkpt lat="40.3837160" lon="-3.9450780">
        <ele>609.0</ele>
        <time>2019-04-28T13:30:57Z</time>
      </trkpt>
      <trkpt lat="40.3836710" lon="-3.9450840">
        <ele>609.0</ele>
        <time>2019-04-28T13:30:58Z</time>
      </trkpt>
      <trkpt lat="40.3835780" lon="-3.9450850">
        <ele>609.0</ele>
        <time>2019-04-28T13:30:59Z</time>
      </trkpt>
      <trkpt lat="40.3834690" lon="-3.9450750">
        <ele>609.0</ele>
        <time>2019-04-28T13:31:00Z</time>
      </trkpt>
      <trkpt lat="40.3833670" lon="-3.9450660">
        <ele>609.0</ele>
        <time>2019-04-28T13:31:01Z</time>
      </trkpt>
      <trkpt lat="40.3832830" lon="-3.9450540">
        <ele>609.0</ele>
        <time>2019-04-28T13:31:02Z</time>
      </trkpt>
      <trkpt lat="40.3832150" lon="-3.9450490">
        <ele>608.8</ele>
        <time>2019-04-28T13:31:03Z</time>
      </trkpt>
      <trkpt lat="40.3831510" lon="-3.9450470">
        <ele>608.8</ele>
        <time>2019-04-28T13:31:04Z</time>
      </trkpt>
      <trkpt lat="40.3830750" lon="-3.9450330">
        <ele>608.8</ele>
        <time>2019-04-28T13:31:05Z</time>
      </trkpt>
      <trkpt lat="40.3830260" lon="-3.9450230">
        <ele>608.8</ele>
        <time>2019-04-28T13:31:06Z</time>
      </trkpt>
      <trkpt lat="40.3829900" lon="-3.9450180">
        <ele>608.8</ele>
        <time>2019-04-28T13:31:07Z</time>
      </trkpt>
      <trkpt lat="40.3829490" lon="-3.9450290">
        <ele>608.8</ele>
        <time>2019-04-28T13:31:08Z</time>
      </trkpt>
      <trkpt lat="40.3828960" lon="-3.9450200">
        <ele>609.0</ele>
        <time>2019-04-28T13:31:09Z</time>
      </trkpt>
      <trkpt lat="40.3828430" lon="-3.9449990">
        <ele>609.2</ele>
        <time>2019-04-28T13:31:10Z</time>
      </trkpt>
      <trkpt lat="40.3827910" lon="-3.9449970">
        <ele>609.0</ele>
        <time>2019-04-28T13:31:11Z</time>
      </trkpt>
      <trkpt lat="40.3827200" lon="-3.9449900">
        <ele>609.2</ele>
        <time>2019-04-28T13:31:12Z</time>
      </trkpt>
      <trkpt lat="40.3826680" lon="-3.9449900">
        <ele>609.2</ele>
        <time>2019-04-28T13:31:13Z</time>
      </trkpt>
      <trkpt lat="40.3826040" lon="-3.9449930">
        <ele>609.0</ele>
        <time>2019-04-28T13:31:14Z</time>
      </trkpt>
      <trkpt lat="40.3825160" lon="-3.9449870">
        <ele>609.0</ele>
        <time>2019-04-28T13:31:15Z</time>
      </trkpt>
      <trkpt lat="40.3824310" lon="-3.9449860">
        <ele>609.0</ele>
        <time>2019-04-28T13:31:16Z</time>
      </trkpt>
      <trkpt lat="40.3823620" lon="-3.9449740">
        <ele>608.8</ele>
        <time>2019-04-28T13:31:17Z</time>
      </trkpt>
      <trkpt lat="40.3822870" lon="-3.9449570">
        <ele>608.8</ele>
        <time>2019-04-28T13:31:18Z</time>
      </trkpt>
      <trkpt lat="40.3822150" lon="-3.9449460">
        <ele>608.8</ele>
        <time>2019-04-28T13:31:19Z</time>
      </trkpt>
      <trkpt lat="40.3821470" lon="-3.9449330">
        <ele>608.8</ele>
        <time>2019-04-28T13:31:20Z</time>
      </trkpt>
      <trkpt lat="40.3820970" lon="-3.9449330">
        <ele>608.8</ele>
        <time>2019-04-28T13:31:21Z</time>
      </trkpt>
      <trkpt lat="40.3820520" lon="-3.9449310">
        <ele>609.0</ele>
        <time>2019-04-28T13:31:22Z</time>
      </trkpt>
      <trkpt lat="40.3820310" lon="-3.9449360">
        <ele>609.0</ele>
        <time>2019-04-28T13:31:23Z</time>
      </trkpt>
      <trkpt lat="40.3819690" lon="-3.9449300">
        <ele>608.8</ele>
        <time>2019-04-28T13:31:24Z</time>
      </trkpt>
      <trkpt lat="40.3819380" lon="-3.9449370">
        <ele>608.8</ele>
        <time>2019-04-28T13:31:25Z</time>
      </trkpt>
      <trkpt lat="40.3818940" lon="-3.9449300">
        <ele>608.8</ele>
        <time>2019-04-28T13:31:26Z</time>
      </trkpt>
      <trkpt lat="40.3818350" lon="-3.9449140">
        <ele>608.8</ele>
        <time>2019-04-28T13:31:27Z</time>
      </trkpt>
      <trkpt lat="40.3817700" lon="-3.9449020">
        <ele>608.6</ele>
        <time>2019-04-28T13:31:28Z</time>
      </trkpt>
      <trkpt lat="40.3817180" lon="-3.9448890">
        <ele>608.6</ele>
        <time>2019-04-28T13:31:29Z</time>
      </trkpt>
      <trkpt lat="40.3816500" lon="-3.9448690">
        <ele>608.8</ele>
        <time>2019-04-28T13:31:30Z</time>
      </trkpt>
      <trkpt lat="40.3816090" lon="-3.9448480">
        <ele>608.8</ele>
        <time>2019-04-28T13:31:31Z</time>
      </trkpt>
      <trkpt lat="40.3815540" lon="-3.9448350">
        <ele>608.8</ele>
        <time>2019-04-28T13:31:32Z</time>
      </trkpt>
      <trkpt lat="40.3814880" lon="-3.9448150">
        <ele>608.8</ele>
        <time>2019-04-28T13:31:33Z</time>
      </trkpt>
      <trkpt lat="40.3814430" lon="-3.9447940">
        <ele>608.8</ele>
        <time>2019-04-28T13:31:34Z</time>
      </trkpt>
      <trkpt lat="40.3813910" lon="-3.9447720">
        <ele>608.8</ele>
        <time>2019-04-28T13:31:35Z</time>
      </trkpt>
      <trkpt lat="40.3813500" lon="-3.9447570">
        <ele>608.8</ele>
        <time>2019-04-28T13:31:36Z</time>
      </trkpt>
      <trkpt lat="40.3813120" lon="-3.9447320">
        <ele>608.8</ele>
        <time>2019-04-28T13:31:37Z</time>
      </trkpt>
      <trkpt lat="40.3812760" lon="-3.9447180">
        <ele>608.6</ele>
        <time>2019-04-28T13:31:38Z</time>
      </trkpt>
      <trkpt lat="40.3812150" lon="-3.9446880">
        <ele>608.6</ele>
        <time>2019-04-28T13:31:39Z</time>
      </trkpt>
      <trkpt lat="40.3811400" lon="-3.9446530">
        <ele>608.8</ele>
        <time>2019-04-28T13:31:40Z</time>
      </trkpt>
      <trkpt lat="40.3810590" lon="-3.9446070">
        <ele>608.8</ele>
        <time>2019-04-28T13:31:41Z</time>
      </trkpt>
      <trkpt lat="40.3809870" lon="-3.9445580">
        <ele>608.6</ele>
        <time>2019-04-28T13:31:42Z</time>
      </trkpt>
      <trkpt lat="40.3809120" lon="-3.9445040">
        <ele>608.8</ele>
        <time>2019-04-28T13:31:43Z</time>
      </trkpt>
      <trkpt lat="40.3808390" lon="-3.9444570">
        <ele>608.6</ele>
        <time>2019-04-28T13:31:44Z</time>
      </trkpt>
      <trkpt lat="40.3807690" lon="-3.9444060">
        <ele>608.6</ele>
        <time>2019-04-28T13:31:45Z</time>
      </trkpt>
      <trkpt lat="40.3806950" lon="-3.9443500">
        <ele>608.6</ele>
        <time>2019-04-28T13:31:46Z</time>
      </trkpt>
      <trkpt lat="40.3806190" lon="-3.9443050">
        <ele>608.8</ele>
        <time>2019-04-28T13:31:47Z</time>
      </trkpt>
      <trkpt lat="40.3805520" lon="-3.9442520">
        <ele>608.8</ele>
        <time>2019-04-28T13:31:48Z</time>
      </trkpt>
      <trkpt lat="40.3804920" lon="-3.9442070">
        <ele>608.8</ele>
        <time>2019-04-28T13:31:49Z</time>
      </trkpt>
      <trkpt lat="40.3804340" lon="-3.9441640">
        <ele>608.6</ele>
        <time>2019-04-28T13:31:50Z</time>
      </trkpt>
      <trkpt lat="40.3803740" lon="-3.9441230">
        <ele>608.8</ele>
        <time>2019-04-28T13:31:51Z</time>
      </trkpt>
      <trkpt lat="40.3803270" lon="-3.9440830">
        <ele>608.8</ele>
        <time>2019-04-28T13:31:52Z</time>
      </trkpt>
      <trkpt lat="40.3802850" lon="-3.9440490">
        <ele>608.6</ele>
        <time>2019-04-28T13:31:53Z</time>
      </trkpt>
      <trkpt lat="40.3802330" lon="-3.9440190">
        <ele>608.6</ele>
        <time>2019-04-28T13:31:54Z</time>
      </trkpt>
      <trkpt lat="40.3801800" lon="-3.9439860">
        <ele>608.4</ele>
        <time>2019-04-28T13:31:55Z</time>
      </trkpt>
      <trkpt lat="40.3801310" lon="-3.9439490">
        <ele>608.6</ele>
        <time>2019-04-28T13:31:56Z</time>
      </trkpt>
      <trkpt lat="40.3800720" lon="-3.9439060">
        <ele>608.6</ele>
        <time>2019-04-28T13:31:57Z</time>
      </trkpt>
      <trkpt lat="40.3799900" lon="-3.9438530">
        <ele>608.8</ele>
        <time>2019-04-28T13:31:58Z</time>
      </trkpt>
      <trkpt lat="40.3799420" lon="-3.9438090">
        <ele>608.8</ele>
        <time>2019-04-28T13:31:59Z</time>
      </trkpt>
      <trkpt lat="40.3798840" lon="-3.9437770">
        <ele>609.0</ele>
        <time>2019-04-28T13:32:00Z</time>
      </trkpt>
      <trkpt lat="40.3798130" lon="-3.9437410">
        <ele>609.0</ele>
        <time>2019-04-28T13:32:01Z</time>
      </trkpt>
      <trkpt lat="40.3797420" lon="-3.9437190">
        <ele>609.0</ele>
        <time>2019-04-28T13:32:02Z</time>
      </trkpt>
      <trkpt lat="40.3796900" lon="-3.9436940">
        <ele>608.8</ele>
        <time>2019-04-28T13:32:03Z</time>
      </trkpt>
      <trkpt lat="40.3796210" lon="-3.9436730">
        <ele>609.0</ele>
        <time>2019-04-28T13:32:04Z</time>
      </trkpt>
      <trkpt lat="40.3795500" lon="-3.9436570">
        <ele>609.0</ele>
        <time>2019-04-28T13:32:05Z</time>
      </trkpt>
      <trkpt lat="40.3794820" lon="-3.9436460">
        <ele>608.8</ele>
        <time>2019-04-28T13:32:06Z</time>
      </trkpt>
      <trkpt lat="40.3794200" lon="-3.9436390">
        <ele>608.6</ele>
        <time>2019-04-28T13:32:07Z</time>
      </trkpt>
      <trkpt lat="40.3793750" lon="-3.9436430">
        <ele>609.0</ele>
        <time>2019-04-28T13:32:08Z</time>
      </trkpt>
      <trkpt lat="40.3793230" lon="-3.9436450">
        <ele>609.0</ele>
        <time>2019-04-28T13:32:09Z</time>
      </trkpt>
      <trkpt lat="40.3792550" lon="-3.9436380">
        <ele>609.0</ele>
        <time>2019-04-28T13:32:10Z</time>
      </trkpt>
      <trkpt lat="40.3791990" lon="-3.9436210">
        <ele>609.0</ele>
        <time>2019-04-28T13:32:11Z</time>
      </trkpt>
      <trkpt lat="40.3791370" lon="-3.9436080">
        <ele>609.2</ele>
        <time>2019-04-28T13:32:12Z</time>
      </trkpt>
      <trkpt lat="40.3790740" lon="-3.9435970">
        <ele>609.0</ele>
        <time>2019-04-28T13:32:13Z</time>
      </trkpt>
      <trkpt lat="40.3790070" lon="-3.9435870">
        <ele>608.6</ele>
        <time>2019-04-28T13:32:14Z</time>
      </trkpt>
      <trkpt lat="40.3789330" lon="-3.9435760">
        <ele>608.2</ele>
        <time>2019-04-28T13:32:15Z</time>
      </trkpt>
      <trkpt lat="40.3788620" lon="-3.9435680">
        <ele>608.2</ele>
        <time>2019-04-28T13:32:16Z</time>
      </trkpt>
      <trkpt lat="40.3787890" lon="-3.9435610">
        <ele>608.4</ele>
        <time>2019-04-28T13:32:17Z</time>
      </trkpt>
      <trkpt lat="40.3787190" lon="-3.9435490">
        <ele>608.2</ele>
        <time>2019-04-28T13:32:18Z</time>
      </trkpt>
      <trkpt lat="40.3786520" lon="-3.9435270">
        <ele>608.2</ele>
        <time>2019-04-28T13:32:19Z</time>
      </trkpt>
      <trkpt lat="40.3785910" lon="-3.9434930">
        <ele>608.2</ele>
        <time>2019-04-28T13:32:20Z</time>
      </trkpt>
      <trkpt lat="40.3785340" lon="-3.9434480">
        <ele>608.4</ele>
        <time>2019-04-28T13:32:21Z</time>
      </trkpt>
      <trkpt lat="40.3784880" lon="-3.9434050">
        <ele>608.4</ele>
        <time>2019-04-28T13:32:22Z</time>
      </trkpt>
      <trkpt lat="40.3784400" lon="-3.9433540">
        <ele>608.6</ele>
        <time>2019-04-28T13:32:23Z</time>
      </trkpt>
      <trkpt lat="40.3783980" lon="-3.9433010">
        <ele>608.6</ele>
        <time>2019-04-28T13:32:24Z</time>
      </trkpt>
      <trkpt lat="40.3783710" lon="-3.9432480">
        <ele>608.8</ele>
        <time>2019-04-28T13:32:25Z</time>
      </trkpt>
      <trkpt lat="40.3783380" lon="-3.9431940">
        <ele>608.8</ele>
        <time>2019-04-28T13:32:26Z</time>
      </trkpt>
      <trkpt lat="40.3783230" lon="-3.9431500">
        <ele>609.0</ele>
        <time>2019-04-28T13:32:27Z</time>
      </trkpt>
      <trkpt lat="40.3783100" lon="-3.9431180">
        <ele>609.2</ele>
        <time>2019-04-28T13:32:28Z</time>
      </trkpt>
      <trkpt lat="40.3782870" lon="-3.9431010">
        <ele>609.2</ele>
        <time>2019-04-28T13:32:29Z</time>
      </trkpt>
      <trkpt lat="40.3782610" lon="-3.9430870">
        <ele>609.2</ele>
        <time>2019-04-28T13:32:30Z</time>
      </trkpt>
      <trkpt lat="40.3782440" lon="-3.9430790">
        <ele>609.2</ele>
        <time>2019-04-28T13:32:31Z</time>
      </trkpt>
      <trkpt lat="40.3782250" lon="-3.9430730">
        <ele>609.2</ele>
        <time>2019-04-28T13:32:32Z</time>
      </trkpt>
      <trkpt lat="40.3782070" lon="-3.9430670">
        <ele>609.2</ele>
        <time>2019-04-28T13:32:33Z</time>
      </trkpt>
      <trkpt lat="40.3781900" lon="-3.9430610">
        <ele>609.0</ele>
        <time>2019-04-28T13:32:34Z</time>
      </trkpt>
      <trkpt lat="40.3781750" lon="-3.9430550">
        <ele>608.8</ele>
        <time>2019-04-28T13:32:35Z</time>
      </trkpt>
      <trkpt lat="40.3781590" lon="-3.9430480">
        <ele>608.8</ele>
        <time>2019-04-28T13:32:36Z</time>
      </trkpt>
      <trkpt lat="40.3781470" lon="-3.9430420">
        <ele>608.8</ele>
        <time>2019-04-28T13:32:37Z</time>
      </trkpt>
      <trkpt lat="40.3781340" lon="-3.9430370">
        <ele>608.8</ele>
        <time>2019-04-28T13:32:38Z</time>
      </trkpt>
      <trkpt lat="40.3781280" lon="-3.9430330">
        <ele>608.8</ele>
        <time>2019-04-28T13:32:39Z</time>
      </trkpt>
      <trkpt lat="40.3781240" lon="-3.9430320">
        <ele>608.8</ele>
        <time>2019-04-28T13:32:40Z</time>
      </trkpt>
      <trkpt lat="40.3781090" lon="-3.9430250">
        <ele>608.8</ele>
        <time>2019-04-28T13:32:41Z</time>
      </trkpt>
      <trkpt lat="40.3780870" lon="-3.9430130">
        <ele>608.8</ele>
        <time>2019-04-28T13:32:42Z</time>
      </trkpt>
      <trkpt lat="40.3780640" lon="-3.9430100">
        <ele>608.8</ele>
        <time>2019-04-28T13:32:43Z</time>
      </trkpt>
      <trkpt lat="40.3780400" lon="-3.9430160">
        <ele>608.6</ele>
        <time>2019-04-28T13:32:44Z</time>
      </trkpt>
      <trkpt lat="40.3780230" lon="-3.9430360">
        <ele>608.6</ele>
        <time>2019-04-28T13:32:45Z</time>
      </trkpt>
      <trkpt lat="40.3779880" lon="-3.9430640">
        <ele>608.4</ele>
        <time>2019-04-28T13:32:46Z</time>
      </trkpt>
      <trkpt lat="40.3779530" lon="-3.9430890">
        <ele>608.0</ele>
        <time>2019-04-28T13:32:47Z</time>
      </trkpt>
      <trkpt lat="40.3779150" lon="-3.9431230">
        <ele>607.8</ele>
        <time>2019-04-28T13:32:48Z</time>
      </trkpt>
      <trkpt lat="40.3778660" lon="-3.9431610">
        <ele>607.2</ele>
        <time>2019-04-28T13:32:49Z</time>
      </trkpt>
      <trkpt lat="40.3778110" lon="-3.9431900">
        <ele>606.4</ele>
        <time>2019-04-28T13:32:50Z</time>
      </trkpt>
      <trkpt lat="40.3777610" lon="-3.9432170">
        <ele>606.0</ele>
        <time>2019-04-28T13:32:51Z</time>
      </trkpt>
      <trkpt lat="40.3777060" lon="-3.9432510">
        <ele>605.4</ele>
        <time>2019-04-28T13:32:52Z</time>
      </trkpt>
      <trkpt lat="40.3776500" lon="-3.9432880">
        <ele>604.8</ele>
        <time>2019-04-28T13:32:53Z</time>
      </trkpt>
      <trkpt lat="40.3776010" lon="-3.9433190">
        <ele>604.0</ele>
        <time>2019-04-28T13:32:54Z</time>
      </trkpt>
      <trkpt lat="40.3775550" lon="-3.9433390">
        <ele>603.6</ele>
        <time>2019-04-28T13:32:55Z</time>
      </trkpt>
      <trkpt lat="40.3775140" lon="-3.9433450">
        <ele>603.4</ele>
        <time>2019-04-28T13:32:56Z</time>
      </trkpt>
      <trkpt lat="40.3774660" lon="-3.9433290">
        <ele>603.2</ele>
        <time>2019-04-28T13:32:57Z</time>
      </trkpt>
      <trkpt lat="40.3774130" lon="-3.9433240">
        <ele>603.2</ele>
        <time>2019-04-28T13:32:58Z</time>
      </trkpt>
      <trkpt lat="40.3773500" lon="-3.9433280">
        <ele>603.2</ele>
        <time>2019-04-28T13:32:59Z</time>
      </trkpt>
      <trkpt lat="40.3772830" lon="-3.9433330">
        <ele>603.0</ele>
        <time>2019-04-28T13:33:00Z</time>
      </trkpt>
      <trkpt lat="40.3772140" lon="-3.9433320">
        <ele>603.2</ele>
        <time>2019-04-28T13:33:01Z</time>
      </trkpt>
      <trkpt lat="40.3771510" lon="-3.9433160">
        <ele>603.0</ele>
        <time>2019-04-28T13:33:02Z</time>
      </trkpt>
      <trkpt lat="40.3770840" lon="-3.9432910">
        <ele>603.0</ele>
        <time>2019-04-28T13:33:03Z</time>
      </trkpt>
      <trkpt lat="40.3770270" lon="-3.9432590">
        <ele>602.8</ele>
        <time>2019-04-28T13:33:04Z</time>
      </trkpt>
      <trkpt lat="40.3769580" lon="-3.9432230">
        <ele>603.0</ele>
        <time>2019-04-28T13:33:05Z</time>
      </trkpt>
      <trkpt lat="40.3768920" lon="-3.9432020">
        <ele>602.8</ele>
        <time>2019-04-28T13:33:06Z</time>
      </trkpt>
      <trkpt lat="40.3768340" lon="-3.9431900">
        <ele>603.0</ele>
        <time>2019-04-28T13:33:07Z</time>
      </trkpt>
      <trkpt lat="40.3767690" lon="-3.9431740">
        <ele>602.8</ele>
        <time>2019-04-28T13:33:08Z</time>
      </trkpt>
      <trkpt lat="40.3767220" lon="-3.9431820">
        <ele>602.8</ele>
        <time>2019-04-28T13:33:09Z</time>
      </trkpt>
      <trkpt lat="40.3766630" lon="-3.9431960">
        <ele>602.8</ele>
        <time>2019-04-28T13:33:10Z</time>
      </trkpt>
      <trkpt lat="40.3765990" lon="-3.9432090">
        <ele>602.6</ele>
        <time>2019-04-28T13:33:11Z</time>
      </trkpt>
      <trkpt lat="40.3765370" lon="-3.9432040">
        <ele>602.6</ele>
        <time>2019-04-28T13:33:12Z</time>
      </trkpt>
      <trkpt lat="40.3764820" lon="-3.9431790">
        <ele>602.8</ele>
        <time>2019-04-28T13:33:13Z</time>
      </trkpt>
      <trkpt lat="40.3764300" lon="-3.9431520">
        <ele>603.0</ele>
        <time>2019-04-28T13:33:14Z</time>
      </trkpt>
      <trkpt lat="40.3763850" lon="-3.9431300">
        <ele>603.2</ele>
        <time>2019-04-28T13:33:15Z</time>
      </trkpt>
      <trkpt lat="40.3763510" lon="-3.9431370">
        <ele>603.6</ele>
        <time>2019-04-28T13:33:16Z</time>
      </trkpt>
      <trkpt lat="40.3763000" lon="-3.9431270">
        <ele>603.8</ele>
        <time>2019-04-28T13:33:17Z</time>
      </trkpt>
      <trkpt lat="40.3762330" lon="-3.9431040">
        <ele>603.8</ele>
        <time>2019-04-28T13:33:18Z</time>
      </trkpt>
      <trkpt lat="40.3761570" lon="-3.9430870">
        <ele>604.2</ele>
        <time>2019-04-28T13:33:19Z</time>
      </trkpt>
      <trkpt lat="40.3760900" lon="-3.9430750">
        <ele>604.4</ele>
        <time>2019-04-28T13:33:20Z</time>
      </trkpt>
      <trkpt lat="40.3760220" lon="-3.9430750">
        <ele>604.4</ele>
        <time>2019-04-28T13:33:21Z</time>
      </trkpt>
      <trkpt lat="40.3759730" lon="-3.9430770">
        <ele>604.4</ele>
        <time>2019-04-28T13:33:22Z</time>
      </trkpt>
      <trkpt lat="40.3759080" lon="-3.9430690">
        <ele>604.4</ele>
        <time>2019-04-28T13:33:23Z</time>
      </trkpt>
      <trkpt lat="40.3758520" lon="-3.9430680">
        <ele>604.6</ele>
        <time>2019-04-28T13:33:24Z</time>
      </trkpt>
      <trkpt lat="40.3757760" lon="-3.9430650">
        <ele>604.6</ele>
        <time>2019-04-28T13:33:25Z</time>
      </trkpt>
      <trkpt lat="40.3757120" lon="-3.9430680">
        <ele>604.6</ele>
        <time>2019-04-28T13:33:26Z</time>
      </trkpt>
      <trkpt lat="40.3756530" lon="-3.9430600">
        <ele>604.8</ele>
        <time>2019-04-28T13:33:27Z</time>
      </trkpt>
      <trkpt lat="40.3755980" lon="-3.9430530">
        <ele>605.0</ele>
        <time>2019-04-28T13:33:28Z</time>
      </trkpt>
      <trkpt lat="40.3755300" lon="-3.9430520">
        <ele>605.4</ele>
        <time>2019-04-28T13:33:29Z</time>
      </trkpt>
      <trkpt lat="40.3754690" lon="-3.9430590">
        <ele>605.6</ele>
        <time>2019-04-28T13:33:30Z</time>
      </trkpt>
      <trkpt lat="40.3754250" lon="-3.9430610">
        <ele>605.4</ele>
        <time>2019-04-28T13:33:31Z</time>
      </trkpt>
      <trkpt lat="40.3753620" lon="-3.9430710">
        <ele>605.0</ele>
        <time>2019-04-28T13:33:32Z</time>
      </trkpt>
      <trkpt lat="40.3752970" lon="-3.9430850">
        <ele>604.6</ele>
        <time>2019-04-28T13:33:33Z</time>
      </trkpt>
      <trkpt lat="40.3752200" lon="-3.9430860">
        <ele>604.2</ele>
        <time>2019-04-28T13:33:34Z</time>
      </trkpt>
      <trkpt lat="40.3751510" lon="-3.9430750">
        <ele>604.0</ele>
        <time>2019-04-28T13:33:35Z</time>
      </trkpt>
      <trkpt lat="40.3750810" lon="-3.9430670">
        <ele>603.8</ele>
        <time>2019-04-28T13:33:36Z</time>
      </trkpt>
      <trkpt lat="40.3750040" lon="-3.9430600">
        <ele>604.0</ele>
        <time>2019-04-28T13:33:37Z</time>
      </trkpt>
      <trkpt lat="40.3749360" lon="-3.9430690">
        <ele>604.0</ele>
        <time>2019-04-28T13:33:38Z</time>
      </trkpt>
      <trkpt lat="40.3748710" lon="-3.9430800">
        <ele>604.0</ele>
        <time>2019-04-28T13:33:39Z</time>
      </trkpt>
      <trkpt lat="40.3748050" lon="-3.9430920">
        <ele>604.2</ele>
        <time>2019-04-28T13:33:40Z</time>
      </trkpt>
      <trkpt lat="40.3747470" lon="-3.9430960">
        <ele>604.2</ele>
        <time>2019-04-28T13:33:41Z</time>
      </trkpt>
      <trkpt lat="40.3746890" lon="-3.9430920">
        <ele>603.8</ele>
        <time>2019-04-28T13:33:42Z</time>
      </trkpt>
      <trkpt lat="40.3746250" lon="-3.9430820">
        <ele>603.6</ele>
        <time>2019-04-28T13:33:43Z</time>
      </trkpt>
      <trkpt lat="40.3745500" lon="-3.9430720">
        <ele>603.4</ele>
        <time>2019-04-28T13:33:44Z</time>
      </trkpt>
      <trkpt lat="40.3744760" lon="-3.9430630">
        <ele>603.2</ele>
        <time>2019-04-28T13:33:45Z</time>
      </trkpt>
      <trkpt lat="40.3744070" lon="-3.9430570">
        <ele>603.2</ele>
        <time>2019-04-28T13:33:46Z</time>
      </trkpt>
      <trkpt lat="40.3743320" lon="-3.9430640">
        <ele>603.2</ele>
        <time>2019-04-28T13:33:47Z</time>
      </trkpt>
      <trkpt lat="40.3742690" lon="-3.9430760">
        <ele>603.2</ele>
        <time>2019-04-28T13:33:48Z</time>
      </trkpt>
      <trkpt lat="40.3742070" lon="-3.9430900">
        <ele>603.2</ele>
        <time>2019-04-28T13:33:49Z</time>
      </trkpt>
      <trkpt lat="40.3741450" lon="-3.9431110">
        <ele>603.2</ele>
        <time>2019-04-28T13:33:50Z</time>
      </trkpt>
      <trkpt lat="40.3740770" lon="-3.9431290">
        <ele>603.4</ele>
        <time>2019-04-28T13:33:51Z</time>
      </trkpt>
      <trkpt lat="40.3740180" lon="-3.9431470">
        <ele>603.8</ele>
        <time>2019-04-28T13:33:52Z</time>
      </trkpt>
      <trkpt lat="40.3739540" lon="-3.9431530">
        <ele>604.0</ele>
        <time>2019-04-28T13:33:53Z</time>
      </trkpt>
      <trkpt lat="40.3739020" lon="-3.9431730">
        <ele>605.2</ele>
        <time>2019-04-28T13:33:54Z</time>
      </trkpt>
      <trkpt lat="40.3738470" lon="-3.9432010">
        <ele>605.8</ele>
        <time>2019-04-28T13:33:55Z</time>
      </trkpt>
      <trkpt lat="40.3737980" lon="-3.9432380">
        <ele>605.6</ele>
        <time>2019-04-28T13:33:56Z</time>
      </trkpt>
      <trkpt lat="40.3737480" lon="-3.9432760">
        <ele>605.2</ele>
        <time>2019-04-28T13:33:57Z</time>
      </trkpt>
      <trkpt lat="40.3736900" lon="-3.9433250">
        <ele>605.0</ele>
        <time>2019-04-28T13:33:58Z</time>
      </trkpt>
      <trkpt lat="40.3736410" lon="-3.9433670">
        <ele>604.6</ele>
        <time>2019-04-28T13:33:59Z</time>
      </trkpt>
      <trkpt lat="40.3735840" lon="-3.9434060">
        <ele>604.2</ele>
        <time>2019-04-28T13:34:00Z</time>
      </trkpt>
      <trkpt lat="40.3735190" lon="-3.9434480">
        <ele>603.8</ele>
        <time>2019-04-28T13:34:01Z</time>
      </trkpt>
      <trkpt lat="40.3734520" lon="-3.9434910">
        <ele>603.6</ele>
        <time>2019-04-28T13:34:02Z</time>
      </trkpt>
      <trkpt lat="40.3733810" lon="-3.9435330">
        <ele>603.4</ele>
        <time>2019-04-28T13:34:03Z</time>
      </trkpt>
      <trkpt lat="40.3733170" lon="-3.9435720">
        <ele>603.8</ele>
        <time>2019-04-28T13:34:04Z</time>
      </trkpt>
      <trkpt lat="40.3732520" lon="-3.9436130">
        <ele>603.6</ele>
        <time>2019-04-28T13:34:05Z</time>
      </trkpt>
      <trkpt lat="40.3731950" lon="-3.9436500">
        <ele>603.6</ele>
        <time>2019-04-28T13:34:06Z</time>
      </trkpt>
      <trkpt lat="40.3731380" lon="-3.9436860">
        <ele>603.6</ele>
        <time>2019-04-28T13:34:07Z</time>
      </trkpt>
      <trkpt lat="40.3730830" lon="-3.9437170">
        <ele>603.6</ele>
        <time>2019-04-28T13:34:08Z</time>
      </trkpt>
      <trkpt lat="40.3730210" lon="-3.9437520">
        <ele>603.6</ele>
        <time>2019-04-28T13:34:09Z</time>
      </trkpt>
      <trkpt lat="40.3729550" lon="-3.9437890">
        <ele>603.4</ele>
        <time>2019-04-28T13:34:10Z</time>
      </trkpt>
      <trkpt lat="40.3729000" lon="-3.9438190">
        <ele>603.4</ele>
        <time>2019-04-28T13:34:11Z</time>
      </trkpt>
      <trkpt lat="40.3728420" lon="-3.9438460">
        <ele>603.0</ele>
        <time>2019-04-28T13:34:12Z</time>
      </trkpt>
      <trkpt lat="40.3727820" lon="-3.9438830">
        <ele>603.0</ele>
        <time>2019-04-28T13:34:13Z</time>
      </trkpt>
      <trkpt lat="40.3727280" lon="-3.9439200">
        <ele>603.0</ele>
        <time>2019-04-28T13:34:14Z</time>
      </trkpt>
      <trkpt lat="40.3726710" lon="-3.9439590">
        <ele>603.0</ele>
        <time>2019-04-28T13:34:15Z</time>
      </trkpt>
      <trkpt lat="40.3726220" lon="-3.9439980">
        <ele>603.2</ele>
        <time>2019-04-28T13:34:16Z</time>
      </trkpt>
      <trkpt lat="40.3725830" lon="-3.9440160">
        <ele>603.4</ele>
        <time>2019-04-28T13:34:17Z</time>
      </trkpt>
      <trkpt lat="40.3725220" lon="-3.9440530">
        <ele>603.4</ele>
        <time>2019-04-28T13:34:18Z</time>
      </trkpt>
      <trkpt lat="40.3724670" lon="-3.9440900">
        <ele>603.4</ele>
        <time>2019-04-28T13:34:19Z</time>
      </trkpt>
      <trkpt lat="40.3724120" lon="-3.9441300">
        <ele>603.2</ele>
        <time>2019-04-28T13:34:20Z</time>
      </trkpt>
      <trkpt lat="40.3723490" lon="-3.9441780">
        <ele>603.0</ele>
        <time>2019-04-28T13:34:21Z</time>
      </trkpt>
      <trkpt lat="40.3722920" lon="-3.9442260">
        <ele>603.0</ele>
        <time>2019-04-28T13:34:22Z</time>
      </trkpt>
      <trkpt lat="40.3722350" lon="-3.9442740">
        <ele>603.0</ele>
        <time>2019-04-28T13:34:23Z</time>
      </trkpt>
      <trkpt lat="40.3721840" lon="-3.9443180">
        <ele>602.8</ele>
        <time>2019-04-28T13:34:24Z</time>
      </trkpt>
      <trkpt lat="40.3721230" lon="-3.9443610">
        <ele>602.8</ele>
        <time>2019-04-28T13:34:25Z</time>
      </trkpt>
      <trkpt lat="40.3720660" lon="-3.9444040">
        <ele>603.2</ele>
        <time>2019-04-28T13:34:26Z</time>
      </trkpt>
      <trkpt lat="40.3720270" lon="-3.9444480">
        <ele>603.2</ele>
        <time>2019-04-28T13:34:27Z</time>
      </trkpt>
      <trkpt lat="40.3719740" lon="-3.9444910">
        <ele>603.4</ele>
        <time>2019-04-28T13:34:28Z</time>
      </trkpt>
      <trkpt lat="40.3719330" lon="-3.9445310">
        <ele>603.8</ele>
        <time>2019-04-28T13:34:29Z</time>
      </trkpt>
      <trkpt lat="40.3718830" lon="-3.9445620">
        <ele>604.4</ele>
        <time>2019-04-28T13:34:30Z</time>
      </trkpt>
      <trkpt lat="40.3718300" lon="-3.9445920">
        <ele>604.4</ele>
        <time>2019-04-28T13:34:31Z</time>
      </trkpt>
      <trkpt lat="40.3717710" lon="-3.9446230">
        <ele>604.2</ele>
        <time>2019-04-28T13:34:32Z</time>
      </trkpt>
      <trkpt lat="40.3717120" lon="-3.9446530">
        <ele>604.0</ele>
        <time>2019-04-28T13:34:33Z</time>
      </trkpt>
      <trkpt lat="40.3716640" lon="-3.9446870">
        <ele>604.0</ele>
        <time>2019-04-28T13:34:34Z</time>
      </trkpt>
      <trkpt lat="40.3716120" lon="-3.9447140">
        <ele>604.0</ele>
        <time>2019-04-28T13:34:35Z</time>
      </trkpt>
      <trkpt lat="40.3715510" lon="-3.9447470">
        <ele>603.6</ele>
        <time>2019-04-28T13:34:36Z</time>
      </trkpt>
      <trkpt lat="40.3715020" lon="-3.9447760">
        <ele>603.4</ele>
        <time>2019-04-28T13:34:37Z</time>
      </trkpt>
      <trkpt lat="40.3714410" lon="-3.9448070">
        <ele>603.2</ele>
        <time>2019-04-28T13:34:38Z</time>
      </trkpt>
      <trkpt lat="40.3713910" lon="-3.9448470">
        <ele>603.2</ele>
        <time>2019-04-28T13:34:39Z</time>
      </trkpt>
      <trkpt lat="40.3713500" lon="-3.9448610">
        <ele>603.0</ele>
        <time>2019-04-28T13:34:40Z</time>
      </trkpt>
      <trkpt lat="40.3712940" lon="-3.9448660">
        <ele>603.0</ele>
        <time>2019-04-28T13:34:41Z</time>
      </trkpt>
      <trkpt lat="40.3712330" lon="-3.9448670">
        <ele>603.0</ele>
        <time>2019-04-28T13:34:42Z</time>
      </trkpt>
      <trkpt lat="40.3711730" lon="-3.9448620">
        <ele>603.2</ele>
        <time>2019-04-28T13:34:43Z</time>
      </trkpt>
      <trkpt lat="40.3711050" lon="-3.9448510">
        <ele>603.4</ele>
        <time>2019-04-28T13:34:44Z</time>
      </trkpt>
      <trkpt lat="40.3710430" lon="-3.9448360">
        <ele>603.2</ele>
        <time>2019-04-28T13:34:45Z</time>
      </trkpt>
      <trkpt lat="40.3709760" lon="-3.9448110">
        <ele>603.0</ele>
        <time>2019-04-28T13:34:46Z</time>
      </trkpt>
      <trkpt lat="40.3709160" lon="-3.9447900">
        <ele>602.8</ele>
        <time>2019-04-28T13:34:47Z</time>
      </trkpt>
      <trkpt lat="40.3708520" lon="-3.9447730">
        <ele>602.8</ele>
        <time>2019-04-28T13:34:48Z</time>
      </trkpt>
      <trkpt lat="40.3707920" lon="-3.9447610">
        <ele>602.8</ele>
        <time>2019-04-28T13:34:49Z</time>
      </trkpt>
      <trkpt lat="40.3707350" lon="-3.9447650">
        <ele>603.0</ele>
        <time>2019-04-28T13:34:50Z</time>
      </trkpt>
      <trkpt lat="40.3706780" lon="-3.9447760">
        <ele>603.4</ele>
        <time>2019-04-28T13:34:51Z</time>
      </trkpt>
      <trkpt lat="40.3706270" lon="-3.9447910">
        <ele>603.6</ele>
        <time>2019-04-28T13:34:52Z</time>
      </trkpt>
      <trkpt lat="40.3705850" lon="-3.9448030">
        <ele>603.8</ele>
        <time>2019-04-28T13:34:53Z</time>
      </trkpt>
      <trkpt lat="40.3705400" lon="-3.9448070">
        <ele>604.2</ele>
        <time>2019-04-28T13:34:54Z</time>
      </trkpt>
      <trkpt lat="40.3705110" lon="-3.9447950">
        <ele>604.6</ele>
        <time>2019-04-28T13:34:55Z</time>
      </trkpt>
      <trkpt lat="40.3704610" lon="-3.9447920">
        <ele>605.2</ele>
        <time>2019-04-28T13:34:56Z</time>
      </trkpt>
      <trkpt lat="40.3704050" lon="-3.9448000">
        <ele>605.8</ele>
        <time>2019-04-28T13:34:57Z</time>
      </trkpt>
      <trkpt lat="40.3703680" lon="-3.9447970">
        <ele>606.2</ele>
        <time>2019-04-28T13:34:58Z</time>
      </trkpt>
      <trkpt lat="40.3703390" lon="-3.9448000">
        <ele>606.6</ele>
        <time>2019-04-28T13:34:59Z</time>
      </trkpt>
      <trkpt lat="40.3703060" lon="-3.9447940">
        <ele>606.8</ele>
        <time>2019-04-28T13:35:00Z</time>
      </trkpt>
      <trkpt lat="40.3702620" lon="-3.9447960">
        <ele>607.2</ele>
        <time>2019-04-28T13:35:01Z</time>
      </trkpt>
      <trkpt lat="40.3702230" lon="-3.9447990">
        <ele>607.4</ele>
        <time>2019-04-28T13:35:02Z</time>
      </trkpt>
      <trkpt lat="40.3701870" lon="-3.9447970">
        <ele>607.2</ele>
        <time>2019-04-28T13:35:03Z</time>
      </trkpt>
      <trkpt lat="40.3701460" lon="-3.9448000">
        <ele>606.8</ele>
        <time>2019-04-28T13:35:04Z</time>
      </trkpt>
      <trkpt lat="40.3701080" lon="-3.9448040">
        <ele>606.6</ele>
        <time>2019-04-28T13:35:05Z</time>
      </trkpt>
      <trkpt lat="40.3700630" lon="-3.9448030">
        <ele>606.4</ele>
        <time>2019-04-28T13:35:06Z</time>
      </trkpt>
      <trkpt lat="40.3700170" lon="-3.9447970">
        <ele>606.2</ele>
        <time>2019-04-28T13:35:07Z</time>
      </trkpt>
      <trkpt lat="40.3699670" lon="-3.9447970">
        <ele>605.8</ele>
        <time>2019-04-28T13:35:08Z</time>
      </trkpt>
      <trkpt lat="40.3699310" lon="-3.9448290">
        <ele>605.6</ele>
        <time>2019-04-28T13:35:09Z</time>
      </trkpt>
      <trkpt lat="40.3698970" lon="-3.9448580">
        <ele>605.2</ele>
        <time>2019-04-28T13:35:10Z</time>
      </trkpt>
      <trkpt lat="40.3698240" lon="-3.9448830">
        <ele>605.2</ele>
        <time>2019-04-28T13:35:11Z</time>
      </trkpt>
      <trkpt lat="40.3697920" lon="-3.9449020">
        <ele>605.0</ele>
        <time>2019-04-28T13:35:12Z</time>
      </trkpt>
      <trkpt lat="40.3697330" lon="-3.9449320">
        <ele>604.8</ele>
        <time>2019-04-28T13:35:13Z</time>
      </trkpt>
      <trkpt lat="40.3696980" lon="-3.9449550">
        <ele>605.0</ele>
        <time>2019-04-28T13:35:14Z</time>
      </trkpt>
      <trkpt lat="40.3696410" lon="-3.9449760">
        <ele>605.2</ele>
        <time>2019-04-28T13:35:15Z</time>
      </trkpt>
      <trkpt lat="40.3696120" lon="-3.9449840">
        <ele>605.4</ele>
        <time>2019-04-28T13:35:16Z</time>
      </trkpt>
      <trkpt lat="40.3695790" lon="-3.9449890">
        <ele>605.4</ele>
        <time>2019-04-28T13:35:17Z</time>
      </trkpt>
      <trkpt lat="40.3695390" lon="-3.9449880">
        <ele>605.2</ele>
        <time>2019-04-28T13:35:18Z</time>
      </trkpt>
      <trkpt lat="40.3695010" lon="-3.9450000">
        <ele>605.6</ele>
        <time>2019-04-28T13:35:19Z</time>
      </trkpt>
      <trkpt lat="40.3694650" lon="-3.9450180">
        <ele>605.8</ele>
        <time>2019-04-28T13:35:20Z</time>
      </trkpt>
      <trkpt lat="40.3694190" lon="-3.9450310">
        <ele>605.6</ele>
        <time>2019-04-28T13:35:21Z</time>
      </trkpt>
      <trkpt lat="40.3693670" lon="-3.9450510">
        <ele>605.4</ele>
        <time>2019-04-28T13:35:22Z</time>
      </trkpt>
      <trkpt lat="40.3693170" lon="-3.9450750">
        <ele>605.4</ele>
        <time>2019-04-28T13:35:23Z</time>
      </trkpt>
      <trkpt lat="40.3692630" lon="-3.9451040">
        <ele>605.2</ele>
        <time>2019-04-28T13:35:24Z</time>
      </trkpt>
      <trkpt lat="40.3692130" lon="-3.9451250">
        <ele>605.4</ele>
        <time>2019-04-28T13:35:25Z</time>
      </trkpt>
      <trkpt lat="40.3691590" lon="-3.9451500">
        <ele>605.4</ele>
        <time>2019-04-28T13:35:26Z</time>
      </trkpt>
      <trkpt lat="40.3691030" lon="-3.9451700">
        <ele>605.2</ele>
        <time>2019-04-28T13:35:27Z</time>
      </trkpt>
      <trkpt lat="40.3690420" lon="-3.9451850">
        <ele>605.2</ele>
        <time>2019-04-28T13:35:28Z</time>
      </trkpt>
      <trkpt lat="40.3689910" lon="-3.9451870">
        <ele>605.0</ele>
        <time>2019-04-28T13:35:29Z</time>
      </trkpt>
      <trkpt lat="40.3689550" lon="-3.9451810">
        <ele>605.2</ele>
        <time>2019-04-28T13:35:30Z</time>
      </trkpt>
      <trkpt lat="40.3689260" lon="-3.9451590">
        <ele>605.4</ele>
        <time>2019-04-28T13:35:31Z</time>
      </trkpt>
      <trkpt lat="40.3688950" lon="-3.9451300">
        <ele>605.4</ele>
        <time>2019-04-28T13:35:32Z</time>
      </trkpt>
      <trkpt lat="40.3688710" lon="-3.9451020">
        <ele>605.6</ele>
        <time>2019-04-28T13:35:33Z</time>
      </trkpt>
      <trkpt lat="40.3688530" lon="-3.9450920">
        <ele>605.8</ele>
        <time>2019-04-28T13:35:34Z</time>
      </trkpt>
      <trkpt lat="40.3688340" lon="-3.9450810">
        <ele>606.0</ele>
        <time>2019-04-28T13:35:35Z</time>
      </trkpt>
      <trkpt lat="40.3688200" lon="-3.9450710">
        <ele>605.8</ele>
        <time>2019-04-28T13:35:36Z</time>
      </trkpt>
      <trkpt lat="40.3688060" lon="-3.9450540">
        <ele>605.8</ele>
        <time>2019-04-28T13:35:37Z</time>
      </trkpt>
      <trkpt lat="40.3687920" lon="-3.9450320">
        <ele>606.0</ele>
        <time>2019-04-28T13:35:38Z</time>
      </trkpt>
      <trkpt lat="40.3687690" lon="-3.9450040">
        <ele>606.0</ele>
        <time>2019-04-28T13:35:39Z</time>
      </trkpt>
      <trkpt lat="40.3687450" lon="-3.9449840">
        <ele>606.0</ele>
        <time>2019-04-28T13:35:40Z</time>
      </trkpt>
      <trkpt lat="40.3687160" lon="-3.9449610">
        <ele>606.2</ele>
        <time>2019-04-28T13:35:41Z</time>
      </trkpt>
      <trkpt lat="40.3686870" lon="-3.9449370">
        <ele>606.2</ele>
        <time>2019-04-28T13:35:42Z</time>
      </trkpt>
      <trkpt lat="40.3686590" lon="-3.9449100">
        <ele>606.2</ele>
        <time>2019-04-28T13:35:43Z</time>
      </trkpt>
      <trkpt lat="40.3686250" lon="-3.9448820">
        <ele>606.2</ele>
        <time>2019-04-28T13:35:44Z</time>
      </trkpt>
      <trkpt lat="40.3685950" lon="-3.9448520">
        <ele>606.2</ele>
        <time>2019-04-28T13:35:45Z</time>
      </trkpt>
      <trkpt lat="40.3685570" lon="-3.9448230">
        <ele>606.2</ele>
        <time>2019-04-28T13:35:46Z</time>
      </trkpt>
      <trkpt lat="40.3685210" lon="-3.9448040">
        <ele>606.2</ele>
        <time>2019-04-28T13:35:47Z</time>
      </trkpt>
      <trkpt lat="40.3684780" lon="-3.9447820">
        <ele>606.2</ele>
        <time>2019-04-28T13:35:48Z</time>
      </trkpt>
      <trkpt lat="40.3684220" lon="-3.9447510">
        <ele>606.0</ele>
        <time>2019-04-28T13:35:49Z</time>
      </trkpt>
      <trkpt lat="40.3683700" lon="-3.9447280">
        <ele>606.2</ele>
        <time>2019-04-28T13:35:50Z</time>
      </trkpt>
      <trkpt lat="40.3683180" lon="-3.9447060">
        <ele>606.0</ele>
        <time>2019-04-28T13:35:51Z</time>
      </trkpt>
      <trkpt lat="40.3682660" lon="-3.9446940">
        <ele>606.0</ele>
        <time>2019-04-28T13:35:52Z</time>
      </trkpt>
      <trkpt lat="40.3682040" lon="-3.9446670">
        <ele>606.0</ele>
        <time>2019-04-28T13:35:53Z</time>
      </trkpt>
      <trkpt lat="40.3681490" lon="-3.9446460">
        <ele>605.8</ele>
        <time>2019-04-28T13:35:54Z</time>
      </trkpt>
      <trkpt lat="40.3680850" lon="-3.9446220">
        <ele>606.0</ele>
        <time>2019-04-28T13:35:55Z</time>
      </trkpt>
      <trkpt lat="40.3680310" lon="-3.9446040">
        <ele>605.8</ele>
        <time>2019-04-28T13:35:56Z</time>
      </trkpt>
      <trkpt lat="40.3679800" lon="-3.9445870">
        <ele>605.8</ele>
        <time>2019-04-28T13:35:57Z</time>
      </trkpt>
      <trkpt lat="40.3679470" lon="-3.9445700">
        <ele>605.8</ele>
        <time>2019-04-28T13:35:58Z</time>
      </trkpt>
      <trkpt lat="40.3678880" lon="-3.9445680">
        <ele>605.8</ele>
        <time>2019-04-28T13:35:59Z</time>
      </trkpt>
      <trkpt lat="40.3678300" lon="-3.9445630">
        <ele>605.6</ele>
        <time>2019-04-28T13:36:00Z</time>
      </trkpt>
      <trkpt lat="40.3677790" lon="-3.9445590">
        <ele>605.6</ele>
        <time>2019-04-28T13:36:01Z</time>
      </trkpt>
      <trkpt lat="40.3677190" lon="-3.9445560">
        <ele>605.6</ele>
        <time>2019-04-28T13:36:02Z</time>
      </trkpt>
      <trkpt lat="40.3676630" lon="-3.9445450">
        <ele>605.4</ele>
        <time>2019-04-28T13:36:03Z</time>
      </trkpt>
      <trkpt lat="40.3676060" lon="-3.9445360">
        <ele>605.6</ele>
        <time>2019-04-28T13:36:04Z</time>
      </trkpt>
      <trkpt lat="40.3675450" lon="-3.9445350">
        <ele>605.6</ele>
        <time>2019-04-28T13:36:05Z</time>
      </trkpt>
      <trkpt lat="40.3674910" lon="-3.9445240">
        <ele>605.6</ele>
        <time>2019-04-28T13:36:06Z</time>
      </trkpt>
      <trkpt lat="40.3674430" lon="-3.9445110">
        <ele>605.4</ele>
        <time>2019-04-28T13:36:07Z</time>
      </trkpt>
      <trkpt lat="40.3673900" lon="-3.9445040">
        <ele>605.4</ele>
        <time>2019-04-28T13:36:08Z</time>
      </trkpt>
      <trkpt lat="40.3673490" lon="-3.9444840">
        <ele>605.4</ele>
        <time>2019-04-28T13:36:09Z</time>
      </trkpt>
      <trkpt lat="40.3672970" lon="-3.9444730">
        <ele>605.4</ele>
        <time>2019-04-28T13:36:10Z</time>
      </trkpt>
      <trkpt lat="40.3672480" lon="-3.9444700">
        <ele>605.4</ele>
        <time>2019-04-28T13:36:11Z</time>
      </trkpt>
      <trkpt lat="40.3671960" lon="-3.9444610">
        <ele>605.4</ele>
        <time>2019-04-28T13:36:12Z</time>
      </trkpt>
      <trkpt lat="40.3671550" lon="-3.9444500">
        <ele>605.4</ele>
        <time>2019-04-28T13:36:13Z</time>
      </trkpt>
      <trkpt lat="40.3671080" lon="-3.9444370">
        <ele>605.4</ele>
        <time>2019-04-28T13:36:14Z</time>
      </trkpt>
      <trkpt lat="40.3670660" lon="-3.9444190">
        <ele>605.4</ele>
        <time>2019-04-28T13:36:15Z</time>
      </trkpt>
      <trkpt lat="40.3670070" lon="-3.9444120">
        <ele>605.6</ele>
        <time>2019-04-28T13:36:16Z</time>
      </trkpt>
      <trkpt lat="40.3669460" lon="-3.9444110">
        <ele>605.6</ele>
        <time>2019-04-28T13:36:17Z</time>
      </trkpt>
      <trkpt lat="40.3668800" lon="-3.9444120">
        <ele>605.6</ele>
        <time>2019-04-28T13:36:18Z</time>
      </trkpt>
      <trkpt lat="40.3668130" lon="-3.9444090">
        <ele>605.4</ele>
        <time>2019-04-28T13:36:19Z</time>
      </trkpt>
      <trkpt lat="40.3667460" lon="-3.9444070">
        <ele>605.4</ele>
        <time>2019-04-28T13:36:20Z</time>
      </trkpt>
      <trkpt lat="40.3666780" lon="-3.9444100">
        <ele>605.4</ele>
        <time>2019-04-28T13:36:21Z</time>
      </trkpt>
      <trkpt lat="40.3666180" lon="-3.9444060">
        <ele>605.4</ele>
        <time>2019-04-28T13:36:22Z</time>
      </trkpt>
      <trkpt lat="40.3665530" lon="-3.9443970">
        <ele>605.4</ele>
        <time>2019-04-28T13:36:23Z</time>
      </trkpt>
      <trkpt lat="40.3664850" lon="-3.9443920">
        <ele>605.4</ele>
        <time>2019-04-28T13:36:24Z</time>
      </trkpt>
      <trkpt lat="40.3664200" lon="-3.9443860">
        <ele>605.4</ele>
        <time>2019-04-28T13:36:25Z</time>
      </trkpt>
      <trkpt lat="40.3663560" lon="-3.9443760">
        <ele>605.2</ele>
        <time>2019-04-28T13:36:26Z</time>
      </trkpt>
      <trkpt lat="40.3662920" lon="-3.9443710">
        <ele>605.2</ele>
        <time>2019-04-28T13:36:27Z</time>
      </trkpt>
      <trkpt lat="40.3662340" lon="-3.9443680">
        <ele>605.2</ele>
        <time>2019-04-28T13:36:28Z</time>
      </trkpt>
      <trkpt lat="40.3661710" lon="-3.9443600">
        <ele>605.0</ele>
        <time>2019-04-28T13:36:29Z</time>
      </trkpt>
      <trkpt lat="40.3661110" lon="-3.9443510">
        <ele>605.0</ele>
        <time>2019-04-28T13:36:30Z</time>
      </trkpt>
      <trkpt lat="40.3660450" lon="-3.9443510">
        <ele>605.0</ele>
        <time>2019-04-28T13:36:31Z</time>
      </trkpt>
      <trkpt lat="40.3659800" lon="-3.9443460">
        <ele>605.0</ele>
        <time>2019-04-28T13:36:32Z</time>
      </trkpt>
      <trkpt lat="40.3659150" lon="-3.9443410">
        <ele>604.8</ele>
        <time>2019-04-28T13:36:33Z</time>
      </trkpt>
      <trkpt lat="40.3658520" lon="-3.9443370">
        <ele>604.8</ele>
        <time>2019-04-28T13:36:34Z</time>
      </trkpt>
      <trkpt lat="40.3657890" lon="-3.9443310">
        <ele>604.6</ele>
        <time>2019-04-28T13:36:35Z</time>
      </trkpt>
      <trkpt lat="40.3657300" lon="-3.9443250">
        <ele>604.8</ele>
        <time>2019-04-28T13:36:36Z</time>
      </trkpt>
      <trkpt lat="40.3656780" lon="-3.9443120">
        <ele>604.8</ele>
        <time>2019-04-28T13:36:37Z</time>
      </trkpt>
      <trkpt lat="40.3656190" lon="-3.9443050">
        <ele>604.8</ele>
        <time>2019-04-28T13:36:38Z</time>
      </trkpt>
      <trkpt lat="40.3655620" lon="-3.9442940">
        <ele>604.8</ele>
        <time>2019-04-28T13:36:39Z</time>
      </trkpt>
      <trkpt lat="40.3654990" lon="-3.9442890">
        <ele>605.0</ele>
        <time>2019-04-28T13:36:40Z</time>
      </trkpt>
      <trkpt lat="40.3654330" lon="-3.9442850">
        <ele>605.0</ele>
        <time>2019-04-28T13:36:41Z</time>
      </trkpt>
      <trkpt lat="40.3653680" lon="-3.9442820">
        <ele>604.8</ele>
        <time>2019-04-28T13:36:42Z</time>
      </trkpt>
      <trkpt lat="40.3653040" lon="-3.9442780">
        <ele>604.8</ele>
        <time>2019-04-28T13:36:43Z</time>
      </trkpt>
      <trkpt lat="40.3652410" lon="-3.9442730">
        <ele>604.6</ele>
        <time>2019-04-28T13:36:44Z</time>
      </trkpt>
      <trkpt lat="40.3651720" lon="-3.9442750">
        <ele>604.6</ele>
        <time>2019-04-28T13:36:45Z</time>
      </trkpt>
      <trkpt lat="40.3650970" lon="-3.9442790">
        <ele>604.6</ele>
        <time>2019-04-28T13:36:46Z</time>
      </trkpt>
      <trkpt lat="40.3650340" lon="-3.9442820">
        <ele>604.6</ele>
        <time>2019-04-28T13:36:47Z</time>
      </trkpt>
      <trkpt lat="40.3649730" lon="-3.9442840">
        <ele>604.4</ele>
        <time>2019-04-28T13:36:48Z</time>
      </trkpt>
      <trkpt lat="40.3649130" lon="-3.9442850">
        <ele>604.4</ele>
        <time>2019-04-28T13:36:49Z</time>
      </trkpt>
      <trkpt lat="40.3648500" lon="-3.9442820">
        <ele>604.2</ele>
        <time>2019-04-28T13:36:50Z</time>
      </trkpt>
      <trkpt lat="40.3647880" lon="-3.9442790">
        <ele>604.2</ele>
        <time>2019-04-28T13:36:51Z</time>
      </trkpt>
      <trkpt lat="40.3647240" lon="-3.9442760">
        <ele>604.0</ele>
        <time>2019-04-28T13:36:52Z</time>
      </trkpt>
      <trkpt lat="40.3646580" lon="-3.9442790">
        <ele>604.0</ele>
        <time>2019-04-28T13:36:53Z</time>
      </trkpt>
      <trkpt lat="40.3645900" lon="-3.9442870">
        <ele>604.2</ele>
        <time>2019-04-28T13:36:54Z</time>
      </trkpt>
      <trkpt lat="40.3645210" lon="-3.9442970">
        <ele>604.2</ele>
        <time>2019-04-28T13:36:55Z</time>
      </trkpt>
      <trkpt lat="40.3644540" lon="-3.9443100">
        <ele>604.4</ele>
        <time>2019-04-28T13:36:56Z</time>
      </trkpt>
      <trkpt lat="40.3643900" lon="-3.9443190">
        <ele>604.4</ele>
        <time>2019-04-28T13:36:57Z</time>
      </trkpt>
      <trkpt lat="40.3643300" lon="-3.9443300">
        <ele>604.4</ele>
        <time>2019-04-28T13:36:58Z</time>
      </trkpt>
      <trkpt lat="40.3642690" lon="-3.9443440">
        <ele>604.6</ele>
        <time>2019-04-28T13:36:59Z</time>
      </trkpt>
      <trkpt lat="40.3642080" lon="-3.9443540">
        <ele>604.8</ele>
        <time>2019-04-28T13:37:00Z</time>
      </trkpt>
      <trkpt lat="40.3641410" lon="-3.9443660">
        <ele>604.8</ele>
        <time>2019-04-28T13:37:01Z</time>
      </trkpt>
      <trkpt lat="40.3640790" lon="-3.9443680">
        <ele>605.0</ele>
        <time>2019-04-28T13:37:02Z</time>
      </trkpt>
      <trkpt lat="40.3640190" lon="-3.9443540">
        <ele>605.2</ele>
        <time>2019-04-28T13:37:03Z</time>
      </trkpt>
      <trkpt lat="40.3639630" lon="-3.9443300">
        <ele>605.4</ele>
        <time>2019-04-28T13:37:04Z</time>
      </trkpt>
      <trkpt lat="40.3639100" lon="-3.9442980">
        <ele>605.4</ele>
        <time>2019-04-28T13:37:05Z</time>
      </trkpt>
      <trkpt lat="40.3638630" lon="-3.9442590">
        <ele>605.6</ele>
        <time>2019-04-28T13:37:06Z</time>
      </trkpt>
      <trkpt lat="40.3638130" lon="-3.9442290">
        <ele>606.0</ele>
        <time>2019-04-28T13:37:07Z</time>
      </trkpt>
      <trkpt lat="40.3637800" lon="-3.9441890">
        <ele>606.2</ele>
        <time>2019-04-28T13:37:08Z</time>
      </trkpt>
      <trkpt lat="40.3637440" lon="-3.9441480">
        <ele>606.2</ele>
        <time>2019-04-28T13:37:09Z</time>
      </trkpt>
      <trkpt lat="40.3637110" lon="-3.9441110">
        <ele>606.4</ele>
        <time>2019-04-28T13:37:10Z</time>
      </trkpt>
      <trkpt lat="40.3636810" lon="-3.9440820">
        <ele>606.6</ele>
        <time>2019-04-28T13:37:11Z</time>
      </trkpt>
      <trkpt lat="40.3636490" lon="-3.9440560">
        <ele>606.8</ele>
        <time>2019-04-28T13:37:12Z</time>
      </trkpt>
      <trkpt lat="40.3636160" lon="-3.9440240">
        <ele>607.0</ele>
        <time>2019-04-28T13:37:13Z</time>
      </trkpt>
      <trkpt lat="40.3635770" lon="-3.9439990">
        <ele>607.6</ele>
        <time>2019-04-28T13:37:14Z</time>
      </trkpt>
      <trkpt lat="40.3635360" lon="-3.9439790">
        <ele>608.0</ele>
        <time>2019-04-28T13:37:15Z</time>
      </trkpt>
      <trkpt lat="40.3635010" lon="-3.9439650">
        <ele>608.0</ele>
        <time>2019-04-28T13:37:16Z</time>
      </trkpt>
      <trkpt lat="40.3634690" lon="-3.9439510">
        <ele>608.2</ele>
        <time>2019-04-28T13:37:17Z</time>
      </trkpt>
      <trkpt lat="40.3634330" lon="-3.9439320">
        <ele>608.6</ele>
        <time>2019-04-28T13:37:18Z</time>
      </trkpt>
      <trkpt lat="40.3633970" lon="-3.9439110">
        <ele>608.8</ele>
        <time>2019-04-28T13:37:19Z</time>
      </trkpt>
      <trkpt lat="40.3633620" lon="-3.9438920">
        <ele>609.0</ele>
        <time>2019-04-28T13:37:20Z</time>
      </trkpt>
      <trkpt lat="40.3633270" lon="-3.9438720">
        <ele>609.2</ele>
        <time>2019-04-28T13:37:21Z</time>
      </trkpt>
      <trkpt lat="40.3632940" lon="-3.9438490">
        <ele>609.4</ele>
        <time>2019-04-28T13:37:22Z</time>
      </trkpt>
      <trkpt lat="40.3632630" lon="-3.9438260">
        <ele>609.6</ele>
        <time>2019-04-28T13:37:23Z</time>
      </trkpt>
      <trkpt lat="40.3632340" lon="-3.9438030">
        <ele>610.0</ele>
        <time>2019-04-28T13:37:24Z</time>
      </trkpt>
      <trkpt lat="40.3632020" lon="-3.9437790">
        <ele>610.2</ele>
        <time>2019-04-28T13:37:25Z</time>
      </trkpt>
      <trkpt lat="40.3631730" lon="-3.9437550">
        <ele>610.4</ele>
        <time>2019-04-28T13:37:26Z</time>
      </trkpt>
      <trkpt lat="40.3631480" lon="-3.9437340">
        <ele>610.6</ele>
        <time>2019-04-28T13:37:27Z</time>
      </trkpt>
      <trkpt lat="40.3631260" lon="-3.9437170">
        <ele>610.8</ele>
        <time>2019-04-28T13:37:28Z</time>
      </trkpt>
      <trkpt lat="40.3631040" lon="-3.9436980">
        <ele>611.0</ele>
        <time>2019-04-28T13:37:29Z</time>
      </trkpt>
      <trkpt lat="40.3630820" lon="-3.9436780">
        <ele>611.2</ele>
        <time>2019-04-28T13:37:30Z</time>
      </trkpt>
      <trkpt lat="40.3630560" lon="-3.9436530">
        <ele>611.2</ele>
        <time>2019-04-28T13:37:31Z</time>
      </trkpt>
      <trkpt lat="40.3630300" lon="-3.9436270">
        <ele>611.4</ele>
        <time>2019-04-28T13:37:32Z</time>
      </trkpt>
      <trkpt lat="40.3630020" lon="-3.9436040">
        <ele>611.6</ele>
        <time>2019-04-28T13:37:33Z</time>
      </trkpt>
      <trkpt lat="40.3629720" lon="-3.9435790">
        <ele>612.0</ele>
        <time>2019-04-28T13:37:34Z</time>
      </trkpt>
      <trkpt lat="40.3629460" lon="-3.9435490">
        <ele>612.0</ele>
        <time>2019-04-28T13:37:35Z</time>
      </trkpt>
      <trkpt lat="40.3629170" lon="-3.9435200">
        <ele>612.2</ele>
        <time>2019-04-28T13:37:36Z</time>
      </trkpt>
      <trkpt lat="40.3628900" lon="-3.9434880">
        <ele>612.6</ele>
        <time>2019-04-28T13:37:37Z</time>
      </trkpt>
      <trkpt lat="40.3628680" lon="-3.9434580">
        <ele>612.8</ele>
        <time>2019-04-28T13:37:38Z</time>
      </trkpt>
      <trkpt lat="40.3628420" lon="-3.9434250">
        <ele>613.0</ele>
        <time>2019-04-28T13:37:39Z</time>
      </trkpt>
      <trkpt lat="40.3628190" lon="-3.9433960">
        <ele>613.2</ele>
        <time>2019-04-28T13:37:40Z</time>
      </trkpt>
      <trkpt lat="40.3627940" lon="-3.9433660">
        <ele>613.4</ele>
        <time>2019-04-28T13:37:41Z</time>
      </trkpt>
      <trkpt lat="40.3627730" lon="-3.9433340">
        <ele>613.6</ele>
        <time>2019-04-28T13:37:42Z</time>
      </trkpt>
      <trkpt lat="40.3627470" lon="-3.9433010">
        <ele>613.8</ele>
        <time>2019-04-28T13:37:43Z</time>
      </trkpt>
      <trkpt lat="40.3627220" lon="-3.9432700">
        <ele>614.0</ele>
        <time>2019-04-28T13:37:44Z</time>
      </trkpt>
      <trkpt lat="40.3626970" lon="-3.9432420">
        <ele>614.2</ele>
        <time>2019-04-28T13:37:45Z</time>
      </trkpt>
      <trkpt lat="40.3627030" lon="-3.9432220">
        <ele>614.4</ele>
        <time>2019-04-28T13:37:46Z</time>
      </trkpt>
      <trkpt lat="40.3626750" lon="-3.9431910">
        <ele>614.4</ele>
        <time>2019-04-28T13:37:47Z</time>
      </trkpt>
      <trkpt lat="40.3626460" lon="-3.9431620">
        <ele>614.6</ele>
        <time>2019-04-28T13:37:48Z</time>
      </trkpt>
      <trkpt lat="40.3626160" lon="-3.9431310">
        <ele>614.8</ele>
        <time>2019-04-28T13:37:49Z</time>
      </trkpt>
      <trkpt lat="40.3625810" lon="-3.9430990">
        <ele>614.8</ele>
        <time>2019-04-28T13:37:50Z</time>
      </trkpt>
      <trkpt lat="40.3625460" lon="-3.9430710">
        <ele>614.8</ele>
        <time>2019-04-28T13:37:51Z</time>
      </trkpt>
      <trkpt lat="40.3625090" lon="-3.9430400">
        <ele>615.0</ele>
        <time>2019-04-28T13:37:52Z</time>
      </trkpt>
      <trkpt lat="40.3624680" lon="-3.9430110">
        <ele>615.2</ele>
        <time>2019-04-28T13:37:53Z</time>
      </trkpt>
      <trkpt lat="40.3624260" lon="-3.9429990">
        <ele>615.4</ele>
        <time>2019-04-28T13:37:54Z</time>
      </trkpt>
      <trkpt lat="40.3623830" lon="-3.9430090">
        <ele>615.4</ele>
        <time>2019-04-28T13:37:55Z</time>
      </trkpt>
      <trkpt lat="40.3623380" lon="-3.9430340">
        <ele>615.6</ele>
        <time>2019-04-28T13:37:56Z</time>
      </trkpt>
      <trkpt lat="40.3622980" lon="-3.9430700">
        <ele>615.6</ele>
        <time>2019-04-28T13:37:57Z</time>
      </trkpt>
      <trkpt lat="40.3622630" lon="-3.9431090">
        <ele>615.6</ele>
        <time>2019-04-28T13:37:58Z</time>
      </trkpt>
      <trkpt lat="40.3622300" lon="-3.9431500">
        <ele>615.6</ele>
        <time>2019-04-28T13:37:59Z</time>
      </trkpt>
      <trkpt lat="40.3621970" lon="-3.9431880">
        <ele>615.6</ele>
        <time>2019-04-28T13:38:00Z</time>
      </trkpt>
      <trkpt lat="40.3621660" lon="-3.9432250">
        <ele>615.6</ele>
        <time>2019-04-28T13:38:01Z</time>
      </trkpt>
      <trkpt lat="40.3621340" lon="-3.9432650">
        <ele>615.8</ele>
        <time>2019-04-28T13:38:02Z</time>
      </trkpt>
      <trkpt lat="40.3621020" lon="-3.9433010">
        <ele>615.8</ele>
        <time>2019-04-28T13:38:03Z</time>
      </trkpt>
      <trkpt lat="40.3620720" lon="-3.9433400">
        <ele>615.8</ele>
        <time>2019-04-28T13:38:04Z</time>
      </trkpt>
      <trkpt lat="40.3620420" lon="-3.9433770">
        <ele>615.8</ele>
        <time>2019-04-28T13:38:05Z</time>
      </trkpt>
      <trkpt lat="40.3620200" lon="-3.9434240">
        <ele>615.8</ele>
        <time>2019-04-28T13:38:06Z</time>
      </trkpt>
      <trkpt lat="40.3620080" lon="-3.9434790">
        <ele>615.8</ele>
        <time>2019-04-28T13:38:07Z</time>
      </trkpt>
      <trkpt lat="40.3620030" lon="-3.9435380">
        <ele>616.0</ele>
        <time>2019-04-28T13:38:08Z</time>
      </trkpt>
      <trkpt lat="40.3620000" lon="-3.9435980">
        <ele>615.8</ele>
        <time>2019-04-28T13:38:09Z</time>
      </trkpt>
      <trkpt lat="40.3619890" lon="-3.9436620">
        <ele>615.8</ele>
        <time>2019-04-28T13:38:10Z</time>
      </trkpt>
      <trkpt lat="40.3619710" lon="-3.9437260">
        <ele>616.0</ele>
        <time>2019-04-28T13:38:11Z</time>
      </trkpt>
      <trkpt lat="40.3619440" lon="-3.9437840">
        <ele>616.0</ele>
        <time>2019-04-28T13:38:12Z</time>
      </trkpt>
      <trkpt lat="40.3619080" lon="-3.9438350">
        <ele>616.2</ele>
        <time>2019-04-28T13:38:13Z</time>
      </trkpt>
      <trkpt lat="40.3618640" lon="-3.9438730">
        <ele>616.2</ele>
        <time>2019-04-28T13:38:14Z</time>
      </trkpt>
      <trkpt lat="40.3618140" lon="-3.9438920">
        <ele>616.4</ele>
        <time>2019-04-28T13:38:15Z</time>
      </trkpt>
      <trkpt lat="40.3617600" lon="-3.9438950">
        <ele>616.4</ele>
        <time>2019-04-28T13:38:16Z</time>
      </trkpt>
      <trkpt lat="40.3617070" lon="-3.9438820">
        <ele>616.4</ele>
        <time>2019-04-28T13:38:17Z</time>
      </trkpt>
      <trkpt lat="40.3616570" lon="-3.9438530">
        <ele>616.8</ele>
        <time>2019-04-28T13:38:18Z</time>
      </trkpt>
      <trkpt lat="40.3616170" lon="-3.9438120">
        <ele>616.6</ele>
        <time>2019-04-28T13:38:19Z</time>
      </trkpt>
      <trkpt lat="40.3615820" lon="-3.9437720">
        <ele>616.6</ele>
        <time>2019-04-28T13:38:20Z</time>
      </trkpt>
      <trkpt lat="40.3615440" lon="-3.9437410">
        <ele>616.6</ele>
        <time>2019-04-28T13:38:21Z</time>
      </trkpt>
      <trkpt lat="40.3615080" lon="-3.9437110">
        <ele>616.4</ele>
        <time>2019-04-28T13:38:22Z</time>
      </trkpt>
      <trkpt lat="40.3614770" lon="-3.9436790">
        <ele>616.4</ele>
        <time>2019-04-28T13:38:23Z</time>
      </trkpt>
      <trkpt lat="40.3614500" lon="-3.9436470">
        <ele>616.4</ele>
        <time>2019-04-28T13:38:24Z</time>
      </trkpt>
      <trkpt lat="40.3614250" lon="-3.9436140">
        <ele>616.2</ele>
        <time>2019-04-28T13:38:25Z</time>
      </trkpt>
      <trkpt lat="40.3614020" lon="-3.9435790">
        <ele>615.8</ele>
        <time>2019-04-28T13:38:26Z</time>
      </trkpt>
      <trkpt lat="40.3613830" lon="-3.9435360">
        <ele>615.6</ele>
        <time>2019-04-28T13:38:27Z</time>
      </trkpt>
      <trkpt lat="40.3613570" lon="-3.9434870">
        <ele>615.2</ele>
        <time>2019-04-28T13:38:28Z</time>
      </trkpt>
      <trkpt lat="40.3613280" lon="-3.9434280">
        <ele>615.0</ele>
        <time>2019-04-28T13:38:29Z</time>
      </trkpt>
      <trkpt lat="40.3613000" lon="-3.9433630">
        <ele>614.6</ele>
        <time>2019-04-28T13:38:30Z</time>
      </trkpt>
      <trkpt lat="40.3612770" lon="-3.9432840">
        <ele>614.4</ele>
        <time>2019-04-28T13:38:31Z</time>
      </trkpt>
      <trkpt lat="40.3612580" lon="-3.9432030">
        <ele>614.2</ele>
        <time>2019-04-28T13:38:32Z</time>
      </trkpt>
      <trkpt lat="40.3612430" lon="-3.9431140">
        <ele>614.0</ele>
        <time>2019-04-28T13:38:33Z</time>
      </trkpt>
      <trkpt lat="40.3612270" lon="-3.9430240">
        <ele>614.0</ele>
        <time>2019-04-28T13:38:34Z</time>
      </trkpt>
      <trkpt lat="40.3612100" lon="-3.9429370">
        <ele>614.0</ele>
        <time>2019-04-28T13:38:35Z</time>
      </trkpt>
      <trkpt lat="40.3611940" lon="-3.9428540">
        <ele>613.6</ele>
        <time>2019-04-28T13:38:36Z</time>
      </trkpt>
      <trkpt lat="40.3611890" lon="-3.9427760">
        <ele>613.6</ele>
        <time>2019-04-28T13:38:37Z</time>
      </trkpt>
      <trkpt lat="40.3611820" lon="-3.9426970">
        <ele>613.6</ele>
        <time>2019-04-28T13:38:38Z</time>
      </trkpt>
      <trkpt lat="40.3611740" lon="-3.9426200">
        <ele>613.6</ele>
        <time>2019-04-28T13:38:39Z</time>
      </trkpt>
      <trkpt lat="40.3611650" lon="-3.9425400">
        <ele>613.6</ele>
        <time>2019-04-28T13:38:40Z</time>
      </trkpt>
      <trkpt lat="40.3611560" lon="-3.9424630">
        <ele>613.8</ele>
        <time>2019-04-28T13:38:41Z</time>
      </trkpt>
      <trkpt lat="40.3611470" lon="-3.9423870">
        <ele>614.0</ele>
        <time>2019-04-28T13:38:42Z</time>
      </trkpt>
      <trkpt lat="40.3611370" lon="-3.9423110">
        <ele>614.0</ele>
        <time>2019-04-28T13:38:43Z</time>
      </trkpt>
      <trkpt lat="40.3611250" lon="-3.9422370">
        <ele>614.4</ele>
        <time>2019-04-28T13:38:44Z</time>
      </trkpt>
      <trkpt lat="40.3611080" lon="-3.9421650">
        <ele>614.6</ele>
        <time>2019-04-28T13:38:45Z</time>
      </trkpt>
      <trkpt lat="40.3610860" lon="-3.9420990">
        <ele>614.8</ele>
        <time>2019-04-28T13:38:46Z</time>
      </trkpt>
      <trkpt lat="40.3610650" lon="-3.9420380">
        <ele>615.0</ele>
        <time>2019-04-28T13:38:47Z</time>
      </trkpt>
      <trkpt lat="40.3610440" lon="-3.9419790">
        <ele>614.8</ele>
        <time>2019-04-28T13:38:48Z</time>
      </trkpt>
      <trkpt lat="40.3610250" lon="-3.9419200">
        <ele>615.0</ele>
        <time>2019-04-28T13:38:49Z</time>
      </trkpt>
      <trkpt lat="40.3610110" lon="-3.9418580">
        <ele>615.4</ele>
        <time>2019-04-28T13:38:50Z</time>
      </trkpt>
      <trkpt lat="40.3610000" lon="-3.9417940">
        <ele>615.4</ele>
        <time>2019-04-28T13:38:51Z</time>
      </trkpt>
      <trkpt lat="40.3609890" lon="-3.9417300">
        <ele>615.8</ele>
        <time>2019-04-28T13:38:52Z</time>
      </trkpt>
      <trkpt lat="40.3609780" lon="-3.9416640">
        <ele>615.8</ele>
        <time>2019-04-28T13:38:53Z</time>
      </trkpt>
      <trkpt lat="40.3609690" lon="-3.9415990">
        <ele>616.0</ele>
        <time>2019-04-28T13:38:54Z</time>
      </trkpt>
      <trkpt lat="40.3609600" lon="-3.9415350">
        <ele>616.2</ele>
        <time>2019-04-28T13:38:55Z</time>
      </trkpt>
      <trkpt lat="40.3609530" lon="-3.9414740">
        <ele>616.4</ele>
        <time>2019-04-28T13:38:56Z</time>
      </trkpt>
      <trkpt lat="40.3609460" lon="-3.9414120">
        <ele>616.4</ele>
        <time>2019-04-28T13:38:57Z</time>
      </trkpt>
      <trkpt lat="40.3609380" lon="-3.9413480">
        <ele>616.8</ele>
        <time>2019-04-28T13:38:58Z</time>
      </trkpt>
      <trkpt lat="40.3609310" lon="-3.9412840">
        <ele>616.8</ele>
        <time>2019-04-28T13:38:59Z</time>
      </trkpt>
      <trkpt lat="40.3609250" lon="-3.9412200">
        <ele>617.0</ele>
        <time>2019-04-28T13:39:00Z</time>
      </trkpt>
      <trkpt lat="40.3609200" lon="-3.9411560">
        <ele>617.0</ele>
        <time>2019-04-28T13:39:01Z</time>
      </trkpt>
      <trkpt lat="40.3609170" lon="-3.9410930">
        <ele>617.0</ele>
        <time>2019-04-28T13:39:02Z</time>
      </trkpt>
      <trkpt lat="40.3609120" lon="-3.9410320">
        <ele>617.0</ele>
        <time>2019-04-28T13:39:03Z</time>
      </trkpt>
      <trkpt lat="40.3609060" lon="-3.9409770">
        <ele>616.6</ele>
        <time>2019-04-28T13:39:04Z</time>
      </trkpt>
      <trkpt lat="40.3608970" lon="-3.9409260">
        <ele>616.6</ele>
        <time>2019-04-28T13:39:05Z</time>
      </trkpt>
      <trkpt lat="40.3608850" lon="-3.9408770">
        <ele>615.8</ele>
        <time>2019-04-28T13:39:06Z</time>
      </trkpt>
      <trkpt lat="40.3608620" lon="-3.9408310">
        <ele>615.2</ele>
        <time>2019-04-28T13:39:07Z</time>
      </trkpt>
      <trkpt lat="40.3608280" lon="-3.9407830">
        <ele>614.2</ele>
        <time>2019-04-28T13:39:08Z</time>
      </trkpt>
      <trkpt lat="40.3607860" lon="-3.9407250">
        <ele>613.2</ele>
        <time>2019-04-28T13:39:09Z</time>
      </trkpt>
      <trkpt lat="40.3607470" lon="-3.9406520">
        <ele>612.2</ele>
        <time>2019-04-28T13:39:10Z</time>
      </trkpt>
      <trkpt lat="40.3607200" lon="-3.9405590">
        <ele>611.2</ele>
        <time>2019-04-28T13:39:11Z</time>
      </trkpt>
      <trkpt lat="40.3607100" lon="-3.9404610">
        <ele>610.4</ele>
        <time>2019-04-28T13:39:12Z</time>
      </trkpt>
      <trkpt lat="40.3607100" lon="-3.9403620">
        <ele>610.4</ele>
        <time>2019-04-28T13:39:13Z</time>
      </trkpt>
      <trkpt lat="40.3607140" lon="-3.9402720">
        <ele>611.0</ele>
        <time>2019-04-28T13:39:14Z</time>
      </trkpt>
      <trkpt lat="40.3607210" lon="-3.9401880">
        <ele>611.8</ele>
        <time>2019-04-28T13:39:15Z</time>
      </trkpt>
      <trkpt lat="40.3607260" lon="-3.9401060">
        <ele>612.4</ele>
        <time>2019-04-28T13:39:16Z</time>
      </trkpt>
      <trkpt lat="40.3607330" lon="-3.9400310">
        <ele>613.4</ele>
        <time>2019-04-28T13:39:17Z</time>
      </trkpt>
      <trkpt lat="40.3607420" lon="-3.9399600">
        <ele>614.2</ele>
        <time>2019-04-28T13:39:18Z</time>
      </trkpt>
      <trkpt lat="40.3607470" lon="-3.9398930">
        <ele>614.8</ele>
        <time>2019-04-28T13:39:19Z</time>
      </trkpt>
      <trkpt lat="40.3607520" lon="-3.9398290">
        <ele>615.8</ele>
        <time>2019-04-28T13:39:20Z</time>
      </trkpt>
      <trkpt lat="40.3607570" lon="-3.9397710">
        <ele>616.4</ele>
        <time>2019-04-28T13:39:21Z</time>
      </trkpt>
      <trkpt lat="40.3607640" lon="-3.9397080">
        <ele>616.8</ele>
        <time>2019-04-28T13:39:22Z</time>
      </trkpt>
      <trkpt lat="40.3607690" lon="-3.9396400">
        <ele>617.8</ele>
        <time>2019-04-28T13:39:23Z</time>
      </trkpt>
      <trkpt lat="40.3607710" lon="-3.9395760">
        <ele>618.2</ele>
        <time>2019-04-28T13:39:24Z</time>
      </trkpt>
      <trkpt lat="40.3607740" lon="-3.9395110">
        <ele>618.4</ele>
        <time>2019-04-28T13:39:25Z</time>
      </trkpt>
      <trkpt lat="40.3607720" lon="-3.9394480">
        <ele>618.6</ele>
        <time>2019-04-28T13:39:26Z</time>
      </trkpt>
      <trkpt lat="40.3607690" lon="-3.9393850">
        <ele>619.0</ele>
        <time>2019-04-28T13:39:27Z</time>
      </trkpt>
      <trkpt lat="40.3607670" lon="-3.9393210">
        <ele>619.2</ele>
        <time>2019-04-28T13:39:28Z</time>
      </trkpt>
      <trkpt lat="40.3607670" lon="-3.9392580">
        <ele>619.0</ele>
        <time>2019-04-28T13:39:29Z</time>
      </trkpt>
      <trkpt lat="40.3607670" lon="-3.9391950">
        <ele>619.2</ele>
        <time>2019-04-28T13:39:30Z</time>
      </trkpt>
      <trkpt lat="40.3607680" lon="-3.9391310">
        <ele>619.4</ele>
        <time>2019-04-28T13:39:31Z</time>
      </trkpt>
      <trkpt lat="40.3607700" lon="-3.9390670">
        <ele>619.4</ele>
        <time>2019-04-28T13:39:32Z</time>
      </trkpt>
      <trkpt lat="40.3607720" lon="-3.9390020">
        <ele>619.6</ele>
        <time>2019-04-28T13:39:33Z</time>
      </trkpt>
      <trkpt lat="40.3607760" lon="-3.9389380">
        <ele>619.6</ele>
        <time>2019-04-28T13:39:34Z</time>
      </trkpt>
      <trkpt lat="40.3607800" lon="-3.9388740">
        <ele>619.8</ele>
        <time>2019-04-28T13:39:35Z</time>
      </trkpt>
      <trkpt lat="40.3607840" lon="-3.9388090">
        <ele>619.8</ele>
        <time>2019-04-28T13:39:36Z</time>
      </trkpt>
      <trkpt lat="40.3607880" lon="-3.9387430">
        <ele>619.8</ele>
        <time>2019-04-28T13:39:37Z</time>
      </trkpt>
      <trkpt lat="40.3607920" lon="-3.9386760">
        <ele>619.6</ele>
        <time>2019-04-28T13:39:38Z</time>
      </trkpt>
      <trkpt lat="40.3607950" lon="-3.9386080">
        <ele>619.6</ele>
        <time>2019-04-28T13:39:39Z</time>
      </trkpt>
      <trkpt lat="40.3607990" lon="-3.9385390">
        <ele>619.6</ele>
        <time>2019-04-28T13:39:40Z</time>
      </trkpt>
      <trkpt lat="40.3608040" lon="-3.9384700">
        <ele>619.8</ele>
        <time>2019-04-28T13:39:41Z</time>
      </trkpt>
      <trkpt lat="40.3608100" lon="-3.9384040">
        <ele>619.8</ele>
        <time>2019-04-28T13:39:42Z</time>
      </trkpt>
      <trkpt lat="40.3608170" lon="-3.9383390">
        <ele>619.8</ele>
        <time>2019-04-28T13:39:43Z</time>
      </trkpt>
      <trkpt lat="40.3608250" lon="-3.9382750">
        <ele>619.8</ele>
        <time>2019-04-28T13:39:44Z</time>
      </trkpt>
      <trkpt lat="40.3608330" lon="-3.9382120">
        <ele>620.0</ele>
        <time>2019-04-28T13:39:45Z</time>
      </trkpt>
      <trkpt lat="40.3608420" lon="-3.9381490">
        <ele>620.0</ele>
        <time>2019-04-28T13:39:46Z</time>
      </trkpt>
      <trkpt lat="40.3608500" lon="-3.9380860">
        <ele>620.0</ele>
        <time>2019-04-28T13:39:47Z</time>
      </trkpt>
      <trkpt lat="40.3608580" lon="-3.9380240">
        <ele>620.2</ele>
        <time>2019-04-28T13:39:48Z</time>
      </trkpt>
      <trkpt lat="40.3608650" lon="-3.9379620">
        <ele>620.2</ele>
        <time>2019-04-28T13:39:49Z</time>
      </trkpt>
      <trkpt lat="40.3608720" lon="-3.9378990">
        <ele>620.2</ele>
        <time>2019-04-28T13:39:50Z</time>
      </trkpt>
      <trkpt lat="40.3608780" lon="-3.9378370">
        <ele>620.2</ele>
        <time>2019-04-28T13:39:51Z</time>
      </trkpt>
      <trkpt lat="40.3608850" lon="-3.9377740">
        <ele>620.4</ele>
        <time>2019-04-28T13:39:52Z</time>
      </trkpt>
      <trkpt lat="40.3608910" lon="-3.9377110">
        <ele>620.2</ele>
        <time>2019-04-28T13:39:53Z</time>
      </trkpt>
      <trkpt lat="40.3608960" lon="-3.9376490">
        <ele>620.0</ele>
        <time>2019-04-28T13:39:54Z</time>
      </trkpt>
      <trkpt lat="40.3609000" lon="-3.9375870">
        <ele>620.0</ele>
        <time>2019-04-28T13:39:55Z</time>
      </trkpt>
      <trkpt lat="40.3609030" lon="-3.9375250">
        <ele>620.0</ele>
        <time>2019-04-28T13:39:56Z</time>
      </trkpt>
      <trkpt lat="40.3609040" lon="-3.9374620">
        <ele>620.0</ele>
        <time>2019-04-28T13:39:57Z</time>
      </trkpt>
      <trkpt lat="40.3609070" lon="-3.9373980">
        <ele>619.8</ele>
        <time>2019-04-28T13:39:58Z</time>
      </trkpt>
      <trkpt lat="40.3609070" lon="-3.9373310">
        <ele>619.8</ele>
        <time>2019-04-28T13:39:59Z</time>
      </trkpt>
      <trkpt lat="40.3609060" lon="-3.9372580">
        <ele>619.4</ele>
        <time>2019-04-28T13:40:00Z</time>
      </trkpt>
      <trkpt lat="40.3609040" lon="-3.9371770">
        <ele>619.0</ele>
        <time>2019-04-28T13:40:01Z</time>
      </trkpt>
      <trkpt lat="40.3608990" lon="-3.9370880">
        <ele>618.6</ele>
        <time>2019-04-28T13:40:02Z</time>
      </trkpt>
      <trkpt lat="40.3608890" lon="-3.9369900">
        <ele>617.6</ele>
        <time>2019-04-28T13:40:03Z</time>
      </trkpt>
      <trkpt lat="40.3608780" lon="-3.9368800">
        <ele>616.2</ele>
        <time>2019-04-28T13:40:04Z</time>
      </trkpt>
      <trkpt lat="40.3608740" lon="-3.9367560">
        <ele>615.0</ele>
        <time>2019-04-28T13:40:05Z</time>
      </trkpt>
      <trkpt lat="40.3608790" lon="-3.9366190">
        <ele>613.4</ele>
        <time>2019-04-28T13:40:06Z</time>
      </trkpt>
      <trkpt lat="40.3609010" lon="-3.9364840">
        <ele>612.4</ele>
        <time>2019-04-28T13:40:07Z</time>
      </trkpt>
      <trkpt lat="40.3609300" lon="-3.9363500">
        <ele>612.2</ele>
        <time>2019-04-28T13:40:08Z</time>
      </trkpt>
      <trkpt lat="40.3609730" lon="-3.9362330">
        <ele>612.0</ele>
        <time>2019-04-28T13:40:09Z</time>
      </trkpt>
      <trkpt lat="40.3610140" lon="-3.9361340">
        <ele>612.8</ele>
        <time>2019-04-28T13:40:10Z</time>
      </trkpt>
      <trkpt lat="40.3610530" lon="-3.9360490">
        <ele>613.4</ele>
        <time>2019-04-28T13:40:11Z</time>
      </trkpt>
      <trkpt lat="40.3610830" lon="-3.9359700">
        <ele>614.2</ele>
        <time>2019-04-28T13:40:12Z</time>
      </trkpt>
      <trkpt lat="40.3611080" lon="-3.9358950">
        <ele>614.8</ele>
        <time>2019-04-28T13:40:13Z</time>
      </trkpt>
      <trkpt lat="40.3611330" lon="-3.9358260">
        <ele>615.4</ele>
        <time>2019-04-28T13:40:14Z</time>
      </trkpt>
      <trkpt lat="40.3611540" lon="-3.9357570">
        <ele>616.0</ele>
        <time>2019-04-28T13:40:15Z</time>
      </trkpt>
      <trkpt lat="40.3611740" lon="-3.9356890">
        <ele>616.4</ele>
        <time>2019-04-28T13:40:16Z</time>
      </trkpt>
      <trkpt lat="40.3611930" lon="-3.9356240">
        <ele>616.6</ele>
        <time>2019-04-28T13:40:17Z</time>
      </trkpt>
      <trkpt lat="40.3612130" lon="-3.9355600">
        <ele>617.0</ele>
        <time>2019-04-28T13:40:18Z</time>
      </trkpt>
      <trkpt lat="40.3612280" lon="-3.9354950">
        <ele>617.4</ele>
        <time>2019-04-28T13:40:19Z</time>
      </trkpt>
      <trkpt lat="40.3612460" lon="-3.9354320">
        <ele>617.6</ele>
        <time>2019-04-28T13:40:20Z</time>
      </trkpt>
      <trkpt lat="40.3612580" lon="-3.9353690">
        <ele>617.8</ele>
        <time>2019-04-28T13:40:21Z</time>
      </trkpt>
      <trkpt lat="40.3612770" lon="-3.9353110">
        <ele>618.0</ele>
        <time>2019-04-28T13:40:22Z</time>
      </trkpt>
      <trkpt lat="40.3612910" lon="-3.9352510">
        <ele>618.4</ele>
        <time>2019-04-28T13:40:23Z</time>
      </trkpt>
      <trkpt lat="40.3613060" lon="-3.9351920">
        <ele>618.8</ele>
        <time>2019-04-28T13:40:24Z</time>
      </trkpt>
      <trkpt lat="40.3613150" lon="-3.9351300">
        <ele>619.0</ele>
        <time>2019-04-28T13:40:25Z</time>
      </trkpt>
      <trkpt lat="40.3613280" lon="-3.9350690">
        <ele>619.4</ele>
        <time>2019-04-28T13:40:26Z</time>
      </trkpt>
      <trkpt lat="40.3613400" lon="-3.9350110">
        <ele>619.6</ele>
        <time>2019-04-28T13:40:27Z</time>
      </trkpt>
      <trkpt lat="40.3613510" lon="-3.9349530">
        <ele>619.8</ele>
        <time>2019-04-28T13:40:28Z</time>
      </trkpt>
      <trkpt lat="40.3613610" lon="-3.9348960">
        <ele>620.2</ele>
        <time>2019-04-28T13:40:29Z</time>
      </trkpt>
      <trkpt lat="40.3613730" lon="-3.9348380">
        <ele>620.4</ele>
        <time>2019-04-28T13:40:30Z</time>
      </trkpt>
      <trkpt lat="40.3613870" lon="-3.9347810">
        <ele>620.4</ele>
        <time>2019-04-28T13:40:31Z</time>
      </trkpt>
      <trkpt lat="40.3614010" lon="-3.9347240">
        <ele>620.4</ele>
        <time>2019-04-28T13:40:32Z</time>
      </trkpt>
      <trkpt lat="40.3614150" lon="-3.9346670">
        <ele>620.6</ele>
        <time>2019-04-28T13:40:33Z</time>
      </trkpt>
      <trkpt lat="40.3614290" lon="-3.9346080">
        <ele>620.6</ele>
        <time>2019-04-28T13:40:34Z</time>
      </trkpt>
      <trkpt lat="40.3614430" lon="-3.9345490">
        <ele>620.6</ele>
        <time>2019-04-28T13:40:35Z</time>
      </trkpt>
      <trkpt lat="40.3614570" lon="-3.9344890">
        <ele>620.6</ele>
        <time>2019-04-28T13:40:36Z</time>
      </trkpt>
      <trkpt lat="40.3614720" lon="-3.9344290">
        <ele>620.8</ele>
        <time>2019-04-28T13:40:37Z</time>
      </trkpt>
      <trkpt lat="40.3614870" lon="-3.9343680">
        <ele>620.8</ele>
        <time>2019-04-28T13:40:38Z</time>
      </trkpt>
      <trkpt lat="40.3615040" lon="-3.9343070">
        <ele>621.0</ele>
        <time>2019-04-28T13:40:39Z</time>
      </trkpt>
      <trkpt lat="40.3615200" lon="-3.9342460">
        <ele>621.0</ele>
        <time>2019-04-28T13:40:40Z</time>
      </trkpt>
      <trkpt lat="40.3615360" lon="-3.9341860">
        <ele>621.0</ele>
        <time>2019-04-28T13:40:41Z</time>
      </trkpt>
      <trkpt lat="40.3615520" lon="-3.9341260">
        <ele>621.2</ele>
        <time>2019-04-28T13:40:42Z</time>
      </trkpt>
      <trkpt lat="40.3615670" lon="-3.9340670">
        <ele>621.2</ele>
        <time>2019-04-28T13:40:43Z</time>
      </trkpt>
      <trkpt lat="40.3615820" lon="-3.9340070">
        <ele>621.4</ele>
        <time>2019-04-28T13:40:44Z</time>
      </trkpt>
      <trkpt lat="40.3615960" lon="-3.9339480">
        <ele>621.6</ele>
        <time>2019-04-28T13:40:45Z</time>
      </trkpt>
      <trkpt lat="40.3616110" lon="-3.9338890">
        <ele>621.6</ele>
        <time>2019-04-28T13:40:46Z</time>
      </trkpt>
      <trkpt lat="40.3616280" lon="-3.9338330">
        <ele>621.8</ele>
        <time>2019-04-28T13:40:47Z</time>
      </trkpt>
      <trkpt lat="40.3616450" lon="-3.9337760">
        <ele>622.0</ele>
        <time>2019-04-28T13:40:48Z</time>
      </trkpt>
      <trkpt lat="40.3616600" lon="-3.9337180">
        <ele>622.2</ele>
        <time>2019-04-28T13:40:49Z</time>
      </trkpt>
      <trkpt lat="40.3616760" lon="-3.9336620">
        <ele>622.4</ele>
        <time>2019-04-28T13:40:50Z</time>
      </trkpt>
      <trkpt lat="40.3616900" lon="-3.9336050">
        <ele>622.6</ele>
        <time>2019-04-28T13:40:51Z</time>
      </trkpt>
      <trkpt lat="40.3617040" lon="-3.9335490">
        <ele>622.8</ele>
        <time>2019-04-28T13:40:52Z</time>
      </trkpt>
      <trkpt lat="40.3617180" lon="-3.9334910">
        <ele>622.8</ele>
        <time>2019-04-28T13:40:53Z</time>
      </trkpt>
      <trkpt lat="40.3617300" lon="-3.9334310">
        <ele>622.8</ele>
        <time>2019-04-28T13:40:54Z</time>
      </trkpt>
      <trkpt lat="40.3617420" lon="-3.9333670">
        <ele>622.8</ele>
        <time>2019-04-28T13:40:55Z</time>
      </trkpt>
      <trkpt lat="40.3617510" lon="-3.9333020">
        <ele>622.8</ele>
        <time>2019-04-28T13:40:56Z</time>
      </trkpt>
      <trkpt lat="40.3617600" lon="-3.9332330">
        <ele>622.8</ele>
        <time>2019-04-28T13:40:57Z</time>
      </trkpt>
      <trkpt lat="40.3617680" lon="-3.9331590">
        <ele>622.4</ele>
        <time>2019-04-28T13:40:58Z</time>
      </trkpt>
      <trkpt lat="40.3617770" lon="-3.9330810">
        <ele>622.2</ele>
        <time>2019-04-28T13:40:59Z</time>
      </trkpt>
      <trkpt lat="40.3617910" lon="-3.9330020">
        <ele>622.0</ele>
        <time>2019-04-28T13:41:00Z</time>
      </trkpt>
      <trkpt lat="40.3618090" lon="-3.9329280">
        <ele>622.2</ele>
        <time>2019-04-28T13:41:01Z</time>
      </trkpt>
      <trkpt lat="40.3618270" lon="-3.9328600">
        <ele>622.6</ele>
        <time>2019-04-28T13:41:02Z</time>
      </trkpt>
      <trkpt lat="40.3618440" lon="-3.9328000">
        <ele>622.8</ele>
        <time>2019-04-28T13:41:03Z</time>
      </trkpt>
      <trkpt lat="40.3618580" lon="-3.9327430">
        <ele>623.4</ele>
        <time>2019-04-28T13:41:04Z</time>
      </trkpt>
      <trkpt lat="40.3618710" lon="-3.9326880">
        <ele>623.6</ele>
        <time>2019-04-28T13:41:05Z</time>
      </trkpt>
      <trkpt lat="40.3618840" lon="-3.9326320">
        <ele>624.0</ele>
        <time>2019-04-28T13:41:06Z</time>
      </trkpt>
      <trkpt lat="40.3618980" lon="-3.9325730">
        <ele>623.8</ele>
        <time>2019-04-28T13:41:07Z</time>
      </trkpt>
      <trkpt lat="40.3619130" lon="-3.9325130">
        <ele>624.0</ele>
        <time>2019-04-28T13:41:08Z</time>
      </trkpt>
      <trkpt lat="40.3619280" lon="-3.9324520">
        <ele>624.0</ele>
        <time>2019-04-28T13:41:09Z</time>
      </trkpt>
      <trkpt lat="40.3619440" lon="-3.9323890">
        <ele>624.2</ele>
        <time>2019-04-28T13:41:10Z</time>
      </trkpt>
      <trkpt lat="40.3619620" lon="-3.9323270">
        <ele>624.2</ele>
        <time>2019-04-28T13:41:11Z</time>
      </trkpt>
      <trkpt lat="40.3619780" lon="-3.9322630">
        <ele>624.2</ele>
        <time>2019-04-28T13:41:12Z</time>
      </trkpt>
      <trkpt lat="40.3619930" lon="-3.9321970">
        <ele>624.2</ele>
        <time>2019-04-28T13:41:13Z</time>
      </trkpt>
      <trkpt lat="40.3620100" lon="-3.9321300">
        <ele>624.2</ele>
        <time>2019-04-28T13:41:14Z</time>
      </trkpt>
      <trkpt lat="40.3620270" lon="-3.9320600">
        <ele>624.4</ele>
        <time>2019-04-28T13:41:15Z</time>
      </trkpt>
      <trkpt lat="40.3620430" lon="-3.9319900">
        <ele>624.4</ele>
        <time>2019-04-28T13:41:16Z</time>
      </trkpt>
      <trkpt lat="40.3620620" lon="-3.9319200">
        <ele>624.2</ele>
        <time>2019-04-28T13:41:17Z</time>
      </trkpt>
      <trkpt lat="40.3620820" lon="-3.9318500">
        <ele>624.2</ele>
        <time>2019-04-28T13:41:18Z</time>
      </trkpt>
      <trkpt lat="40.3621010" lon="-3.9317800">
        <ele>624.4</ele>
        <time>2019-04-28T13:41:19Z</time>
      </trkpt>
      <trkpt lat="40.3621200" lon="-3.9317090">
        <ele>624.4</ele>
        <time>2019-04-28T13:41:20Z</time>
      </trkpt>
      <trkpt lat="40.3621390" lon="-3.9316380">
        <ele>624.4</ele>
        <time>2019-04-28T13:41:21Z</time>
      </trkpt>
      <trkpt lat="40.3621540" lon="-3.9315670">
        <ele>624.4</ele>
        <time>2019-04-28T13:41:22Z</time>
      </trkpt>
      <trkpt lat="40.3621710" lon="-3.9314950">
        <ele>624.6</ele>
        <time>2019-04-28T13:41:23Z</time>
      </trkpt>
      <trkpt lat="40.3621890" lon="-3.9314250">
        <ele>624.4</ele>
        <time>2019-04-28T13:41:24Z</time>
      </trkpt>
      <trkpt lat="40.3622060" lon="-3.9313550">
        <ele>624.8</ele>
        <time>2019-04-28T13:41:25Z</time>
      </trkpt>
      <trkpt lat="40.3622230" lon="-3.9312860">
        <ele>624.8</ele>
        <time>2019-04-28T13:41:26Z</time>
      </trkpt>
      <trkpt lat="40.3622400" lon="-3.9312180">
        <ele>624.8</ele>
        <time>2019-04-28T13:41:27Z</time>
      </trkpt>
      <trkpt lat="40.3622540" lon="-3.9311500">
        <ele>625.0</ele>
        <time>2019-04-28T13:41:28Z</time>
      </trkpt>
      <trkpt lat="40.3622700" lon="-3.9310820">
        <ele>625.0</ele>
        <time>2019-04-28T13:41:29Z</time>
      </trkpt>
      <trkpt lat="40.3622870" lon="-3.9310140">
        <ele>625.0</ele>
        <time>2019-04-28T13:41:30Z</time>
      </trkpt>
      <trkpt lat="40.3623030" lon="-3.9309440">
        <ele>625.0</ele>
        <time>2019-04-28T13:41:31Z</time>
      </trkpt>
      <trkpt lat="40.3623200" lon="-3.9308750">
        <ele>625.2</ele>
        <time>2019-04-28T13:41:32Z</time>
      </trkpt>
      <trkpt lat="40.3623400" lon="-3.9308080">
        <ele>625.2</ele>
        <time>2019-04-28T13:41:33Z</time>
      </trkpt>
      <trkpt lat="40.3623580" lon="-3.9307390">
        <ele>625.4</ele>
        <time>2019-04-28T13:41:34Z</time>
      </trkpt>
      <trkpt lat="40.3623750" lon="-3.9306680">
        <ele>625.4</ele>
        <time>2019-04-28T13:41:35Z</time>
      </trkpt>
      <trkpt lat="40.3623910" lon="-3.9305960">
        <ele>625.2</ele>
        <time>2019-04-28T13:41:36Z</time>
      </trkpt>
      <trkpt lat="40.3624080" lon="-3.9305230">
        <ele>625.2</ele>
        <time>2019-04-28T13:41:37Z</time>
      </trkpt>
      <trkpt lat="40.3624260" lon="-3.9304510">
        <ele>625.4</ele>
        <time>2019-04-28T13:41:38Z</time>
      </trkpt>
      <trkpt lat="40.3624420" lon="-3.9303790">
        <ele>625.4</ele>
        <time>2019-04-28T13:41:39Z</time>
      </trkpt>
      <trkpt lat="40.3624540" lon="-3.9303060">
        <ele>625.4</ele>
        <time>2019-04-28T13:41:40Z</time>
      </trkpt>
      <trkpt lat="40.3624640" lon="-3.9302330">
        <ele>625.4</ele>
        <time>2019-04-28T13:41:41Z</time>
      </trkpt>
      <trkpt lat="40.3624740" lon="-3.9301590">
        <ele>625.0</ele>
        <time>2019-04-28T13:41:42Z</time>
      </trkpt>
      <trkpt lat="40.3624850" lon="-3.9300770">
        <ele>624.8</ele>
        <time>2019-04-28T13:41:43Z</time>
      </trkpt>
      <trkpt lat="40.3624980" lon="-3.9299900">
        <ele>624.0</ele>
        <time>2019-04-28T13:41:44Z</time>
      </trkpt>
      <trkpt lat="40.3625200" lon="-3.9299060">
        <ele>623.8</ele>
        <time>2019-04-28T13:41:45Z</time>
      </trkpt>
      <trkpt lat="40.3625480" lon="-3.9298310">
        <ele>623.6</ele>
        <time>2019-04-28T13:41:46Z</time>
      </trkpt>
      <trkpt lat="40.3625810" lon="-3.9297640">
        <ele>624.0</ele>
        <time>2019-04-28T13:41:47Z</time>
      </trkpt>
      <trkpt lat="40.3626130" lon="-3.9296990">
        <ele>624.8</ele>
        <time>2019-04-28T13:41:48Z</time>
      </trkpt>
      <trkpt lat="40.3626420" lon="-3.9296310">
        <ele>624.8</ele>
        <time>2019-04-28T13:41:49Z</time>
      </trkpt>
      <trkpt lat="40.3626680" lon="-3.9295610">
        <ele>624.6</ele>
        <time>2019-04-28T13:41:50Z</time>
      </trkpt>
      <trkpt lat="40.3626920" lon="-3.9294890">
        <ele>624.8</ele>
        <time>2019-04-28T13:41:51Z</time>
      </trkpt>
      <trkpt lat="40.3627140" lon="-3.9294170">
        <ele>625.2</ele>
        <time>2019-04-28T13:41:52Z</time>
      </trkpt>
      <trkpt lat="40.3627330" lon="-3.9293430">
        <ele>625.0</ele>
        <time>2019-04-28T13:41:53Z</time>
      </trkpt>
      <trkpt lat="40.3627510" lon="-3.9292680">
        <ele>625.0</ele>
        <time>2019-04-28T13:41:54Z</time>
      </trkpt>
      <trkpt lat="40.3627710" lon="-3.9291920">
        <ele>625.2</ele>
        <time>2019-04-28T13:41:55Z</time>
      </trkpt>
      <trkpt lat="40.3627900" lon="-3.9291180">
        <ele>625.4</ele>
        <time>2019-04-28T13:41:56Z</time>
      </trkpt>
      <trkpt lat="40.3628100" lon="-3.9290440">
        <ele>625.2</ele>
        <time>2019-04-28T13:41:57Z</time>
      </trkpt>
      <trkpt lat="40.3628280" lon="-3.9289700">
        <ele>625.4</ele>
        <time>2019-04-28T13:41:58Z</time>
      </trkpt>
      <trkpt lat="40.3628450" lon="-3.9288970">
        <ele>625.2</ele>
        <time>2019-04-28T13:41:59Z</time>
      </trkpt>
      <trkpt lat="40.3628640" lon="-3.9288250">
        <ele>625.2</ele>
        <time>2019-04-28T13:42:00Z</time>
      </trkpt>
      <trkpt lat="40.3628840" lon="-3.9287540">
        <ele>625.4</ele>
        <time>2019-04-28T13:42:01Z</time>
      </trkpt>
      <trkpt lat="40.3629040" lon="-3.9286820">
        <ele>625.6</ele>
        <time>2019-04-28T13:42:02Z</time>
      </trkpt>
      <trkpt lat="40.3629250" lon="-3.9286120">
        <ele>625.8</ele>
        <time>2019-04-28T13:42:03Z</time>
      </trkpt>
      <trkpt lat="40.3629440" lon="-3.9285420">
        <ele>625.8</ele>
        <time>2019-04-28T13:42:04Z</time>
      </trkpt>
      <trkpt lat="40.3629610" lon="-3.9284740">
        <ele>625.8</ele>
        <time>2019-04-28T13:42:05Z</time>
      </trkpt>
      <trkpt lat="40.3629790" lon="-3.9284090">
        <ele>626.2</ele>
        <time>2019-04-28T13:42:06Z</time>
      </trkpt>
      <trkpt lat="40.3629970" lon="-3.9283470">
        <ele>626.6</ele>
        <time>2019-04-28T13:42:07Z</time>
      </trkpt>
      <trkpt lat="40.3630120" lon="-3.9282850">
        <ele>626.6</ele>
        <time>2019-04-28T13:42:08Z</time>
      </trkpt>
      <trkpt lat="40.3630260" lon="-3.9282200">
        <ele>626.8</ele>
        <time>2019-04-28T13:42:09Z</time>
      </trkpt>
      <trkpt lat="40.3630400" lon="-3.9281550">
        <ele>627.0</ele>
        <time>2019-04-28T13:42:10Z</time>
      </trkpt>
      <trkpt lat="40.3630540" lon="-3.9280890">
        <ele>627.0</ele>
        <time>2019-04-28T13:42:11Z</time>
      </trkpt>
      <trkpt lat="40.3630730" lon="-3.9280230">
        <ele>627.0</ele>
        <time>2019-04-28T13:42:12Z</time>
      </trkpt>
      <trkpt lat="40.3630900" lon="-3.9279560">
        <ele>627.2</ele>
        <time>2019-04-28T13:42:13Z</time>
      </trkpt>
      <trkpt lat="40.3631080" lon="-3.9278890">
        <ele>627.2</ele>
        <time>2019-04-28T13:42:14Z</time>
      </trkpt>
      <trkpt lat="40.3631280" lon="-3.9278230">
        <ele>627.2</ele>
        <time>2019-04-28T13:42:15Z</time>
      </trkpt>
      <trkpt lat="40.3631470" lon="-3.9277550">
        <ele>627.2</ele>
        <time>2019-04-28T13:42:16Z</time>
      </trkpt>
      <trkpt lat="40.3631640" lon="-3.9276840">
        <ele>627.0</ele>
        <time>2019-04-28T13:42:17Z</time>
      </trkpt>
      <trkpt lat="40.3631810" lon="-3.9276140">
        <ele>627.2</ele>
        <time>2019-04-28T13:42:18Z</time>
      </trkpt>
      <trkpt lat="40.3631970" lon="-3.9275430">
        <ele>627.2</ele>
        <time>2019-04-28T13:42:19Z</time>
      </trkpt>
      <trkpt lat="40.3632140" lon="-3.9274700">
        <ele>627.2</ele>
        <time>2019-04-28T13:42:20Z</time>
      </trkpt>
      <trkpt lat="40.3632320" lon="-3.9273990">
        <ele>627.2</ele>
        <time>2019-04-28T13:42:21Z</time>
      </trkpt>
      <trkpt lat="40.3632470" lon="-3.9273270">
        <ele>627.0</ele>
        <time>2019-04-28T13:42:22Z</time>
      </trkpt>
      <trkpt lat="40.3632590" lon="-3.9272580">
        <ele>627.0</ele>
        <time>2019-04-28T13:42:23Z</time>
      </trkpt>
      <trkpt lat="40.3632690" lon="-3.9271850">
        <ele>627.0</ele>
        <time>2019-04-28T13:42:24Z</time>
      </trkpt>
      <trkpt lat="40.3632810" lon="-3.9271140">
        <ele>627.0</ele>
        <time>2019-04-28T13:42:25Z</time>
      </trkpt>
      <trkpt lat="40.3632910" lon="-3.9270390">
        <ele>627.2</ele>
        <time>2019-04-28T13:42:26Z</time>
      </trkpt>
      <trkpt lat="40.3632900" lon="-3.9269610">
        <ele>627.0</ele>
        <time>2019-04-28T13:42:27Z</time>
      </trkpt>
      <trkpt lat="40.3632910" lon="-3.9268800">
        <ele>626.8</ele>
        <time>2019-04-28T13:42:28Z</time>
      </trkpt>
      <trkpt lat="40.3632960" lon="-3.9267990">
        <ele>626.8</ele>
        <time>2019-04-28T13:42:29Z</time>
      </trkpt>
      <trkpt lat="40.3632980" lon="-3.9267190">
        <ele>626.6</ele>
        <time>2019-04-28T13:42:30Z</time>
      </trkpt>
      <trkpt lat="40.3632980" lon="-3.9266390">
        <ele>626.8</ele>
        <time>2019-04-28T13:42:31Z</time>
      </trkpt>
      <trkpt lat="40.3632940" lon="-3.9265590">
        <ele>626.6</ele>
        <time>2019-04-28T13:42:32Z</time>
      </trkpt>
      <trkpt lat="40.3632880" lon="-3.9264780">
        <ele>626.6</ele>
        <time>2019-04-28T13:42:33Z</time>
      </trkpt>
      <trkpt lat="40.3632820" lon="-3.9263970">
        <ele>626.6</ele>
        <time>2019-04-28T13:42:34Z</time>
      </trkpt>
      <trkpt lat="40.3632750" lon="-3.9263150">
        <ele>626.8</ele>
        <time>2019-04-28T13:42:35Z</time>
      </trkpt>
      <trkpt lat="40.3632680" lon="-3.9262340">
        <ele>626.8</ele>
        <time>2019-04-28T13:42:36Z</time>
      </trkpt>
      <trkpt lat="40.3632580" lon="-3.9261530">
        <ele>626.6</ele>
        <time>2019-04-28T13:42:37Z</time>
      </trkpt>
      <trkpt lat="40.3632450" lon="-3.9260730">
        <ele>626.2</ele>
        <time>2019-04-28T13:42:38Z</time>
      </trkpt>
      <trkpt lat="40.3632310" lon="-3.9259940">
        <ele>626.0</ele>
        <time>2019-04-28T13:42:39Z</time>
      </trkpt>
      <trkpt lat="40.3632150" lon="-3.9259150">
        <ele>625.8</ele>
        <time>2019-04-28T13:42:40Z</time>
      </trkpt>
      <trkpt lat="40.3631970" lon="-3.9258340">
        <ele>625.8</ele>
        <time>2019-04-28T13:42:41Z</time>
      </trkpt>
      <trkpt lat="40.3631770" lon="-3.9257520">
        <ele>626.0</ele>
        <time>2019-04-28T13:42:42Z</time>
      </trkpt>
      <trkpt lat="40.3631530" lon="-3.9256620">
        <ele>625.4</ele>
        <time>2019-04-28T13:42:43Z</time>
      </trkpt>
      <trkpt lat="40.3631290" lon="-3.9255760">
        <ele>625.4</ele>
        <time>2019-04-28T13:42:44Z</time>
      </trkpt>
      <trkpt lat="40.3631040" lon="-3.9254940">
        <ele>625.6</ele>
        <time>2019-04-28T13:42:45Z</time>
      </trkpt>
      <trkpt lat="40.3630790" lon="-3.9254070">
        <ele>625.6</ele>
        <time>2019-04-28T13:42:46Z</time>
      </trkpt>
      <trkpt lat="40.3630530" lon="-3.9253210">
        <ele>625.6</ele>
        <time>2019-04-28T13:42:47Z</time>
      </trkpt>
      <trkpt lat="40.3630250" lon="-3.9252370">
        <ele>625.2</ele>
        <time>2019-04-28T13:42:48Z</time>
      </trkpt>
      <trkpt lat="40.3629950" lon="-3.9251540">
        <ele>625.0</ele>
        <time>2019-04-28T13:42:49Z</time>
      </trkpt>
      <trkpt lat="40.3629620" lon="-3.9250730">
        <ele>625.0</ele>
        <time>2019-04-28T13:42:50Z</time>
      </trkpt>
      <trkpt lat="40.3629280" lon="-3.9249940">
        <ele>624.8</ele>
        <time>2019-04-28T13:42:51Z</time>
      </trkpt>
      <trkpt lat="40.3628960" lon="-3.9249160">
        <ele>624.4</ele>
        <time>2019-04-28T13:42:52Z</time>
      </trkpt>
      <trkpt lat="40.3628670" lon="-3.9248470">
        <ele>624.4</ele>
        <time>2019-04-28T13:42:53Z</time>
      </trkpt>
      <trkpt lat="40.3628410" lon="-3.9247830">
        <ele>624.4</ele>
        <time>2019-04-28T13:42:54Z</time>
      </trkpt>
      <trkpt lat="40.3628220" lon="-3.9247240">
        <ele>624.2</ele>
        <time>2019-04-28T13:42:55Z</time>
      </trkpt>
      <trkpt lat="40.3628080" lon="-3.9246780">
        <ele>623.8</ele>
        <time>2019-04-28T13:42:56Z</time>
      </trkpt>
      <trkpt lat="40.3627960" lon="-3.9246430">
        <ele>624.0</ele>
        <time>2019-04-28T13:42:57Z</time>
      </trkpt>
      <trkpt lat="40.3627880" lon="-3.9246160">
        <ele>623.8</ele>
        <time>2019-04-28T13:42:58Z</time>
      </trkpt>
      <trkpt lat="40.3627650" lon="-3.9246430">
        <ele>623.6</ele>
        <time>2019-04-28T13:42:59Z</time>
      </trkpt>
      <trkpt lat="40.3627440" lon="-3.9246870">
        <ele>623.4</ele>
        <time>2019-04-28T13:43:00Z</time>
      </trkpt>
      <trkpt lat="40.3627220" lon="-3.9247300">
        <ele>623.4</ele>
        <time>2019-04-28T13:43:01Z</time>
      </trkpt>
      <trkpt lat="40.3627010" lon="-3.9247740">
        <ele>623.2</ele>
        <time>2019-04-28T13:43:02Z</time>
      </trkpt>
      <trkpt lat="40.3626790" lon="-3.9248170">
        <ele>623.2</ele>
        <time>2019-04-28T13:43:03Z</time>
      </trkpt>
      <trkpt lat="40.3626580" lon="-3.9248610">
        <ele>623.4</ele>
        <time>2019-04-28T13:43:04Z</time>
      </trkpt>
      <trkpt lat="40.3626360" lon="-3.9249040">
        <ele>623.4</ele>
        <time>2019-04-28T13:43:05Z</time>
      </trkpt>
      <trkpt lat="40.3626150" lon="-3.9249480">
        <ele>623.4</ele>
        <time>2019-04-28T13:43:06Z</time>
      </trkpt>
      <trkpt lat="40.3625930" lon="-3.9249910">
        <ele>623.4</ele>
        <time>2019-04-28T13:43:07Z</time>
      </trkpt>
      <trkpt lat="40.3625720" lon="-3.9250350">
        <ele>620.6</ele>
        <time>2019-04-28T13:45:16Z</time>
      </trkpt>
      <trkpt lat="40.3625500" lon="-3.9250780">
        <ele>620.6</ele>
        <time>2019-04-28T13:45:17Z</time>
      </trkpt>
      <trkpt lat="40.3625470" lon="-3.9251550">
        <ele>620.4</ele>
        <time>2019-04-28T13:45:18Z</time>
      </trkpt>
      <trkpt lat="40.3625480" lon="-3.9252240">
        <ele>620.2</ele>
        <time>2019-04-28T13:45:19Z</time>
      </trkpt>
      <trkpt lat="40.3625470" lon="-3.9252830">
        <ele>620.0</ele>
        <time>2019-04-28T13:45:20Z</time>
      </trkpt>
      <trkpt lat="40.3625500" lon="-3.9253290">
        <ele>619.8</ele>
        <time>2019-04-28T13:45:21Z</time>
      </trkpt>
      <trkpt lat="40.3625490" lon="-3.9253770">
        <ele>619.8</ele>
        <time>2019-04-28T13:45:22Z</time>
      </trkpt>
      <trkpt lat="40.3625470" lon="-3.9254220">
        <ele>619.8</ele>
        <time>2019-04-28T13:45:23Z</time>
      </trkpt>
      <trkpt lat="40.3625460" lon="-3.9254630">
        <ele>619.6</ele>
        <time>2019-04-28T13:45:24Z</time>
      </trkpt>
      <trkpt lat="40.3625460" lon="-3.9255040">
        <ele>619.8</ele>
        <time>2019-04-28T13:45:25Z</time>
      </trkpt>
      <trkpt lat="40.3625480" lon="-3.9255390">
        <ele>619.8</ele>
        <time>2019-04-28T13:45:26Z</time>
      </trkpt>
      <trkpt lat="40.3625490" lon="-3.9255700">
        <ele>619.8</ele>
        <time>2019-04-28T13:45:27Z</time>
      </trkpt>
      <trkpt lat="40.3625460" lon="-3.9255950">
        <ele>619.8</ele>
        <time>2019-04-28T13:45:28Z</time>
      </trkpt>
      <trkpt lat="40.3625410" lon="-3.9256180">
        <ele>619.6</ele>
        <time>2019-04-28T13:45:29Z</time>
      </trkpt>
      <trkpt lat="40.3625360" lon="-3.9256310">
        <ele>619.6</ele>
        <time>2019-04-28T13:45:30Z</time>
      </trkpt>
      <trkpt lat="40.3625340" lon="-3.9256370">
        <ele>619.6</ele>
        <time>2019-04-28T13:45:31Z</time>
      </trkpt>
      <trkpt lat="40.3625340" lon="-3.9256380">
        <ele>619.6</ele>
        <time>2019-04-28T13:45:32Z</time>
      </trkpt>
      <trkpt lat="40.3625340" lon="-3.9256390">
        <ele>619.4</ele>
        <time>2019-04-28T13:45:33Z</time>
      </trkpt>
      <trkpt lat="40.3625330" lon="-3.9256400">
        <ele>619.4</ele>
        <time>2019-04-28T13:45:34Z</time>
      </trkpt>
      <trkpt lat="40.3625320" lon="-3.9256410">
        <ele>619.2</ele>
        <time>2019-04-28T13:45:35Z</time>
      </trkpt>
      <trkpt lat="40.3625320" lon="-3.9256430">
        <ele>619.4</ele>
        <time>2019-04-28T13:45:36Z</time>
      </trkpt>
      <trkpt lat="40.3625330" lon="-3.9256450">
        <ele>619.4</ele>
        <time>2019-04-28T13:45:37Z</time>
      </trkpt>
      <trkpt lat="40.3625330" lon="-3.9256490">
        <ele>619.4</ele>
        <time>2019-04-28T13:45:38Z</time>
      </trkpt>
      <trkpt lat="40.3625320" lon="-3.9256500">
        <ele>619.4</ele>
        <time>2019-04-28T13:45:39Z</time>
      </trkpt>
      <trkpt lat="40.3625510" lon="-3.9254870">
        <ele>619.8</ele>
        <time>2019-04-28T13:46:42Z</time>
      </trkpt>
      <trkpt lat="40.3625480" lon="-3.9254500">
        <ele>619.8</ele>
        <time>2019-04-28T13:46:43Z</time>
      </trkpt>
      <trkpt lat="40.3625460" lon="-3.9254160">
        <ele>619.8</ele>
        <time>2019-04-28T13:46:44Z</time>
      </trkpt>
      <trkpt lat="40.3625470" lon="-3.9253740">
        <ele>619.8</ele>
        <time>2019-04-28T13:46:45Z</time>
      </trkpt>
      <trkpt lat="40.3625510" lon="-3.9253310">
        <ele>619.8</ele>
        <time>2019-04-28T13:46:46Z</time>
      </trkpt>
      <trkpt lat="40.3625550" lon="-3.9252890">
        <ele>619.8</ele>
        <time>2019-04-28T13:46:47Z</time>
      </trkpt>
      <trkpt lat="40.3625560" lon="-3.9252500">
        <ele>620.0</ele>
        <time>2019-04-28T13:46:48Z</time>
      </trkpt>
      <trkpt lat="40.3625590" lon="-3.9252170">
        <ele>620.0</ele>
        <time>2019-04-28T13:46:49Z</time>
      </trkpt>
      <trkpt lat="40.3625590" lon="-3.9251860">
        <ele>620.0</ele>
        <time>2019-04-28T13:46:50Z</time>
      </trkpt>
      <trkpt lat="40.3625620" lon="-3.9251570">
        <ele>620.0</ele>
        <time>2019-04-28T13:46:51Z</time>
      </trkpt>
      <trkpt lat="40.3625630" lon="-3.9251240">
        <ele>620.0</ele>
        <time>2019-04-28T13:46:52Z</time>
      </trkpt>
      <trkpt lat="40.3625610" lon="-3.9250900">
        <ele>620.2</ele>
        <time>2019-04-28T13:46:53Z</time>
      </trkpt>
      <trkpt lat="40.3625580" lon="-3.9250580">
        <ele>620.4</ele>
        <time>2019-04-28T13:46:54Z</time>
      </trkpt>
      <trkpt lat="40.3625590" lon="-3.9250270">
        <ele>620.2</ele>
        <time>2019-04-28T13:46:55Z</time>
      </trkpt>
      <trkpt lat="40.3625600" lon="-3.9249930">
        <ele>620.2</ele>
        <time>2019-04-28T13:46:56Z</time>
      </trkpt>
      <trkpt lat="40.3625640" lon="-3.9249660">
        <ele>620.4</ele>
        <time>2019-04-28T13:46:57Z</time>
      </trkpt>
      <trkpt lat="40.3625690" lon="-3.9249410">
        <ele>620.4</ele>
        <time>2019-04-28T13:46:58Z</time>
      </trkpt>
      <trkpt lat="40.3625720" lon="-3.9249200">
        <ele>620.2</ele>
        <time>2019-04-28T13:46:59Z</time>
      </trkpt>
      <trkpt lat="40.3625750" lon="-3.9249050">
        <ele>620.0</ele>
        <time>2019-04-28T13:47:00Z</time>
      </trkpt>
      <trkpt lat="40.3625750" lon="-3.9248900">
        <ele>620.2</ele>
        <time>2019-04-28T13:47:01Z</time>
      </trkpt>
      <trkpt lat="40.3625780" lon="-3.9248720">
        <ele>620.2</ele>
        <time>2019-04-28T13:47:02Z</time>
      </trkpt>
      <trkpt lat="40.3625820" lon="-3.9248550">
        <ele>620.2</ele>
        <time>2019-04-28T13:47:03Z</time>
      </trkpt>
      <trkpt lat="40.3625840" lon="-3.9248370">
        <ele>620.2</ele>
        <time>2019-04-28T13:47:04Z</time>
      </trkpt>
      <trkpt lat="40.3625890" lon="-3.9248160">
        <ele>620.2</ele>
        <time>2019-04-28T13:47:05Z</time>
      </trkpt>
      <trkpt lat="40.3625960" lon="-3.9247940">
        <ele>620.0</ele>
        <time>2019-04-28T13:47:06Z</time>
      </trkpt>
      <trkpt lat="40.3626030" lon="-3.9247680">
        <ele>620.0</ele>
        <time>2019-04-28T13:47:07Z</time>
      </trkpt>
      <trkpt lat="40.3626080" lon="-3.9247440">
        <ele>620.2</ele>
        <time>2019-04-28T13:47:08Z</time>
      </trkpt>
      <trkpt lat="40.3626170" lon="-3.9247190">
        <ele>620.2</ele>
        <time>2019-04-28T13:47:09Z</time>
      </trkpt>
      <trkpt lat="40.3626280" lon="-3.9246960">
        <ele>620.6</ele>
        <time>2019-04-28T13:47:10Z</time>
      </trkpt>
      <trkpt lat="40.3626440" lon="-3.9246750">
        <ele>621.2</ele>
        <time>2019-04-28T13:47:11Z</time>
      </trkpt>
      <trkpt lat="40.3626630" lon="-3.9246530">
        <ele>621.6</ele>
        <time>2019-04-28T13:47:12Z</time>
      </trkpt>
      <trkpt lat="40.3626770" lon="-3.9246270">
        <ele>622.6</ele>
        <time>2019-04-28T13:47:13Z</time>
      </trkpt>
      <trkpt lat="40.3626940" lon="-3.9246050">
        <ele>623.2</ele>
        <time>2019-04-28T13:47:14Z</time>
      </trkpt>
      <trkpt lat="40.3627120" lon="-3.9245880">
        <ele>623.6</ele>
        <time>2019-04-28T13:47:15Z</time>
      </trkpt>
      <trkpt lat="40.3627200" lon="-3.9245780">
        <ele>623.8</ele>
        <time>2019-04-28T13:47:16Z</time>
      </trkpt>
      <trkpt lat="40.3627270" lon="-3.9245710">
        <ele>623.8</ele>
        <time>2019-04-28T13:47:17Z</time>
      </trkpt>
      <trkpt lat="40.3627310" lon="-3.9245660">
        <ele>623.8</ele>
        <time>2019-04-28T13:47:18Z</time>
      </trkpt>
      <trkpt lat="40.3627340" lon="-3.9245630">
        <ele>623.8</ele>
        <time>2019-04-28T13:47:19Z</time>
      </trkpt>
      <trkpt lat="40.3627410" lon="-3.9245580">
        <ele>623.6</ele>
        <time>2019-04-28T13:47:20Z</time>
      </trkpt>
      <trkpt lat="40.3627430" lon="-3.9245520">
        <ele>623.6</ele>
        <time>2019-04-28T13:47:21Z</time>
      </trkpt>
      <trkpt lat="40.3627440" lon="-3.9245420">
        <ele>623.4</ele>
        <time>2019-04-28T13:47:22Z</time>
      </trkpt>
      <trkpt lat="40.3627440" lon="-3.9245280">
        <ele>623.4</ele>
        <time>2019-04-28T13:47:23Z</time>
      </trkpt>
      <trkpt lat="40.3627400" lon="-3.9245230">
        <ele>623.4</ele>
        <time>2019-04-28T13:47:24Z</time>
      </trkpt>
      <trkpt lat="40.3627410" lon="-3.9245170">
        <ele>623.4</ele>
        <time>2019-04-28T13:47:25Z</time>
      </trkpt>
      <trkpt lat="40.3627420" lon="-3.9245140">
        <ele>623.2</ele>
        <time>2019-04-28T13:47:26Z</time>
      </trkpt>
      <trkpt lat="40.3627430" lon="-3.9245120">
        <ele>623.2</ele>
        <time>2019-04-28T13:47:27Z</time>
      </trkpt>
      <trkpt lat="40.3627430" lon="-3.9245020">
        <ele>623.2</ele>
        <time>2019-04-28T13:47:28Z</time>
      </trkpt>
      <trkpt lat="40.3627430" lon="-3.9244860">
        <ele>623.2</ele>
        <time>2019-04-28T13:47:29Z</time>
      </trkpt>
      <trkpt lat="40.3627440" lon="-3.9244700">
        <ele>623.4</ele>
        <time>2019-04-28T13:47:30Z</time>
      </trkpt>
      <trkpt lat="40.3627440" lon="-3.9244520">
        <ele>623.4</ele>
        <time>2019-04-28T13:47:31Z</time>
      </trkpt>
      <trkpt lat="40.3627410" lon="-3.9244340">
        <ele>623.6</ele>
        <time>2019-04-28T13:47:32Z</time>
      </trkpt>
      <trkpt lat="40.3627380" lon="-3.9244130">
        <ele>623.4</ele>
        <time>2019-04-28T13:47:33Z</time>
      </trkpt>
      <trkpt lat="40.3627330" lon="-3.9243900">
        <ele>623.2</ele>
        <time>2019-04-28T13:47:34Z</time>
      </trkpt>
      <trkpt lat="40.3627310" lon="-3.9243660">
        <ele>623.2</ele>
        <time>2019-04-28T13:47:35Z</time>
      </trkpt>
      <trkpt lat="40.3627290" lon="-3.9243420">
        <ele>623.2</ele>
        <time>2019-04-28T13:47:36Z</time>
      </trkpt>
      <trkpt lat="40.3627240" lon="-3.9243190">
        <ele>623.2</ele>
        <time>2019-04-28T13:47:37Z</time>
      </trkpt>
      <trkpt lat="40.3627220" lon="-3.9242960">
        <ele>623.0</ele>
        <time>2019-04-28T13:47:38Z</time>
      </trkpt>
      <trkpt lat="40.3627170" lon="-3.9242730">
        <ele>623.0</ele>
        <time>2019-04-28T13:47:39Z</time>
      </trkpt>
      <trkpt lat="40.3627150" lon="-3.9242530">
        <ele>623.0</ele>
        <time>2019-04-28T13:47:40Z</time>
      </trkpt>
      <trkpt lat="40.3627130" lon="-3.9242370">
        <ele>623.0</ele>
        <time>2019-04-28T13:47:41Z</time>
      </trkpt>
      <trkpt lat="40.3627130" lon="-3.9242230">
        <ele>623.0</ele>
        <time>2019-04-28T13:47:42Z</time>
      </trkpt>
      <trkpt lat="40.3627080" lon="-3.9242110">
        <ele>623.0</ele>
        <time>2019-04-28T13:47:43Z</time>
      </trkpt>
      <trkpt lat="40.3627040" lon="-3.9242010">
        <ele>623.0</ele>
        <time>2019-04-28T13:47:44Z</time>
      </trkpt>
      <trkpt lat="40.3627030" lon="-3.9241880">
        <ele>623.0</ele>
        <time>2019-04-28T13:47:45Z</time>
      </trkpt>
      <trkpt lat="40.3626980" lon="-3.9241720">
        <ele>623.0</ele>
        <time>2019-04-28T13:47:46Z</time>
      </trkpt>
      <trkpt lat="40.3626950" lon="-3.9241540">
        <ele>622.8</ele>
        <time>2019-04-28T13:47:47Z</time>
      </trkpt>
      <trkpt lat="40.3626910" lon="-3.9241390">
        <ele>622.6</ele>
        <time>2019-04-28T13:47:48Z</time>
      </trkpt>
      <trkpt lat="40.3626860" lon="-3.9241230">
        <ele>622.8</ele>
        <time>2019-04-28T13:47:49Z</time>
      </trkpt>
      <trkpt lat="40.3626840" lon="-3.9241100">
        <ele>622.8</ele>
        <time>2019-04-28T13:47:50Z</time>
      </trkpt>
      <trkpt lat="40.3626800" lon="-3.9240980">
        <ele>622.8</ele>
        <time>2019-04-28T13:47:51Z</time>
      </trkpt>
      <trkpt lat="40.3626780" lon="-3.9240860">
        <ele>622.8</ele>
        <time>2019-04-28T13:47:52Z</time>
      </trkpt>
      <trkpt lat="40.3626760" lon="-3.9240710">
        <ele>622.6</ele>
        <time>2019-04-28T13:47:53Z</time>
      </trkpt>
      <trkpt lat="40.3626740" lon="-3.9240620">
        <ele>622.6</ele>
        <time>2019-04-28T13:47:54Z</time>
      </trkpt>
      <trkpt lat="40.3626730" lon="-3.9240530">
        <ele>622.8</ele>
        <time>2019-04-28T13:47:55Z</time>
      </trkpt>
      <trkpt lat="40.3626700" lon="-3.9240350">
        <ele>622.8</ele>
        <time>2019-04-28T13:47:56Z</time>
      </trkpt>
      <trkpt lat="40.3626650" lon="-3.9240190">
        <ele>622.6</ele>
        <time>2019-04-28T13:47:57Z</time>
      </trkpt>
      <trkpt lat="40.3626620" lon="-3.9240020">
        <ele>622.6</ele>
        <time>2019-04-28T13:47:58Z</time>
      </trkpt>
      <trkpt lat="40.3626590" lon="-3.9239860">
        <ele>622.6</ele>
        <time>2019-04-28T13:47:59Z</time>
      </trkpt>
      <trkpt lat="40.3626560" lon="-3.9239670">
        <ele>622.6</ele>
        <time>2019-04-28T13:48:00Z</time>
      </trkpt>
      <trkpt lat="40.3626550" lon="-3.9239500">
        <ele>622.4</ele>
        <time>2019-04-28T13:48:01Z</time>
      </trkpt>
      <trkpt lat="40.3626550" lon="-3.9239330">
        <ele>622.6</ele>
        <time>2019-04-28T13:48:02Z</time>
      </trkpt>
      <trkpt lat="40.3626510" lon="-3.9239190">
        <ele>622.6</ele>
        <time>2019-04-28T13:48:03Z</time>
      </trkpt>
      <trkpt lat="40.3626440" lon="-3.9239010">
        <ele>622.2</ele>
        <time>2019-04-28T13:48:04Z</time>
      </trkpt>
      <trkpt lat="40.3626340" lon="-3.9238830">
        <ele>622.4</ele>
        <time>2019-04-28T13:48:05Z</time>
      </trkpt>
      <trkpt lat="40.3626260" lon="-3.9238630">
        <ele>622.4</ele>
        <time>2019-04-28T13:48:06Z</time>
      </trkpt>
      <trkpt lat="40.3626220" lon="-3.9238450">
        <ele>622.4</ele>
        <time>2019-04-28T13:48:07Z</time>
      </trkpt>
      <trkpt lat="40.3626200" lon="-3.9238330">
        <ele>622.6</ele>
        <time>2019-04-28T13:48:08Z</time>
      </trkpt>
      <trkpt lat="40.3626110" lon="-3.9238270">
        <ele>622.4</ele>
        <time>2019-04-28T13:48:09Z</time>
      </trkpt>
      <trkpt lat="40.3626030" lon="-3.9238190">
        <ele>622.0</ele>
        <time>2019-04-28T13:48:10Z</time>
      </trkpt>
      <trkpt lat="40.3626020" lon="-3.9238020">
        <ele>622.0</ele>
        <time>2019-04-28T13:48:11Z</time>
      </trkpt>
      <trkpt lat="40.3625990" lon="-3.9237780">
        <ele>622.2</ele>
        <time>2019-04-28T13:48:12Z</time>
      </trkpt>
      <trkpt lat="40.3626020" lon="-3.9237550">
        <ele>622.4</ele>
        <time>2019-04-28T13:48:13Z</time>
      </trkpt>
      <trkpt lat="40.3625990" lon="-3.9237270">
        <ele>622.4</ele>
        <time>2019-04-28T13:48:14Z</time>
      </trkpt>
      <trkpt lat="40.3625970" lon="-3.9237060">
        <ele>622.4</ele>
        <time>2019-04-28T13:48:15Z</time>
      </trkpt>
      <trkpt lat="40.3625920" lon="-3.9236810">
        <ele>622.4</ele>
        <time>2019-04-28T13:48:16Z</time>
      </trkpt>
      <trkpt lat="40.3625820" lon="-3.9236550">
        <ele>622.4</ele>
        <time>2019-04-28T13:48:17Z</time>
      </trkpt>
      <trkpt lat="40.3625740" lon="-3.9236270">
        <ele>622.2</ele>
        <time>2019-04-28T13:48:18Z</time>
      </trkpt>
      <trkpt lat="40.3625650" lon="-3.9235990">
        <ele>622.2</ele>
        <time>2019-04-28T13:48:19Z</time>
      </trkpt>
      <trkpt lat="40.3625560" lon="-3.9235690">
        <ele>622.2</ele>
        <time>2019-04-28T13:48:20Z</time>
      </trkpt>
      <trkpt lat="40.3625480" lon="-3.9235450">
        <ele>622.2</ele>
        <time>2019-04-28T13:48:21Z</time>
      </trkpt>
      <trkpt lat="40.3625430" lon="-3.9235220">
        <ele>622.4</ele>
        <time>2019-04-28T13:48:22Z</time>
      </trkpt>
      <trkpt lat="40.3625380" lon="-3.9234910">
        <ele>622.4</ele>
        <time>2019-04-28T13:48:23Z</time>
      </trkpt>
      <trkpt lat="40.3625340" lon="-3.9234580">
        <ele>622.6</ele>
        <time>2019-04-28T13:48:24Z</time>
      </trkpt>
      <trkpt lat="40.3625310" lon="-3.9234300">
        <ele>622.8</ele>
        <time>2019-04-28T13:48:25Z</time>
      </trkpt>
      <trkpt lat="40.3625260" lon="-3.9234140">
        <ele>623.0</ele>
        <time>2019-04-28T13:48:26Z</time>
      </trkpt>
      <trkpt lat="40.3625180" lon="-3.9233960">
        <ele>623.6</ele>
        <time>2019-04-28T13:48:27Z</time>
      </trkpt>
      <trkpt lat="40.3625090" lon="-3.9233720">
        <ele>623.8</ele>
        <time>2019-04-28T13:48:28Z</time>
      </trkpt>
      <trkpt lat="40.3625040" lon="-3.9233590">
        <ele>624.2</ele>
        <time>2019-04-28T13:48:29Z</time>
      </trkpt>
      <trkpt lat="40.3625020" lon="-3.9233450">
        <ele>624.4</ele>
        <time>2019-04-28T13:48:30Z</time>
      </trkpt>
      <trkpt lat="40.3624950" lon="-3.9233300">
        <ele>624.6</ele>
        <time>2019-04-28T13:48:31Z</time>
      </trkpt>
      <trkpt lat="40.3624900" lon="-3.9233200">
        <ele>624.8</ele>
        <time>2019-04-28T13:48:32Z</time>
      </trkpt>
      <trkpt lat="40.3624800" lon="-3.9233080">
        <ele>625.6</ele>
        <time>2019-04-28T13:48:33Z</time>
      </trkpt>
      <trkpt lat="40.3624730" lon="-3.9232980">
        <ele>626.0</ele>
        <time>2019-04-28T13:48:34Z</time>
      </trkpt>
      <trkpt lat="40.3624570" lon="-3.9232890">
        <ele>626.6</ele>
        <time>2019-04-28T13:48:35Z</time>
      </trkpt>
      <trkpt lat="40.3624470" lon="-3.9232770">
        <ele>627.0</ele>
        <time>2019-04-28T13:48:36Z</time>
      </trkpt>
      <trkpt lat="40.3624390" lon="-3.9232660">
        <ele>627.2</ele>
        <time>2019-04-28T13:48:37Z</time>
      </trkpt>
      <trkpt lat="40.3624290" lon="-3.9232560">
        <ele>627.4</ele>
        <time>2019-04-28T13:48:38Z</time>
      </trkpt>
      <trkpt lat="40.3624200" lon="-3.9232460">
        <ele>627.4</ele>
        <time>2019-04-28T13:48:39Z</time>
      </trkpt>
      <trkpt lat="40.3624110" lon="-3.9232370">
        <ele>627.6</ele>
        <time>2019-04-28T13:48:40Z</time>
      </trkpt>
      <trkpt lat="40.3624030" lon="-3.9232300">
        <ele>627.8</ele>
        <time>2019-04-28T13:48:41Z</time>
      </trkpt>
      <trkpt lat="40.3623970" lon="-3.9232240">
        <ele>628.0</ele>
        <time>2019-04-28T13:48:42Z</time>
      </trkpt>
      <trkpt lat="40.3623920" lon="-3.9232140">
        <ele>628.0</ele>
        <time>2019-04-28T13:48:43Z</time>
      </trkpt>
      <trkpt lat="40.3623870" lon="-3.9232010">
        <ele>628.0</ele>
        <time>2019-04-28T13:48:44Z</time>
      </trkpt>
      <trkpt lat="40.3623840" lon="-3.9231880">
        <ele>628.4</ele>
        <time>2019-04-28T13:48:45Z</time>
      </trkpt>
      <trkpt lat="40.3623760" lon="-3.9231770">
        <ele>628.4</ele>
        <time>2019-04-28T13:48:46Z</time>
      </trkpt>
      <trkpt lat="40.3623640" lon="-3.9231670">
        <ele>628.6</ele>
        <time>2019-04-28T13:48:47Z</time>
      </trkpt>
      <trkpt lat="40.3623510" lon="-3.9231610">
        <ele>628.6</ele>
        <time>2019-04-28T13:48:48Z</time>
      </trkpt>
      <trkpt lat="40.3623400" lon="-3.9231510">
        <ele>628.6</ele>
        <time>2019-04-28T13:48:49Z</time>
      </trkpt>
      <trkpt lat="40.3623340" lon="-3.9231530">
        <ele>628.8</ele>
        <time>2019-04-28T13:48:50Z</time>
      </trkpt>
      <trkpt lat="40.3623260" lon="-3.9231500">
        <ele>628.6</ele>
        <time>2019-04-28T13:48:51Z</time>
      </trkpt>
      <trkpt lat="40.3623200" lon="-3.9231510">
        <ele>628.6</ele>
        <time>2019-04-28T13:48:52Z</time>
      </trkpt>
      <trkpt lat="40.3623180" lon="-3.9231470">
        <ele>628.6</ele>
        <time>2019-04-28T13:48:53Z</time>
      </trkpt>
      <trkpt lat="40.3623180" lon="-3.9231450">
        <ele>628.8</ele>
        <time>2019-04-28T13:48:54Z</time>
      </trkpt>
      <trkpt lat="40.3623160" lon="-3.9231440">
        <ele>628.6</ele>
        <time>2019-04-28T13:48:55Z</time>
      </trkpt>
      <trkpt lat="40.3623140" lon="-3.9231420">
        <ele>628.6</ele>
        <time>2019-04-28T13:48:56Z</time>
      </trkpt>
      <trkpt lat="40.3623140" lon="-3.9231410">
        <ele>628.8</ele>
        <time>2019-04-28T13:48:57Z</time>
      </trkpt>
      <trkpt lat="40.3621040" lon="-3.9231680">
        <ele>629.0</ele>
        <time>2019-04-28T13:49:16Z</time>
      </trkpt>
      <trkpt lat="40.3620730" lon="-3.9231780">
        <ele>629.0</ele>
        <time>2019-04-28T13:49:17Z</time>
      </trkpt>
      <trkpt lat="40.3620450" lon="-3.9231900">
        <ele>629.0</ele>
        <time>2019-04-28T13:49:18Z</time>
      </trkpt>
      <trkpt lat="40.3620160" lon="-3.9231960">
        <ele>629.2</ele>
        <time>2019-04-28T13:49:19Z</time>
      </trkpt>
      <trkpt lat="40.3619860" lon="-3.9231990">
        <ele>629.0</ele>
        <time>2019-04-28T13:49:20Z</time>
      </trkpt>
      <trkpt lat="40.3619510" lon="-3.9231970">
        <ele>628.8</ele>
        <time>2019-04-28T13:49:21Z</time>
      </trkpt>
      <trkpt lat="40.3619100" lon="-3.9231960">
        <ele>628.6</ele>
        <time>2019-04-28T13:49:22Z</time>
      </trkpt>
      <trkpt lat="40.3618600" lon="-3.9231980">
        <ele>628.2</ele>
        <time>2019-04-28T13:49:23Z</time>
      </trkpt>
      <trkpt lat="40.3618050" lon="-3.9232020">
        <ele>627.6</ele>
        <time>2019-04-28T13:49:24Z</time>
      </trkpt>
      <trkpt lat="40.3617490" lon="-3.9232070">
        <ele>627.6</ele>
        <time>2019-04-28T13:49:25Z</time>
      </trkpt>
      <trkpt lat="40.3616990" lon="-3.9232290">
        <ele>627.6</ele>
        <time>2019-04-28T13:49:26Z</time>
      </trkpt>
      <trkpt lat="40.3616550" lon="-3.9232710">
        <ele>627.0</ele>
        <time>2019-04-28T13:49:27Z</time>
      </trkpt>
      <trkpt lat="40.3616210" lon="-3.9233250">
        <ele>627.0</ele>
        <time>2019-04-28T13:49:28Z</time>
      </trkpt>
      <trkpt lat="40.3616020" lon="-3.9233780">
        <ele>627.0</ele>
        <time>2019-04-28T13:49:29Z</time>
      </trkpt>
      <trkpt lat="40.3616050" lon="-3.9234210">
        <ele>626.6</ele>
        <time>2019-04-28T13:49:30Z</time>
      </trkpt>
      <trkpt lat="40.3616100" lon="-3.9234580">
        <ele>626.6</ele>
        <time>2019-04-28T13:49:31Z</time>
      </trkpt>
      <trkpt lat="40.3616050" lon="-3.9234990">
        <ele>626.6</ele>
        <time>2019-04-28T13:49:32Z</time>
      </trkpt>
      <trkpt lat="40.3615920" lon="-3.9235380">
        <ele>627.0</ele>
        <time>2019-04-28T13:49:33Z</time>
      </trkpt>
      <trkpt lat="40.3615770" lon="-3.9235740">
        <ele>627.4</ele>
        <time>2019-04-28T13:49:34Z</time>
      </trkpt>
      <trkpt lat="40.3615680" lon="-3.9236160">
        <ele>627.6</ele>
        <time>2019-04-28T13:49:35Z</time>
      </trkpt>
      <trkpt lat="40.3615610" lon="-3.9236560">
        <ele>628.0</ele>
        <time>2019-04-28T13:49:36Z</time>
      </trkpt>
      <trkpt lat="40.3615550" lon="-3.9236930">
        <ele>628.2</ele>
        <time>2019-04-28T13:49:37Z</time>
      </trkpt>
      <trkpt lat="40.3615480" lon="-3.9237290">
        <ele>628.6</ele>
        <time>2019-04-28T13:49:38Z</time>
      </trkpt>
      <trkpt lat="40.3615350" lon="-3.9237600">
        <ele>628.6</ele>
        <time>2019-04-28T13:49:39Z</time>
      </trkpt>
      <trkpt lat="40.3615200" lon="-3.9237910">
        <ele>628.8</ele>
        <time>2019-04-28T13:49:40Z</time>
      </trkpt>
      <trkpt lat="40.3615070" lon="-3.9238260">
        <ele>629.0</ele>
        <time>2019-04-28T13:49:41Z</time>
      </trkpt>
      <trkpt lat="40.3614930" lon="-3.9238610">
        <ele>629.0</ele>
        <time>2019-04-28T13:49:42Z</time>
      </trkpt>
      <trkpt lat="40.3614740" lon="-3.9238920">
        <ele>629.2</ele>
        <time>2019-04-28T13:49:43Z</time>
      </trkpt>
      <trkpt lat="40.3614500" lon="-3.9239230">
        <ele>629.2</ele>
        <time>2019-04-28T13:49:44Z</time>
      </trkpt>
      <trkpt lat="40.3614250" lon="-3.9239480">
        <ele>629.2</ele>
        <time>2019-04-28T13:49:45Z</time>
      </trkpt>
      <trkpt lat="40.3614010" lon="-3.9239710">
        <ele>629.6</ele>
        <time>2019-04-28T13:49:46Z</time>
      </trkpt>
      <trkpt lat="40.3613790" lon="-3.9239990">
        <ele>629.6</ele>
        <time>2019-04-28T13:49:47Z</time>
      </trkpt>
      <trkpt lat="40.3613590" lon="-3.9240280">
        <ele>629.4</ele>
        <time>2019-04-28T13:49:48Z</time>
      </trkpt>
      <trkpt lat="40.3613420" lon="-3.9240580">
        <ele>629.6</ele>
        <time>2019-04-28T13:49:49Z</time>
      </trkpt>
      <trkpt lat="40.3613260" lon="-3.9240890">
        <ele>629.4</ele>
        <time>2019-04-28T13:49:50Z</time>
      </trkpt>
      <trkpt lat="40.3613150" lon="-3.9241170">
        <ele>629.6</ele>
        <time>2019-04-28T13:49:51Z</time>
      </trkpt>
      <trkpt lat="40.3613070" lon="-3.9241440">
        <ele>629.8</ele>
        <time>2019-04-28T13:49:52Z</time>
      </trkpt>
      <trkpt lat="40.3613000" lon="-3.9241690">
        <ele>629.6</ele>
        <time>2019-04-28T13:49:53Z</time>
      </trkpt>
      <trkpt lat="40.3612920" lon="-3.9241930">
        <ele>629.8</ele>
        <time>2019-04-28T13:49:54Z</time>
      </trkpt>
      <trkpt lat="40.3612850" lon="-3.9242190">
        <ele>630.0</ele>
        <time>2019-04-28T13:49:55Z</time>
      </trkpt>
      <trkpt lat="40.3612790" lon="-3.9242450">
        <ele>630.0</ele>
        <time>2019-04-28T13:49:56Z</time>
      </trkpt>
      <trkpt lat="40.3612710" lon="-3.9242690">
        <ele>630.0</ele>
        <time>2019-04-28T13:49:57Z</time>
      </trkpt>
      <trkpt lat="40.3612560" lon="-3.9242850">
        <ele>630.0</ele>
        <time>2019-04-28T13:49:58Z</time>
      </trkpt>
      <trkpt lat="40.3612410" lon="-3.9243040">
        <ele>630.2</ele>
        <time>2019-04-28T13:49:59Z</time>
      </trkpt>
      <trkpt lat="40.3612240" lon="-3.9243250">
        <ele>630.4</ele>
        <time>2019-04-28T13:50:00Z</time>
      </trkpt>
      <trkpt lat="40.3612100" lon="-3.9243490">
        <ele>630.6</ele>
        <time>2019-04-28T13:50:01Z</time>
      </trkpt>
      <trkpt lat="40.3611950" lon="-3.9243740">
        <ele>630.6</ele>
        <time>2019-04-28T13:50:02Z</time>
      </trkpt>
      <trkpt lat="40.3611790" lon="-3.9243970">
        <ele>630.6</ele>
        <time>2019-04-28T13:50:03Z</time>
      </trkpt>
      <trkpt lat="40.3611620" lon="-3.9244200">
        <ele>630.8</ele>
        <time>2019-04-28T13:50:04Z</time>
      </trkpt>
      <trkpt lat="40.3611420" lon="-3.9244410">
        <ele>631.0</ele>
        <time>2019-04-28T13:50:05Z</time>
      </trkpt>
      <trkpt lat="40.3611300" lon="-3.9244680">
        <ele>631.2</ele>
        <time>2019-04-28T13:50:06Z</time>
      </trkpt>
      <trkpt lat="40.3611160" lon="-3.9244930">
        <ele>631.2</ele>
        <time>2019-04-28T13:50:07Z</time>
      </trkpt>
      <trkpt lat="40.3611030" lon="-3.9245180">
        <ele>631.4</ele>
        <time>2019-04-28T13:50:08Z</time>
      </trkpt>
      <trkpt lat="40.3610900" lon="-3.9245440">
        <ele>631.6</ele>
        <time>2019-04-28T13:50:09Z</time>
      </trkpt>
      <trkpt lat="40.3610750" lon="-3.9245670">
        <ele>631.6</ele>
        <time>2019-04-28T13:50:10Z</time>
      </trkpt>
      <trkpt lat="40.3610620" lon="-3.9245940">
        <ele>631.8</ele>
        <time>2019-04-28T13:50:11Z</time>
      </trkpt>
      <trkpt lat="40.3610500" lon="-3.9246230">
        <ele>632.0</ele>
        <time>2019-04-28T13:50:12Z</time>
      </trkpt>
      <trkpt lat="40.3610400" lon="-3.9246520">
        <ele>632.2</ele>
        <time>2019-04-28T13:50:13Z</time>
      </trkpt>
      <trkpt lat="40.3610290" lon="-3.9246800">
        <ele>632.2</ele>
        <time>2019-04-28T13:50:14Z</time>
      </trkpt>
      <trkpt lat="40.3610180" lon="-3.9247090">
        <ele>632.2</ele>
        <time>2019-04-28T13:50:15Z</time>
      </trkpt>
      <trkpt lat="40.3610090" lon="-3.9247400">
        <ele>632.2</ele>
        <time>2019-04-28T13:50:16Z</time>
      </trkpt>
      <trkpt lat="40.3609970" lon="-3.9247690">
        <ele>632.2</ele>
        <time>2019-04-28T13:50:17Z</time>
      </trkpt>
      <trkpt lat="40.3609790" lon="-3.9247930">
        <ele>632.2</ele>
        <time>2019-04-28T13:50:18Z</time>
      </trkpt>
      <trkpt lat="40.3609600" lon="-3.9248140">
        <ele>632.2</ele>
        <time>2019-04-28T13:50:19Z</time>
      </trkpt>
      <trkpt lat="40.3609420" lon="-3.9248320">
        <ele>632.2</ele>
        <time>2019-04-28T13:50:20Z</time>
      </trkpt>
      <trkpt lat="40.3609230" lon="-3.9248440">
        <ele>632.4</ele>
        <time>2019-04-28T13:50:21Z</time>
      </trkpt>
      <trkpt lat="40.3609100" lon="-3.9248520">
        <ele>632.4</ele>
        <time>2019-04-28T13:50:22Z</time>
      </trkpt>
      <trkpt lat="40.3609060" lon="-3.9248550">
        <ele>632.6</ele>
        <time>2019-04-28T13:50:23Z</time>
      </trkpt>
      <trkpt lat="40.3609080" lon="-3.9248580">
        <ele>632.6</ele>
        <time>2019-04-28T13:50:24Z</time>
      </trkpt>
      <trkpt lat="40.3609080" lon="-3.9248660">
        <ele>632.4</ele>
        <time>2019-04-28T13:50:25Z</time>
      </trkpt>
      <trkpt lat="40.3609050" lon="-3.9248750">
        <ele>632.2</ele>
        <time>2019-04-28T13:50:26Z</time>
      </trkpt>
      <trkpt lat="40.3609030" lon="-3.9248830">
        <ele>632.2</ele>
        <time>2019-04-28T13:50:27Z</time>
      </trkpt>
      <trkpt lat="40.3608990" lon="-3.9248900">
        <ele>632.0</ele>
        <time>2019-04-28T13:50:28Z</time>
      </trkpt>
      <trkpt lat="40.3608920" lon="-3.9249000">
        <ele>632.0</ele>
        <time>2019-04-28T13:50:29Z</time>
      </trkpt>
      <trkpt lat="40.3608830" lon="-3.9249090">
        <ele>632.2</ele>
        <time>2019-04-28T13:50:30Z</time>
      </trkpt>
      <trkpt lat="40.3608780" lon="-3.9249090">
        <ele>632.2</ele>
        <time>2019-04-28T13:50:31Z</time>
      </trkpt>
      <trkpt lat="40.3608750" lon="-3.9249120">
        <ele>632.2</ele>
        <time>2019-04-28T13:50:32Z</time>
      </trkpt>
      <trkpt lat="40.3608740" lon="-3.9249090">
        <ele>632.2</ele>
        <time>2019-04-28T13:50:33Z</time>
      </trkpt>
      <trkpt lat="40.3608760" lon="-3.9249040">
        <ele>632.2</ele>
        <time>2019-04-28T13:50:34Z</time>
      </trkpt>
      <trkpt lat="40.3608750" lon="-3.9249020">
        <ele>632.2</ele>
        <time>2019-04-28T13:50:35Z</time>
      </trkpt>
      <trkpt lat="40.3608760" lon="-3.9249010">
        <ele>632.2</ele>
        <time>2019-04-28T13:50:36Z</time>
      </trkpt>
      <trkpt lat="40.3608760" lon="-3.9249020">
        <ele>632.2</ele>
        <time>2019-04-28T13:50:37Z</time>
      </trkpt>
      <trkpt lat="40.3608750" lon="-3.9249040">
        <ele>632.2</ele>
        <time>2019-04-28T13:50:38Z</time>
      </trkpt>
      <trkpt lat="40.3608750" lon="-3.9249060">
        <ele>632.2</ele>
        <time>2019-04-28T13:50:39Z</time>
      </trkpt>
      <trkpt lat="40.3608750" lon="-3.9249070">
        <ele>632.2</ele>
        <time>2019-04-28T13:50:40Z</time>
      </trkpt>
      <trkpt lat="40.3608750" lon="-3.9249090">
        <ele>632.2</ele>
        <time>2019-04-28T13:50:41Z</time>
      </trkpt>
      <trkpt lat="40.3608740" lon="-3.9249110">
        <ele>632.2</ele>
        <time>2019-04-28T13:50:42Z</time>
      </trkpt>
      <trkpt lat="40.3608720" lon="-3.9249130">
        <ele>632.0</ele>
        <time>2019-04-28T13:50:43Z</time>
      </trkpt>
      <trkpt lat="40.3608720" lon="-3.9249130">
        <ele>632.2</ele>
        <time>2019-04-28T13:50:44Z</time>
      </trkpt>
      <trkpt lat="40.3608720" lon="-3.9249140">
        <ele>632.2</ele>
        <time>2019-04-28T13:50:45Z</time>
      </trkpt>
      <trkpt lat="40.3608720" lon="-3.9249140">
        <ele>632.0</ele>
        <time>2019-04-28T13:50:46Z</time>
      </trkpt>
      <trkpt lat="40.3607520" lon="-3.9249140">
        <ele>633.0</ele>
        <time>2019-04-28T13:50:56Z</time>
      </trkpt>
      <trkpt lat="40.3607270" lon="-3.9249090">
        <ele>633.0</ele>
        <time>2019-04-28T13:50:57Z</time>
      </trkpt>
      <trkpt lat="40.3607010" lon="-3.9249020">
        <ele>633.2</ele>
        <time>2019-04-28T13:50:58Z</time>
      </trkpt>
      <trkpt lat="40.3606740" lon="-3.9249010">
        <ele>633.4</ele>
        <time>2019-04-28T13:50:59Z</time>
      </trkpt>
      <trkpt lat="40.3606440" lon="-3.9249000">
        <ele>633.4</ele>
        <time>2019-04-28T13:51:00Z</time>
      </trkpt>
      <trkpt lat="40.3606150" lon="-3.9248980">
        <ele>633.6</ele>
        <time>2019-04-28T13:51:01Z</time>
      </trkpt>
      <trkpt lat="40.3605840" lon="-3.9248960">
        <ele>633.8</ele>
        <time>2019-04-28T13:51:02Z</time>
      </trkpt>
      <trkpt lat="40.3605520" lon="-3.9248960">
        <ele>633.8</ele>
        <time>2019-04-28T13:51:03Z</time>
      </trkpt>
      <trkpt lat="40.3605210" lon="-3.9248930">
        <ele>634.0</ele>
        <time>2019-04-28T13:51:04Z</time>
      </trkpt>
      <trkpt lat="40.3604890" lon="-3.9248910">
        <ele>634.2</ele>
        <time>2019-04-28T13:51:05Z</time>
      </trkpt>
      <trkpt lat="40.3604560" lon="-3.9248870">
        <ele>634.2</ele>
        <time>2019-04-28T13:51:06Z</time>
      </trkpt>
      <trkpt lat="40.3604240" lon="-3.9248800">
        <ele>634.4</ele>
        <time>2019-04-28T13:51:07Z</time>
      </trkpt>
      <trkpt lat="40.3603910" lon="-3.9248760">
        <ele>634.6</ele>
        <time>2019-04-28T13:51:08Z</time>
      </trkpt>
      <trkpt lat="40.3603580" lon="-3.9248730">
        <ele>634.8</ele>
        <time>2019-04-28T13:51:09Z</time>
      </trkpt>
      <trkpt lat="40.3603250" lon="-3.9248720">
        <ele>634.8</ele>
        <time>2019-04-28T13:51:10Z</time>
      </trkpt>
      <trkpt lat="40.3602920" lon="-3.9248680">
        <ele>635.0</ele>
        <time>2019-04-28T13:51:11Z</time>
      </trkpt>
      <trkpt lat="40.3602580" lon="-3.9248630">
        <ele>635.2</ele>
        <time>2019-04-28T13:51:12Z</time>
      </trkpt>
      <trkpt lat="40.3602240" lon="-3.9248580">
        <ele>635.4</ele>
        <time>2019-04-28T13:51:13Z</time>
      </trkpt>
      <trkpt lat="40.3601900" lon="-3.9248530">
        <ele>635.6</ele>
        <time>2019-04-28T13:51:14Z</time>
      </trkpt>
      <trkpt lat="40.3601550" lon="-3.9248480">
        <ele>635.8</ele>
        <time>2019-04-28T13:51:15Z</time>
      </trkpt>
      <trkpt lat="40.3601190" lon="-3.9248430">
        <ele>636.0</ele>
        <time>2019-04-28T13:51:16Z</time>
      </trkpt>
      <trkpt lat="40.3600820" lon="-3.9248380">
        <ele>636.0</ele>
        <time>2019-04-28T13:51:17Z</time>
      </trkpt>
      <trkpt lat="40.3600470" lon="-3.9248310">
        <ele>636.2</ele>
        <time>2019-04-28T13:51:18Z</time>
      </trkpt>
      <trkpt lat="40.3600110" lon="-3.9248260">
        <ele>636.4</ele>
        <time>2019-04-28T13:51:19Z</time>
      </trkpt>
      <trkpt lat="40.3599750" lon="-3.9248220">
        <ele>636.6</ele>
        <time>2019-04-28T13:51:20Z</time>
      </trkpt>
      <trkpt lat="40.3599390" lon="-3.9248150">
        <ele>636.8</ele>
        <time>2019-04-28T13:51:21Z</time>
      </trkpt>
      <trkpt lat="40.3599040" lon="-3.9248100">
        <ele>637.0</ele>
        <time>2019-04-28T13:51:22Z</time>
      </trkpt>
      <trkpt lat="40.3598680" lon="-3.9248060">
        <ele>637.0</ele>
        <time>2019-04-28T13:51:23Z</time>
      </trkpt>
      <trkpt lat="40.3598330" lon="-3.9248030">
        <ele>637.2</ele>
        <time>2019-04-28T13:51:24Z</time>
      </trkpt>
      <trkpt lat="40.3597970" lon="-3.9247980">
        <ele>637.4</ele>
        <time>2019-04-28T13:51:25Z</time>
      </trkpt>
      <trkpt lat="40.3597620" lon="-3.9247950">
        <ele>637.6</ele>
        <time>2019-04-28T13:51:26Z</time>
      </trkpt>
      <trkpt lat="40.3597270" lon="-3.9247910">
        <ele>637.8</ele>
        <time>2019-04-28T13:51:27Z</time>
      </trkpt>
      <trkpt lat="40.3596920" lon="-3.9247870">
        <ele>638.0</ele>
        <time>2019-04-28T13:51:28Z</time>
      </trkpt>
      <trkpt lat="40.3596550" lon="-3.9247830">
        <ele>638.2</ele>
        <time>2019-04-28T13:51:29Z</time>
      </trkpt>
      <trkpt lat="40.3596200" lon="-3.9247770">
        <ele>638.4</ele>
        <time>2019-04-28T13:51:30Z</time>
      </trkpt>
      <trkpt lat="40.3595840" lon="-3.9247730">
        <ele>638.4</ele>
        <time>2019-04-28T13:51:31Z</time>
      </trkpt>
      <trkpt lat="40.3595480" lon="-3.9247680">
        <ele>638.6</ele>
        <time>2019-04-28T13:51:32Z</time>
      </trkpt>
      <trkpt lat="40.3595120" lon="-3.9247610">
        <ele>638.8</ele>
        <time>2019-04-28T13:51:33Z</time>
      </trkpt>
      <trkpt lat="40.3594750" lon="-3.9247550">
        <ele>638.8</ele>
        <time>2019-04-28T13:51:34Z</time>
      </trkpt>
      <trkpt lat="40.3594390" lon="-3.9247430">
        <ele>638.8</ele>
        <time>2019-04-28T13:51:35Z</time>
      </trkpt>
      <trkpt lat="40.3594040" lon="-3.9247350">
        <ele>638.8</ele>
        <time>2019-04-28T13:51:36Z</time>
      </trkpt>
      <trkpt lat="40.3593690" lon="-3.9247330">
        <ele>638.8</ele>
        <time>2019-04-28T13:51:37Z</time>
      </trkpt>
      <trkpt lat="40.3593380" lon="-3.9247270">
        <ele>638.6</ele>
        <time>2019-04-28T13:51:38Z</time>
      </trkpt>
      <trkpt lat="40.3593080" lon="-3.9247180">
        <ele>638.6</ele>
        <time>2019-04-28T13:51:39Z</time>
      </trkpt>
      <trkpt lat="40.3592780" lon="-3.9247110">
        <ele>638.6</ele>
        <time>2019-04-28T13:51:40Z</time>
      </trkpt>
      <trkpt lat="40.3592480" lon="-3.9247020">
        <ele>638.6</ele>
        <time>2019-04-28T13:51:41Z</time>
      </trkpt>
      <trkpt lat="40.3592160" lon="-3.9246960">
        <ele>638.4</ele>
        <time>2019-04-28T13:51:42Z</time>
      </trkpt>
      <trkpt lat="40.3591840" lon="-3.9246910">
        <ele>638.4</ele>
        <time>2019-04-28T13:51:43Z</time>
      </trkpt>
      <trkpt lat="40.3591510" lon="-3.9246840">
        <ele>638.4</ele>
        <time>2019-04-28T13:51:44Z</time>
      </trkpt>
      <trkpt lat="40.3591190" lon="-3.9246770">
        <ele>638.4</ele>
        <time>2019-04-28T13:51:45Z</time>
      </trkpt>
      <trkpt lat="40.3590870" lon="-3.9246690">
        <ele>638.4</ele>
        <time>2019-04-28T13:51:46Z</time>
      </trkpt>
      <trkpt lat="40.3590520" lon="-3.9246640">
        <ele>638.4</ele>
        <time>2019-04-28T13:51:47Z</time>
      </trkpt>
      <trkpt lat="40.3590150" lon="-3.9246610">
        <ele>638.4</ele>
        <time>2019-04-28T13:51:48Z</time>
      </trkpt>
      <trkpt lat="40.3589770" lon="-3.9246550">
        <ele>638.2</ele>
        <time>2019-04-28T13:51:49Z</time>
      </trkpt>
      <trkpt lat="40.3589400" lon="-3.9246490">
        <ele>638.4</ele>
        <time>2019-04-28T13:51:50Z</time>
      </trkpt>
      <trkpt lat="40.3589020" lon="-3.9246460">
        <ele>638.2</ele>
        <time>2019-04-28T13:51:51Z</time>
      </trkpt>
      <trkpt lat="40.3588630" lon="-3.9246440">
        <ele>638.2</ele>
        <time>2019-04-28T13:51:52Z</time>
      </trkpt>
      <trkpt lat="40.3588240" lon="-3.9246420">
        <ele>638.2</ele>
        <time>2019-04-28T13:51:53Z</time>
      </trkpt>
      <trkpt lat="40.3587840" lon="-3.9246400">
        <ele>638.4</ele>
        <time>2019-04-28T13:51:54Z</time>
      </trkpt>
      <trkpt lat="40.3587430" lon="-3.9246380">
        <ele>638.2</ele>
        <time>2019-04-28T13:51:55Z</time>
      </trkpt>
      <trkpt lat="40.3587020" lon="-3.9246380">
        <ele>638.2</ele>
        <time>2019-04-28T13:51:56Z</time>
      </trkpt>
      <trkpt lat="40.3586590" lon="-3.9246360">
        <ele>638.2</ele>
        <time>2019-04-28T13:51:57Z</time>
      </trkpt>
      <trkpt lat="40.3586160" lon="-3.9246360">
        <ele>638.4</ele>
        <time>2019-04-28T13:51:58Z</time>
      </trkpt>
      <trkpt lat="40.3585740" lon="-3.9246330">
        <ele>638.4</ele>
        <time>2019-04-28T13:51:59Z</time>
      </trkpt>
      <trkpt lat="40.3585310" lon="-3.9246270">
        <ele>638.6</ele>
        <time>2019-04-28T13:52:00Z</time>
      </trkpt>
      <trkpt lat="40.3584900" lon="-3.9246170">
        <ele>638.6</ele>
        <time>2019-04-28T13:52:01Z</time>
      </trkpt>
      <trkpt lat="40.3584490" lon="-3.9246060">
        <ele>638.6</ele>
        <time>2019-04-28T13:52:02Z</time>
      </trkpt>
      <trkpt lat="40.3584080" lon="-3.9245970">
        <ele>638.8</ele>
        <time>2019-04-28T13:52:03Z</time>
      </trkpt>
      <trkpt lat="40.3583680" lon="-3.9245850">
        <ele>638.8</ele>
        <time>2019-04-28T13:52:04Z</time>
      </trkpt>
      <trkpt lat="40.3583290" lon="-3.9245710">
        <ele>639.0</ele>
        <time>2019-04-28T13:52:05Z</time>
      </trkpt>
      <trkpt lat="40.3582920" lon="-3.9245540">
        <ele>639.0</ele>
        <time>2019-04-28T13:52:06Z</time>
      </trkpt>
      <trkpt lat="40.3582530" lon="-3.9245390">
        <ele>639.2</ele>
        <time>2019-04-28T13:52:07Z</time>
      </trkpt>
      <trkpt lat="40.3582160" lon="-3.9245230">
        <ele>639.4</ele>
        <time>2019-04-28T13:52:08Z</time>
      </trkpt>
      <trkpt lat="40.3581800" lon="-3.9245050">
        <ele>639.6</ele>
        <time>2019-04-28T13:52:09Z</time>
      </trkpt>
      <trkpt lat="40.3581450" lon="-3.9244870">
        <ele>639.6</ele>
        <time>2019-04-28T13:52:10Z</time>
      </trkpt>
      <trkpt lat="40.3581110" lon="-3.9244700">
        <ele>639.8</ele>
        <time>2019-04-28T13:52:11Z</time>
      </trkpt>
      <trkpt lat="40.3580760" lon="-3.9244540">
        <ele>640.0</ele>
        <time>2019-04-28T13:52:12Z</time>
      </trkpt>
      <trkpt lat="40.3580410" lon="-3.9244360">
        <ele>640.0</ele>
        <time>2019-04-28T13:52:13Z</time>
      </trkpt>
      <trkpt lat="40.3580070" lon="-3.9244170">
        <ele>640.2</ele>
        <time>2019-04-28T13:52:14Z</time>
      </trkpt>
      <trkpt lat="40.3579710" lon="-3.9243990">
        <ele>640.2</ele>
        <time>2019-04-28T13:52:15Z</time>
      </trkpt>
      <trkpt lat="40.3579350" lon="-3.9243820">
        <ele>640.4</ele>
        <time>2019-04-28T13:52:16Z</time>
      </trkpt>
      <trkpt lat="40.3579000" lon="-3.9243640">
        <ele>640.6</ele>
        <time>2019-04-28T13:52:17Z</time>
      </trkpt>
      <trkpt lat="40.3578650" lon="-3.9243420">
        <ele>640.8</ele>
        <time>2019-04-28T13:52:18Z</time>
      </trkpt>
      <trkpt lat="40.3578290" lon="-3.9243210">
        <ele>640.8</ele>
        <time>2019-04-28T13:52:19Z</time>
      </trkpt>
      <trkpt lat="40.3577930" lon="-3.9243030">
        <ele>641.0</ele>
        <time>2019-04-28T13:52:20Z</time>
      </trkpt>
      <trkpt lat="40.3577570" lon="-3.9242840">
        <ele>641.2</ele>
        <time>2019-04-28T13:52:21Z</time>
      </trkpt>
      <trkpt lat="40.3577220" lon="-3.9242650">
        <ele>641.2</ele>
        <time>2019-04-28T13:52:22Z</time>
      </trkpt>
      <trkpt lat="40.3576860" lon="-3.9242450">
        <ele>641.4</ele>
        <time>2019-04-28T13:52:23Z</time>
      </trkpt>
      <trkpt lat="40.3576500" lon="-3.9242270">
        <ele>641.6</ele>
        <time>2019-04-28T13:52:24Z</time>
      </trkpt>
      <trkpt lat="40.3576140" lon="-3.9242090">
        <ele>641.6</ele>
        <time>2019-04-28T13:52:25Z</time>
      </trkpt>
      <trkpt lat="40.3575790" lon="-3.9241890">
        <ele>641.8</ele>
        <time>2019-04-28T13:52:26Z</time>
      </trkpt>
      <trkpt lat="40.3575450" lon="-3.9241680">
        <ele>642.0</ele>
        <time>2019-04-28T13:52:27Z</time>
      </trkpt>
      <trkpt lat="40.3575110" lon="-3.9241460">
        <ele>642.2</ele>
        <time>2019-04-28T13:52:28Z</time>
      </trkpt>
      <trkpt lat="40.3574750" lon="-3.9241280">
        <ele>642.2</ele>
        <time>2019-04-28T13:52:29Z</time>
      </trkpt>
      <trkpt lat="40.3574400" lon="-3.9241110">
        <ele>642.4</ele>
        <time>2019-04-28T13:52:30Z</time>
      </trkpt>
      <trkpt lat="40.3574060" lon="-3.9240920">
        <ele>642.4</ele>
        <time>2019-04-28T13:52:31Z</time>
      </trkpt>
      <trkpt lat="40.3573710" lon="-3.9240720">
        <ele>642.6</ele>
        <time>2019-04-28T13:52:32Z</time>
      </trkpt>
      <trkpt lat="40.3573360" lon="-3.9240550">
        <ele>642.8</ele>
        <time>2019-04-28T13:52:33Z</time>
      </trkpt>
      <trkpt lat="40.3573000" lon="-3.9240370">
        <ele>643.0</ele>
        <time>2019-04-28T13:52:34Z</time>
      </trkpt>
      <trkpt lat="40.3572660" lon="-3.9240190">
        <ele>643.0</ele>
        <time>2019-04-28T13:52:35Z</time>
      </trkpt>
      <trkpt lat="40.3572300" lon="-3.9240020">
        <ele>643.2</ele>
        <time>2019-04-28T13:52:36Z</time>
      </trkpt>
      <trkpt lat="40.3571960" lon="-3.9239860">
        <ele>643.2</ele>
        <time>2019-04-28T13:52:37Z</time>
      </trkpt>
      <trkpt lat="40.3571600" lon="-3.9239720">
        <ele>643.4</ele>
        <time>2019-04-28T13:52:38Z</time>
      </trkpt>
      <trkpt lat="40.3571250" lon="-3.9239580">
        <ele>643.6</ele>
        <time>2019-04-28T13:52:39Z</time>
      </trkpt>
      <trkpt lat="40.3570910" lon="-3.9239420">
        <ele>643.6</ele>
        <time>2019-04-28T13:52:40Z</time>
      </trkpt>
      <trkpt lat="40.3570560" lon="-3.9239320">
        <ele>643.8</ele>
        <time>2019-04-28T13:52:41Z</time>
      </trkpt>
      <trkpt lat="40.3570210" lon="-3.9239240">
        <ele>644.0</ele>
        <time>2019-04-28T13:52:42Z</time>
      </trkpt>
      <trkpt lat="40.3569850" lon="-3.9239130">
        <ele>644.0</ele>
        <time>2019-04-28T13:52:43Z</time>
      </trkpt>
      <trkpt lat="40.3569500" lon="-3.9239010">
        <ele>644.2</ele>
        <time>2019-04-28T13:52:44Z</time>
      </trkpt>
      <trkpt lat="40.3569140" lon="-3.9238890">
        <ele>644.4</ele>
        <time>2019-04-28T13:52:45Z</time>
      </trkpt>
      <trkpt lat="40.3568790" lon="-3.9238790">
        <ele>644.4</ele>
        <time>2019-04-28T13:52:46Z</time>
      </trkpt>
      <trkpt lat="40.3568430" lon="-3.9238690">
        <ele>644.6</ele>
        <time>2019-04-28T13:52:47Z</time>
      </trkpt>
      <trkpt lat="40.3568080" lon="-3.9238610">
        <ele>644.6</ele>
        <time>2019-04-28T13:52:48Z</time>
      </trkpt>
      <trkpt lat="40.3567720" lon="-3.9238530">
        <ele>644.8</ele>
        <time>2019-04-28T13:52:49Z</time>
      </trkpt>
      <trkpt lat="40.3567350" lon="-3.9238480">
        <ele>644.8</ele>
        <time>2019-04-28T13:52:50Z</time>
      </trkpt>
      <trkpt lat="40.3566990" lon="-3.9238400">
        <ele>645.0</ele>
        <time>2019-04-28T13:52:51Z</time>
      </trkpt>
      <trkpt lat="40.3566620" lon="-3.9238330">
        <ele>645.2</ele>
        <time>2019-04-28T13:52:52Z</time>
      </trkpt>
      <trkpt lat="40.3566260" lon="-3.9238310">
        <ele>645.2</ele>
        <time>2019-04-28T13:52:53Z</time>
      </trkpt>
      <trkpt lat="40.3565900" lon="-3.9238260">
        <ele>645.4</ele>
        <time>2019-04-28T13:52:54Z</time>
      </trkpt>
      <trkpt lat="40.3565530" lon="-3.9238190">
        <ele>645.6</ele>
        <time>2019-04-28T13:52:55Z</time>
      </trkpt>
      <trkpt lat="40.3565180" lon="-3.9238110">
        <ele>645.8</ele>
        <time>2019-04-28T13:52:56Z</time>
      </trkpt>
      <trkpt lat="40.3564820" lon="-3.9238030">
        <ele>646.0</ele>
        <time>2019-04-28T13:52:57Z</time>
      </trkpt>
      <trkpt lat="40.3564470" lon="-3.9237930">
        <ele>646.2</ele>
        <time>2019-04-28T13:52:58Z</time>
      </trkpt>
      <trkpt lat="40.3564130" lon="-3.9237840">
        <ele>646.2</ele>
        <time>2019-04-28T13:52:59Z</time>
      </trkpt>
      <trkpt lat="40.3563800" lon="-3.9237730">
        <ele>646.4</ele>
        <time>2019-04-28T13:53:00Z</time>
      </trkpt>
      <trkpt lat="40.3563450" lon="-3.9237630">
        <ele>646.4</ele>
        <time>2019-04-28T13:53:01Z</time>
      </trkpt>
      <trkpt lat="40.3563120" lon="-3.9237520">
        <ele>646.6</ele>
        <time>2019-04-28T13:53:02Z</time>
      </trkpt>
      <trkpt lat="40.3562790" lon="-3.9237390">
        <ele>646.8</ele>
        <time>2019-04-28T13:53:03Z</time>
      </trkpt>
      <trkpt lat="40.3562460" lon="-3.9237250">
        <ele>647.0</ele>
        <time>2019-04-28T13:53:04Z</time>
      </trkpt>
      <trkpt lat="40.3562120" lon="-3.9237130">
        <ele>647.0</ele>
        <time>2019-04-28T13:53:05Z</time>
      </trkpt>
      <trkpt lat="40.3561780" lon="-3.9237020">
        <ele>647.2</ele>
        <time>2019-04-28T13:53:06Z</time>
      </trkpt>
      <trkpt lat="40.3561450" lon="-3.9236900">
        <ele>647.4</ele>
        <time>2019-04-28T13:53:07Z</time>
      </trkpt>
      <trkpt lat="40.3561120" lon="-3.9236760">
        <ele>647.4</ele>
        <time>2019-04-28T13:53:08Z</time>
      </trkpt>
      <trkpt lat="40.3560790" lon="-3.9236620">
        <ele>647.6</ele>
        <time>2019-04-28T13:53:09Z</time>
      </trkpt>
      <trkpt lat="40.3560470" lon="-3.9236480">
        <ele>647.8</ele>
        <time>2019-04-28T13:53:10Z</time>
      </trkpt>
      <trkpt lat="40.3560140" lon="-3.9236330">
        <ele>648.0</ele>
        <time>2019-04-28T13:53:11Z</time>
      </trkpt>
      <trkpt lat="40.3559820" lon="-3.9236180">
        <ele>648.2</ele>
        <time>2019-04-28T13:53:12Z</time>
      </trkpt>
      <trkpt lat="40.3559500" lon="-3.9236030">
        <ele>648.2</ele>
        <time>2019-04-28T13:53:13Z</time>
      </trkpt>
      <trkpt lat="40.3559180" lon="-3.9235880">
        <ele>648.6</ele>
        <time>2019-04-28T13:53:14Z</time>
      </trkpt>
      <trkpt lat="40.3558850" lon="-3.9235730">
        <ele>648.8</ele>
        <time>2019-04-28T13:53:15Z</time>
      </trkpt>
      <trkpt lat="40.3558530" lon="-3.9235560">
        <ele>649.0</ele>
        <time>2019-04-28T13:53:16Z</time>
      </trkpt>
      <trkpt lat="40.3558210" lon="-3.9235390">
        <ele>649.0</ele>
        <time>2019-04-28T13:53:17Z</time>
      </trkpt>
      <trkpt lat="40.3557890" lon="-3.9235190">
        <ele>649.2</ele>
        <time>2019-04-28T13:53:18Z</time>
      </trkpt>
      <trkpt lat="40.3557580" lon="-3.9235000">
        <ele>649.4</ele>
        <time>2019-04-28T13:53:19Z</time>
      </trkpt>
      <trkpt lat="40.3557270" lon="-3.9234810">
        <ele>649.4</ele>
        <time>2019-04-28T13:53:20Z</time>
      </trkpt>
      <trkpt lat="40.3556960" lon="-3.9234590">
        <ele>649.6</ele>
        <time>2019-04-28T13:53:21Z</time>
      </trkpt>
      <trkpt lat="40.3556650" lon="-3.9234350">
        <ele>649.8</ele>
        <time>2019-04-28T13:53:22Z</time>
      </trkpt>
      <trkpt lat="40.3556330" lon="-3.9234120">
        <ele>650.0</ele>
        <time>2019-04-28T13:53:23Z</time>
      </trkpt>
      <trkpt lat="40.3556010" lon="-3.9233910">
        <ele>650.0</ele>
        <time>2019-04-28T13:53:24Z</time>
      </trkpt>
      <trkpt lat="40.3555700" lon="-3.9233670">
        <ele>650.0</ele>
        <time>2019-04-28T13:53:25Z</time>
      </trkpt>
      <trkpt lat="40.3555400" lon="-3.9233420">
        <ele>650.2</ele>
        <time>2019-04-28T13:53:26Z</time>
      </trkpt>
      <trkpt lat="40.3555080" lon="-3.9233160">
        <ele>650.2</ele>
        <time>2019-04-28T13:53:27Z</time>
      </trkpt>
      <trkpt lat="40.3554760" lon="-3.9232910">
        <ele>650.2</ele>
        <time>2019-04-28T13:53:28Z</time>
      </trkpt>
      <trkpt lat="40.3554450" lon="-3.9232640">
        <ele>650.4</ele>
        <time>2019-04-28T13:53:29Z</time>
      </trkpt>
      <trkpt lat="40.3554120" lon="-3.9232360">
        <ele>650.4</ele>
        <time>2019-04-28T13:53:30Z</time>
      </trkpt>
      <trkpt lat="40.3553810" lon="-3.9232070">
        <ele>650.6</ele>
        <time>2019-04-28T13:53:31Z</time>
      </trkpt>
      <trkpt lat="40.3553490" lon="-3.9231760">
        <ele>650.6</ele>
        <time>2019-04-28T13:53:32Z</time>
      </trkpt>
      <trkpt lat="40.3553180" lon="-3.9231440">
        <ele>650.6</ele>
        <time>2019-04-28T13:53:33Z</time>
      </trkpt>
      <trkpt lat="40.3552870" lon="-3.9231150">
        <ele>650.6</ele>
        <time>2019-04-28T13:53:34Z</time>
      </trkpt>
      <trkpt lat="40.3552550" lon="-3.9230860">
        <ele>650.8</ele>
        <time>2019-04-28T13:53:35Z</time>
      </trkpt>
      <trkpt lat="40.3552250" lon="-3.9230560">
        <ele>650.8</ele>
        <time>2019-04-28T13:53:36Z</time>
      </trkpt>
      <trkpt lat="40.3551950" lon="-3.9230250">
        <ele>651.0</ele>
        <time>2019-04-28T13:53:37Z</time>
      </trkpt>
      <trkpt lat="40.3551660" lon="-3.9229940">
        <ele>651.0</ele>
        <time>2019-04-28T13:53:38Z</time>
      </trkpt>
      <trkpt lat="40.3551390" lon="-3.9229620">
        <ele>651.0</ele>
        <time>2019-04-28T13:53:39Z</time>
      </trkpt>
      <trkpt lat="40.3551110" lon="-3.9229300">
        <ele>651.0</ele>
        <time>2019-04-28T13:53:40Z</time>
      </trkpt>
      <trkpt lat="40.3550830" lon="-3.9229000">
        <ele>651.2</ele>
        <time>2019-04-28T13:53:41Z</time>
      </trkpt>
      <trkpt lat="40.3550570" lon="-3.9228680">
        <ele>651.2</ele>
        <time>2019-04-28T13:53:42Z</time>
      </trkpt>
      <trkpt lat="40.3550300" lon="-3.9228370">
        <ele>651.2</ele>
        <time>2019-04-28T13:53:43Z</time>
      </trkpt>
      <trkpt lat="40.3550030" lon="-3.9228050">
        <ele>651.4</ele>
        <time>2019-04-28T13:53:44Z</time>
      </trkpt>
      <trkpt lat="40.3549770" lon="-3.9227730">
        <ele>651.6</ele>
        <time>2019-04-28T13:53:45Z</time>
      </trkpt>
      <trkpt lat="40.3549510" lon="-3.9227420">
        <ele>651.6</ele>
        <time>2019-04-28T13:53:46Z</time>
      </trkpt>
      <trkpt lat="40.3549220" lon="-3.9227140">
        <ele>651.8</ele>
        <time>2019-04-28T13:53:47Z</time>
      </trkpt>
      <trkpt lat="40.3548930" lon="-3.9226850">
        <ele>651.8</ele>
        <time>2019-04-28T13:53:48Z</time>
      </trkpt>
      <trkpt lat="40.3548640" lon="-3.9226550">
        <ele>651.8</ele>
        <time>2019-04-28T13:53:49Z</time>
      </trkpt>
      <trkpt lat="40.3548360" lon="-3.9226260">
        <ele>652.0</ele>
        <time>2019-04-28T13:53:50Z</time>
      </trkpt>
      <trkpt lat="40.3548060" lon="-3.9225970">
        <ele>652.0</ele>
        <time>2019-04-28T13:53:51Z</time>
      </trkpt>
      <trkpt lat="40.3547770" lon="-3.9225700">
        <ele>652.2</ele>
        <time>2019-04-28T13:53:52Z</time>
      </trkpt>
      <trkpt lat="40.3547480" lon="-3.9225420">
        <ele>652.2</ele>
        <time>2019-04-28T13:53:53Z</time>
      </trkpt>
      <trkpt lat="40.3547180" lon="-3.9225160">
        <ele>652.4</ele>
        <time>2019-04-28T13:53:54Z</time>
      </trkpt>
      <trkpt lat="40.3546890" lon="-3.9224900">
        <ele>652.4</ele>
        <time>2019-04-28T13:53:55Z</time>
      </trkpt>
      <trkpt lat="40.3546590" lon="-3.9224660">
        <ele>652.6</ele>
        <time>2019-04-28T13:53:56Z</time>
      </trkpt>
      <trkpt lat="40.3546290" lon="-3.9224430">
        <ele>652.6</ele>
        <time>2019-04-28T13:53:57Z</time>
      </trkpt>
      <trkpt lat="40.3545990" lon="-3.9224200">
        <ele>652.8</ele>
        <time>2019-04-28T13:53:58Z</time>
      </trkpt>
      <trkpt lat="40.3545670" lon="-3.9223990">
        <ele>652.8</ele>
        <time>2019-04-28T13:53:59Z</time>
      </trkpt>
      <trkpt lat="40.3545330" lon="-3.9223750">
        <ele>652.8</ele>
        <time>2019-04-28T13:54:00Z</time>
      </trkpt>
      <trkpt lat="40.3545010" lon="-3.9223480">
        <ele>652.8</ele>
        <time>2019-04-28T13:54:01Z</time>
      </trkpt>
      <trkpt lat="40.3544670" lon="-3.9223230">
        <ele>652.8</ele>
        <time>2019-04-28T13:54:02Z</time>
      </trkpt>
      <trkpt lat="40.3544310" lon="-3.9223040">
        <ele>652.8</ele>
        <time>2019-04-28T13:54:03Z</time>
      </trkpt>
      <trkpt lat="40.3543930" lon="-3.9222880">
        <ele>652.8</ele>
        <time>2019-04-28T13:54:04Z</time>
      </trkpt>
      <trkpt lat="40.3543560" lon="-3.9222730">
        <ele>653.0</ele>
        <time>2019-04-28T13:54:05Z</time>
      </trkpt>
      <trkpt lat="40.3543210" lon="-3.9222540">
        <ele>653.0</ele>
        <time>2019-04-28T13:54:06Z</time>
      </trkpt>
      <trkpt lat="40.3542850" lon="-3.9222340">
        <ele>653.2</ele>
        <time>2019-04-28T13:54:07Z</time>
      </trkpt>
      <trkpt lat="40.3542490" lon="-3.9222100">
        <ele>653.4</ele>
        <time>2019-04-28T13:54:08Z</time>
      </trkpt>
      <trkpt lat="40.3542140" lon="-3.9221850">
        <ele>653.4</ele>
        <time>2019-04-28T13:54:09Z</time>
      </trkpt>
      <trkpt lat="40.3541790" lon="-3.9221580">
        <ele>653.4</ele>
        <time>2019-04-28T13:54:10Z</time>
      </trkpt>
      <trkpt lat="40.3541450" lon="-3.9221280">
        <ele>653.4</ele>
        <time>2019-04-28T13:54:11Z</time>
      </trkpt>
      <trkpt lat="40.3541110" lon="-3.9220980">
        <ele>653.4</ele>
        <time>2019-04-28T13:54:12Z</time>
      </trkpt>
      <trkpt lat="40.3540750" lon="-3.9220700">
        <ele>653.4</ele>
        <time>2019-04-28T13:54:13Z</time>
      </trkpt>
      <trkpt lat="40.3540390" lon="-3.9220430">
        <ele>653.4</ele>
        <time>2019-04-28T13:54:14Z</time>
      </trkpt>
      <trkpt lat="40.3540050" lon="-3.9220130">
        <ele>653.4</ele>
        <time>2019-04-28T13:54:15Z</time>
      </trkpt>
      <trkpt lat="40.3539700" lon="-3.9219850">
        <ele>653.6</ele>
        <time>2019-04-28T13:54:16Z</time>
      </trkpt>
      <trkpt lat="40.3539350" lon="-3.9219560">
        <ele>653.8</ele>
        <time>2019-04-28T13:54:17Z</time>
      </trkpt>
      <trkpt lat="40.3539010" lon="-3.9219270">
        <ele>653.8</ele>
        <time>2019-04-28T13:54:18Z</time>
      </trkpt>
      <trkpt lat="40.3538660" lon="-3.9218980">
        <ele>654.0</ele>
        <time>2019-04-28T13:54:19Z</time>
      </trkpt>
      <trkpt lat="40.3538310" lon="-3.9218670">
        <ele>654.0</ele>
        <time>2019-04-28T13:54:20Z</time>
      </trkpt>
      <trkpt lat="40.3537970" lon="-3.9218370">
        <ele>654.0</ele>
        <time>2019-04-28T13:54:21Z</time>
      </trkpt>
      <trkpt lat="40.3537630" lon="-3.9218080">
        <ele>654.0</ele>
        <time>2019-04-28T13:54:22Z</time>
      </trkpt>
      <trkpt lat="40.3537290" lon="-3.9217780">
        <ele>654.2</ele>
        <time>2019-04-28T13:54:23Z</time>
      </trkpt>
      <trkpt lat="40.3536970" lon="-3.9217490">
        <ele>654.2</ele>
        <time>2019-04-28T13:54:24Z</time>
      </trkpt>
      <trkpt lat="40.3536650" lon="-3.9217200">
        <ele>654.4</ele>
        <time>2019-04-28T13:54:25Z</time>
      </trkpt>
      <trkpt lat="40.3536320" lon="-3.9216950">
        <ele>654.6</ele>
        <time>2019-04-28T13:54:26Z</time>
      </trkpt>
      <trkpt lat="40.3535980" lon="-3.9216680">
        <ele>654.8</ele>
        <time>2019-04-28T13:54:27Z</time>
      </trkpt>
      <trkpt lat="40.3535670" lon="-3.9216420">
        <ele>654.8</ele>
        <time>2019-04-28T13:54:28Z</time>
      </trkpt>
      <trkpt lat="40.3535340" lon="-3.9216150">
        <ele>654.8</ele>
        <time>2019-04-28T13:54:29Z</time>
      </trkpt>
      <trkpt lat="40.3535000" lon="-3.9215930">
        <ele>655.0</ele>
        <time>2019-04-28T13:54:30Z</time>
      </trkpt>
      <trkpt lat="40.3534660" lon="-3.9215720">
        <ele>655.0</ele>
        <time>2019-04-28T13:54:31Z</time>
      </trkpt>
      <trkpt lat="40.3534300" lon="-3.9215490">
        <ele>655.0</ele>
        <time>2019-04-28T13:54:32Z</time>
      </trkpt>
      <trkpt lat="40.3533920" lon="-3.9215240">
        <ele>655.0</ele>
        <time>2019-04-28T13:54:33Z</time>
      </trkpt>
      <trkpt lat="40.3533540" lon="-3.9215010">
        <ele>655.0</ele>
        <time>2019-04-28T13:54:34Z</time>
      </trkpt>
      <trkpt lat="40.3533140" lon="-3.9214760">
        <ele>655.0</ele>
        <time>2019-04-28T13:54:35Z</time>
      </trkpt>
      <trkpt lat="40.3532750" lon="-3.9214470">
        <ele>655.0</ele>
        <time>2019-04-28T13:54:36Z</time>
      </trkpt>
      <trkpt lat="40.3532350" lon="-3.9214160">
        <ele>654.6</ele>
        <time>2019-04-28T13:54:37Z</time>
      </trkpt>
      <trkpt lat="40.3531950" lon="-3.9213860">
        <ele>654.6</ele>
        <time>2019-04-28T13:54:38Z</time>
      </trkpt>
      <trkpt lat="40.3531550" lon="-3.9213540">
        <ele>654.6</ele>
        <time>2019-04-28T13:54:39Z</time>
      </trkpt>
      <trkpt lat="40.3531150" lon="-3.9213220">
        <ele>654.6</ele>
        <time>2019-04-28T13:54:40Z</time>
      </trkpt>
      <trkpt lat="40.3530740" lon="-3.9212890">
        <ele>654.4</ele>
        <time>2019-04-28T13:54:41Z</time>
      </trkpt>
      <trkpt lat="40.3530320" lon="-3.9212560">
        <ele>654.2</ele>
        <time>2019-04-28T13:54:42Z</time>
      </trkpt>
      <trkpt lat="40.3529900" lon="-3.9212200">
        <ele>654.0</ele>
        <time>2019-04-28T13:54:43Z</time>
      </trkpt>
      <trkpt lat="40.3529490" lon="-3.9211830">
        <ele>654.0</ele>
        <time>2019-04-28T13:54:44Z</time>
      </trkpt>
      <trkpt lat="40.3529100" lon="-3.9211460">
        <ele>653.8</ele>
        <time>2019-04-28T13:54:45Z</time>
      </trkpt>
      <trkpt lat="40.3528670" lon="-3.9211140">
        <ele>653.6</ele>
        <time>2019-04-28T13:54:46Z</time>
      </trkpt>
      <trkpt lat="40.3528230" lon="-3.9210900">
        <ele>653.6</ele>
        <time>2019-04-28T13:54:47Z</time>
      </trkpt>
      <trkpt lat="40.3527760" lon="-3.9210630">
        <ele>653.4</ele>
        <time>2019-04-28T13:54:48Z</time>
      </trkpt>
      <trkpt lat="40.3527240" lon="-3.9210410">
        <ele>653.6</ele>
        <time>2019-04-28T13:54:49Z</time>
      </trkpt>
      <trkpt lat="40.3526720" lon="-3.9210220">
        <ele>653.8</ele>
        <time>2019-04-28T13:54:50Z</time>
      </trkpt>
      <trkpt lat="40.3526200" lon="-3.9209970">
        <ele>653.2</ele>
        <time>2019-04-28T13:54:51Z</time>
      </trkpt>
      <trkpt lat="40.3525650" lon="-3.9209730">
        <ele>653.0</ele>
        <time>2019-04-28T13:54:52Z</time>
      </trkpt>
      <trkpt lat="40.3525090" lon="-3.9209490">
        <ele>652.6</ele>
        <time>2019-04-28T13:54:53Z</time>
      </trkpt>
      <trkpt lat="40.3524510" lon="-3.9209220">
        <ele>652.2</ele>
        <time>2019-04-28T13:54:54Z</time>
      </trkpt>
      <trkpt lat="40.3523910" lon="-3.9208950">
        <ele>652.0</ele>
        <time>2019-04-28T13:54:55Z</time>
      </trkpt>
      <trkpt lat="40.3523290" lon="-3.9208660">
        <ele>651.4</ele>
        <time>2019-04-28T13:54:56Z</time>
      </trkpt>
      <trkpt lat="40.3522660" lon="-3.9208350">
        <ele>651.0</ele>
        <time>2019-04-28T13:54:57Z</time>
      </trkpt>
      <trkpt lat="40.3522010" lon="-3.9208020">
        <ele>650.6</ele>
        <time>2019-04-28T13:54:58Z</time>
      </trkpt>
      <trkpt lat="40.3521370" lon="-3.9207660">
        <ele>650.0</ele>
        <time>2019-04-28T13:54:59Z</time>
      </trkpt>
      <trkpt lat="40.3520720" lon="-3.9207300">
        <ele>649.6</ele>
        <time>2019-04-28T13:55:00Z</time>
      </trkpt>
      <trkpt lat="40.3520100" lon="-3.9206920">
        <ele>649.4</ele>
        <time>2019-04-28T13:55:01Z</time>
      </trkpt>
      <trkpt lat="40.3519500" lon="-3.9206480">
        <ele>648.8</ele>
        <time>2019-04-28T13:55:02Z</time>
      </trkpt>
      <trkpt lat="40.3518910" lon="-3.9206000">
        <ele>648.4</ele>
        <time>2019-04-28T13:55:03Z</time>
      </trkpt>
      <trkpt lat="40.3518300" lon="-3.9205550">
        <ele>648.4</ele>
        <time>2019-04-28T13:55:04Z</time>
      </trkpt>
      <trkpt lat="40.3517720" lon="-3.9205110">
        <ele>648.6</ele>
        <time>2019-04-28T13:55:05Z</time>
      </trkpt>
      <trkpt lat="40.3517180" lon="-3.9204660">
        <ele>648.6</ele>
        <time>2019-04-28T13:55:06Z</time>
      </trkpt>
      <trkpt lat="40.3516650" lon="-3.9204240">
        <ele>648.6</ele>
        <time>2019-04-28T13:55:07Z</time>
      </trkpt>
      <trkpt lat="40.3516150" lon="-3.9203850">
        <ele>648.8</ele>
        <time>2019-04-28T13:55:08Z</time>
      </trkpt>
      <trkpt lat="40.3515690" lon="-3.9203450">
        <ele>649.0</ele>
        <time>2019-04-28T13:55:09Z</time>
      </trkpt>
      <trkpt lat="40.3515240" lon="-3.9203070">
        <ele>649.0</ele>
        <time>2019-04-28T13:55:10Z</time>
      </trkpt>
      <trkpt lat="40.3514800" lon="-3.9202730">
        <ele>649.2</ele>
        <time>2019-04-28T13:55:11Z</time>
      </trkpt>
      <trkpt lat="40.3514370" lon="-3.9202380">
        <ele>649.6</ele>
        <time>2019-04-28T13:55:12Z</time>
      </trkpt>
      <trkpt lat="40.3513940" lon="-3.9202070">
        <ele>649.8</ele>
        <time>2019-04-28T13:55:13Z</time>
      </trkpt>
      <trkpt lat="40.3513520" lon="-3.9201770">
        <ele>650.0</ele>
        <time>2019-04-28T13:55:14Z</time>
      </trkpt>
      <trkpt lat="40.3513110" lon="-3.9201490">
        <ele>650.4</ele>
        <time>2019-04-28T13:55:15Z</time>
      </trkpt>
      <trkpt lat="40.3512700" lon="-3.9201210">
        <ele>650.4</ele>
        <time>2019-04-28T13:55:16Z</time>
      </trkpt>
      <trkpt lat="40.3512290" lon="-3.9200950">
        <ele>650.6</ele>
        <time>2019-04-28T13:55:17Z</time>
      </trkpt>
      <trkpt lat="40.3511890" lon="-3.9200690">
        <ele>650.8</ele>
        <time>2019-04-28T13:55:18Z</time>
      </trkpt>
      <trkpt lat="40.3511510" lon="-3.9200420">
        <ele>651.0</ele>
        <time>2019-04-28T13:55:19Z</time>
      </trkpt>
      <trkpt lat="40.3511130" lon="-3.9200150">
        <ele>651.4</ele>
        <time>2019-04-28T13:55:20Z</time>
      </trkpt>
      <trkpt lat="40.3510750" lon="-3.9199910">
        <ele>651.4</ele>
        <time>2019-04-28T13:55:21Z</time>
      </trkpt>
      <trkpt lat="40.3510370" lon="-3.9199680">
        <ele>651.6</ele>
        <time>2019-04-28T13:55:22Z</time>
      </trkpt>
      <trkpt lat="40.3510010" lon="-3.9199450">
        <ele>651.8</ele>
        <time>2019-04-28T13:55:23Z</time>
      </trkpt>
      <trkpt lat="40.3509640" lon="-3.9199230">
        <ele>652.0</ele>
        <time>2019-04-28T13:55:24Z</time>
      </trkpt>
      <trkpt lat="40.3509280" lon="-3.9198990">
        <ele>652.2</ele>
        <time>2019-04-28T13:55:25Z</time>
      </trkpt>
      <trkpt lat="40.3508930" lon="-3.9198760">
        <ele>652.6</ele>
        <time>2019-04-28T13:55:26Z</time>
      </trkpt>
      <trkpt lat="40.3508590" lon="-3.9198520">
        <ele>652.8</ele>
        <time>2019-04-28T13:55:27Z</time>
      </trkpt>
      <trkpt lat="40.3508250" lon="-3.9198270">
        <ele>653.0</ele>
        <time>2019-04-28T13:55:28Z</time>
      </trkpt>
      <trkpt lat="40.3507900" lon="-3.9198020">
        <ele>653.2</ele>
        <time>2019-04-28T13:55:29Z</time>
      </trkpt>
      <trkpt lat="40.3507550" lon="-3.9197770">
        <ele>653.6</ele>
        <time>2019-04-28T13:55:30Z</time>
      </trkpt>
      <trkpt lat="40.3507210" lon="-3.9197520">
        <ele>653.6</ele>
        <time>2019-04-28T13:55:31Z</time>
      </trkpt>
      <trkpt lat="40.3506870" lon="-3.9197250">
        <ele>653.8</ele>
        <time>2019-04-28T13:55:32Z</time>
      </trkpt>
      <trkpt lat="40.3506540" lon="-3.9196970">
        <ele>654.2</ele>
        <time>2019-04-28T13:55:33Z</time>
      </trkpt>
      <trkpt lat="40.3506230" lon="-3.9196700">
        <ele>654.4</ele>
        <time>2019-04-28T13:55:34Z</time>
      </trkpt>
      <trkpt lat="40.3505920" lon="-3.9196430">
        <ele>654.6</ele>
        <time>2019-04-28T13:55:35Z</time>
      </trkpt>
      <trkpt lat="40.3505600" lon="-3.9196150">
        <ele>654.8</ele>
        <time>2019-04-28T13:55:36Z</time>
      </trkpt>
      <trkpt lat="40.3505280" lon="-3.9195860">
        <ele>655.0</ele>
        <time>2019-04-28T13:55:37Z</time>
      </trkpt>
      <trkpt lat="40.3504970" lon="-3.9195580">
        <ele>655.2</ele>
        <time>2019-04-28T13:55:38Z</time>
      </trkpt>
      <trkpt lat="40.3504660" lon="-3.9195310">
        <ele>655.6</ele>
        <time>2019-04-28T13:55:39Z</time>
      </trkpt>
      <trkpt lat="40.3504350" lon="-3.9195040">
        <ele>655.8</ele>
        <time>2019-04-28T13:55:40Z</time>
      </trkpt>
      <trkpt lat="40.3504060" lon="-3.9194750">
        <ele>655.8</ele>
        <time>2019-04-28T13:55:41Z</time>
      </trkpt>
      <trkpt lat="40.3503770" lon="-3.9194470">
        <ele>656.0</ele>
        <time>2019-04-28T13:55:42Z</time>
      </trkpt>
      <trkpt lat="40.3503480" lon="-3.9194190">
        <ele>656.2</ele>
        <time>2019-04-28T13:55:43Z</time>
      </trkpt>
      <trkpt lat="40.3503180" lon="-3.9193930">
        <ele>656.6</ele>
        <time>2019-04-28T13:55:44Z</time>
      </trkpt>
      <trkpt lat="40.3502890" lon="-3.9193690">
        <ele>656.6</ele>
        <time>2019-04-28T13:55:45Z</time>
      </trkpt>
      <trkpt lat="40.3502600" lon="-3.9193440">
        <ele>656.8</ele>
        <time>2019-04-28T13:55:46Z</time>
      </trkpt>
      <trkpt lat="40.3502280" lon="-3.9193190">
        <ele>657.0</ele>
        <time>2019-04-28T13:55:47Z</time>
      </trkpt>
      <trkpt lat="40.3501960" lon="-3.9192920">
        <ele>657.2</ele>
        <time>2019-04-28T13:55:48Z</time>
      </trkpt>
      <trkpt lat="40.3501660" lon="-3.9192640">
        <ele>657.4</ele>
        <time>2019-04-28T13:55:49Z</time>
      </trkpt>
      <trkpt lat="40.3501370" lon="-3.9192360">
        <ele>657.6</ele>
        <time>2019-04-28T13:55:50Z</time>
      </trkpt>
      <trkpt lat="40.3501070" lon="-3.9192070">
        <ele>657.6</ele>
        <time>2019-04-28T13:55:51Z</time>
      </trkpt>
      <trkpt lat="40.3500770" lon="-3.9191790">
        <ele>658.0</ele>
        <time>2019-04-28T13:55:52Z</time>
      </trkpt>
      <trkpt lat="40.3500480" lon="-3.9191520">
        <ele>658.2</ele>
        <time>2019-04-28T13:55:53Z</time>
      </trkpt>
      <trkpt lat="40.3500190" lon="-3.9191240">
        <ele>658.2</ele>
        <time>2019-04-28T13:55:54Z</time>
      </trkpt>
      <trkpt lat="40.3499900" lon="-3.9190970">
        <ele>658.4</ele>
        <time>2019-04-28T13:55:55Z</time>
      </trkpt>
      <trkpt lat="40.3499600" lon="-3.9190700">
        <ele>658.6</ele>
        <time>2019-04-28T13:55:56Z</time>
      </trkpt>
      <trkpt lat="40.3499310" lon="-3.9190420">
        <ele>658.8</ele>
        <time>2019-04-28T13:55:57Z</time>
      </trkpt>
      <trkpt lat="40.3499020" lon="-3.9190140">
        <ele>658.8</ele>
        <time>2019-04-28T13:55:58Z</time>
      </trkpt>
      <trkpt lat="40.3498740" lon="-3.9189860">
        <ele>659.0</ele>
        <time>2019-04-28T13:55:59Z</time>
      </trkpt>
      <trkpt lat="40.3498460" lon="-3.9189580">
        <ele>659.2</ele>
        <time>2019-04-28T13:56:00Z</time>
      </trkpt>
      <trkpt lat="40.3498200" lon="-3.9189300">
        <ele>659.4</ele>
        <time>2019-04-28T13:56:01Z</time>
      </trkpt>
      <trkpt lat="40.3497940" lon="-3.9189020">
        <ele>659.8</ele>
        <time>2019-04-28T13:56:02Z</time>
      </trkpt>
      <trkpt lat="40.3497690" lon="-3.9188730">
        <ele>660.0</ele>
        <time>2019-04-28T13:56:03Z</time>
      </trkpt>
      <trkpt lat="40.3497440" lon="-3.9188450">
        <ele>660.0</ele>
        <time>2019-04-28T13:56:04Z</time>
      </trkpt>
      <trkpt lat="40.3497210" lon="-3.9188140">
        <ele>660.4</ele>
        <time>2019-04-28T13:56:05Z</time>
      </trkpt>
      <trkpt lat="40.3496990" lon="-3.9187850">
        <ele>660.4</ele>
        <time>2019-04-28T13:56:06Z</time>
      </trkpt>
      <trkpt lat="40.3496740" lon="-3.9187580">
        <ele>660.6</ele>
        <time>2019-04-28T13:56:07Z</time>
      </trkpt>
      <trkpt lat="40.3496540" lon="-3.9187250">
        <ele>660.8</ele>
        <time>2019-04-28T13:56:08Z</time>
      </trkpt>
      <trkpt lat="40.3496330" lon="-3.9186930">
        <ele>661.0</ele>
        <time>2019-04-28T13:56:09Z</time>
      </trkpt>
      <trkpt lat="40.3496140" lon="-3.9186600">
        <ele>661.4</ele>
        <time>2019-04-28T13:56:10Z</time>
      </trkpt>
      <trkpt lat="40.3495960" lon="-3.9186250">
        <ele>661.6</ele>
        <time>2019-04-28T13:56:11Z</time>
      </trkpt>
      <trkpt lat="40.3495780" lon="-3.9185910">
        <ele>661.8</ele>
        <time>2019-04-28T13:56:12Z</time>
      </trkpt>
      <trkpt lat="40.3495600" lon="-3.9185570">
        <ele>661.8</ele>
        <time>2019-04-28T13:56:13Z</time>
      </trkpt>
      <trkpt lat="40.3495390" lon="-3.9185250">
        <ele>661.8</ele>
        <time>2019-04-28T13:56:14Z</time>
      </trkpt>
      <trkpt lat="40.3495200" lon="-3.9184920">
        <ele>662.0</ele>
        <time>2019-04-28T13:56:15Z</time>
      </trkpt>
      <trkpt lat="40.3495020" lon="-3.9184590">
        <ele>662.2</ele>
        <time>2019-04-28T13:56:16Z</time>
      </trkpt>
      <trkpt lat="40.3494840" lon="-3.9184250">
        <ele>662.4</ele>
        <time>2019-04-28T13:56:17Z</time>
      </trkpt>
      <trkpt lat="40.3494650" lon="-3.9183910">
        <ele>662.4</ele>
        <time>2019-04-28T13:56:18Z</time>
      </trkpt>
      <trkpt lat="40.3494460" lon="-3.9183560">
        <ele>662.6</ele>
        <time>2019-04-28T13:56:19Z</time>
      </trkpt>
      <trkpt lat="40.3494250" lon="-3.9183230">
        <ele>662.8</ele>
        <time>2019-04-28T13:56:20Z</time>
      </trkpt>
      <trkpt lat="40.3494050" lon="-3.9182890">
        <ele>663.0</ele>
        <time>2019-04-28T13:56:21Z</time>
      </trkpt>
      <trkpt lat="40.3493850" lon="-3.9182560">
        <ele>663.0</ele>
        <time>2019-04-28T13:56:22Z</time>
      </trkpt>
      <trkpt lat="40.3493670" lon="-3.9182210">
        <ele>663.2</ele>
        <time>2019-04-28T13:56:23Z</time>
      </trkpt>
      <trkpt lat="40.3493490" lon="-3.9181870">
        <ele>663.2</ele>
        <time>2019-04-28T13:56:24Z</time>
      </trkpt>
      <trkpt lat="40.3493310" lon="-3.9181500">
        <ele>663.4</ele>
        <time>2019-04-28T13:56:25Z</time>
      </trkpt>
      <trkpt lat="40.3493130" lon="-3.9181130">
        <ele>663.6</ele>
        <time>2019-04-28T13:56:26Z</time>
      </trkpt>
      <trkpt lat="40.3492950" lon="-3.9180740">
        <ele>663.8</ele>
        <time>2019-04-28T13:56:27Z</time>
      </trkpt>
      <trkpt lat="40.3492770" lon="-3.9180360">
        <ele>664.0</ele>
        <time>2019-04-28T13:56:28Z</time>
      </trkpt>
      <trkpt lat="40.3492600" lon="-3.9179970">
        <ele>664.0</ele>
        <time>2019-04-28T13:56:29Z</time>
      </trkpt>
      <trkpt lat="40.3492440" lon="-3.9179570">
        <ele>664.2</ele>
        <time>2019-04-28T13:56:30Z</time>
      </trkpt>
      <trkpt lat="40.3492300" lon="-3.9179180">
        <ele>664.4</ele>
        <time>2019-04-28T13:56:31Z</time>
      </trkpt>
      <trkpt lat="40.3492180" lon="-3.9178790">
        <ele>664.6</ele>
        <time>2019-04-28T13:56:32Z</time>
      </trkpt>
      <trkpt lat="40.3492080" lon="-3.9178380">
        <ele>664.8</ele>
        <time>2019-04-28T13:56:33Z</time>
      </trkpt>
      <trkpt lat="40.3491970" lon="-3.9177970">
        <ele>664.8</ele>
        <time>2019-04-28T13:56:34Z</time>
      </trkpt>
      <trkpt lat="40.3491870" lon="-3.9177560">
        <ele>665.2</ele>
        <time>2019-04-28T13:56:35Z</time>
      </trkpt>
      <trkpt lat="40.3491770" lon="-3.9177160">
        <ele>665.4</ele>
        <time>2019-04-28T13:56:36Z</time>
      </trkpt>
      <trkpt lat="40.3491680" lon="-3.9176750">
        <ele>665.6</ele>
        <time>2019-04-28T13:56:37Z</time>
      </trkpt>
      <trkpt lat="40.3491600" lon="-3.9176320">
        <ele>665.6</ele>
        <time>2019-04-28T13:56:38Z</time>
      </trkpt>
      <trkpt lat="40.3491510" lon="-3.9175900">
        <ele>666.0</ele>
        <time>2019-04-28T13:56:39Z</time>
      </trkpt>
      <trkpt lat="40.3491450" lon="-3.9175480">
        <ele>666.2</ele>
        <time>2019-04-28T13:56:40Z</time>
      </trkpt>
      <trkpt lat="40.3491390" lon="-3.9175090">
        <ele>666.4</ele>
        <time>2019-04-28T13:56:41Z</time>
      </trkpt>
      <trkpt lat="40.3491350" lon="-3.9174670">
        <ele>666.4</ele>
        <time>2019-04-28T13:56:42Z</time>
      </trkpt>
      <trkpt lat="40.3491330" lon="-3.9174270">
        <ele>666.6</ele>
        <time>2019-04-28T13:56:43Z</time>
      </trkpt>
      <trkpt lat="40.3491280" lon="-3.9173810">
        <ele>666.2</ele>
        <time>2019-04-28T13:56:44Z</time>
      </trkpt>
      <trkpt lat="40.3491130" lon="-3.9173330">
        <ele>666.2</ele>
        <time>2019-04-28T13:56:45Z</time>
      </trkpt>
      <trkpt lat="40.3490980" lon="-3.9172870">
        <ele>666.4</ele>
        <time>2019-04-28T13:56:46Z</time>
      </trkpt>
      <trkpt lat="40.3490810" lon="-3.9172450">
        <ele>666.6</ele>
        <time>2019-04-28T13:56:47Z</time>
      </trkpt>
      <trkpt lat="40.3490600" lon="-3.9172100">
        <ele>666.8</ele>
        <time>2019-04-28T13:56:48Z</time>
      </trkpt>
      <trkpt lat="40.3490400" lon="-3.9171740">
        <ele>667.0</ele>
        <time>2019-04-28T13:56:49Z</time>
      </trkpt>
      <trkpt lat="40.3490180" lon="-3.9171380">
        <ele>667.2</ele>
        <time>2019-04-28T13:56:50Z</time>
      </trkpt>
      <trkpt lat="40.3489960" lon="-3.9171010">
        <ele>667.4</ele>
        <time>2019-04-28T13:56:51Z</time>
      </trkpt>
      <trkpt lat="40.3489740" lon="-3.9170640">
        <ele>667.4</ele>
        <time>2019-04-28T13:56:52Z</time>
      </trkpt>
      <trkpt lat="40.3489530" lon="-3.9170270">
        <ele>667.6</ele>
        <time>2019-04-28T13:56:53Z</time>
      </trkpt>
      <trkpt lat="40.3489310" lon="-3.9169910">
        <ele>667.8</ele>
        <time>2019-04-28T13:56:54Z</time>
      </trkpt>
      <trkpt lat="40.3489100" lon="-3.9169540">
        <ele>667.8</ele>
        <time>2019-04-28T13:56:55Z</time>
      </trkpt>
      <trkpt lat="40.3488870" lon="-3.9169170">
        <ele>668.0</ele>
        <time>2019-04-28T13:56:56Z</time>
      </trkpt>
      <trkpt lat="40.3488650" lon="-3.9168790">
        <ele>668.2</ele>
        <time>2019-04-28T13:56:57Z</time>
      </trkpt>
      <trkpt lat="40.3488440" lon="-3.9168430">
        <ele>668.4</ele>
        <time>2019-04-28T13:56:58Z</time>
      </trkpt>
      <trkpt lat="40.3488220" lon="-3.9168080">
        <ele>668.6</ele>
        <time>2019-04-28T13:56:59Z</time>
      </trkpt>
      <trkpt lat="40.3488030" lon="-3.9167730">
        <ele>668.6</ele>
        <time>2019-04-28T13:57:00Z</time>
      </trkpt>
      <trkpt lat="40.3487830" lon="-3.9167390">
        <ele>668.8</ele>
        <time>2019-04-28T13:57:01Z</time>
      </trkpt>
      <trkpt lat="40.3487610" lon="-3.9167040">
        <ele>669.0</ele>
        <time>2019-04-28T13:57:02Z</time>
      </trkpt>
      <trkpt lat="40.3487400" lon="-3.9166690">
        <ele>669.2</ele>
        <time>2019-04-28T13:57:03Z</time>
      </trkpt>
      <trkpt lat="40.3487190" lon="-3.9166360">
        <ele>669.4</ele>
        <time>2019-04-28T13:57:04Z</time>
      </trkpt>
      <trkpt lat="40.3486980" lon="-3.9166020">
        <ele>669.6</ele>
        <time>2019-04-28T13:57:05Z</time>
      </trkpt>
      <trkpt lat="40.3486760" lon="-3.9165680">
        <ele>669.8</ele>
        <time>2019-04-28T13:57:06Z</time>
      </trkpt>
      <trkpt lat="40.3486550" lon="-3.9165360">
        <ele>670.2</ele>
        <time>2019-04-28T13:57:07Z</time>
      </trkpt>
      <trkpt lat="40.3486330" lon="-3.9165040">
        <ele>670.4</ele>
        <time>2019-04-28T13:57:08Z</time>
      </trkpt>
      <trkpt lat="40.3486120" lon="-3.9164700">
        <ele>670.6</ele>
        <time>2019-04-28T13:57:09Z</time>
      </trkpt>
      <trkpt lat="40.3485930" lon="-3.9164370">
        <ele>670.8</ele>
        <time>2019-04-28T13:57:10Z</time>
      </trkpt>
      <trkpt lat="40.3485730" lon="-3.9164030">
        <ele>671.2</ele>
        <time>2019-04-28T13:57:11Z</time>
      </trkpt>
      <trkpt lat="40.3485530" lon="-3.9163680">
        <ele>671.2</ele>
        <time>2019-04-28T13:57:12Z</time>
      </trkpt>
      <trkpt lat="40.3485320" lon="-3.9163340">
        <ele>671.6</ele>
        <time>2019-04-28T13:57:13Z</time>
      </trkpt>
      <trkpt lat="40.3485110" lon="-3.9163010">
        <ele>671.6</ele>
        <time>2019-04-28T13:57:14Z</time>
      </trkpt>
      <trkpt lat="40.3484910" lon="-3.9162640">
        <ele>672.0</ele>
        <time>2019-04-28T13:57:15Z</time>
      </trkpt>
      <trkpt lat="40.3484710" lon="-3.9162290">
        <ele>672.2</ele>
        <time>2019-04-28T13:57:16Z</time>
      </trkpt>
      <trkpt lat="40.3484510" lon="-3.9161940">
        <ele>672.2</ele>
        <time>2019-04-28T13:57:17Z</time>
      </trkpt>
      <trkpt lat="40.3484270" lon="-3.9161610">
        <ele>672.4</ele>
        <time>2019-04-28T13:57:18Z</time>
      </trkpt>
      <trkpt lat="40.3484030" lon="-3.9161250">
        <ele>672.6</ele>
        <time>2019-04-28T13:57:19Z</time>
      </trkpt>
      <trkpt lat="40.3483800" lon="-3.9160900">
        <ele>672.6</ele>
        <time>2019-04-28T13:57:20Z</time>
      </trkpt>
      <trkpt lat="40.3483570" lon="-3.9160540">
        <ele>672.8</ele>
        <time>2019-04-28T13:57:21Z</time>
      </trkpt>
      <trkpt lat="40.3483330" lon="-3.9160200">
        <ele>672.8</ele>
        <time>2019-04-28T13:57:22Z</time>
      </trkpt>
      <trkpt lat="40.3483070" lon="-3.9159860">
        <ele>673.0</ele>
        <time>2019-04-28T13:57:23Z</time>
      </trkpt>
      <trkpt lat="40.3482820" lon="-3.9159510">
        <ele>673.0</ele>
        <time>2019-04-28T13:57:24Z</time>
      </trkpt>
      <trkpt lat="40.3482580" lon="-3.9159140">
        <ele>673.2</ele>
        <time>2019-04-28T13:57:25Z</time>
      </trkpt>
      <trkpt lat="40.3482330" lon="-3.9158770">
        <ele>673.2</ele>
        <time>2019-04-28T13:57:26Z</time>
      </trkpt>
      <trkpt lat="40.3482070" lon="-3.9158400">
        <ele>673.4</ele>
        <time>2019-04-28T13:57:27Z</time>
      </trkpt>
      <trkpt lat="40.3481800" lon="-3.9158030">
        <ele>673.4</ele>
        <time>2019-04-28T13:57:28Z</time>
      </trkpt>
      <trkpt lat="40.3481520" lon="-3.9157650">
        <ele>673.8</ele>
        <time>2019-04-28T13:57:29Z</time>
      </trkpt>
      <trkpt lat="40.3481250" lon="-3.9157300">
        <ele>673.8</ele>
        <time>2019-04-28T13:57:30Z</time>
      </trkpt>
      <trkpt lat="40.3480960" lon="-3.9156950">
        <ele>673.8</ele>
        <time>2019-04-28T13:57:31Z</time>
      </trkpt>
      <trkpt lat="40.3480660" lon="-3.9156570">
        <ele>674.0</ele>
        <time>2019-04-28T13:57:32Z</time>
      </trkpt>
      <trkpt lat="40.3480380" lon="-3.9156190">
        <ele>674.2</ele>
        <time>2019-04-28T13:57:33Z</time>
      </trkpt>
      <trkpt lat="40.3480090" lon="-3.9155830">
        <ele>674.2</ele>
        <time>2019-04-28T13:57:34Z</time>
      </trkpt>
      <trkpt lat="40.3479800" lon="-3.9155500">
        <ele>674.4</ele>
        <time>2019-04-28T13:57:35Z</time>
      </trkpt>
      <trkpt lat="40.3479520" lon="-3.9155190">
        <ele>674.4</ele>
        <time>2019-04-28T13:57:36Z</time>
      </trkpt>
      <trkpt lat="40.3479220" lon="-3.9154850">
        <ele>674.6</ele>
        <time>2019-04-28T13:57:37Z</time>
      </trkpt>
      <trkpt lat="40.3478920" lon="-3.9154470">
        <ele>674.6</ele>
        <time>2019-04-28T13:57:38Z</time>
      </trkpt>
      <trkpt lat="40.3478590" lon="-3.9154050">
        <ele>674.8</ele>
        <time>2019-04-28T13:57:39Z</time>
      </trkpt>
      <trkpt lat="40.3478280" lon="-3.9153680">
        <ele>674.8</ele>
        <time>2019-04-28T13:57:40Z</time>
      </trkpt>
      <trkpt lat="40.3477960" lon="-3.9153290">
        <ele>675.0</ele>
        <time>2019-04-28T13:57:41Z</time>
      </trkpt>
      <trkpt lat="40.3477640" lon="-3.9152910">
        <ele>675.2</ele>
        <time>2019-04-28T13:57:42Z</time>
      </trkpt>
      <trkpt lat="40.3477320" lon="-3.9152530">
        <ele>675.2</ele>
        <time>2019-04-28T13:57:43Z</time>
      </trkpt>
      <trkpt lat="40.3477010" lon="-3.9152160">
        <ele>675.4</ele>
        <time>2019-04-28T13:57:44Z</time>
      </trkpt>
      <trkpt lat="40.3476680" lon="-3.9151800">
        <ele>675.4</ele>
        <time>2019-04-28T13:57:45Z</time>
      </trkpt>
      <trkpt lat="40.3476350" lon="-3.9151460">
        <ele>675.4</ele>
        <time>2019-04-28T13:57:46Z</time>
      </trkpt>
      <trkpt lat="40.3476020" lon="-3.9151110">
        <ele>675.4</ele>
        <time>2019-04-28T13:57:47Z</time>
      </trkpt>
      <trkpt lat="40.3475720" lon="-3.9150770">
        <ele>675.6</ele>
        <time>2019-04-28T13:57:48Z</time>
      </trkpt>
      <trkpt lat="40.3475380" lon="-3.9150410">
        <ele>675.6</ele>
        <time>2019-04-28T13:57:49Z</time>
      </trkpt>
      <trkpt lat="40.3475020" lon="-3.9150040">
        <ele>675.6</ele>
        <time>2019-04-28T13:57:50Z</time>
      </trkpt>
      <trkpt lat="40.3474640" lon="-3.9149680">
        <ele>675.6</ele>
        <time>2019-04-28T13:57:51Z</time>
      </trkpt>
      <trkpt lat="40.3474260" lon="-3.9149280">
        <ele>675.4</ele>
        <time>2019-04-28T13:57:52Z</time>
      </trkpt>
      <trkpt lat="40.3473880" lon="-3.9148870">
        <ele>675.2</ele>
        <time>2019-04-28T13:57:53Z</time>
      </trkpt>
      <trkpt lat="40.3473480" lon="-3.9148460">
        <ele>675.4</ele>
        <time>2019-04-28T13:57:54Z</time>
      </trkpt>
      <trkpt lat="40.3473070" lon="-3.9148080">
        <ele>675.4</ele>
        <time>2019-04-28T13:57:55Z</time>
      </trkpt>
      <trkpt lat="40.3472660" lon="-3.9147670">
        <ele>675.2</ele>
        <time>2019-04-28T13:57:56Z</time>
      </trkpt>
      <trkpt lat="40.3472260" lon="-3.9147240">
        <ele>675.4</ele>
        <time>2019-04-28T13:57:57Z</time>
      </trkpt>
      <trkpt lat="40.3471860" lon="-3.9146800">
        <ele>675.4</ele>
        <time>2019-04-28T13:57:58Z</time>
      </trkpt>
      <trkpt lat="40.3471450" lon="-3.9146370">
        <ele>675.4</ele>
        <time>2019-04-28T13:57:59Z</time>
      </trkpt>
      <trkpt lat="40.3471040" lon="-3.9145960">
        <ele>675.4</ele>
        <time>2019-04-28T13:58:00Z</time>
      </trkpt>
      <trkpt lat="40.3470640" lon="-3.9145560">
        <ele>675.4</ele>
        <time>2019-04-28T13:58:01Z</time>
      </trkpt>
      <trkpt lat="40.3470230" lon="-3.9145170">
        <ele>675.6</ele>
        <time>2019-04-28T13:58:02Z</time>
      </trkpt>
      <trkpt lat="40.3469840" lon="-3.9144780">
        <ele>675.8</ele>
        <time>2019-04-28T13:58:03Z</time>
      </trkpt>
      <trkpt lat="40.3469460" lon="-3.9144400">
        <ele>675.8</ele>
        <time>2019-04-28T13:58:04Z</time>
      </trkpt>
      <trkpt lat="40.3469090" lon="-3.9144050">
        <ele>676.0</ele>
        <time>2019-04-28T13:58:05Z</time>
      </trkpt>
      <trkpt lat="40.3468730" lon="-3.9143730">
        <ele>676.2</ele>
        <time>2019-04-28T13:58:06Z</time>
      </trkpt>
      <trkpt lat="40.3468380" lon="-3.9143410">
        <ele>676.2</ele>
        <time>2019-04-28T13:58:07Z</time>
      </trkpt>
      <trkpt lat="40.3468060" lon="-3.9143060">
        <ele>676.4</ele>
        <time>2019-04-28T13:58:08Z</time>
      </trkpt>
      <trkpt lat="40.3467730" lon="-3.9142710">
        <ele>676.6</ele>
        <time>2019-04-28T13:58:09Z</time>
      </trkpt>
      <trkpt lat="40.3467380" lon="-3.9142390">
        <ele>676.6</ele>
        <time>2019-04-28T13:58:10Z</time>
      </trkpt>
      <trkpt lat="40.3467050" lon="-3.9142090">
        <ele>676.8</ele>
        <time>2019-04-28T13:58:11Z</time>
      </trkpt>
      <trkpt lat="40.3466710" lon="-3.9141800">
        <ele>677.0</ele>
        <time>2019-04-28T13:58:12Z</time>
      </trkpt>
      <trkpt lat="40.3466370" lon="-3.9141480">
        <ele>677.0</ele>
        <time>2019-04-28T13:58:13Z</time>
      </trkpt>
      <trkpt lat="40.3466040" lon="-3.9141210">
        <ele>677.0</ele>
        <time>2019-04-28T13:58:14Z</time>
      </trkpt>
      <trkpt lat="40.3465690" lon="-3.9140870">
        <ele>677.0</ele>
        <time>2019-04-28T13:58:15Z</time>
      </trkpt>
      <trkpt lat="40.3465330" lon="-3.9140510">
        <ele>677.0</ele>
        <time>2019-04-28T13:58:16Z</time>
      </trkpt>
      <trkpt lat="40.3464970" lon="-3.9140140">
        <ele>677.0</ele>
        <time>2019-04-28T13:58:17Z</time>
      </trkpt>
      <trkpt lat="40.3464580" lon="-3.9139750">
        <ele>676.8</ele>
        <time>2019-04-28T13:58:18Z</time>
      </trkpt>
      <trkpt lat="40.3464170" lon="-3.9139340">
        <ele>676.8</ele>
        <time>2019-04-28T13:58:19Z</time>
      </trkpt>
      <trkpt lat="40.3463750" lon="-3.9138950">
        <ele>676.8</ele>
        <time>2019-04-28T13:58:20Z</time>
      </trkpt>
      <trkpt lat="40.3463320" lon="-3.9138590">
        <ele>676.8</ele>
        <time>2019-04-28T13:58:21Z</time>
      </trkpt>
      <trkpt lat="40.3462920" lon="-3.9138230">
        <ele>676.8</ele>
        <time>2019-04-28T13:58:22Z</time>
      </trkpt>
      <trkpt lat="40.3462510" lon="-3.9137860">
        <ele>676.6</ele>
        <time>2019-04-28T13:58:23Z</time>
      </trkpt>
      <trkpt lat="40.3462120" lon="-3.9137480">
        <ele>676.8</ele>
        <time>2019-04-28T13:58:24Z</time>
      </trkpt>
      <trkpt lat="40.3461750" lon="-3.9137110">
        <ele>676.8</ele>
        <time>2019-04-28T13:58:25Z</time>
      </trkpt>
      <trkpt lat="40.3461370" lon="-3.9136780">
        <ele>677.0</ele>
        <time>2019-04-28T13:58:26Z</time>
      </trkpt>
      <trkpt lat="40.3460990" lon="-3.9136450">
        <ele>677.0</ele>
        <time>2019-04-28T13:58:27Z</time>
      </trkpt>
      <trkpt lat="40.3460640" lon="-3.9136090">
        <ele>677.0</ele>
        <time>2019-04-28T13:58:28Z</time>
      </trkpt>
      <trkpt lat="40.3460260" lon="-3.9135740">
        <ele>677.2</ele>
        <time>2019-04-28T13:58:29Z</time>
      </trkpt>
      <trkpt lat="40.3459860" lon="-3.9135390">
        <ele>677.4</ele>
        <time>2019-04-28T13:58:30Z</time>
      </trkpt>
      <trkpt lat="40.3459470" lon="-3.9135040">
        <ele>677.4</ele>
        <time>2019-04-28T13:58:31Z</time>
      </trkpt>
      <trkpt lat="40.3459080" lon="-3.9134690">
        <ele>677.4</ele>
        <time>2019-04-28T13:58:32Z</time>
      </trkpt>
      <trkpt lat="40.3458690" lon="-3.9134330">
        <ele>677.4</ele>
        <time>2019-04-28T13:58:33Z</time>
      </trkpt>
      <trkpt lat="40.3458300" lon="-3.9133970">
        <ele>677.6</ele>
        <time>2019-04-28T13:58:34Z</time>
      </trkpt>
      <trkpt lat="40.3457900" lon="-3.9133600">
        <ele>677.8</ele>
        <time>2019-04-28T13:58:35Z</time>
      </trkpt>
      <trkpt lat="40.3457500" lon="-3.9133220">
        <ele>677.8</ele>
        <time>2019-04-28T13:58:36Z</time>
      </trkpt>
      <trkpt lat="40.3457100" lon="-3.9132830">
        <ele>677.6</ele>
        <time>2019-04-28T13:58:37Z</time>
      </trkpt>
      <trkpt lat="40.3456720" lon="-3.9132440">
        <ele>677.8</ele>
        <time>2019-04-28T13:58:38Z</time>
      </trkpt>
      <trkpt lat="40.3456340" lon="-3.9132020">
        <ele>677.8</ele>
        <time>2019-04-28T13:58:39Z</time>
      </trkpt>
      <trkpt lat="40.3455950" lon="-3.9131630">
        <ele>678.0</ele>
        <time>2019-04-28T13:58:40Z</time>
      </trkpt>
      <trkpt lat="40.3455540" lon="-3.9131220">
        <ele>677.8</ele>
        <time>2019-04-28T13:58:41Z</time>
      </trkpt>
      <trkpt lat="40.3455150" lon="-3.9130800">
        <ele>678.0</ele>
        <time>2019-04-28T13:58:42Z</time>
      </trkpt>
      <trkpt lat="40.3454760" lon="-3.9130360">
        <ele>678.0</ele>
        <time>2019-04-28T13:58:43Z</time>
      </trkpt>
      <trkpt lat="40.3454370" lon="-3.9129920">
        <ele>678.0</ele>
        <time>2019-04-28T13:58:44Z</time>
      </trkpt>
      <trkpt lat="40.3453970" lon="-3.9129490">
        <ele>678.0</ele>
        <time>2019-04-28T13:58:45Z</time>
      </trkpt>
      <trkpt lat="40.3453590" lon="-3.9129070">
        <ele>678.2</ele>
        <time>2019-04-28T13:58:46Z</time>
      </trkpt>
      <trkpt lat="40.3453210" lon="-3.9128630">
        <ele>678.0</ele>
        <time>2019-04-28T13:58:47Z</time>
      </trkpt>
      <trkpt lat="40.3452830" lon="-3.9128180">
        <ele>678.0</ele>
        <time>2019-04-28T13:58:48Z</time>
      </trkpt>
      <trkpt lat="40.3452430" lon="-3.9127730">
        <ele>678.2</ele>
        <time>2019-04-28T13:58:49Z</time>
      </trkpt>
      <trkpt lat="40.3452090" lon="-3.9127290">
        <ele>678.2</ele>
        <time>2019-04-28T13:58:50Z</time>
      </trkpt>
      <trkpt lat="40.3451720" lon="-3.9126850">
        <ele>678.2</ele>
        <time>2019-04-28T13:58:51Z</time>
      </trkpt>
      <trkpt lat="40.3451330" lon="-3.9126390">
        <ele>678.4</ele>
        <time>2019-04-28T13:58:52Z</time>
      </trkpt>
      <trkpt lat="40.3450930" lon="-3.9125920">
        <ele>678.2</ele>
        <time>2019-04-28T13:58:53Z</time>
      </trkpt>
      <trkpt lat="40.3450550" lon="-3.9125450">
        <ele>678.2</ele>
        <time>2019-04-28T13:58:54Z</time>
      </trkpt>
      <trkpt lat="40.3450190" lon="-3.9125000">
        <ele>678.2</ele>
        <time>2019-04-28T13:58:55Z</time>
      </trkpt>
      <trkpt lat="40.3449800" lon="-3.9124580">
        <ele>677.8</ele>
        <time>2019-04-28T13:58:56Z</time>
      </trkpt>
      <trkpt lat="40.3449410" lon="-3.9124180">
        <ele>677.6</ele>
        <time>2019-04-28T13:58:57Z</time>
      </trkpt>
      <trkpt lat="40.3449000" lon="-3.9123830">
        <ele>677.8</ele>
        <time>2019-04-28T13:58:58Z</time>
      </trkpt>
      <trkpt lat="40.3448610" lon="-3.9123460">
        <ele>677.8</ele>
        <time>2019-04-28T13:58:59Z</time>
      </trkpt>
      <trkpt lat="40.3448260" lon="-3.9123090">
        <ele>677.8</ele>
        <time>2019-04-28T13:59:00Z</time>
      </trkpt>
      <trkpt lat="40.3447910" lon="-3.9122710">
        <ele>677.8</ele>
        <time>2019-04-28T13:59:01Z</time>
      </trkpt>
      <trkpt lat="40.3447560" lon="-3.9122300">
        <ele>677.8</ele>
        <time>2019-04-28T13:59:02Z</time>
      </trkpt>
      <trkpt lat="40.3447190" lon="-3.9121890">
        <ele>678.0</ele>
        <time>2019-04-28T13:59:03Z</time>
      </trkpt>
      <trkpt lat="40.3446820" lon="-3.9121490">
        <ele>677.8</ele>
        <time>2019-04-28T13:59:04Z</time>
      </trkpt>
      <trkpt lat="40.3446460" lon="-3.9121120">
        <ele>677.8</ele>
        <time>2019-04-28T13:59:05Z</time>
      </trkpt>
      <trkpt lat="40.3446110" lon="-3.9120720">
        <ele>677.8</ele>
        <time>2019-04-28T13:59:06Z</time>
      </trkpt>
      <trkpt lat="40.3445750" lon="-3.9120330">
        <ele>678.0</ele>
        <time>2019-04-28T13:59:07Z</time>
      </trkpt>
      <trkpt lat="40.3445340" lon="-3.9119980">
        <ele>678.0</ele>
        <time>2019-04-28T13:59:08Z</time>
      </trkpt>
      <trkpt lat="40.3444930" lon="-3.9119770">
        <ele>678.2</ele>
        <time>2019-04-28T13:59:09Z</time>
      </trkpt>
      <trkpt lat="40.3444520" lon="-3.9119550">
        <ele>678.2</ele>
        <time>2019-04-28T13:59:10Z</time>
      </trkpt>
      <trkpt lat="40.3444170" lon="-3.9119320">
        <ele>678.2</ele>
        <time>2019-04-28T13:59:11Z</time>
      </trkpt>
      <trkpt lat="40.3443900" lon="-3.9118980">
        <ele>678.2</ele>
        <time>2019-04-28T13:59:12Z</time>
      </trkpt>
      <trkpt lat="40.3443670" lon="-3.9118630">
        <ele>678.2</ele>
        <time>2019-04-28T13:59:13Z</time>
      </trkpt>
      <trkpt lat="40.3443420" lon="-3.9118320">
        <ele>678.0</ele>
        <time>2019-04-28T13:59:14Z</time>
      </trkpt>
      <trkpt lat="40.3443160" lon="-3.9118000">
        <ele>678.0</ele>
        <time>2019-04-28T13:59:15Z</time>
      </trkpt>
      <trkpt lat="40.3442980" lon="-3.9117760">
        <ele>678.0</ele>
        <time>2019-04-28T13:59:16Z</time>
      </trkpt>
      <trkpt lat="40.3442770" lon="-3.9117520">
        <ele>678.0</ele>
        <time>2019-04-28T13:59:17Z</time>
      </trkpt>
      <trkpt lat="40.3442660" lon="-3.9117370">
        <ele>678.0</ele>
        <time>2019-04-28T13:59:18Z</time>
      </trkpt>
      <trkpt lat="40.3442640" lon="-3.9117320">
        <ele>678.0</ele>
        <time>2019-04-28T13:59:19Z</time>
      </trkpt>
      <trkpt lat="40.3442620" lon="-3.9117300">
        <ele>678.0</ele>
        <time>2019-04-28T13:59:20Z</time>
      </trkpt>
      <trkpt lat="40.3442620" lon="-3.9117310">
        <ele>678.0</ele>
        <time>2019-04-28T13:59:21Z</time>
      </trkpt>
      <trkpt lat="40.3442600" lon="-3.9117290">
        <ele>678.0</ele>
        <time>2019-04-28T13:59:22Z</time>
      </trkpt>
      <trkpt lat="40.3442610" lon="-3.9117280">
        <ele>677.8</ele>
        <time>2019-04-28T13:59:23Z</time>
      </trkpt>
      <trkpt lat="40.3442650" lon="-3.9117270">
        <ele>677.8</ele>
        <time>2019-04-28T13:59:24Z</time>
      </trkpt>
      <trkpt lat="40.3442630" lon="-3.9117260">
        <ele>677.8</ele>
        <time>2019-04-28T13:59:25Z</time>
      </trkpt>
      <trkpt lat="40.3442610" lon="-3.9117230">
        <ele>677.8</ele>
        <time>2019-04-28T13:59:26Z</time>
      </trkpt>
      <trkpt lat="40.3441120" lon="-3.9115200">
        <ele>677.8</ele>
        <time>2019-04-28T14:01:13Z</time>
      </trkpt>
      <trkpt lat="40.3440950" lon="-3.9114990">
        <ele>677.8</ele>
        <time>2019-04-28T14:01:14Z</time>
      </trkpt>
      <trkpt lat="40.3440740" lon="-3.9114730">
        <ele>677.8</ele>
        <time>2019-04-28T14:01:15Z</time>
      </trkpt>
      <trkpt lat="40.3440490" lon="-3.9114450">
        <ele>677.8</ele>
        <time>2019-04-28T14:01:16Z</time>
      </trkpt>
      <trkpt lat="40.3440220" lon="-3.9114170">
        <ele>677.8</ele>
        <time>2019-04-28T14:01:17Z</time>
      </trkpt>
      <trkpt lat="40.3439940" lon="-3.9113940">
        <ele>677.8</ele>
        <time>2019-04-28T14:01:18Z</time>
      </trkpt>
      <trkpt lat="40.3439620" lon="-3.9113650">
        <ele>677.8</ele>
        <time>2019-04-28T14:01:19Z</time>
      </trkpt>
      <trkpt lat="40.3439290" lon="-3.9113310">
        <ele>677.8</ele>
        <time>2019-04-28T14:01:20Z</time>
      </trkpt>
      <trkpt lat="40.3438970" lon="-3.9112900">
        <ele>677.8</ele>
        <time>2019-04-28T14:01:21Z</time>
      </trkpt>
      <trkpt lat="40.3438620" lon="-3.9112520">
        <ele>677.6</ele>
        <time>2019-04-28T14:01:22Z</time>
      </trkpt>
      <trkpt lat="40.3438280" lon="-3.9112110">
        <ele>677.8</ele>
        <time>2019-04-28T14:01:23Z</time>
      </trkpt>
      <trkpt lat="40.3437940" lon="-3.9111660">
        <ele>677.6</ele>
        <time>2019-04-28T14:01:24Z</time>
      </trkpt>
      <trkpt lat="40.3437610" lon="-3.9111170">
        <ele>677.6</ele>
        <time>2019-04-28T14:01:25Z</time>
      </trkpt>
      <trkpt lat="40.3437300" lon="-3.9110650">
        <ele>677.6</ele>
        <time>2019-04-28T14:01:26Z</time>
      </trkpt>
      <trkpt lat="40.3436980" lon="-3.9110110">
        <ele>677.6</ele>
        <time>2019-04-28T14:01:27Z</time>
      </trkpt>
      <trkpt lat="40.3436680" lon="-3.9109580">
        <ele>677.6</ele>
        <time>2019-04-28T14:01:28Z</time>
      </trkpt>
      <trkpt lat="40.3436360" lon="-3.9109040">
        <ele>677.6</ele>
        <time>2019-04-28T14:01:29Z</time>
      </trkpt>
      <trkpt lat="40.3436060" lon="-3.9108520">
        <ele>677.4</ele>
        <time>2019-04-28T14:01:30Z</time>
      </trkpt>
      <trkpt lat="40.3435730" lon="-3.9107970">
        <ele>677.4</ele>
        <time>2019-04-28T14:01:31Z</time>
      </trkpt>
      <trkpt lat="40.3435440" lon="-3.9107360">
        <ele>677.2</ele>
        <time>2019-04-28T14:01:32Z</time>
      </trkpt>
      <trkpt lat="40.3435150" lon="-3.9106740">
        <ele>677.2</ele>
        <time>2019-04-28T14:01:33Z</time>
      </trkpt>
      <trkpt lat="40.3434880" lon="-3.9106070">
        <ele>677.2</ele>
        <time>2019-04-28T14:01:34Z</time>
      </trkpt>
      <trkpt lat="40.3434710" lon="-3.9105380">
        <ele>677.0</ele>
        <time>2019-04-28T14:01:35Z</time>
      </trkpt>
      <trkpt lat="40.3434550" lon="-3.9104670">
        <ele>676.8</ele>
        <time>2019-04-28T14:01:36Z</time>
      </trkpt>
      <trkpt lat="40.3434370" lon="-3.9103970">
        <ele>676.8</ele>
        <time>2019-04-28T14:01:37Z</time>
      </trkpt>
      <trkpt lat="40.3434210" lon="-3.9103240">
        <ele>677.0</ele>
        <time>2019-04-28T14:01:38Z</time>
      </trkpt>
      <trkpt lat="40.3434070" lon="-3.9102510">
        <ele>676.8</ele>
        <time>2019-04-28T14:01:39Z</time>
      </trkpt>
      <trkpt lat="40.3433910" lon="-3.9101760">
        <ele>676.8</ele>
        <time>2019-04-28T14:01:40Z</time>
      </trkpt>
      <trkpt lat="40.3433750" lon="-3.9101000">
        <ele>676.6</ele>
        <time>2019-04-28T14:01:41Z</time>
      </trkpt>
      <trkpt lat="40.3433540" lon="-3.9100230">
        <ele>676.4</ele>
        <time>2019-04-28T14:01:42Z</time>
      </trkpt>
      <trkpt lat="40.3433330" lon="-3.9099460">
        <ele>676.4</ele>
        <time>2019-04-28T14:01:43Z</time>
      </trkpt>
      <trkpt lat="40.3433140" lon="-3.9098670">
        <ele>676.4</ele>
        <time>2019-04-28T14:01:44Z</time>
      </trkpt>
      <trkpt lat="40.3432920" lon="-3.9097910">
        <ele>676.2</ele>
        <time>2019-04-28T14:01:45Z</time>
      </trkpt>
      <trkpt lat="40.3432670" lon="-3.9097160">
        <ele>676.2</ele>
        <time>2019-04-28T14:01:46Z</time>
      </trkpt>
      <trkpt lat="40.3432390" lon="-3.9096410">
        <ele>676.2</ele>
        <time>2019-04-28T14:01:47Z</time>
      </trkpt>
      <trkpt lat="40.3432090" lon="-3.9095670">
        <ele>676.0</ele>
        <time>2019-04-28T14:01:48Z</time>
      </trkpt>
      <trkpt lat="40.3431770" lon="-3.9094930">
        <ele>676.0</ele>
        <time>2019-04-28T14:01:49Z</time>
      </trkpt>
      <trkpt lat="40.3431400" lon="-3.9094220">
        <ele>675.8</ele>
        <time>2019-04-28T14:01:50Z</time>
      </trkpt>
      <trkpt lat="40.3430980" lon="-3.9093590">
        <ele>675.6</ele>
        <time>2019-04-28T14:01:51Z</time>
      </trkpt>
      <trkpt lat="40.3430530" lon="-3.9093000">
        <ele>675.4</ele>
        <time>2019-04-28T14:01:52Z</time>
      </trkpt>
      <trkpt lat="40.3430030" lon="-3.9092430">
        <ele>675.4</ele>
        <time>2019-04-28T14:01:53Z</time>
      </trkpt>
      <trkpt lat="40.3429520" lon="-3.9091950">
        <ele>675.4</ele>
        <time>2019-04-28T14:01:54Z</time>
      </trkpt>
      <trkpt lat="40.3428990" lon="-3.9091500">
        <ele>675.2</ele>
        <time>2019-04-28T14:01:55Z</time>
      </trkpt>
      <trkpt lat="40.3428450" lon="-3.9091080">
        <ele>675.0</ele>
        <time>2019-04-28T14:01:56Z</time>
      </trkpt>
      <trkpt lat="40.3427890" lon="-3.9090630">
        <ele>675.0</ele>
        <time>2019-04-28T14:01:57Z</time>
      </trkpt>
      <trkpt lat="40.3427340" lon="-3.9090180">
        <ele>674.8</ele>
        <time>2019-04-28T14:01:58Z</time>
      </trkpt>
      <trkpt lat="40.3426800" lon="-3.9089710">
        <ele>674.6</ele>
        <time>2019-04-28T14:01:59Z</time>
      </trkpt>
      <trkpt lat="40.3426290" lon="-3.9089270">
        <ele>674.6</ele>
        <time>2019-04-28T14:02:00Z</time>
      </trkpt>
      <trkpt lat="40.3425780" lon="-3.9088830">
        <ele>674.6</ele>
        <time>2019-04-28T14:02:01Z</time>
      </trkpt>
      <trkpt lat="40.3425280" lon="-3.9088360">
        <ele>674.4</ele>
        <time>2019-04-28T14:02:02Z</time>
      </trkpt>
      <trkpt lat="40.3424780" lon="-3.9087890">
        <ele>674.2</ele>
        <time>2019-04-28T14:02:03Z</time>
      </trkpt>
      <trkpt lat="40.3424300" lon="-3.9087370">
        <ele>674.0</ele>
        <time>2019-04-28T14:02:04Z</time>
      </trkpt>
      <trkpt lat="40.3423840" lon="-3.9086820">
        <ele>673.8</ele>
        <time>2019-04-28T14:02:05Z</time>
      </trkpt>
      <trkpt lat="40.3423390" lon="-3.9086220">
        <ele>673.6</ele>
        <time>2019-04-28T14:02:06Z</time>
      </trkpt>
      <trkpt lat="40.3422990" lon="-3.9085590">
        <ele>673.4</ele>
        <time>2019-04-28T14:02:07Z</time>
      </trkpt>
      <trkpt lat="40.3422600" lon="-3.9084950">
        <ele>673.4</ele>
        <time>2019-04-28T14:02:08Z</time>
      </trkpt>
      <trkpt lat="40.3422220" lon="-3.9084270">
        <ele>673.2</ele>
        <time>2019-04-28T14:02:09Z</time>
      </trkpt>
      <trkpt lat="40.3421900" lon="-3.9083580">
        <ele>673.0</ele>
        <time>2019-04-28T14:02:10Z</time>
      </trkpt>
      <trkpt lat="40.3421570" lon="-3.9082850">
        <ele>672.8</ele>
        <time>2019-04-28T14:02:11Z</time>
      </trkpt>
      <trkpt lat="40.3421190" lon="-3.9082090">
        <ele>672.2</ele>
        <time>2019-04-28T14:02:12Z</time>
      </trkpt>
      <trkpt lat="40.3420750" lon="-3.9081350">
        <ele>671.8</ele>
        <time>2019-04-28T14:02:13Z</time>
      </trkpt>
      <trkpt lat="40.3420240" lon="-3.9080610">
        <ele>671.6</ele>
        <time>2019-04-28T14:02:14Z</time>
      </trkpt>
      <trkpt lat="40.3419660" lon="-3.9079910">
        <ele>670.8</ele>
        <time>2019-04-28T14:02:15Z</time>
      </trkpt>
      <trkpt lat="40.3419040" lon="-3.9079260">
        <ele>670.8</ele>
        <time>2019-04-28T14:02:16Z</time>
      </trkpt>
      <trkpt lat="40.3418420" lon="-3.9078640">
        <ele>670.6</ele>
        <time>2019-04-28T14:02:17Z</time>
      </trkpt>
      <trkpt lat="40.3417820" lon="-3.9078000">
        <ele>670.2</ele>
        <time>2019-04-28T14:02:18Z</time>
      </trkpt>
      <trkpt lat="40.3417240" lon="-3.9077340">
        <ele>670.0</ele>
        <time>2019-04-28T14:02:19Z</time>
      </trkpt>
      <trkpt lat="40.3416690" lon="-3.9076660">
        <ele>670.0</ele>
        <time>2019-04-28T14:02:20Z</time>
      </trkpt>
      <trkpt lat="40.3416140" lon="-3.9075970">
        <ele>669.8</ele>
        <time>2019-04-28T14:02:21Z</time>
      </trkpt>
      <trkpt lat="40.3415620" lon="-3.9075270">
        <ele>669.6</ele>
        <time>2019-04-28T14:02:22Z</time>
      </trkpt>
      <trkpt lat="40.3415100" lon="-3.9074580">
        <ele>669.6</ele>
        <time>2019-04-28T14:02:23Z</time>
      </trkpt>
      <trkpt lat="40.3414580" lon="-3.9073890">
        <ele>669.4</ele>
        <time>2019-04-28T14:02:24Z</time>
      </trkpt>
      <trkpt lat="40.3414060" lon="-3.9073180">
        <ele>669.2</ele>
        <time>2019-04-28T14:02:25Z</time>
      </trkpt>
      <trkpt lat="40.3413560" lon="-3.9072500">
        <ele>669.0</ele>
        <time>2019-04-28T14:02:26Z</time>
      </trkpt>
      <trkpt lat="40.3413060" lon="-3.9071820">
        <ele>668.8</ele>
        <time>2019-04-28T14:02:27Z</time>
      </trkpt>
      <trkpt lat="40.3412590" lon="-3.9071130">
        <ele>668.8</ele>
        <time>2019-04-28T14:02:28Z</time>
      </trkpt>
      <trkpt lat="40.3412170" lon="-3.9070450">
        <ele>668.8</ele>
        <time>2019-04-28T14:02:29Z</time>
      </trkpt>
      <trkpt lat="40.3411740" lon="-3.9069790">
        <ele>668.6</ele>
        <time>2019-04-28T14:02:30Z</time>
      </trkpt>
      <trkpt lat="40.3411260" lon="-3.9069150">
        <ele>668.4</ele>
        <time>2019-04-28T14:02:31Z</time>
      </trkpt>
      <trkpt lat="40.3410740" lon="-3.9068570">
        <ele>668.0</ele>
        <time>2019-04-28T14:02:32Z</time>
      </trkpt>
      <trkpt lat="40.3410170" lon="-3.9068030">
        <ele>667.6</ele>
        <time>2019-04-28T14:02:33Z</time>
      </trkpt>
      <trkpt lat="40.3409550" lon="-3.9067580">
        <ele>667.2</ele>
        <time>2019-04-28T14:02:34Z</time>
      </trkpt>
      <trkpt lat="40.3408840" lon="-3.9067250">
        <ele>666.4</ele>
        <time>2019-04-28T14:02:35Z</time>
      </trkpt>
      <trkpt lat="40.3408100" lon="-3.9067010">
        <ele>665.8</ele>
        <time>2019-04-28T14:02:36Z</time>
      </trkpt>
      <trkpt lat="40.3407380" lon="-3.9066820">
        <ele>665.4</ele>
        <time>2019-04-28T14:02:37Z</time>
      </trkpt>
      <trkpt lat="40.3406720" lon="-3.9066590">
        <ele>665.0</ele>
        <time>2019-04-28T14:02:38Z</time>
      </trkpt>
      <trkpt lat="40.3406090" lon="-3.9066300">
        <ele>664.8</ele>
        <time>2019-04-28T14:02:39Z</time>
      </trkpt>
      <trkpt lat="40.3405500" lon="-3.9065960">
        <ele>664.8</ele>
        <time>2019-04-28T14:02:40Z</time>
      </trkpt>
      <trkpt lat="40.3404940" lon="-3.9065590">
        <ele>664.4</ele>
        <time>2019-04-28T14:02:41Z</time>
      </trkpt>
      <trkpt lat="40.3404410" lon="-3.9065230">
        <ele>664.2</ele>
        <time>2019-04-28T14:02:42Z</time>
      </trkpt>
      <trkpt lat="40.3404080" lon="-3.9064850">
        <ele>664.0</ele>
        <time>2019-04-28T14:02:43Z</time>
      </trkpt>
      <trkpt lat="40.3403810" lon="-3.9064290">
        <ele>663.6</ele>
        <time>2019-04-28T14:02:44Z</time>
      </trkpt>
      <trkpt lat="40.3403550" lon="-3.9063640">
        <ele>663.4</ele>
        <time>2019-04-28T14:02:45Z</time>
      </trkpt>
      <trkpt lat="40.3403180" lon="-3.9062950">
        <ele>663.4</ele>
        <time>2019-04-28T14:02:46Z</time>
      </trkpt>
      <trkpt lat="40.3402780" lon="-3.9062250">
        <ele>663.4</ele>
        <time>2019-04-28T14:02:47Z</time>
      </trkpt>
      <trkpt lat="40.3402400" lon="-3.9061580">
        <ele>663.2</ele>
        <time>2019-04-28T14:02:48Z</time>
      </trkpt>
      <trkpt lat="40.3402000" lon="-3.9060890">
        <ele>663.0</ele>
        <time>2019-04-28T14:02:49Z</time>
      </trkpt>
      <trkpt lat="40.3401530" lon="-3.9060220">
        <ele>662.8</ele>
        <time>2019-04-28T14:02:50Z</time>
      </trkpt>
      <trkpt lat="40.3401110" lon="-3.9059570">
        <ele>662.4</ele>
        <time>2019-04-28T14:02:51Z</time>
      </trkpt>
      <trkpt lat="40.3400690" lon="-3.9058930">
        <ele>662.2</ele>
        <time>2019-04-28T14:02:52Z</time>
      </trkpt>
      <trkpt lat="40.3400290" lon="-3.9058290">
        <ele>662.0</ele>
        <time>2019-04-28T14:02:53Z</time>
      </trkpt>
      <trkpt lat="40.3399960" lon="-3.9057600">
        <ele>661.8</ele>
        <time>2019-04-28T14:02:54Z</time>
      </trkpt>
      <trkpt lat="40.3399600" lon="-3.9056940">
        <ele>661.8</ele>
        <time>2019-04-28T14:02:55Z</time>
      </trkpt>
      <trkpt lat="40.3399220" lon="-3.9056300">
        <ele>661.6</ele>
        <time>2019-04-28T14:02:56Z</time>
      </trkpt>
      <trkpt lat="40.3398810" lon="-3.9055650">
        <ele>661.6</ele>
        <time>2019-04-28T14:02:57Z</time>
      </trkpt>
      <trkpt lat="40.3398330" lon="-3.9055070">
        <ele>661.6</ele>
        <time>2019-04-28T14:02:58Z</time>
      </trkpt>
      <trkpt lat="40.3397940" lon="-3.9054410">
        <ele>661.4</ele>
        <time>2019-04-28T14:02:59Z</time>
      </trkpt>
      <trkpt lat="40.3397570" lon="-3.9053750">
        <ele>661.2</ele>
        <time>2019-04-28T14:03:00Z</time>
      </trkpt>
      <trkpt lat="40.3397150" lon="-3.9053050">
        <ele>661.2</ele>
        <time>2019-04-28T14:03:01Z</time>
      </trkpt>
      <trkpt lat="40.3396780" lon="-3.9052330">
        <ele>661.2</ele>
        <time>2019-04-28T14:03:02Z</time>
      </trkpt>
      <trkpt lat="40.3396410" lon="-3.9051590">
        <ele>660.8</ele>
        <time>2019-04-28T14:03:03Z</time>
      </trkpt>
      <trkpt lat="40.3396070" lon="-3.9050920">
        <ele>660.8</ele>
        <time>2019-04-28T14:03:04Z</time>
      </trkpt>
      <trkpt lat="40.3395790" lon="-3.9050320">
        <ele>660.8</ele>
        <time>2019-04-28T14:03:05Z</time>
      </trkpt>
      <trkpt lat="40.3395400" lon="-3.9049610">
        <ele>660.6</ele>
        <time>2019-04-28T14:03:06Z</time>
      </trkpt>
      <trkpt lat="40.3395080" lon="-3.9049000">
        <ele>660.4</ele>
        <time>2019-04-28T14:03:07Z</time>
      </trkpt>
      <trkpt lat="40.3394770" lon="-3.9048410">
        <ele>660.4</ele>
        <time>2019-04-28T14:03:08Z</time>
      </trkpt>
      <trkpt lat="40.3394500" lon="-3.9047740">
        <ele>660.0</ele>
        <time>2019-04-28T14:03:09Z</time>
      </trkpt>
      <trkpt lat="40.3394200" lon="-3.9047090">
        <ele>659.8</ele>
        <time>2019-04-28T14:03:10Z</time>
      </trkpt>
      <trkpt lat="40.3393900" lon="-3.9046440">
        <ele>659.8</ele>
        <time>2019-04-28T14:03:11Z</time>
      </trkpt>
      <trkpt lat="40.3393620" lon="-3.9045800">
        <ele>659.6</ele>
        <time>2019-04-28T14:03:12Z</time>
      </trkpt>
      <trkpt lat="40.3393330" lon="-3.9045030">
        <ele>659.4</ele>
        <time>2019-04-28T14:03:13Z</time>
      </trkpt>
      <trkpt lat="40.3393080" lon="-3.9044280">
        <ele>659.0</ele>
        <time>2019-04-28T14:03:14Z</time>
      </trkpt>
      <trkpt lat="40.3392790" lon="-3.9043500">
        <ele>658.8</ele>
        <time>2019-04-28T14:03:15Z</time>
      </trkpt>
      <trkpt lat="40.3392500" lon="-3.9042670">
        <ele>658.4</ele>
        <time>2019-04-28T14:03:16Z</time>
      </trkpt>
      <trkpt lat="40.3392210" lon="-3.9041910">
        <ele>658.0</ele>
        <time>2019-04-28T14:03:17Z</time>
      </trkpt>
      <trkpt lat="40.3391950" lon="-3.9041190">
        <ele>658.0</ele>
        <time>2019-04-28T14:03:18Z</time>
      </trkpt>
      <trkpt lat="40.3391620" lon="-3.9040400">
        <ele>657.8</ele>
        <time>2019-04-28T14:03:19Z</time>
      </trkpt>
      <trkpt lat="40.3391220" lon="-3.9039590">
        <ele>657.6</ele>
        <time>2019-04-28T14:03:20Z</time>
      </trkpt>
      <trkpt lat="40.3390790" lon="-3.9038650">
        <ele>657.6</ele>
        <time>2019-04-28T14:03:21Z</time>
      </trkpt>
      <trkpt lat="40.3390370" lon="-3.9037790">
        <ele>657.4</ele>
        <time>2019-04-28T14:03:22Z</time>
      </trkpt>
      <trkpt lat="40.3390050" lon="-3.9037120">
        <ele>657.4</ele>
        <time>2019-04-28T14:03:23Z</time>
      </trkpt>
      <trkpt lat="40.3389720" lon="-3.9036320">
        <ele>657.2</ele>
        <time>2019-04-28T14:03:24Z</time>
      </trkpt>
      <trkpt lat="40.3389350" lon="-3.9035630">
        <ele>657.2</ele>
        <time>2019-04-28T14:03:25Z</time>
      </trkpt>
      <trkpt lat="40.3388990" lon="-3.9034960">
        <ele>657.2</ele>
        <time>2019-04-28T14:03:26Z</time>
      </trkpt>
      <trkpt lat="40.3388690" lon="-3.9034230">
        <ele>657.2</ele>
        <time>2019-04-28T14:03:27Z</time>
      </trkpt>
      <trkpt lat="40.3388310" lon="-3.9033570">
        <ele>657.0</ele>
        <time>2019-04-28T14:03:28Z</time>
      </trkpt>
      <trkpt lat="40.3387950" lon="-3.9032950">
        <ele>656.8</ele>
        <time>2019-04-28T14:03:29Z</time>
      </trkpt>
      <trkpt lat="40.3387690" lon="-3.9032360">
        <ele>656.8</ele>
        <time>2019-04-28T14:03:30Z</time>
      </trkpt>
      <trkpt lat="40.3387470" lon="-3.9032000">
        <ele>656.8</ele>
        <time>2019-04-28T14:03:31Z</time>
      </trkpt>
      <trkpt lat="40.3387340" lon="-3.9031720">
        <ele>656.6</ele>
        <time>2019-04-28T14:03:32Z</time>
      </trkpt>
      <trkpt lat="40.3387260" lon="-3.9031470">
        <ele>656.6</ele>
        <time>2019-04-28T14:03:33Z</time>
      </trkpt>
      <trkpt lat="40.3387200" lon="-3.9031270">
        <ele>656.6</ele>
        <time>2019-04-28T14:03:34Z</time>
      </trkpt>
      <trkpt lat="40.3387130" lon="-3.9031080">
        <ele>656.4</ele>
        <time>2019-04-28T14:03:35Z</time>
      </trkpt>
      <trkpt lat="40.3387060" lon="-3.9030870">
        <ele>656.4</ele>
        <time>2019-04-28T14:03:36Z</time>
      </trkpt>
      <trkpt lat="40.3386940" lon="-3.9030730">
        <ele>656.4</ele>
        <time>2019-04-28T14:03:37Z</time>
      </trkpt>
      <trkpt lat="40.3386830" lon="-3.9030580">
        <ele>656.2</ele>
        <time>2019-04-28T14:03:38Z</time>
      </trkpt>
      <trkpt lat="40.3386680" lon="-3.9030310">
        <ele>656.2</ele>
        <time>2019-04-28T14:03:39Z</time>
      </trkpt>
      <trkpt lat="40.3386520" lon="-3.9030030">
        <ele>656.6</ele>
        <time>2019-04-28T14:03:40Z</time>
      </trkpt>
      <trkpt lat="40.3386360" lon="-3.9029650">
        <ele>656.4</ele>
        <time>2019-04-28T14:03:41Z</time>
      </trkpt>
      <trkpt lat="40.3386130" lon="-3.9029160">
        <ele>656.6</ele>
        <time>2019-04-28T14:03:42Z</time>
      </trkpt>
      <trkpt lat="40.3385870" lon="-3.9028640">
        <ele>657.0</ele>
        <time>2019-04-28T14:03:43Z</time>
      </trkpt>
      <trkpt lat="40.3385590" lon="-3.9028150">
        <ele>657.2</ele>
        <time>2019-04-28T14:03:44Z</time>
      </trkpt>
      <trkpt lat="40.3385330" lon="-3.9027650">
        <ele>657.4</ele>
        <time>2019-04-28T14:03:45Z</time>
      </trkpt>
      <trkpt lat="40.3385100" lon="-3.9027170">
        <ele>657.6</ele>
        <time>2019-04-28T14:03:46Z</time>
      </trkpt>
      <trkpt lat="40.3384930" lon="-3.9026680">
        <ele>657.8</ele>
        <time>2019-04-28T14:03:47Z</time>
      </trkpt>
      <trkpt lat="40.3384830" lon="-3.9026190">
        <ele>658.0</ele>
        <time>2019-04-28T14:03:48Z</time>
      </trkpt>
      <trkpt lat="40.3384750" lon="-3.9025670">
        <ele>658.2</ele>
        <time>2019-04-28T14:03:49Z</time>
      </trkpt>
      <trkpt lat="40.3384690" lon="-3.9025170">
        <ele>658.4</ele>
        <time>2019-04-28T14:03:50Z</time>
      </trkpt>
      <trkpt lat="40.3384610" lon="-3.9024630">
        <ele>658.6</ele>
        <time>2019-04-28T14:03:51Z</time>
      </trkpt>
      <trkpt lat="40.3384530" lon="-3.9024150">
        <ele>658.8</ele>
        <time>2019-04-28T14:03:52Z</time>
      </trkpt>
      <trkpt lat="40.3384490" lon="-3.9023710">
        <ele>659.0</ele>
        <time>2019-04-28T14:03:53Z</time>
      </trkpt>
      <trkpt lat="40.3384430" lon="-3.9023270">
        <ele>659.4</ele>
        <time>2019-04-28T14:03:54Z</time>
      </trkpt>
      <trkpt lat="40.3384350" lon="-3.9022850">
        <ele>659.6</ele>
        <time>2019-04-28T14:03:55Z</time>
      </trkpt>
      <trkpt lat="40.3384280" lon="-3.9022420">
        <ele>659.8</ele>
        <time>2019-04-28T14:03:56Z</time>
      </trkpt>
      <trkpt lat="40.3384210" lon="-3.9021940">
        <ele>660.2</ele>
        <time>2019-04-28T14:03:57Z</time>
      </trkpt>
      <trkpt lat="40.3384150" lon="-3.9021440">
        <ele>660.2</ele>
        <time>2019-04-28T14:03:58Z</time>
      </trkpt>
      <trkpt lat="40.3384070" lon="-3.9020950">
        <ele>660.8</ele>
        <time>2019-04-28T14:03:59Z</time>
      </trkpt>
      <trkpt lat="40.3384000" lon="-3.9020460">
        <ele>661.0</ele>
        <time>2019-04-28T14:04:00Z</time>
      </trkpt>
      <trkpt lat="40.3383920" lon="-3.9019990">
        <ele>661.2</ele>
        <time>2019-04-28T14:04:01Z</time>
      </trkpt>
      <trkpt lat="40.3383810" lon="-3.9019510">
        <ele>661.4</ele>
        <time>2019-04-28T14:04:02Z</time>
      </trkpt>
      <trkpt lat="40.3383710" lon="-3.9019030">
        <ele>661.6</ele>
        <time>2019-04-28T14:04:03Z</time>
      </trkpt>
      <trkpt lat="40.3383610" lon="-3.9018560">
        <ele>661.8</ele>
        <time>2019-04-28T14:04:04Z</time>
      </trkpt>
      <trkpt lat="40.3383510" lon="-3.9018130">
        <ele>662.2</ele>
        <time>2019-04-28T14:04:05Z</time>
      </trkpt>
      <trkpt lat="40.3383400" lon="-3.9017660">
        <ele>662.4</ele>
        <time>2019-04-28T14:04:06Z</time>
      </trkpt>
      <trkpt lat="40.3383310" lon="-3.9017170">
        <ele>662.6</ele>
        <time>2019-04-28T14:04:07Z</time>
      </trkpt>
      <trkpt lat="40.3383200" lon="-3.9016690">
        <ele>662.8</ele>
        <time>2019-04-28T14:04:08Z</time>
      </trkpt>
      <trkpt lat="40.3383090" lon="-3.9016220">
        <ele>663.0</ele>
        <time>2019-04-28T14:04:09Z</time>
      </trkpt>
      <trkpt lat="40.3382990" lon="-3.9015740">
        <ele>663.2</ele>
        <time>2019-04-28T14:04:10Z</time>
      </trkpt>
      <trkpt lat="40.3382930" lon="-3.9015230">
        <ele>663.4</ele>
        <time>2019-04-28T14:04:11Z</time>
      </trkpt>
      <trkpt lat="40.3382870" lon="-3.9014750">
        <ele>663.6</ele>
        <time>2019-04-28T14:04:12Z</time>
      </trkpt>
      <trkpt lat="40.3382790" lon="-3.9014290">
        <ele>663.6</ele>
        <time>2019-04-28T14:04:13Z</time>
      </trkpt>
      <trkpt lat="40.3382700" lon="-3.9013850">
        <ele>664.0</ele>
        <time>2019-04-28T14:04:14Z</time>
      </trkpt>
      <trkpt lat="40.3382610" lon="-3.9013420">
        <ele>664.2</ele>
        <time>2019-04-28T14:04:15Z</time>
      </trkpt>
      <trkpt lat="40.3382520" lon="-3.9012970">
        <ele>664.2</ele>
        <time>2019-04-28T14:04:16Z</time>
      </trkpt>
      <trkpt lat="40.3382440" lon="-3.9012540">
        <ele>664.6</ele>
        <time>2019-04-28T14:04:17Z</time>
      </trkpt>
      <trkpt lat="40.3382360" lon="-3.9012100">
        <ele>664.6</ele>
        <time>2019-04-28T14:04:18Z</time>
      </trkpt>
      <trkpt lat="40.3382260" lon="-3.9011660">
        <ele>664.8</ele>
        <time>2019-04-28T14:04:19Z</time>
      </trkpt>
      <trkpt lat="40.3382120" lon="-3.9011240">
        <ele>665.0</ele>
        <time>2019-04-28T14:04:20Z</time>
      </trkpt>
      <trkpt lat="40.3381970" lon="-3.9010810">
        <ele>665.2</ele>
        <time>2019-04-28T14:04:21Z</time>
      </trkpt>
      <trkpt lat="40.3381850" lon="-3.9010390">
        <ele>665.4</ele>
        <time>2019-04-28T14:04:22Z</time>
      </trkpt>
      <trkpt lat="40.3381710" lon="-3.9009980">
        <ele>665.4</ele>
        <time>2019-04-28T14:04:23Z</time>
      </trkpt>
      <trkpt lat="40.3381580" lon="-3.9009660">
        <ele>665.4</ele>
        <time>2019-04-28T14:04:24Z</time>
      </trkpt>
      <trkpt lat="40.3381390" lon="-3.9009320">
        <ele>665.6</ele>
        <time>2019-04-28T14:04:25Z</time>
      </trkpt>
      <trkpt lat="40.3381180" lon="-3.9008980">
        <ele>665.8</ele>
        <time>2019-04-28T14:04:26Z</time>
      </trkpt>
      <trkpt lat="40.3381010" lon="-3.9008600">
        <ele>666.0</ele>
        <time>2019-04-28T14:04:27Z</time>
      </trkpt>
      <trkpt lat="40.3380860" lon="-3.9008200">
        <ele>666.2</ele>
        <time>2019-04-28T14:04:28Z</time>
      </trkpt>
      <trkpt lat="40.3380720" lon="-3.9007810">
        <ele>666.4</ele>
        <time>2019-04-28T14:04:29Z</time>
      </trkpt>
      <trkpt lat="40.3380570" lon="-3.9007450">
        <ele>666.6</ele>
        <time>2019-04-28T14:04:30Z</time>
      </trkpt>
      <trkpt lat="40.3380410" lon="-3.9007080">
        <ele>666.8</ele>
        <time>2019-04-28T14:04:31Z</time>
      </trkpt>
      <trkpt lat="40.3380250" lon="-3.9006710">
        <ele>666.8</ele>
        <time>2019-04-28T14:04:32Z</time>
      </trkpt>
      <trkpt lat="40.3380070" lon="-3.9006330">
        <ele>667.0</ele>
        <time>2019-04-28T14:04:33Z</time>
      </trkpt>
      <trkpt lat="40.3379910" lon="-3.9005960">
        <ele>667.2</ele>
        <time>2019-04-28T14:04:34Z</time>
      </trkpt>
      <trkpt lat="40.3379760" lon="-3.9005580">
        <ele>667.2</ele>
        <time>2019-04-28T14:04:35Z</time>
      </trkpt>
      <trkpt lat="40.3379590" lon="-3.9005200">
        <ele>667.4</ele>
        <time>2019-04-28T14:04:36Z</time>
      </trkpt>
      <trkpt lat="40.3379410" lon="-3.9004820">
        <ele>667.6</ele>
        <time>2019-04-28T14:04:37Z</time>
      </trkpt>
      <trkpt lat="40.3379250" lon="-3.9004460">
        <ele>667.8</ele>
        <time>2019-04-28T14:04:38Z</time>
      </trkpt>
      <trkpt lat="40.3379100" lon="-3.9004110">
        <ele>668.0</ele>
        <time>2019-04-28T14:04:39Z</time>
      </trkpt>
      <trkpt lat="40.3378950" lon="-3.9003770">
        <ele>668.2</ele>
        <time>2019-04-28T14:04:40Z</time>
      </trkpt>
      <trkpt lat="40.3378810" lon="-3.9003430">
        <ele>668.4</ele>
        <time>2019-04-28T14:04:41Z</time>
      </trkpt>
      <trkpt lat="40.3378710" lon="-3.9003100">
        <ele>668.4</ele>
        <time>2019-04-28T14:04:42Z</time>
      </trkpt>
      <trkpt lat="40.3378590" lon="-3.9002770">
        <ele>668.6</ele>
        <time>2019-04-28T14:04:43Z</time>
      </trkpt>
      <trkpt lat="40.3378470" lon="-3.9002460">
        <ele>668.6</ele>
        <time>2019-04-28T14:04:44Z</time>
      </trkpt>
      <trkpt lat="40.3378340" lon="-3.9002120">
        <ele>668.8</ele>
        <time>2019-04-28T14:04:45Z</time>
      </trkpt>
      <trkpt lat="40.3378200" lon="-3.9001770">
        <ele>669.0</ele>
        <time>2019-04-28T14:04:46Z</time>
      </trkpt>
      <trkpt lat="40.3378060" lon="-3.9001410">
        <ele>669.2</ele>
        <time>2019-04-28T14:04:47Z</time>
      </trkpt>
      <trkpt lat="40.3377910" lon="-3.9001050">
        <ele>669.2</ele>
        <time>2019-04-28T14:04:48Z</time>
      </trkpt>
      <trkpt lat="40.3377740" lon="-3.9000670">
        <ele>669.2</ele>
        <time>2019-04-28T14:04:49Z</time>
      </trkpt>
      <trkpt lat="40.3377560" lon="-3.9000290">
        <ele>669.4</ele>
        <time>2019-04-28T14:04:50Z</time>
      </trkpt>
      <trkpt lat="40.3377370" lon="-3.8999890">
        <ele>669.4</ele>
        <time>2019-04-28T14:04:51Z</time>
      </trkpt>
      <trkpt lat="40.3377150" lon="-3.8999480">
        <ele>669.4</ele>
        <time>2019-04-28T14:04:52Z</time>
      </trkpt>
      <trkpt lat="40.3376890" lon="-3.8999110">
        <ele>669.2</ele>
        <time>2019-04-28T14:04:53Z</time>
      </trkpt>
      <trkpt lat="40.3376620" lon="-3.8998740">
        <ele>669.4</ele>
        <time>2019-04-28T14:04:54Z</time>
      </trkpt>
      <trkpt lat="40.3376350" lon="-3.8998350">
        <ele>669.4</ele>
        <time>2019-04-28T14:04:55Z</time>
      </trkpt>
      <trkpt lat="40.3376110" lon="-3.8997920">
        <ele>669.2</ele>
        <time>2019-04-28T14:04:56Z</time>
      </trkpt>
      <trkpt lat="40.3375900" lon="-3.8997460">
        <ele>669.2</ele>
        <time>2019-04-28T14:04:57Z</time>
      </trkpt>
      <trkpt lat="40.3375680" lon="-3.8996990">
        <ele>669.2</ele>
        <time>2019-04-28T14:04:58Z</time>
      </trkpt>
      <trkpt lat="40.3375470" lon="-3.8996510">
        <ele>669.2</ele>
        <time>2019-04-28T14:04:59Z</time>
      </trkpt>
      <trkpt lat="40.3375260" lon="-3.8996090">
        <ele>669.2</ele>
        <time>2019-04-28T14:05:00Z</time>
      </trkpt>
      <trkpt lat="40.3375040" lon="-3.8995660">
        <ele>669.2</ele>
        <time>2019-04-28T14:05:01Z</time>
      </trkpt>
      <trkpt lat="40.3374810" lon="-3.8995240">
        <ele>669.2</ele>
        <time>2019-04-28T14:05:02Z</time>
      </trkpt>
      <trkpt lat="40.3374570" lon="-3.8994810">
        <ele>669.0</ele>
        <time>2019-04-28T14:05:03Z</time>
      </trkpt>
      <trkpt lat="40.3374300" lon="-3.8994380">
        <ele>668.8</ele>
        <time>2019-04-28T14:05:04Z</time>
      </trkpt>
      <trkpt lat="40.3374000" lon="-3.8993980">
        <ele>668.8</ele>
        <time>2019-04-28T14:05:05Z</time>
      </trkpt>
      <trkpt lat="40.3373690" lon="-3.8993530">
        <ele>669.0</ele>
        <time>2019-04-28T14:05:06Z</time>
      </trkpt>
      <trkpt lat="40.3373420" lon="-3.8993040">
        <ele>669.0</ele>
        <time>2019-04-28T14:05:07Z</time>
      </trkpt>
      <trkpt lat="40.3373180" lon="-3.8992510">
        <ele>669.0</ele>
        <time>2019-04-28T14:05:08Z</time>
      </trkpt>
      <trkpt lat="40.3372950" lon="-3.8991960">
        <ele>668.8</ele>
        <time>2019-04-28T14:05:09Z</time>
      </trkpt>
      <trkpt lat="40.3372730" lon="-3.8991400">
        <ele>669.0</ele>
        <time>2019-04-28T14:05:10Z</time>
      </trkpt>
      <trkpt lat="40.3372480" lon="-3.8990840">
        <ele>669.0</ele>
        <time>2019-04-28T14:05:11Z</time>
      </trkpt>
      <trkpt lat="40.3372280" lon="-3.8990280">
        <ele>669.0</ele>
        <time>2019-04-28T14:05:12Z</time>
      </trkpt>
      <trkpt lat="40.3372100" lon="-3.8989720">
        <ele>669.0</ele>
        <time>2019-04-28T14:05:13Z</time>
      </trkpt>
      <trkpt lat="40.3371950" lon="-3.8989180">
        <ele>669.0</ele>
        <time>2019-04-28T14:05:14Z</time>
      </trkpt>
      <trkpt lat="40.3371780" lon="-3.8988650">
        <ele>669.2</ele>
        <time>2019-04-28T14:05:15Z</time>
      </trkpt>
      <trkpt lat="40.3371590" lon="-3.8988130">
        <ele>669.2</ele>
        <time>2019-04-28T14:05:16Z</time>
      </trkpt>
      <trkpt lat="40.3371400" lon="-3.8987590">
        <ele>669.2</ele>
        <time>2019-04-28T14:05:17Z</time>
      </trkpt>
      <trkpt lat="40.3371230" lon="-3.8987040">
        <ele>669.4</ele>
        <time>2019-04-28T14:05:18Z</time>
      </trkpt>
      <trkpt lat="40.3371050" lon="-3.8986520">
        <ele>669.4</ele>
        <time>2019-04-28T14:05:19Z</time>
      </trkpt>
      <trkpt lat="40.3370840" lon="-3.8986030">
        <ele>669.6</ele>
        <time>2019-04-28T14:05:20Z</time>
      </trkpt>
      <trkpt lat="40.3370650" lon="-3.8985540">
        <ele>669.6</ele>
        <time>2019-04-28T14:05:21Z</time>
      </trkpt>
      <trkpt lat="40.3370450" lon="-3.8985060">
        <ele>669.8</ele>
        <time>2019-04-28T14:05:22Z</time>
      </trkpt>
      <trkpt lat="40.3370260" lon="-3.8984580">
        <ele>669.8</ele>
        <time>2019-04-28T14:05:23Z</time>
      </trkpt>
      <trkpt lat="40.3370100" lon="-3.8984100">
        <ele>669.8</ele>
        <time>2019-04-28T14:05:24Z</time>
      </trkpt>
      <trkpt lat="40.3369940" lon="-3.8983620">
        <ele>670.0</ele>
        <time>2019-04-28T14:05:25Z</time>
      </trkpt>
      <trkpt lat="40.3369780" lon="-3.8983150">
        <ele>670.0</ele>
        <time>2019-04-28T14:05:26Z</time>
      </trkpt>
      <trkpt lat="40.3369610" lon="-3.8982700">
        <ele>670.2</ele>
        <time>2019-04-28T14:05:27Z</time>
      </trkpt>
      <trkpt lat="40.3369480" lon="-3.8982220">
        <ele>670.2</ele>
        <time>2019-04-28T14:05:28Z</time>
      </trkpt>
      <trkpt lat="40.3369410" lon="-3.8981700">
        <ele>670.2</ele>
        <time>2019-04-28T14:05:29Z</time>
      </trkpt>
      <trkpt lat="40.3369290" lon="-3.8981190">
        <ele>670.2</ele>
        <time>2019-04-28T14:05:30Z</time>
      </trkpt>
      <trkpt lat="40.3369160" lon="-3.8980650">
        <ele>670.4</ele>
        <time>2019-04-28T14:05:31Z</time>
      </trkpt>
      <trkpt lat="40.3369040" lon="-3.8980090">
        <ele>670.4</ele>
        <time>2019-04-28T14:05:32Z</time>
      </trkpt>
      <trkpt lat="40.3368920" lon="-3.8979520">
        <ele>670.4</ele>
        <time>2019-04-28T14:05:33Z</time>
      </trkpt>
      <trkpt lat="40.3368790" lon="-3.8978950">
        <ele>670.4</ele>
        <time>2019-04-28T14:05:34Z</time>
      </trkpt>
      <trkpt lat="40.3368630" lon="-3.8978410">
        <ele>670.6</ele>
        <time>2019-04-28T14:05:35Z</time>
      </trkpt>
      <trkpt lat="40.3368450" lon="-3.8977890">
        <ele>670.6</ele>
        <time>2019-04-28T14:05:36Z</time>
      </trkpt>
      <trkpt lat="40.3368250" lon="-3.8977360">
        <ele>670.6</ele>
        <time>2019-04-28T14:05:37Z</time>
      </trkpt>
      <trkpt lat="40.3368060" lon="-3.8976830">
        <ele>670.6</ele>
        <time>2019-04-28T14:05:38Z</time>
      </trkpt>
      <trkpt lat="40.3367870" lon="-3.8976290">
        <ele>670.8</ele>
        <time>2019-04-28T14:05:39Z</time>
      </trkpt>
      <trkpt lat="40.3367700" lon="-3.8975760">
        <ele>670.8</ele>
        <time>2019-04-28T14:05:40Z</time>
      </trkpt>
      <trkpt lat="40.3367540" lon="-3.8975230">
        <ele>670.8</ele>
        <time>2019-04-28T14:05:41Z</time>
      </trkpt>
      <trkpt lat="40.3367380" lon="-3.8974670">
        <ele>670.8</ele>
        <time>2019-04-28T14:05:42Z</time>
      </trkpt>
      <trkpt lat="40.3367200" lon="-3.8974120">
        <ele>671.0</ele>
        <time>2019-04-28T14:05:43Z</time>
      </trkpt>
      <trkpt lat="40.3367020" lon="-3.8973580">
        <ele>671.0</ele>
        <time>2019-04-28T14:05:44Z</time>
      </trkpt>
      <trkpt lat="40.3366810" lon="-3.8973030">
        <ele>671.2</ele>
        <time>2019-04-28T14:05:45Z</time>
      </trkpt>
      <trkpt lat="40.3366590" lon="-3.8972470">
        <ele>671.2</ele>
        <time>2019-04-28T14:05:46Z</time>
      </trkpt>
      <trkpt lat="40.3366390" lon="-3.8971910">
        <ele>671.4</ele>
        <time>2019-04-28T14:05:47Z</time>
      </trkpt>
      <trkpt lat="40.3366210" lon="-3.8971360">
        <ele>671.4</ele>
        <time>2019-04-28T14:05:48Z</time>
      </trkpt>
      <trkpt lat="40.3366030" lon="-3.8970790">
        <ele>671.4</ele>
        <time>2019-04-28T14:05:49Z</time>
      </trkpt>
      <trkpt lat="40.3365840" lon="-3.8970230">
        <ele>671.4</ele>
        <time>2019-04-28T14:05:50Z</time>
      </trkpt>
      <trkpt lat="40.3365670" lon="-3.8969660">
        <ele>671.4</ele>
        <time>2019-04-28T14:05:51Z</time>
      </trkpt>
      <trkpt lat="40.3365510" lon="-3.8969150">
        <ele>671.4</ele>
        <time>2019-04-28T14:05:52Z</time>
      </trkpt>
      <trkpt lat="40.3365320" lon="-3.8968590">
        <ele>671.4</ele>
        <time>2019-04-28T14:05:53Z</time>
      </trkpt>
      <trkpt lat="40.3365120" lon="-3.8968040">
        <ele>671.4</ele>
        <time>2019-04-28T14:05:54Z</time>
      </trkpt>
      <trkpt lat="40.3364930" lon="-3.8967450">
        <ele>671.6</ele>
        <time>2019-04-28T14:05:55Z</time>
      </trkpt>
      <trkpt lat="40.3364730" lon="-3.8966860">
        <ele>671.6</ele>
        <time>2019-04-28T14:05:56Z</time>
      </trkpt>
      <trkpt lat="40.3364510" lon="-3.8966300">
        <ele>671.6</ele>
        <time>2019-04-28T14:05:57Z</time>
      </trkpt>
      <trkpt lat="40.3364290" lon="-3.8965730">
        <ele>671.6</ele>
        <time>2019-04-28T14:05:58Z</time>
      </trkpt>
      <trkpt lat="40.3364090" lon="-3.8965170">
        <ele>671.8</ele>
        <time>2019-04-28T14:05:59Z</time>
      </trkpt>
      <trkpt lat="40.3363910" lon="-3.8964640">
        <ele>671.8</ele>
        <time>2019-04-28T14:06:00Z</time>
      </trkpt>
      <trkpt lat="40.3363720" lon="-3.8964080">
        <ele>672.0</ele>
        <time>2019-04-28T14:06:01Z</time>
      </trkpt>
      <trkpt lat="40.3363510" lon="-3.8963520">
        <ele>672.2</ele>
        <time>2019-04-28T14:06:02Z</time>
      </trkpt>
      <trkpt lat="40.3363290" lon="-3.8962970">
        <ele>672.4</ele>
        <time>2019-04-28T14:06:03Z</time>
      </trkpt>
      <trkpt lat="40.3363070" lon="-3.8962420">
        <ele>672.4</ele>
        <time>2019-04-28T14:06:04Z</time>
      </trkpt>
      <trkpt lat="40.3362860" lon="-3.8961880">
        <ele>672.4</ele>
        <time>2019-04-28T14:06:05Z</time>
      </trkpt>
      <trkpt lat="40.3362630" lon="-3.8961340">
        <ele>672.6</ele>
        <time>2019-04-28T14:06:06Z</time>
      </trkpt>
      <trkpt lat="40.3362410" lon="-3.8960830">
        <ele>672.6</ele>
        <time>2019-04-28T14:06:07Z</time>
      </trkpt>
      <trkpt lat="40.3362160" lon="-3.8960330">
        <ele>672.6</ele>
        <time>2019-04-28T14:06:08Z</time>
      </trkpt>
      <trkpt lat="40.3361930" lon="-3.8959860">
        <ele>672.8</ele>
        <time>2019-04-28T14:06:09Z</time>
      </trkpt>
      <trkpt lat="40.3361720" lon="-3.8959410">
        <ele>672.6</ele>
        <time>2019-04-28T14:06:10Z</time>
      </trkpt>
      <trkpt lat="40.3361480" lon="-3.8958900">
        <ele>672.8</ele>
        <time>2019-04-28T14:06:11Z</time>
      </trkpt>
      <trkpt lat="40.3361240" lon="-3.8958380">
        <ele>673.0</ele>
        <time>2019-04-28T14:06:12Z</time>
      </trkpt>
      <trkpt lat="40.3361000" lon="-3.8957880">
        <ele>673.0</ele>
        <time>2019-04-28T14:06:13Z</time>
      </trkpt>
      <trkpt lat="40.3360750" lon="-3.8957370">
        <ele>673.2</ele>
        <time>2019-04-28T14:06:14Z</time>
      </trkpt>
      <trkpt lat="40.3360510" lon="-3.8956880">
        <ele>673.4</ele>
        <time>2019-04-28T14:06:15Z</time>
      </trkpt>
      <trkpt lat="40.3360270" lon="-3.8956430">
        <ele>673.4</ele>
        <time>2019-04-28T14:06:16Z</time>
      </trkpt>
      <trkpt lat="40.3360030" lon="-3.8955980">
        <ele>673.4</ele>
        <time>2019-04-28T14:06:17Z</time>
      </trkpt>
      <trkpt lat="40.3359790" lon="-3.8955540">
        <ele>673.6</ele>
        <time>2019-04-28T14:06:18Z</time>
      </trkpt>
      <trkpt lat="40.3359550" lon="-3.8955100">
        <ele>673.6</ele>
        <time>2019-04-28T14:06:19Z</time>
      </trkpt>
      <trkpt lat="40.3359300" lon="-3.8954640">
        <ele>673.8</ele>
        <time>2019-04-28T14:06:20Z</time>
      </trkpt>
      <trkpt lat="40.3359070" lon="-3.8954240">
        <ele>673.8</ele>
        <time>2019-04-28T14:06:21Z</time>
      </trkpt>
      <trkpt lat="40.3358820" lon="-3.8953820">
        <ele>673.8</ele>
        <time>2019-04-28T14:06:22Z</time>
      </trkpt>
      <trkpt lat="40.3358580" lon="-3.8953410">
        <ele>674.0</ele>
        <time>2019-04-28T14:06:23Z</time>
      </trkpt>
      <trkpt lat="40.3358360" lon="-3.8953140">
        <ele>674.0</ele>
        <time>2019-04-28T14:06:24Z</time>
      </trkpt>
      <trkpt lat="40.3358160" lon="-3.8952910">
        <ele>674.0</ele>
        <time>2019-04-28T14:06:25Z</time>
      </trkpt>
      <trkpt lat="40.3358000" lon="-3.8952760">
        <ele>674.0</ele>
        <time>2019-04-28T14:06:26Z</time>
      </trkpt>
      <trkpt lat="40.3357840" lon="-3.8952600">
        <ele>674.0</ele>
        <time>2019-04-28T14:06:27Z</time>
      </trkpt>
      <trkpt lat="40.3357710" lon="-3.8952410">
        <ele>674.0</ele>
        <time>2019-04-28T14:06:28Z</time>
      </trkpt>
      <trkpt lat="40.3357670" lon="-3.8952160">
        <ele>674.2</ele>
        <time>2019-04-28T14:06:29Z</time>
      </trkpt>
      <trkpt lat="40.3357700" lon="-3.8951800">
        <ele>674.2</ele>
        <time>2019-04-28T14:06:30Z</time>
      </trkpt>
      <trkpt lat="40.3357790" lon="-3.8951400">
        <ele>674.2</ele>
        <time>2019-04-28T14:06:31Z</time>
      </trkpt>
      <trkpt lat="40.3357900" lon="-3.8950980">
        <ele>674.4</ele>
        <time>2019-04-28T14:06:32Z</time>
      </trkpt>
      <trkpt lat="40.3358070" lon="-3.8950570">
        <ele>674.4</ele>
        <time>2019-04-28T14:06:33Z</time>
      </trkpt>
      <trkpt lat="40.3358240" lon="-3.8950120">
        <ele>674.6</ele>
        <time>2019-04-28T14:06:34Z</time>
      </trkpt>
      <trkpt lat="40.3358410" lon="-3.8949670">
        <ele>674.8</ele>
        <time>2019-04-28T14:06:35Z</time>
      </trkpt>
      <trkpt lat="40.3358560" lon="-3.8949200">
        <ele>674.6</ele>
        <time>2019-04-28T14:06:36Z</time>
      </trkpt>
      <trkpt lat="40.3358700" lon="-3.8948660">
        <ele>674.6</ele>
        <time>2019-04-28T14:06:37Z</time>
      </trkpt>
      <trkpt lat="40.3358840" lon="-3.8948100">
        <ele>674.6</ele>
        <time>2019-04-28T14:06:38Z</time>
      </trkpt>
      <trkpt lat="40.3359010" lon="-3.8947560">
        <ele>674.6</ele>
        <time>2019-04-28T14:06:39Z</time>
      </trkpt>
      <trkpt lat="40.3359170" lon="-3.8946990">
        <ele>674.6</ele>
        <time>2019-04-28T14:06:40Z</time>
      </trkpt>
      <trkpt lat="40.3359340" lon="-3.8946450">
        <ele>674.8</ele>
        <time>2019-04-28T14:06:41Z</time>
      </trkpt>
      <trkpt lat="40.3359510" lon="-3.8945900">
        <ele>675.0</ele>
        <time>2019-04-28T14:06:42Z</time>
      </trkpt>
      <trkpt lat="40.3359670" lon="-3.8945310">
        <ele>675.2</ele>
        <time>2019-04-28T14:06:43Z</time>
      </trkpt>
      <trkpt lat="40.3359820" lon="-3.8944740">
        <ele>675.2</ele>
        <time>2019-04-28T14:06:44Z</time>
      </trkpt>
      <trkpt lat="40.3359970" lon="-3.8944170">
        <ele>675.0</ele>
        <time>2019-04-28T14:06:45Z</time>
      </trkpt>
      <trkpt lat="40.3360120" lon="-3.8943620">
        <ele>675.0</ele>
        <time>2019-04-28T14:06:46Z</time>
      </trkpt>
      <trkpt lat="40.3360250" lon="-3.8943040">
        <ele>675.0</ele>
        <time>2019-04-28T14:06:47Z</time>
      </trkpt>
      <trkpt lat="40.3360400" lon="-3.8942490">
        <ele>675.0</ele>
        <time>2019-04-28T14:06:48Z</time>
      </trkpt>
      <trkpt lat="40.3360540" lon="-3.8941930">
        <ele>675.2</ele>
        <time>2019-04-28T14:06:49Z</time>
      </trkpt>
      <trkpt lat="40.3360680" lon="-3.8941370">
        <ele>675.4</ele>
        <time>2019-04-28T14:06:50Z</time>
      </trkpt>
      <trkpt lat="40.3360800" lon="-3.8940790">
        <ele>675.4</ele>
        <time>2019-04-28T14:06:51Z</time>
      </trkpt>
      <trkpt lat="40.3360930" lon="-3.8940200">
        <ele>675.4</ele>
        <time>2019-04-28T14:06:52Z</time>
      </trkpt>
      <trkpt lat="40.3361070" lon="-3.8939600">
        <ele>675.6</ele>
        <time>2019-04-28T14:06:53Z</time>
      </trkpt>
      <trkpt lat="40.3361200" lon="-3.8939010">
        <ele>675.6</ele>
        <time>2019-04-28T14:06:54Z</time>
      </trkpt>
      <trkpt lat="40.3361330" lon="-3.8938400">
        <ele>675.8</ele>
        <time>2019-04-28T14:06:55Z</time>
      </trkpt>
      <trkpt lat="40.3361460" lon="-3.8937770">
        <ele>675.8</ele>
        <time>2019-04-28T14:06:56Z</time>
      </trkpt>
      <trkpt lat="40.3361580" lon="-3.8937160">
        <ele>676.0</ele>
        <time>2019-04-28T14:06:57Z</time>
      </trkpt>
      <trkpt lat="40.3361700" lon="-3.8936540">
        <ele>676.0</ele>
        <time>2019-04-28T14:06:58Z</time>
      </trkpt>
      <trkpt lat="40.3361810" lon="-3.8935900">
        <ele>676.0</ele>
        <time>2019-04-28T14:06:59Z</time>
      </trkpt>
      <trkpt lat="40.3361910" lon="-3.8935220">
        <ele>676.0</ele>
        <time>2019-04-28T14:07:00Z</time>
      </trkpt>
      <trkpt lat="40.3362050" lon="-3.8934540">
        <ele>676.0</ele>
        <time>2019-04-28T14:07:01Z</time>
      </trkpt>
      <trkpt lat="40.3362190" lon="-3.8933880">
        <ele>676.0</ele>
        <time>2019-04-28T14:07:02Z</time>
      </trkpt>
      <trkpt lat="40.3362310" lon="-3.8933200">
        <ele>676.2</ele>
        <time>2019-04-28T14:07:03Z</time>
      </trkpt>
      <trkpt lat="40.3362390" lon="-3.8932510">
        <ele>676.0</ele>
        <time>2019-04-28T14:07:04Z</time>
      </trkpt>
      <trkpt lat="40.3362440" lon="-3.8931810">
        <ele>676.0</ele>
        <time>2019-04-28T14:07:05Z</time>
      </trkpt>
      <trkpt lat="40.3362510" lon="-3.8931100">
        <ele>676.2</ele>
        <time>2019-04-28T14:07:06Z</time>
      </trkpt>
      <trkpt lat="40.3362600" lon="-3.8930380">
        <ele>676.4</ele>
        <time>2019-04-28T14:07:07Z</time>
      </trkpt>
      <trkpt lat="40.3362670" lon="-3.8929680">
        <ele>676.4</ele>
        <time>2019-04-28T14:07:08Z</time>
      </trkpt>
      <trkpt lat="40.3362730" lon="-3.8928970">
        <ele>676.6</ele>
        <time>2019-04-28T14:07:09Z</time>
      </trkpt>
      <trkpt lat="40.3362780" lon="-3.8928260">
        <ele>676.6</ele>
        <time>2019-04-28T14:07:10Z</time>
      </trkpt>
      <trkpt lat="40.3362860" lon="-3.8927590">
        <ele>676.4</ele>
        <time>2019-04-28T14:07:11Z</time>
      </trkpt>
      <trkpt lat="40.3362970" lon="-3.8926920">
        <ele>676.4</ele>
        <time>2019-04-28T14:07:12Z</time>
      </trkpt>
      <trkpt lat="40.3363090" lon="-3.8926250">
        <ele>676.6</ele>
        <time>2019-04-28T14:07:13Z</time>
      </trkpt>
      <trkpt lat="40.3363190" lon="-3.8925560">
        <ele>676.6</ele>
        <time>2019-04-28T14:07:14Z</time>
      </trkpt>
      <trkpt lat="40.3363310" lon="-3.8924890">
        <ele>676.6</ele>
        <time>2019-04-28T14:07:15Z</time>
      </trkpt>
      <trkpt lat="40.3363450" lon="-3.8924250">
        <ele>676.6</ele>
        <time>2019-04-28T14:07:16Z</time>
      </trkpt>
      <trkpt lat="40.3363590" lon="-3.8923600">
        <ele>676.6</ele>
        <time>2019-04-28T14:07:17Z</time>
      </trkpt>
      <trkpt lat="40.3363720" lon="-3.8922960">
        <ele>676.8</ele>
        <time>2019-04-28T14:07:18Z</time>
      </trkpt>
      <trkpt lat="40.3363860" lon="-3.8922330">
        <ele>677.0</ele>
        <time>2019-04-28T14:07:19Z</time>
      </trkpt>
      <trkpt lat="40.3363990" lon="-3.8921680">
        <ele>677.2</ele>
        <time>2019-04-28T14:07:20Z</time>
      </trkpt>
      <trkpt lat="40.3364100" lon="-3.8921040">
        <ele>677.2</ele>
        <time>2019-04-28T14:07:21Z</time>
      </trkpt>
      <trkpt lat="40.3364240" lon="-3.8920430">
        <ele>677.0</ele>
        <time>2019-04-28T14:07:22Z</time>
      </trkpt>
      <trkpt lat="40.3364370" lon="-3.8919810">
        <ele>677.0</ele>
        <time>2019-04-28T14:07:23Z</time>
      </trkpt>
      <trkpt lat="40.3364470" lon="-3.8919190">
        <ele>677.2</ele>
        <time>2019-04-28T14:07:24Z</time>
      </trkpt>
      <trkpt lat="40.3364620" lon="-3.8918560">
        <ele>677.2</ele>
        <time>2019-04-28T14:07:25Z</time>
      </trkpt>
      <trkpt lat="40.3364760" lon="-3.8917930">
        <ele>677.4</ele>
        <time>2019-04-28T14:07:26Z</time>
      </trkpt>
      <trkpt lat="40.3364920" lon="-3.8917300">
        <ele>677.4</ele>
        <time>2019-04-28T14:07:27Z</time>
      </trkpt>
      <trkpt lat="40.3365130" lon="-3.8916700">
        <ele>677.4</ele>
        <time>2019-04-28T14:07:28Z</time>
      </trkpt>
      <trkpt lat="40.3365260" lon="-3.8916060">
        <ele>677.4</ele>
        <time>2019-04-28T14:07:29Z</time>
      </trkpt>
      <trkpt lat="40.3365420" lon="-3.8915410">
        <ele>677.4</ele>
        <time>2019-04-28T14:07:30Z</time>
      </trkpt>
      <trkpt lat="40.3365550" lon="-3.8914790">
        <ele>677.6</ele>
        <time>2019-04-28T14:07:31Z</time>
      </trkpt>
      <trkpt lat="40.3365640" lon="-3.8914150">
        <ele>677.6</ele>
        <time>2019-04-28T14:07:32Z</time>
      </trkpt>
      <trkpt lat="40.3365780" lon="-3.8913520">
        <ele>677.6</ele>
        <time>2019-04-28T14:07:33Z</time>
      </trkpt>
      <trkpt lat="40.3365900" lon="-3.8912880">
        <ele>677.6</ele>
        <time>2019-04-28T14:07:34Z</time>
      </trkpt>
      <trkpt lat="40.3365990" lon="-3.8912240">
        <ele>677.6</ele>
        <time>2019-04-28T14:07:35Z</time>
      </trkpt>
      <trkpt lat="40.3366100" lon="-3.8911600">
        <ele>677.8</ele>
        <time>2019-04-28T14:07:36Z</time>
      </trkpt>
      <trkpt lat="40.3366190" lon="-3.8910970">
        <ele>677.8</ele>
        <time>2019-04-28T14:07:37Z</time>
      </trkpt>
      <trkpt lat="40.3366290" lon="-3.8910350">
        <ele>677.8</ele>
        <time>2019-04-28T14:07:38Z</time>
      </trkpt>
      <trkpt lat="40.3366390" lon="-3.8909740">
        <ele>678.0</ele>
        <time>2019-04-28T14:07:39Z</time>
      </trkpt>
      <trkpt lat="40.3366470" lon="-3.8909100">
        <ele>678.0</ele>
        <time>2019-04-28T14:07:40Z</time>
      </trkpt>
      <trkpt lat="40.3366550" lon="-3.8908500">
        <ele>678.2</ele>
        <time>2019-04-28T14:07:41Z</time>
      </trkpt>
      <trkpt lat="40.3366630" lon="-3.8907850">
        <ele>678.2</ele>
        <time>2019-04-28T14:07:42Z</time>
      </trkpt>
      <trkpt lat="40.3366720" lon="-3.8907210">
        <ele>678.2</ele>
        <time>2019-04-28T14:07:43Z</time>
      </trkpt>
      <trkpt lat="40.3366800" lon="-3.8906580">
        <ele>678.4</ele>
        <time>2019-04-28T14:07:44Z</time>
      </trkpt>
      <trkpt lat="40.3366880" lon="-3.8905950">
        <ele>678.4</ele>
        <time>2019-04-28T14:07:45Z</time>
      </trkpt>
      <trkpt lat="40.3366950" lon="-3.8905330">
        <ele>678.2</ele>
        <time>2019-04-28T14:07:46Z</time>
      </trkpt>
      <trkpt lat="40.3366990" lon="-3.8904680">
        <ele>678.2</ele>
        <time>2019-04-28T14:07:47Z</time>
      </trkpt>
      <trkpt lat="40.3367050" lon="-3.8904020">
        <ele>678.2</ele>
        <time>2019-04-28T14:07:48Z</time>
      </trkpt>
      <trkpt lat="40.3367090" lon="-3.8903360">
        <ele>678.0</ele>
        <time>2019-04-28T14:07:49Z</time>
      </trkpt>
      <trkpt lat="40.3367130" lon="-3.8902710">
        <ele>678.2</ele>
        <time>2019-04-28T14:07:50Z</time>
      </trkpt>
      <trkpt lat="40.3367190" lon="-3.8902110">
        <ele>678.2</ele>
        <time>2019-04-28T14:07:51Z</time>
      </trkpt>
      <trkpt lat="40.3367300" lon="-3.8901550">
        <ele>678.4</ele>
        <time>2019-04-28T14:07:52Z</time>
      </trkpt>
      <trkpt lat="40.3367380" lon="-3.8900990">
        <ele>678.6</ele>
        <time>2019-04-28T14:07:53Z</time>
      </trkpt>
      <trkpt lat="40.3367440" lon="-3.8900410">
        <ele>678.6</ele>
        <time>2019-04-28T14:07:54Z</time>
      </trkpt>
      <trkpt lat="40.3367520" lon="-3.8899830">
        <ele>678.6</ele>
        <time>2019-04-28T14:07:55Z</time>
      </trkpt>
      <trkpt lat="40.3367570" lon="-3.8899220">
        <ele>678.6</ele>
        <time>2019-04-28T14:07:56Z</time>
      </trkpt>
      <trkpt lat="40.3367660" lon="-3.8898630">
        <ele>678.6</ele>
        <time>2019-04-28T14:07:57Z</time>
      </trkpt>
      <trkpt lat="40.3367700" lon="-3.8898040">
        <ele>678.6</ele>
        <time>2019-04-28T14:07:58Z</time>
      </trkpt>
      <trkpt lat="40.3367770" lon="-3.8897450">
        <ele>678.8</ele>
        <time>2019-04-28T14:07:59Z</time>
      </trkpt>
      <trkpt lat="40.3367830" lon="-3.8896840">
        <ele>679.0</ele>
        <time>2019-04-28T14:08:00Z</time>
      </trkpt>
      <trkpt lat="40.3367830" lon="-3.8896200">
        <ele>679.2</ele>
        <time>2019-04-28T14:08:01Z</time>
      </trkpt>
      <trkpt lat="40.3367720" lon="-3.8895580">
        <ele>679.2</ele>
        <time>2019-04-28T14:08:02Z</time>
      </trkpt>
      <trkpt lat="40.3367430" lon="-3.8895080">
        <ele>679.4</ele>
        <time>2019-04-28T14:08:03Z</time>
      </trkpt>
      <trkpt lat="40.3367070" lon="-3.8894650">
        <ele>679.6</ele>
        <time>2019-04-28T14:08:04Z</time>
      </trkpt>
      <trkpt lat="40.3366700" lon="-3.8894270">
        <ele>679.8</ele>
        <time>2019-04-28T14:08:05Z</time>
      </trkpt>
      <trkpt lat="40.3366340" lon="-3.8893830">
        <ele>680.2</ele>
        <time>2019-04-28T14:08:06Z</time>
      </trkpt>
      <trkpt lat="40.3366000" lon="-3.8893410">
        <ele>680.2</ele>
        <time>2019-04-28T14:08:07Z</time>
      </trkpt>
      <trkpt lat="40.3365660" lon="-3.8892990">
        <ele>680.4</ele>
        <time>2019-04-28T14:08:08Z</time>
      </trkpt>
      <trkpt lat="40.3365310" lon="-3.8892590">
        <ele>680.8</ele>
        <time>2019-04-28T14:08:09Z</time>
      </trkpt>
      <trkpt lat="40.3364960" lon="-3.8892180">
        <ele>681.0</ele>
        <time>2019-04-28T14:08:10Z</time>
      </trkpt>
      <trkpt lat="40.3364620" lon="-3.8891790">
        <ele>681.4</ele>
        <time>2019-04-28T14:08:11Z</time>
      </trkpt>
      <trkpt lat="40.3364290" lon="-3.8891390">
        <ele>681.6</ele>
        <time>2019-04-28T14:08:12Z</time>
      </trkpt>
      <trkpt lat="40.3363960" lon="-3.8890990">
        <ele>681.8</ele>
        <time>2019-04-28T14:08:13Z</time>
      </trkpt>
      <trkpt lat="40.3363630" lon="-3.8890600">
        <ele>682.0</ele>
        <time>2019-04-28T14:08:14Z</time>
      </trkpt>
      <trkpt lat="40.3363300" lon="-3.8890210">
        <ele>682.2</ele>
        <time>2019-04-28T14:08:15Z</time>
      </trkpt>
      <trkpt lat="40.3363000" lon="-3.8889790">
        <ele>682.4</ele>
        <time>2019-04-28T14:08:16Z</time>
      </trkpt>
      <trkpt lat="40.3362690" lon="-3.8889380">
        <ele>682.6</ele>
        <time>2019-04-28T14:08:17Z</time>
      </trkpt>
      <trkpt lat="40.3362360" lon="-3.8889000">
        <ele>682.6</ele>
        <time>2019-04-28T14:08:18Z</time>
      </trkpt>
      <trkpt lat="40.3362040" lon="-3.8888600">
        <ele>682.6</ele>
        <time>2019-04-28T14:08:19Z</time>
      </trkpt>
      <trkpt lat="40.3361690" lon="-3.8888160">
        <ele>682.6</ele>
        <time>2019-04-28T14:08:20Z</time>
      </trkpt>
      <trkpt lat="40.3361270" lon="-3.8887680">
        <ele>682.4</ele>
        <time>2019-04-28T14:08:21Z</time>
      </trkpt>
      <trkpt lat="40.3360830" lon="-3.8887170">
        <ele>682.4</ele>
        <time>2019-04-28T14:08:22Z</time>
      </trkpt>
      <trkpt lat="40.3360410" lon="-3.8886580">
        <ele>682.4</ele>
        <time>2019-04-28T14:08:23Z</time>
      </trkpt>
      <trkpt lat="40.3359980" lon="-3.8885980">
        <ele>682.2</ele>
        <time>2019-04-28T14:08:24Z</time>
      </trkpt>
      <trkpt lat="40.3359550" lon="-3.8885340">
        <ele>682.2</ele>
        <time>2019-04-28T14:08:25Z</time>
      </trkpt>
      <trkpt lat="40.3359120" lon="-3.8884690">
        <ele>682.0</ele>
        <time>2019-04-28T14:08:26Z</time>
      </trkpt>
      <trkpt lat="40.3358690" lon="-3.8884040">
        <ele>681.8</ele>
        <time>2019-04-28T14:08:27Z</time>
      </trkpt>
      <trkpt lat="40.3358260" lon="-3.8883400">
        <ele>681.8</ele>
        <time>2019-04-28T14:08:28Z</time>
      </trkpt>
      <trkpt lat="40.3357830" lon="-3.8882810">
        <ele>681.4</ele>
        <time>2019-04-28T14:08:29Z</time>
      </trkpt>
      <trkpt lat="40.3357400" lon="-3.8882170">
        <ele>681.2</ele>
        <time>2019-04-28T14:08:30Z</time>
      </trkpt>
      <trkpt lat="40.3356960" lon="-3.8881530">
        <ele>681.0</ele>
        <time>2019-04-28T14:08:31Z</time>
      </trkpt>
      <trkpt lat="40.3356530" lon="-3.8880880">
        <ele>680.6</ele>
        <time>2019-04-28T14:08:32Z</time>
      </trkpt>
      <trkpt lat="40.3356110" lon="-3.8880270">
        <ele>680.4</ele>
        <time>2019-04-28T14:08:33Z</time>
      </trkpt>
      <trkpt lat="40.3355680" lon="-3.8879640">
        <ele>680.2</ele>
        <time>2019-04-28T14:08:34Z</time>
      </trkpt>
      <trkpt lat="40.3355240" lon="-3.8878990">
        <ele>680.0</ele>
        <time>2019-04-28T14:08:35Z</time>
      </trkpt>
      <trkpt lat="40.3354790" lon="-3.8878340">
        <ele>679.6</ele>
        <time>2019-04-28T14:08:36Z</time>
      </trkpt>
      <trkpt lat="40.3354320" lon="-3.8877650">
        <ele>679.4</ele>
        <time>2019-04-28T14:08:37Z</time>
      </trkpt>
      <trkpt lat="40.3353840" lon="-3.8876940">
        <ele>679.2</ele>
        <time>2019-04-28T14:08:38Z</time>
      </trkpt>
      <trkpt lat="40.3353360" lon="-3.8876220">
        <ele>678.6</ele>
        <time>2019-04-28T14:08:39Z</time>
      </trkpt>
      <trkpt lat="40.3352880" lon="-3.8875480">
        <ele>678.4</ele>
        <time>2019-04-28T14:08:40Z</time>
      </trkpt>
      <trkpt lat="40.3352630" lon="-3.8875110">
        <ele>678.0</ele>
        <time>2019-04-28T14:08:41Z</time>
      </trkpt>
      <trkpt lat="40.3352390" lon="-3.8874750">
        <ele>677.6</ele>
        <time>2019-04-28T14:08:42Z</time>
      </trkpt>
      <trkpt lat="40.3352140" lon="-3.8874380">
        <ele>677.4</ele>
        <time>2019-04-28T14:08:43Z</time>
      </trkpt>
      <trkpt lat="40.3351890" lon="-3.8874020">
        <ele>677.0</ele>
        <time>2019-04-28T14:08:44Z</time>
      </trkpt>
      <trkpt lat="40.3351640" lon="-3.8873650">
        <ele>676.8</ele>
        <time>2019-04-28T14:08:45Z</time>
      </trkpt>
      <trkpt lat="40.3351400" lon="-3.8873290">
        <ele>676.6</ele>
        <time>2019-04-28T14:08:46Z</time>
      </trkpt>
      <trkpt lat="40.3351150" lon="-3.8872920">
        <ele>676.2</ele>
        <time>2019-04-28T14:08:47Z</time>
      </trkpt>
      <trkpt lat="40.3349420" lon="-3.8870360">
        <ele>676.0</ele>
        <time>2019-04-28T14:08:48Z</time>
      </trkpt>
      <trkpt lat="40.3348870" lon="-3.8870030">
        <ele>675.8</ele>
        <time>2019-04-28T14:08:49Z</time>
      </trkpt>
      <trkpt lat="40.3348280" lon="-3.8869750">
        <ele>675.8</ele>
        <time>2019-04-28T14:08:50Z</time>
      </trkpt>
      <trkpt lat="40.3347680" lon="-3.8869460">
        <ele>676.0</ele>
        <time>2019-04-28T14:08:51Z</time>
      </trkpt>
      <trkpt lat="40.3347070" lon="-3.8869110">
        <ele>676.0</ele>
        <time>2019-04-28T14:08:52Z</time>
      </trkpt>
      <trkpt lat="40.3346490" lon="-3.8868760">
        <ele>675.8</ele>
        <time>2019-04-28T14:08:53Z</time>
      </trkpt>
      <trkpt lat="40.3345930" lon="-3.8868300">
        <ele>675.6</ele>
        <time>2019-04-28T14:08:54Z</time>
      </trkpt>
      <trkpt lat="40.3345460" lon="-3.8867820">
        <ele>675.6</ele>
        <time>2019-04-28T14:08:55Z</time>
      </trkpt>
      <trkpt lat="40.3345050" lon="-3.8867270">
        <ele>675.4</ele>
        <time>2019-04-28T14:08:56Z</time>
      </trkpt>
      <trkpt lat="40.3344710" lon="-3.8866620">
        <ele>675.2</ele>
        <time>2019-04-28T14:08:57Z</time>
      </trkpt>
      <trkpt lat="40.3344430" lon="-3.8865800">
        <ele>675.4</ele>
        <time>2019-04-28T14:08:58Z</time>
      </trkpt>
      <trkpt lat="40.3344260" lon="-3.8864960">
        <ele>675.2</ele>
        <time>2019-04-28T14:08:59Z</time>
      </trkpt>
      <trkpt lat="40.3344140" lon="-3.8864090">
        <ele>675.0</ele>
        <time>2019-04-28T14:09:00Z</time>
      </trkpt>
      <trkpt lat="40.3344040" lon="-3.8863270">
        <ele>675.0</ele>
        <time>2019-04-28T14:09:01Z</time>
      </trkpt>
      <trkpt lat="40.3343850" lon="-3.8862500">
        <ele>674.8</ele>
        <time>2019-04-28T14:09:02Z</time>
      </trkpt>
      <trkpt lat="40.3343510" lon="-3.8861740">
        <ele>674.6</ele>
        <time>2019-04-28T14:09:03Z</time>
      </trkpt>
      <trkpt lat="40.3343040" lon="-3.8861080">
        <ele>674.6</ele>
        <time>2019-04-28T14:09:04Z</time>
      </trkpt>
      <trkpt lat="40.3342480" lon="-3.8860510">
        <ele>674.6</ele>
        <time>2019-04-28T14:09:05Z</time>
      </trkpt>
      <trkpt lat="40.3341890" lon="-3.8860010">
        <ele>674.8</ele>
        <time>2019-04-28T14:09:06Z</time>
      </trkpt>
      <trkpt lat="40.3341290" lon="-3.8859530">
        <ele>675.0</ele>
        <time>2019-04-28T14:09:07Z</time>
      </trkpt>
      <trkpt lat="40.3340700" lon="-3.8859130">
        <ele>675.2</ele>
        <time>2019-04-28T14:09:08Z</time>
      </trkpt>
      <trkpt lat="40.3340120" lon="-3.8858730">
        <ele>675.4</ele>
        <time>2019-04-28T14:09:09Z</time>
      </trkpt>
      <trkpt lat="40.3339580" lon="-3.8858440">
        <ele>675.6</ele>
        <time>2019-04-28T14:09:10Z</time>
      </trkpt>
      <trkpt lat="40.3339020" lon="-3.8858070">
        <ele>675.8</ele>
        <time>2019-04-28T14:09:11Z</time>
      </trkpt>
      <trkpt lat="40.3338450" lon="-3.8857640">
        <ele>676.0</ele>
        <time>2019-04-28T14:09:12Z</time>
      </trkpt>
      <trkpt lat="40.3337880" lon="-3.8857190">
        <ele>675.8</ele>
        <time>2019-04-28T14:09:13Z</time>
      </trkpt>
      <trkpt lat="40.3337320" lon="-3.8856790">
        <ele>676.0</ele>
        <time>2019-04-28T14:09:14Z</time>
      </trkpt>
      <trkpt lat="40.3336750" lon="-3.8856390">
        <ele>676.0</ele>
        <time>2019-04-28T14:09:15Z</time>
      </trkpt>
      <trkpt lat="40.3336190" lon="-3.8856000">
        <ele>676.2</ele>
        <time>2019-04-28T14:09:16Z</time>
      </trkpt>
      <trkpt lat="40.3335620" lon="-3.8855590">
        <ele>676.0</ele>
        <time>2019-04-28T14:09:17Z</time>
      </trkpt>
      <trkpt lat="40.3335030" lon="-3.8855180">
        <ele>675.8</ele>
        <time>2019-04-28T14:09:18Z</time>
      </trkpt>
      <trkpt lat="40.3334430" lon="-3.8854750">
        <ele>675.8</ele>
        <time>2019-04-28T14:09:19Z</time>
      </trkpt>
      <trkpt lat="40.3333820" lon="-3.8854340">
        <ele>675.6</ele>
        <time>2019-04-28T14:09:20Z</time>
      </trkpt>
      <trkpt lat="40.3333220" lon="-3.8853940">
        <ele>675.4</ele>
        <time>2019-04-28T14:09:21Z</time>
      </trkpt>
      <trkpt lat="40.3332600" lon="-3.8853500">
        <ele>675.2</ele>
        <time>2019-04-28T14:09:22Z</time>
      </trkpt>
      <trkpt lat="40.3331960" lon="-3.8853060">
        <ele>674.8</ele>
        <time>2019-04-28T14:09:23Z</time>
      </trkpt>
      <trkpt lat="40.3331320" lon="-3.8852600">
        <ele>674.4</ele>
        <time>2019-04-28T14:09:24Z</time>
      </trkpt>
      <trkpt lat="40.3330670" lon="-3.8852170">
        <ele>674.0</ele>
        <time>2019-04-28T14:09:25Z</time>
      </trkpt>
      <trkpt lat="40.3330010" lon="-3.8851770">
        <ele>673.6</ele>
        <time>2019-04-28T14:09:26Z</time>
      </trkpt>
      <trkpt lat="40.3329340" lon="-3.8851520">
        <ele>673.2</ele>
        <time>2019-04-28T14:09:27Z</time>
      </trkpt>
      <trkpt lat="40.3328660" lon="-3.8851600">
        <ele>672.6</ele>
        <time>2019-04-28T14:09:28Z</time>
      </trkpt>
      <trkpt lat="40.3327960" lon="-3.8851900">
        <ele>672.4</ele>
        <time>2019-04-28T14:09:29Z</time>
      </trkpt>
      <trkpt lat="40.3327260" lon="-3.8852330">
        <ele>671.6</ele>
        <time>2019-04-28T14:09:30Z</time>
      </trkpt>
      <trkpt lat="40.3326480" lon="-3.8852730">
        <ele>671.4</ele>
        <time>2019-04-28T14:09:31Z</time>
      </trkpt>
      <trkpt lat="40.3325600" lon="-3.8853000">
        <ele>670.6</ele>
        <time>2019-04-28T14:09:32Z</time>
      </trkpt>
      <trkpt lat="40.3324650" lon="-3.8853040">
        <ele>670.2</ele>
        <time>2019-04-28T14:09:33Z</time>
      </trkpt>
      <trkpt lat="40.3323670" lon="-3.8852840">
        <ele>669.8</ele>
        <time>2019-04-28T14:09:34Z</time>
      </trkpt>
      <trkpt lat="40.3322730" lon="-3.8852350">
        <ele>669.2</ele>
        <time>2019-04-28T14:09:35Z</time>
      </trkpt>
      <trkpt lat="40.3321920" lon="-3.8851590">
        <ele>669.2</ele>
        <time>2019-04-28T14:09:36Z</time>
      </trkpt>
      <trkpt lat="40.3321310" lon="-3.8850650">
        <ele>669.4</ele>
        <time>2019-04-28T14:09:37Z</time>
      </trkpt>
      <trkpt lat="40.3320870" lon="-3.8849640">
        <ele>669.4</ele>
        <time>2019-04-28T14:09:38Z</time>
      </trkpt>
      <trkpt lat="40.3320550" lon="-3.8848660">
        <ele>669.4</ele>
        <time>2019-04-28T14:09:39Z</time>
      </trkpt>
      <trkpt lat="40.3320330" lon="-3.8847720">
        <ele>669.4</ele>
        <time>2019-04-28T14:09:40Z</time>
      </trkpt>
      <trkpt lat="40.3320310" lon="-3.8847080">
        <ele>669.4</ele>
        <time>2019-04-28T14:09:41Z</time>
      </trkpt>
      <trkpt lat="40.3319940" lon="-3.8846280">
        <ele>669.6</ele>
        <time>2019-04-28T14:09:42Z</time>
      </trkpt>
      <trkpt lat="40.3319380" lon="-3.8845700">
        <ele>669.6</ele>
        <time>2019-04-28T14:09:43Z</time>
      </trkpt>
      <trkpt lat="40.3318780" lon="-3.8845100">
        <ele>669.6</ele>
        <time>2019-04-28T14:09:44Z</time>
      </trkpt>
      <trkpt lat="40.3318140" lon="-3.8844570">
        <ele>669.6</ele>
        <time>2019-04-28T14:09:45Z</time>
      </trkpt>
      <trkpt lat="40.3317500" lon="-3.8843950">
        <ele>670.0</ele>
        <time>2019-04-28T14:09:46Z</time>
      </trkpt>
      <trkpt lat="40.3316870" lon="-3.8843370">
        <ele>670.0</ele>
        <time>2019-04-28T14:09:47Z</time>
      </trkpt>
      <trkpt lat="40.3316220" lon="-3.8842890">
        <ele>670.0</ele>
        <time>2019-04-28T14:09:48Z</time>
      </trkpt>
      <trkpt lat="40.3315570" lon="-3.8842400">
        <ele>669.8</ele>
        <time>2019-04-28T14:09:49Z</time>
      </trkpt>
      <trkpt lat="40.3314950" lon="-3.8841940">
        <ele>669.4</ele>
        <time>2019-04-28T14:09:50Z</time>
      </trkpt>
      <trkpt lat="40.3314290" lon="-3.8841480">
        <ele>669.0</ele>
        <time>2019-04-28T14:09:51Z</time>
      </trkpt>
      <trkpt lat="40.3313610" lon="-3.8841030">
        <ele>668.4</ele>
        <time>2019-04-28T14:09:52Z</time>
      </trkpt>
      <trkpt lat="40.3312930" lon="-3.8840600">
        <ele>668.0</ele>
        <time>2019-04-28T14:09:53Z</time>
      </trkpt>
      <trkpt lat="40.3312240" lon="-3.8840150">
        <ele>667.6</ele>
        <time>2019-04-28T14:09:54Z</time>
      </trkpt>
      <trkpt lat="40.3311530" lon="-3.8839720">
        <ele>667.8</ele>
        <time>2019-04-28T14:09:55Z</time>
      </trkpt>
      <trkpt lat="40.3310860" lon="-3.8839230">
        <ele>668.0</ele>
        <time>2019-04-28T14:09:56Z</time>
      </trkpt>
      <trkpt lat="40.3310200" lon="-3.8838650">
        <ele>667.4</ele>
        <time>2019-04-28T14:09:57Z</time>
      </trkpt>
      <trkpt lat="40.3309540" lon="-3.8837970">
        <ele>666.6</ele>
        <time>2019-04-28T14:09:58Z</time>
      </trkpt>
      <trkpt lat="40.3308870" lon="-3.8837220">
        <ele>666.4</ele>
        <time>2019-04-28T14:09:59Z</time>
      </trkpt>
      <trkpt lat="40.3308210" lon="-3.8836380">
        <ele>665.8</ele>
        <time>2019-04-28T14:10:00Z</time>
      </trkpt>
      <trkpt lat="40.3307540" lon="-3.8835520">
        <ele>665.0</ele>
        <time>2019-04-28T14:10:01Z</time>
      </trkpt>
      <trkpt lat="40.3306910" lon="-3.8834730">
        <ele>664.6</ele>
        <time>2019-04-28T14:10:02Z</time>
      </trkpt>
      <trkpt lat="40.3306260" lon="-3.8833780">
        <ele>664.4</ele>
        <time>2019-04-28T14:10:03Z</time>
      </trkpt>
      <trkpt lat="40.3305550" lon="-3.8832910">
        <ele>664.0</ele>
        <time>2019-04-28T14:10:04Z</time>
      </trkpt>
      <trkpt lat="40.3305230" lon="-3.8832390">
        <ele>663.8</ele>
        <time>2019-04-28T14:10:05Z</time>
      </trkpt>
      <trkpt lat="40.3304660" lon="-3.8831490">
        <ele>663.6</ele>
        <time>2019-04-28T14:10:06Z</time>
      </trkpt>
      <trkpt lat="40.3304020" lon="-3.8830590">
        <ele>663.2</ele>
        <time>2019-04-28T14:10:07Z</time>
      </trkpt>
      <trkpt lat="40.3303350" lon="-3.8829680">
        <ele>662.8</ele>
        <time>2019-04-28T14:10:08Z</time>
      </trkpt>
      <trkpt lat="40.3302650" lon="-3.8828830">
        <ele>662.4</ele>
        <time>2019-04-28T14:10:09Z</time>
      </trkpt>
      <trkpt lat="40.3301930" lon="-3.8828070">
        <ele>662.2</ele>
        <time>2019-04-28T14:10:10Z</time>
      </trkpt>
      <trkpt lat="40.3301160" lon="-3.8827420">
        <ele>662.2</ele>
        <time>2019-04-28T14:10:11Z</time>
      </trkpt>
      <trkpt lat="40.3300410" lon="-3.8826820">
        <ele>662.0</ele>
        <time>2019-04-28T14:10:12Z</time>
      </trkpt>
      <trkpt lat="40.3299710" lon="-3.8826280">
        <ele>661.8</ele>
        <time>2019-04-28T14:10:13Z</time>
      </trkpt>
      <trkpt lat="40.3299030" lon="-3.8825750">
        <ele>661.2</ele>
        <time>2019-04-28T14:10:14Z</time>
      </trkpt>
      <trkpt lat="40.3298420" lon="-3.8825320">
        <ele>661.2</ele>
        <time>2019-04-28T14:10:15Z</time>
      </trkpt>
      <trkpt lat="40.3297840" lon="-3.8824900">
        <ele>661.0</ele>
        <time>2019-04-28T14:10:16Z</time>
      </trkpt>
      <trkpt lat="40.3297250" lon="-3.8824500">
        <ele>660.8</ele>
        <time>2019-04-28T14:10:17Z</time>
      </trkpt>
      <trkpt lat="40.3296680" lon="-3.8824170">
        <ele>660.6</ele>
        <time>2019-04-28T14:10:18Z</time>
      </trkpt>
      <trkpt lat="40.3296090" lon="-3.8823790">
        <ele>660.4</ele>
        <time>2019-04-28T14:10:19Z</time>
      </trkpt>
      <trkpt lat="40.3295500" lon="-3.8823360">
        <ele>660.4</ele>
        <time>2019-04-28T14:10:20Z</time>
      </trkpt>
      <trkpt lat="40.3294940" lon="-3.8822980">
        <ele>660.2</ele>
        <time>2019-04-28T14:10:21Z</time>
      </trkpt>
      <trkpt lat="40.3294390" lon="-3.8822740">
        <ele>660.0</ele>
        <time>2019-04-28T14:10:22Z</time>
      </trkpt>
      <trkpt lat="40.3293760" lon="-3.8822560">
        <ele>659.8</ele>
        <time>2019-04-28T14:10:23Z</time>
      </trkpt>
      <trkpt lat="40.3293150" lon="-3.8822640">
        <ele>659.8</ele>
        <time>2019-04-28T14:10:24Z</time>
      </trkpt>
      <trkpt lat="40.3292530" lon="-3.8822810">
        <ele>659.8</ele>
        <time>2019-04-28T14:10:25Z</time>
      </trkpt>
      <trkpt lat="40.3291890" lon="-3.8822880">
        <ele>659.8</ele>
        <time>2019-04-28T14:10:26Z</time>
      </trkpt>
      <trkpt lat="40.3291270" lon="-3.8823030">
        <ele>659.8</ele>
        <time>2019-04-28T14:10:27Z</time>
      </trkpt>
      <trkpt lat="40.3290650" lon="-3.8822980">
        <ele>659.8</ele>
        <time>2019-04-28T14:10:28Z</time>
      </trkpt>
      <trkpt lat="40.3290080" lon="-3.8822800">
        <ele>659.6</ele>
        <time>2019-04-28T14:10:29Z</time>
      </trkpt>
      <trkpt lat="40.3289500" lon="-3.8822640">
        <ele>659.6</ele>
        <time>2019-04-28T14:10:30Z</time>
      </trkpt>
      <trkpt lat="40.3288930" lon="-3.8822530">
        <ele>659.4</ele>
        <time>2019-04-28T14:10:31Z</time>
      </trkpt>
      <trkpt lat="40.3288340" lon="-3.8822560">
        <ele>659.4</ele>
        <time>2019-04-28T14:10:32Z</time>
      </trkpt>
      <trkpt lat="40.3287790" lon="-3.8822910">
        <ele>659.4</ele>
        <time>2019-04-28T14:10:33Z</time>
      </trkpt>
      <trkpt lat="40.3287280" lon="-3.8823210">
        <ele>659.4</ele>
        <time>2019-04-28T14:10:34Z</time>
      </trkpt>
      <trkpt lat="40.3286700" lon="-3.8823500">
        <ele>659.4</ele>
        <time>2019-04-28T14:10:35Z</time>
      </trkpt>
      <trkpt lat="40.3286150" lon="-3.8823650">
        <ele>659.2</ele>
        <time>2019-04-28T14:10:36Z</time>
      </trkpt>
      <trkpt lat="40.3285570" lon="-3.8823890">
        <ele>659.2</ele>
        <time>2019-04-28T14:10:37Z</time>
      </trkpt>
      <trkpt lat="40.3285010" lon="-3.8824170">
        <ele>659.0</ele>
        <time>2019-04-28T14:10:38Z</time>
      </trkpt>
      <trkpt lat="40.3284420" lon="-3.8824440">
        <ele>659.0</ele>
        <time>2019-04-28T14:10:39Z</time>
      </trkpt>
      <trkpt lat="40.3283880" lon="-3.8824710">
        <ele>659.0</ele>
        <time>2019-04-28T14:10:40Z</time>
      </trkpt>
      <trkpt lat="40.3283270" lon="-3.8824960">
        <ele>659.2</ele>
        <time>2019-04-28T14:10:41Z</time>
      </trkpt>
      <trkpt lat="40.3282620" lon="-3.8825200">
        <ele>659.0</ele>
        <time>2019-04-28T14:10:42Z</time>
      </trkpt>
      <trkpt lat="40.3282060" lon="-3.8825360">
        <ele>659.2</ele>
        <time>2019-04-28T14:10:43Z</time>
      </trkpt>
      <trkpt lat="40.3281450" lon="-3.8825510">
        <ele>659.2</ele>
        <time>2019-04-28T14:10:44Z</time>
      </trkpt>
      <trkpt lat="40.3280850" lon="-3.8825610">
        <ele>659.2</ele>
        <time>2019-04-28T14:10:45Z</time>
      </trkpt>
      <trkpt lat="40.3280180" lon="-3.8825760">
        <ele>659.0</ele>
        <time>2019-04-28T14:10:46Z</time>
      </trkpt>
      <trkpt lat="40.3279460" lon="-3.8825940">
        <ele>658.8</ele>
        <time>2019-04-28T14:10:47Z</time>
      </trkpt>
      <trkpt lat="40.3278720" lon="-3.8826100">
        <ele>658.6</ele>
        <time>2019-04-28T14:10:48Z</time>
      </trkpt>
      <trkpt lat="40.3278040" lon="-3.8826260">
        <ele>658.6</ele>
        <time>2019-04-28T14:10:49Z</time>
      </trkpt>
      <trkpt lat="40.3277480" lon="-3.8826450">
        <ele>659.0</ele>
        <time>2019-04-28T14:10:50Z</time>
      </trkpt>
      <trkpt lat="40.3276910" lon="-3.8826580">
        <ele>658.8</ele>
        <time>2019-04-28T14:10:51Z</time>
      </trkpt>
      <trkpt lat="40.3276280" lon="-3.8826790">
        <ele>659.0</ele>
        <time>2019-04-28T14:10:52Z</time>
      </trkpt>
      <trkpt lat="40.3275690" lon="-3.8827100">
        <ele>659.0</ele>
        <time>2019-04-28T14:10:53Z</time>
      </trkpt>
      <trkpt lat="40.3275050" lon="-3.8827420">
        <ele>659.0</ele>
        <time>2019-04-28T14:10:54Z</time>
      </trkpt>
      <trkpt lat="40.3274370" lon="-3.8827710">
        <ele>658.8</ele>
        <time>2019-04-28T14:10:55Z</time>
      </trkpt>
      <trkpt lat="40.3273710" lon="-3.8827950">
        <ele>658.8</ele>
        <time>2019-04-28T14:10:56Z</time>
      </trkpt>
      <trkpt lat="40.3273060" lon="-3.8828110">
        <ele>658.6</ele>
        <time>2019-04-28T14:10:57Z</time>
      </trkpt>
      <trkpt lat="40.3272360" lon="-3.8828270">
        <ele>658.6</ele>
        <time>2019-04-28T14:10:58Z</time>
      </trkpt>
      <trkpt lat="40.3271660" lon="-3.8828420">
        <ele>658.8</ele>
        <time>2019-04-28T14:10:59Z</time>
      </trkpt>
      <trkpt lat="40.3271000" lon="-3.8828570">
        <ele>658.8</ele>
        <time>2019-04-28T14:11:00Z</time>
      </trkpt>
      <trkpt lat="40.3270380" lon="-3.8828820">
        <ele>658.8</ele>
        <time>2019-04-28T14:11:01Z</time>
      </trkpt>
      <trkpt lat="40.3269730" lon="-3.8829030">
        <ele>658.8</ele>
        <time>2019-04-28T14:11:02Z</time>
      </trkpt>
      <trkpt lat="40.3269090" lon="-3.8829180">
        <ele>658.8</ele>
        <time>2019-04-28T14:11:03Z</time>
      </trkpt>
      <trkpt lat="40.3268430" lon="-3.8829060">
        <ele>658.8</ele>
        <time>2019-04-28T14:11:04Z</time>
      </trkpt>
      <trkpt lat="40.3267950" lon="-3.8829450">
        <ele>659.2</ele>
        <time>2019-04-28T14:11:05Z</time>
      </trkpt>
      <trkpt lat="40.3267670" lon="-3.8829440">
        <ele>659.4</ele>
        <time>2019-04-28T14:11:06Z</time>
      </trkpt>
      <trkpt lat="40.3267380" lon="-3.8829430">
        <ele>659.6</ele>
        <time>2019-04-28T14:11:07Z</time>
      </trkpt>
      <trkpt lat="40.3267100" lon="-3.8829430">
        <ele>659.8</ele>
        <time>2019-04-28T14:11:08Z</time>
      </trkpt>
      <trkpt lat="40.3266820" lon="-3.8829420">
        <ele>660.0</ele>
        <time>2019-04-28T14:11:09Z</time>
      </trkpt>
      <trkpt lat="40.3266530" lon="-3.8829410">
        <ele>660.6</ele>
        <time>2019-04-28T14:11:10Z</time>
      </trkpt>
      <trkpt lat="40.3266250" lon="-3.8829400">
        <ele>661.0</ele>
        <time>2019-04-28T14:11:11Z</time>
      </trkpt>
      <trkpt lat="40.3265960" lon="-3.8829400">
        <ele>661.2</ele>
        <time>2019-04-28T14:11:12Z</time>
      </trkpt>
      <trkpt lat="40.3265680" lon="-3.8829390">
        <ele>661.4</ele>
        <time>2019-04-28T14:11:13Z</time>
      </trkpt>
      <trkpt lat="40.3263410" lon="-3.8829340">
        <ele>661.8</ele>
        <time>2019-04-28T14:11:14Z</time>
      </trkpt>
      <trkpt lat="40.3262900" lon="-3.8829370">
        <ele>662.0</ele>
        <time>2019-04-28T14:11:15Z</time>
      </trkpt>
      <trkpt lat="40.3262420" lon="-3.8829360">
        <ele>662.4</ele>
        <time>2019-04-28T14:11:16Z</time>
      </trkpt>
      <trkpt lat="40.3261970" lon="-3.8829370">
        <ele>662.6</ele>
        <time>2019-04-28T14:11:17Z</time>
      </trkpt>
      <trkpt lat="40.3261540" lon="-3.8829410">
        <ele>663.0</ele>
        <time>2019-04-28T14:11:18Z</time>
      </trkpt>
      <trkpt lat="40.3261140" lon="-3.8829450">
        <ele>663.2</ele>
        <time>2019-04-28T14:11:19Z</time>
      </trkpt>
      <trkpt lat="40.3260790" lon="-3.8829380">
        <ele>663.4</ele>
        <time>2019-04-28T14:11:20Z</time>
      </trkpt>
      <trkpt lat="40.3260460" lon="-3.8829220">
        <ele>663.6</ele>
        <time>2019-04-28T14:11:21Z</time>
      </trkpt>
      <trkpt lat="40.3260120" lon="-3.8828780">
        <ele>663.8</ele>
        <time>2019-04-28T14:11:22Z</time>
      </trkpt>
      <trkpt lat="40.3259820" lon="-3.8828240">
        <ele>664.0</ele>
        <time>2019-04-28T14:11:23Z</time>
      </trkpt>
      <trkpt lat="40.3259720" lon="-3.8828150">
        <ele>664.0</ele>
        <time>2019-04-28T14:11:24Z</time>
      </trkpt>
      <trkpt lat="40.3259630" lon="-3.8827980">
        <ele>664.0</ele>
        <time>2019-04-28T14:11:25Z</time>
      </trkpt>
      <trkpt lat="40.3259550" lon="-3.8827900">
        <ele>664.2</ele>
        <time>2019-04-28T14:11:26Z</time>
      </trkpt>
      <trkpt lat="40.3259510" lon="-3.8827890">
        <ele>664.2</ele>
        <time>2019-04-28T14:11:27Z</time>
      </trkpt>
      <trkpt lat="40.3259440" lon="-3.8827920">
        <ele>664.2</ele>
        <time>2019-04-28T14:11:28Z</time>
      </trkpt>
      <trkpt lat="40.3259390" lon="-3.8827940">
        <ele>664.2</ele>
        <time>2019-04-28T14:11:29Z</time>
      </trkpt>
      <trkpt lat="40.3259360" lon="-3.8827850">
        <ele>664.2</ele>
        <time>2019-04-28T14:11:30Z</time>
      </trkpt>
      <trkpt lat="40.3259340" lon="-3.8827840">
        <ele>664.2</ele>
        <time>2019-04-28T14:11:31Z</time>
      </trkpt>
      <trkpt lat="40.3259340" lon="-3.8827870">
        <ele>664.2</ele>
        <time>2019-04-28T14:11:32Z</time>
      </trkpt>
      <trkpt lat="40.3259360" lon="-3.8827930">
        <ele>664.2</ele>
        <time>2019-04-28T14:11:33Z</time>
      </trkpt>
      <trkpt lat="40.3259390" lon="-3.8828000">
        <ele>664.2</ele>
        <time>2019-04-28T14:11:34Z</time>
      </trkpt>
      <trkpt lat="40.3259420" lon="-3.8828150">
        <ele>664.0</ele>
        <time>2019-04-28T14:11:35Z</time>
      </trkpt>
      <trkpt lat="40.3259420" lon="-3.8828220">
        <ele>664.0</ele>
        <time>2019-04-28T14:11:36Z</time>
      </trkpt>
      <trkpt lat="40.3259360" lon="-3.8828220">
        <ele>664.2</ele>
        <time>2019-04-28T14:11:37Z</time>
      </trkpt>
      <trkpt lat="40.3259250" lon="-3.8828270">
        <ele>664.2</ele>
        <time>2019-04-28T14:11:38Z</time>
      </trkpt>
      <trkpt lat="40.3259250" lon="-3.8828350">
        <ele>664.0</ele>
        <time>2019-04-28T14:11:39Z</time>
      </trkpt>
      <trkpt lat="40.3259290" lon="-3.8828370">
        <ele>664.2</ele>
        <time>2019-04-28T14:11:40Z</time>
      </trkpt>
      <trkpt lat="40.3259250" lon="-3.8828380">
        <ele>664.2</ele>
        <time>2019-04-28T14:11:41Z</time>
      </trkpt>
      <trkpt lat="40.3259140" lon="-3.8828420">
        <ele>664.2</ele>
        <time>2019-04-28T14:11:42Z</time>
      </trkpt>
      <trkpt lat="40.3258440" lon="-3.8829390">
        <ele>665.0</ele>
        <time>2019-04-28T14:12:12Z</time>
      </trkpt>
      <trkpt lat="40.3258420" lon="-3.8829440">
        <ele>665.0</ele>
        <time>2019-04-28T14:12:13Z</time>
      </trkpt>
      <trkpt lat="40.3258410" lon="-3.8829460">
        <ele>665.0</ele>
        <time>2019-04-28T14:12:14Z</time>
      </trkpt>
      <trkpt lat="40.3258410" lon="-3.8829480">
        <ele>665.0</ele>
        <time>2019-04-28T14:12:15Z</time>
      </trkpt>
      <trkpt lat="40.3258380" lon="-3.8829500">
        <ele>665.0</ele>
        <time>2019-04-28T14:12:16Z</time>
      </trkpt>
      <trkpt lat="40.3258370" lon="-3.8829530">
        <ele>665.0</ele>
        <time>2019-04-28T14:12:17Z</time>
      </trkpt>
      <trkpt lat="40.3258330" lon="-3.8829540">
        <ele>665.0</ele>
        <time>2019-04-28T14:12:18Z</time>
      </trkpt>
      <trkpt lat="40.3258300" lon="-3.8829560">
        <ele>665.0</ele>
        <time>2019-04-28T14:12:19Z</time>
      </trkpt>
      <trkpt lat="40.3258280" lon="-3.8829580">
        <ele>665.0</ele>
        <time>2019-04-28T14:12:20Z</time>
      </trkpt>
      <trkpt lat="40.3257340" lon="-3.8831040">
        <ele>664.6</ele>
        <time>2019-04-28T14:13:30Z</time>
      </trkpt>
      <trkpt lat="40.3257400" lon="-3.8831390">
        <ele>664.8</ele>
        <time>2019-04-28T14:13:31Z</time>
      </trkpt>
      <trkpt lat="40.3257480" lon="-3.8831810">
        <ele>664.8</ele>
        <time>2019-04-28T14:13:32Z</time>
      </trkpt>
      <trkpt lat="40.3257670" lon="-3.8832050">
        <ele>664.8</ele>
        <time>2019-04-28T14:13:33Z</time>
      </trkpt>
      <trkpt lat="40.3257830" lon="-3.8832360">
        <ele>664.8</ele>
        <time>2019-04-28T14:13:34Z</time>
      </trkpt>
      <trkpt lat="40.3258020" lon="-3.8832540">
        <ele>664.8</ele>
        <time>2019-04-28T14:13:35Z</time>
      </trkpt>
      <trkpt lat="40.3258220" lon="-3.8832630">
        <ele>664.8</ele>
        <time>2019-04-28T14:13:36Z</time>
      </trkpt>
      <trkpt lat="40.3258310" lon="-3.8832740">
        <ele>664.8</ele>
        <time>2019-04-28T14:13:37Z</time>
      </trkpt>
      <trkpt lat="40.3258320" lon="-3.8832950">
        <ele>664.6</ele>
        <time>2019-04-28T14:13:38Z</time>
      </trkpt>
      <trkpt lat="40.3258370" lon="-3.8833190">
        <ele>664.6</ele>
        <time>2019-04-28T14:13:39Z</time>
      </trkpt>
      <trkpt lat="40.3258460" lon="-3.8833380">
        <ele>664.6</ele>
        <time>2019-04-28T14:13:40Z</time>
      </trkpt>
      <trkpt lat="40.3258550" lon="-3.8833490">
        <ele>664.6</ele>
        <time>2019-04-28T14:13:41Z</time>
      </trkpt>
      <trkpt lat="40.3258430" lon="-3.8833750">
        <ele>664.6</ele>
        <time>2019-04-28T14:13:42Z</time>
      </trkpt>
      <trkpt lat="40.3258310" lon="-3.8834000">
        <ele>664.4</ele>
        <time>2019-04-28T14:13:43Z</time>
      </trkpt>
      <trkpt lat="40.3258070" lon="-3.8834530">
        <ele>664.4</ele>
        <time>2019-04-28T14:13:44Z</time>
      </trkpt>
      <trkpt lat="40.3257850" lon="-3.8834910">
        <ele>664.4</ele>
        <time>2019-04-28T14:13:45Z</time>
      </trkpt>
      <trkpt lat="40.3257640" lon="-3.8835210">
        <ele>664.4</ele>
        <time>2019-04-28T14:13:46Z</time>
      </trkpt>
      <trkpt lat="40.3257510" lon="-3.8835430">
        <ele>664.4</ele>
        <time>2019-04-28T14:13:47Z</time>
      </trkpt>
      <trkpt lat="40.3257390" lon="-3.8835640">
        <ele>664.4</ele>
        <time>2019-04-28T14:13:48Z</time>
      </trkpt>
      <trkpt lat="40.3257180" lon="-3.8835760">
        <ele>664.4</ele>
        <time>2019-04-28T14:13:49Z</time>
      </trkpt>
      <trkpt lat="40.3257130" lon="-3.8835830">
        <ele>664.4</ele>
        <time>2019-04-28T14:13:50Z</time>
      </trkpt>
      <trkpt lat="40.3257180" lon="-3.8835840">
        <ele>664.4</ele>
        <time>2019-04-28T14:13:51Z</time>
      </trkpt>
      <trkpt lat="40.3257210" lon="-3.8835860">
        <ele>664.4</ele>
        <time>2019-04-28T14:13:52Z</time>
      </trkpt>
      <trkpt lat="40.3257270" lon="-3.8835910">
        <ele>664.4</ele>
        <time>2019-04-28T14:13:53Z</time>
      </trkpt>
      <trkpt lat="40.3257520" lon="-3.8837720">
        <ele>664.4</ele>
        <time>2019-04-28T14:14:03Z</time>
      </trkpt>
      <trkpt lat="40.3257600" lon="-3.8838250">
        <ele>664.2</ele>
        <time>2019-04-28T14:14:04Z</time>
      </trkpt>
      <trkpt lat="40.3257740" lon="-3.8838620">
        <ele>664.2</ele>
        <time>2019-04-28T14:14:05Z</time>
      </trkpt>
      <trkpt lat="40.3257830" lon="-3.8839150">
        <ele>664.4</ele>
        <time>2019-04-28T14:14:06Z</time>
      </trkpt>
      <trkpt lat="40.3257870" lon="-3.8839750">
        <ele>664.4</ele>
        <time>2019-04-28T14:14:07Z</time>
      </trkpt>
      <trkpt lat="40.3257970" lon="-3.8840320">
        <ele>664.2</ele>
        <time>2019-04-28T14:14:08Z</time>
      </trkpt>
      <trkpt lat="40.3258040" lon="-3.8840980">
        <ele>664.2</ele>
        <time>2019-04-28T14:14:09Z</time>
      </trkpt>
      <trkpt lat="40.3258060" lon="-3.8841760">
        <ele>664.2</ele>
        <time>2019-04-28T14:14:10Z</time>
      </trkpt>
      <trkpt lat="40.3258090" lon="-3.8842540">
        <ele>664.2</ele>
        <time>2019-04-28T14:14:11Z</time>
      </trkpt>
      <trkpt lat="40.3258140" lon="-3.8843330">
        <ele>664.0</ele>
        <time>2019-04-28T14:14:12Z</time>
      </trkpt>
      <trkpt lat="40.3258140" lon="-3.8844180">
        <ele>663.8</ele>
        <time>2019-04-28T14:14:13Z</time>
      </trkpt>
      <trkpt lat="40.3258160" lon="-3.8844920">
        <ele>663.8</ele>
        <time>2019-04-28T14:14:14Z</time>
      </trkpt>
      <trkpt lat="40.3258240" lon="-3.8845490">
        <ele>663.8</ele>
        <time>2019-04-28T14:14:15Z</time>
      </trkpt>
      <trkpt lat="40.3258390" lon="-3.8845810">
        <ele>663.6</ele>
        <time>2019-04-28T14:14:16Z</time>
      </trkpt>
      <trkpt lat="40.3258490" lon="-3.8846510">
        <ele>663.6</ele>
        <time>2019-04-28T14:14:17Z</time>
      </trkpt>
      <trkpt lat="40.3258660" lon="-3.8847220">
        <ele>663.6</ele>
        <time>2019-04-28T14:14:18Z</time>
      </trkpt>
      <trkpt lat="40.3258730" lon="-3.8847860">
        <ele>663.6</ele>
        <time>2019-04-28T14:14:19Z</time>
      </trkpt>
      <trkpt lat="40.3258800" lon="-3.8848670">
        <ele>663.4</ele>
        <time>2019-04-28T14:14:20Z</time>
      </trkpt>
      <trkpt lat="40.3258860" lon="-3.8849510">
        <ele>663.4</ele>
        <time>2019-04-28T14:14:21Z</time>
      </trkpt>
      <trkpt lat="40.3258990" lon="-3.8850310">
        <ele>663.4</ele>
        <time>2019-04-28T14:14:22Z</time>
      </trkpt>
      <trkpt lat="40.3259090" lon="-3.8851120">
        <ele>663.2</ele>
        <time>2019-04-28T14:14:23Z</time>
      </trkpt>
      <trkpt lat="40.3259040" lon="-3.8851960">
        <ele>663.0</ele>
        <time>2019-04-28T14:14:24Z</time>
      </trkpt>
      <trkpt lat="40.3259140" lon="-3.8852600">
        <ele>662.8</ele>
        <time>2019-04-28T14:14:25Z</time>
      </trkpt>
      <trkpt lat="40.3259300" lon="-3.8853170">
        <ele>662.8</ele>
        <time>2019-04-28T14:14:26Z</time>
      </trkpt>
      <trkpt lat="40.3259220" lon="-3.8854020">
        <ele>662.8</ele>
        <time>2019-04-28T14:14:27Z</time>
      </trkpt>
      <trkpt lat="40.3259140" lon="-3.8854920">
        <ele>662.6</ele>
        <time>2019-04-28T14:14:28Z</time>
      </trkpt>
      <trkpt lat="40.3258990" lon="-3.8855870">
        <ele>662.6</ele>
        <time>2019-04-28T14:14:29Z</time>
      </trkpt>
      <trkpt lat="40.3258880" lon="-3.8856740">
        <ele>662.4</ele>
        <time>2019-04-28T14:14:30Z</time>
      </trkpt>
      <trkpt lat="40.3258780" lon="-3.8857600">
        <ele>662.4</ele>
        <time>2019-04-28T14:14:31Z</time>
      </trkpt>
      <trkpt lat="40.3258690" lon="-3.8858440">
        <ele>662.4</ele>
        <time>2019-04-28T14:14:32Z</time>
      </trkpt>
      <trkpt lat="40.3258610" lon="-3.8859210">
        <ele>662.2</ele>
        <time>2019-04-28T14:14:33Z</time>
      </trkpt>
      <trkpt lat="40.3258560" lon="-3.8859820">
        <ele>661.8</ele>
        <time>2019-04-28T14:14:34Z</time>
      </trkpt>
      <trkpt lat="40.3258460" lon="-3.8860690">
        <ele>661.4</ele>
        <time>2019-04-28T14:14:35Z</time>
      </trkpt>
      <trkpt lat="40.3258340" lon="-3.8861670">
        <ele>661.2</ele>
        <time>2019-04-28T14:14:36Z</time>
      </trkpt>
      <trkpt lat="40.3258220" lon="-3.8862640">
        <ele>661.0</ele>
        <time>2019-04-28T14:14:37Z</time>
      </trkpt>
      <trkpt lat="40.3258090" lon="-3.8863630">
        <ele>660.8</ele>
        <time>2019-04-28T14:14:38Z</time>
      </trkpt>
      <trkpt lat="40.3257980" lon="-3.8864560">
        <ele>660.4</ele>
        <time>2019-04-28T14:14:39Z</time>
      </trkpt>
      <trkpt lat="40.3257830" lon="-3.8865360">
        <ele>660.2</ele>
        <time>2019-04-28T14:14:40Z</time>
      </trkpt>
      <trkpt lat="40.3257620" lon="-3.8866120">
        <ele>660.0</ele>
        <time>2019-04-28T14:14:41Z</time>
      </trkpt>
      <trkpt lat="40.3257400" lon="-3.8866820">
        <ele>659.6</ele>
        <time>2019-04-28T14:14:42Z</time>
      </trkpt>
      <trkpt lat="40.3257160" lon="-3.8867270">
        <ele>659.6</ele>
        <time>2019-04-28T14:14:43Z</time>
      </trkpt>
      <trkpt lat="40.3256870" lon="-3.8867640">
        <ele>659.6</ele>
        <time>2019-04-28T14:14:44Z</time>
      </trkpt>
      <trkpt lat="40.3256600" lon="-3.8867930">
        <ele>659.6</ele>
        <time>2019-04-28T14:14:45Z</time>
      </trkpt>
      <trkpt lat="40.3256270" lon="-3.8868140">
        <ele>659.6</ele>
        <time>2019-04-28T14:14:46Z</time>
      </trkpt>
      <trkpt lat="40.3255950" lon="-3.8868390">
        <ele>659.4</ele>
        <time>2019-04-28T14:14:47Z</time>
      </trkpt>
      <trkpt lat="40.3255510" lon="-3.8868580">
        <ele>659.0</ele>
        <time>2019-04-28T14:14:48Z</time>
      </trkpt>
      <trkpt lat="40.3254950" lon="-3.8868610">
        <ele>659.0</ele>
        <time>2019-04-28T14:14:49Z</time>
      </trkpt>
      <trkpt lat="40.3254450" lon="-3.8868590">
        <ele>658.6</ele>
        <time>2019-04-28T14:14:50Z</time>
      </trkpt>
      <trkpt lat="40.3253940" lon="-3.8868540">
        <ele>658.4</ele>
        <time>2019-04-28T14:14:51Z</time>
      </trkpt>
      <trkpt lat="40.3253420" lon="-3.8868440">
        <ele>658.2</ele>
        <time>2019-04-28T14:14:52Z</time>
      </trkpt>
      <trkpt lat="40.3252890" lon="-3.8868290">
        <ele>657.8</ele>
        <time>2019-04-28T14:14:53Z</time>
      </trkpt>
      <trkpt lat="40.3252340" lon="-3.8868130">
        <ele>657.6</ele>
        <time>2019-04-28T14:14:54Z</time>
      </trkpt>
      <trkpt lat="40.3251750" lon="-3.8868020">
        <ele>657.6</ele>
        <time>2019-04-28T14:14:55Z</time>
      </trkpt>
      <trkpt lat="40.3251170" lon="-3.8867970">
        <ele>657.6</ele>
        <time>2019-04-28T14:14:56Z</time>
      </trkpt>
      <trkpt lat="40.3250590" lon="-3.8867960">
        <ele>657.2</ele>
        <time>2019-04-28T14:14:57Z</time>
      </trkpt>
      <trkpt lat="40.3249990" lon="-3.8868000">
        <ele>657.2</ele>
        <time>2019-04-28T14:14:58Z</time>
      </trkpt>
      <trkpt lat="40.3249420" lon="-3.8868070">
        <ele>657.2</ele>
        <time>2019-04-28T14:14:59Z</time>
      </trkpt>
      <trkpt lat="40.3248870" lon="-3.8868070">
        <ele>657.0</ele>
        <time>2019-04-28T14:15:00Z</time>
      </trkpt>
      <trkpt lat="40.3248340" lon="-3.8867910">
        <ele>656.8</ele>
        <time>2019-04-28T14:15:01Z</time>
      </trkpt>
      <trkpt lat="40.3247910" lon="-3.8867560">
        <ele>657.0</ele>
        <time>2019-04-28T14:15:02Z</time>
      </trkpt>
      <trkpt lat="40.3247550" lon="-3.8867050">
        <ele>657.0</ele>
        <time>2019-04-28T14:15:03Z</time>
      </trkpt>
      <trkpt lat="40.3247080" lon="-3.8866650">
        <ele>656.8</ele>
        <time>2019-04-28T14:15:04Z</time>
      </trkpt>
      <trkpt lat="40.3246530" lon="-3.8866430">
        <ele>657.0</ele>
        <time>2019-04-28T14:15:05Z</time>
      </trkpt>
      <trkpt lat="40.3245950" lon="-3.8866220">
        <ele>657.0</ele>
        <time>2019-04-28T14:15:06Z</time>
      </trkpt>
      <trkpt lat="40.3245410" lon="-3.8865930">
        <ele>656.8</ele>
        <time>2019-04-28T14:15:07Z</time>
      </trkpt>
      <trkpt lat="40.3244850" lon="-3.8865680">
        <ele>656.8</ele>
        <time>2019-04-28T14:15:08Z</time>
      </trkpt>
      <trkpt lat="40.3244270" lon="-3.8865520">
        <ele>656.8</ele>
        <time>2019-04-28T14:15:09Z</time>
      </trkpt>
      <trkpt lat="40.3243690" lon="-3.8865310">
        <ele>656.8</ele>
        <time>2019-04-28T14:15:10Z</time>
      </trkpt>
      <trkpt lat="40.3243130" lon="-3.8865040">
        <ele>657.0</ele>
        <time>2019-04-28T14:15:11Z</time>
      </trkpt>
      <trkpt lat="40.3242590" lon="-3.8864720">
        <ele>657.0</ele>
        <time>2019-04-28T14:15:12Z</time>
      </trkpt>
      <trkpt lat="40.3242090" lon="-3.8864360">
        <ele>657.2</ele>
        <time>2019-04-28T14:15:13Z</time>
      </trkpt>
      <trkpt lat="40.3241660" lon="-3.8863910">
        <ele>657.4</ele>
        <time>2019-04-28T14:15:14Z</time>
      </trkpt>
      <trkpt lat="40.3241260" lon="-3.8863390">
        <ele>657.2</ele>
        <time>2019-04-28T14:15:15Z</time>
      </trkpt>
      <trkpt lat="40.3240860" lon="-3.8862850">
        <ele>657.4</ele>
        <time>2019-04-28T14:15:16Z</time>
      </trkpt>
      <trkpt lat="40.3240500" lon="-3.8862280">
        <ele>657.4</ele>
        <time>2019-04-28T14:15:17Z</time>
      </trkpt>
      <trkpt lat="40.3240190" lon="-3.8861640">
        <ele>657.6</ele>
        <time>2019-04-28T14:15:18Z</time>
      </trkpt>
      <trkpt lat="40.3239930" lon="-3.8860960">
        <ele>657.6</ele>
        <time>2019-04-28T14:15:19Z</time>
      </trkpt>
      <trkpt lat="40.3239660" lon="-3.8860320">
        <ele>657.6</ele>
        <time>2019-04-28T14:15:20Z</time>
      </trkpt>
      <trkpt lat="40.3239380" lon="-3.8859710">
        <ele>657.4</ele>
        <time>2019-04-28T14:15:21Z</time>
      </trkpt>
      <trkpt lat="40.3239110" lon="-3.8859130">
        <ele>657.6</ele>
        <time>2019-04-28T14:15:22Z</time>
      </trkpt>
      <trkpt lat="40.3238830" lon="-3.8858580">
        <ele>657.6</ele>
        <time>2019-04-28T14:15:23Z</time>
      </trkpt>
      <trkpt lat="40.3238540" lon="-3.8858050">
        <ele>657.6</ele>
        <time>2019-04-28T14:15:24Z</time>
      </trkpt>
      <trkpt lat="40.3238260" lon="-3.8857540">
        <ele>657.6</ele>
        <time>2019-04-28T14:15:25Z</time>
      </trkpt>
      <trkpt lat="40.3238020" lon="-3.8857020">
        <ele>657.8</ele>
        <time>2019-04-28T14:15:26Z</time>
      </trkpt>
      <trkpt lat="40.3237780" lon="-3.8856540">
        <ele>658.0</ele>
        <time>2019-04-28T14:15:27Z</time>
      </trkpt>
      <trkpt lat="40.3237560" lon="-3.8856080">
        <ele>658.4</ele>
        <time>2019-04-28T14:15:28Z</time>
      </trkpt>
      <trkpt lat="40.3237350" lon="-3.8855660">
        <ele>658.4</ele>
        <time>2019-04-28T14:15:29Z</time>
      </trkpt>
      <trkpt lat="40.3237090" lon="-3.8855300">
        <ele>658.2</ele>
        <time>2019-04-28T14:15:30Z</time>
      </trkpt>
      <trkpt lat="40.3236780" lon="-3.8855020">
        <ele>658.2</ele>
        <time>2019-04-28T14:15:31Z</time>
      </trkpt>
      <trkpt lat="40.3236440" lon="-3.8854730">
        <ele>658.4</ele>
        <time>2019-04-28T14:15:32Z</time>
      </trkpt>
      <trkpt lat="40.3236100" lon="-3.8854440">
        <ele>658.6</ele>
        <time>2019-04-28T14:15:33Z</time>
      </trkpt>
      <trkpt lat="40.3235760" lon="-3.8854070">
        <ele>658.8</ele>
        <time>2019-04-28T14:15:34Z</time>
      </trkpt>
      <trkpt lat="40.3235410" lon="-3.8853660">
        <ele>658.8</ele>
        <time>2019-04-28T14:15:35Z</time>
      </trkpt>
      <trkpt lat="40.3235050" lon="-3.8853200">
        <ele>658.8</ele>
        <time>2019-04-28T14:15:36Z</time>
      </trkpt>
      <trkpt lat="40.3234680" lon="-3.8852750">
        <ele>658.8</ele>
        <time>2019-04-28T14:15:37Z</time>
      </trkpt>
      <trkpt lat="40.3234300" lon="-3.8852300">
        <ele>659.0</ele>
        <time>2019-04-28T14:15:38Z</time>
      </trkpt>
      <trkpt lat="40.3233910" lon="-3.8851870">
        <ele>659.0</ele>
        <time>2019-04-28T14:15:39Z</time>
      </trkpt>
      <trkpt lat="40.3233520" lon="-3.8851450">
        <ele>659.0</ele>
        <time>2019-04-28T14:15:40Z</time>
      </trkpt>
      <trkpt lat="40.3233140" lon="-3.8851120">
        <ele>659.2</ele>
        <time>2019-04-28T14:15:41Z</time>
      </trkpt>
      <trkpt lat="40.3232730" lon="-3.8850760">
        <ele>659.4</ele>
        <time>2019-04-28T14:15:42Z</time>
      </trkpt>
      <trkpt lat="40.3232310" lon="-3.8850480">
        <ele>659.4</ele>
        <time>2019-04-28T14:15:43Z</time>
      </trkpt>
      <trkpt lat="40.3231880" lon="-3.8850250">
        <ele>659.4</ele>
        <time>2019-04-28T14:15:44Z</time>
      </trkpt>
      <trkpt lat="40.3231480" lon="-3.8850030">
        <ele>659.4</ele>
        <time>2019-04-28T14:15:45Z</time>
      </trkpt>
      <trkpt lat="40.3231070" lon="-3.8849800">
        <ele>659.2</ele>
        <time>2019-04-28T14:15:46Z</time>
      </trkpt>
      <trkpt lat="40.3230660" lon="-3.8849550">
        <ele>659.2</ele>
        <time>2019-04-28T14:15:47Z</time>
      </trkpt>
      <trkpt lat="40.3230320" lon="-3.8849300">
        <ele>659.4</ele>
        <time>2019-04-28T14:15:48Z</time>
      </trkpt>
      <trkpt lat="40.3229970" lon="-3.8849010">
        <ele>659.4</ele>
        <time>2019-04-28T14:15:49Z</time>
      </trkpt>
      <trkpt lat="40.3229590" lon="-3.8848660">
        <ele>659.4</ele>
        <time>2019-04-28T14:15:50Z</time>
      </trkpt>
      <trkpt lat="40.3229190" lon="-3.8848320">
        <ele>659.6</ele>
        <time>2019-04-28T14:15:51Z</time>
      </trkpt>
      <trkpt lat="40.3228740" lon="-3.8848030">
        <ele>659.6</ele>
        <time>2019-04-28T14:15:52Z</time>
      </trkpt>
      <trkpt lat="40.3228300" lon="-3.8847730">
        <ele>659.6</ele>
        <time>2019-04-28T14:15:53Z</time>
      </trkpt>
      <trkpt lat="40.3227870" lon="-3.8847410">
        <ele>659.8</ele>
        <time>2019-04-28T14:15:54Z</time>
      </trkpt>
      <trkpt lat="40.3227420" lon="-3.8847120">
        <ele>659.8</ele>
        <time>2019-04-28T14:15:55Z</time>
      </trkpt>
      <trkpt lat="40.3226950" lon="-3.8846910">
        <ele>659.6</ele>
        <time>2019-04-28T14:15:56Z</time>
      </trkpt>
      <trkpt lat="40.3226460" lon="-3.8846740">
        <ele>659.6</ele>
        <time>2019-04-28T14:15:57Z</time>
      </trkpt>
      <trkpt lat="40.3226000" lon="-3.8846530">
        <ele>659.8</ele>
        <time>2019-04-28T14:15:58Z</time>
      </trkpt>
      <trkpt lat="40.3225530" lon="-3.8846290">
        <ele>660.0</ele>
        <time>2019-04-28T14:15:59Z</time>
      </trkpt>
      <trkpt lat="40.3225070" lon="-3.8846060">
        <ele>660.2</ele>
        <time>2019-04-28T14:16:00Z</time>
      </trkpt>
      <trkpt lat="40.3224620" lon="-3.8845800">
        <ele>660.2</ele>
        <time>2019-04-28T14:16:01Z</time>
      </trkpt>
      <trkpt lat="40.3224170" lon="-3.8845530">
        <ele>660.4</ele>
        <time>2019-04-28T14:16:02Z</time>
      </trkpt>
      <trkpt lat="40.3223710" lon="-3.8845210">
        <ele>660.2</ele>
        <time>2019-04-28T14:16:03Z</time>
      </trkpt>
      <trkpt lat="40.3223260" lon="-3.8844910">
        <ele>660.4</ele>
        <time>2019-04-28T14:16:04Z</time>
      </trkpt>
      <trkpt lat="40.3222820" lon="-3.8844620">
        <ele>660.4</ele>
        <time>2019-04-28T14:16:05Z</time>
      </trkpt>
      <trkpt lat="40.3222370" lon="-3.8844370">
        <ele>660.4</ele>
        <time>2019-04-28T14:16:06Z</time>
      </trkpt>
      <trkpt lat="40.3221930" lon="-3.8844110">
        <ele>660.4</ele>
        <time>2019-04-28T14:16:07Z</time>
      </trkpt>
      <trkpt lat="40.3221480" lon="-3.8843860">
        <ele>660.4</ele>
        <time>2019-04-28T14:16:08Z</time>
      </trkpt>
      <trkpt lat="40.3221040" lon="-3.8843580">
        <ele>660.4</ele>
        <time>2019-04-28T14:16:09Z</time>
      </trkpt>
      <trkpt lat="40.3220610" lon="-3.8843250">
        <ele>660.6</ele>
        <time>2019-04-28T14:16:10Z</time>
      </trkpt>
      <trkpt lat="40.3220200" lon="-3.8842890">
        <ele>660.6</ele>
        <time>2019-04-28T14:16:11Z</time>
      </trkpt>
      <trkpt lat="40.3219780" lon="-3.8842510">
        <ele>660.4</ele>
        <time>2019-04-28T14:16:12Z</time>
      </trkpt>
      <trkpt lat="40.3219390" lon="-3.8842100">
        <ele>660.6</ele>
        <time>2019-04-28T14:16:13Z</time>
      </trkpt>
      <trkpt lat="40.3218990" lon="-3.8841710">
        <ele>660.6</ele>
        <time>2019-04-28T14:16:14Z</time>
      </trkpt>
      <trkpt lat="40.3218590" lon="-3.8841310">
        <ele>660.8</ele>
        <time>2019-04-28T14:16:15Z</time>
      </trkpt>
      <trkpt lat="40.3218200" lon="-3.8840930">
        <ele>660.8</ele>
        <time>2019-04-28T14:16:16Z</time>
      </trkpt>
      <trkpt lat="40.3217810" lon="-3.8840560">
        <ele>661.0</ele>
        <time>2019-04-28T14:16:17Z</time>
      </trkpt>
      <trkpt lat="40.3217430" lon="-3.8840180">
        <ele>661.2</ele>
        <time>2019-04-28T14:16:18Z</time>
      </trkpt>
      <trkpt lat="40.3217050" lon="-3.8839830">
        <ele>661.2</ele>
        <time>2019-04-28T14:16:19Z</time>
      </trkpt>
      <trkpt lat="40.3216670" lon="-3.8839480">
        <ele>661.6</ele>
        <time>2019-04-28T14:16:20Z</time>
      </trkpt>
      <trkpt lat="40.3216290" lon="-3.8839140">
        <ele>662.0</ele>
        <time>2019-04-28T14:16:21Z</time>
      </trkpt>
      <trkpt lat="40.3215900" lon="-3.8838790">
        <ele>662.2</ele>
        <time>2019-04-28T14:16:22Z</time>
      </trkpt>
      <trkpt lat="40.3215510" lon="-3.8838430">
        <ele>662.0</ele>
        <time>2019-04-28T14:16:23Z</time>
      </trkpt>
      <trkpt lat="40.3215100" lon="-3.8838030">
        <ele>662.2</ele>
        <time>2019-04-28T14:16:24Z</time>
      </trkpt>
      <trkpt lat="40.3214710" lon="-3.8837640">
        <ele>662.2</ele>
        <time>2019-04-28T14:16:25Z</time>
      </trkpt>
      <trkpt lat="40.3214330" lon="-3.8837260">
        <ele>662.4</ele>
        <time>2019-04-28T14:16:26Z</time>
      </trkpt>
      <trkpt lat="40.3213920" lon="-3.8836880">
        <ele>662.4</ele>
        <time>2019-04-28T14:16:27Z</time>
      </trkpt>
      <trkpt lat="40.3213520" lon="-3.8836500">
        <ele>662.4</ele>
        <time>2019-04-28T14:16:28Z</time>
      </trkpt>
      <trkpt lat="40.3213100" lon="-3.8836120">
        <ele>662.2</ele>
        <time>2019-04-28T14:16:29Z</time>
      </trkpt>
      <trkpt lat="40.3212710" lon="-3.8835720">
        <ele>662.0</ele>
        <time>2019-04-28T14:16:30Z</time>
      </trkpt>
      <trkpt lat="40.3212330" lon="-3.8835290">
        <ele>662.2</ele>
        <time>2019-04-28T14:16:31Z</time>
      </trkpt>
      <trkpt lat="40.3211940" lon="-3.8834860">
        <ele>662.0</ele>
        <time>2019-04-28T14:16:32Z</time>
      </trkpt>
      <trkpt lat="40.3211530" lon="-3.8834450">
        <ele>662.0</ele>
        <time>2019-04-28T14:16:33Z</time>
      </trkpt>
      <trkpt lat="40.3211100" lon="-3.8834070">
        <ele>662.0</ele>
        <time>2019-04-28T14:16:34Z</time>
      </trkpt>
      <trkpt lat="40.3210670" lon="-3.8833680">
        <ele>662.0</ele>
        <time>2019-04-28T14:16:35Z</time>
      </trkpt>
      <trkpt lat="40.3210240" lon="-3.8833280">
        <ele>662.2</ele>
        <time>2019-04-28T14:16:36Z</time>
      </trkpt>
      <trkpt lat="40.3209820" lon="-3.8832880">
        <ele>662.4</ele>
        <time>2019-04-28T14:16:37Z</time>
      </trkpt>
      <trkpt lat="40.3209400" lon="-3.8832480">
        <ele>662.4</ele>
        <time>2019-04-28T14:16:38Z</time>
      </trkpt>
      <trkpt lat="40.3209000" lon="-3.8832080">
        <ele>662.8</ele>
        <time>2019-04-28T14:16:39Z</time>
      </trkpt>
      <trkpt lat="40.3208600" lon="-3.8831690">
        <ele>663.0</ele>
        <time>2019-04-28T14:16:40Z</time>
      </trkpt>
      <trkpt lat="40.3208210" lon="-3.8831330">
        <ele>663.0</ele>
        <time>2019-04-28T14:16:41Z</time>
      </trkpt>
      <trkpt lat="40.3207840" lon="-3.8830980">
        <ele>663.2</ele>
        <time>2019-04-28T14:16:42Z</time>
      </trkpt>
      <trkpt lat="40.3207450" lon="-3.8830660">
        <ele>663.4</ele>
        <time>2019-04-28T14:16:43Z</time>
      </trkpt>
      <trkpt lat="40.3207040" lon="-3.8830340">
        <ele>663.2</ele>
        <time>2019-04-28T14:16:44Z</time>
      </trkpt>
      <trkpt lat="40.3206650" lon="-3.8830030">
        <ele>663.4</ele>
        <time>2019-04-28T14:16:45Z</time>
      </trkpt>
      <trkpt lat="40.3206250" lon="-3.8829690">
        <ele>663.4</ele>
        <time>2019-04-28T14:16:46Z</time>
      </trkpt>
      <trkpt lat="40.3205860" lon="-3.8829330">
        <ele>663.4</ele>
        <time>2019-04-28T14:16:47Z</time>
      </trkpt>
      <trkpt lat="40.3205470" lon="-3.8828990">
        <ele>663.6</ele>
        <time>2019-04-28T14:16:48Z</time>
      </trkpt>
      <trkpt lat="40.3205070" lon="-3.8828660">
        <ele>664.0</ele>
        <time>2019-04-28T14:16:49Z</time>
      </trkpt>
      <trkpt lat="40.3204670" lon="-3.8828380">
        <ele>664.2</ele>
        <time>2019-04-28T14:16:50Z</time>
      </trkpt>
      <trkpt lat="40.3204290" lon="-3.8828050">
        <ele>664.2</ele>
        <time>2019-04-28T14:16:51Z</time>
      </trkpt>
      <trkpt lat="40.3203940" lon="-3.8827660">
        <ele>664.4</ele>
        <time>2019-04-28T14:16:52Z</time>
      </trkpt>
      <trkpt lat="40.3203580" lon="-3.8827240">
        <ele>664.4</ele>
        <time>2019-04-28T14:16:53Z</time>
      </trkpt>
      <trkpt lat="40.3203210" lon="-3.8826820">
        <ele>664.6</ele>
        <time>2019-04-28T14:16:54Z</time>
      </trkpt>
      <trkpt lat="40.3202830" lon="-3.8826420">
        <ele>664.6</ele>
        <time>2019-04-28T14:16:55Z</time>
      </trkpt>
      <trkpt lat="40.3202460" lon="-3.8826020">
        <ele>664.6</ele>
        <time>2019-04-28T14:16:56Z</time>
      </trkpt>
      <trkpt lat="40.3202100" lon="-3.8825620">
        <ele>664.8</ele>
        <time>2019-04-28T14:16:57Z</time>
      </trkpt>
      <trkpt lat="40.3201730" lon="-3.8825210">
        <ele>664.8</ele>
        <time>2019-04-28T14:16:58Z</time>
      </trkpt>
      <trkpt lat="40.3201370" lon="-3.8824790">
        <ele>665.0</ele>
        <time>2019-04-28T14:16:59Z</time>
      </trkpt>
      <trkpt lat="40.3201010" lon="-3.8824410">
        <ele>665.2</ele>
        <time>2019-04-28T14:17:00Z</time>
      </trkpt>
      <trkpt lat="40.3200630" lon="-3.8824050">
        <ele>665.4</ele>
        <time>2019-04-28T14:17:01Z</time>
      </trkpt>
      <trkpt lat="40.3200250" lon="-3.8823700">
        <ele>665.8</ele>
        <time>2019-04-28T14:17:02Z</time>
      </trkpt>
      <trkpt lat="40.3199880" lon="-3.8823360">
        <ele>666.0</ele>
        <time>2019-04-28T14:17:03Z</time>
      </trkpt>
      <trkpt lat="40.3199540" lon="-3.8822970">
        <ele>666.0</ele>
        <time>2019-04-28T14:17:04Z</time>
      </trkpt>
      <trkpt lat="40.3199230" lon="-3.8822530">
        <ele>666.4</ele>
        <time>2019-04-28T14:17:05Z</time>
      </trkpt>
      <trkpt lat="40.3198950" lon="-3.8822080">
        <ele>666.4</ele>
        <time>2019-04-28T14:17:06Z</time>
      </trkpt>
      <trkpt lat="40.3198680" lon="-3.8821620">
        <ele>666.6</ele>
        <time>2019-04-28T14:17:07Z</time>
      </trkpt>
      <trkpt lat="40.3198420" lon="-3.8821140">
        <ele>666.8</ele>
        <time>2019-04-28T14:17:08Z</time>
      </trkpt>
      <trkpt lat="40.3198140" lon="-3.8820670">
        <ele>667.0</ele>
        <time>2019-04-28T14:17:09Z</time>
      </trkpt>
      <trkpt lat="40.3197860" lon="-3.8820200">
        <ele>667.4</ele>
        <time>2019-04-28T14:17:10Z</time>
      </trkpt>
      <trkpt lat="40.3197570" lon="-3.8819740">
        <ele>667.6</ele>
        <time>2019-04-28T14:17:11Z</time>
      </trkpt>
      <trkpt lat="40.3197260" lon="-3.8819290">
        <ele>667.8</ele>
        <time>2019-04-28T14:17:12Z</time>
      </trkpt>
      <trkpt lat="40.3196950" lon="-3.8818850">
        <ele>667.8</ele>
        <time>2019-04-28T14:17:13Z</time>
      </trkpt>
      <trkpt lat="40.3196630" lon="-3.8818440">
        <ele>668.0</ele>
        <time>2019-04-28T14:17:14Z</time>
      </trkpt>
      <trkpt lat="40.3196310" lon="-3.8818010">
        <ele>668.2</ele>
        <time>2019-04-28T14:17:15Z</time>
      </trkpt>
      <trkpt lat="40.3195950" lon="-3.8817630">
        <ele>668.4</ele>
        <time>2019-04-28T14:17:16Z</time>
      </trkpt>
      <trkpt lat="40.3195560" lon="-3.8817330">
        <ele>668.8</ele>
        <time>2019-04-28T14:17:17Z</time>
      </trkpt>
      <trkpt lat="40.3195150" lon="-3.8817110">
        <ele>669.2</ele>
        <time>2019-04-28T14:17:18Z</time>
      </trkpt>
      <trkpt lat="40.3194780" lon="-3.8816870">
        <ele>669.4</ele>
        <time>2019-04-28T14:17:19Z</time>
      </trkpt>
      <trkpt lat="40.3194440" lon="-3.8816600">
        <ele>669.6</ele>
        <time>2019-04-28T14:17:20Z</time>
      </trkpt>
      <trkpt lat="40.3194140" lon="-3.8816270">
        <ele>670.0</ele>
        <time>2019-04-28T14:17:21Z</time>
      </trkpt>
      <trkpt lat="40.3193880" lon="-3.8815890">
        <ele>670.0</ele>
        <time>2019-04-28T14:17:22Z</time>
      </trkpt>
      <trkpt lat="40.3193620" lon="-3.8815490">
        <ele>670.0</ele>
        <time>2019-04-28T14:17:23Z</time>
      </trkpt>
      <trkpt lat="40.3193390" lon="-3.8815050">
        <ele>670.0</ele>
        <time>2019-04-28T14:17:24Z</time>
      </trkpt>
      <trkpt lat="40.3193140" lon="-3.8814590">
        <ele>670.2</ele>
        <time>2019-04-28T14:17:25Z</time>
      </trkpt>
      <trkpt lat="40.3192910" lon="-3.8814110">
        <ele>670.2</ele>
        <time>2019-04-28T14:17:26Z</time>
      </trkpt>
      <trkpt lat="40.3192690" lon="-3.8813590">
        <ele>670.2</ele>
        <time>2019-04-28T14:17:27Z</time>
      </trkpt>
      <trkpt lat="40.3192460" lon="-3.8813070">
        <ele>670.4</ele>
        <time>2019-04-28T14:17:28Z</time>
      </trkpt>
      <trkpt lat="40.3192220" lon="-3.8812560">
        <ele>670.6</ele>
        <time>2019-04-28T14:17:29Z</time>
      </trkpt>
      <trkpt lat="40.3192010" lon="-3.8812040">
        <ele>670.6</ele>
        <time>2019-04-28T14:17:30Z</time>
      </trkpt>
      <trkpt lat="40.3191790" lon="-3.8811530">
        <ele>670.8</ele>
        <time>2019-04-28T14:17:31Z</time>
      </trkpt>
      <trkpt lat="40.3191570" lon="-3.8811010">
        <ele>670.8</ele>
        <time>2019-04-28T14:17:32Z</time>
      </trkpt>
      <trkpt lat="40.3191340" lon="-3.8810510">
        <ele>670.8</ele>
        <time>2019-04-28T14:17:33Z</time>
      </trkpt>
      <trkpt lat="40.3191110" lon="-3.8810040">
        <ele>670.8</ele>
        <time>2019-04-28T14:17:34Z</time>
      </trkpt>
      <trkpt lat="40.3190850" lon="-3.8809550">
        <ele>671.0</ele>
        <time>2019-04-28T14:17:35Z</time>
      </trkpt>
      <trkpt lat="40.3190580" lon="-3.8809060">
        <ele>671.2</ele>
        <time>2019-04-28T14:17:36Z</time>
      </trkpt>
      <trkpt lat="40.3190300" lon="-3.8808610">
        <ele>671.4</ele>
        <time>2019-04-28T14:17:37Z</time>
      </trkpt>
      <trkpt lat="40.3190010" lon="-3.8808130">
        <ele>671.4</ele>
        <time>2019-04-28T14:17:38Z</time>
      </trkpt>
      <trkpt lat="40.3189760" lon="-3.8807630">
        <ele>671.2</ele>
        <time>2019-04-28T14:17:39Z</time>
      </trkpt>
      <trkpt lat="40.3189560" lon="-3.8807100">
        <ele>671.2</ele>
        <time>2019-04-28T14:17:40Z</time>
      </trkpt>
      <trkpt lat="40.3189370" lon="-3.8806530">
        <ele>671.4</ele>
        <time>2019-04-28T14:17:41Z</time>
      </trkpt>
      <trkpt lat="40.3189110" lon="-3.8805930">
        <ele>671.4</ele>
        <time>2019-04-28T14:17:42Z</time>
      </trkpt>
      <trkpt lat="40.3188830" lon="-3.8805380">
        <ele>671.4</ele>
        <time>2019-04-28T14:17:43Z</time>
      </trkpt>
      <trkpt lat="40.3188510" lon="-3.8804860">
        <ele>671.4</ele>
        <time>2019-04-28T14:17:44Z</time>
      </trkpt>
      <trkpt lat="40.3188130" lon="-3.8804450">
        <ele>671.4</ele>
        <time>2019-04-28T14:17:45Z</time>
      </trkpt>
      <trkpt lat="40.3187700" lon="-3.8804070">
        <ele>671.4</ele>
        <time>2019-04-28T14:17:46Z</time>
      </trkpt>
      <trkpt lat="40.3187260" lon="-3.8803770">
        <ele>671.4</ele>
        <time>2019-04-28T14:17:47Z</time>
      </trkpt>
      <trkpt lat="40.3186820" lon="-3.8803490">
        <ele>671.6</ele>
        <time>2019-04-28T14:17:48Z</time>
      </trkpt>
      <trkpt lat="40.3186390" lon="-3.8803210">
        <ele>671.6</ele>
        <time>2019-04-28T14:17:49Z</time>
      </trkpt>
      <trkpt lat="40.3185970" lon="-3.8802860">
        <ele>671.2</ele>
        <time>2019-04-28T14:17:50Z</time>
      </trkpt>
      <trkpt lat="40.3185530" lon="-3.8802510">
        <ele>671.0</ele>
        <time>2019-04-28T14:17:51Z</time>
      </trkpt>
      <trkpt lat="40.3185090" lon="-3.8802160">
        <ele>671.2</ele>
        <time>2019-04-28T14:17:52Z</time>
      </trkpt>
      <trkpt lat="40.3184640" lon="-3.8801800">
        <ele>671.0</ele>
        <time>2019-04-28T14:17:53Z</time>
      </trkpt>
      <trkpt lat="40.3184180" lon="-3.8801430">
        <ele>670.8</ele>
        <time>2019-04-28T14:17:54Z</time>
      </trkpt>
      <trkpt lat="40.3183750" lon="-3.8801080">
        <ele>670.6</ele>
        <time>2019-04-28T14:17:55Z</time>
      </trkpt>
      <trkpt lat="40.3183350" lon="-3.8800730">
        <ele>670.2</ele>
        <time>2019-04-28T14:17:56Z</time>
      </trkpt>
      <trkpt lat="40.3182900" lon="-3.8800390">
        <ele>669.6</ele>
        <time>2019-04-28T14:17:57Z</time>
      </trkpt>
      <trkpt lat="40.3182400" lon="-3.8800070">
        <ele>669.4</ele>
        <time>2019-04-28T14:17:58Z</time>
      </trkpt>
      <trkpt lat="40.3181920" lon="-3.8799830">
        <ele>669.4</ele>
        <time>2019-04-28T14:17:59Z</time>
      </trkpt>
      <trkpt lat="40.3181480" lon="-3.8799520">
        <ele>669.6</ele>
        <time>2019-04-28T14:18:00Z</time>
      </trkpt>
      <trkpt lat="40.3181120" lon="-3.8799130">
        <ele>669.6</ele>
        <time>2019-04-28T14:18:01Z</time>
      </trkpt>
      <trkpt lat="40.3180830" lon="-3.8798640">
        <ele>669.6</ele>
        <time>2019-04-28T14:18:02Z</time>
      </trkpt>
      <trkpt lat="40.3180590" lon="-3.8798250">
        <ele>669.8</ele>
        <time>2019-04-28T14:18:03Z</time>
      </trkpt>
      <trkpt lat="40.3180420" lon="-3.8797800">
        <ele>669.8</ele>
        <time>2019-04-28T14:18:04Z</time>
      </trkpt>
      <trkpt lat="40.3180300" lon="-3.8797350">
        <ele>670.2</ele>
        <time>2019-04-28T14:18:05Z</time>
      </trkpt>
      <trkpt lat="40.3180140" lon="-3.8796930">
        <ele>670.2</ele>
        <time>2019-04-28T14:18:06Z</time>
      </trkpt>
      <trkpt lat="40.3180010" lon="-3.8796520">
        <ele>670.6</ele>
        <time>2019-04-28T14:18:07Z</time>
      </trkpt>
      <trkpt lat="40.3179820" lon="-3.8796170">
        <ele>671.0</ele>
        <time>2019-04-28T14:18:08Z</time>
      </trkpt>
      <trkpt lat="40.3179600" lon="-3.8795870">
        <ele>671.2</ele>
        <time>2019-04-28T14:18:09Z</time>
      </trkpt>
      <trkpt lat="40.3179340" lon="-3.8795640">
        <ele>671.4</ele>
        <time>2019-04-28T14:18:10Z</time>
      </trkpt>
      <trkpt lat="40.3179040" lon="-3.8795370">
        <ele>671.4</ele>
        <time>2019-04-28T14:18:11Z</time>
      </trkpt>
      <trkpt lat="40.3178740" lon="-3.8795320">
        <ele>671.8</ele>
        <time>2019-04-28T14:18:12Z</time>
      </trkpt>
      <trkpt lat="40.3178430" lon="-3.8795350">
        <ele>671.8</ele>
        <time>2019-04-28T14:18:13Z</time>
      </trkpt>
      <trkpt lat="40.3178090" lon="-3.8795330">
        <ele>672.0</ele>
        <time>2019-04-28T14:18:14Z</time>
      </trkpt>
      <trkpt lat="40.3177730" lon="-3.8795250">
        <ele>672.4</ele>
        <time>2019-04-28T14:18:15Z</time>
      </trkpt>
      <trkpt lat="40.3177370" lon="-3.8795240">
        <ele>673.0</ele>
        <time>2019-04-28T14:18:16Z</time>
      </trkpt>
      <trkpt lat="40.3177050" lon="-3.8795250">
        <ele>673.4</ele>
        <time>2019-04-28T14:18:17Z</time>
      </trkpt>
      <trkpt lat="40.3176760" lon="-3.8795270">
        <ele>673.6</ele>
        <time>2019-04-28T14:18:18Z</time>
      </trkpt>
      <trkpt lat="40.3176580" lon="-3.8795290">
        <ele>673.6</ele>
        <time>2019-04-28T14:18:19Z</time>
      </trkpt>
      <trkpt lat="40.3176370" lon="-3.8795270">
        <ele>673.6</ele>
        <time>2019-04-28T14:18:20Z</time>
      </trkpt>
      <trkpt lat="40.3176050" lon="-3.8795230">
        <ele>673.8</ele>
        <time>2019-04-28T14:18:21Z</time>
      </trkpt>
      <trkpt lat="40.3175800" lon="-3.8795200">
        <ele>674.2</ele>
        <time>2019-04-28T14:18:22Z</time>
      </trkpt>
      <trkpt lat="40.3175580" lon="-3.8795290">
        <ele>674.0</ele>
        <time>2019-04-28T14:18:23Z</time>
      </trkpt>
      <trkpt lat="40.3175340" lon="-3.8795360">
        <ele>674.0</ele>
        <time>2019-04-28T14:18:24Z</time>
      </trkpt>
      <trkpt lat="40.3175110" lon="-3.8795460">
        <ele>674.0</ele>
        <time>2019-04-28T14:18:25Z</time>
      </trkpt>
      <trkpt lat="40.3174870" lon="-3.8795630">
        <ele>674.0</ele>
        <time>2019-04-28T14:18:26Z</time>
      </trkpt>
      <trkpt lat="40.3174690" lon="-3.8795850">
        <ele>674.2</ele>
        <time>2019-04-28T14:18:27Z</time>
      </trkpt>
      <trkpt lat="40.3174420" lon="-3.8796240">
        <ele>674.2</ele>
        <time>2019-04-28T14:18:28Z</time>
      </trkpt>
      <trkpt lat="40.3174120" lon="-3.8796560">
        <ele>674.2</ele>
        <time>2019-04-28T14:18:29Z</time>
      </trkpt>
      <trkpt lat="40.3173800" lon="-3.8796850">
        <ele>674.4</ele>
        <time>2019-04-28T14:18:30Z</time>
      </trkpt>
      <trkpt lat="40.3173540" lon="-3.8797210">
        <ele>674.4</ele>
        <time>2019-04-28T14:18:31Z</time>
      </trkpt>
      <trkpt lat="40.3173260" lon="-3.8797560">
        <ele>674.4</ele>
        <time>2019-04-28T14:18:32Z</time>
      </trkpt>
      <trkpt lat="40.3172960" lon="-3.8797960">
        <ele>674.6</ele>
        <time>2019-04-28T14:18:33Z</time>
      </trkpt>
      <trkpt lat="40.3172700" lon="-3.8798400">
        <ele>674.6</ele>
        <time>2019-04-28T14:18:34Z</time>
      </trkpt>
      <trkpt lat="40.3172410" lon="-3.8798760">
        <ele>674.6</ele>
        <time>2019-04-28T14:18:35Z</time>
      </trkpt>
      <trkpt lat="40.3172130" lon="-3.8799160">
        <ele>674.8</ele>
        <time>2019-04-28T14:18:36Z</time>
      </trkpt>
      <trkpt lat="40.3171840" lon="-3.8799590">
        <ele>674.8</ele>
        <time>2019-04-28T14:18:37Z</time>
      </trkpt>
      <trkpt lat="40.3171550" lon="-3.8800010">
        <ele>674.8</ele>
        <time>2019-04-28T14:18:38Z</time>
      </trkpt>
      <trkpt lat="40.3171220" lon="-3.8800410">
        <ele>675.0</ele>
        <time>2019-04-28T14:18:39Z</time>
      </trkpt>
      <trkpt lat="40.3170930" lon="-3.8800850">
        <ele>675.4</ele>
        <time>2019-04-28T14:18:40Z</time>
      </trkpt>
      <trkpt lat="40.3170650" lon="-3.8801280">
        <ele>675.2</ele>
        <time>2019-04-28T14:18:41Z</time>
      </trkpt>
      <trkpt lat="40.3170390" lon="-3.8801710">
        <ele>675.2</ele>
        <time>2019-04-28T14:18:42Z</time>
      </trkpt>
      <trkpt lat="40.3170120" lon="-3.8802120">
        <ele>675.4</ele>
        <time>2019-04-28T14:18:43Z</time>
      </trkpt>
      <trkpt lat="40.3169830" lon="-3.8802450">
        <ele>675.2</ele>
        <time>2019-04-28T14:18:44Z</time>
      </trkpt>
      <trkpt lat="40.3169580" lon="-3.8802820">
        <ele>675.4</ele>
        <time>2019-04-28T14:18:45Z</time>
      </trkpt>
      <trkpt lat="40.3169340" lon="-3.8803210">
        <ele>675.4</ele>
        <time>2019-04-28T14:18:46Z</time>
      </trkpt>
      <trkpt lat="40.3169110" lon="-3.8803600">
        <ele>675.4</ele>
        <time>2019-04-28T14:18:47Z</time>
      </trkpt>
      <trkpt lat="40.3168880" lon="-3.8804000">
        <ele>675.2</ele>
        <time>2019-04-28T14:18:48Z</time>
      </trkpt>
      <trkpt lat="40.3168640" lon="-3.8804370">
        <ele>675.6</ele>
        <time>2019-04-28T14:18:49Z</time>
      </trkpt>
      <trkpt lat="40.3168380" lon="-3.8804740">
        <ele>675.6</ele>
        <time>2019-04-28T14:18:50Z</time>
      </trkpt>
      <trkpt lat="40.3168120" lon="-3.8805110">
        <ele>675.6</ele>
        <time>2019-04-28T14:18:51Z</time>
      </trkpt>
      <trkpt lat="40.3167860" lon="-3.8805480">
        <ele>675.8</ele>
        <time>2019-04-28T14:18:52Z</time>
      </trkpt>
      <trkpt lat="40.3167610" lon="-3.8805880">
        <ele>675.8</ele>
        <time>2019-04-28T14:18:53Z</time>
      </trkpt>
      <trkpt lat="40.3167350" lon="-3.8806260">
        <ele>676.0</ele>
        <time>2019-04-28T14:18:54Z</time>
      </trkpt>
      <trkpt lat="40.3167100" lon="-3.8806660">
        <ele>676.0</ele>
        <time>2019-04-28T14:18:55Z</time>
      </trkpt>
      <trkpt lat="40.3166870" lon="-3.8807070">
        <ele>676.2</ele>
        <time>2019-04-28T14:18:56Z</time>
      </trkpt>
      <trkpt lat="40.3166620" lon="-3.8807470">
        <ele>676.0</ele>
        <time>2019-04-28T14:18:57Z</time>
      </trkpt>
      <trkpt lat="40.3166370" lon="-3.8807850">
        <ele>676.0</ele>
        <time>2019-04-28T14:18:58Z</time>
      </trkpt>
      <trkpt lat="40.3166130" lon="-3.8808220">
        <ele>676.0</ele>
        <time>2019-04-28T14:18:59Z</time>
      </trkpt>
      <trkpt lat="40.3165890" lon="-3.8808590">
        <ele>676.2</ele>
        <time>2019-04-28T14:19:00Z</time>
      </trkpt>
      <trkpt lat="40.3165620" lon="-3.8808970">
        <ele>676.2</ele>
        <time>2019-04-28T14:19:01Z</time>
      </trkpt>
      <trkpt lat="40.3165380" lon="-3.8809380">
        <ele>676.4</ele>
        <time>2019-04-28T14:19:02Z</time>
      </trkpt>
      <trkpt lat="40.3165120" lon="-3.8809730">
        <ele>676.4</ele>
        <time>2019-04-28T14:19:03Z</time>
      </trkpt>
      <trkpt lat="40.3164900" lon="-3.8810020">
        <ele>676.6</ele>
        <time>2019-04-28T14:19:04Z</time>
      </trkpt>
      <trkpt lat="40.3164680" lon="-3.8810270">
        <ele>676.6</ele>
        <time>2019-04-28T14:19:05Z</time>
      </trkpt>
      <trkpt lat="40.3164440" lon="-3.8810640">
        <ele>676.8</ele>
        <time>2019-04-28T14:19:06Z</time>
      </trkpt>
      <trkpt lat="40.3164210" lon="-3.8811030">
        <ele>676.8</ele>
        <time>2019-04-28T14:19:07Z</time>
      </trkpt>
      <trkpt lat="40.3163970" lon="-3.8811400">
        <ele>676.8</ele>
        <time>2019-04-28T14:19:08Z</time>
      </trkpt>
      <trkpt lat="40.3163730" lon="-3.8811730">
        <ele>677.0</ele>
        <time>2019-04-28T14:19:09Z</time>
      </trkpt>
      <trkpt lat="40.3163510" lon="-3.8812060">
        <ele>677.0</ele>
        <time>2019-04-28T14:19:10Z</time>
      </trkpt>
      <trkpt lat="40.3163270" lon="-3.8812430">
        <ele>677.0</ele>
        <time>2019-04-28T14:19:11Z</time>
      </trkpt>
      <trkpt lat="40.3163040" lon="-3.8812790">
        <ele>677.2</ele>
        <time>2019-04-28T14:19:12Z</time>
      </trkpt>
      <trkpt lat="40.3162790" lon="-3.8813180">
        <ele>677.2</ele>
        <time>2019-04-28T14:19:13Z</time>
      </trkpt>
      <trkpt lat="40.3162540" lon="-3.8813550">
        <ele>677.4</ele>
        <time>2019-04-28T14:19:14Z</time>
      </trkpt>
      <trkpt lat="40.3162290" lon="-3.8813930">
        <ele>677.4</ele>
        <time>2019-04-28T14:19:15Z</time>
      </trkpt>
      <trkpt lat="40.3162050" lon="-3.8814320">
        <ele>677.6</ele>
        <time>2019-04-28T14:19:16Z</time>
      </trkpt>
      <trkpt lat="40.3161780" lon="-3.8814750">
        <ele>677.8</ele>
        <time>2019-04-28T14:19:17Z</time>
      </trkpt>
      <trkpt lat="40.3161530" lon="-3.8815140">
        <ele>677.8</ele>
        <time>2019-04-28T14:19:18Z</time>
      </trkpt>
      <trkpt lat="40.3161280" lon="-3.8815500">
        <ele>678.0</ele>
        <time>2019-04-28T14:19:19Z</time>
      </trkpt>
      <trkpt lat="40.3161030" lon="-3.8815840">
        <ele>678.2</ele>
        <time>2019-04-28T14:19:20Z</time>
      </trkpt>
      <trkpt lat="40.3160790" lon="-3.8816170">
        <ele>678.2</ele>
        <time>2019-04-28T14:19:21Z</time>
      </trkpt>
      <trkpt lat="40.3160550" lon="-3.8816530">
        <ele>678.4</ele>
        <time>2019-04-28T14:19:22Z</time>
      </trkpt>
      <trkpt lat="40.3160320" lon="-3.8816900">
        <ele>678.6</ele>
        <time>2019-04-28T14:19:23Z</time>
      </trkpt>
      <trkpt lat="40.3160080" lon="-3.8817320">
        <ele>678.8</ele>
        <time>2019-04-28T14:19:24Z</time>
      </trkpt>
      <trkpt lat="40.3159810" lon="-3.8817720">
        <ele>678.8</ele>
        <time>2019-04-28T14:19:25Z</time>
      </trkpt>
      <trkpt lat="40.3159550" lon="-3.8818110">
        <ele>679.0</ele>
        <time>2019-04-28T14:19:26Z</time>
      </trkpt>
      <trkpt lat="40.3159300" lon="-3.8818500">
        <ele>679.0</ele>
        <time>2019-04-28T14:19:27Z</time>
      </trkpt>
      <trkpt lat="40.3159060" lon="-3.8818860">
        <ele>679.2</ele>
        <time>2019-04-28T14:19:28Z</time>
      </trkpt>
      <trkpt lat="40.3158810" lon="-3.8819220">
        <ele>679.2</ele>
        <time>2019-04-28T14:19:29Z</time>
      </trkpt>
      <trkpt lat="40.3158560" lon="-3.8819620">
        <ele>679.4</ele>
        <time>2019-04-28T14:19:30Z</time>
      </trkpt>
      <trkpt lat="40.3158310" lon="-3.8820000">
        <ele>679.6</ele>
        <time>2019-04-28T14:19:31Z</time>
      </trkpt>
      <trkpt lat="40.3158060" lon="-3.8820400">
        <ele>679.8</ele>
        <time>2019-04-28T14:19:32Z</time>
      </trkpt>
      <trkpt lat="40.3157820" lon="-3.8820780">
        <ele>679.8</ele>
        <time>2019-04-28T14:19:33Z</time>
      </trkpt>
      <trkpt lat="40.3157580" lon="-3.8821140">
        <ele>680.0</ele>
        <time>2019-04-28T14:19:34Z</time>
      </trkpt>
      <trkpt lat="40.3157320" lon="-3.8821510">
        <ele>680.2</ele>
        <time>2019-04-28T14:19:35Z</time>
      </trkpt>
      <trkpt lat="40.3157060" lon="-3.8821910">
        <ele>680.2</ele>
        <time>2019-04-28T14:19:36Z</time>
      </trkpt>
      <trkpt lat="40.3156830" lon="-3.8822310">
        <ele>680.6</ele>
        <time>2019-04-28T14:19:37Z</time>
      </trkpt>
      <trkpt lat="40.3156570" lon="-3.8822700">
        <ele>680.6</ele>
        <time>2019-04-28T14:19:38Z</time>
      </trkpt>
      <trkpt lat="40.3156310" lon="-3.8823070">
        <ele>680.8</ele>
        <time>2019-04-28T14:19:39Z</time>
      </trkpt>
      <trkpt lat="40.3156050" lon="-3.8823480">
        <ele>680.8</ele>
        <time>2019-04-28T14:19:40Z</time>
      </trkpt>
      <trkpt lat="40.3155800" lon="-3.8823860">
        <ele>681.0</ele>
        <time>2019-04-28T14:19:41Z</time>
      </trkpt>
      <trkpt lat="40.3155540" lon="-3.8824260">
        <ele>681.2</ele>
        <time>2019-04-28T14:19:42Z</time>
      </trkpt>
      <trkpt lat="40.3155290" lon="-3.8824660">
        <ele>681.2</ele>
        <time>2019-04-28T14:19:43Z</time>
      </trkpt>
      <trkpt lat="40.3155050" lon="-3.8825060">
        <ele>681.4</ele>
        <time>2019-04-28T14:19:44Z</time>
      </trkpt>
      <trkpt lat="40.3154800" lon="-3.8825450">
        <ele>681.6</ele>
        <time>2019-04-28T14:19:45Z</time>
      </trkpt>
      <trkpt lat="40.3154570" lon="-3.8825850">
        <ele>681.8</ele>
        <time>2019-04-28T14:19:46Z</time>
      </trkpt>
      <trkpt lat="40.3154300" lon="-3.8826190">
        <ele>682.0</ele>
        <time>2019-04-28T14:19:47Z</time>
      </trkpt>
      <trkpt lat="40.3154040" lon="-3.8826540">
        <ele>682.2</ele>
        <time>2019-04-28T14:19:48Z</time>
      </trkpt>
      <trkpt lat="40.3153830" lon="-3.8826880">
        <ele>682.2</ele>
        <time>2019-04-28T14:19:49Z</time>
      </trkpt>
      <trkpt lat="40.3153600" lon="-3.8827240">
        <ele>682.4</ele>
        <time>2019-04-28T14:19:50Z</time>
      </trkpt>
      <trkpt lat="40.3153440" lon="-3.8827540">
        <ele>682.6</ele>
        <time>2019-04-28T14:19:51Z</time>
      </trkpt>
      <trkpt lat="40.3153310" lon="-3.8827780">
        <ele>682.6</ele>
        <time>2019-04-28T14:19:52Z</time>
      </trkpt>
      <trkpt lat="40.3153210" lon="-3.8828050">
        <ele>682.6</ele>
        <time>2019-04-28T14:19:53Z</time>
      </trkpt>
      <trkpt lat="40.3153190" lon="-3.8828420">
        <ele>682.8</ele>
        <time>2019-04-28T14:19:54Z</time>
      </trkpt>
      <trkpt lat="40.3153220" lon="-3.8828850">
        <ele>682.6</ele>
        <time>2019-04-28T14:19:55Z</time>
      </trkpt>
      <trkpt lat="40.3153250" lon="-3.8829360">
        <ele>682.8</ele>
        <time>2019-04-28T14:19:56Z</time>
      </trkpt>
      <trkpt lat="40.3153240" lon="-3.8829920">
        <ele>683.0</ele>
        <time>2019-04-28T14:19:57Z</time>
      </trkpt>
      <trkpt lat="40.3153150" lon="-3.8830470">
        <ele>683.0</ele>
        <time>2019-04-28T14:19:58Z</time>
      </trkpt>
      <trkpt lat="40.3152960" lon="-3.8831010">
        <ele>683.0</ele>
        <time>2019-04-28T14:19:59Z</time>
      </trkpt>
      <trkpt lat="40.3152730" lon="-3.8831490">
        <ele>683.2</ele>
        <time>2019-04-28T14:20:00Z</time>
      </trkpt>
      <trkpt lat="40.3152410" lon="-3.8831880">
        <ele>683.6</ele>
        <time>2019-04-28T14:20:01Z</time>
      </trkpt>
      <trkpt lat="40.3152030" lon="-3.8832190">
        <ele>683.6</ele>
        <time>2019-04-28T14:20:02Z</time>
      </trkpt>
      <trkpt lat="40.3151620" lon="-3.8832350">
        <ele>683.8</ele>
        <time>2019-04-28T14:20:03Z</time>
      </trkpt>
      <trkpt lat="40.3151180" lon="-3.8832410">
        <ele>683.8</ele>
        <time>2019-04-28T14:20:04Z</time>
      </trkpt>
      <trkpt lat="40.3150730" lon="-3.8832300">
        <ele>684.0</ele>
        <time>2019-04-28T14:20:05Z</time>
      </trkpt>
      <trkpt lat="40.3150340" lon="-3.8832050">
        <ele>683.8</ele>
        <time>2019-04-28T14:20:06Z</time>
      </trkpt>
      <trkpt lat="40.3149980" lon="-3.8831730">
        <ele>684.0</ele>
        <time>2019-04-28T14:20:07Z</time>
      </trkpt>
      <trkpt lat="40.3149660" lon="-3.8831400">
        <ele>683.8</ele>
        <time>2019-04-28T14:20:08Z</time>
      </trkpt>
      <trkpt lat="40.3149370" lon="-3.8831010">
        <ele>683.6</ele>
        <time>2019-04-28T14:20:09Z</time>
      </trkpt>
      <trkpt lat="40.3149050" lon="-3.8830610">
        <ele>683.4</ele>
        <time>2019-04-28T14:20:10Z</time>
      </trkpt>
      <trkpt lat="40.3148690" lon="-3.8830250">
        <ele>683.2</ele>
        <time>2019-04-28T14:20:11Z</time>
      </trkpt>
      <trkpt lat="40.3148290" lon="-3.8829950">
        <ele>683.4</ele>
        <time>2019-04-28T14:20:12Z</time>
      </trkpt>
      <trkpt lat="40.3147870" lon="-3.8829730">
        <ele>683.4</ele>
        <time>2019-04-28T14:20:13Z</time>
      </trkpt>
      <trkpt lat="40.3147450" lon="-3.8829600">
        <ele>683.6</ele>
        <time>2019-04-28T14:20:14Z</time>
      </trkpt>
      <trkpt lat="40.3147040" lon="-3.8829460">
        <ele>683.6</ele>
        <time>2019-04-28T14:20:15Z</time>
      </trkpt>
      <trkpt lat="40.3146640" lon="-3.8829310">
        <ele>683.8</ele>
        <time>2019-04-28T14:20:16Z</time>
      </trkpt>
      <trkpt lat="40.3146240" lon="-3.8829130">
        <ele>684.0</ele>
        <time>2019-04-28T14:20:17Z</time>
      </trkpt>
      <trkpt lat="40.3145850" lon="-3.8828970">
        <ele>684.0</ele>
        <time>2019-04-28T14:20:18Z</time>
      </trkpt>
      <trkpt lat="40.3145470" lon="-3.8828820">
        <ele>684.0</ele>
        <time>2019-04-28T14:20:19Z</time>
      </trkpt>
      <trkpt lat="40.3145090" lon="-3.8828660">
        <ele>684.2</ele>
        <time>2019-04-28T14:20:20Z</time>
      </trkpt>
      <trkpt lat="40.3144720" lon="-3.8828530">
        <ele>684.2</ele>
        <time>2019-04-28T14:20:21Z</time>
      </trkpt>
      <trkpt lat="40.3144350" lon="-3.8828390">
        <ele>684.2</ele>
        <time>2019-04-28T14:20:22Z</time>
      </trkpt>
      <trkpt lat="40.3143980" lon="-3.8828250">
        <ele>684.4</ele>
        <time>2019-04-28T14:20:23Z</time>
      </trkpt>
      <trkpt lat="40.3143610" lon="-3.8828080">
        <ele>684.6</ele>
        <time>2019-04-28T14:20:24Z</time>
      </trkpt>
      <trkpt lat="40.3143250" lon="-3.8827910">
        <ele>684.4</ele>
        <time>2019-04-28T14:20:25Z</time>
      </trkpt>
      <trkpt lat="40.3142870" lon="-3.8827770">
        <ele>684.6</ele>
        <time>2019-04-28T14:20:26Z</time>
      </trkpt>
      <trkpt lat="40.3142500" lon="-3.8827610">
        <ele>684.6</ele>
        <time>2019-04-28T14:20:27Z</time>
      </trkpt>
      <trkpt lat="40.3142130" lon="-3.8827470">
        <ele>684.6</ele>
        <time>2019-04-28T14:20:28Z</time>
      </trkpt>
      <trkpt lat="40.3141770" lon="-3.8827330">
        <ele>684.8</ele>
        <time>2019-04-28T14:20:29Z</time>
      </trkpt>
      <trkpt lat="40.3141400" lon="-3.8827210">
        <ele>685.0</ele>
        <time>2019-04-28T14:20:30Z</time>
      </trkpt>
      <trkpt lat="40.3141040" lon="-3.8827080">
        <ele>685.0</ele>
        <time>2019-04-28T14:20:31Z</time>
      </trkpt>
      <trkpt lat="40.3140680" lon="-3.8826940">
        <ele>685.0</ele>
        <time>2019-04-28T14:20:32Z</time>
      </trkpt>
      <trkpt lat="40.3140310" lon="-3.8826790">
        <ele>685.0</ele>
        <time>2019-04-28T14:20:33Z</time>
      </trkpt>
      <trkpt lat="40.3139940" lon="-3.8826650">
        <ele>684.8</ele>
        <time>2019-04-28T14:20:34Z</time>
      </trkpt>
      <trkpt lat="40.3139580" lon="-3.8826500">
        <ele>685.0</ele>
        <time>2019-04-28T14:20:35Z</time>
      </trkpt>
      <trkpt lat="40.3139220" lon="-3.8826360">
        <ele>685.0</ele>
        <time>2019-04-28T14:20:36Z</time>
      </trkpt>
      <trkpt lat="40.3138860" lon="-3.8826220">
        <ele>685.0</ele>
        <time>2019-04-28T14:20:37Z</time>
      </trkpt>
      <trkpt lat="40.3138500" lon="-3.8826050">
        <ele>685.2</ele>
        <time>2019-04-28T14:20:38Z</time>
      </trkpt>
      <trkpt lat="40.3138130" lon="-3.8825850">
        <ele>685.2</ele>
        <time>2019-04-28T14:20:39Z</time>
      </trkpt>
      <trkpt lat="40.3137760" lon="-3.8825680">
        <ele>685.2</ele>
        <time>2019-04-28T14:20:40Z</time>
      </trkpt>
      <trkpt lat="40.3137380" lon="-3.8825530">
        <ele>685.2</ele>
        <time>2019-04-28T14:20:41Z</time>
      </trkpt>
      <trkpt lat="40.3137000" lon="-3.8825390">
        <ele>685.4</ele>
        <time>2019-04-28T14:20:42Z</time>
      </trkpt>
      <trkpt lat="40.3136620" lon="-3.8825230">
        <ele>685.4</ele>
        <time>2019-04-28T14:20:43Z</time>
      </trkpt>
      <trkpt lat="40.3136240" lon="-3.8825080">
        <ele>685.4</ele>
        <time>2019-04-28T14:20:44Z</time>
      </trkpt>
      <trkpt lat="40.3135860" lon="-3.8824920">
        <ele>685.6</ele>
        <time>2019-04-28T14:20:45Z</time>
      </trkpt>
      <trkpt lat="40.3135480" lon="-3.8824760">
        <ele>685.8</ele>
        <time>2019-04-28T14:20:46Z</time>
      </trkpt>
      <trkpt lat="40.3135110" lon="-3.8824610">
        <ele>685.6</ele>
        <time>2019-04-28T14:20:47Z</time>
      </trkpt>
      <trkpt lat="40.3134740" lon="-3.8824440">
        <ele>685.4</ele>
        <time>2019-04-28T14:20:48Z</time>
      </trkpt>
      <trkpt lat="40.3134360" lon="-3.8824280">
        <ele>685.6</ele>
        <time>2019-04-28T14:20:49Z</time>
      </trkpt>
      <trkpt lat="40.3133960" lon="-3.8824140">
        <ele>686.0</ele>
        <time>2019-04-28T14:20:50Z</time>
      </trkpt>
      <trkpt lat="40.3133580" lon="-3.8823990">
        <ele>685.8</ele>
        <time>2019-04-28T14:20:51Z</time>
      </trkpt>
      <trkpt lat="40.3133190" lon="-3.8823840">
        <ele>686.0</ele>
        <time>2019-04-28T14:20:52Z</time>
      </trkpt>
      <trkpt lat="40.3132810" lon="-3.8823660">
        <ele>686.2</ele>
        <time>2019-04-28T14:20:53Z</time>
      </trkpt>
      <trkpt lat="40.3132420" lon="-3.8823490">
        <ele>686.2</ele>
        <time>2019-04-28T14:20:54Z</time>
      </trkpt>
      <trkpt lat="40.3132030" lon="-3.8823310">
        <ele>686.2</ele>
        <time>2019-04-28T14:20:55Z</time>
      </trkpt>
      <trkpt lat="40.3131640" lon="-3.8823120">
        <ele>686.6</ele>
        <time>2019-04-28T14:20:56Z</time>
      </trkpt>
      <trkpt lat="40.3131260" lon="-3.8822960">
        <ele>686.6</ele>
        <time>2019-04-28T14:20:57Z</time>
      </trkpt>
      <trkpt lat="40.3130870" lon="-3.8822810">
        <ele>686.2</ele>
        <time>2019-04-28T14:20:58Z</time>
      </trkpt>
      <trkpt lat="40.3130480" lon="-3.8822620">
        <ele>686.2</ele>
        <time>2019-04-28T14:20:59Z</time>
      </trkpt>
      <trkpt lat="40.3130080" lon="-3.8822450">
        <ele>686.4</ele>
        <time>2019-04-28T14:21:00Z</time>
      </trkpt>
      <trkpt lat="40.3129680" lon="-3.8822260">
        <ele>686.4</ele>
        <time>2019-04-28T14:21:01Z</time>
      </trkpt>
      <trkpt lat="40.3129290" lon="-3.8822100">
        <ele>686.6</ele>
        <time>2019-04-28T14:21:02Z</time>
      </trkpt>
      <trkpt lat="40.3128910" lon="-3.8821960">
        <ele>686.6</ele>
        <time>2019-04-28T14:21:03Z</time>
      </trkpt>
      <trkpt lat="40.3128520" lon="-3.8821800">
        <ele>686.8</ele>
        <time>2019-04-28T14:21:04Z</time>
      </trkpt>
      <trkpt lat="40.3128120" lon="-3.8821600">
        <ele>686.8</ele>
        <time>2019-04-28T14:21:05Z</time>
      </trkpt>
      <trkpt lat="40.3127710" lon="-3.8821410">
        <ele>687.0</ele>
        <time>2019-04-28T14:21:06Z</time>
      </trkpt>
      <trkpt lat="40.3127300" lon="-3.8821220">
        <ele>687.0</ele>
        <time>2019-04-28T14:21:07Z</time>
      </trkpt>
      <trkpt lat="40.3126890" lon="-3.8821040">
        <ele>687.0</ele>
        <time>2019-04-28T14:21:08Z</time>
      </trkpt>
      <trkpt lat="40.3126490" lon="-3.8820870">
        <ele>687.0</ele>
        <time>2019-04-28T14:21:09Z</time>
      </trkpt>
      <trkpt lat="40.3126080" lon="-3.8820710">
        <ele>687.2</ele>
        <time>2019-04-28T14:21:10Z</time>
      </trkpt>
      <trkpt lat="40.3125670" lon="-3.8820520">
        <ele>687.4</ele>
        <time>2019-04-28T14:21:11Z</time>
      </trkpt>
      <trkpt lat="40.3125270" lon="-3.8820340">
        <ele>687.4</ele>
        <time>2019-04-28T14:21:12Z</time>
      </trkpt>
      <trkpt lat="40.3124860" lon="-3.8820180">
        <ele>687.4</ele>
        <time>2019-04-28T14:21:13Z</time>
      </trkpt>
      <trkpt lat="40.3124460" lon="-3.8820020">
        <ele>687.6</ele>
        <time>2019-04-28T14:21:14Z</time>
      </trkpt>
      <trkpt lat="40.3124060" lon="-3.8819830">
        <ele>687.6</ele>
        <time>2019-04-28T14:21:15Z</time>
      </trkpt>
      <trkpt lat="40.3123640" lon="-3.8819640">
        <ele>687.8</ele>
        <time>2019-04-28T14:21:16Z</time>
      </trkpt>
      <trkpt lat="40.3123220" lon="-3.8819450">
        <ele>688.0</ele>
        <time>2019-04-28T14:21:17Z</time>
      </trkpt>
      <trkpt lat="40.3122800" lon="-3.8819260">
        <ele>687.8</ele>
        <time>2019-04-28T14:21:18Z</time>
      </trkpt>
      <trkpt lat="40.3122380" lon="-3.8819070">
        <ele>687.8</ele>
        <time>2019-04-28T14:21:19Z</time>
      </trkpt>
      <trkpt lat="40.3121960" lon="-3.8818940">
        <ele>687.8</ele>
        <time>2019-04-28T14:21:20Z</time>
      </trkpt>
      <trkpt lat="40.3121540" lon="-3.8818760">
        <ele>688.0</ele>
        <time>2019-04-28T14:21:21Z</time>
      </trkpt>
      <trkpt lat="40.3121110" lon="-3.8818560">
        <ele>688.0</ele>
        <time>2019-04-28T14:21:22Z</time>
      </trkpt>
      <trkpt lat="40.3120700" lon="-3.8818400">
        <ele>688.2</ele>
        <time>2019-04-28T14:21:23Z</time>
      </trkpt>
      <trkpt lat="40.3120310" lon="-3.8818190">
        <ele>688.0</ele>
        <time>2019-04-28T14:21:24Z</time>
      </trkpt>
      <trkpt lat="40.3119930" lon="-3.8818030">
        <ele>688.2</ele>
        <time>2019-04-28T14:21:25Z</time>
      </trkpt>
      <trkpt lat="40.3119620" lon="-3.8817890">
        <ele>688.2</ele>
        <time>2019-04-28T14:21:26Z</time>
      </trkpt>
      <trkpt lat="40.3119310" lon="-3.8817740">
        <ele>688.2</ele>
        <time>2019-04-28T14:21:27Z</time>
      </trkpt>
      <trkpt lat="40.3119000" lon="-3.8817600">
        <ele>688.2</ele>
        <time>2019-04-28T14:21:28Z</time>
      </trkpt>
      <trkpt lat="40.3118720" lon="-3.8817480">
        <ele>688.2</ele>
        <time>2019-04-28T14:21:29Z</time>
      </trkpt>
      <trkpt lat="40.3118470" lon="-3.8817360">
        <ele>688.4</ele>
        <time>2019-04-28T14:21:30Z</time>
      </trkpt>
      <trkpt lat="40.3118260" lon="-3.8817240">
        <ele>688.4</ele>
        <time>2019-04-28T14:21:31Z</time>
      </trkpt>
      <trkpt lat="40.3118120" lon="-3.8817190">
        <ele>688.4</ele>
        <time>2019-04-28T14:21:32Z</time>
      </trkpt>
      <trkpt lat="40.3118050" lon="-3.8817160">
        <ele>688.4</ele>
        <time>2019-04-28T14:21:33Z</time>
      </trkpt>
      <trkpt lat="40.3117980" lon="-3.8817130">
        <ele>688.4</ele>
        <time>2019-04-28T14:21:34Z</time>
      </trkpt>
      <trkpt lat="40.3117940" lon="-3.8817150">
        <ele>688.4</ele>
        <time>2019-04-28T14:21:35Z</time>
      </trkpt>
      <trkpt lat="40.3117920" lon="-3.8817170">
        <ele>688.4</ele>
        <time>2019-04-28T14:21:36Z</time>
      </trkpt>
      <trkpt lat="40.3117920" lon="-3.8817140">
        <ele>688.4</ele>
        <time>2019-04-28T14:21:37Z</time>
      </trkpt>
      <trkpt lat="40.3117910" lon="-3.8817120">
        <ele>688.4</ele>
        <time>2019-04-28T14:21:38Z</time>
      </trkpt>
      <trkpt lat="40.3117920" lon="-3.8817120">
        <ele>688.4</ele>
        <time>2019-04-28T14:21:39Z</time>
      </trkpt>
      <trkpt lat="40.3117930" lon="-3.8817100">
        <ele>688.4</ele>
        <time>2019-04-28T14:21:40Z</time>
      </trkpt>
      <trkpt lat="40.3115950" lon="-3.8816230">
        <ele>688.6</ele>
        <time>2019-04-28T14:21:50Z</time>
      </trkpt>
      <trkpt lat="40.3115570" lon="-3.8816090">
        <ele>688.8</ele>
        <time>2019-04-28T14:21:51Z</time>
      </trkpt>
      <trkpt lat="40.3115180" lon="-3.8815900">
        <ele>689.0</ele>
        <time>2019-04-28T14:21:52Z</time>
      </trkpt>
      <trkpt lat="40.3114780" lon="-3.8815740">
        <ele>689.0</ele>
        <time>2019-04-28T14:21:53Z</time>
      </trkpt>
      <trkpt lat="40.3114370" lon="-3.8815590">
        <ele>689.0</ele>
        <time>2019-04-28T14:21:54Z</time>
      </trkpt>
      <trkpt lat="40.3113930" lon="-3.8815390">
        <ele>689.0</ele>
        <time>2019-04-28T14:21:55Z</time>
      </trkpt>
      <trkpt lat="40.3113480" lon="-3.8815240">
        <ele>689.2</ele>
        <time>2019-04-28T14:21:56Z</time>
      </trkpt>
      <trkpt lat="40.3113040" lon="-3.8815100">
        <ele>689.2</ele>
        <time>2019-04-28T14:21:57Z</time>
      </trkpt>
      <trkpt lat="40.3112590" lon="-3.8814860">
        <ele>689.2</ele>
        <time>2019-04-28T14:21:58Z</time>
      </trkpt>
      <trkpt lat="40.3112140" lon="-3.8814710">
        <ele>689.2</ele>
        <time>2019-04-28T14:21:59Z</time>
      </trkpt>
      <trkpt lat="40.3111670" lon="-3.8814490">
        <ele>689.4</ele>
        <time>2019-04-28T14:22:00Z</time>
      </trkpt>
      <trkpt lat="40.3111190" lon="-3.8814210">
        <ele>689.2</ele>
        <time>2019-04-28T14:22:01Z</time>
      </trkpt>
      <trkpt lat="40.3110720" lon="-3.8813970">
        <ele>689.4</ele>
        <time>2019-04-28T14:22:02Z</time>
      </trkpt>
      <trkpt lat="40.3110250" lon="-3.8813740">
        <ele>689.4</ele>
        <time>2019-04-28T14:22:03Z</time>
      </trkpt>
      <trkpt lat="40.3109780" lon="-3.8813510">
        <ele>689.4</ele>
        <time>2019-04-28T14:22:04Z</time>
      </trkpt>
      <trkpt lat="40.3109300" lon="-3.8813250">
        <ele>689.2</ele>
        <time>2019-04-28T14:22:05Z</time>
      </trkpt>
      <trkpt lat="40.3108800" lon="-3.8812990">
        <ele>689.2</ele>
        <time>2019-04-28T14:22:06Z</time>
      </trkpt>
      <trkpt lat="40.3108300" lon="-3.8812710">
        <ele>689.2</ele>
        <time>2019-04-28T14:22:07Z</time>
      </trkpt>
      <trkpt lat="40.3107790" lon="-3.8812450">
        <ele>689.4</ele>
        <time>2019-04-28T14:22:08Z</time>
      </trkpt>
      <trkpt lat="40.3107270" lon="-3.8812180">
        <ele>689.4</ele>
        <time>2019-04-28T14:22:09Z</time>
      </trkpt>
      <trkpt lat="40.3106740" lon="-3.8811910">
        <ele>689.2</ele>
        <time>2019-04-28T14:22:10Z</time>
      </trkpt>
      <trkpt lat="40.3106220" lon="-3.8811630">
        <ele>689.4</ele>
        <time>2019-04-28T14:22:11Z</time>
      </trkpt>
      <trkpt lat="40.3105700" lon="-3.8811370">
        <ele>689.4</ele>
        <time>2019-04-28T14:22:12Z</time>
      </trkpt>
      <trkpt lat="40.3105190" lon="-3.8811080">
        <ele>689.4</ele>
        <time>2019-04-28T14:22:13Z</time>
      </trkpt>
      <trkpt lat="40.3104660" lon="-3.8810790">
        <ele>689.2</ele>
        <time>2019-04-28T14:22:14Z</time>
      </trkpt>
      <trkpt lat="40.3104140" lon="-3.8810520">
        <ele>689.2</ele>
        <time>2019-04-28T14:22:15Z</time>
      </trkpt>
      <trkpt lat="40.3103620" lon="-3.8810240">
        <ele>689.4</ele>
        <time>2019-04-28T14:22:16Z</time>
      </trkpt>
      <trkpt lat="40.3103090" lon="-3.8809960">
        <ele>689.4</ele>
        <time>2019-04-28T14:22:17Z</time>
      </trkpt>
      <trkpt lat="40.3102560" lon="-3.8809660">
        <ele>689.2</ele>
        <time>2019-04-28T14:22:18Z</time>
      </trkpt>
      <trkpt lat="40.3102020" lon="-3.8809380">
        <ele>689.0</ele>
        <time>2019-04-28T14:22:19Z</time>
      </trkpt>
      <trkpt lat="40.3101490" lon="-3.8809070">
        <ele>689.0</ele>
        <time>2019-04-28T14:22:20Z</time>
      </trkpt>
      <trkpt lat="40.3100950" lon="-3.8808750">
        <ele>689.2</ele>
        <time>2019-04-28T14:22:21Z</time>
      </trkpt>
      <trkpt lat="40.3100410" lon="-3.8808440">
        <ele>689.0</ele>
        <time>2019-04-28T14:22:22Z</time>
      </trkpt>
      <trkpt lat="40.3099880" lon="-3.8808130">
        <ele>689.0</ele>
        <time>2019-04-28T14:22:23Z</time>
      </trkpt>
      <trkpt lat="40.3099370" lon="-3.8807810">
        <ele>689.0</ele>
        <time>2019-04-28T14:22:24Z</time>
      </trkpt>
      <trkpt lat="40.3098840" lon="-3.8807490">
        <ele>689.0</ele>
        <time>2019-04-28T14:22:25Z</time>
      </trkpt>
      <trkpt lat="40.3098310" lon="-3.8807160">
        <ele>688.8</ele>
        <time>2019-04-28T14:22:26Z</time>
      </trkpt>
      <trkpt lat="40.3097780" lon="-3.8806830">
        <ele>688.8</ele>
        <time>2019-04-28T14:22:27Z</time>
      </trkpt>
      <trkpt lat="40.3097230" lon="-3.8806490">
        <ele>688.6</ele>
        <time>2019-04-28T14:22:28Z</time>
      </trkpt>
      <trkpt lat="40.3096690" lon="-3.8806130">
        <ele>688.4</ele>
        <time>2019-04-28T14:22:29Z</time>
      </trkpt>
      <trkpt lat="40.3096160" lon="-3.8805790">
        <ele>688.0</ele>
        <time>2019-04-28T14:22:30Z</time>
      </trkpt>
      <trkpt lat="40.3095620" lon="-3.8805430">
        <ele>688.0</ele>
        <time>2019-04-28T14:22:31Z</time>
      </trkpt>
      <trkpt lat="40.3095070" lon="-3.8805080">
        <ele>687.8</ele>
        <time>2019-04-28T14:22:32Z</time>
      </trkpt>
      <trkpt lat="40.3094520" lon="-3.8804720">
        <ele>687.6</ele>
        <time>2019-04-28T14:22:33Z</time>
      </trkpt>
      <trkpt lat="40.3093960" lon="-3.8804360">
        <ele>687.6</ele>
        <time>2019-04-28T14:22:34Z</time>
      </trkpt>
      <trkpt lat="40.3093380" lon="-3.8803990">
        <ele>687.6</ele>
        <time>2019-04-28T14:22:35Z</time>
      </trkpt>
      <trkpt lat="40.3092790" lon="-3.8803590">
        <ele>687.4</ele>
        <time>2019-04-28T14:22:36Z</time>
      </trkpt>
      <trkpt lat="40.3092190" lon="-3.8803190">
        <ele>687.0</ele>
        <time>2019-04-28T14:22:37Z</time>
      </trkpt>
      <trkpt lat="40.3091590" lon="-3.8802790">
        <ele>686.8</ele>
        <time>2019-04-28T14:22:38Z</time>
      </trkpt>
      <trkpt lat="40.3090980" lon="-3.8802380">
        <ele>687.0</ele>
        <time>2019-04-28T14:22:39Z</time>
      </trkpt>
      <trkpt lat="40.3090380" lon="-3.8801960">
        <ele>686.6</ele>
        <time>2019-04-28T14:22:40Z</time>
      </trkpt>
      <trkpt lat="40.3089780" lon="-3.8801550">
        <ele>686.4</ele>
        <time>2019-04-28T14:22:41Z</time>
      </trkpt>
      <trkpt lat="40.3089170" lon="-3.8801120">
        <ele>686.0</ele>
        <time>2019-04-28T14:22:42Z</time>
      </trkpt>
      <trkpt lat="40.3088570" lon="-3.8800700">
        <ele>686.0</ele>
        <time>2019-04-28T14:22:43Z</time>
      </trkpt>
      <trkpt lat="40.3087960" lon="-3.8800280">
        <ele>685.6</ele>
        <time>2019-04-28T14:22:44Z</time>
      </trkpt>
      <trkpt lat="40.3087360" lon="-3.8799830">
        <ele>685.4</ele>
        <time>2019-04-28T14:22:45Z</time>
      </trkpt>
      <trkpt lat="40.3086770" lon="-3.8799380">
        <ele>685.4</ele>
        <time>2019-04-28T14:22:46Z</time>
      </trkpt>
      <trkpt lat="40.3086180" lon="-3.8798910">
        <ele>685.2</ele>
        <time>2019-04-28T14:22:47Z</time>
      </trkpt>
      <trkpt lat="40.3085600" lon="-3.8798440">
        <ele>685.2</ele>
        <time>2019-04-28T14:22:48Z</time>
      </trkpt>
      <trkpt lat="40.3085010" lon="-3.8797950">
        <ele>685.0</ele>
        <time>2019-04-28T14:22:49Z</time>
      </trkpt>
      <trkpt lat="40.3084420" lon="-3.8797470">
        <ele>684.8</ele>
        <time>2019-04-28T14:22:50Z</time>
      </trkpt>
      <trkpt lat="40.3083840" lon="-3.8796970">
        <ele>684.8</ele>
        <time>2019-04-28T14:22:51Z</time>
      </trkpt>
      <trkpt lat="40.3083270" lon="-3.8796460">
        <ele>684.6</ele>
        <time>2019-04-28T14:22:52Z</time>
      </trkpt>
      <trkpt lat="40.3082720" lon="-3.8795970">
        <ele>684.4</ele>
        <time>2019-04-28T14:22:53Z</time>
      </trkpt>
      <trkpt lat="40.3082180" lon="-3.8795460">
        <ele>684.2</ele>
        <time>2019-04-28T14:22:54Z</time>
      </trkpt>
      <trkpt lat="40.3081650" lon="-3.8794960">
        <ele>684.0</ele>
        <time>2019-04-28T14:22:55Z</time>
      </trkpt>
      <trkpt lat="40.3081150" lon="-3.8794480">
        <ele>684.0</ele>
        <time>2019-04-28T14:22:56Z</time>
      </trkpt>
      <trkpt lat="40.3080670" lon="-3.8793990">
        <ele>684.2</ele>
        <time>2019-04-28T14:22:57Z</time>
      </trkpt>
      <trkpt lat="40.3080200" lon="-3.8793510">
        <ele>684.0</ele>
        <time>2019-04-28T14:22:58Z</time>
      </trkpt>
      <trkpt lat="40.3079730" lon="-3.8793030">
        <ele>684.0</ele>
        <time>2019-04-28T14:22:59Z</time>
      </trkpt>
      <trkpt lat="40.3079270" lon="-3.8792550">
        <ele>684.0</ele>
        <time>2019-04-28T14:23:00Z</time>
      </trkpt>
      <trkpt lat="40.3078810" lon="-3.8792040">
        <ele>684.0</ele>
        <time>2019-04-28T14:23:01Z</time>
      </trkpt>
      <trkpt lat="40.3078350" lon="-3.8791530">
        <ele>684.0</ele>
        <time>2019-04-28T14:23:02Z</time>
      </trkpt>
      <trkpt lat="40.3077900" lon="-3.8791030">
        <ele>684.0</ele>
        <time>2019-04-28T14:23:03Z</time>
      </trkpt>
      <trkpt lat="40.3077470" lon="-3.8790530">
        <ele>684.0</ele>
        <time>2019-04-28T14:23:04Z</time>
      </trkpt>
      <trkpt lat="40.3077040" lon="-3.8790030">
        <ele>684.0</ele>
        <time>2019-04-28T14:23:05Z</time>
      </trkpt>
      <trkpt lat="40.3076620" lon="-3.8789540">
        <ele>684.0</ele>
        <time>2019-04-28T14:23:06Z</time>
      </trkpt>
      <trkpt lat="40.3076220" lon="-3.8789060">
        <ele>684.0</ele>
        <time>2019-04-28T14:23:07Z</time>
      </trkpt>
      <trkpt lat="40.3075850" lon="-3.8788620">
        <ele>684.0</ele>
        <time>2019-04-28T14:23:08Z</time>
      </trkpt>
      <trkpt lat="40.3075520" lon="-3.8788190">
        <ele>684.0</ele>
        <time>2019-04-28T14:23:09Z</time>
      </trkpt>
      <trkpt lat="40.3075200" lon="-3.8787790">
        <ele>684.2</ele>
        <time>2019-04-28T14:23:10Z</time>
      </trkpt>
      <trkpt lat="40.3074890" lon="-3.8787410">
        <ele>684.2</ele>
        <time>2019-04-28T14:23:11Z</time>
      </trkpt>
      <trkpt lat="40.3074590" lon="-3.8787030">
        <ele>684.2</ele>
        <time>2019-04-28T14:23:12Z</time>
      </trkpt>
      <trkpt lat="40.3074270" lon="-3.8786630">
        <ele>684.2</ele>
        <time>2019-04-28T14:23:13Z</time>
      </trkpt>
      <trkpt lat="40.3073960" lon="-3.8786240">
        <ele>684.2</ele>
        <time>2019-04-28T14:23:14Z</time>
      </trkpt>
      <trkpt lat="40.3073650" lon="-3.8785850">
        <ele>684.2</ele>
        <time>2019-04-28T14:23:15Z</time>
      </trkpt>
      <trkpt lat="40.3073330" lon="-3.8785400">
        <ele>684.2</ele>
        <time>2019-04-28T14:23:16Z</time>
      </trkpt>
      <trkpt lat="40.3073000" lon="-3.8784940">
        <ele>684.2</ele>
        <time>2019-04-28T14:23:17Z</time>
      </trkpt>
      <trkpt lat="40.3072680" lon="-3.8784500">
        <ele>684.2</ele>
        <time>2019-04-28T14:23:18Z</time>
      </trkpt>
      <trkpt lat="40.3072350" lon="-3.8784030">
        <ele>684.2</ele>
        <time>2019-04-28T14:23:19Z</time>
      </trkpt>
      <trkpt lat="40.3072010" lon="-3.8783530">
        <ele>684.4</ele>
        <time>2019-04-28T14:23:20Z</time>
      </trkpt>
      <trkpt lat="40.3071660" lon="-3.8783040">
        <ele>684.4</ele>
        <time>2019-04-28T14:23:21Z</time>
      </trkpt>
      <trkpt lat="40.3071310" lon="-3.8782520">
        <ele>684.0</ele>
        <time>2019-04-28T14:23:22Z</time>
      </trkpt>
      <trkpt lat="40.3070970" lon="-3.8782010">
        <ele>684.2</ele>
        <time>2019-04-28T14:23:23Z</time>
      </trkpt>
      <trkpt lat="40.3070640" lon="-3.8781490">
        <ele>684.2</ele>
        <time>2019-04-28T14:23:24Z</time>
      </trkpt>
      <trkpt lat="40.3070290" lon="-3.8780940">
        <ele>684.2</ele>
        <time>2019-04-28T14:23:25Z</time>
      </trkpt>
      <trkpt lat="40.3069950" lon="-3.8780400">
        <ele>684.2</ele>
        <time>2019-04-28T14:23:26Z</time>
      </trkpt>
      <trkpt lat="40.3069600" lon="-3.8779820">
        <ele>684.2</ele>
        <time>2019-04-28T14:23:27Z</time>
      </trkpt>
      <trkpt lat="40.3069250" lon="-3.8779240">
        <ele>684.2</ele>
        <time>2019-04-28T14:23:28Z</time>
      </trkpt>
      <trkpt lat="40.3068930" lon="-3.8778680">
        <ele>683.8</ele>
        <time>2019-04-28T14:23:29Z</time>
      </trkpt>
      <trkpt lat="40.3068600" lon="-3.8778100">
        <ele>683.6</ele>
        <time>2019-04-28T14:23:30Z</time>
      </trkpt>
      <trkpt lat="40.3068250" lon="-3.8777530">
        <ele>683.6</ele>
        <time>2019-04-28T14:23:31Z</time>
      </trkpt>
      <trkpt lat="40.3067900" lon="-3.8776940">
        <ele>683.6</ele>
        <time>2019-04-28T14:23:32Z</time>
      </trkpt>
      <trkpt lat="40.3067570" lon="-3.8776350">
        <ele>683.6</ele>
        <time>2019-04-28T14:23:33Z</time>
      </trkpt>
      <trkpt lat="40.3067240" lon="-3.8775750">
        <ele>683.6</ele>
        <time>2019-04-28T14:23:34Z</time>
      </trkpt>
      <trkpt lat="40.3066920" lon="-3.8775150">
        <ele>683.6</ele>
        <time>2019-04-28T14:23:35Z</time>
      </trkpt>
      <trkpt lat="40.3066590" lon="-3.8774520">
        <ele>683.6</ele>
        <time>2019-04-28T14:23:36Z</time>
      </trkpt>
      <trkpt lat="40.3066250" lon="-3.8773910">
        <ele>683.4</ele>
        <time>2019-04-28T14:23:37Z</time>
      </trkpt>
      <trkpt lat="40.3065920" lon="-3.8773280">
        <ele>683.4</ele>
        <time>2019-04-28T14:23:38Z</time>
      </trkpt>
      <trkpt lat="40.3065600" lon="-3.8772610">
        <ele>683.4</ele>
        <time>2019-04-28T14:23:39Z</time>
      </trkpt>
      <trkpt lat="40.3065280" lon="-3.8771920">
        <ele>683.4</ele>
        <time>2019-04-28T14:23:40Z</time>
      </trkpt>
      <trkpt lat="40.3064950" lon="-3.8771240">
        <ele>683.4</ele>
        <time>2019-04-28T14:23:41Z</time>
      </trkpt>
      <trkpt lat="40.3064640" lon="-3.8770560">
        <ele>683.2</ele>
        <time>2019-04-28T14:23:42Z</time>
      </trkpt>
      <trkpt lat="40.3064320" lon="-3.8769850">
        <ele>683.6</ele>
        <time>2019-04-28T14:23:43Z</time>
      </trkpt>
      <trkpt lat="40.3063990" lon="-3.8769150">
        <ele>683.2</ele>
        <time>2019-04-28T14:23:44Z</time>
      </trkpt>
      <trkpt lat="40.3063630" lon="-3.8768420">
        <ele>683.0</ele>
        <time>2019-04-28T14:23:45Z</time>
      </trkpt>
      <trkpt lat="40.3063300" lon="-3.8767760">
        <ele>682.8</ele>
        <time>2019-04-28T14:23:46Z</time>
      </trkpt>
      <trkpt lat="40.3062990" lon="-3.8767060">
        <ele>682.8</ele>
        <time>2019-04-28T14:23:47Z</time>
      </trkpt>
      <trkpt lat="40.3062690" lon="-3.8766360">
        <ele>682.6</ele>
        <time>2019-04-28T14:23:48Z</time>
      </trkpt>
      <trkpt lat="40.3062410" lon="-3.8765630">
        <ele>682.8</ele>
        <time>2019-04-28T14:23:49Z</time>
      </trkpt>
      <trkpt lat="40.3062130" lon="-3.8764890">
        <ele>682.6</ele>
        <time>2019-04-28T14:23:50Z</time>
      </trkpt>
      <trkpt lat="40.3061880" lon="-3.8764220">
        <ele>682.4</ele>
        <time>2019-04-28T14:23:51Z</time>
      </trkpt>
      <trkpt lat="40.3061620" lon="-3.8763460">
        <ele>682.0</ele>
        <time>2019-04-28T14:23:52Z</time>
      </trkpt>
      <trkpt lat="40.3061360" lon="-3.8762730">
        <ele>682.4</ele>
        <time>2019-04-28T14:23:53Z</time>
      </trkpt>
      <trkpt lat="40.3061110" lon="-3.8762030">
        <ele>682.0</ele>
        <time>2019-04-28T14:23:54Z</time>
      </trkpt>
      <trkpt lat="40.3060850" lon="-3.8761370">
        <ele>681.8</ele>
        <time>2019-04-28T14:23:55Z</time>
      </trkpt>
      <trkpt lat="40.3060570" lon="-3.8760670">
        <ele>681.8</ele>
        <time>2019-04-28T14:23:56Z</time>
      </trkpt>
      <trkpt lat="40.3060320" lon="-3.8759940">
        <ele>681.2</ele>
        <time>2019-04-28T14:23:57Z</time>
      </trkpt>
      <trkpt lat="40.3060100" lon="-3.8759200">
        <ele>681.2</ele>
        <time>2019-04-28T14:23:58Z</time>
      </trkpt>
      <trkpt lat="40.3059870" lon="-3.8758500">
        <ele>681.2</ele>
        <time>2019-04-28T14:23:59Z</time>
      </trkpt>
      <trkpt lat="40.3059650" lon="-3.8757830">
        <ele>681.4</ele>
        <time>2019-04-28T14:24:00Z</time>
      </trkpt>
      <trkpt lat="40.3059450" lon="-3.8757090">
        <ele>681.4</ele>
        <time>2019-04-28T14:24:01Z</time>
      </trkpt>
      <trkpt lat="40.3059230" lon="-3.8756310">
        <ele>681.2</ele>
        <time>2019-04-28T14:24:02Z</time>
      </trkpt>
      <trkpt lat="40.3059020" lon="-3.8755580">
        <ele>681.2</ele>
        <time>2019-04-28T14:24:03Z</time>
      </trkpt>
      <trkpt lat="40.3058800" lon="-3.8754910">
        <ele>681.2</ele>
        <time>2019-04-28T14:24:04Z</time>
      </trkpt>
      <trkpt lat="40.3058610" lon="-3.8754170">
        <ele>681.0</ele>
        <time>2019-04-28T14:24:05Z</time>
      </trkpt>
      <trkpt lat="40.3058440" lon="-3.8753500">
        <ele>680.8</ele>
        <time>2019-04-28T14:24:06Z</time>
      </trkpt>
      <trkpt lat="40.3058240" lon="-3.8752830">
        <ele>680.8</ele>
        <time>2019-04-28T14:24:07Z</time>
      </trkpt>
      <trkpt lat="40.3058060" lon="-3.8751980">
        <ele>680.6</ele>
        <time>2019-04-28T14:24:08Z</time>
      </trkpt>
      <trkpt lat="40.3057810" lon="-3.8751170">
        <ele>680.6</ele>
        <time>2019-04-28T14:24:09Z</time>
      </trkpt>
      <trkpt lat="40.3057630" lon="-3.8750470">
        <ele>680.6</ele>
        <time>2019-04-28T14:24:10Z</time>
      </trkpt>
      <trkpt lat="40.3057490" lon="-3.8749670">
        <ele>680.6</ele>
        <time>2019-04-28T14:24:11Z</time>
      </trkpt>
      <trkpt lat="40.3057360" lon="-3.8748800">
        <ele>680.6</ele>
        <time>2019-04-28T14:24:12Z</time>
      </trkpt>
      <trkpt lat="40.3057210" lon="-3.8747920">
        <ele>680.2</ele>
        <time>2019-04-28T14:24:13Z</time>
      </trkpt>
      <trkpt lat="40.3057070" lon="-3.8747030">
        <ele>680.0</ele>
        <time>2019-04-28T14:24:14Z</time>
      </trkpt>
      <trkpt lat="40.3056920" lon="-3.8746190">
        <ele>680.2</ele>
        <time>2019-04-28T14:24:15Z</time>
      </trkpt>
      <trkpt lat="40.3056760" lon="-3.8745410">
        <ele>680.2</ele>
        <time>2019-04-28T14:24:16Z</time>
      </trkpt>
      <trkpt lat="40.3056640" lon="-3.8744620">
        <ele>680.2</ele>
        <time>2019-04-28T14:24:17Z</time>
      </trkpt>
      <trkpt lat="40.3056540" lon="-3.8743760">
        <ele>679.8</ele>
        <time>2019-04-28T14:24:18Z</time>
      </trkpt>
      <trkpt lat="40.3056460" lon="-3.8742800">
        <ele>679.8</ele>
        <time>2019-04-28T14:24:19Z</time>
      </trkpt>
      <trkpt lat="40.3056390" lon="-3.8741930">
        <ele>679.6</ele>
        <time>2019-04-28T14:24:20Z</time>
      </trkpt>
      <trkpt lat="40.3056330" lon="-3.8740930">
        <ele>679.8</ele>
        <time>2019-04-28T14:24:21Z</time>
      </trkpt>
      <trkpt lat="40.3056250" lon="-3.8739870">
        <ele>679.4</ele>
        <time>2019-04-28T14:24:22Z</time>
      </trkpt>
      <trkpt lat="40.3056080" lon="-3.8738970">
        <ele>679.4</ele>
        <time>2019-04-28T14:24:23Z</time>
      </trkpt>
      <trkpt lat="40.3055790" lon="-3.8738230">
        <ele>679.4</ele>
        <time>2019-04-28T14:24:24Z</time>
      </trkpt>
      <trkpt lat="40.3055460" lon="-3.8737480">
        <ele>679.2</ele>
        <time>2019-04-28T14:24:25Z</time>
      </trkpt>
      <trkpt lat="40.3055170" lon="-3.8736690">
        <ele>679.0</ele>
        <time>2019-04-28T14:24:26Z</time>
      </trkpt>
      <trkpt lat="40.3054980" lon="-3.8735850">
        <ele>679.0</ele>
        <time>2019-04-28T14:24:27Z</time>
      </trkpt>
      <trkpt lat="40.3054900" lon="-3.8734980">
        <ele>678.8</ele>
        <time>2019-04-28T14:24:28Z</time>
      </trkpt>
      <trkpt lat="40.3054890" lon="-3.8734000">
        <ele>678.8</ele>
        <time>2019-04-28T14:24:29Z</time>
      </trkpt>
      <trkpt lat="40.3054810" lon="-3.8733080">
        <ele>678.8</ele>
        <time>2019-04-28T14:24:30Z</time>
      </trkpt>
      <trkpt lat="40.3054600" lon="-3.8732200">
        <ele>678.6</ele>
        <time>2019-04-28T14:24:31Z</time>
      </trkpt>
      <trkpt lat="40.3054350" lon="-3.8731320">
        <ele>678.6</ele>
        <time>2019-04-28T14:24:32Z</time>
      </trkpt>
      <trkpt lat="40.3054090" lon="-3.8730450">
        <ele>678.8</ele>
        <time>2019-04-28T14:24:33Z</time>
      </trkpt>
      <trkpt lat="40.3053820" lon="-3.8729590">
        <ele>678.6</ele>
        <time>2019-04-28T14:24:34Z</time>
      </trkpt>
      <trkpt lat="40.3053550" lon="-3.8728740">
        <ele>678.0</ele>
        <time>2019-04-28T14:24:35Z</time>
      </trkpt>
      <trkpt lat="40.3053270" lon="-3.8727860">
        <ele>677.0</ele>
        <time>2019-04-28T14:24:36Z</time>
      </trkpt>
      <trkpt lat="40.3052980" lon="-3.8726980">
        <ele>676.6</ele>
        <time>2019-04-28T14:24:37Z</time>
      </trkpt>
      <trkpt lat="40.3052690" lon="-3.8726090">
        <ele>676.0</ele>
        <time>2019-04-28T14:24:38Z</time>
      </trkpt>
      <trkpt lat="40.3052400" lon="-3.8725180">
        <ele>675.6</ele>
        <time>2019-04-28T14:24:39Z</time>
      </trkpt>
      <trkpt lat="40.3052110" lon="-3.8724240">
        <ele>675.6</ele>
        <time>2019-04-28T14:24:40Z</time>
      </trkpt>
      <trkpt lat="40.3051830" lon="-3.8723280">
        <ele>675.4</ele>
        <time>2019-04-28T14:24:41Z</time>
      </trkpt>
      <trkpt lat="40.3051550" lon="-3.8722300">
        <ele>675.2</ele>
        <time>2019-04-28T14:24:42Z</time>
      </trkpt>
      <trkpt lat="40.3051250" lon="-3.8721330">
        <ele>674.6</ele>
        <time>2019-04-28T14:24:43Z</time>
      </trkpt>
      <trkpt lat="40.3050970" lon="-3.8720330">
        <ele>674.4</ele>
        <time>2019-04-28T14:24:44Z</time>
      </trkpt>
      <trkpt lat="40.3050680" lon="-3.8719340">
        <ele>674.2</ele>
        <time>2019-04-28T14:24:45Z</time>
      </trkpt>
      <trkpt lat="40.3050390" lon="-3.8718320">
        <ele>675.0</ele>
        <time>2019-04-28T14:24:46Z</time>
      </trkpt>
      <trkpt lat="40.3050120" lon="-3.8717300">
        <ele>674.6</ele>
        <time>2019-04-28T14:24:47Z</time>
      </trkpt>
      <trkpt lat="40.3049900" lon="-3.8716310">
        <ele>674.8</ele>
        <time>2019-04-28T14:24:48Z</time>
      </trkpt>
      <trkpt lat="40.3049740" lon="-3.8715250">
        <ele>675.2</ele>
        <time>2019-04-28T14:24:49Z</time>
      </trkpt>
      <trkpt lat="40.3049620" lon="-3.8714180">
        <ele>674.0</ele>
        <time>2019-04-28T14:24:50Z</time>
      </trkpt>
      <trkpt lat="40.3049500" lon="-3.8713110">
        <ele>673.8</ele>
        <time>2019-04-28T14:24:51Z</time>
      </trkpt>
      <trkpt lat="40.3049390" lon="-3.8712000">
        <ele>673.4</ele>
        <time>2019-04-28T14:24:52Z</time>
      </trkpt>
      <trkpt lat="40.3049310" lon="-3.8710950">
        <ele>673.2</ele>
        <time>2019-04-28T14:24:53Z</time>
      </trkpt>
      <trkpt lat="40.3049240" lon="-3.8709890">
        <ele>672.6</ele>
        <time>2019-04-28T14:24:54Z</time>
      </trkpt>
      <trkpt lat="40.3049160" lon="-3.8708840">
        <ele>672.6</ele>
        <time>2019-04-28T14:24:55Z</time>
      </trkpt>
      <trkpt lat="40.3049090" lon="-3.8707830">
        <ele>672.4</ele>
        <time>2019-04-28T14:24:56Z</time>
      </trkpt>
      <trkpt lat="40.3049010" lon="-3.8706800">
        <ele>672.4</ele>
        <time>2019-04-28T14:24:57Z</time>
      </trkpt>
      <trkpt lat="40.3048940" lon="-3.8705800">
        <ele>672.4</ele>
        <time>2019-04-28T14:24:58Z</time>
      </trkpt>
      <trkpt lat="40.3048860" lon="-3.8704810">
        <ele>672.4</ele>
        <time>2019-04-28T14:24:59Z</time>
      </trkpt>
      <trkpt lat="40.3048800" lon="-3.8703790">
        <ele>672.8</ele>
        <time>2019-04-28T14:25:00Z</time>
      </trkpt>
      <trkpt lat="40.3048730" lon="-3.8702840">
        <ele>672.6</ele>
        <time>2019-04-28T14:25:01Z</time>
      </trkpt>
      <trkpt lat="40.3048660" lon="-3.8701890">
        <ele>672.8</ele>
        <time>2019-04-28T14:25:02Z</time>
      </trkpt>
      <trkpt lat="40.3048590" lon="-3.8700990">
        <ele>672.6</ele>
        <time>2019-04-28T14:25:03Z</time>
      </trkpt>
      <trkpt lat="40.3048520" lon="-3.8700070">
        <ele>672.2</ele>
        <time>2019-04-28T14:25:04Z</time>
      </trkpt>
      <trkpt lat="40.3048450" lon="-3.8699110">
        <ele>672.4</ele>
        <time>2019-04-28T14:25:05Z</time>
      </trkpt>
      <trkpt lat="40.3048370" lon="-3.8698170">
        <ele>672.0</ele>
        <time>2019-04-28T14:25:06Z</time>
      </trkpt>
      <trkpt lat="40.3048290" lon="-3.8697200">
        <ele>671.8</ele>
        <time>2019-04-28T14:25:07Z</time>
      </trkpt>
      <trkpt lat="40.3048220" lon="-3.8696240">
        <ele>671.8</ele>
        <time>2019-04-28T14:25:08Z</time>
      </trkpt>
      <trkpt lat="40.3048140" lon="-3.8695260">
        <ele>671.6</ele>
        <time>2019-04-28T14:25:09Z</time>
      </trkpt>
      <trkpt lat="40.3048070" lon="-3.8694270">
        <ele>671.4</ele>
        <time>2019-04-28T14:25:10Z</time>
      </trkpt>
      <trkpt lat="40.3048000" lon="-3.8693280">
        <ele>671.2</ele>
        <time>2019-04-28T14:25:11Z</time>
      </trkpt>
      <trkpt lat="40.3047930" lon="-3.8692290">
        <ele>671.2</ele>
        <time>2019-04-28T14:25:12Z</time>
      </trkpt>
      <trkpt lat="40.3047840" lon="-3.8691290">
        <ele>670.8</ele>
        <time>2019-04-28T14:25:13Z</time>
      </trkpt>
      <trkpt lat="40.3047760" lon="-3.8690300">
        <ele>670.8</ele>
        <time>2019-04-28T14:25:14Z</time>
      </trkpt>
      <trkpt lat="40.3047690" lon="-3.8689320">
        <ele>670.8</ele>
        <time>2019-04-28T14:25:15Z</time>
      </trkpt>
      <trkpt lat="40.3047600" lon="-3.8688350">
        <ele>671.0</ele>
        <time>2019-04-28T14:25:16Z</time>
      </trkpt>
      <trkpt lat="40.3047530" lon="-3.8687410">
        <ele>671.2</ele>
        <time>2019-04-28T14:25:17Z</time>
      </trkpt>
      <trkpt lat="40.3047470" lon="-3.8686460">
        <ele>671.2</ele>
        <time>2019-04-28T14:25:18Z</time>
      </trkpt>
      <trkpt lat="40.3047370" lon="-3.8685520">
        <ele>671.2</ele>
        <time>2019-04-28T14:25:19Z</time>
      </trkpt>
      <trkpt lat="40.3047260" lon="-3.8684560">
        <ele>671.2</ele>
        <time>2019-04-28T14:25:20Z</time>
      </trkpt>
      <trkpt lat="40.3047190" lon="-3.8683610">
        <ele>671.6</ele>
        <time>2019-04-28T14:25:21Z</time>
      </trkpt>
      <trkpt lat="40.3047110" lon="-3.8682670">
        <ele>671.6</ele>
        <time>2019-04-28T14:25:22Z</time>
      </trkpt>
      <trkpt lat="40.3047050" lon="-3.8681730">
        <ele>671.6</ele>
        <time>2019-04-28T14:25:23Z</time>
      </trkpt>
      <trkpt lat="40.3047000" lon="-3.8680810">
        <ele>672.0</ele>
        <time>2019-04-28T14:25:24Z</time>
      </trkpt>
      <trkpt lat="40.3046940" lon="-3.8679920">
        <ele>672.4</ele>
        <time>2019-04-28T14:25:25Z</time>
      </trkpt>
      <trkpt lat="40.3046900" lon="-3.8679050">
        <ele>671.8</ele>
        <time>2019-04-28T14:25:26Z</time>
      </trkpt>
      <trkpt lat="40.3046830" lon="-3.8678160">
        <ele>672.2</ele>
        <time>2019-04-28T14:25:27Z</time>
      </trkpt>
      <trkpt lat="40.3046720" lon="-3.8677290">
        <ele>672.6</ele>
        <time>2019-04-28T14:25:28Z</time>
      </trkpt>
      <trkpt lat="40.3046550" lon="-3.8676480">
        <ele>672.8</ele>
        <time>2019-04-28T14:25:29Z</time>
      </trkpt>
      <trkpt lat="40.3046330" lon="-3.8675770">
        <ele>672.8</ele>
        <time>2019-04-28T14:25:30Z</time>
      </trkpt>
      <trkpt lat="40.3046000" lon="-3.8675150">
        <ele>672.8</ele>
        <time>2019-04-28T14:25:31Z</time>
      </trkpt>
      <trkpt lat="40.3045560" lon="-3.8674730">
        <ele>672.6</ele>
        <time>2019-04-28T14:25:32Z</time>
      </trkpt>
      <trkpt lat="40.3045070" lon="-3.8674420">
        <ele>672.6</ele>
        <time>2019-04-28T14:25:33Z</time>
      </trkpt>
      <trkpt lat="40.3044560" lon="-3.8674140">
        <ele>672.6</ele>
        <time>2019-04-28T14:25:34Z</time>
      </trkpt>
      <trkpt lat="40.3044110" lon="-3.8673760">
        <ele>672.6</ele>
        <time>2019-04-28T14:25:35Z</time>
      </trkpt>
      <trkpt lat="40.3043700" lon="-3.8673270">
        <ele>672.6</ele>
        <time>2019-04-28T14:25:36Z</time>
      </trkpt>
      <trkpt lat="40.3043280" lon="-3.8672760">
        <ele>672.8</ele>
        <time>2019-04-28T14:25:37Z</time>
      </trkpt>
      <trkpt lat="40.3042820" lon="-3.8672320">
        <ele>672.8</ele>
        <time>2019-04-28T14:25:38Z</time>
      </trkpt>
      <trkpt lat="40.3042310" lon="-3.8671990">
        <ele>672.8</ele>
        <time>2019-04-28T14:25:39Z</time>
      </trkpt>
      <trkpt lat="40.3041800" lon="-3.8671670">
        <ele>672.6</ele>
        <time>2019-04-28T14:25:40Z</time>
      </trkpt>
      <trkpt lat="40.3041320" lon="-3.8671350">
        <ele>672.2</ele>
        <time>2019-04-28T14:25:41Z</time>
      </trkpt>
      <trkpt lat="40.3040830" lon="-3.8671010">
        <ele>672.2</ele>
        <time>2019-04-28T14:25:42Z</time>
      </trkpt>
      <trkpt lat="40.3040340" lon="-3.8670640">
        <ele>671.8</ele>
        <time>2019-04-28T14:25:43Z</time>
      </trkpt>
      <trkpt lat="40.3039830" lon="-3.8670260">
        <ele>671.6</ele>
        <time>2019-04-28T14:25:44Z</time>
      </trkpt>
      <trkpt lat="40.3039330" lon="-3.8669910">
        <ele>671.4</ele>
        <time>2019-04-28T14:25:45Z</time>
      </trkpt>
      <trkpt lat="40.3038810" lon="-3.8669520">
        <ele>671.2</ele>
        <time>2019-04-28T14:25:46Z</time>
      </trkpt>
      <trkpt lat="40.3038270" lon="-3.8669120">
        <ele>671.0</ele>
        <time>2019-04-28T14:25:47Z</time>
      </trkpt>
      <trkpt lat="40.3037720" lon="-3.8668720">
        <ele>671.0</ele>
        <time>2019-04-28T14:25:48Z</time>
      </trkpt>
      <trkpt lat="40.3037160" lon="-3.8668290">
        <ele>670.6</ele>
        <time>2019-04-28T14:25:49Z</time>
      </trkpt>
      <trkpt lat="40.3036610" lon="-3.8667850">
        <ele>670.4</ele>
        <time>2019-04-28T14:25:50Z</time>
      </trkpt>
      <trkpt lat="40.3036040" lon="-3.8667410">
        <ele>670.2</ele>
        <time>2019-04-28T14:25:51Z</time>
      </trkpt>
      <trkpt lat="40.3035460" lon="-3.8666980">
        <ele>669.8</ele>
        <time>2019-04-28T14:25:52Z</time>
      </trkpt>
      <trkpt lat="40.3034870" lon="-3.8666520">
        <ele>670.0</ele>
        <time>2019-04-28T14:25:53Z</time>
      </trkpt>
      <trkpt lat="40.3034290" lon="-3.8666040">
        <ele>669.8</ele>
        <time>2019-04-28T14:25:54Z</time>
      </trkpt>
      <trkpt lat="40.3033700" lon="-3.8665550">
        <ele>669.2</ele>
        <time>2019-04-28T14:25:55Z</time>
      </trkpt>
      <trkpt lat="40.3033110" lon="-3.8665080">
        <ele>669.2</ele>
        <time>2019-04-28T14:25:56Z</time>
      </trkpt>
      <trkpt lat="40.3032510" lon="-3.8664620">
        <ele>669.0</ele>
        <time>2019-04-28T14:25:57Z</time>
      </trkpt>
      <trkpt lat="40.3031910" lon="-3.8664170">
        <ele>668.2</ele>
        <time>2019-04-28T14:25:58Z</time>
      </trkpt>
      <trkpt lat="40.3031310" lon="-3.8663710">
        <ele>667.8</ele>
        <time>2019-04-28T14:25:59Z</time>
      </trkpt>
      <trkpt lat="40.3030700" lon="-3.8663230">
        <ele>668.0</ele>
        <time>2019-04-28T14:26:00Z</time>
      </trkpt>
      <trkpt lat="40.3030090" lon="-3.8662730">
        <ele>668.0</ele>
        <time>2019-04-28T14:26:01Z</time>
      </trkpt>
      <trkpt lat="40.3029460" lon="-3.8662260">
        <ele>668.0</ele>
        <time>2019-04-28T14:26:02Z</time>
      </trkpt>
      <trkpt lat="40.3028830" lon="-3.8661800">
        <ele>667.8</ele>
        <time>2019-04-28T14:26:03Z</time>
      </trkpt>
      <trkpt lat="40.3028190" lon="-3.8661320">
        <ele>667.6</ele>
        <time>2019-04-28T14:26:04Z</time>
      </trkpt>
      <trkpt lat="40.3027550" lon="-3.8660830">
        <ele>667.4</ele>
        <time>2019-04-28T14:26:05Z</time>
      </trkpt>
      <trkpt lat="40.3026930" lon="-3.8660320">
        <ele>667.2</ele>
        <time>2019-04-28T14:26:06Z</time>
      </trkpt>
      <trkpt lat="40.3026300" lon="-3.8659830">
        <ele>667.0</ele>
        <time>2019-04-28T14:26:07Z</time>
      </trkpt>
      <trkpt lat="40.3025680" lon="-3.8659350">
        <ele>666.8</ele>
        <time>2019-04-28T14:26:08Z</time>
      </trkpt>
      <trkpt lat="40.3025050" lon="-3.8658880">
        <ele>666.8</ele>
        <time>2019-04-28T14:26:09Z</time>
      </trkpt>
      <trkpt lat="40.3024450" lon="-3.8658410">
        <ele>666.6</ele>
        <time>2019-04-28T14:26:10Z</time>
      </trkpt>
      <trkpt lat="40.3023860" lon="-3.8657940">
        <ele>666.8</ele>
        <time>2019-04-28T14:26:11Z</time>
      </trkpt>
      <trkpt lat="40.3023230" lon="-3.8657580">
        <ele>666.8</ele>
        <time>2019-04-28T14:26:12Z</time>
      </trkpt>
      <trkpt lat="40.3022540" lon="-3.8657550">
        <ele>666.8</ele>
        <time>2019-04-28T14:26:13Z</time>
      </trkpt>
      <trkpt lat="40.3021870" lon="-3.8657790">
        <ele>667.0</ele>
        <time>2019-04-28T14:26:14Z</time>
      </trkpt>
      <trkpt lat="40.3021170" lon="-3.8657970">
        <ele>667.0</ele>
        <time>2019-04-28T14:26:15Z</time>
      </trkpt>
      <trkpt lat="40.3020450" lon="-3.8657980">
        <ele>666.8</ele>
        <time>2019-04-28T14:26:16Z</time>
      </trkpt>
      <trkpt lat="40.3019730" lon="-3.8657810">
        <ele>666.8</ele>
        <time>2019-04-28T14:26:17Z</time>
      </trkpt>
      <trkpt lat="40.3019060" lon="-3.8657400">
        <ele>666.8</ele>
        <time>2019-04-28T14:26:18Z</time>
      </trkpt>
      <trkpt lat="40.3018480" lon="-3.8656820">
        <ele>667.0</ele>
        <time>2019-04-28T14:26:19Z</time>
      </trkpt>
      <trkpt lat="40.3018040" lon="-3.8656090">
        <ele>667.0</ele>
        <time>2019-04-28T14:26:20Z</time>
      </trkpt>
      <trkpt lat="40.3017760" lon="-3.8655270">
        <ele>667.2</ele>
        <time>2019-04-28T14:26:21Z</time>
      </trkpt>
      <trkpt lat="40.3017550" lon="-3.8654480">
        <ele>667.4</ele>
        <time>2019-04-28T14:26:22Z</time>
      </trkpt>
      <trkpt lat="40.3017260" lon="-3.8653850">
        <ele>667.4</ele>
        <time>2019-04-28T14:26:23Z</time>
      </trkpt>
      <trkpt lat="40.3016860" lon="-3.8653490">
        <ele>667.4</ele>
        <time>2019-04-28T14:26:24Z</time>
      </trkpt>
      <trkpt lat="40.3016400" lon="-3.8653420">
        <ele>668.4</ele>
        <time>2019-04-28T14:26:25Z</time>
      </trkpt>
      <trkpt lat="40.3015930" lon="-3.8653390">
        <ele>669.2</ele>
        <time>2019-04-28T14:26:26Z</time>
      </trkpt>
      <trkpt lat="40.3015480" lon="-3.8653310">
        <ele>670.0</ele>
        <time>2019-04-28T14:26:27Z</time>
      </trkpt>
      <trkpt lat="40.3015060" lon="-3.8653150">
        <ele>670.8</ele>
        <time>2019-04-28T14:26:28Z</time>
      </trkpt>
      <trkpt lat="40.3014720" lon="-3.8652830">
        <ele>671.2</ele>
        <time>2019-04-28T14:26:29Z</time>
      </trkpt>
      <trkpt lat="40.3014400" lon="-3.8652390">
        <ele>671.8</ele>
        <time>2019-04-28T14:26:30Z</time>
      </trkpt>
      <trkpt lat="40.3014050" lon="-3.8651970">
        <ele>672.2</ele>
        <time>2019-04-28T14:26:31Z</time>
      </trkpt>
      <trkpt lat="40.3013680" lon="-3.8651600">
        <ele>672.8</ele>
        <time>2019-04-28T14:26:32Z</time>
      </trkpt>
      <trkpt lat="40.3013330" lon="-3.8651180">
        <ele>673.0</ele>
        <time>2019-04-28T14:26:33Z</time>
      </trkpt>
      <trkpt lat="40.3012940" lon="-3.8650720">
        <ele>673.6</ele>
        <time>2019-04-28T14:26:34Z</time>
      </trkpt>
      <trkpt lat="40.3012550" lon="-3.8650310">
        <ele>673.8</ele>
        <time>2019-04-28T14:26:35Z</time>
      </trkpt>
      <trkpt lat="40.3012180" lon="-3.8649900">
        <ele>674.0</ele>
        <time>2019-04-28T14:26:36Z</time>
      </trkpt>
      <trkpt lat="40.3011800" lon="-3.8649530">
        <ele>674.2</ele>
        <time>2019-04-28T14:26:37Z</time>
      </trkpt>
      <trkpt lat="40.3011400" lon="-3.8649250">
        <ele>674.4</ele>
        <time>2019-04-28T14:26:38Z</time>
      </trkpt>
      <trkpt lat="40.3010990" lon="-3.8648990">
        <ele>674.2</ele>
        <time>2019-04-28T14:26:39Z</time>
      </trkpt>
      <trkpt lat="40.3010570" lon="-3.8648730">
        <ele>674.0</ele>
        <time>2019-04-28T14:26:40Z</time>
      </trkpt>
      <trkpt lat="40.3010160" lon="-3.8648400">
        <ele>673.8</ele>
        <time>2019-04-28T14:26:41Z</time>
      </trkpt>
      <trkpt lat="40.3009710" lon="-3.8648030">
        <ele>673.6</ele>
        <time>2019-04-28T14:26:42Z</time>
      </trkpt>
      <trkpt lat="40.3009260" lon="-3.8647620">
        <ele>673.2</ele>
        <time>2019-04-28T14:26:43Z</time>
      </trkpt>
      <trkpt lat="40.3008780" lon="-3.8647200">
        <ele>672.8</ele>
        <time>2019-04-28T14:26:44Z</time>
      </trkpt>
      <trkpt lat="40.3008320" lon="-3.8646680">
        <ele>672.6</ele>
        <time>2019-04-28T14:26:45Z</time>
      </trkpt>
      <trkpt lat="40.3007880" lon="-3.8646080">
        <ele>672.2</ele>
        <time>2019-04-28T14:26:46Z</time>
      </trkpt>
      <trkpt lat="40.3007350" lon="-3.8645510">
        <ele>671.6</ele>
        <time>2019-04-28T14:26:47Z</time>
      </trkpt>
      <trkpt lat="40.3006700" lon="-3.8645090">
        <ele>671.0</ele>
        <time>2019-04-28T14:26:48Z</time>
      </trkpt>
      <trkpt lat="40.3005990" lon="-3.8644790">
        <ele>670.4</ele>
        <time>2019-04-28T14:26:49Z</time>
      </trkpt>
      <trkpt lat="40.3005300" lon="-3.8644390">
        <ele>669.8</ele>
        <time>2019-04-28T14:26:50Z</time>
      </trkpt>
      <trkpt lat="40.3004640" lon="-3.8643870">
        <ele>669.0</ele>
        <time>2019-04-28T14:26:51Z</time>
      </trkpt>
      <trkpt lat="40.3003990" lon="-3.8643290">
        <ele>668.8</ele>
        <time>2019-04-28T14:26:52Z</time>
      </trkpt>
      <trkpt lat="40.3003370" lon="-3.8642770">
        <ele>668.6</ele>
        <time>2019-04-28T14:26:53Z</time>
      </trkpt>
      <trkpt lat="40.3002740" lon="-3.8642340">
        <ele>668.2</ele>
        <time>2019-04-28T14:26:54Z</time>
      </trkpt>
      <trkpt lat="40.3002120" lon="-3.8641970">
        <ele>667.8</ele>
        <time>2019-04-28T14:26:55Z</time>
      </trkpt>
      <trkpt lat="40.3001510" lon="-3.8641650">
        <ele>667.2</ele>
        <time>2019-04-28T14:26:56Z</time>
      </trkpt>
      <trkpt lat="40.3000900" lon="-3.8641360">
        <ele>667.0</ele>
        <time>2019-04-28T14:26:57Z</time>
      </trkpt>
      <trkpt lat="40.3000260" lon="-3.8641150">
        <ele>666.4</ele>
        <time>2019-04-28T14:26:58Z</time>
      </trkpt>
      <trkpt lat="40.2999620" lon="-3.8640950">
        <ele>666.0</ele>
        <time>2019-04-28T14:26:59Z</time>
      </trkpt>
      <trkpt lat="40.2999010" lon="-3.8640720">
        <ele>665.6</ele>
        <time>2019-04-28T14:27:00Z</time>
      </trkpt>
      <trkpt lat="40.2998450" lon="-3.8640440">
        <ele>665.2</ele>
        <time>2019-04-28T14:27:01Z</time>
      </trkpt>
      <trkpt lat="40.2997980" lon="-3.8640130">
        <ele>665.0</ele>
        <time>2019-04-28T14:27:02Z</time>
      </trkpt>
      <trkpt lat="40.2997610" lon="-3.8639800">
        <ele>664.6</ele>
        <time>2019-04-28T14:27:03Z</time>
      </trkpt>
      <trkpt lat="40.2997380" lon="-3.8639420">
        <ele>664.2</ele>
        <time>2019-04-28T14:27:04Z</time>
      </trkpt>
      <trkpt lat="40.2997310" lon="-3.8638950">
        <ele>664.2</ele>
        <time>2019-04-28T14:27:05Z</time>
      </trkpt>
      <trkpt lat="40.2997390" lon="-3.8638380">
        <ele>664.2</ele>
        <time>2019-04-28T14:27:06Z</time>
      </trkpt>
      <trkpt lat="40.2997450" lon="-3.8637760">
        <ele>664.2</ele>
        <time>2019-04-28T14:27:07Z</time>
      </trkpt>
      <trkpt lat="40.2997530" lon="-3.8637100">
        <ele>664.2</ele>
        <time>2019-04-28T14:27:08Z</time>
      </trkpt>
      <trkpt lat="40.2997650" lon="-3.8636410">
        <ele>664.4</ele>
        <time>2019-04-28T14:27:09Z</time>
      </trkpt>
      <trkpt lat="40.2997850" lon="-3.8635730">
        <ele>664.4</ele>
        <time>2019-04-28T14:27:10Z</time>
      </trkpt>
      <trkpt lat="40.2998120" lon="-3.8635050">
        <ele>664.2</ele>
        <time>2019-04-28T14:27:11Z</time>
      </trkpt>
      <trkpt lat="40.2998450" lon="-3.8634420">
        <ele>664.2</ele>
        <time>2019-04-28T14:27:12Z</time>
      </trkpt>
      <trkpt lat="40.2998810" lon="-3.8633800">
        <ele>664.2</ele>
        <time>2019-04-28T14:27:13Z</time>
      </trkpt>
      <trkpt lat="40.2999160" lon="-3.8633170">
        <ele>664.2</ele>
        <time>2019-04-28T14:27:14Z</time>
      </trkpt>
      <trkpt lat="40.2999500" lon="-3.8632540">
        <ele>664.2</ele>
        <time>2019-04-28T14:27:15Z</time>
      </trkpt>
      <trkpt lat="40.2999860" lon="-3.8631930">
        <ele>664.2</ele>
        <time>2019-04-28T14:27:16Z</time>
      </trkpt>
      <trkpt lat="40.3000210" lon="-3.8631320">
        <ele>664.4</ele>
        <time>2019-04-28T14:27:17Z</time>
      </trkpt>
      <trkpt lat="40.3000550" lon="-3.8630700">
        <ele>664.4</ele>
        <time>2019-04-28T14:27:18Z</time>
      </trkpt>
      <trkpt lat="40.3000880" lon="-3.8630080">
        <ele>664.6</ele>
        <time>2019-04-28T14:27:19Z</time>
      </trkpt>
      <trkpt lat="40.3001230" lon="-3.8629490">
        <ele>664.8</ele>
        <time>2019-04-28T14:27:20Z</time>
      </trkpt>
      <trkpt lat="40.3001570" lon="-3.8628890">
        <ele>664.8</ele>
        <time>2019-04-28T14:27:21Z</time>
      </trkpt>
      <trkpt lat="40.3001900" lon="-3.8628290">
        <ele>665.0</ele>
        <time>2019-04-28T14:27:22Z</time>
      </trkpt>
      <trkpt lat="40.3002230" lon="-3.8627710">
        <ele>665.4</ele>
        <time>2019-04-28T14:27:23Z</time>
      </trkpt>
      <trkpt lat="40.3002550" lon="-3.8627120">
        <ele>665.2</ele>
        <time>2019-04-28T14:27:24Z</time>
      </trkpt>
      <trkpt lat="40.3002870" lon="-3.8626530">
        <ele>665.2</ele>
        <time>2019-04-28T14:27:25Z</time>
      </trkpt>
      <trkpt lat="40.3003210" lon="-3.8625980">
        <ele>665.4</ele>
        <time>2019-04-28T14:27:26Z</time>
      </trkpt>
      <trkpt lat="40.3003540" lon="-3.8625400">
        <ele>665.4</ele>
        <time>2019-04-28T14:27:27Z</time>
      </trkpt>
      <trkpt lat="40.3003890" lon="-3.8624830">
        <ele>665.6</ele>
        <time>2019-04-28T14:27:28Z</time>
      </trkpt>
      <trkpt lat="40.3004220" lon="-3.8624260">
        <ele>665.8</ele>
        <time>2019-04-28T14:27:29Z</time>
      </trkpt>
      <trkpt lat="40.3004570" lon="-3.8623710">
        <ele>666.0</ele>
        <time>2019-04-28T14:27:30Z</time>
      </trkpt>
      <trkpt lat="40.3004920" lon="-3.8623140">
        <ele>666.2</ele>
        <time>2019-04-28T14:27:31Z</time>
      </trkpt>
      <trkpt lat="40.3005280" lon="-3.8622560">
        <ele>666.2</ele>
        <time>2019-04-28T14:27:32Z</time>
      </trkpt>
      <trkpt lat="40.3005660" lon="-3.8621990">
        <ele>666.2</ele>
        <time>2019-04-28T14:27:33Z</time>
      </trkpt>
      <trkpt lat="40.3006030" lon="-3.8621370">
        <ele>666.2</ele>
        <time>2019-04-28T14:27:34Z</time>
      </trkpt>
      <trkpt lat="40.3006370" lon="-3.8620760">
        <ele>666.4</ele>
        <time>2019-04-28T14:27:35Z</time>
      </trkpt>
      <trkpt lat="40.3006700" lon="-3.8620140">
        <ele>666.6</ele>
        <time>2019-04-28T14:27:36Z</time>
      </trkpt>
      <trkpt lat="40.3007050" lon="-3.8619550">
        <ele>666.4</ele>
        <time>2019-04-28T14:27:37Z</time>
      </trkpt>
      <trkpt lat="40.3007410" lon="-3.8618970">
        <ele>666.2</ele>
        <time>2019-04-28T14:27:38Z</time>
      </trkpt>
      <trkpt lat="40.3007790" lon="-3.8618410">
        <ele>666.2</ele>
        <time>2019-04-28T14:27:39Z</time>
      </trkpt>
      <trkpt lat="40.3008160" lon="-3.8617850">
        <ele>666.0</ele>
        <time>2019-04-28T14:27:40Z</time>
      </trkpt>
      <trkpt lat="40.3008510" lon="-3.8617260">
        <ele>665.8</ele>
        <time>2019-04-28T14:27:41Z</time>
      </trkpt>
      <trkpt lat="40.3008840" lon="-3.8616680">
        <ele>665.6</ele>
        <time>2019-04-28T14:27:42Z</time>
      </trkpt>
      <trkpt lat="40.3009140" lon="-3.8616090">
        <ele>665.8</ele>
        <time>2019-04-28T14:27:43Z</time>
      </trkpt>
      <trkpt lat="40.3009410" lon="-3.8615470">
        <ele>665.8</ele>
        <time>2019-04-28T14:27:44Z</time>
      </trkpt>
      <trkpt lat="40.3009670" lon="-3.8614860">
        <ele>665.6</ele>
        <time>2019-04-28T14:27:45Z</time>
      </trkpt>
      <trkpt lat="40.3009940" lon="-3.8614270">
        <ele>665.8</ele>
        <time>2019-04-28T14:27:46Z</time>
      </trkpt>
      <trkpt lat="40.3010250" lon="-3.8613720">
        <ele>666.4</ele>
        <time>2019-04-28T14:27:47Z</time>
      </trkpt>
      <trkpt lat="40.3010570" lon="-3.8613200">
        <ele>666.8</ele>
        <time>2019-04-28T14:27:48Z</time>
      </trkpt>
      <trkpt lat="40.3010870" lon="-3.8612700">
        <ele>667.0</ele>
        <time>2019-04-28T14:27:49Z</time>
      </trkpt>
      <trkpt lat="40.3011140" lon="-3.8612230">
        <ele>667.2</ele>
        <time>2019-04-28T14:27:50Z</time>
      </trkpt>
      <trkpt lat="40.3011400" lon="-3.8611780">
        <ele>667.4</ele>
        <time>2019-04-28T14:27:51Z</time>
      </trkpt>
      <trkpt lat="40.3011670" lon="-3.8611330">
        <ele>667.8</ele>
        <time>2019-04-28T14:27:52Z</time>
      </trkpt>
      <trkpt lat="40.3011930" lon="-3.8610870">
        <ele>667.8</ele>
        <time>2019-04-28T14:27:53Z</time>
      </trkpt>
      <trkpt lat="40.3012190" lon="-3.8610400">
        <ele>668.0</ele>
        <time>2019-04-28T14:27:54Z</time>
      </trkpt>
      <trkpt lat="40.3012450" lon="-3.8609930">
        <ele>668.4</ele>
        <time>2019-04-28T14:27:55Z</time>
      </trkpt>
      <trkpt lat="40.3012720" lon="-3.8609450">
        <ele>668.4</ele>
        <time>2019-04-28T14:27:56Z</time>
      </trkpt>
      <trkpt lat="40.3012990" lon="-3.8608980">
        <ele>668.6</ele>
        <time>2019-04-28T14:27:57Z</time>
      </trkpt>
      <trkpt lat="40.3013250" lon="-3.8608500">
        <ele>668.8</ele>
        <time>2019-04-28T14:27:58Z</time>
      </trkpt>
      <trkpt lat="40.3013510" lon="-3.8608010">
        <ele>669.2</ele>
        <time>2019-04-28T14:27:59Z</time>
      </trkpt>
      <trkpt lat="40.3013760" lon="-3.8607520">
        <ele>669.4</ele>
        <time>2019-04-28T14:28:00Z</time>
      </trkpt>
      <trkpt lat="40.3014020" lon="-3.8607040">
        <ele>669.4</ele>
        <time>2019-04-28T14:28:01Z</time>
      </trkpt>
      <trkpt lat="40.3014300" lon="-3.8606550">
        <ele>669.6</ele>
        <time>2019-04-28T14:28:02Z</time>
      </trkpt>
      <trkpt lat="40.3014570" lon="-3.8606050">
        <ele>669.8</ele>
        <time>2019-04-28T14:28:03Z</time>
      </trkpt>
      <trkpt lat="40.3014860" lon="-3.8605550">
        <ele>670.0</ele>
        <time>2019-04-28T14:28:04Z</time>
      </trkpt>
      <trkpt lat="40.3015140" lon="-3.8605050">
        <ele>670.2</ele>
        <time>2019-04-28T14:28:05Z</time>
      </trkpt>
      <trkpt lat="40.3015440" lon="-3.8604550">
        <ele>670.2</ele>
        <time>2019-04-28T14:28:06Z</time>
      </trkpt>
      <trkpt lat="40.3015760" lon="-3.8604050">
        <ele>670.4</ele>
        <time>2019-04-28T14:28:07Z</time>
      </trkpt>
      <trkpt lat="40.3016060" lon="-3.8603540">
        <ele>670.2</ele>
        <time>2019-04-28T14:28:08Z</time>
      </trkpt>
      <trkpt lat="40.3016370" lon="-3.8603030">
        <ele>670.4</ele>
        <time>2019-04-28T14:28:09Z</time>
      </trkpt>
      <trkpt lat="40.3016680" lon="-3.8602520">
        <ele>670.4</ele>
        <time>2019-04-28T14:28:10Z</time>
      </trkpt>
      <trkpt lat="40.3016990" lon="-3.8602010">
        <ele>670.4</ele>
        <time>2019-04-28T14:28:11Z</time>
      </trkpt>
      <trkpt lat="40.3017280" lon="-3.8601470">
        <ele>670.6</ele>
        <time>2019-04-28T14:28:12Z</time>
      </trkpt>
      <trkpt lat="40.3017570" lon="-3.8600940">
        <ele>670.2</ele>
        <time>2019-04-28T14:28:13Z</time>
      </trkpt>
      <trkpt lat="40.3017870" lon="-3.8600400">
        <ele>670.2</ele>
        <time>2019-04-28T14:28:14Z</time>
      </trkpt>
      <trkpt lat="40.3018190" lon="-3.8599870">
        <ele>670.0</ele>
        <time>2019-04-28T14:28:15Z</time>
      </trkpt>
      <trkpt lat="40.3018510" lon="-3.8599350">
        <ele>670.0</ele>
        <time>2019-04-28T14:28:16Z</time>
      </trkpt>
      <trkpt lat="40.3018800" lon="-3.8598830">
        <ele>670.0</ele>
        <time>2019-04-28T14:28:17Z</time>
      </trkpt>
      <trkpt lat="40.3019100" lon="-3.8598350">
        <ele>669.8</ele>
        <time>2019-04-28T14:28:18Z</time>
      </trkpt>
      <trkpt lat="40.3019410" lon="-3.8597890">
        <ele>669.8</ele>
        <time>2019-04-28T14:28:19Z</time>
      </trkpt>
      <trkpt lat="40.3019690" lon="-3.8597440">
        <ele>669.6</ele>
        <time>2019-04-28T14:28:20Z</time>
      </trkpt>
      <trkpt lat="40.3019980" lon="-3.8596980">
        <ele>669.6</ele>
        <time>2019-04-28T14:28:21Z</time>
      </trkpt>
      <trkpt lat="40.3020260" lon="-3.8596510">
        <ele>669.8</ele>
        <time>2019-04-28T14:28:22Z</time>
      </trkpt>
      <trkpt lat="40.3020510" lon="-3.8595990">
        <ele>669.8</ele>
        <time>2019-04-28T14:28:23Z</time>
      </trkpt>
      <trkpt lat="40.3020740" lon="-3.8595450">
        <ele>669.8</ele>
        <time>2019-04-28T14:28:24Z</time>
      </trkpt>
      <trkpt lat="40.3020980" lon="-3.8594920">
        <ele>669.8</ele>
        <time>2019-04-28T14:28:25Z</time>
      </trkpt>
      <trkpt lat="40.3021250" lon="-3.8594410">
        <ele>669.8</ele>
        <time>2019-04-28T14:28:26Z</time>
      </trkpt>
      <trkpt lat="40.3021540" lon="-3.8593890">
        <ele>669.8</ele>
        <time>2019-04-28T14:28:27Z</time>
      </trkpt>
      <trkpt lat="40.3021830" lon="-3.8593380">
        <ele>670.0</ele>
        <time>2019-04-28T14:28:28Z</time>
      </trkpt>
      <trkpt lat="40.3022110" lon="-3.8592860">
        <ele>670.0</ele>
        <time>2019-04-28T14:28:29Z</time>
      </trkpt>
      <trkpt lat="40.3022390" lon="-3.8592330">
        <ele>670.0</ele>
        <time>2019-04-28T14:28:30Z</time>
      </trkpt>
      <trkpt lat="40.3022690" lon="-3.8591810">
        <ele>670.0</ele>
        <time>2019-04-28T14:28:31Z</time>
      </trkpt>
      <trkpt lat="40.3022990" lon="-3.8591290">
        <ele>670.0</ele>
        <time>2019-04-28T14:28:32Z</time>
      </trkpt>
      <trkpt lat="40.3023270" lon="-3.8590720">
        <ele>670.0</ele>
        <time>2019-04-28T14:28:33Z</time>
      </trkpt>
      <trkpt lat="40.3023530" lon="-3.8590130">
        <ele>669.8</ele>
        <time>2019-04-28T14:28:34Z</time>
      </trkpt>
      <trkpt lat="40.3023800" lon="-3.8589540">
        <ele>669.8</ele>
        <time>2019-04-28T14:28:35Z</time>
      </trkpt>
      <trkpt lat="40.3024090" lon="-3.8588980">
        <ele>670.0</ele>
        <time>2019-04-28T14:28:36Z</time>
      </trkpt>
      <trkpt lat="40.3024390" lon="-3.8588420">
        <ele>670.2</ele>
        <time>2019-04-28T14:28:37Z</time>
      </trkpt>
      <trkpt lat="40.3024680" lon="-3.8587880">
        <ele>670.4</ele>
        <time>2019-04-28T14:28:38Z</time>
      </trkpt>
      <trkpt lat="40.3024970" lon="-3.8587330">
        <ele>670.4</ele>
        <time>2019-04-28T14:28:39Z</time>
      </trkpt>
      <trkpt lat="40.3025300" lon="-3.8586780">
        <ele>670.4</ele>
        <time>2019-04-28T14:28:40Z</time>
      </trkpt>
      <trkpt lat="40.3025610" lon="-3.8586220">
        <ele>670.4</ele>
        <time>2019-04-28T14:28:41Z</time>
      </trkpt>
      <trkpt lat="40.3025890" lon="-3.8585660">
        <ele>670.6</ele>
        <time>2019-04-28T14:28:42Z</time>
      </trkpt>
      <trkpt lat="40.3026180" lon="-3.8585120">
        <ele>670.6</ele>
        <time>2019-04-28T14:28:43Z</time>
      </trkpt>
      <trkpt lat="40.3026470" lon="-3.8584570">
        <ele>670.4</ele>
        <time>2019-04-28T14:28:44Z</time>
      </trkpt>
      <trkpt lat="40.3026760" lon="-3.8584020">
        <ele>670.6</ele>
        <time>2019-04-28T14:28:45Z</time>
      </trkpt>
      <trkpt lat="40.3027050" lon="-3.8583430">
        <ele>670.6</ele>
        <time>2019-04-28T14:28:46Z</time>
      </trkpt>
      <trkpt lat="40.3027360" lon="-3.8582860">
        <ele>670.4</ele>
        <time>2019-04-28T14:28:47Z</time>
      </trkpt>
      <trkpt lat="40.3027660" lon="-3.8582260">
        <ele>670.4</ele>
        <time>2019-04-28T14:28:48Z</time>
      </trkpt>
      <trkpt lat="40.3027950" lon="-3.8581640">
        <ele>670.4</ele>
        <time>2019-04-28T14:28:49Z</time>
      </trkpt>
      <trkpt lat="40.3028250" lon="-3.8581030">
        <ele>670.4</ele>
        <time>2019-04-28T14:28:50Z</time>
      </trkpt>
      <trkpt lat="40.3028560" lon="-3.8580420">
        <ele>670.4</ele>
        <time>2019-04-28T14:28:51Z</time>
      </trkpt>
      <trkpt lat="40.3028870" lon="-3.8579810">
        <ele>670.6</ele>
        <time>2019-04-28T14:28:52Z</time>
      </trkpt>
      <trkpt lat="40.3029190" lon="-3.8579210">
        <ele>670.6</ele>
        <time>2019-04-28T14:28:53Z</time>
      </trkpt>
      <trkpt lat="40.3029510" lon="-3.8578610">
        <ele>670.6</ele>
        <time>2019-04-28T14:28:54Z</time>
      </trkpt>
      <trkpt lat="40.3029850" lon="-3.8578060">
        <ele>670.6</ele>
        <time>2019-04-28T14:28:55Z</time>
      </trkpt>
      <trkpt lat="40.3030180" lon="-3.8577530">
        <ele>670.6</ele>
        <time>2019-04-28T14:28:56Z</time>
      </trkpt>
      <trkpt lat="40.3030490" lon="-3.8577020">
        <ele>670.6</ele>
        <time>2019-04-28T14:28:57Z</time>
      </trkpt>
      <trkpt lat="40.3030800" lon="-3.8576560">
        <ele>670.6</ele>
        <time>2019-04-28T14:28:58Z</time>
      </trkpt>
      <trkpt lat="40.3031100" lon="-3.8576120">
        <ele>670.8</ele>
        <time>2019-04-28T14:28:59Z</time>
      </trkpt>
      <trkpt lat="40.3031410" lon="-3.8575640">
        <ele>670.8</ele>
        <time>2019-04-28T14:29:00Z</time>
      </trkpt>
      <trkpt lat="40.3031750" lon="-3.8575140">
        <ele>670.6</ele>
        <time>2019-04-28T14:29:01Z</time>
      </trkpt>
      <trkpt lat="40.3032090" lon="-3.8574630">
        <ele>670.8</ele>
        <time>2019-04-28T14:29:02Z</time>
      </trkpt>
      <trkpt lat="40.3032450" lon="-3.8574100">
        <ele>670.8</ele>
        <time>2019-04-28T14:29:03Z</time>
      </trkpt>
      <trkpt lat="40.3032830" lon="-3.8573560">
        <ele>670.6</ele>
        <time>2019-04-28T14:29:04Z</time>
      </trkpt>
      <trkpt lat="40.3033200" lon="-3.8572960">
        <ele>670.6</ele>
        <time>2019-04-28T14:29:05Z</time>
      </trkpt>
      <trkpt lat="40.3033540" lon="-3.8572390">
        <ele>670.4</ele>
        <time>2019-04-28T14:29:06Z</time>
      </trkpt>
      <trkpt lat="40.3033840" lon="-3.8571840">
        <ele>670.2</ele>
        <time>2019-04-28T14:29:07Z</time>
      </trkpt>
      <trkpt lat="40.3034150" lon="-3.8571330">
        <ele>670.4</ele>
        <time>2019-04-28T14:29:08Z</time>
      </trkpt>
      <trkpt lat="40.3034430" lon="-3.8570820">
        <ele>670.2</ele>
        <time>2019-04-28T14:29:09Z</time>
      </trkpt>
      <trkpt lat="40.3034700" lon="-3.8570260">
        <ele>670.0</ele>
        <time>2019-04-28T14:29:10Z</time>
      </trkpt>
      <trkpt lat="40.3035000" lon="-3.8569710">
        <ele>670.0</ele>
        <time>2019-04-28T14:29:11Z</time>
      </trkpt>
      <trkpt lat="40.3035360" lon="-3.8569190">
        <ele>669.8</ele>
        <time>2019-04-28T14:29:12Z</time>
      </trkpt>
      <trkpt lat="40.3035750" lon="-3.8568670">
        <ele>669.8</ele>
        <time>2019-04-28T14:29:13Z</time>
      </trkpt>
      <trkpt lat="40.3036100" lon="-3.8568110">
        <ele>670.0</ele>
        <time>2019-04-28T14:29:14Z</time>
      </trkpt>
      <trkpt lat="40.3036430" lon="-3.8567500">
        <ele>670.2</ele>
        <time>2019-04-28T14:29:15Z</time>
      </trkpt>
      <trkpt lat="40.3036760" lon="-3.8566900">
        <ele>670.4</ele>
        <time>2019-04-28T14:29:16Z</time>
      </trkpt>
      <trkpt lat="40.3037070" lon="-3.8566320">
        <ele>670.6</ele>
        <time>2019-04-28T14:29:17Z</time>
      </trkpt>
      <trkpt lat="40.3037370" lon="-3.8565780">
        <ele>670.8</ele>
        <time>2019-04-28T14:29:18Z</time>
      </trkpt>
      <trkpt lat="40.3037670" lon="-3.8565270">
        <ele>671.4</ele>
        <time>2019-04-28T14:29:19Z</time>
      </trkpt>
      <trkpt lat="40.3037970" lon="-3.8564790">
        <ele>671.8</ele>
        <time>2019-04-28T14:29:20Z</time>
      </trkpt>
      <trkpt lat="40.3038270" lon="-3.8564320">
        <ele>672.4</ele>
        <time>2019-04-28T14:29:21Z</time>
      </trkpt>
      <trkpt lat="40.3038560" lon="-3.8563850">
        <ele>672.6</ele>
        <time>2019-04-28T14:29:22Z</time>
      </trkpt>
      <trkpt lat="40.3038840" lon="-3.8563380">
        <ele>673.0</ele>
        <time>2019-04-28T14:29:23Z</time>
      </trkpt>
      <trkpt lat="40.3039130" lon="-3.8562920">
        <ele>673.0</ele>
        <time>2019-04-28T14:29:24Z</time>
      </trkpt>
      <trkpt lat="40.3039420" lon="-3.8562460">
        <ele>673.4</ele>
        <time>2019-04-28T14:29:25Z</time>
      </trkpt>
      <trkpt lat="40.3039710" lon="-3.8561990">
        <ele>673.6</ele>
        <time>2019-04-28T14:29:26Z</time>
      </trkpt>
      <trkpt lat="40.3039990" lon="-3.8561520">
        <ele>673.6</ele>
        <time>2019-04-28T14:29:27Z</time>
      </trkpt>
      <trkpt lat="40.3040260" lon="-3.8561020">
        <ele>673.6</ele>
        <time>2019-04-28T14:29:28Z</time>
      </trkpt>
      <trkpt lat="40.3040560" lon="-3.8560550">
        <ele>673.6</ele>
        <time>2019-04-28T14:29:29Z</time>
      </trkpt>
      <trkpt lat="40.3040870" lon="-3.8560080">
        <ele>673.8</ele>
        <time>2019-04-28T14:29:30Z</time>
      </trkpt>
      <trkpt lat="40.3041150" lon="-3.8559580">
        <ele>673.8</ele>
        <time>2019-04-28T14:29:31Z</time>
      </trkpt>
      <trkpt lat="40.3041400" lon="-3.8559050">
        <ele>673.8</ele>
        <time>2019-04-28T14:29:32Z</time>
      </trkpt>
      <trkpt lat="40.3041640" lon="-3.8558500">
        <ele>673.8</ele>
        <time>2019-04-28T14:29:33Z</time>
      </trkpt>
      <trkpt lat="40.3041920" lon="-3.8557960">
        <ele>673.4</ele>
        <time>2019-04-28T14:29:34Z</time>
      </trkpt>
      <trkpt lat="40.3042230" lon="-3.8557420">
        <ele>673.4</ele>
        <time>2019-04-28T14:29:35Z</time>
      </trkpt>
      <trkpt lat="40.3042540" lon="-3.8556860">
        <ele>673.2</ele>
        <time>2019-04-28T14:29:36Z</time>
      </trkpt>
      <trkpt lat="40.3042860" lon="-3.8556360">
        <ele>673.2</ele>
        <time>2019-04-28T14:29:37Z</time>
      </trkpt>
      <trkpt lat="40.3043190" lon="-3.8555880">
        <ele>673.0</ele>
        <time>2019-04-28T14:29:38Z</time>
      </trkpt>
      <trkpt lat="40.3043490" lon="-3.8555360">
        <ele>673.2</ele>
        <time>2019-04-28T14:29:39Z</time>
      </trkpt>
      <trkpt lat="40.3043780" lon="-3.8554820">
        <ele>673.2</ele>
        <time>2019-04-28T14:29:40Z</time>
      </trkpt>
      <trkpt lat="40.3044070" lon="-3.8554270">
        <ele>673.2</ele>
        <time>2019-04-28T14:29:41Z</time>
      </trkpt>
      <trkpt lat="40.3044390" lon="-3.8553770">
        <ele>673.0</ele>
        <time>2019-04-28T14:29:42Z</time>
      </trkpt>
      <trkpt lat="40.3044710" lon="-3.8553230">
        <ele>673.0</ele>
        <time>2019-04-28T14:29:43Z</time>
      </trkpt>
      <trkpt lat="40.3044950" lon="-3.8552630">
        <ele>673.0</ele>
        <time>2019-04-28T14:29:44Z</time>
      </trkpt>
      <trkpt lat="40.3045160" lon="-3.8552100">
        <ele>673.2</ele>
        <time>2019-04-28T14:29:45Z</time>
      </trkpt>
      <trkpt lat="40.3045390" lon="-3.8551510">
        <ele>673.4</ele>
        <time>2019-04-28T14:29:46Z</time>
      </trkpt>
      <trkpt lat="40.3045650" lon="-3.8550950">
        <ele>673.6</ele>
        <time>2019-04-28T14:29:47Z</time>
      </trkpt>
      <trkpt lat="40.3045860" lon="-3.8550410">
        <ele>673.8</ele>
        <time>2019-04-28T14:29:48Z</time>
      </trkpt>
      <trkpt lat="40.3046080" lon="-3.8549890">
        <ele>673.8</ele>
        <time>2019-04-28T14:29:49Z</time>
      </trkpt>
      <trkpt lat="40.3046330" lon="-3.8549450">
        <ele>674.0</ele>
        <time>2019-04-28T14:29:50Z</time>
      </trkpt>
      <trkpt lat="40.3046520" lon="-3.8548970">
        <ele>674.0</ele>
        <time>2019-04-28T14:29:51Z</time>
      </trkpt>
      <trkpt lat="40.3046600" lon="-3.8548510">
        <ele>674.2</ele>
        <time>2019-04-28T14:29:52Z</time>
      </trkpt>
      <trkpt lat="40.3046550" lon="-3.8548140">
        <ele>674.4</ele>
        <time>2019-04-28T14:29:53Z</time>
      </trkpt>
      <trkpt lat="40.3046380" lon="-3.8547850">
        <ele>674.2</ele>
        <time>2019-04-28T14:29:54Z</time>
      </trkpt>
      <trkpt lat="40.3046140" lon="-3.8547590">
        <ele>674.0</ele>
        <time>2019-04-28T14:29:55Z</time>
      </trkpt>
      <trkpt lat="40.3045880" lon="-3.8547390">
        <ele>673.8</ele>
        <time>2019-04-28T14:29:56Z</time>
      </trkpt>
      <trkpt lat="40.3045630" lon="-3.8547160">
        <ele>673.6</ele>
        <time>2019-04-28T14:29:57Z</time>
      </trkpt>
      <trkpt lat="40.3045350" lon="-3.8546930">
        <ele>673.4</ele>
        <time>2019-04-28T14:29:58Z</time>
      </trkpt>
      <trkpt lat="40.3045050" lon="-3.8546700">
        <ele>673.2</ele>
        <time>2019-04-28T14:29:59Z</time>
      </trkpt>
      <trkpt lat="40.3044760" lon="-3.8546470">
        <ele>673.0</ele>
        <time>2019-04-28T14:30:00Z</time>
      </trkpt>
      <trkpt lat="40.3044490" lon="-3.8546230">
        <ele>672.6</ele>
        <time>2019-04-28T14:30:01Z</time>
      </trkpt>
      <trkpt lat="40.3044270" lon="-3.8545940">
        <ele>672.4</ele>
        <time>2019-04-28T14:30:02Z</time>
      </trkpt>
      <trkpt lat="40.3043930" lon="-3.8545610">
        <ele>672.2</ele>
        <time>2019-04-28T14:30:03Z</time>
      </trkpt>
      <trkpt lat="40.3043560" lon="-3.8545200">
        <ele>672.0</ele>
        <time>2019-04-28T14:30:04Z</time>
      </trkpt>
      <trkpt lat="40.3043150" lon="-3.8544830">
        <ele>671.6</ele>
        <time>2019-04-28T14:30:05Z</time>
      </trkpt>
      <trkpt lat="40.3042740" lon="-3.8544430">
        <ele>671.6</ele>
        <time>2019-04-28T14:30:06Z</time>
      </trkpt>
      <trkpt lat="40.3042330" lon="-3.8544080">
        <ele>671.6</ele>
        <time>2019-04-28T14:30:07Z</time>
      </trkpt>
      <trkpt lat="40.3041910" lon="-3.8543770">
        <ele>671.4</ele>
        <time>2019-04-28T14:30:08Z</time>
      </trkpt>
      <trkpt lat="40.3041480" lon="-3.8543450">
        <ele>671.2</ele>
        <time>2019-04-28T14:30:09Z</time>
      </trkpt>
      <trkpt lat="40.3041030" lon="-3.8543120">
        <ele>671.2</ele>
        <time>2019-04-28T14:30:10Z</time>
      </trkpt>
      <trkpt lat="40.3040570" lon="-3.8542770">
        <ele>671.0</ele>
        <time>2019-04-28T14:30:11Z</time>
      </trkpt>
      <trkpt lat="40.3040110" lon="-3.8542420">
        <ele>671.0</ele>
        <time>2019-04-28T14:30:12Z</time>
      </trkpt>
      <trkpt lat="40.3039650" lon="-3.8542050">
        <ele>670.8</ele>
        <time>2019-04-28T14:30:13Z</time>
      </trkpt>
      <trkpt lat="40.3039180" lon="-3.8541630">
        <ele>670.6</ele>
        <time>2019-04-28T14:30:14Z</time>
      </trkpt>
      <trkpt lat="40.3038710" lon="-3.8541230">
        <ele>670.4</ele>
        <time>2019-04-28T14:30:15Z</time>
      </trkpt>
      <trkpt lat="40.3038240" lon="-3.8540770">
        <ele>670.2</ele>
        <time>2019-04-28T14:30:16Z</time>
      </trkpt>
      <trkpt lat="40.3037750" lon="-3.8540230">
        <ele>670.2</ele>
        <time>2019-04-28T14:30:17Z</time>
      </trkpt>
      <trkpt lat="40.3037230" lon="-3.8539650">
        <ele>669.8</ele>
        <time>2019-04-28T14:30:18Z</time>
      </trkpt>
      <trkpt lat="40.3036700" lon="-3.8539120">
        <ele>669.6</ele>
        <time>2019-04-28T14:30:19Z</time>
      </trkpt>
      <trkpt lat="40.3036160" lon="-3.8538610">
        <ele>669.4</ele>
        <time>2019-04-28T14:30:20Z</time>
      </trkpt>
      <trkpt lat="40.3035580" lon="-3.8538090">
        <ele>669.2</ele>
        <time>2019-04-28T14:30:21Z</time>
      </trkpt>
      <trkpt lat="40.3034990" lon="-3.8537590">
        <ele>669.0</ele>
        <time>2019-04-28T14:30:22Z</time>
      </trkpt>
      <trkpt lat="40.3034390" lon="-3.8537120">
        <ele>668.8</ele>
        <time>2019-04-28T14:30:23Z</time>
      </trkpt>
      <trkpt lat="40.3033770" lon="-3.8536640">
        <ele>668.8</ele>
        <time>2019-04-28T14:30:24Z</time>
      </trkpt>
      <trkpt lat="40.3033140" lon="-3.8536110">
        <ele>668.4</ele>
        <time>2019-04-28T14:30:25Z</time>
      </trkpt>
      <trkpt lat="40.3032490" lon="-3.8535530">
        <ele>668.2</ele>
        <time>2019-04-28T14:30:26Z</time>
      </trkpt>
      <trkpt lat="40.3031830" lon="-3.8535090">
        <ele>668.2</ele>
        <time>2019-04-28T14:30:27Z</time>
      </trkpt>
      <trkpt lat="40.3031150" lon="-3.8534670">
        <ele>668.0</ele>
        <time>2019-04-28T14:30:28Z</time>
      </trkpt>
      <trkpt lat="40.3030470" lon="-3.8534280">
        <ele>667.6</ele>
        <time>2019-04-28T14:30:29Z</time>
      </trkpt>
      <trkpt lat="40.3029770" lon="-3.8533910">
        <ele>667.6</ele>
        <time>2019-04-28T14:30:30Z</time>
      </trkpt>
      <trkpt lat="40.3029040" lon="-3.8533580">
        <ele>667.2</ele>
        <time>2019-04-28T14:30:31Z</time>
      </trkpt>
      <trkpt lat="40.3028330" lon="-3.8533260">
        <ele>667.0</ele>
        <time>2019-04-28T14:30:32Z</time>
      </trkpt>
      <trkpt lat="40.3027630" lon="-3.8532940">
        <ele>667.0</ele>
        <time>2019-04-28T14:30:33Z</time>
      </trkpt>
      <trkpt lat="40.3026940" lon="-3.8532640">
        <ele>667.0</ele>
        <time>2019-04-28T14:30:34Z</time>
      </trkpt>
      <trkpt lat="40.3026270" lon="-3.8532300">
        <ele>666.6</ele>
        <time>2019-04-28T14:30:35Z</time>
      </trkpt>
      <trkpt lat="40.3025620" lon="-3.8531970">
        <ele>666.6</ele>
        <time>2019-04-28T14:30:36Z</time>
      </trkpt>
      <trkpt lat="40.3024990" lon="-3.8531660">
        <ele>666.6</ele>
        <time>2019-04-28T14:30:37Z</time>
      </trkpt>
      <trkpt lat="40.3024390" lon="-3.8531300">
        <ele>666.4</ele>
        <time>2019-04-28T14:30:38Z</time>
      </trkpt>
      <trkpt lat="40.3023800" lon="-3.8530930">
        <ele>666.2</ele>
        <time>2019-04-28T14:30:39Z</time>
      </trkpt>
      <trkpt lat="40.3023220" lon="-3.8530500">
        <ele>666.0</ele>
        <time>2019-04-28T14:30:40Z</time>
      </trkpt>
      <trkpt lat="40.3022660" lon="-3.8530060">
        <ele>666.0</ele>
        <time>2019-04-28T14:30:41Z</time>
      </trkpt>
      <trkpt lat="40.3022110" lon="-3.8529640">
        <ele>665.8</ele>
        <time>2019-04-28T14:30:42Z</time>
      </trkpt>
      <trkpt lat="40.3021550" lon="-3.8529220">
        <ele>665.8</ele>
        <time>2019-04-28T14:30:43Z</time>
      </trkpt>
      <trkpt lat="40.3020990" lon="-3.8528840">
        <ele>665.8</ele>
        <time>2019-04-28T14:30:44Z</time>
      </trkpt>
      <trkpt lat="40.3020440" lon="-3.8528490">
        <ele>665.8</ele>
        <time>2019-04-28T14:30:45Z</time>
      </trkpt>
      <trkpt lat="40.3019880" lon="-3.8528170">
        <ele>665.6</ele>
        <time>2019-04-28T14:30:46Z</time>
      </trkpt>
      <trkpt lat="40.3019350" lon="-3.8527860">
        <ele>665.8</ele>
        <time>2019-04-28T14:30:47Z</time>
      </trkpt>
      <trkpt lat="40.3018810" lon="-3.8527660">
        <ele>665.8</ele>
        <time>2019-04-28T14:30:48Z</time>
      </trkpt>
      <trkpt lat="40.3018280" lon="-3.8527480">
        <ele>665.8</ele>
        <time>2019-04-28T14:30:49Z</time>
      </trkpt>
      <trkpt lat="40.3017730" lon="-3.8527230">
        <ele>665.6</ele>
        <time>2019-04-28T14:30:50Z</time>
      </trkpt>
      <trkpt lat="40.3017180" lon="-3.8526890">
        <ele>665.6</ele>
        <time>2019-04-28T14:30:51Z</time>
      </trkpt>
      <trkpt lat="40.3016670" lon="-3.8526380">
        <ele>665.6</ele>
        <time>2019-04-28T14:30:52Z</time>
      </trkpt>
      <trkpt lat="40.3016190" lon="-3.8525910">
        <ele>666.6</ele>
        <time>2019-04-28T14:30:53Z</time>
      </trkpt>
      <trkpt lat="40.3015690" lon="-3.8525500">
        <ele>667.4</ele>
        <time>2019-04-28T14:30:54Z</time>
      </trkpt>
      <trkpt lat="40.3015220" lon="-3.8525110">
        <ele>667.6</ele>
        <time>2019-04-28T14:30:55Z</time>
      </trkpt>
      <trkpt lat="40.3014780" lon="-3.8524780">
        <ele>668.0</ele>
        <time>2019-04-28T14:30:56Z</time>
      </trkpt>
      <trkpt lat="40.3014400" lon="-3.8524470">
        <ele>668.0</ele>
        <time>2019-04-28T14:30:57Z</time>
      </trkpt>
      <trkpt lat="40.3014040" lon="-3.8524190">
        <ele>667.8</ele>
        <time>2019-04-28T14:30:58Z</time>
      </trkpt>
      <trkpt lat="40.3013730" lon="-3.8523900">
        <ele>667.8</ele>
        <time>2019-04-28T14:30:59Z</time>
      </trkpt>
      <trkpt lat="40.3013450" lon="-3.8523590">
        <ele>667.8</ele>
        <time>2019-04-28T14:31:00Z</time>
      </trkpt>
      <trkpt lat="40.3013150" lon="-3.8523290">
        <ele>667.8</ele>
        <time>2019-04-28T14:31:01Z</time>
      </trkpt>
      <trkpt lat="40.3012860" lon="-3.8522950">
        <ele>667.8</ele>
        <time>2019-04-28T14:31:02Z</time>
      </trkpt>
      <trkpt lat="40.3012570" lon="-3.8522600">
        <ele>667.8</ele>
        <time>2019-04-28T14:31:03Z</time>
      </trkpt>
      <trkpt lat="40.3012280" lon="-3.8522270">
        <ele>667.8</ele>
        <time>2019-04-28T14:31:04Z</time>
      </trkpt>
      <trkpt lat="40.3011990" lon="-3.8521920">
        <ele>667.8</ele>
        <time>2019-04-28T14:31:05Z</time>
      </trkpt>
      <trkpt lat="40.3011690" lon="-3.8521560">
        <ele>667.8</ele>
        <time>2019-04-28T14:31:06Z</time>
      </trkpt>
      <trkpt lat="40.3011370" lon="-3.8521200">
        <ele>667.8</ele>
        <time>2019-04-28T14:31:07Z</time>
      </trkpt>
      <trkpt lat="40.3011040" lon="-3.8520830">
        <ele>668.0</ele>
        <time>2019-04-28T14:31:08Z</time>
      </trkpt>
      <trkpt lat="40.3010720" lon="-3.8520420">
        <ele>668.0</ele>
        <time>2019-04-28T14:31:09Z</time>
      </trkpt>
      <trkpt lat="40.3010410" lon="-3.8520020">
        <ele>668.0</ele>
        <time>2019-04-28T14:31:10Z</time>
      </trkpt>
      <trkpt lat="40.3010100" lon="-3.8519600">
        <ele>667.8</ele>
        <time>2019-04-28T14:31:11Z</time>
      </trkpt>
      <trkpt lat="40.3009770" lon="-3.8519190">
        <ele>667.8</ele>
        <time>2019-04-28T14:31:12Z</time>
      </trkpt>
      <trkpt lat="40.3009460" lon="-3.8518810">
        <ele>667.6</ele>
        <time>2019-04-28T14:31:13Z</time>
      </trkpt>
      <trkpt lat="40.3009130" lon="-3.8518420">
        <ele>667.6</ele>
        <time>2019-04-28T14:31:14Z</time>
      </trkpt>
      <trkpt lat="40.3008800" lon="-3.8518070">
        <ele>667.6</ele>
        <time>2019-04-28T14:31:15Z</time>
      </trkpt>
      <trkpt lat="40.3008470" lon="-3.8517710">
        <ele>667.6</ele>
        <time>2019-04-28T14:31:16Z</time>
      </trkpt>
      <trkpt lat="40.3008120" lon="-3.8517400">
        <ele>667.4</ele>
        <time>2019-04-28T14:31:17Z</time>
      </trkpt>
      <trkpt lat="40.3007760" lon="-3.8517120">
        <ele>667.2</ele>
        <time>2019-04-28T14:31:18Z</time>
      </trkpt>
      <trkpt lat="40.3007420" lon="-3.8516810">
        <ele>667.2</ele>
        <time>2019-04-28T14:31:19Z</time>
      </trkpt>
      <trkpt lat="40.3007000" lon="-3.8516420">
        <ele>667.2</ele>
        <time>2019-04-28T14:31:20Z</time>
      </trkpt>
      <trkpt lat="40.3006640" lon="-3.8516080">
        <ele>667.4</ele>
        <time>2019-04-28T14:31:21Z</time>
      </trkpt>
      <trkpt lat="40.3006330" lon="-3.8515780">
        <ele>667.4</ele>
        <time>2019-04-28T14:31:22Z</time>
      </trkpt>
      <trkpt lat="40.3006040" lon="-3.8515450">
        <ele>667.2</ele>
        <time>2019-04-28T14:31:23Z</time>
      </trkpt>
      <trkpt lat="40.3005740" lon="-3.8515140">
        <ele>667.4</ele>
        <time>2019-04-28T14:31:24Z</time>
      </trkpt>
      <trkpt lat="40.3005410" lon="-3.8514850">
        <ele>667.4</ele>
        <time>2019-04-28T14:31:25Z</time>
      </trkpt>
      <trkpt lat="40.3005190" lon="-3.8514480">
        <ele>667.4</ele>
        <time>2019-04-28T14:31:26Z</time>
      </trkpt>
      <trkpt lat="40.3005010" lon="-3.8514140">
        <ele>667.6</ele>
        <time>2019-04-28T14:31:27Z</time>
      </trkpt>
      <trkpt lat="40.3004880" lon="-3.8513760">
        <ele>667.6</ele>
        <time>2019-04-28T14:31:28Z</time>
      </trkpt>
      <trkpt lat="40.3004860" lon="-3.8513330">
        <ele>667.8</ele>
        <time>2019-04-28T14:31:29Z</time>
      </trkpt>
      <trkpt lat="40.3004920" lon="-3.8512890">
        <ele>667.8</ele>
        <time>2019-04-28T14:31:30Z</time>
      </trkpt>
      <trkpt lat="40.3005080" lon="-3.8512430">
        <ele>667.8</ele>
        <time>2019-04-28T14:31:31Z</time>
      </trkpt>
      <trkpt lat="40.3005300" lon="-3.8512010">
        <ele>667.8</ele>
        <time>2019-04-28T14:31:32Z</time>
      </trkpt>
      <trkpt lat="40.3005570" lon="-3.8511610">
        <ele>667.8</ele>
        <time>2019-04-28T14:31:33Z</time>
      </trkpt>
      <trkpt lat="40.3005860" lon="-3.8511230">
        <ele>667.8</ele>
        <time>2019-04-28T14:31:34Z</time>
      </trkpt>
      <trkpt lat="40.3006150" lon="-3.8510890">
        <ele>667.8</ele>
        <time>2019-04-28T14:31:35Z</time>
      </trkpt>
      <trkpt lat="40.3006440" lon="-3.8510570">
        <ele>668.0</ele>
        <time>2019-04-28T14:31:36Z</time>
      </trkpt>
      <trkpt lat="40.3006700" lon="-3.8510250">
        <ele>668.0</ele>
        <time>2019-04-28T14:31:37Z</time>
      </trkpt>
      <trkpt lat="40.3006960" lon="-3.8509940">
        <ele>668.2</ele>
        <time>2019-04-28T14:31:38Z</time>
      </trkpt>
      <trkpt lat="40.3007220" lon="-3.8509650">
        <ele>668.4</ele>
        <time>2019-04-28T14:31:39Z</time>
      </trkpt>
      <trkpt lat="40.3007450" lon="-3.8509440">
        <ele>668.4</ele>
        <time>2019-04-28T14:31:40Z</time>
      </trkpt>
      <trkpt lat="40.3007710" lon="-3.8509270">
        <ele>668.2</ele>
        <time>2019-04-28T14:31:41Z</time>
      </trkpt>
      <trkpt lat="40.3007970" lon="-3.8509020">
        <ele>668.2</ele>
        <time>2019-04-28T14:31:42Z</time>
      </trkpt>
      <trkpt lat="40.3008240" lon="-3.8508790">
        <ele>668.2</ele>
        <time>2019-04-28T14:31:43Z</time>
      </trkpt>
      <trkpt lat="40.3008490" lon="-3.8508550">
        <ele>668.2</ele>
        <time>2019-04-28T14:31:44Z</time>
      </trkpt>
      <trkpt lat="40.3008750" lon="-3.8508320">
        <ele>668.4</ele>
        <time>2019-04-28T14:31:45Z</time>
      </trkpt>
      <trkpt lat="40.3009000" lon="-3.8508080">
        <ele>668.8</ele>
        <time>2019-04-28T14:31:46Z</time>
      </trkpt>
      <trkpt lat="40.3009240" lon="-3.8507850">
        <ele>669.0</ele>
        <time>2019-04-28T14:31:47Z</time>
      </trkpt>
      <trkpt lat="40.3009490" lon="-3.8507640">
        <ele>669.2</ele>
        <time>2019-04-28T14:31:48Z</time>
      </trkpt>
      <trkpt lat="40.3009740" lon="-3.8507450">
        <ele>669.2</ele>
        <time>2019-04-28T14:31:49Z</time>
      </trkpt>
      <trkpt lat="40.3009990" lon="-3.8507270">
        <ele>669.2</ele>
        <time>2019-04-28T14:31:50Z</time>
      </trkpt>
      <trkpt lat="40.3010230" lon="-3.8507080">
        <ele>669.4</ele>
        <time>2019-04-28T14:31:51Z</time>
      </trkpt>
      <trkpt lat="40.3010490" lon="-3.8506920">
        <ele>669.4</ele>
        <time>2019-04-28T14:31:52Z</time>
      </trkpt>
      <trkpt lat="40.3010750" lon="-3.8506700">
        <ele>669.6</ele>
        <time>2019-04-28T14:31:53Z</time>
      </trkpt>
      <trkpt lat="40.3011010" lon="-3.8506420">
        <ele>669.6</ele>
        <time>2019-04-28T14:31:54Z</time>
      </trkpt>
      <trkpt lat="40.3011300" lon="-3.8506140">
        <ele>669.8</ele>
        <time>2019-04-28T14:31:55Z</time>
      </trkpt>
      <trkpt lat="40.3011570" lon="-3.8505850">
        <ele>670.0</ele>
        <time>2019-04-28T14:31:56Z</time>
      </trkpt>
      <trkpt lat="40.3011850" lon="-3.8505540">
        <ele>670.0</ele>
        <time>2019-04-28T14:31:57Z</time>
      </trkpt>
      <trkpt lat="40.3012110" lon="-3.8505240">
        <ele>670.2</ele>
        <time>2019-04-28T14:31:58Z</time>
      </trkpt>
      <trkpt lat="40.3012370" lon="-3.8504930">
        <ele>670.4</ele>
        <time>2019-04-28T14:31:59Z</time>
      </trkpt>
      <trkpt lat="40.3012640" lon="-3.8504640">
        <ele>670.6</ele>
        <time>2019-04-28T14:32:00Z</time>
      </trkpt>
      <trkpt lat="40.3012940" lon="-3.8504380">
        <ele>670.8</ele>
        <time>2019-04-28T14:32:01Z</time>
      </trkpt>
      <trkpt lat="40.3013240" lon="-3.8504110">
        <ele>671.0</ele>
        <time>2019-04-28T14:32:02Z</time>
      </trkpt>
      <trkpt lat="40.3013540" lon="-3.8503840">
        <ele>671.2</ele>
        <time>2019-04-28T14:32:03Z</time>
      </trkpt>
      <trkpt lat="40.3013840" lon="-3.8503560">
        <ele>671.2</ele>
        <time>2019-04-28T14:32:04Z</time>
      </trkpt>
      <trkpt lat="40.3014160" lon="-3.8503300">
        <ele>671.4</ele>
        <time>2019-04-28T14:32:05Z</time>
      </trkpt>
      <trkpt lat="40.3014470" lon="-3.8503040">
        <ele>671.6</ele>
        <time>2019-04-28T14:32:06Z</time>
      </trkpt>
      <trkpt lat="40.3014760" lon="-3.8502770">
        <ele>671.6</ele>
        <time>2019-04-28T14:32:07Z</time>
      </trkpt>
      <trkpt lat="40.3015030" lon="-3.8502470">
        <ele>671.8</ele>
        <time>2019-04-28T14:32:08Z</time>
      </trkpt>
      <trkpt lat="40.3015320" lon="-3.8502190">
        <ele>672.0</ele>
        <time>2019-04-28T14:32:09Z</time>
      </trkpt>
      <trkpt lat="40.3015620" lon="-3.8501900">
        <ele>672.2</ele>
        <time>2019-04-28T14:32:10Z</time>
      </trkpt>
      <trkpt lat="40.3015900" lon="-3.8501620">
        <ele>672.4</ele>
        <time>2019-04-28T14:32:11Z</time>
      </trkpt>
      <trkpt lat="40.3016180" lon="-3.8501360">
        <ele>672.6</ele>
        <time>2019-04-28T14:32:12Z</time>
      </trkpt>
      <trkpt lat="40.3016460" lon="-3.8501120">
        <ele>672.8</ele>
        <time>2019-04-28T14:32:13Z</time>
      </trkpt>
      <trkpt lat="40.3016720" lon="-3.8500880">
        <ele>672.8</ele>
        <time>2019-04-28T14:32:14Z</time>
      </trkpt>
      <trkpt lat="40.3016970" lon="-3.8500640">
        <ele>673.0</ele>
        <time>2019-04-28T14:32:15Z</time>
      </trkpt>
      <trkpt lat="40.3017250" lon="-3.8500420">
        <ele>673.4</ele>
        <time>2019-04-28T14:32:16Z</time>
      </trkpt>
      <trkpt lat="40.3017540" lon="-3.8500190">
        <ele>673.6</ele>
        <time>2019-04-28T14:32:17Z</time>
      </trkpt>
      <trkpt lat="40.3017810" lon="-3.8499930">
        <ele>674.0</ele>
        <time>2019-04-28T14:32:18Z</time>
      </trkpt>
      <trkpt lat="40.3018090" lon="-3.8499660">
        <ele>674.2</ele>
        <time>2019-04-28T14:32:19Z</time>
      </trkpt>
      <trkpt lat="40.3018360" lon="-3.8499390">
        <ele>674.6</ele>
        <time>2019-04-28T14:32:20Z</time>
      </trkpt>
      <trkpt lat="40.3018650" lon="-3.8499120">
        <ele>674.8</ele>
        <time>2019-04-28T14:32:21Z</time>
      </trkpt>
      <trkpt lat="40.3018940" lon="-3.8498870">
        <ele>675.0</ele>
        <time>2019-04-28T14:32:22Z</time>
      </trkpt>
      <trkpt lat="40.3019210" lon="-3.8498600">
        <ele>675.2</ele>
        <time>2019-04-28T14:32:23Z</time>
      </trkpt>
      <trkpt lat="40.3019470" lon="-3.8498300">
        <ele>675.6</ele>
        <time>2019-04-28T14:32:24Z</time>
      </trkpt>
      <trkpt lat="40.3019740" lon="-3.8498020">
        <ele>675.8</ele>
        <time>2019-04-28T14:32:25Z</time>
      </trkpt>
      <trkpt lat="40.3020010" lon="-3.8497720">
        <ele>676.2</ele>
        <time>2019-04-28T14:32:26Z</time>
      </trkpt>
      <trkpt lat="40.3020260" lon="-3.8497400">
        <ele>676.6</ele>
        <time>2019-04-28T14:32:27Z</time>
      </trkpt>
      <trkpt lat="40.3020500" lon="-3.8497080">
        <ele>677.0</ele>
        <time>2019-04-28T14:32:28Z</time>
      </trkpt>
      <trkpt lat="40.3020740" lon="-3.8496760">
        <ele>677.4</ele>
        <time>2019-04-28T14:32:29Z</time>
      </trkpt>
      <trkpt lat="40.3021000" lon="-3.8496430">
        <ele>677.8</ele>
        <time>2019-04-28T14:32:30Z</time>
      </trkpt>
      <trkpt lat="40.3021260" lon="-3.8496110">
        <ele>678.2</ele>
        <time>2019-04-28T14:32:31Z</time>
      </trkpt>
      <trkpt lat="40.3021520" lon="-3.8495800">
        <ele>678.6</ele>
        <time>2019-04-28T14:32:32Z</time>
      </trkpt>
      <trkpt lat="40.3021750" lon="-3.8495470">
        <ele>679.2</ele>
        <time>2019-04-28T14:32:33Z</time>
      </trkpt>
      <trkpt lat="40.3021980" lon="-3.8495160">
        <ele>679.6</ele>
        <time>2019-04-28T14:32:34Z</time>
      </trkpt>
      <trkpt lat="40.3022190" lon="-3.8494820">
        <ele>680.0</ele>
        <time>2019-04-28T14:32:35Z</time>
      </trkpt>
      <trkpt lat="40.3022370" lon="-3.8494440">
        <ele>680.4</ele>
        <time>2019-04-28T14:32:36Z</time>
      </trkpt>
      <trkpt lat="40.3022530" lon="-3.8494070">
        <ele>681.0</ele>
        <time>2019-04-28T14:32:37Z</time>
      </trkpt>
      <trkpt lat="40.3022600" lon="-3.8493740">
        <ele>681.2</ele>
        <time>2019-04-28T14:32:38Z</time>
      </trkpt>
      <trkpt lat="40.3022610" lon="-3.8493400">
        <ele>681.2</ele>
        <time>2019-04-28T14:32:39Z</time>
      </trkpt>
      <trkpt lat="40.3022540" lon="-3.8493080">
        <ele>681.4</ele>
        <time>2019-04-28T14:32:40Z</time>
      </trkpt>
      <trkpt lat="40.3022410" lon="-3.8492770">
        <ele>681.4</ele>
        <time>2019-04-28T14:32:41Z</time>
      </trkpt>
      <trkpt lat="40.3022270" lon="-3.8492490">
        <ele>681.6</ele>
        <time>2019-04-28T14:32:42Z</time>
      </trkpt>
      <trkpt lat="40.3022150" lon="-3.8492210">
        <ele>681.6</ele>
        <time>2019-04-28T14:32:43Z</time>
      </trkpt>
      <trkpt lat="40.3022030" lon="-3.8491940">
        <ele>681.6</ele>
        <time>2019-04-28T14:32:44Z</time>
      </trkpt>
      <trkpt lat="40.3021900" lon="-3.8491660">
        <ele>681.4</ele>
        <time>2019-04-28T14:32:45Z</time>
      </trkpt>
      <trkpt lat="40.3021780" lon="-3.8491360">
        <ele>681.4</ele>
        <time>2019-04-28T14:32:46Z</time>
      </trkpt>
      <trkpt lat="40.3021650" lon="-3.8491050">
        <ele>681.2</ele>
        <time>2019-04-28T14:32:47Z</time>
      </trkpt>
      <trkpt lat="40.3021470" lon="-3.8490720">
        <ele>681.2</ele>
        <time>2019-04-28T14:32:48Z</time>
      </trkpt>
      <trkpt lat="40.3021330" lon="-3.8490370">
        <ele>681.2</ele>
        <time>2019-04-28T14:32:49Z</time>
      </trkpt>
      <trkpt lat="40.3021170" lon="-3.8489990">
        <ele>681.2</ele>
        <time>2019-04-28T14:32:50Z</time>
      </trkpt>
      <trkpt lat="40.3020970" lon="-3.8489630">
        <ele>681.0</ele>
        <time>2019-04-28T14:32:51Z</time>
      </trkpt>
      <trkpt lat="40.3020740" lon="-3.8489250">
        <ele>680.8</ele>
        <time>2019-04-28T14:32:52Z</time>
      </trkpt>
      <trkpt lat="40.3020490" lon="-3.8488830">
        <ele>680.8</ele>
        <time>2019-04-28T14:32:53Z</time>
      </trkpt>
      <trkpt lat="40.3020260" lon="-3.8488390">
        <ele>680.6</ele>
        <time>2019-04-28T14:32:54Z</time>
      </trkpt>
      <trkpt lat="40.3020020" lon="-3.8487900">
        <ele>680.4</ele>
        <time>2019-04-28T14:32:55Z</time>
      </trkpt>
      <trkpt lat="40.3019790" lon="-3.8487410">
        <ele>680.2</ele>
        <time>2019-04-28T14:32:56Z</time>
      </trkpt>
      <trkpt lat="40.3019550" lon="-3.8486900">
        <ele>680.2</ele>
        <time>2019-04-28T14:32:57Z</time>
      </trkpt>
      <trkpt lat="40.3019320" lon="-3.8486400">
        <ele>680.0</ele>
        <time>2019-04-28T14:32:58Z</time>
      </trkpt>
      <trkpt lat="40.3019110" lon="-3.8485890">
        <ele>679.8</ele>
        <time>2019-04-28T14:32:59Z</time>
      </trkpt>
      <trkpt lat="40.3018900" lon="-3.8485450">
        <ele>679.6</ele>
        <time>2019-04-28T14:33:00Z</time>
      </trkpt>
      <trkpt lat="40.3018700" lon="-3.8485090">
        <ele>679.6</ele>
        <time>2019-04-28T14:33:01Z</time>
      </trkpt>
      <trkpt lat="40.3018550" lon="-3.8484810">
        <ele>679.4</ele>
        <time>2019-04-28T14:33:02Z</time>
      </trkpt>
      <trkpt lat="40.3018420" lon="-3.8484560">
        <ele>679.4</ele>
        <time>2019-04-28T14:33:03Z</time>
      </trkpt>
      <trkpt lat="40.3018330" lon="-3.8484370">
        <ele>679.4</ele>
        <time>2019-04-28T14:33:04Z</time>
      </trkpt>
      <trkpt lat="40.3018270" lon="-3.8484120">
        <ele>679.2</ele>
        <time>2019-04-28T14:33:05Z</time>
      </trkpt>
      <trkpt lat="40.3018110" lon="-3.8483840">
        <ele>679.0</ele>
        <time>2019-04-28T14:33:06Z</time>
      </trkpt>
      <trkpt lat="40.3017880" lon="-3.8483530">
        <ele>678.8</ele>
        <time>2019-04-28T14:33:07Z</time>
      </trkpt>
      <trkpt lat="40.3017550" lon="-3.8483250">
        <ele>678.8</ele>
        <time>2019-04-28T14:33:08Z</time>
      </trkpt>
      <trkpt lat="40.3017130" lon="-3.8483090">
        <ele>678.6</ele>
        <time>2019-04-28T14:33:09Z</time>
      </trkpt>
      <trkpt lat="40.3016660" lon="-3.8483080">
        <ele>678.6</ele>
        <time>2019-04-28T14:33:10Z</time>
      </trkpt>
      <trkpt lat="40.3016160" lon="-3.8483190">
        <ele>678.2</ele>
        <time>2019-04-28T14:33:11Z</time>
      </trkpt>
      <trkpt lat="40.3015620" lon="-3.8483380">
        <ele>677.6</ele>
        <time>2019-04-28T14:33:12Z</time>
      </trkpt>
      <trkpt lat="40.3015040" lon="-3.8483670">
        <ele>677.4</ele>
        <time>2019-04-28T14:33:13Z</time>
      </trkpt>
      <trkpt lat="40.3014410" lon="-3.8484000">
        <ele>677.0</ele>
        <time>2019-04-28T14:33:14Z</time>
      </trkpt>
      <trkpt lat="40.3013840" lon="-3.8484410">
        <ele>676.6</ele>
        <time>2019-04-28T14:33:15Z</time>
      </trkpt>
      <trkpt lat="40.3013220" lon="-3.8484790">
        <ele>676.4</ele>
        <time>2019-04-28T14:33:16Z</time>
      </trkpt>
      <trkpt lat="40.3012600" lon="-3.8485200">
        <ele>676.0</ele>
        <time>2019-04-28T14:33:17Z</time>
      </trkpt>
      <trkpt lat="40.3011990" lon="-3.8485650">
        <ele>676.0</ele>
        <time>2019-04-28T14:33:18Z</time>
      </trkpt>
      <trkpt lat="40.3011380" lon="-3.8486120">
        <ele>675.6</ele>
        <time>2019-04-28T14:33:19Z</time>
      </trkpt>
      <trkpt lat="40.3010750" lon="-3.8486610">
        <ele>675.4</ele>
        <time>2019-04-28T14:33:20Z</time>
      </trkpt>
      <trkpt lat="40.3010120" lon="-3.8487110">
        <ele>675.2</ele>
        <time>2019-04-28T14:33:21Z</time>
      </trkpt>
      <trkpt lat="40.3009510" lon="-3.8487660">
        <ele>675.0</ele>
        <time>2019-04-28T14:33:22Z</time>
      </trkpt>
      <trkpt lat="40.3008910" lon="-3.8488190">
        <ele>674.8</ele>
        <time>2019-04-28T14:33:23Z</time>
      </trkpt>
      <trkpt lat="40.3008300" lon="-3.8488700">
        <ele>674.6</ele>
        <time>2019-04-28T14:33:24Z</time>
      </trkpt>
      <trkpt lat="40.3007690" lon="-3.8489200">
        <ele>674.4</ele>
        <time>2019-04-28T14:33:25Z</time>
      </trkpt>
      <trkpt lat="40.3007080" lon="-3.8489730">
        <ele>674.2</ele>
        <time>2019-04-28T14:33:26Z</time>
      </trkpt>
      <trkpt lat="40.3006460" lon="-3.8490540">
        <ele>674.2</ele>
        <time>2019-04-28T14:33:27Z</time>
      </trkpt>
      <trkpt lat="40.3005850" lon="-3.8491130">
        <ele>674.0</ele>
        <time>2019-04-28T14:33:28Z</time>
      </trkpt>
      <trkpt lat="40.3005250" lon="-3.8491670">
        <ele>673.8</ele>
        <time>2019-04-28T14:33:29Z</time>
      </trkpt>
      <trkpt lat="40.3004710" lon="-3.8492220">
        <ele>673.6</ele>
        <time>2019-04-28T14:33:30Z</time>
      </trkpt>
      <trkpt lat="40.3004200" lon="-3.8492710">
        <ele>673.6</ele>
        <time>2019-04-28T14:33:31Z</time>
      </trkpt>
      <trkpt lat="40.3003710" lon="-3.8493170">
        <ele>673.4</ele>
        <time>2019-04-28T14:33:32Z</time>
      </trkpt>
      <trkpt lat="40.3003190" lon="-3.8493640">
        <ele>673.6</ele>
        <time>2019-04-28T14:33:33Z</time>
      </trkpt>
      <trkpt lat="40.3002680" lon="-3.8494120">
        <ele>673.6</ele>
        <time>2019-04-28T14:33:34Z</time>
      </trkpt>
      <trkpt lat="40.3002160" lon="-3.8494530">
        <ele>673.4</ele>
        <time>2019-04-28T14:33:35Z</time>
      </trkpt>
      <trkpt lat="40.3001630" lon="-3.8494950">
        <ele>673.4</ele>
        <time>2019-04-28T14:33:36Z</time>
      </trkpt>
      <trkpt lat="40.3001080" lon="-3.8495390">
        <ele>673.4</ele>
        <time>2019-04-28T14:33:37Z</time>
      </trkpt>
      <trkpt lat="40.3000510" lon="-3.8495840">
        <ele>673.2</ele>
        <time>2019-04-28T14:33:38Z</time>
      </trkpt>
      <trkpt lat="40.2999360" lon="-3.8496800">
        <ele>673.0</ele>
        <time>2019-04-28T14:33:39Z</time>
      </trkpt>
      <trkpt lat="40.2999070" lon="-3.8497010">
        <ele>673.0</ele>
        <time>2019-04-28T14:33:40Z</time>
      </trkpt>
      <trkpt lat="40.2998780" lon="-3.8497220">
        <ele>672.6</ele>
        <time>2019-04-28T14:33:41Z</time>
      </trkpt>
      <trkpt lat="40.2998210" lon="-3.8497670">
        <ele>672.6</ele>
        <time>2019-04-28T14:33:42Z</time>
      </trkpt>
      <trkpt lat="40.2997630" lon="-3.8498130">
        <ele>672.4</ele>
        <time>2019-04-28T14:33:43Z</time>
      </trkpt>
      <trkpt lat="40.2997080" lon="-3.8498550">
        <ele>672.4</ele>
        <time>2019-04-28T14:33:44Z</time>
      </trkpt>
      <trkpt lat="40.2996540" lon="-3.8498950">
        <ele>672.4</ele>
        <time>2019-04-28T14:33:45Z</time>
      </trkpt>
      <trkpt lat="40.2996020" lon="-3.8499340">
        <ele>672.4</ele>
        <time>2019-04-28T14:33:46Z</time>
      </trkpt>
      <trkpt lat="40.2995520" lon="-3.8499660">
        <ele>672.2</ele>
        <time>2019-04-28T14:33:47Z</time>
      </trkpt>
      <trkpt lat="40.2995020" lon="-3.8499960">
        <ele>672.2</ele>
        <time>2019-04-28T14:33:48Z</time>
      </trkpt>
      <trkpt lat="40.2994540" lon="-3.8500210">
        <ele>672.0</ele>
        <time>2019-04-28T14:33:49Z</time>
      </trkpt>
      <trkpt lat="40.2994080" lon="-3.8500440">
        <ele>672.0</ele>
        <time>2019-04-28T14:33:50Z</time>
      </trkpt>
      <trkpt lat="40.2993610" lon="-3.8500620">
        <ele>672.0</ele>
        <time>2019-04-28T14:33:51Z</time>
      </trkpt>
      <trkpt lat="40.2993190" lon="-3.8500790">
        <ele>672.0</ele>
        <time>2019-04-28T14:33:52Z</time>
      </trkpt>
      <trkpt lat="40.2992740" lon="-3.8500940">
        <ele>672.0</ele>
        <time>2019-04-28T14:33:53Z</time>
      </trkpt>
      <trkpt lat="40.2992250" lon="-3.8501000">
        <ele>672.0</ele>
        <time>2019-04-28T14:33:54Z</time>
      </trkpt>
      <trkpt lat="40.2991780" lon="-3.8500910">
        <ele>672.0</ele>
        <time>2019-04-28T14:33:55Z</time>
      </trkpt>
      <trkpt lat="40.2991330" lon="-3.8500670">
        <ele>672.0</ele>
        <time>2019-04-28T14:33:56Z</time>
      </trkpt>
      <trkpt lat="40.2990890" lon="-3.8500370">
        <ele>672.2</ele>
        <time>2019-04-28T14:33:57Z</time>
      </trkpt>
      <trkpt lat="40.2990450" lon="-3.8500040">
        <ele>672.2</ele>
        <time>2019-04-28T14:33:58Z</time>
      </trkpt>
      <trkpt lat="40.2990020" lon="-3.8499680">
        <ele>672.4</ele>
        <time>2019-04-28T14:33:59Z</time>
      </trkpt>
      <trkpt lat="40.2989620" lon="-3.8499310">
        <ele>672.4</ele>
        <time>2019-04-28T14:34:00Z</time>
      </trkpt>
      <trkpt lat="40.2989200" lon="-3.8498970">
        <ele>672.6</ele>
        <time>2019-04-28T14:34:01Z</time>
      </trkpt>
      <trkpt lat="40.2988770" lon="-3.8498670">
        <ele>673.0</ele>
        <time>2019-04-28T14:34:02Z</time>
      </trkpt>
      <trkpt lat="40.2988350" lon="-3.8498370">
        <ele>673.2</ele>
        <time>2019-04-28T14:34:03Z</time>
      </trkpt>
      <trkpt lat="40.2987950" lon="-3.8498040">
        <ele>673.4</ele>
        <time>2019-04-28T14:34:04Z</time>
      </trkpt>
      <trkpt lat="40.2987580" lon="-3.8497680">
        <ele>673.4</ele>
        <time>2019-04-28T14:34:05Z</time>
      </trkpt>
      <trkpt lat="40.2987200" lon="-3.8497310">
        <ele>673.4</ele>
        <time>2019-04-28T14:34:06Z</time>
      </trkpt>
      <trkpt lat="40.2986820" lon="-3.8496950">
        <ele>673.6</ele>
        <time>2019-04-28T14:34:07Z</time>
      </trkpt>
      <trkpt lat="40.2986480" lon="-3.8496560">
        <ele>673.8</ele>
        <time>2019-04-28T14:34:08Z</time>
      </trkpt>
      <trkpt lat="40.2986140" lon="-3.8496170">
        <ele>673.8</ele>
        <time>2019-04-28T14:34:09Z</time>
      </trkpt>
      <trkpt lat="40.2985780" lon="-3.8495790">
        <ele>673.8</ele>
        <time>2019-04-28T14:34:10Z</time>
      </trkpt>
      <trkpt lat="40.2985420" lon="-3.8495400">
        <ele>673.8</ele>
        <time>2019-04-28T14:34:11Z</time>
      </trkpt>
      <trkpt lat="40.2985050" lon="-3.8495010">
        <ele>673.8</ele>
        <time>2019-04-28T14:34:12Z</time>
      </trkpt>
      <trkpt lat="40.2984740" lon="-3.8494550">
        <ele>674.0</ele>
        <time>2019-04-28T14:34:13Z</time>
      </trkpt>
      <trkpt lat="40.2984430" lon="-3.8494070">
        <ele>674.2</ele>
        <time>2019-04-28T14:34:14Z</time>
      </trkpt>
      <trkpt lat="40.2984130" lon="-3.8493580">
        <ele>674.4</ele>
        <time>2019-04-28T14:34:15Z</time>
      </trkpt>
      <trkpt lat="40.2983870" lon="-3.8493070">
        <ele>674.4</ele>
        <time>2019-04-28T14:34:16Z</time>
      </trkpt>
      <trkpt lat="40.2983620" lon="-3.8492550">
        <ele>674.6</ele>
        <time>2019-04-28T14:34:17Z</time>
      </trkpt>
      <trkpt lat="40.2983360" lon="-3.8492050">
        <ele>674.8</ele>
        <time>2019-04-28T14:34:18Z</time>
      </trkpt>
      <trkpt lat="40.2983100" lon="-3.8491570">
        <ele>674.6</ele>
        <time>2019-04-28T14:34:19Z</time>
      </trkpt>
      <trkpt lat="40.2982580" lon="-3.8490710">
        <ele>674.6</ele>
        <time>2019-04-28T14:34:20Z</time>
      </trkpt>
      <trkpt lat="40.2982440" lon="-3.8490510">
        <ele>674.8</ele>
        <time>2019-04-28T14:34:21Z</time>
      </trkpt>
      <trkpt lat="40.2982300" lon="-3.8490310">
        <ele>674.8</ele>
        <time>2019-04-28T14:34:22Z</time>
      </trkpt>
      <trkpt lat="40.2981960" lon="-3.8489860">
        <ele>675.0</ele>
        <time>2019-04-28T14:34:23Z</time>
      </trkpt>
      <trkpt lat="40.2981580" lon="-3.8489440">
        <ele>675.0</ele>
        <time>2019-04-28T14:34:24Z</time>
      </trkpt>
      <trkpt lat="40.2980800" lon="-3.8488620">
        <ele>675.2</ele>
        <time>2019-04-28T14:34:25Z</time>
      </trkpt>
      <trkpt lat="40.2980600" lon="-3.8488400">
        <ele>675.2</ele>
        <time>2019-04-28T14:34:26Z</time>
      </trkpt>
      <trkpt lat="40.2980400" lon="-3.8488190">
        <ele>675.4</ele>
        <time>2019-04-28T14:34:27Z</time>
      </trkpt>
      <trkpt lat="40.2979970" lon="-3.8487830">
        <ele>675.4</ele>
        <time>2019-04-28T14:34:28Z</time>
      </trkpt>
      <trkpt lat="40.2979530" lon="-3.8487530">
        <ele>675.4</ele>
        <time>2019-04-28T14:34:29Z</time>
      </trkpt>
      <trkpt lat="40.2979140" lon="-3.8487140">
        <ele>675.6</ele>
        <time>2019-04-28T14:34:30Z</time>
      </trkpt>
      <trkpt lat="40.2978500" lon="-3.8486230">
        <ele>675.8</ele>
        <time>2019-04-28T14:34:31Z</time>
      </trkpt>
      <trkpt lat="40.2978340" lon="-3.8486030">
        <ele>676.0</ele>
        <time>2019-04-28T14:34:32Z</time>
      </trkpt>
      <trkpt lat="40.2978170" lon="-3.8485830">
        <ele>676.4</ele>
        <time>2019-04-28T14:34:33Z</time>
      </trkpt>
      <trkpt lat="40.2977880" lon="-3.8485420">
        <ele>676.6</ele>
        <time>2019-04-28T14:34:34Z</time>
      </trkpt>
      <trkpt lat="40.2977600" lon="-3.8485000">
        <ele>676.6</ele>
        <time>2019-04-28T14:34:35Z</time>
      </trkpt>
      <trkpt lat="40.2976950" lon="-3.8484270">
        <ele>676.6</ele>
        <time>2019-04-28T14:34:36Z</time>
      </trkpt>
      <trkpt lat="40.2976810" lon="-3.8484090">
        <ele>676.6</ele>
        <time>2019-04-28T14:34:37Z</time>
      </trkpt>
      <trkpt lat="40.2976660" lon="-3.8483910">
        <ele>676.6</ele>
        <time>2019-04-28T14:34:38Z</time>
      </trkpt>
      <trkpt lat="40.2976370" lon="-3.8483560">
        <ele>676.6</ele>
        <time>2019-04-28T14:34:39Z</time>
      </trkpt>
      <trkpt lat="40.2976040" lon="-3.8483270">
        <ele>676.6</ele>
        <time>2019-04-28T14:34:40Z</time>
      </trkpt>
      <trkpt lat="40.2975710" lon="-3.8483000">
        <ele>676.4</ele>
        <time>2019-04-28T14:34:41Z</time>
      </trkpt>
      <trkpt lat="40.2975100" lon="-3.8482450">
        <ele>676.6</ele>
        <time>2019-04-28T14:34:42Z</time>
      </trkpt>
      <trkpt lat="40.2974830" lon="-3.8482190">
        <ele>676.4</ele>
        <time>2019-04-28T14:34:43Z</time>
      </trkpt>
      <trkpt lat="40.2974830" lon="-3.8482190">
        <ele>676.4</ele>
        <time>2019-04-28T14:34:44Z</time>
      </trkpt>
      <trkpt lat="40.2974580" lon="-3.8481920">
        <ele>676.4</ele>
        <time>2019-04-28T14:34:45Z</time>
      </trkpt>
      <trkpt lat="40.2974340" lon="-3.8481650">
        <ele>676.4</ele>
        <time>2019-04-28T14:34:46Z</time>
      </trkpt>
      <trkpt lat="40.2974100" lon="-3.8481430">
        <ele>676.4</ele>
        <time>2019-04-28T14:34:47Z</time>
      </trkpt>
      <trkpt lat="40.2973680" lon="-3.8481230">
        <ele>676.4</ele>
        <time>2019-04-28T14:34:48Z</time>
      </trkpt>
      <trkpt lat="40.2973460" lon="-3.8481050">
        <ele>676.4</ele>
        <time>2019-04-28T14:34:49Z</time>
      </trkpt>
      <trkpt lat="40.2973460" lon="-3.8481050">
        <ele>676.4</ele>
        <time>2019-04-28T14:34:50Z</time>
      </trkpt>
      <trkpt lat="40.2973240" lon="-3.8480790">
        <ele>676.2</ele>
        <time>2019-04-28T14:34:51Z</time>
      </trkpt>
      <trkpt lat="40.2973040" lon="-3.8480460">
        <ele>676.2</ele>
        <time>2019-04-28T14:34:52Z</time>
      </trkpt>
      <trkpt lat="40.2972830" lon="-3.8480150">
        <ele>676.2</ele>
        <time>2019-04-28T14:34:53Z</time>
      </trkpt>
      <trkpt lat="40.2972600" lon="-3.8479780">
        <ele>676.2</ele>
        <time>2019-04-28T14:34:54Z</time>
      </trkpt>
      <trkpt lat="40.2972050" lon="-3.8479160">
        <ele>676.2</ele>
        <time>2019-04-28T14:34:55Z</time>
      </trkpt>
      <trkpt lat="40.2972050" lon="-3.8479160">
        <ele>676.2</ele>
        <time>2019-04-28T14:34:56Z</time>
      </trkpt>
      <trkpt lat="40.2971740" lon="-3.8478910">
        <ele>676.0</ele>
        <time>2019-04-28T14:34:57Z</time>
      </trkpt>
      <trkpt lat="40.2971190" lon="-3.8478420">
        <ele>676.0</ele>
        <time>2019-04-28T14:34:58Z</time>
      </trkpt>
      <trkpt lat="40.2971190" lon="-3.8478420">
        <ele>676.0</ele>
        <time>2019-04-28T14:34:59Z</time>
      </trkpt>
      <trkpt lat="40.2970920" lon="-3.8478230">
        <ele>676.2</ele>
        <time>2019-04-28T14:35:00Z</time>
      </trkpt>
      <trkpt lat="40.2970410" lon="-3.8477790">
        <ele>676.2</ele>
        <time>2019-04-28T14:35:01Z</time>
      </trkpt>
      <trkpt lat="40.2970410" lon="-3.8477790">
        <ele>676.2</ele>
        <time>2019-04-28T14:35:02Z</time>
      </trkpt>
      <trkpt lat="40.2970160" lon="-3.8477510">
        <ele>676.4</ele>
        <time>2019-04-28T14:35:03Z</time>
      </trkpt>
      <trkpt lat="40.2969870" lon="-3.8477270">
        <ele>676.4</ele>
        <time>2019-04-28T14:35:04Z</time>
      </trkpt>
      <trkpt lat="40.2969560" lon="-3.8477030">
        <ele>676.4</ele>
        <time>2019-04-28T14:35:05Z</time>
      </trkpt>
      <trkpt lat="40.2968950" lon="-3.8476500">
        <ele>676.6</ele>
        <time>2019-04-28T14:35:06Z</time>
      </trkpt>
      <trkpt lat="40.2968630" lon="-3.8476260">
        <ele>676.8</ele>
        <time>2019-04-28T14:35:07Z</time>
      </trkpt>
      <trkpt lat="40.2968470" lon="-3.8476130">
        <ele>676.8</ele>
        <time>2019-04-28T14:35:08Z</time>
      </trkpt>
      <trkpt lat="40.2968310" lon="-3.8476000">
        <ele>676.8</ele>
        <time>2019-04-28T14:35:09Z</time>
      </trkpt>
      <trkpt lat="40.2967660" lon="-3.8475560">
        <ele>676.8</ele>
        <time>2019-04-28T14:35:10Z</time>
      </trkpt>
      <trkpt lat="40.2967660" lon="-3.8475560">
        <ele>677.0</ele>
        <time>2019-04-28T14:35:11Z</time>
      </trkpt>
      <trkpt lat="40.2967350" lon="-3.8475340">
        <ele>677.2</ele>
        <time>2019-04-28T14:35:12Z</time>
      </trkpt>
      <trkpt lat="40.2966720" lon="-3.8474900">
        <ele>677.2</ele>
        <time>2019-04-28T14:35:13Z</time>
      </trkpt>
      <trkpt lat="40.2966550" lon="-3.8474810">
        <ele>677.4</ele>
        <time>2019-04-28T14:35:14Z</time>
      </trkpt>
      <trkpt lat="40.2966370" lon="-3.8474720">
        <ele>677.4</ele>
        <time>2019-04-28T14:35:15Z</time>
      </trkpt>
      <trkpt lat="40.2966040" lon="-3.8474490">
        <ele>677.4</ele>
        <time>2019-04-28T14:35:16Z</time>
      </trkpt>
      <trkpt lat="40.2965700" lon="-3.8474280">
        <ele>677.4</ele>
        <time>2019-04-28T14:35:17Z</time>
      </trkpt>
      <trkpt lat="40.2964970" lon="-3.8473890">
        <ele>677.6</ele>
        <time>2019-04-28T14:35:18Z</time>
      </trkpt>
      <trkpt lat="40.2964590" lon="-3.8473670">
        <ele>677.6</ele>
        <time>2019-04-28T14:35:19Z</time>
      </trkpt>
      <trkpt lat="40.2964400" lon="-3.8473560">
        <ele>677.8</ele>
        <time>2019-04-28T14:35:20Z</time>
      </trkpt>
      <trkpt lat="40.2964210" lon="-3.8473460">
        <ele>678.0</ele>
        <time>2019-04-28T14:35:21Z</time>
      </trkpt>
      <trkpt lat="40.2963820" lon="-3.8473260">
        <ele>678.0</ele>
        <time>2019-04-28T14:35:22Z</time>
      </trkpt>
      <trkpt lat="40.2963430" lon="-3.8473040">
        <ele>678.0</ele>
        <time>2019-04-28T14:35:23Z</time>
      </trkpt>
      <trkpt lat="40.2962650" lon="-3.8472580">
        <ele>678.0</ele>
        <time>2019-04-28T14:35:24Z</time>
      </trkpt>
      <trkpt lat="40.2962250" lon="-3.8472310">
        <ele>678.0</ele>
        <time>2019-04-28T14:35:25Z</time>
      </trkpt>
      <trkpt lat="40.2962050" lon="-3.8472190">
        <ele>678.2</ele>
        <time>2019-04-28T14:35:26Z</time>
      </trkpt>
      <trkpt lat="40.2961840" lon="-3.8472070">
        <ele>678.2</ele>
        <time>2019-04-28T14:35:27Z</time>
      </trkpt>
      <trkpt lat="40.2961440" lon="-3.8471850">
        <ele>678.2</ele>
        <time>2019-04-28T14:35:28Z</time>
      </trkpt>
      <trkpt lat="40.2961030" lon="-3.8471600">
        <ele>678.2</ele>
        <time>2019-04-28T14:35:29Z</time>
      </trkpt>
      <trkpt lat="40.2960290" lon="-3.8471070">
        <ele>678.4</ele>
        <time>2019-04-28T14:35:30Z</time>
      </trkpt>
      <trkpt lat="40.2959940" lon="-3.8470810">
        <ele>678.6</ele>
        <time>2019-04-28T14:35:31Z</time>
      </trkpt>
      <trkpt lat="40.2959790" lon="-3.8470670">
        <ele>678.8</ele>
        <time>2019-04-28T14:35:32Z</time>
      </trkpt>
      <trkpt lat="40.2959630" lon="-3.8470540">
        <ele>678.8</ele>
        <time>2019-04-28T14:35:33Z</time>
      </trkpt>
      <trkpt lat="40.2959320" lon="-3.8470270">
        <ele>679.0</ele>
        <time>2019-04-28T14:35:34Z</time>
      </trkpt>
      <trkpt lat="40.2958720" lon="-3.8469740">
        <ele>679.2</ele>
        <time>2019-04-28T14:35:35Z</time>
      </trkpt>
      <trkpt lat="40.2958410" lon="-3.8469460">
        <ele>679.2</ele>
        <time>2019-04-28T14:35:36Z</time>
      </trkpt>
      <trkpt lat="40.2958090" lon="-3.8469180">
        <ele>679.4</ele>
        <time>2019-04-28T14:35:37Z</time>
      </trkpt>
      <trkpt lat="40.2957770" lon="-3.8468890">
        <ele>679.4</ele>
        <time>2019-04-28T14:35:38Z</time>
      </trkpt>
      <trkpt lat="40.2957610" lon="-3.8468750">
        <ele>679.4</ele>
        <time>2019-04-28T14:35:39Z</time>
      </trkpt>
      <trkpt lat="40.2957450" lon="-3.8468610">
        <ele>679.4</ele>
        <time>2019-04-28T14:35:40Z</time>
      </trkpt>
      <trkpt lat="40.2956950" lon="-3.8467960">
        <ele>679.4</ele>
        <time>2019-04-28T14:35:41Z</time>
      </trkpt>
      <trkpt lat="40.2956710" lon="-3.8467640">
        <ele>679.4</ele>
        <time>2019-04-28T14:35:42Z</time>
      </trkpt>
      <trkpt lat="40.2956450" lon="-3.8467310">
        <ele>679.6</ele>
        <time>2019-04-28T14:35:43Z</time>
      </trkpt>
      <trkpt lat="40.2956320" lon="-3.8467130">
        <ele>679.6</ele>
        <time>2019-04-28T14:35:44Z</time>
      </trkpt>
      <trkpt lat="40.2956180" lon="-3.8466960">
        <ele>679.4</ele>
        <time>2019-04-28T14:35:45Z</time>
      </trkpt>
      <trkpt lat="40.2955870" lon="-3.8466610">
        <ele>679.4</ele>
        <time>2019-04-28T14:35:46Z</time>
      </trkpt>
      <trkpt lat="40.2955190" lon="-3.8465920">
        <ele>679.4</ele>
        <time>2019-04-28T14:35:47Z</time>
      </trkpt>
      <trkpt lat="40.2954840" lon="-3.8465570">
        <ele>679.4</ele>
        <time>2019-04-28T14:35:48Z</time>
      </trkpt>
      <trkpt lat="40.2954470" lon="-3.8465240">
        <ele>679.4</ele>
        <time>2019-04-28T14:35:49Z</time>
      </trkpt>
      <trkpt lat="40.2954090" lon="-3.8464970">
        <ele>679.6</ele>
        <time>2019-04-28T14:35:50Z</time>
      </trkpt>
      <trkpt lat="40.2953900" lon="-3.8464840">
        <ele>679.6</ele>
        <time>2019-04-28T14:35:51Z</time>
      </trkpt>
      <trkpt lat="40.2953710" lon="-3.8464710">
        <ele>679.8</ele>
        <time>2019-04-28T14:35:52Z</time>
      </trkpt>
      <trkpt lat="40.2952990" lon="-3.8464150">
        <ele>680.0</ele>
        <time>2019-04-28T14:35:53Z</time>
      </trkpt>
      <trkpt lat="40.2952640" lon="-3.8463850">
        <ele>680.0</ele>
        <time>2019-04-28T14:35:54Z</time>
      </trkpt>
      <trkpt lat="40.2952280" lon="-3.8463560">
        <ele>680.2</ele>
        <time>2019-04-28T14:35:55Z</time>
      </trkpt>
      <trkpt lat="40.2951930" lon="-3.8463260">
        <ele>680.4</ele>
        <time>2019-04-28T14:35:56Z</time>
      </trkpt>
      <trkpt lat="40.2951610" lon="-3.8462900">
        <ele>680.6</ele>
        <time>2019-04-28T14:35:57Z</time>
      </trkpt>
      <trkpt lat="40.2951290" lon="-3.8462550">
        <ele>680.8</ele>
        <time>2019-04-28T14:35:58Z</time>
      </trkpt>
      <trkpt lat="40.2950970" lon="-3.8462180">
        <ele>680.8</ele>
        <time>2019-04-28T14:35:59Z</time>
      </trkpt>
      <trkpt lat="40.2950650" lon="-3.8461810">
        <ele>680.8</ele>
        <time>2019-04-28T14:36:00Z</time>
      </trkpt>
      <trkpt lat="40.2950340" lon="-3.8461400">
        <ele>680.8</ele>
        <time>2019-04-28T14:36:01Z</time>
      </trkpt>
      <trkpt lat="40.2950180" lon="-3.8461210">
        <ele>680.8</ele>
        <time>2019-04-28T14:36:02Z</time>
      </trkpt>
      <trkpt lat="40.2950010" lon="-3.8461030">
        <ele>681.0</ele>
        <time>2019-04-28T14:36:03Z</time>
      </trkpt>
      <trkpt lat="40.2949280" lon="-3.8460370">
        <ele>681.0</ele>
        <time>2019-04-28T14:36:04Z</time>
      </trkpt>
      <trkpt lat="40.2948940" lon="-3.8460030">
        <ele>681.2</ele>
        <time>2019-04-28T14:36:05Z</time>
      </trkpt>
      <trkpt lat="40.2948620" lon="-3.8459720">
        <ele>681.2</ele>
        <time>2019-04-28T14:36:06Z</time>
      </trkpt>
      <trkpt lat="40.2948320" lon="-3.8459440">
        <ele>681.2</ele>
        <time>2019-04-28T14:36:07Z</time>
      </trkpt>
      <trkpt lat="40.2948050" lon="-3.8459160">
        <ele>681.2</ele>
        <time>2019-04-28T14:36:08Z</time>
      </trkpt>
      <trkpt lat="40.2947800" lon="-3.8458910">
        <ele>681.2</ele>
        <time>2019-04-28T14:36:09Z</time>
      </trkpt>
      <trkpt lat="40.2947550" lon="-3.8458670">
        <ele>681.6</ele>
        <time>2019-04-28T14:36:10Z</time>
      </trkpt>
      <trkpt lat="40.2947310" lon="-3.8458370">
        <ele>681.6</ele>
        <time>2019-04-28T14:36:11Z</time>
      </trkpt>
      <trkpt lat="40.2947060" lon="-3.8458050">
        <ele>681.6</ele>
        <time>2019-04-28T14:36:12Z</time>
      </trkpt>
      <trkpt lat="40.2946760" lon="-3.8457720">
        <ele>681.6</ele>
        <time>2019-04-28T14:36:13Z</time>
      </trkpt>
      <trkpt lat="40.2946610" lon="-3.8457540">
        <ele>681.8</ele>
        <time>2019-04-28T14:36:14Z</time>
      </trkpt>
      <trkpt lat="40.2946460" lon="-3.8457370">
        <ele>681.8</ele>
        <time>2019-04-28T14:36:15Z</time>
      </trkpt>
      <trkpt lat="40.2945820" lon="-3.8456680">
        <ele>682.0</ele>
        <time>2019-04-28T14:36:16Z</time>
      </trkpt>
      <trkpt lat="40.2945490" lon="-3.8456310">
        <ele>682.0</ele>
        <time>2019-04-28T14:36:17Z</time>
      </trkpt>
      <trkpt lat="40.2945160" lon="-3.8455950">
        <ele>682.0</ele>
        <time>2019-04-28T14:36:18Z</time>
      </trkpt>
      <trkpt lat="40.2944830" lon="-3.8455600">
        <ele>682.0</ele>
        <time>2019-04-28T14:36:19Z</time>
      </trkpt>
      <trkpt lat="40.2944490" lon="-3.8455220">
        <ele>682.0</ele>
        <time>2019-04-28T14:36:20Z</time>
      </trkpt>
      <trkpt lat="40.2944160" lon="-3.8454850">
        <ele>682.0</ele>
        <time>2019-04-28T14:36:21Z</time>
      </trkpt>
      <trkpt lat="40.2943830" lon="-3.8454490">
        <ele>682.2</ele>
        <time>2019-04-28T14:36:22Z</time>
      </trkpt>
      <trkpt lat="40.2943500" lon="-3.8454140">
        <ele>682.2</ele>
        <time>2019-04-28T14:36:23Z</time>
      </trkpt>
      <trkpt lat="40.2943170" lon="-3.8453810">
        <ele>682.4</ele>
        <time>2019-04-28T14:36:24Z</time>
      </trkpt>
      <trkpt lat="40.2942860" lon="-3.8453450">
        <ele>682.2</ele>
        <time>2019-04-28T14:36:25Z</time>
      </trkpt>
      <trkpt lat="40.2942550" lon="-3.8453110">
        <ele>682.4</ele>
        <time>2019-04-28T14:36:26Z</time>
      </trkpt>
      <trkpt lat="40.2942230" lon="-3.8452740">
        <ele>682.6</ele>
        <time>2019-04-28T14:36:27Z</time>
      </trkpt>
      <trkpt lat="40.2941910" lon="-3.8452380">
        <ele>682.6</ele>
        <time>2019-04-28T14:36:28Z</time>
      </trkpt>
      <trkpt lat="40.2941600" lon="-3.8452000">
        <ele>682.6</ele>
        <time>2019-04-28T14:36:29Z</time>
      </trkpt>
      <trkpt lat="40.2941280" lon="-3.8451650">
        <ele>682.6</ele>
        <time>2019-04-28T14:36:30Z</time>
      </trkpt>
      <trkpt lat="40.2940960" lon="-3.8451310">
        <ele>682.8</ele>
        <time>2019-04-28T14:36:31Z</time>
      </trkpt>
      <trkpt lat="40.2940650" lon="-3.8450950">
        <ele>682.8</ele>
        <time>2019-04-28T14:36:32Z</time>
      </trkpt>
      <trkpt lat="40.2940330" lon="-3.8450590">
        <ele>683.0</ele>
        <time>2019-04-28T14:36:33Z</time>
      </trkpt>
      <trkpt lat="40.2940000" lon="-3.8450240">
        <ele>683.0</ele>
        <time>2019-04-28T14:36:34Z</time>
      </trkpt>
      <trkpt lat="40.2939670" lon="-3.8449880">
        <ele>683.0</ele>
        <time>2019-04-28T14:36:35Z</time>
      </trkpt>
      <trkpt lat="40.2939330" lon="-3.8449520">
        <ele>683.2</ele>
        <time>2019-04-28T14:36:36Z</time>
      </trkpt>
      <trkpt lat="40.2938970" lon="-3.8449170">
        <ele>683.2</ele>
        <time>2019-04-28T14:36:37Z</time>
      </trkpt>
      <trkpt lat="40.2938600" lon="-3.8448840">
        <ele>683.4</ele>
        <time>2019-04-28T14:36:38Z</time>
      </trkpt>
      <trkpt lat="40.2938230" lon="-3.8448510">
        <ele>683.2</ele>
        <time>2019-04-28T14:36:39Z</time>
      </trkpt>
      <trkpt lat="40.2937860" lon="-3.8448170">
        <ele>683.4</ele>
        <time>2019-04-28T14:36:40Z</time>
      </trkpt>
      <trkpt lat="40.2937470" lon="-3.8447860">
        <ele>683.4</ele>
        <time>2019-04-28T14:36:41Z</time>
      </trkpt>
      <trkpt lat="40.2937090" lon="-3.8447530">
        <ele>683.6</ele>
        <time>2019-04-28T14:36:42Z</time>
      </trkpt>
      <trkpt lat="40.2936730" lon="-3.8447250">
        <ele>683.8</ele>
        <time>2019-04-28T14:36:43Z</time>
      </trkpt>
      <trkpt lat="40.2936360" lon="-3.8446970">
        <ele>684.0</ele>
        <time>2019-04-28T14:36:44Z</time>
      </trkpt>
      <trkpt lat="40.2935970" lon="-3.8446680">
        <ele>684.0</ele>
        <time>2019-04-28T14:36:45Z</time>
      </trkpt>
      <trkpt lat="40.2935600" lon="-3.8446410">
        <ele>684.0</ele>
        <time>2019-04-28T14:36:46Z</time>
      </trkpt>
      <trkpt lat="40.2935220" lon="-3.8446150">
        <ele>684.0</ele>
        <time>2019-04-28T14:36:47Z</time>
      </trkpt>
      <trkpt lat="40.2934830" lon="-3.8445930">
        <ele>684.0</ele>
        <time>2019-04-28T14:36:48Z</time>
      </trkpt>
      <trkpt lat="40.2934480" lon="-3.8445720">
        <ele>684.2</ele>
        <time>2019-04-28T14:36:49Z</time>
      </trkpt>
      <trkpt lat="40.2934100" lon="-3.8445520">
        <ele>684.4</ele>
        <time>2019-04-28T14:36:50Z</time>
      </trkpt>
      <trkpt lat="40.2933700" lon="-3.8445330">
        <ele>684.4</ele>
        <time>2019-04-28T14:36:51Z</time>
      </trkpt>
      <trkpt lat="40.2933280" lon="-3.8445110">
        <ele>684.4</ele>
        <time>2019-04-28T14:36:52Z</time>
      </trkpt>
      <trkpt lat="40.2932870" lon="-3.8444910">
        <ele>684.4</ele>
        <time>2019-04-28T14:36:53Z</time>
      </trkpt>
      <trkpt lat="40.2932470" lon="-3.8444720">
        <ele>684.6</ele>
        <time>2019-04-28T14:36:54Z</time>
      </trkpt>
      <trkpt lat="40.2932060" lon="-3.8444560">
        <ele>684.6</ele>
        <time>2019-04-28T14:36:55Z</time>
      </trkpt>
      <trkpt lat="40.2931670" lon="-3.8444430">
        <ele>684.8</ele>
        <time>2019-04-28T14:36:56Z</time>
      </trkpt>
      <trkpt lat="40.2931280" lon="-3.8444280">
        <ele>685.0</ele>
        <time>2019-04-28T14:36:57Z</time>
      </trkpt>
      <trkpt lat="40.2930880" lon="-3.8444100">
        <ele>685.0</ele>
        <time>2019-04-28T14:36:58Z</time>
      </trkpt>
      <trkpt lat="40.2930500" lon="-3.8443880">
        <ele>685.0</ele>
        <time>2019-04-28T14:36:59Z</time>
      </trkpt>
      <trkpt lat="40.2930120" lon="-3.8443670">
        <ele>685.4</ele>
        <time>2019-04-28T14:37:00Z</time>
      </trkpt>
      <trkpt lat="40.2929740" lon="-3.8443480">
        <ele>685.4</ele>
        <time>2019-04-28T14:37:01Z</time>
      </trkpt>
      <trkpt lat="40.2929350" lon="-3.8443290">
        <ele>685.4</ele>
        <time>2019-04-28T14:37:02Z</time>
      </trkpt>
      <trkpt lat="40.2928960" lon="-3.8443120">
        <ele>685.6</ele>
        <time>2019-04-28T14:37:03Z</time>
      </trkpt>
      <trkpt lat="40.2928570" lon="-3.8442950">
        <ele>685.6</ele>
        <time>2019-04-28T14:37:04Z</time>
      </trkpt>
      <trkpt lat="40.2928190" lon="-3.8442760">
        <ele>685.8</ele>
        <time>2019-04-28T14:37:05Z</time>
      </trkpt>
      <trkpt lat="40.2927810" lon="-3.8442570">
        <ele>686.0</ele>
        <time>2019-04-28T14:37:06Z</time>
      </trkpt>
      <trkpt lat="40.2927410" lon="-3.8442370">
        <ele>686.0</ele>
        <time>2019-04-28T14:37:07Z</time>
      </trkpt>
      <trkpt lat="40.2927020" lon="-3.8442160">
        <ele>686.2</ele>
        <time>2019-04-28T14:37:08Z</time>
      </trkpt>
      <trkpt lat="40.2926630" lon="-3.8441960">
        <ele>686.2</ele>
        <time>2019-04-28T14:37:09Z</time>
      </trkpt>
      <trkpt lat="40.2926230" lon="-3.8441740">
        <ele>686.4</ele>
        <time>2019-04-28T14:37:10Z</time>
      </trkpt>
      <trkpt lat="40.2925830" lon="-3.8441510">
        <ele>686.4</ele>
        <time>2019-04-28T14:37:11Z</time>
      </trkpt>
      <trkpt lat="40.2925440" lon="-3.8441300">
        <ele>686.4</ele>
        <time>2019-04-28T14:37:12Z</time>
      </trkpt>
      <trkpt lat="40.2925050" lon="-3.8441100">
        <ele>686.6</ele>
        <time>2019-04-28T14:37:13Z</time>
      </trkpt>
      <trkpt lat="40.2924660" lon="-3.8440910">
        <ele>686.6</ele>
        <time>2019-04-28T14:37:14Z</time>
      </trkpt>
      <trkpt lat="40.2924280" lon="-3.8440730">
        <ele>686.8</ele>
        <time>2019-04-28T14:37:15Z</time>
      </trkpt>
      <trkpt lat="40.2923920" lon="-3.8440520">
        <ele>687.0</ele>
        <time>2019-04-28T14:37:16Z</time>
      </trkpt>
      <trkpt lat="40.2923550" lon="-3.8440300">
        <ele>687.0</ele>
        <time>2019-04-28T14:37:17Z</time>
      </trkpt>
      <trkpt lat="40.2923170" lon="-3.8440100">
        <ele>687.2</ele>
        <time>2019-04-28T14:37:18Z</time>
      </trkpt>
      <trkpt lat="40.2922760" lon="-3.8439940">
        <ele>687.2</ele>
        <time>2019-04-28T14:37:19Z</time>
      </trkpt>
      <trkpt lat="40.2922340" lon="-3.8439760">
        <ele>687.4</ele>
        <time>2019-04-28T14:37:20Z</time>
      </trkpt>
      <trkpt lat="40.2921920" lon="-3.8439600">
        <ele>687.4</ele>
        <time>2019-04-28T14:37:21Z</time>
      </trkpt>
      <trkpt lat="40.2921500" lon="-3.8439410">
        <ele>687.6</ele>
        <time>2019-04-28T14:37:22Z</time>
      </trkpt>
      <trkpt lat="40.2921100" lon="-3.8439190">
        <ele>687.6</ele>
        <time>2019-04-28T14:37:23Z</time>
      </trkpt>
      <trkpt lat="40.2920700" lon="-3.8438990">
        <ele>687.8</ele>
        <time>2019-04-28T14:37:24Z</time>
      </trkpt>
      <trkpt lat="40.2920290" lon="-3.8438820">
        <ele>688.0</ele>
        <time>2019-04-28T14:37:25Z</time>
      </trkpt>
      <trkpt lat="40.2919870" lon="-3.8438650">
        <ele>688.0</ele>
        <time>2019-04-28T14:37:26Z</time>
      </trkpt>
      <trkpt lat="40.2919480" lon="-3.8438470">
        <ele>688.2</ele>
        <time>2019-04-28T14:37:27Z</time>
      </trkpt>
      <trkpt lat="40.2919110" lon="-3.8438290">
        <ele>688.4</ele>
        <time>2019-04-28T14:37:28Z</time>
      </trkpt>
      <trkpt lat="40.2918750" lon="-3.8438110">
        <ele>688.4</ele>
        <time>2019-04-28T14:37:29Z</time>
      </trkpt>
      <trkpt lat="40.2918370" lon="-3.8437980">
        <ele>688.4</ele>
        <time>2019-04-28T14:37:30Z</time>
      </trkpt>
      <trkpt lat="40.2917970" lon="-3.8437850">
        <ele>688.6</ele>
        <time>2019-04-28T14:37:31Z</time>
      </trkpt>
      <trkpt lat="40.2917600" lon="-3.8437730">
        <ele>688.8</ele>
        <time>2019-04-28T14:37:32Z</time>
      </trkpt>
      <trkpt lat="40.2917240" lon="-3.8437600">
        <ele>689.0</ele>
        <time>2019-04-28T14:37:33Z</time>
      </trkpt>
      <trkpt lat="40.2916870" lon="-3.8437490">
        <ele>689.0</ele>
        <time>2019-04-28T14:37:34Z</time>
      </trkpt>
      <trkpt lat="40.2916490" lon="-3.8437390">
        <ele>689.0</ele>
        <time>2019-04-28T14:37:35Z</time>
      </trkpt>
      <trkpt lat="40.2916100" lon="-3.8437260">
        <ele>689.2</ele>
        <time>2019-04-28T14:37:36Z</time>
      </trkpt>
      <trkpt lat="40.2915710" lon="-3.8437120">
        <ele>689.2</ele>
        <time>2019-04-28T14:37:37Z</time>
      </trkpt>
      <trkpt lat="40.2915300" lon="-3.8436960">
        <ele>689.4</ele>
        <time>2019-04-28T14:37:38Z</time>
      </trkpt>
      <trkpt lat="40.2914890" lon="-3.8436820">
        <ele>689.4</ele>
        <time>2019-04-28T14:37:39Z</time>
      </trkpt>
      <trkpt lat="40.2914490" lon="-3.8436700">
        <ele>689.6</ele>
        <time>2019-04-28T14:37:40Z</time>
      </trkpt>
      <trkpt lat="40.2914080" lon="-3.8436560">
        <ele>689.6</ele>
        <time>2019-04-28T14:37:41Z</time>
      </trkpt>
      <trkpt lat="40.2913690" lon="-3.8436400">
        <ele>689.8</ele>
        <time>2019-04-28T14:37:42Z</time>
      </trkpt>
      <trkpt lat="40.2913300" lon="-3.8436240">
        <ele>689.8</ele>
        <time>2019-04-28T14:37:43Z</time>
      </trkpt>
      <trkpt lat="40.2912880" lon="-3.8436120">
        <ele>690.0</ele>
        <time>2019-04-28T14:37:44Z</time>
      </trkpt>
      <trkpt lat="40.2912480" lon="-3.8436030">
        <ele>690.0</ele>
        <time>2019-04-28T14:37:45Z</time>
      </trkpt>
      <trkpt lat="40.2912070" lon="-3.8435890">
        <ele>690.2</ele>
        <time>2019-04-28T14:37:46Z</time>
      </trkpt>
      <trkpt lat="40.2911720" lon="-3.8435760">
        <ele>690.4</ele>
        <time>2019-04-28T14:37:47Z</time>
      </trkpt>
      <trkpt lat="40.2911320" lon="-3.8435610">
        <ele>690.4</ele>
        <time>2019-04-28T14:37:48Z</time>
      </trkpt>
      <trkpt lat="40.2911020" lon="-3.8435500">
        <ele>690.4</ele>
        <time>2019-04-28T14:37:49Z</time>
      </trkpt>
      <trkpt lat="40.2910630" lon="-3.8435370">
        <ele>690.8</ele>
        <time>2019-04-28T14:37:50Z</time>
      </trkpt>
      <trkpt lat="40.2910230" lon="-3.8435170">
        <ele>690.8</ele>
        <time>2019-04-28T14:37:51Z</time>
      </trkpt>
      <trkpt lat="40.2909840" lon="-3.8435010">
        <ele>691.2</ele>
        <time>2019-04-28T14:37:52Z</time>
      </trkpt>
      <trkpt lat="40.2909470" lon="-3.8434840">
        <ele>691.2</ele>
        <time>2019-04-28T14:37:53Z</time>
      </trkpt>
      <trkpt lat="40.2909090" lon="-3.8434690">
        <ele>691.4</ele>
        <time>2019-04-28T14:37:54Z</time>
      </trkpt>
      <trkpt lat="40.2908700" lon="-3.8434560">
        <ele>691.4</ele>
        <time>2019-04-28T14:37:55Z</time>
      </trkpt>
      <trkpt lat="40.2908330" lon="-3.8434410">
        <ele>691.4</ele>
        <time>2019-04-28T14:37:56Z</time>
      </trkpt>
      <trkpt lat="40.2907980" lon="-3.8434190">
        <ele>691.6</ele>
        <time>2019-04-28T14:37:57Z</time>
      </trkpt>
      <trkpt lat="40.2907600" lon="-3.8434020">
        <ele>691.6</ele>
        <time>2019-04-28T14:37:58Z</time>
      </trkpt>
      <trkpt lat="40.2907180" lon="-3.8433840">
        <ele>691.8</ele>
        <time>2019-04-28T14:37:59Z</time>
      </trkpt>
      <trkpt lat="40.2906760" lon="-3.8433690">
        <ele>692.0</ele>
        <time>2019-04-28T14:38:00Z</time>
      </trkpt>
      <trkpt lat="40.2906330" lon="-3.8433560">
        <ele>692.2</ele>
        <time>2019-04-28T14:38:01Z</time>
      </trkpt>
      <trkpt lat="40.2905920" lon="-3.8433380">
        <ele>692.4</ele>
        <time>2019-04-28T14:38:02Z</time>
      </trkpt>
      <trkpt lat="40.2905500" lon="-3.8433210">
        <ele>692.4</ele>
        <time>2019-04-28T14:38:03Z</time>
      </trkpt>
      <trkpt lat="40.2905090" lon="-3.8433070">
        <ele>692.6</ele>
        <time>2019-04-28T14:38:04Z</time>
      </trkpt>
      <trkpt lat="40.2904670" lon="-3.8432940">
        <ele>692.6</ele>
        <time>2019-04-28T14:38:05Z</time>
      </trkpt>
      <trkpt lat="40.2904260" lon="-3.8432800">
        <ele>692.6</ele>
        <time>2019-04-28T14:38:06Z</time>
      </trkpt>
      <trkpt lat="40.2903870" lon="-3.8432650">
        <ele>692.8</ele>
        <time>2019-04-28T14:38:07Z</time>
      </trkpt>
      <trkpt lat="40.2903490" lon="-3.8432490">
        <ele>693.2</ele>
        <time>2019-04-28T14:38:08Z</time>
      </trkpt>
      <trkpt lat="40.2903140" lon="-3.8432340">
        <ele>693.2</ele>
        <time>2019-04-28T14:38:09Z</time>
      </trkpt>
      <trkpt lat="40.2902810" lon="-3.8432160">
        <ele>693.4</ele>
        <time>2019-04-28T14:38:10Z</time>
      </trkpt>
      <trkpt lat="40.2902470" lon="-3.8431990">
        <ele>693.6</ele>
        <time>2019-04-28T14:38:11Z</time>
      </trkpt>
      <trkpt lat="40.2902120" lon="-3.8431810">
        <ele>694.0</ele>
        <time>2019-04-28T14:38:12Z</time>
      </trkpt>
      <trkpt lat="40.2901780" lon="-3.8431640">
        <ele>694.0</ele>
        <time>2019-04-28T14:38:13Z</time>
      </trkpt>
      <trkpt lat="40.2901440" lon="-3.8431480">
        <ele>694.4</ele>
        <time>2019-04-28T14:38:14Z</time>
      </trkpt>
      <trkpt lat="40.2901100" lon="-3.8431300">
        <ele>694.6</ele>
        <time>2019-04-28T14:38:15Z</time>
      </trkpt>
      <trkpt lat="40.2900760" lon="-3.8431140">
        <ele>694.8</ele>
        <time>2019-04-28T14:38:16Z</time>
      </trkpt>
      <trkpt lat="40.2900410" lon="-3.8430960">
        <ele>695.0</ele>
        <time>2019-04-28T14:38:17Z</time>
      </trkpt>
      <trkpt lat="40.2900060" lon="-3.8430790">
        <ele>695.0</ele>
        <time>2019-04-28T14:38:18Z</time>
      </trkpt>
      <trkpt lat="40.2899700" lon="-3.8430630">
        <ele>695.2</ele>
        <time>2019-04-28T14:38:19Z</time>
      </trkpt>
      <trkpt lat="40.2899340" lon="-3.8430470">
        <ele>695.4</ele>
        <time>2019-04-28T14:38:20Z</time>
      </trkpt>
      <trkpt lat="40.2898980" lon="-3.8430280">
        <ele>695.4</ele>
        <time>2019-04-28T14:38:21Z</time>
      </trkpt>
      <trkpt lat="40.2898610" lon="-3.8430120">
        <ele>695.6</ele>
        <time>2019-04-28T14:38:22Z</time>
      </trkpt>
      <trkpt lat="40.2898220" lon="-3.8430060">
        <ele>695.8</ele>
        <time>2019-04-28T14:38:23Z</time>
      </trkpt>
      <trkpt lat="40.2897820" lon="-3.8429990">
        <ele>696.0</ele>
        <time>2019-04-28T14:38:24Z</time>
      </trkpt>
      <trkpt lat="40.2897440" lon="-3.8429890">
        <ele>696.2</ele>
        <time>2019-04-28T14:38:25Z</time>
      </trkpt>
      <trkpt lat="40.2897070" lon="-3.8429790">
        <ele>696.2</ele>
        <time>2019-04-28T14:38:26Z</time>
      </trkpt>
      <trkpt lat="40.2896700" lon="-3.8429640">
        <ele>696.2</ele>
        <time>2019-04-28T14:38:27Z</time>
      </trkpt>
      <trkpt lat="40.2896330" lon="-3.8429500">
        <ele>696.2</ele>
        <time>2019-04-28T14:38:28Z</time>
      </trkpt>
      <trkpt lat="40.2895960" lon="-3.8429360">
        <ele>696.2</ele>
        <time>2019-04-28T14:38:29Z</time>
      </trkpt>
      <trkpt lat="40.2895600" lon="-3.8429230">
        <ele>696.2</ele>
        <time>2019-04-28T14:38:30Z</time>
      </trkpt>
      <trkpt lat="40.2895230" lon="-3.8429090">
        <ele>696.4</ele>
        <time>2019-04-28T14:38:31Z</time>
      </trkpt>
      <trkpt lat="40.2894860" lon="-3.8428950">
        <ele>696.4</ele>
        <time>2019-04-28T14:38:32Z</time>
      </trkpt>
      <trkpt lat="40.2894490" lon="-3.8428820">
        <ele>696.6</ele>
        <time>2019-04-28T14:38:33Z</time>
      </trkpt>
      <trkpt lat="40.2894130" lon="-3.8428680">
        <ele>696.8</ele>
        <time>2019-04-28T14:38:34Z</time>
      </trkpt>
      <trkpt lat="40.2893780" lon="-3.8428540">
        <ele>697.2</ele>
        <time>2019-04-28T14:38:35Z</time>
      </trkpt>
      <trkpt lat="40.2893430" lon="-3.8428390">
        <ele>697.2</ele>
        <time>2019-04-28T14:38:36Z</time>
      </trkpt>
      <trkpt lat="40.2893100" lon="-3.8428220">
        <ele>697.2</ele>
        <time>2019-04-28T14:38:37Z</time>
      </trkpt>
      <trkpt lat="40.2892750" lon="-3.8428070">
        <ele>697.4</ele>
        <time>2019-04-28T14:38:38Z</time>
      </trkpt>
      <trkpt lat="40.2892390" lon="-3.8427950">
        <ele>697.6</ele>
        <time>2019-04-28T14:38:39Z</time>
      </trkpt>
      <trkpt lat="40.2892040" lon="-3.8427850">
        <ele>697.8</ele>
        <time>2019-04-28T14:38:40Z</time>
      </trkpt>
      <trkpt lat="40.2891680" lon="-3.8427720">
        <ele>698.0</ele>
        <time>2019-04-28T14:38:41Z</time>
      </trkpt>
      <trkpt lat="40.2891330" lon="-3.8427570">
        <ele>698.2</ele>
        <time>2019-04-28T14:38:42Z</time>
      </trkpt>
      <trkpt lat="40.2890980" lon="-3.8427390">
        <ele>698.2</ele>
        <time>2019-04-28T14:38:43Z</time>
      </trkpt>
      <trkpt lat="40.2890620" lon="-3.8427210">
        <ele>698.2</ele>
        <time>2019-04-28T14:38:44Z</time>
      </trkpt>
      <trkpt lat="40.2890260" lon="-3.8427030">
        <ele>698.4</ele>
        <time>2019-04-28T14:38:45Z</time>
      </trkpt>
      <trkpt lat="40.2889880" lon="-3.8426850">
        <ele>698.4</ele>
        <time>2019-04-28T14:38:46Z</time>
      </trkpt>
      <trkpt lat="40.2889480" lon="-3.8426680">
        <ele>698.6</ele>
        <time>2019-04-28T14:38:47Z</time>
      </trkpt>
      <trkpt lat="40.2889100" lon="-3.8426490">
        <ele>698.6</ele>
        <time>2019-04-28T14:38:48Z</time>
      </trkpt>
      <trkpt lat="40.2888700" lon="-3.8426340">
        <ele>698.8</ele>
        <time>2019-04-28T14:38:49Z</time>
      </trkpt>
      <trkpt lat="40.2888300" lon="-3.8426190">
        <ele>698.8</ele>
        <time>2019-04-28T14:38:50Z</time>
      </trkpt>
      <trkpt lat="40.2887930" lon="-3.8426070">
        <ele>698.8</ele>
        <time>2019-04-28T14:38:51Z</time>
      </trkpt>
      <trkpt lat="40.2887500" lon="-3.8425980">
        <ele>698.8</ele>
        <time>2019-04-28T14:38:52Z</time>
      </trkpt>
      <trkpt lat="40.2887140" lon="-3.8425870">
        <ele>699.0</ele>
        <time>2019-04-28T14:38:53Z</time>
      </trkpt>
      <trkpt lat="40.2886680" lon="-3.8425730">
        <ele>699.0</ele>
        <time>2019-04-28T14:38:54Z</time>
      </trkpt>
      <trkpt lat="40.2886260" lon="-3.8425620">
        <ele>699.0</ele>
        <time>2019-04-28T14:38:55Z</time>
      </trkpt>
      <trkpt lat="40.2885820" lon="-3.8425510">
        <ele>699.0</ele>
        <time>2019-04-28T14:38:56Z</time>
      </trkpt>
      <trkpt lat="40.2885410" lon="-3.8425380">
        <ele>699.2</ele>
        <time>2019-04-28T14:38:57Z</time>
      </trkpt>
      <trkpt lat="40.2885000" lon="-3.8425260">
        <ele>699.4</ele>
        <time>2019-04-28T14:38:58Z</time>
      </trkpt>
      <trkpt lat="40.2884610" lon="-3.8425180">
        <ele>699.4</ele>
        <time>2019-04-28T14:38:59Z</time>
      </trkpt>
      <trkpt lat="40.2884210" lon="-3.8425100">
        <ele>699.6</ele>
        <time>2019-04-28T14:39:00Z</time>
      </trkpt>
      <trkpt lat="40.2883830" lon="-3.8425000">
        <ele>699.6</ele>
        <time>2019-04-28T14:39:01Z</time>
      </trkpt>
      <trkpt lat="40.2883450" lon="-3.8424890">
        <ele>700.0</ele>
        <time>2019-04-28T14:39:02Z</time>
      </trkpt>
      <trkpt lat="40.2883060" lon="-3.8424810">
        <ele>700.0</ele>
        <time>2019-04-28T14:39:03Z</time>
      </trkpt>
      <trkpt lat="40.2882680" lon="-3.8424720">
        <ele>700.2</ele>
        <time>2019-04-28T14:39:04Z</time>
      </trkpt>
      <trkpt lat="40.2882300" lon="-3.8424600">
        <ele>700.2</ele>
        <time>2019-04-28T14:39:05Z</time>
      </trkpt>
      <trkpt lat="40.2881910" lon="-3.8424470">
        <ele>700.4</ele>
        <time>2019-04-28T14:39:06Z</time>
      </trkpt>
      <trkpt lat="40.2881520" lon="-3.8424340">
        <ele>700.6</ele>
        <time>2019-04-28T14:39:07Z</time>
      </trkpt>
      <trkpt lat="40.2881150" lon="-3.8424220">
        <ele>700.8</ele>
        <time>2019-04-28T14:39:08Z</time>
      </trkpt>
      <trkpt lat="40.2880780" lon="-3.8424060">
        <ele>701.0</ele>
        <time>2019-04-28T14:39:09Z</time>
      </trkpt>
      <trkpt lat="40.2880410" lon="-3.8423900">
        <ele>701.0</ele>
        <time>2019-04-28T14:39:10Z</time>
      </trkpt>
      <trkpt lat="40.2880050" lon="-3.8423710">
        <ele>701.2</ele>
        <time>2019-04-28T14:39:11Z</time>
      </trkpt>
      <trkpt lat="40.2879690" lon="-3.8423500">
        <ele>701.2</ele>
        <time>2019-04-28T14:39:12Z</time>
      </trkpt>
      <trkpt lat="40.2879320" lon="-3.8423260">
        <ele>701.4</ele>
        <time>2019-04-28T14:39:13Z</time>
      </trkpt>
      <trkpt lat="40.2878960" lon="-3.8423010">
        <ele>701.6</ele>
        <time>2019-04-28T14:39:14Z</time>
      </trkpt>
      <trkpt lat="40.2878610" lon="-3.8422740">
        <ele>701.6</ele>
        <time>2019-04-28T14:39:15Z</time>
      </trkpt>
      <trkpt lat="40.2878280" lon="-3.8422420">
        <ele>701.8</ele>
        <time>2019-04-28T14:39:16Z</time>
      </trkpt>
      <trkpt lat="40.2877960" lon="-3.8422050">
        <ele>701.8</ele>
        <time>2019-04-28T14:39:17Z</time>
      </trkpt>
      <trkpt lat="40.2877600" lon="-3.8421700">
        <ele>701.8</ele>
        <time>2019-04-28T14:39:18Z</time>
      </trkpt>
      <trkpt lat="40.2877210" lon="-3.8421390">
        <ele>701.8</ele>
        <time>2019-04-28T14:39:19Z</time>
      </trkpt>
      <trkpt lat="40.2876810" lon="-3.8421090">
        <ele>702.0</ele>
        <time>2019-04-28T14:39:20Z</time>
      </trkpt>
      <trkpt lat="40.2876390" lon="-3.8420850">
        <ele>702.2</ele>
        <time>2019-04-28T14:39:21Z</time>
      </trkpt>
      <trkpt lat="40.2875980" lon="-3.8420600">
        <ele>702.2</ele>
        <time>2019-04-28T14:39:22Z</time>
      </trkpt>
      <trkpt lat="40.2875560" lon="-3.8420360">
        <ele>702.2</ele>
        <time>2019-04-28T14:39:23Z</time>
      </trkpt>
      <trkpt lat="40.2875150" lon="-3.8420140">
        <ele>702.2</ele>
        <time>2019-04-28T14:39:24Z</time>
      </trkpt>
      <trkpt lat="40.2874730" lon="-3.8419930">
        <ele>702.2</ele>
        <time>2019-04-28T14:39:25Z</time>
      </trkpt>
      <trkpt lat="40.2874320" lon="-3.8419730">
        <ele>702.4</ele>
        <time>2019-04-28T14:39:26Z</time>
      </trkpt>
      <trkpt lat="40.2873910" lon="-3.8419510">
        <ele>702.6</ele>
        <time>2019-04-28T14:39:27Z</time>
      </trkpt>
      <trkpt lat="40.2873510" lon="-3.8419280">
        <ele>702.6</ele>
        <time>2019-04-28T14:39:28Z</time>
      </trkpt>
      <trkpt lat="40.2873110" lon="-3.8419080">
        <ele>702.6</ele>
        <time>2019-04-28T14:39:29Z</time>
      </trkpt>
      <trkpt lat="40.2872700" lon="-3.8418890">
        <ele>702.6</ele>
        <time>2019-04-28T14:39:30Z</time>
      </trkpt>
      <trkpt lat="40.2872300" lon="-3.8418670">
        <ele>702.8</ele>
        <time>2019-04-28T14:39:31Z</time>
      </trkpt>
      <trkpt lat="40.2871920" lon="-3.8418400">
        <ele>702.8</ele>
        <time>2019-04-28T14:39:32Z</time>
      </trkpt>
      <trkpt lat="40.2871530" lon="-3.8418160">
        <ele>702.8</ele>
        <time>2019-04-28T14:39:33Z</time>
      </trkpt>
      <trkpt lat="40.2871160" lon="-3.8417870">
        <ele>703.0</ele>
        <time>2019-04-28T14:39:34Z</time>
      </trkpt>
      <trkpt lat="40.2870810" lon="-3.8417600">
        <ele>703.0</ele>
        <time>2019-04-28T14:39:35Z</time>
      </trkpt>
      <trkpt lat="40.2870460" lon="-3.8417300">
        <ele>703.0</ele>
        <time>2019-04-28T14:39:36Z</time>
      </trkpt>
      <trkpt lat="40.2870100" lon="-3.8416990">
        <ele>703.0</ele>
        <time>2019-04-28T14:39:37Z</time>
      </trkpt>
      <trkpt lat="40.2869750" lon="-3.8416660">
        <ele>703.0</ele>
        <time>2019-04-28T14:39:38Z</time>
      </trkpt>
      <trkpt lat="40.2869400" lon="-3.8416340">
        <ele>703.2</ele>
        <time>2019-04-28T14:39:39Z</time>
      </trkpt>
      <trkpt lat="40.2869050" lon="-3.8416000">
        <ele>703.2</ele>
        <time>2019-04-28T14:39:40Z</time>
      </trkpt>
      <trkpt lat="40.2868710" lon="-3.8415650">
        <ele>703.2</ele>
        <time>2019-04-28T14:39:41Z</time>
      </trkpt>
      <trkpt lat="40.2868370" lon="-3.8415330">
        <ele>703.4</ele>
        <time>2019-04-28T14:39:42Z</time>
      </trkpt>
      <trkpt lat="40.2868020" lon="-3.8415050">
        <ele>703.4</ele>
        <time>2019-04-28T14:39:43Z</time>
      </trkpt>
      <trkpt lat="40.2867680" lon="-3.8414750">
        <ele>703.6</ele>
        <time>2019-04-28T14:39:44Z</time>
      </trkpt>
      <trkpt lat="40.2867330" lon="-3.8414460">
        <ele>703.8</ele>
        <time>2019-04-28T14:39:45Z</time>
      </trkpt>
      <trkpt lat="40.2866970" lon="-3.8414180">
        <ele>703.8</ele>
        <time>2019-04-28T14:39:46Z</time>
      </trkpt>
      <trkpt lat="40.2866590" lon="-3.8413910">
        <ele>704.0</ele>
        <time>2019-04-28T14:39:47Z</time>
      </trkpt>
      <trkpt lat="40.2866240" lon="-3.8413630">
        <ele>704.4</ele>
        <time>2019-04-28T14:39:48Z</time>
      </trkpt>
      <trkpt lat="40.2865880" lon="-3.8413380">
        <ele>704.4</ele>
        <time>2019-04-28T14:39:49Z</time>
      </trkpt>
      <trkpt lat="40.2865510" lon="-3.8413150">
        <ele>704.4</ele>
        <time>2019-04-28T14:39:50Z</time>
      </trkpt>
      <trkpt lat="40.2865120" lon="-3.8412940">
        <ele>704.6</ele>
        <time>2019-04-28T14:39:51Z</time>
      </trkpt>
      <trkpt lat="40.2864740" lon="-3.8412720">
        <ele>705.0</ele>
        <time>2019-04-28T14:39:52Z</time>
      </trkpt>
      <trkpt lat="40.2864380" lon="-3.8412460">
        <ele>705.2</ele>
        <time>2019-04-28T14:39:53Z</time>
      </trkpt>
      <trkpt lat="40.2864000" lon="-3.8412210">
        <ele>705.4</ele>
        <time>2019-04-28T14:39:54Z</time>
      </trkpt>
      <trkpt lat="40.2863630" lon="-3.8412040">
        <ele>705.6</ele>
        <time>2019-04-28T14:39:55Z</time>
      </trkpt>
      <trkpt lat="40.2863250" lon="-3.8411910">
        <ele>706.0</ele>
        <time>2019-04-28T14:39:56Z</time>
      </trkpt>
      <trkpt lat="40.2862830" lon="-3.8411830">
        <ele>706.0</ele>
        <time>2019-04-28T14:39:57Z</time>
      </trkpt>
      <trkpt lat="40.2862400" lon="-3.8411760">
        <ele>706.2</ele>
        <time>2019-04-28T14:39:58Z</time>
      </trkpt>
      <trkpt lat="40.2861990" lon="-3.8411660">
        <ele>706.2</ele>
        <time>2019-04-28T14:39:59Z</time>
      </trkpt>
      <trkpt lat="40.2861590" lon="-3.8411520">
        <ele>706.4</ele>
        <time>2019-04-28T14:40:00Z</time>
      </trkpt>
      <trkpt lat="40.2861160" lon="-3.8411440">
        <ele>706.6</ele>
        <time>2019-04-28T14:40:01Z</time>
      </trkpt>
      <trkpt lat="40.2860720" lon="-3.8411350">
        <ele>706.8</ele>
        <time>2019-04-28T14:40:02Z</time>
      </trkpt>
      <trkpt lat="40.2860300" lon="-3.8411260">
        <ele>707.0</ele>
        <time>2019-04-28T14:40:03Z</time>
      </trkpt>
      <trkpt lat="40.2859880" lon="-3.8411170">
        <ele>707.0</ele>
        <time>2019-04-28T14:40:04Z</time>
      </trkpt>
      <trkpt lat="40.2859450" lon="-3.8411060">
        <ele>707.2</ele>
        <time>2019-04-28T14:40:05Z</time>
      </trkpt>
      <trkpt lat="40.2859040" lon="-3.8410880">
        <ele>707.2</ele>
        <time>2019-04-28T14:40:06Z</time>
      </trkpt>
      <trkpt lat="40.2858620" lon="-3.8410700">
        <ele>707.4</ele>
        <time>2019-04-28T14:40:07Z</time>
      </trkpt>
      <trkpt lat="40.2858200" lon="-3.8410480">
        <ele>707.6</ele>
        <time>2019-04-28T14:40:08Z</time>
      </trkpt>
      <trkpt lat="40.2857790" lon="-3.8410230">
        <ele>707.6</ele>
        <time>2019-04-28T14:40:09Z</time>
      </trkpt>
      <trkpt lat="40.2857380" lon="-3.8409960">
        <ele>707.6</ele>
        <time>2019-04-28T14:40:10Z</time>
      </trkpt>
      <trkpt lat="40.2856970" lon="-3.8409730">
        <ele>707.8</ele>
        <time>2019-04-28T14:40:11Z</time>
      </trkpt>
      <trkpt lat="40.2856550" lon="-3.8409550">
        <ele>708.0</ele>
        <time>2019-04-28T14:40:12Z</time>
      </trkpt>
      <trkpt lat="40.2856110" lon="-3.8409410">
        <ele>708.0</ele>
        <time>2019-04-28T14:40:13Z</time>
      </trkpt>
      <trkpt lat="40.2855680" lon="-3.8409240">
        <ele>708.2</ele>
        <time>2019-04-28T14:40:14Z</time>
      </trkpt>
      <trkpt lat="40.2855240" lon="-3.8409080">
        <ele>708.4</ele>
        <time>2019-04-28T14:40:15Z</time>
      </trkpt>
      <trkpt lat="40.2854810" lon="-3.8408920">
        <ele>708.6</ele>
        <time>2019-04-28T14:40:16Z</time>
      </trkpt>
      <trkpt lat="40.2854380" lon="-3.8408760">
        <ele>708.6</ele>
        <time>2019-04-28T14:40:17Z</time>
      </trkpt>
      <trkpt lat="40.2853950" lon="-3.8408580">
        <ele>708.6</ele>
        <time>2019-04-28T14:40:18Z</time>
      </trkpt>
      <trkpt lat="40.2853520" lon="-3.8408400">
        <ele>708.8</ele>
        <time>2019-04-28T14:40:19Z</time>
      </trkpt>
      <trkpt lat="40.2853100" lon="-3.8408240">
        <ele>708.8</ele>
        <time>2019-04-28T14:40:20Z</time>
      </trkpt>
      <trkpt lat="40.2852680" lon="-3.8408090">
        <ele>708.8</ele>
        <time>2019-04-28T14:40:21Z</time>
      </trkpt>
      <trkpt lat="40.2852240" lon="-3.8407910">
        <ele>708.8</ele>
        <time>2019-04-28T14:40:22Z</time>
      </trkpt>
      <trkpt lat="40.2851810" lon="-3.8407750">
        <ele>709.0</ele>
        <time>2019-04-28T14:40:24Z</time>
      </trkpt>
      <trkpt lat="40.2850930" lon="-3.8407480">
        <ele>709.0</ele>
        <time>2019-04-28T14:40:25Z</time>
      </trkpt>
      <trkpt lat="40.2850490" lon="-3.8407330">
        <ele>709.2</ele>
        <time>2019-04-28T14:40:27Z</time>
      </trkpt>
      <trkpt lat="40.2849590" lon="-3.8407060">
        <ele>709.2</ele>
        <time>2019-04-28T14:40:29Z</time>
      </trkpt>
      <trkpt lat="40.2848680" lon="-3.8406840">
        <ele>709.2</ele>
        <time>2019-04-28T14:40:30Z</time>
      </trkpt>
      <trkpt lat="40.2848210" lon="-3.8406760">
        <ele>709.4</ele>
        <time>2019-04-28T14:40:32Z</time>
      </trkpt>
      <trkpt lat="40.2847260" lon="-3.8406660">
        <ele>709.6</ele>
        <time>2019-04-28T14:40:33Z</time>
      </trkpt>
      <trkpt lat="40.2846790" lon="-3.8406700">
        <ele>709.6</ele>
        <time>2019-04-28T14:40:35Z</time>
      </trkpt>
      <trkpt lat="40.2845860" lon="-3.8406840">
        <ele>710.0</ele>
        <time>2019-04-28T14:40:36Z</time>
      </trkpt>
      <trkpt lat="40.2845420" lon="-3.8406920">
        <ele>710.0</ele>
        <time>2019-04-28T14:40:37Z</time>
      </trkpt>
      <trkpt lat="40.2844980" lon="-3.8407010">
        <ele>710.2</ele>
        <time>2019-04-28T14:40:38Z</time>
      </trkpt>
      <trkpt lat="40.2844550" lon="-3.8407140">
        <ele>710.4</ele>
        <time>2019-04-28T14:40:39Z</time>
      </trkpt>
      <trkpt lat="40.2844120" lon="-3.8407250">
        <ele>710.4</ele>
        <time>2019-04-28T14:40:41Z</time>
      </trkpt>
      <trkpt lat="40.2843270" lon="-3.8407330">
        <ele>710.6</ele>
        <time>2019-04-28T14:40:42Z</time>
      </trkpt>
      <trkpt lat="40.2842820" lon="-3.8407340">
        <ele>710.8</ele>
        <time>2019-04-28T14:40:43Z</time>
      </trkpt>
      <trkpt lat="40.2842330" lon="-3.8407320">
        <ele>710.8</ele>
        <time>2019-04-28T14:40:44Z</time>
      </trkpt>
      <trkpt lat="40.2841850" lon="-3.8407230">
        <ele>710.8</ele>
        <time>2019-04-28T14:40:46Z</time>
      </trkpt>
      <trkpt lat="40.2840890" lon="-3.8407060">
        <ele>710.8</ele>
        <time>2019-04-28T14:40:47Z</time>
      </trkpt>
      <trkpt lat="40.2840400" lon="-3.8407020">
        <ele>710.8</ele>
        <time>2019-04-28T14:40:49Z</time>
      </trkpt>
      <trkpt lat="40.2839430" lon="-3.8406930">
        <ele>711.0</ele>
        <time>2019-04-28T14:40:50Z</time>
      </trkpt>
      <trkpt lat="40.2838950" lon="-3.8406850">
        <ele>711.0</ele>
        <time>2019-04-28T14:40:52Z</time>
      </trkpt>
      <trkpt lat="40.2837960" lon="-3.8406710">
        <ele>711.0</ele>
        <time>2019-04-28T14:40:53Z</time>
      </trkpt>
      <trkpt lat="40.2837480" lon="-3.8406620">
        <ele>711.2</ele>
        <time>2019-04-28T14:40:54Z</time>
      </trkpt>
      <trkpt lat="40.2836990" lon="-3.8406540">
        <ele>711.4</ele>
        <time>2019-04-28T14:40:55Z</time>
      </trkpt>
      <trkpt lat="40.2836490" lon="-3.8406420">
        <ele>711.4</ele>
        <time>2019-04-28T14:40:57Z</time>
      </trkpt>
      <trkpt lat="40.2835510" lon="-3.8406110">
        <ele>711.4</ele>
        <time>2019-04-28T14:40:59Z</time>
      </trkpt>
      <trkpt lat="40.2834560" lon="-3.8405710">
        <ele>711.4</ele>
        <time>2019-04-28T14:41:00Z</time>
      </trkpt>
      <trkpt lat="40.2834090" lon="-3.8405530">
        <ele>711.4</ele>
        <time>2019-04-28T14:41:01Z</time>
      </trkpt>
      <trkpt lat="40.2833620" lon="-3.8405360">
        <ele>711.4</ele>
        <time>2019-04-28T14:41:03Z</time>
      </trkpt>
      <trkpt lat="40.2832730" lon="-3.8404950">
        <ele>711.2</ele>
        <time>2019-04-28T14:41:04Z</time>
      </trkpt>
      <trkpt lat="40.2832300" lon="-3.8404750">
        <ele>711.6</ele>
        <time>2019-04-28T14:41:06Z</time>
      </trkpt>
      <trkpt lat="40.2831390" lon="-3.8404430">
        <ele>711.6</ele>
        <time>2019-04-28T14:41:08Z</time>
      </trkpt>
      <trkpt lat="40.2830500" lon="-3.8403970">
        <ele>711.6</ele>
        <time>2019-04-28T14:41:10Z</time>
      </trkpt>
      <trkpt lat="40.2829690" lon="-3.8403390">
        <ele>711.6</ele>
        <time>2019-04-28T14:41:11Z</time>
      </trkpt>
      <trkpt lat="40.2829320" lon="-3.8403060">
        <ele>711.6</ele>
        <time>2019-04-28T14:41:13Z</time>
      </trkpt>
      <trkpt lat="40.2828620" lon="-3.8402330">
        <ele>711.8</ele>
        <time>2019-04-28T14:41:15Z</time>
      </trkpt>
      <trkpt lat="40.2827920" lon="-3.8401590">
        <ele>712.0</ele>
        <time>2019-04-28T14:41:16Z</time>
      </trkpt>
      <trkpt lat="40.2827560" lon="-3.8401240">
        <ele>712.0</ele>
        <time>2019-04-28T14:41:17Z</time>
      </trkpt>
      <trkpt lat="40.2827200" lon="-3.8400890">
        <ele>712.0</ele>
        <time>2019-04-28T14:41:19Z</time>
      </trkpt>
      <trkpt lat="40.2826570" lon="-3.8400040">
        <ele>712.4</ele>
        <time>2019-04-28T14:41:21Z</time>
      </trkpt>
      <trkpt lat="40.2826200" lon="-3.8398950">
        <ele>712.4</ele>
        <time>2019-04-28T14:41:23Z</time>
      </trkpt>
      <trkpt lat="40.2825870" lon="-3.8397830">
        <ele>712.6</ele>
        <time>2019-04-28T14:41:25Z</time>
      </trkpt>
      <trkpt lat="40.2825540" lon="-3.8396680">
        <ele>712.6</ele>
        <time>2019-04-28T14:41:27Z</time>
      </trkpt>
      <trkpt lat="40.2825190" lon="-3.8395540">
        <ele>713.0</ele>
        <time>2019-04-28T14:41:29Z</time>
      </trkpt>
      <trkpt lat="40.2824880" lon="-3.8394390">
        <ele>713.0</ele>
        <time>2019-04-28T14:41:30Z</time>
      </trkpt>
      <trkpt lat="40.2824710" lon="-3.8393820">
        <ele>713.0</ele>
        <time>2019-04-28T14:41:32Z</time>
      </trkpt>
      <trkpt lat="40.2824360" lon="-3.8392720">
        <ele>712.8</ele>
        <time>2019-04-28T14:41:33Z</time>
      </trkpt>
      <trkpt lat="40.2824190" lon="-3.8392200">
        <ele>712.8</ele>
        <time>2019-04-28T14:41:34Z</time>
      </trkpt>
      <trkpt lat="40.2824030" lon="-3.8391710">
        <ele>712.6</ele>
        <time>2019-04-28T14:41:36Z</time>
      </trkpt>
      <trkpt lat="40.2823740" lon="-3.8390700">
        <ele>713.0</ele>
        <time>2019-04-28T14:41:37Z</time>
      </trkpt>
      <trkpt lat="40.2823600" lon="-3.8390170">
        <ele>713.4</ele>
        <time>2019-04-28T14:41:39Z</time>
      </trkpt>
      <trkpt lat="40.2823310" lon="-3.8389060">
        <ele>713.6</ele>
        <time>2019-04-28T14:41:41Z</time>
      </trkpt>
      <trkpt lat="40.2823180" lon="-3.8388460">
        <ele>713.4</ele>
        <time>2019-04-28T14:41:42Z</time>
      </trkpt>
      <trkpt lat="40.2822980" lon="-3.8387240">
        <ele>713.2</ele>
        <time>2019-04-28T14:41:44Z</time>
      </trkpt>
      <trkpt lat="40.2822840" lon="-3.8386640">
        <ele>713.2</ele>
        <time>2019-04-28T14:41:45Z</time>
      </trkpt>
      <trkpt lat="40.2822710" lon="-3.8386010">
        <ele>713.0</ele>
        <time>2019-04-28T14:41:46Z</time>
      </trkpt>
      <trkpt lat="40.2822590" lon="-3.8385350">
        <ele>713.2</ele>
        <time>2019-04-28T14:41:47Z</time>
      </trkpt>
      <trkpt lat="40.2822470" lon="-3.8384670">
        <ele>713.2</ele>
        <time>2019-04-28T14:41:48Z</time>
      </trkpt>
      <trkpt lat="40.2822340" lon="-3.8384040">
        <ele>712.4</ele>
        <time>2019-04-28T14:41:49Z</time>
      </trkpt>
      <trkpt lat="40.2822200" lon="-3.8383390">
        <ele>712.6</ele>
        <time>2019-04-28T14:41:50Z</time>
      </trkpt>
      <trkpt lat="40.2822030" lon="-3.8382760">
        <ele>712.6</ele>
        <time>2019-04-28T14:41:51Z</time>
      </trkpt>
      <trkpt lat="40.2821830" lon="-3.8382130">
        <ele>712.6</ele>
        <time>2019-04-28T14:41:52Z</time>
      </trkpt>
      <trkpt lat="40.2821590" lon="-3.8381500">
        <ele>712.4</ele>
        <time>2019-04-28T14:41:53Z</time>
      </trkpt>
      <trkpt lat="40.2821360" lon="-3.8380910">
        <ele>712.6</ele>
        <time>2019-04-28T14:41:54Z</time>
      </trkpt>
      <trkpt lat="40.2821140" lon="-3.8380360">
        <ele>712.6</ele>
        <time>2019-04-28T14:41:55Z</time>
      </trkpt>
      <trkpt lat="40.2820930" lon="-3.8379740">
        <ele>712.4</ele>
        <time>2019-04-28T14:41:56Z</time>
      </trkpt>
      <trkpt lat="40.2820710" lon="-3.8379120">
        <ele>712.2</ele>
        <time>2019-04-28T14:41:57Z</time>
      </trkpt>
      <trkpt lat="40.2820470" lon="-3.8378530">
        <ele>712.2</ele>
        <time>2019-04-28T14:41:58Z</time>
      </trkpt>
      <trkpt lat="40.2820260" lon="-3.8377960">
        <ele>712.0</ele>
        <time>2019-04-28T14:41:59Z</time>
      </trkpt>
      <trkpt lat="40.2820060" lon="-3.8377370">
        <ele>712.0</ele>
        <time>2019-04-28T14:42:00Z</time>
      </trkpt>
      <trkpt lat="40.2819900" lon="-3.8376750">
        <ele>711.8</ele>
        <time>2019-04-28T14:42:01Z</time>
      </trkpt>
      <trkpt lat="40.2819760" lon="-3.8376110">
        <ele>711.8</ele>
        <time>2019-04-28T14:42:02Z</time>
      </trkpt>
      <trkpt lat="40.2819630" lon="-3.8375440">
        <ele>711.8</ele>
        <time>2019-04-28T14:42:03Z</time>
      </trkpt>
      <trkpt lat="40.2819520" lon="-3.8374730">
        <ele>711.6</ele>
        <time>2019-04-28T14:42:04Z</time>
      </trkpt>
      <trkpt lat="40.2819440" lon="-3.8374010">
        <ele>711.6</ele>
        <time>2019-04-28T14:42:05Z</time>
      </trkpt>
      <trkpt lat="40.2819370" lon="-3.8373290">
        <ele>711.6</ele>
        <time>2019-04-28T14:42:06Z</time>
      </trkpt>
      <trkpt lat="40.2819280" lon="-3.8372590">
        <ele>711.4</ele>
        <time>2019-04-28T14:42:07Z</time>
      </trkpt>
      <trkpt lat="40.2819180" lon="-3.8371900">
        <ele>711.2</ele>
        <time>2019-04-28T14:42:08Z</time>
      </trkpt>
      <trkpt lat="40.2819080" lon="-3.8371210">
        <ele>711.2</ele>
        <time>2019-04-28T14:42:09Z</time>
      </trkpt>
      <trkpt lat="40.2818960" lon="-3.8370520">
        <ele>711.0</ele>
        <time>2019-04-28T14:42:10Z</time>
      </trkpt>
      <trkpt lat="40.2818860" lon="-3.8369850">
        <ele>711.0</ele>
        <time>2019-04-28T14:42:11Z</time>
      </trkpt>
      <trkpt lat="40.2818750" lon="-3.8369200">
        <ele>710.8</ele>
        <time>2019-04-28T14:42:12Z</time>
      </trkpt>
      <trkpt lat="40.2818640" lon="-3.8368550">
        <ele>711.0</ele>
        <time>2019-04-28T14:42:13Z</time>
      </trkpt>
      <trkpt lat="40.2818520" lon="-3.8367900">
        <ele>711.0</ele>
        <time>2019-04-28T14:42:14Z</time>
      </trkpt>
      <trkpt lat="40.2818390" lon="-3.8367260">
        <ele>711.2</ele>
        <time>2019-04-28T14:42:15Z</time>
      </trkpt>
      <trkpt lat="40.2818270" lon="-3.8366630">
        <ele>711.4</ele>
        <time>2019-04-28T14:42:16Z</time>
      </trkpt>
      <trkpt lat="40.2818140" lon="-3.8366000">
        <ele>711.6</ele>
        <time>2019-04-28T14:42:17Z</time>
      </trkpt>
      <trkpt lat="40.2817990" lon="-3.8365390">
        <ele>711.8</ele>
        <time>2019-04-28T14:42:18Z</time>
      </trkpt>
      <trkpt lat="40.2817830" lon="-3.8364790">
        <ele>712.0</ele>
        <time>2019-04-28T14:42:19Z</time>
      </trkpt>
      <trkpt lat="40.2817670" lon="-3.8364180">
        <ele>712.2</ele>
        <time>2019-04-28T14:42:20Z</time>
      </trkpt>
      <trkpt lat="40.2817540" lon="-3.8363580">
        <ele>712.2</ele>
        <time>2019-04-28T14:42:21Z</time>
      </trkpt>
      <trkpt lat="40.2817420" lon="-3.8362990">
        <ele>712.2</ele>
        <time>2019-04-28T14:42:22Z</time>
      </trkpt>
      <trkpt lat="40.2817320" lon="-3.8362390">
        <ele>712.4</ele>
        <time>2019-04-28T14:42:23Z</time>
      </trkpt>
      <trkpt lat="40.2817230" lon="-3.8361780">
        <ele>712.4</ele>
        <time>2019-04-28T14:42:24Z</time>
      </trkpt>
      <trkpt lat="40.2817130" lon="-3.8361170">
        <ele>712.4</ele>
        <time>2019-04-28T14:42:25Z</time>
      </trkpt>
      <trkpt lat="40.2817010" lon="-3.8360550">
        <ele>712.4</ele>
        <time>2019-04-28T14:42:26Z</time>
      </trkpt>
      <trkpt lat="40.2816870" lon="-3.8359940">
        <ele>712.4</ele>
        <time>2019-04-28T14:42:27Z</time>
      </trkpt>
      <trkpt lat="40.2816740" lon="-3.8359340">
        <ele>712.4</ele>
        <time>2019-04-28T14:42:28Z</time>
      </trkpt>
      <trkpt lat="40.2816630" lon="-3.8358730">
        <ele>712.4</ele>
        <time>2019-04-28T14:42:29Z</time>
      </trkpt>
      <trkpt lat="40.2816540" lon="-3.8358090">
        <ele>712.4</ele>
        <time>2019-04-28T14:42:30Z</time>
      </trkpt>
      <trkpt lat="40.2816410" lon="-3.8357440">
        <ele>712.4</ele>
        <time>2019-04-28T14:42:31Z</time>
      </trkpt>
      <trkpt lat="40.2816260" lon="-3.8356800">
        <ele>712.4</ele>
        <time>2019-04-28T14:42:32Z</time>
      </trkpt>
      <trkpt lat="40.2816110" lon="-3.8356160">
        <ele>712.4</ele>
        <time>2019-04-28T14:42:33Z</time>
      </trkpt>
      <trkpt lat="40.2815970" lon="-3.8355510">
        <ele>712.4</ele>
        <time>2019-04-28T14:42:34Z</time>
      </trkpt>
      <trkpt lat="40.2815860" lon="-3.8354870">
        <ele>712.4</ele>
        <time>2019-04-28T14:42:35Z</time>
      </trkpt>
      <trkpt lat="40.2815760" lon="-3.8354240">
        <ele>712.6</ele>
        <time>2019-04-28T14:42:36Z</time>
      </trkpt>
      <trkpt lat="40.2815700" lon="-3.8353600">
        <ele>712.6</ele>
        <time>2019-04-28T14:42:37Z</time>
      </trkpt>
      <trkpt lat="40.2815650" lon="-3.8352970">
        <ele>713.0</ele>
        <time>2019-04-28T14:42:38Z</time>
      </trkpt>
      <trkpt lat="40.2815640" lon="-3.8352390">
        <ele>713.2</ele>
        <time>2019-04-28T14:42:39Z</time>
      </trkpt>
      <trkpt lat="40.2815640" lon="-3.8351820">
        <ele>713.6</ele>
        <time>2019-04-28T14:42:40Z</time>
      </trkpt>
      <trkpt lat="40.2815620" lon="-3.8351280">
        <ele>713.8</ele>
        <time>2019-04-28T14:42:41Z</time>
      </trkpt>
      <trkpt lat="40.2815570" lon="-3.8350760">
        <ele>714.4</ele>
        <time>2019-04-28T14:42:42Z</time>
      </trkpt>
      <trkpt lat="40.2815500" lon="-3.8350230">
        <ele>714.6</ele>
        <time>2019-04-28T14:42:43Z</time>
      </trkpt>
      <trkpt lat="40.2815410" lon="-3.8349720">
        <ele>715.2</ele>
        <time>2019-04-28T14:42:44Z</time>
      </trkpt>
      <trkpt lat="40.2815300" lon="-3.8349220">
        <ele>715.6</ele>
        <time>2019-04-28T14:42:45Z</time>
      </trkpt>
      <trkpt lat="40.2815170" lon="-3.8348720">
        <ele>716.0</ele>
        <time>2019-04-28T14:42:46Z</time>
      </trkpt>
      <trkpt lat="40.2815010" lon="-3.8348240">
        <ele>716.6</ele>
        <time>2019-04-28T14:42:47Z</time>
      </trkpt>
      <trkpt lat="40.2814810" lon="-3.8347780">
        <ele>717.0</ele>
        <time>2019-04-28T14:42:48Z</time>
      </trkpt>
      <trkpt lat="40.2814600" lon="-3.8347340">
        <ele>717.4</ele>
        <time>2019-04-28T14:42:49Z</time>
      </trkpt>
      <trkpt lat="40.2814380" lon="-3.8346920">
        <ele>718.0</ele>
        <time>2019-04-28T14:42:50Z</time>
      </trkpt>
      <trkpt lat="40.2814130" lon="-3.8346590">
        <ele>718.4</ele>
        <time>2019-04-28T14:42:51Z</time>
      </trkpt>
      <trkpt lat="40.2813880" lon="-3.8346250">
        <ele>718.4</ele>
        <time>2019-04-28T14:42:52Z</time>
      </trkpt>
      <trkpt lat="40.2813640" lon="-3.8345940">
        <ele>718.6</ele>
        <time>2019-04-28T14:42:53Z</time>
      </trkpt>
      <trkpt lat="40.2813410" lon="-3.8345660">
        <ele>718.8</ele>
        <time>2019-04-28T14:42:54Z</time>
      </trkpt>
      <trkpt lat="40.2813190" lon="-3.8345400">
        <ele>718.8</ele>
        <time>2019-04-28T14:42:55Z</time>
      </trkpt>
      <trkpt lat="40.2813000" lon="-3.8345120">
        <ele>718.8</ele>
        <time>2019-04-28T14:42:56Z</time>
      </trkpt>
      <trkpt lat="40.2812810" lon="-3.8344940">
        <ele>719.0</ele>
        <time>2019-04-28T14:42:57Z</time>
      </trkpt>
      <trkpt lat="40.2812650" lon="-3.8344760">
        <ele>719.2</ele>
        <time>2019-04-28T14:42:58Z</time>
      </trkpt>
      <trkpt lat="40.2812530" lon="-3.8344560">
        <ele>719.2</ele>
        <time>2019-04-28T14:42:59Z</time>
      </trkpt>
      <trkpt lat="40.2812400" lon="-3.8344350">
        <ele>719.2</ele>
        <time>2019-04-28T14:43:00Z</time>
      </trkpt>
      <trkpt lat="40.2812260" lon="-3.8344180">
        <ele>719.2</ele>
        <time>2019-04-28T14:43:01Z</time>
      </trkpt>
      <trkpt lat="40.2812130" lon="-3.8344040">
        <ele>719.4</ele>
        <time>2019-04-28T14:43:02Z</time>
      </trkpt>
      <trkpt lat="40.2812030" lon="-3.8343940">
        <ele>719.2</ele>
        <time>2019-04-28T14:43:03Z</time>
      </trkpt>
      <trkpt lat="40.2811960" lon="-3.8343880">
        <ele>719.4</ele>
        <time>2019-04-28T14:43:04Z</time>
      </trkpt>
      <trkpt lat="40.2811940" lon="-3.8343820">
        <ele>719.4</ele>
        <time>2019-04-28T14:43:05Z</time>
      </trkpt>
      <trkpt lat="40.2811940" lon="-3.8343820">
        <ele>719.4</ele>
        <time>2019-04-28T14:43:06Z</time>
      </trkpt>
      <trkpt lat="40.2811940" lon="-3.8343810">
        <ele>719.2</ele>
        <time>2019-04-28T14:43:07Z</time>
      </trkpt>
      <trkpt lat="40.2811910" lon="-3.8343800">
        <ele>719.4</ele>
        <time>2019-04-28T14:43:08Z</time>
      </trkpt>
      <trkpt lat="40.2811880" lon="-3.8343780">
        <ele>719.2</ele>
        <time>2019-04-28T14:43:09Z</time>
      </trkpt>
      <trkpt lat="40.2811880" lon="-3.8343800">
        <ele>719.2</ele>
        <time>2019-04-28T14:43:10Z</time>
      </trkpt>
      <trkpt lat="40.2811890" lon="-3.8343790">
        <ele>719.2</ele>
        <time>2019-04-28T14:43:11Z</time>
      </trkpt>
      <trkpt lat="40.2811900" lon="-3.8343780">
        <ele>719.2</ele>
        <time>2019-04-28T14:43:12Z</time>
      </trkpt>
      <trkpt lat="40.2811900" lon="-3.8343780">
        <ele>719.2</ele>
        <time>2019-04-28T14:43:13Z</time>
      </trkpt>
      <trkpt lat="40.2809770" lon="-3.8344140">
        <ele>718.8</ele>
        <time>2019-04-28T14:45:24Z</time>
      </trkpt>
      <trkpt lat="40.2809140" lon="-3.8344960">
        <ele>718.6</ele>
        <time>2019-04-28T14:45:26Z</time>
      </trkpt>
      <trkpt lat="40.2808830" lon="-3.8345390">
        <ele>718.4</ele>
        <time>2019-04-28T14:45:27Z</time>
      </trkpt>
      <trkpt lat="40.2808510" lon="-3.8345810">
        <ele>718.2</ele>
        <time>2019-04-28T14:45:28Z</time>
      </trkpt>
      <trkpt lat="40.2808190" lon="-3.8346270">
        <ele>718.0</ele>
        <time>2019-04-28T14:45:29Z</time>
      </trkpt>
      <trkpt lat="40.2807890" lon="-3.8346800">
        <ele>718.0</ele>
        <time>2019-04-28T14:45:30Z</time>
      </trkpt>
      <trkpt lat="40.2807560" lon="-3.8347330">
        <ele>717.6</ele>
        <time>2019-04-28T14:45:31Z</time>
      </trkpt>
      <trkpt lat="40.2807210" lon="-3.8347910">
        <ele>717.4</ele>
        <time>2019-04-28T14:45:32Z</time>
      </trkpt>
      <trkpt lat="40.2806840" lon="-3.8348530">
        <ele>717.0</ele>
        <time>2019-04-28T14:45:33Z</time>
      </trkpt>
      <trkpt lat="40.2806470" lon="-3.8349190">
        <ele>716.8</ele>
        <time>2019-04-28T14:45:34Z</time>
      </trkpt>
      <trkpt lat="40.2806080" lon="-3.8349890">
        <ele>716.4</ele>
        <time>2019-04-28T14:45:35Z</time>
      </trkpt>
      <trkpt lat="40.2805680" lon="-3.8350620">
        <ele>716.0</ele>
        <time>2019-04-28T14:45:36Z</time>
      </trkpt>
      <trkpt lat="40.2805260" lon="-3.8351390">
        <ele>715.6</ele>
        <time>2019-04-28T14:45:37Z</time>
      </trkpt>
      <trkpt lat="40.2804790" lon="-3.8352160">
        <ele>715.0</ele>
        <time>2019-04-28T14:45:38Z</time>
      </trkpt>
      <trkpt lat="40.2804270" lon="-3.8352830">
        <ele>714.6</ele>
        <time>2019-04-28T14:45:39Z</time>
      </trkpt>
      <trkpt lat="40.2803740" lon="-3.8353580">
        <ele>714.4</ele>
        <time>2019-04-28T14:45:40Z</time>
      </trkpt>
      <trkpt lat="40.2803210" lon="-3.8354400">
        <ele>713.8</ele>
        <time>2019-04-28T14:45:41Z</time>
      </trkpt>
      <trkpt lat="40.2802710" lon="-3.8355210">
        <ele>713.6</ele>
        <time>2019-04-28T14:45:42Z</time>
      </trkpt>
      <trkpt lat="40.2802200" lon="-3.8355930">
        <ele>713.6</ele>
        <time>2019-04-28T14:45:43Z</time>
      </trkpt>
      <trkpt lat="40.2801680" lon="-3.8356650">
        <ele>713.8</ele>
        <time>2019-04-28T14:45:44Z</time>
      </trkpt>
      <trkpt lat="40.2801180" lon="-3.8357370">
        <ele>713.6</ele>
        <time>2019-04-28T14:45:45Z</time>
      </trkpt>
      <trkpt lat="40.2800690" lon="-3.8358010">
        <ele>713.8</ele>
        <time>2019-04-28T14:45:46Z</time>
      </trkpt>
      <trkpt lat="40.2800240" lon="-3.8358670">
        <ele>713.8</ele>
        <time>2019-04-28T14:45:47Z</time>
      </trkpt>
      <trkpt lat="40.2799800" lon="-3.8359280">
        <ele>714.0</ele>
        <time>2019-04-28T14:45:48Z</time>
      </trkpt>
      <trkpt lat="40.2799400" lon="-3.8359870">
        <ele>713.8</ele>
        <time>2019-04-28T14:45:49Z</time>
      </trkpt>
      <trkpt lat="40.2799000" lon="-3.8360410">
        <ele>714.0</ele>
        <time>2019-04-28T14:45:50Z</time>
      </trkpt>
      <trkpt lat="40.2798600" lon="-3.8360950">
        <ele>713.8</ele>
        <time>2019-04-28T14:45:51Z</time>
      </trkpt>
      <trkpt lat="40.2798200" lon="-3.8361500">
        <ele>713.6</ele>
        <time>2019-04-28T14:45:52Z</time>
      </trkpt>
      <trkpt lat="40.2797780" lon="-3.8362050">
        <ele>713.8</ele>
        <time>2019-04-28T14:45:53Z</time>
      </trkpt>
      <trkpt lat="40.2797370" lon="-3.8362590">
        <ele>713.8</ele>
        <time>2019-04-28T14:45:54Z</time>
      </trkpt>
      <trkpt lat="40.2796960" lon="-3.8363120">
        <ele>713.8</ele>
        <time>2019-04-28T14:45:55Z</time>
      </trkpt>
      <trkpt lat="40.2796570" lon="-3.8363680">
        <ele>713.8</ele>
        <time>2019-04-28T14:45:56Z</time>
      </trkpt>
      <trkpt lat="40.2796180" lon="-3.8364260">
        <ele>713.8</ele>
        <time>2019-04-28T14:45:57Z</time>
      </trkpt>
      <trkpt lat="40.2795750" lon="-3.8364820">
        <ele>713.8</ele>
        <time>2019-04-28T14:45:58Z</time>
      </trkpt>
      <trkpt lat="40.2795320" lon="-3.8365370">
        <ele>713.6</ele>
        <time>2019-04-28T14:45:59Z</time>
      </trkpt>
      <trkpt lat="40.2794930" lon="-3.8365930">
        <ele>713.6</ele>
        <time>2019-04-28T14:46:00Z</time>
      </trkpt>
      <trkpt lat="40.2794500" lon="-3.8366480">
        <ele>713.8</ele>
        <time>2019-04-28T14:46:01Z</time>
      </trkpt>
      <trkpt lat="40.2794060" lon="-3.8367010">
        <ele>713.8</ele>
        <time>2019-04-28T14:46:02Z</time>
      </trkpt>
      <trkpt lat="40.2793630" lon="-3.8367550">
        <ele>713.8</ele>
        <time>2019-04-28T14:46:03Z</time>
      </trkpt>
      <trkpt lat="40.2793210" lon="-3.8368080">
        <ele>713.8</ele>
        <time>2019-04-28T14:46:04Z</time>
      </trkpt>
      <trkpt lat="40.2792790" lon="-3.8368620">
        <ele>713.8</ele>
        <time>2019-04-28T14:46:05Z</time>
      </trkpt>
      <trkpt lat="40.2792390" lon="-3.8369140">
        <ele>713.8</ele>
        <time>2019-04-28T14:46:06Z</time>
      </trkpt>
      <trkpt lat="40.2791940" lon="-3.8369640">
        <ele>713.8</ele>
        <time>2019-04-28T14:46:07Z</time>
      </trkpt>
      <trkpt lat="40.2791460" lon="-3.8370170">
        <ele>714.0</ele>
        <time>2019-04-28T14:46:08Z</time>
      </trkpt>
      <trkpt lat="40.2790990" lon="-3.8370680">
        <ele>713.8</ele>
        <time>2019-04-28T14:46:09Z</time>
      </trkpt>
      <trkpt lat="40.2790550" lon="-3.8371220">
        <ele>714.0</ele>
        <time>2019-04-28T14:46:10Z</time>
      </trkpt>
      <trkpt lat="40.2790100" lon="-3.8371780">
        <ele>714.2</ele>
        <time>2019-04-28T14:46:11Z</time>
      </trkpt>
      <trkpt lat="40.2789680" lon="-3.8372330">
        <ele>714.0</ele>
        <time>2019-04-28T14:46:12Z</time>
      </trkpt>
      <trkpt lat="40.2789240" lon="-3.8372880">
        <ele>714.0</ele>
        <time>2019-04-28T14:46:13Z</time>
      </trkpt>
      <trkpt lat="40.2788770" lon="-3.8373420">
        <ele>714.0</ele>
        <time>2019-04-28T14:46:14Z</time>
      </trkpt>
      <trkpt lat="40.2788300" lon="-3.8373930">
        <ele>714.0</ele>
        <time>2019-04-28T14:46:15Z</time>
      </trkpt>
      <trkpt lat="40.2787830" lon="-3.8374440">
        <ele>714.0</ele>
        <time>2019-04-28T14:46:16Z</time>
      </trkpt>
      <trkpt lat="40.2787360" lon="-3.8374920">
        <ele>714.0</ele>
        <time>2019-04-28T14:46:17Z</time>
      </trkpt>
      <trkpt lat="40.2786900" lon="-3.8375390">
        <ele>714.2</ele>
        <time>2019-04-28T14:46:18Z</time>
      </trkpt>
      <trkpt lat="40.2786490" lon="-3.8375870">
        <ele>714.2</ele>
        <time>2019-04-28T14:46:19Z</time>
      </trkpt>
      <trkpt lat="40.2786070" lon="-3.8376360">
        <ele>714.0</ele>
        <time>2019-04-28T14:46:20Z</time>
      </trkpt>
      <trkpt lat="40.2785630" lon="-3.8376860">
        <ele>714.2</ele>
        <time>2019-04-28T14:46:21Z</time>
      </trkpt>
      <trkpt lat="40.2785190" lon="-3.8377310">
        <ele>714.0</ele>
        <time>2019-04-28T14:46:22Z</time>
      </trkpt>
      <trkpt lat="40.2784730" lon="-3.8377800">
        <ele>714.0</ele>
        <time>2019-04-28T14:46:23Z</time>
      </trkpt>
      <trkpt lat="40.2784280" lon="-3.8378300">
        <ele>714.2</ele>
        <time>2019-04-28T14:46:24Z</time>
      </trkpt>
      <trkpt lat="40.2783830" lon="-3.8378810">
        <ele>714.2</ele>
        <time>2019-04-28T14:46:25Z</time>
      </trkpt>
      <trkpt lat="40.2783410" lon="-3.8379310">
        <ele>714.2</ele>
        <time>2019-04-28T14:46:26Z</time>
      </trkpt>
      <trkpt lat="40.2782970" lon="-3.8379830">
        <ele>714.2</ele>
        <time>2019-04-28T14:46:27Z</time>
      </trkpt>
      <trkpt lat="40.2782520" lon="-3.8380350">
        <ele>714.2</ele>
        <time>2019-04-28T14:46:28Z</time>
      </trkpt>
      <trkpt lat="40.2782080" lon="-3.8380850">
        <ele>714.4</ele>
        <time>2019-04-28T14:46:29Z</time>
      </trkpt>
      <trkpt lat="40.2781650" lon="-3.8381320">
        <ele>714.4</ele>
        <time>2019-04-28T14:46:30Z</time>
      </trkpt>
      <trkpt lat="40.2781230" lon="-3.8381780">
        <ele>714.4</ele>
        <time>2019-04-28T14:46:31Z</time>
      </trkpt>
      <trkpt lat="40.2780830" lon="-3.8382210">
        <ele>714.4</ele>
        <time>2019-04-28T14:46:32Z</time>
      </trkpt>
      <trkpt lat="40.2780440" lon="-3.8382640">
        <ele>714.4</ele>
        <time>2019-04-28T14:46:33Z</time>
      </trkpt>
      <trkpt lat="40.2780060" lon="-3.8383040">
        <ele>714.6</ele>
        <time>2019-04-28T14:46:34Z</time>
      </trkpt>
      <trkpt lat="40.2779680" lon="-3.8383400">
        <ele>714.4</ele>
        <time>2019-04-28T14:46:35Z</time>
      </trkpt>
      <trkpt lat="40.2779290" lon="-3.8383710">
        <ele>714.6</ele>
        <time>2019-04-28T14:46:36Z</time>
      </trkpt>
      <trkpt lat="40.2778840" lon="-3.8383890">
        <ele>714.6</ele>
        <time>2019-04-28T14:46:37Z</time>
      </trkpt>
      <trkpt lat="40.2778320" lon="-3.8383900">
        <ele>714.4</ele>
        <time>2019-04-28T14:46:38Z</time>
      </trkpt>
      <trkpt lat="40.2777840" lon="-3.8383730">
        <ele>714.4</ele>
        <time>2019-04-28T14:46:39Z</time>
      </trkpt>
      <trkpt lat="40.2777410" lon="-3.8383420">
        <ele>714.4</ele>
        <time>2019-04-28T14:46:40Z</time>
      </trkpt>
      <trkpt lat="40.2777010" lon="-3.8383050">
        <ele>714.6</ele>
        <time>2019-04-28T14:46:41Z</time>
      </trkpt>
      <trkpt lat="40.2776600" lon="-3.8382710">
        <ele>714.6</ele>
        <time>2019-04-28T14:46:42Z</time>
      </trkpt>
      <trkpt lat="40.2776210" lon="-3.8382340">
        <ele>714.6</ele>
        <time>2019-04-28T14:46:43Z</time>
      </trkpt>
      <trkpt lat="40.2775820" lon="-3.8381980">
        <ele>714.6</ele>
        <time>2019-04-28T14:46:44Z</time>
      </trkpt>
      <trkpt lat="40.2775440" lon="-3.8381620">
        <ele>714.6</ele>
        <time>2019-04-28T14:46:45Z</time>
      </trkpt>
      <trkpt lat="40.2775050" lon="-3.8381250">
        <ele>714.8</ele>
        <time>2019-04-28T14:46:46Z</time>
      </trkpt>
      <trkpt lat="40.2774650" lon="-3.8380880">
        <ele>714.8</ele>
        <time>2019-04-28T14:46:47Z</time>
      </trkpt>
      <trkpt lat="40.2774240" lon="-3.8380520">
        <ele>714.8</ele>
        <time>2019-04-28T14:46:48Z</time>
      </trkpt>
      <trkpt lat="40.2773820" lon="-3.8380170">
        <ele>714.8</ele>
        <time>2019-04-28T14:46:49Z</time>
      </trkpt>
      <trkpt lat="40.2773390" lon="-3.8379830">
        <ele>715.0</ele>
        <time>2019-04-28T14:46:50Z</time>
      </trkpt>
      <trkpt lat="40.2772950" lon="-3.8379480">
        <ele>715.0</ele>
        <time>2019-04-28T14:46:51Z</time>
      </trkpt>
      <trkpt lat="40.2772510" lon="-3.8379160">
        <ele>714.8</ele>
        <time>2019-04-28T14:46:52Z</time>
      </trkpt>
      <trkpt lat="40.2772070" lon="-3.8378820">
        <ele>714.8</ele>
        <time>2019-04-28T14:46:53Z</time>
      </trkpt>
      <trkpt lat="40.2771620" lon="-3.8378510">
        <ele>715.0</ele>
        <time>2019-04-28T14:46:54Z</time>
      </trkpt>
      <trkpt lat="40.2771170" lon="-3.8378220">
        <ele>715.0</ele>
        <time>2019-04-28T14:46:55Z</time>
      </trkpt>
      <trkpt lat="40.2770730" lon="-3.8377930">
        <ele>715.0</ele>
        <time>2019-04-28T14:46:56Z</time>
      </trkpt>
      <trkpt lat="40.2770270" lon="-3.8377630">
        <ele>714.8</ele>
        <time>2019-04-28T14:46:57Z</time>
      </trkpt>
      <trkpt lat="40.2769810" lon="-3.8377310">
        <ele>714.8</ele>
        <time>2019-04-28T14:46:58Z</time>
      </trkpt>
      <trkpt lat="40.2769340" lon="-3.8376970">
        <ele>714.8</ele>
        <time>2019-04-28T14:46:59Z</time>
      </trkpt>
      <trkpt lat="40.2768880" lon="-3.8376610">
        <ele>714.8</ele>
        <time>2019-04-28T14:47:00Z</time>
      </trkpt>
      <trkpt lat="40.2768450" lon="-3.8376200">
        <ele>714.8</ele>
        <time>2019-04-28T14:47:01Z</time>
      </trkpt>
      <trkpt lat="40.2768030" lon="-3.8375780">
        <ele>714.8</ele>
        <time>2019-04-28T14:47:02Z</time>
      </trkpt>
      <trkpt lat="40.2767610" lon="-3.8375390">
        <ele>714.8</ele>
        <time>2019-04-28T14:47:03Z</time>
      </trkpt>
      <trkpt lat="40.2767170" lon="-3.8375060">
        <ele>714.8</ele>
        <time>2019-04-28T14:47:04Z</time>
      </trkpt>
      <trkpt lat="40.2766710" lon="-3.8374780">
        <ele>714.8</ele>
        <time>2019-04-28T14:47:05Z</time>
      </trkpt>
      <trkpt lat="40.2766230" lon="-3.8374530">
        <ele>715.0</ele>
        <time>2019-04-28T14:47:06Z</time>
      </trkpt>
      <trkpt lat="40.2765760" lon="-3.8374270">
        <ele>714.8</ele>
        <time>2019-04-28T14:47:07Z</time>
      </trkpt>
      <trkpt lat="40.2765290" lon="-3.8373990">
        <ele>714.6</ele>
        <time>2019-04-28T14:47:08Z</time>
      </trkpt>
      <trkpt lat="40.2764810" lon="-3.8373710">
        <ele>714.8</ele>
        <time>2019-04-28T14:47:09Z</time>
      </trkpt>
      <trkpt lat="40.2764310" lon="-3.8373420">
        <ele>714.8</ele>
        <time>2019-04-28T14:47:10Z</time>
      </trkpt>
      <trkpt lat="40.2763840" lon="-3.8373130">
        <ele>715.0</ele>
        <time>2019-04-28T14:47:11Z</time>
      </trkpt>
      <trkpt lat="40.2763390" lon="-3.8372820">
        <ele>715.0</ele>
        <time>2019-04-28T14:47:12Z</time>
      </trkpt>
      <trkpt lat="40.2762940" lon="-3.8372530">
        <ele>715.0</ele>
        <time>2019-04-28T14:47:13Z</time>
      </trkpt>
      <trkpt lat="40.2762460" lon="-3.8372240">
        <ele>715.2</ele>
        <time>2019-04-28T14:47:14Z</time>
      </trkpt>
      <trkpt lat="40.2762000" lon="-3.8371970">
        <ele>715.2</ele>
        <time>2019-04-28T14:47:15Z</time>
      </trkpt>
      <trkpt lat="40.2761550" lon="-3.8371690">
        <ele>715.2</ele>
        <time>2019-04-28T14:47:16Z</time>
      </trkpt>
      <trkpt lat="40.2761090" lon="-3.8371400">
        <ele>715.2</ele>
        <time>2019-04-28T14:47:17Z</time>
      </trkpt>
      <trkpt lat="40.2760630" lon="-3.8371130">
        <ele>715.4</ele>
        <time>2019-04-28T14:47:18Z</time>
      </trkpt>
      <trkpt lat="40.2760180" lon="-3.8370860">
        <ele>715.2</ele>
        <time>2019-04-28T14:47:19Z</time>
      </trkpt>
      <trkpt lat="40.2759690" lon="-3.8370600">
        <ele>715.4</ele>
        <time>2019-04-28T14:47:20Z</time>
      </trkpt>
      <trkpt lat="40.2759180" lon="-3.8370380">
        <ele>715.4</ele>
        <time>2019-04-28T14:47:21Z</time>
      </trkpt>
      <trkpt lat="40.2758680" lon="-3.8370100">
        <ele>715.2</ele>
        <time>2019-04-28T14:47:22Z</time>
      </trkpt>
      <trkpt lat="40.2758150" lon="-3.8369890">
        <ele>715.2</ele>
        <time>2019-04-28T14:47:23Z</time>
      </trkpt>
      <trkpt lat="40.2757620" lon="-3.8369700">
        <ele>715.2</ele>
        <time>2019-04-28T14:47:24Z</time>
      </trkpt>
      <trkpt lat="40.2757100" lon="-3.8369470">
        <ele>715.4</ele>
        <time>2019-04-28T14:47:25Z</time>
      </trkpt>
      <trkpt lat="40.2756600" lon="-3.8369240">
        <ele>715.4</ele>
        <time>2019-04-28T14:47:26Z</time>
      </trkpt>
      <trkpt lat="40.2756090" lon="-3.8368990">
        <ele>715.4</ele>
        <time>2019-04-28T14:47:27Z</time>
      </trkpt>
      <trkpt lat="40.2755630" lon="-3.8368780">
        <ele>715.6</ele>
        <time>2019-04-28T14:47:28Z</time>
      </trkpt>
      <trkpt lat="40.2755150" lon="-3.8368540">
        <ele>715.6</ele>
        <time>2019-04-28T14:47:29Z</time>
      </trkpt>
      <trkpt lat="40.2754690" lon="-3.8368280">
        <ele>715.6</ele>
        <time>2019-04-28T14:47:30Z</time>
      </trkpt>
      <trkpt lat="40.2754220" lon="-3.8368000">
        <ele>715.8</ele>
        <time>2019-04-28T14:47:31Z</time>
      </trkpt>
      <trkpt lat="40.2753750" lon="-3.8367740">
        <ele>715.8</ele>
        <time>2019-04-28T14:47:32Z</time>
      </trkpt>
      <trkpt lat="40.2753290" lon="-3.8367470">
        <ele>716.0</ele>
        <time>2019-04-28T14:47:33Z</time>
      </trkpt>
      <trkpt lat="40.2752830" lon="-3.8367250">
        <ele>716.0</ele>
        <time>2019-04-28T14:47:34Z</time>
      </trkpt>
      <trkpt lat="40.2752370" lon="-3.8367010">
        <ele>716.2</ele>
        <time>2019-04-28T14:47:35Z</time>
      </trkpt>
      <trkpt lat="40.2751890" lon="-3.8366780">
        <ele>716.4</ele>
        <time>2019-04-28T14:47:36Z</time>
      </trkpt>
      <trkpt lat="40.2751430" lon="-3.8366550">
        <ele>716.4</ele>
        <time>2019-04-28T14:47:37Z</time>
      </trkpt>
      <trkpt lat="40.2750960" lon="-3.8366330">
        <ele>716.6</ele>
        <time>2019-04-28T14:47:38Z</time>
      </trkpt>
      <trkpt lat="40.2750480" lon="-3.8366140">
        <ele>716.6</ele>
        <time>2019-04-28T14:47:39Z</time>
      </trkpt>
      <trkpt lat="40.2750010" lon="-3.8365910">
        <ele>716.6</ele>
        <time>2019-04-28T14:47:40Z</time>
      </trkpt>
      <trkpt lat="40.2749550" lon="-3.8365670">
        <ele>716.6</ele>
        <time>2019-04-28T14:47:41Z</time>
      </trkpt>
      <trkpt lat="40.2749060" lon="-3.8365470">
        <ele>716.6</ele>
        <time>2019-04-28T14:47:42Z</time>
      </trkpt>
      <trkpt lat="40.2748550" lon="-3.8365320">
        <ele>716.8</ele>
        <time>2019-04-28T14:47:43Z</time>
      </trkpt>
      <trkpt lat="40.2748070" lon="-3.8365080">
        <ele>717.0</ele>
        <time>2019-04-28T14:47:44Z</time>
      </trkpt>
      <trkpt lat="40.2747590" lon="-3.8364790">
        <ele>717.0</ele>
        <time>2019-04-28T14:47:45Z</time>
      </trkpt>
      <trkpt lat="40.2747120" lon="-3.8364470">
        <ele>717.0</ele>
        <time>2019-04-28T14:47:46Z</time>
      </trkpt>
      <trkpt lat="40.2746670" lon="-3.8364140">
        <ele>717.2</ele>
        <time>2019-04-28T14:47:47Z</time>
      </trkpt>
      <trkpt lat="40.2746230" lon="-3.8363800">
        <ele>717.2</ele>
        <time>2019-04-28T14:47:48Z</time>
      </trkpt>
      <trkpt lat="40.2745820" lon="-3.8363400">
        <ele>717.2</ele>
        <time>2019-04-28T14:47:49Z</time>
      </trkpt>
      <trkpt lat="40.2745420" lon="-3.8363000">
        <ele>717.2</ele>
        <time>2019-04-28T14:47:50Z</time>
      </trkpt>
      <trkpt lat="40.2745020" lon="-3.8362650">
        <ele>717.4</ele>
        <time>2019-04-28T14:47:51Z</time>
      </trkpt>
      <trkpt lat="40.2744610" lon="-3.8362470">
        <ele>717.4</ele>
        <time>2019-04-28T14:47:52Z</time>
      </trkpt>
      <trkpt lat="40.2744230" lon="-3.8362250">
        <ele>717.4</ele>
        <time>2019-04-28T14:47:53Z</time>
      </trkpt>
      <trkpt lat="40.2743970" lon="-3.8362330">
        <ele>717.6</ele>
        <time>2019-04-28T14:47:54Z</time>
      </trkpt>
      <trkpt lat="40.2743750" lon="-3.8362230">
        <ele>717.6</ele>
        <time>2019-04-28T14:47:55Z</time>
      </trkpt>
      <trkpt lat="40.2743430" lon="-3.8362140">
        <ele>717.4</ele>
        <time>2019-04-28T14:47:56Z</time>
      </trkpt>
      <trkpt lat="40.2743070" lon="-3.8361960">
        <ele>717.4</ele>
        <time>2019-04-28T14:47:57Z</time>
      </trkpt>
      <trkpt lat="40.2742670" lon="-3.8361660">
        <ele>717.4</ele>
        <time>2019-04-28T14:47:58Z</time>
      </trkpt>
      <trkpt lat="40.2742280" lon="-3.8361320">
        <ele>717.6</ele>
        <time>2019-04-28T14:47:59Z</time>
      </trkpt>
      <trkpt lat="40.2741910" lon="-3.8360950">
        <ele>717.6</ele>
        <time>2019-04-28T14:48:00Z</time>
      </trkpt>
      <trkpt lat="40.2741500" lon="-3.8360590">
        <ele>717.6</ele>
        <time>2019-04-28T14:48:01Z</time>
      </trkpt>
      <trkpt lat="40.2741240" lon="-3.8360240">
        <ele>717.8</ele>
        <time>2019-04-28T14:48:02Z</time>
      </trkpt>
      <trkpt lat="40.2740930" lon="-3.8359900">
        <ele>717.8</ele>
        <time>2019-04-28T14:48:03Z</time>
      </trkpt>
      <trkpt lat="40.2740470" lon="-3.8359550">
        <ele>717.8</ele>
        <time>2019-04-28T14:48:04Z</time>
      </trkpt>
      <trkpt lat="40.2740010" lon="-3.8359170">
        <ele>717.8</ele>
        <time>2019-04-28T14:48:05Z</time>
      </trkpt>
      <trkpt lat="40.2739550" lon="-3.8358780">
        <ele>717.8</ele>
        <time>2019-04-28T14:48:06Z</time>
      </trkpt>
      <trkpt lat="40.2739120" lon="-3.8358330">
        <ele>717.8</ele>
        <time>2019-04-28T14:48:07Z</time>
      </trkpt>
      <trkpt lat="40.2738710" lon="-3.8357870">
        <ele>718.0</ele>
        <time>2019-04-28T14:48:08Z</time>
      </trkpt>
      <trkpt lat="40.2738350" lon="-3.8357370">
        <ele>718.0</ele>
        <time>2019-04-28T14:48:09Z</time>
      </trkpt>
      <trkpt lat="40.2738040" lon="-3.8356890">
        <ele>718.0</ele>
        <time>2019-04-28T14:48:10Z</time>
      </trkpt>
      <trkpt lat="40.2737840" lon="-3.8356460">
        <ele>718.2</ele>
        <time>2019-04-28T14:48:11Z</time>
      </trkpt>
      <trkpt lat="40.2737700" lon="-3.8356000">
        <ele>718.0</ele>
        <time>2019-04-28T14:48:12Z</time>
      </trkpt>
      <trkpt lat="40.2737570" lon="-3.8355580">
        <ele>718.2</ele>
        <time>2019-04-28T14:48:13Z</time>
      </trkpt>
      <trkpt lat="40.2737350" lon="-3.8355160">
        <ele>718.0</ele>
        <time>2019-04-28T14:48:14Z</time>
      </trkpt>
      <trkpt lat="40.2737060" lon="-3.8354780">
        <ele>718.0</ele>
        <time>2019-04-28T14:48:15Z</time>
      </trkpt>
      <trkpt lat="40.2736750" lon="-3.8354390">
        <ele>718.0</ele>
        <time>2019-04-28T14:48:16Z</time>
      </trkpt>
      <trkpt lat="40.2736430" lon="-3.8354050">
        <ele>718.4</ele>
        <time>2019-04-28T14:48:17Z</time>
      </trkpt>
      <trkpt lat="40.2736070" lon="-3.8353720">
        <ele>718.2</ele>
        <time>2019-04-28T14:48:18Z</time>
      </trkpt>
      <trkpt lat="40.2735770" lon="-3.8353410">
        <ele>718.2</ele>
        <time>2019-04-28T14:48:19Z</time>
      </trkpt>
      <trkpt lat="40.2735540" lon="-3.8352990">
        <ele>718.2</ele>
        <time>2019-04-28T14:48:20Z</time>
      </trkpt>
      <trkpt lat="40.2735250" lon="-3.8352700">
        <ele>718.2</ele>
        <time>2019-04-28T14:48:21Z</time>
      </trkpt>
      <trkpt lat="40.2734910" lon="-3.8352540">
        <ele>718.2</ele>
        <time>2019-04-28T14:48:22Z</time>
      </trkpt>
      <trkpt lat="40.2734620" lon="-3.8352380">
        <ele>718.4</ele>
        <time>2019-04-28T14:48:23Z</time>
      </trkpt>
      <trkpt lat="40.2734310" lon="-3.8352140">
        <ele>718.2</ele>
        <time>2019-04-28T14:48:24Z</time>
      </trkpt>
      <trkpt lat="40.2733950" lon="-3.8351910">
        <ele>718.2</ele>
        <time>2019-04-28T14:48:25Z</time>
      </trkpt>
      <trkpt lat="40.2733540" lon="-3.8351650">
        <ele>718.2</ele>
        <time>2019-04-28T14:48:26Z</time>
      </trkpt>
      <trkpt lat="40.2733120" lon="-3.8351400">
        <ele>718.4</ele>
        <time>2019-04-28T14:48:27Z</time>
      </trkpt>
      <trkpt lat="40.2732700" lon="-3.8351200">
        <ele>718.4</ele>
        <time>2019-04-28T14:48:28Z</time>
      </trkpt>
      <trkpt lat="40.2732290" lon="-3.8350940">
        <ele>718.4</ele>
        <time>2019-04-28T14:48:29Z</time>
      </trkpt>
      <trkpt lat="40.2731870" lon="-3.8350740">
        <ele>718.4</ele>
        <time>2019-04-28T14:48:30Z</time>
      </trkpt>
      <trkpt lat="40.2731460" lon="-3.8350500">
        <ele>718.4</ele>
        <time>2019-04-28T14:48:31Z</time>
      </trkpt>
      <trkpt lat="40.2731030" lon="-3.8350270">
        <ele>718.4</ele>
        <time>2019-04-28T14:48:32Z</time>
      </trkpt>
      <trkpt lat="40.2730560" lon="-3.8350110">
        <ele>718.4</ele>
        <time>2019-04-28T14:48:33Z</time>
      </trkpt>
      <trkpt lat="40.2730070" lon="-3.8349940">
        <ele>718.4</ele>
        <time>2019-04-28T14:48:34Z</time>
      </trkpt>
      <trkpt lat="40.2729550" lon="-3.8349740">
        <ele>718.4</ele>
        <time>2019-04-28T14:48:35Z</time>
      </trkpt>
      <trkpt lat="40.2729020" lon="-3.8349510">
        <ele>718.6</ele>
        <time>2019-04-28T14:48:36Z</time>
      </trkpt>
      <trkpt lat="40.2728490" lon="-3.8349250">
        <ele>718.6</ele>
        <time>2019-04-28T14:48:37Z</time>
      </trkpt>
      <trkpt lat="40.2727960" lon="-3.8348950">
        <ele>718.8</ele>
        <time>2019-04-28T14:48:38Z</time>
      </trkpt>
      <trkpt lat="40.2727490" lon="-3.8348670">
        <ele>718.8</ele>
        <time>2019-04-28T14:48:39Z</time>
      </trkpt>
      <trkpt lat="40.2727010" lon="-3.8348390">
        <ele>718.8</ele>
        <time>2019-04-28T14:48:40Z</time>
      </trkpt>
      <trkpt lat="40.2726520" lon="-3.8348110">
        <ele>718.4</ele>
        <time>2019-04-28T14:48:41Z</time>
      </trkpt>
      <trkpt lat="40.2726000" lon="-3.8347880">
        <ele>718.6</ele>
        <time>2019-04-28T14:48:42Z</time>
      </trkpt>
      <trkpt lat="40.2725460" lon="-3.8347760">
        <ele>718.6</ele>
        <time>2019-04-28T14:48:43Z</time>
      </trkpt>
      <trkpt lat="40.2724920" lon="-3.8347600">
        <ele>718.8</ele>
        <time>2019-04-28T14:48:44Z</time>
      </trkpt>
      <trkpt lat="40.2724380" lon="-3.8347380">
        <ele>718.8</ele>
        <time>2019-04-28T14:48:45Z</time>
      </trkpt>
      <trkpt lat="40.2723850" lon="-3.8347150">
        <ele>718.8</ele>
        <time>2019-04-28T14:48:46Z</time>
      </trkpt>
      <trkpt lat="40.2723320" lon="-3.8346930">
        <ele>718.6</ele>
        <time>2019-04-28T14:48:47Z</time>
      </trkpt>
      <trkpt lat="40.2722780" lon="-3.8346710">
        <ele>718.8</ele>
        <time>2019-04-28T14:48:48Z</time>
      </trkpt>
      <trkpt lat="40.2722230" lon="-3.8346490">
        <ele>718.8</ele>
        <time>2019-04-28T14:48:49Z</time>
      </trkpt>
      <trkpt lat="40.2721680" lon="-3.8346270">
        <ele>719.0</ele>
        <time>2019-04-28T14:48:50Z</time>
      </trkpt>
      <trkpt lat="40.2721160" lon="-3.8346070">
        <ele>719.0</ele>
        <time>2019-04-28T14:48:51Z</time>
      </trkpt>
      <trkpt lat="40.2720650" lon="-3.8345870">
        <ele>719.2</ele>
        <time>2019-04-28T14:48:52Z</time>
      </trkpt>
      <trkpt lat="40.2720160" lon="-3.8345690">
        <ele>719.4</ele>
        <time>2019-04-28T14:48:53Z</time>
      </trkpt>
      <trkpt lat="40.2719680" lon="-3.8345470">
        <ele>719.6</ele>
        <time>2019-04-28T14:48:54Z</time>
      </trkpt>
      <trkpt lat="40.2719220" lon="-3.8345170">
        <ele>719.6</ele>
        <time>2019-04-28T14:48:55Z</time>
      </trkpt>
      <trkpt lat="40.2718720" lon="-3.8344890">
        <ele>719.8</ele>
        <time>2019-04-28T14:48:56Z</time>
      </trkpt>
      <trkpt lat="40.2718230" lon="-3.8344710">
        <ele>719.8</ele>
        <time>2019-04-28T14:48:57Z</time>
      </trkpt>
      <trkpt lat="40.2717750" lon="-3.8344530">
        <ele>720.0</ele>
        <time>2019-04-28T14:48:58Z</time>
      </trkpt>
      <trkpt lat="40.2717250" lon="-3.8344370">
        <ele>720.2</ele>
        <time>2019-04-28T14:48:59Z</time>
      </trkpt>
      <trkpt lat="40.2716770" lon="-3.8344200">
        <ele>720.2</ele>
        <time>2019-04-28T14:49:00Z</time>
      </trkpt>
      <trkpt lat="40.2716290" lon="-3.8344020">
        <ele>720.2</ele>
        <time>2019-04-28T14:49:01Z</time>
      </trkpt>
      <trkpt lat="40.2715820" lon="-3.8343820">
        <ele>720.2</ele>
        <time>2019-04-28T14:49:02Z</time>
      </trkpt>
      <trkpt lat="40.2715360" lon="-3.8343620">
        <ele>720.4</ele>
        <time>2019-04-28T14:49:03Z</time>
      </trkpt>
      <trkpt lat="40.2714900" lon="-3.8343420">
        <ele>720.8</ele>
        <time>2019-04-28T14:49:04Z</time>
      </trkpt>
      <trkpt lat="40.2714460" lon="-3.8343240">
        <ele>720.8</ele>
        <time>2019-04-28T14:49:05Z</time>
      </trkpt>
      <trkpt lat="40.2714030" lon="-3.8343080">
        <ele>721.0</ele>
        <time>2019-04-28T14:49:06Z</time>
      </trkpt>
      <trkpt lat="40.2713590" lon="-3.8342920">
        <ele>721.2</ele>
        <time>2019-04-28T14:49:07Z</time>
      </trkpt>
      <trkpt lat="40.2713160" lon="-3.8342770">
        <ele>721.2</ele>
        <time>2019-04-28T14:49:08Z</time>
      </trkpt>
      <trkpt lat="40.2712710" lon="-3.8342600">
        <ele>721.2</ele>
        <time>2019-04-28T14:49:09Z</time>
      </trkpt>
      <trkpt lat="40.2712250" lon="-3.8342430">
        <ele>721.4</ele>
        <time>2019-04-28T14:49:10Z</time>
      </trkpt>
      <trkpt lat="40.2711770" lon="-3.8342290">
        <ele>721.4</ele>
        <time>2019-04-28T14:49:11Z</time>
      </trkpt>
      <trkpt lat="40.2711290" lon="-3.8342130">
        <ele>721.6</ele>
        <time>2019-04-28T14:49:12Z</time>
      </trkpt>
      <trkpt lat="40.2710800" lon="-3.8341920">
        <ele>721.4</ele>
        <time>2019-04-28T14:49:13Z</time>
      </trkpt>
      <trkpt lat="40.2710300" lon="-3.8341730">
        <ele>721.4</ele>
        <time>2019-04-28T14:49:14Z</time>
      </trkpt>
      <trkpt lat="40.2709780" lon="-3.8341580">
        <ele>721.4</ele>
        <time>2019-04-28T14:49:15Z</time>
      </trkpt>
      <trkpt lat="40.2709210" lon="-3.8341460">
        <ele>721.4</ele>
        <time>2019-04-28T14:49:16Z</time>
      </trkpt>
      <trkpt lat="40.2708660" lon="-3.8341310">
        <ele>721.4</ele>
        <time>2019-04-28T14:49:17Z</time>
      </trkpt>
      <trkpt lat="40.2708110" lon="-3.8341190">
        <ele>721.4</ele>
        <time>2019-04-28T14:49:18Z</time>
      </trkpt>
      <trkpt lat="40.2707580" lon="-3.8341050">
        <ele>721.6</ele>
        <time>2019-04-28T14:49:19Z</time>
      </trkpt>
      <trkpt lat="40.2707050" lon="-3.8340860">
        <ele>721.6</ele>
        <time>2019-04-28T14:49:20Z</time>
      </trkpt>
      <trkpt lat="40.2706550" lon="-3.8340570">
        <ele>721.6</ele>
        <time>2019-04-28T14:49:21Z</time>
      </trkpt>
      <trkpt lat="40.2706030" lon="-3.8340320">
        <ele>721.8</ele>
        <time>2019-04-28T14:49:22Z</time>
      </trkpt>
      <trkpt lat="40.2705590" lon="-3.8340160">
        <ele>721.8</ele>
        <time>2019-04-28T14:49:23Z</time>
      </trkpt>
      <trkpt lat="40.2705170" lon="-3.8340040">
        <ele>721.8</ele>
        <time>2019-04-28T14:49:24Z</time>
      </trkpt>
      <trkpt lat="40.2704820" lon="-3.8339910">
        <ele>722.0</ele>
        <time>2019-04-28T14:49:25Z</time>
      </trkpt>
      <trkpt lat="40.2704400" lon="-3.8339740">
        <ele>722.0</ele>
        <time>2019-04-28T14:49:26Z</time>
      </trkpt>
      <trkpt lat="40.2703980" lon="-3.8339610">
        <ele>722.0</ele>
        <time>2019-04-28T14:49:27Z</time>
      </trkpt>
      <trkpt lat="40.2703540" lon="-3.8339430">
        <ele>722.0</ele>
        <time>2019-04-28T14:49:28Z</time>
      </trkpt>
      <trkpt lat="40.2703180" lon="-3.8339280">
        <ele>722.0</ele>
        <time>2019-04-28T14:49:29Z</time>
      </trkpt>
      <trkpt lat="40.2702700" lon="-3.8339130">
        <ele>722.0</ele>
        <time>2019-04-28T14:49:30Z</time>
      </trkpt>
      <trkpt lat="40.2702230" lon="-3.8338910">
        <ele>721.8</ele>
        <time>2019-04-28T14:49:31Z</time>
      </trkpt>
      <trkpt lat="40.2701690" lon="-3.8338700">
        <ele>722.0</ele>
        <time>2019-04-28T14:49:32Z</time>
      </trkpt>
      <trkpt lat="40.2701130" lon="-3.8338500">
        <ele>722.0</ele>
        <time>2019-04-28T14:49:33Z</time>
      </trkpt>
      <trkpt lat="40.2700580" lon="-3.8338310">
        <ele>722.2</ele>
        <time>2019-04-28T14:49:34Z</time>
      </trkpt>
      <trkpt lat="40.2700010" lon="-3.8338100">
        <ele>722.2</ele>
        <time>2019-04-28T14:49:35Z</time>
      </trkpt>
      <trkpt lat="40.2699520" lon="-3.8337880">
        <ele>722.2</ele>
        <time>2019-04-28T14:49:36Z</time>
      </trkpt>
      <trkpt lat="40.2699040" lon="-3.8337700">
        <ele>722.2</ele>
        <time>2019-04-28T14:49:37Z</time>
      </trkpt>
      <trkpt lat="40.2698540" lon="-3.8337450">
        <ele>722.2</ele>
        <time>2019-04-28T14:49:38Z</time>
      </trkpt>
      <trkpt lat="40.2698090" lon="-3.8337270">
        <ele>722.0</ele>
        <time>2019-04-28T14:49:39Z</time>
      </trkpt>
      <trkpt lat="40.2697620" lon="-3.8337090">
        <ele>722.0</ele>
        <time>2019-04-28T14:49:40Z</time>
      </trkpt>
      <trkpt lat="40.2697110" lon="-3.8336930">
        <ele>722.2</ele>
        <time>2019-04-28T14:49:41Z</time>
      </trkpt>
      <trkpt lat="40.2696630" lon="-3.8336720">
        <ele>722.2</ele>
        <time>2019-04-28T14:49:42Z</time>
      </trkpt>
      <trkpt lat="40.2696190" lon="-3.8336570">
        <ele>722.4</ele>
        <time>2019-04-28T14:49:43Z</time>
      </trkpt>
      <trkpt lat="40.2695700" lon="-3.8336390">
        <ele>722.4</ele>
        <time>2019-04-28T14:49:44Z</time>
      </trkpt>
      <trkpt lat="40.2695250" lon="-3.8336240">
        <ele>722.4</ele>
        <time>2019-04-28T14:49:45Z</time>
      </trkpt>
      <trkpt lat="40.2694770" lon="-3.8336030">
        <ele>722.6</ele>
        <time>2019-04-28T14:49:46Z</time>
      </trkpt>
      <trkpt lat="40.2694230" lon="-3.8335780">
        <ele>722.6</ele>
        <time>2019-04-28T14:49:47Z</time>
      </trkpt>
      <trkpt lat="40.2693700" lon="-3.8335580">
        <ele>722.4</ele>
        <time>2019-04-28T14:49:48Z</time>
      </trkpt>
      <trkpt lat="40.2693120" lon="-3.8335430">
        <ele>722.6</ele>
        <time>2019-04-28T14:49:49Z</time>
      </trkpt>
      <trkpt lat="40.2692590" lon="-3.8335220">
        <ele>722.6</ele>
        <time>2019-04-28T14:49:50Z</time>
      </trkpt>
      <trkpt lat="40.2692050" lon="-3.8335000">
        <ele>722.2</ele>
        <time>2019-04-28T14:49:51Z</time>
      </trkpt>
      <trkpt lat="40.2691500" lon="-3.8334800">
        <ele>722.0</ele>
        <time>2019-04-28T14:49:52Z</time>
      </trkpt>
      <trkpt lat="40.2691000" lon="-3.8334600">
        <ele>722.0</ele>
        <time>2019-04-28T14:49:53Z</time>
      </trkpt>
      <trkpt lat="40.2690470" lon="-3.8334380">
        <ele>722.0</ele>
        <time>2019-04-28T14:49:54Z</time>
      </trkpt>
      <trkpt lat="40.2690050" lon="-3.8334120">
        <ele>722.0</ele>
        <time>2019-04-28T14:49:55Z</time>
      </trkpt>
      <trkpt lat="40.2689560" lon="-3.8333850">
        <ele>722.2</ele>
        <time>2019-04-28T14:49:56Z</time>
      </trkpt>
      <trkpt lat="40.2689030" lon="-3.8333590">
        <ele>722.2</ele>
        <time>2019-04-28T14:49:57Z</time>
      </trkpt>
      <trkpt lat="40.2688520" lon="-3.8333340">
        <ele>722.0</ele>
        <time>2019-04-28T14:49:58Z</time>
      </trkpt>
      <trkpt lat="40.2688030" lon="-3.8333110">
        <ele>722.0</ele>
        <time>2019-04-28T14:49:59Z</time>
      </trkpt>
      <trkpt lat="40.2687560" lon="-3.8332900">
        <ele>721.8</ele>
        <time>2019-04-28T14:50:00Z</time>
      </trkpt>
      <trkpt lat="40.2687080" lon="-3.8332710">
        <ele>721.6</ele>
        <time>2019-04-28T14:50:01Z</time>
      </trkpt>
      <trkpt lat="40.2686550" lon="-3.8332540">
        <ele>721.6</ele>
        <time>2019-04-28T14:50:02Z</time>
      </trkpt>
      <trkpt lat="40.2686000" lon="-3.8332350">
        <ele>721.6</ele>
        <time>2019-04-28T14:50:03Z</time>
      </trkpt>
      <trkpt lat="40.2685540" lon="-3.8332150">
        <ele>721.6</ele>
        <time>2019-04-28T14:50:04Z</time>
      </trkpt>
      <trkpt lat="40.2685040" lon="-3.8331890">
        <ele>721.2</ele>
        <time>2019-04-28T14:50:05Z</time>
      </trkpt>
      <trkpt lat="40.2684520" lon="-3.8331670">
        <ele>721.4</ele>
        <time>2019-04-28T14:50:06Z</time>
      </trkpt>
      <trkpt lat="40.2683970" lon="-3.8331490">
        <ele>721.4</ele>
        <time>2019-04-28T14:50:07Z</time>
      </trkpt>
      <trkpt lat="40.2683420" lon="-3.8331280">
        <ele>721.2</ele>
        <time>2019-04-28T14:50:08Z</time>
      </trkpt>
      <trkpt lat="40.2682890" lon="-3.8331070">
        <ele>721.0</ele>
        <time>2019-04-28T14:50:09Z</time>
      </trkpt>
      <trkpt lat="40.2682360" lon="-3.8330910">
        <ele>720.8</ele>
        <time>2019-04-28T14:50:10Z</time>
      </trkpt>
      <trkpt lat="40.2681870" lon="-3.8330780">
        <ele>720.8</ele>
        <time>2019-04-28T14:50:11Z</time>
      </trkpt>
      <trkpt lat="40.2681360" lon="-3.8330620">
        <ele>720.8</ele>
        <time>2019-04-28T14:50:12Z</time>
      </trkpt>
      <trkpt lat="40.2680840" lon="-3.8330470">
        <ele>720.6</ele>
        <time>2019-04-28T14:50:13Z</time>
      </trkpt>
      <trkpt lat="40.2680350" lon="-3.8330340">
        <ele>720.4</ele>
        <time>2019-04-28T14:50:14Z</time>
      </trkpt>
      <trkpt lat="40.2679920" lon="-3.8330210">
        <ele>720.4</ele>
        <time>2019-04-28T14:50:15Z</time>
      </trkpt>
      <trkpt lat="40.2679530" lon="-3.8330090">
        <ele>720.2</ele>
        <time>2019-04-28T14:50:16Z</time>
      </trkpt>
      <trkpt lat="40.2679180" lon="-3.8329970">
        <ele>720.0</ele>
        <time>2019-04-28T14:50:17Z</time>
      </trkpt>
      <trkpt lat="40.2678830" lon="-3.8329880">
        <ele>719.8</ele>
        <time>2019-04-28T14:50:18Z</time>
      </trkpt>
      <trkpt lat="40.2678540" lon="-3.8329860">
        <ele>719.8</ele>
        <time>2019-04-28T14:50:19Z</time>
      </trkpt>
      <trkpt lat="40.2678240" lon="-3.8329920">
        <ele>719.6</ele>
        <time>2019-04-28T14:50:20Z</time>
      </trkpt>
      <trkpt lat="40.2677940" lon="-3.8329990">
        <ele>719.6</ele>
        <time>2019-04-28T14:50:21Z</time>
      </trkpt>
      <trkpt lat="40.2677850" lon="-3.8330040">
        <ele>719.6</ele>
        <time>2019-04-28T14:50:22Z</time>
      </trkpt>
      <trkpt lat="40.2677730" lon="-3.8330010">
        <ele>719.4</ele>
        <time>2019-04-28T14:50:23Z</time>
      </trkpt>
      <trkpt lat="40.2677670" lon="-3.8330000">
        <ele>719.4</ele>
        <time>2019-04-28T14:50:24Z</time>
      </trkpt>
      <trkpt lat="40.2677690" lon="-3.8329970">
        <ele>719.4</ele>
        <time>2019-04-28T14:50:25Z</time>
      </trkpt>
      <trkpt lat="40.2677680" lon="-3.8329960">
        <ele>719.4</ele>
        <time>2019-04-28T14:50:26Z</time>
      </trkpt>
      <trkpt lat="40.2677690" lon="-3.8329960">
        <ele>719.4</ele>
        <time>2019-04-28T14:50:27Z</time>
      </trkpt>
      <trkpt lat="40.2677690" lon="-3.8329990">
        <ele>719.6</ele>
        <time>2019-04-28T14:50:28Z</time>
      </trkpt>
      <trkpt lat="40.2677680" lon="-3.8329990">
        <ele>719.6</ele>
        <time>2019-04-28T14:50:29Z</time>
      </trkpt>
      <trkpt lat="40.2679680" lon="-3.8329800">
        <ele>719.8</ele>
        <time>2019-04-28T14:50:38Z</time>
      </trkpt>
      <trkpt lat="40.2680050" lon="-3.8329720">
        <ele>720.0</ele>
        <time>2019-04-28T14:50:39Z</time>
      </trkpt>
      <trkpt lat="40.2680390" lon="-3.8329600">
        <ele>720.0</ele>
        <time>2019-04-28T14:50:40Z</time>
      </trkpt>
      <trkpt lat="40.2680690" lon="-3.8329330">
        <ele>720.0</ele>
        <time>2019-04-28T14:50:41Z</time>
      </trkpt>
      <trkpt lat="40.2680920" lon="-3.8328970">
        <ele>720.4</ele>
        <time>2019-04-28T14:50:42Z</time>
      </trkpt>
      <trkpt lat="40.2680960" lon="-3.8328510">
        <ele>720.8</ele>
        <time>2019-04-28T14:50:43Z</time>
      </trkpt>
      <trkpt lat="40.2681080" lon="-3.8328150">
        <ele>720.8</ele>
        <time>2019-04-28T14:50:44Z</time>
      </trkpt>
      <trkpt lat="40.2681210" lon="-3.8327780">
        <ele>721.2</ele>
        <time>2019-04-28T14:50:45Z</time>
      </trkpt>
      <trkpt lat="40.2681310" lon="-3.8327570">
        <ele>721.4</ele>
        <time>2019-04-28T14:50:46Z</time>
      </trkpt>
      <trkpt lat="40.2681270" lon="-3.8327480">
        <ele>721.6</ele>
        <time>2019-04-28T14:50:47Z</time>
      </trkpt>
      <trkpt lat="40.2681270" lon="-3.8327260">
        <ele>721.6</ele>
        <time>2019-04-28T14:50:48Z</time>
      </trkpt>
      <trkpt lat="40.2681200" lon="-3.8327200">
        <ele>721.6</ele>
        <time>2019-04-28T14:50:49Z</time>
      </trkpt>
      <trkpt lat="40.2681370" lon="-3.8327130">
        <ele>721.8</ele>
        <time>2019-04-28T14:50:50Z</time>
      </trkpt>
      <trkpt lat="40.2681510" lon="-3.8326880">
        <ele>721.8</ele>
        <time>2019-04-28T14:50:51Z</time>
      </trkpt>
      <trkpt lat="40.2681560" lon="-3.8326760">
        <ele>721.8</ele>
        <time>2019-04-28T14:50:52Z</time>
      </trkpt>
      <trkpt lat="40.2681500" lon="-3.8326730">
        <ele>721.6</ele>
        <time>2019-04-28T14:50:53Z</time>
      </trkpt>
      <trkpt lat="40.2681690" lon="-3.8326470">
        <ele>721.6</ele>
        <time>2019-04-28T14:50:54Z</time>
      </trkpt>
      <trkpt lat="40.2681710" lon="-3.8326340">
        <ele>721.6</ele>
        <time>2019-04-28T14:50:55Z</time>
      </trkpt>
      <trkpt lat="40.2681770" lon="-3.8326160">
        <ele>721.6</ele>
        <time>2019-04-28T14:50:56Z</time>
      </trkpt>
      <trkpt lat="40.2682030" lon="-3.8325960">
        <ele>721.6</ele>
        <time>2019-04-28T14:50:57Z</time>
      </trkpt>
      <trkpt lat="40.2681740" lon="-3.8326490">
        <ele>721.6</ele>
        <time>2019-04-28T14:50:58Z</time>
      </trkpt>
      <trkpt lat="40.2681340" lon="-3.8327140">
        <ele>721.6</ele>
        <time>2019-04-28T14:50:59Z</time>
      </trkpt>
      <trkpt lat="40.2680950" lon="-3.8327800">
        <ele>721.6</ele>
        <time>2019-04-28T14:51:00Z</time>
      </trkpt>
      <trkpt lat="40.2680550" lon="-3.8328460">
        <ele>721.8</ele>
        <time>2019-04-28T14:51:01Z</time>
      </trkpt>
      <trkpt lat="40.2680150" lon="-3.8329110">
        <ele>720.6</ele>
        <time>2019-04-28T14:57:02Z</time>
      </trkpt>
      <trkpt lat="40.2679750" lon="-3.8329770">
        <ele>720.4</ele>
        <time>2019-04-28T14:57:03Z</time>
      </trkpt>
      <trkpt lat="40.2679300" lon="-3.8329830">
        <ele>720.4</ele>
        <time>2019-04-28T14:57:04Z</time>
      </trkpt>
      <trkpt lat="40.2678940" lon="-3.8329910">
        <ele>720.2</ele>
        <time>2019-04-28T14:57:05Z</time>
      </trkpt>
      <trkpt lat="40.2678620" lon="-3.8329820">
        <ele>720.2</ele>
        <time>2019-04-28T14:57:06Z</time>
      </trkpt>
      <trkpt lat="40.2678290" lon="-3.8329760">
        <ele>720.2</ele>
        <time>2019-04-28T14:57:07Z</time>
      </trkpt>
      <trkpt lat="40.2678060" lon="-3.8329680">
        <ele>720.0</ele>
        <time>2019-04-28T14:57:08Z</time>
      </trkpt>
      <trkpt lat="40.2677860" lon="-3.8329670">
        <ele>720.0</ele>
        <time>2019-04-28T14:57:09Z</time>
      </trkpt>
      <trkpt lat="40.2677600" lon="-3.8329630">
        <ele>719.8</ele>
        <time>2019-04-28T14:57:10Z</time>
      </trkpt>
      <trkpt lat="40.2677290" lon="-3.8329580">
        <ele>719.8</ele>
        <time>2019-04-28T14:57:11Z</time>
      </trkpt>
      <trkpt lat="40.2676910" lon="-3.8329560">
        <ele>720.0</ele>
        <time>2019-04-28T14:57:12Z</time>
      </trkpt>
      <trkpt lat="40.2676500" lon="-3.8329600">
        <ele>720.0</ele>
        <time>2019-04-28T14:57:13Z</time>
      </trkpt>
      <trkpt lat="40.2676060" lon="-3.8329560">
        <ele>720.0</ele>
        <time>2019-04-28T14:57:14Z</time>
      </trkpt>
      <trkpt lat="40.2675610" lon="-3.8329480">
        <ele>720.0</ele>
        <time>2019-04-28T14:57:15Z</time>
      </trkpt>
      <trkpt lat="40.2675180" lon="-3.8329310">
        <ele>720.0</ele>
        <time>2019-04-28T14:57:16Z</time>
      </trkpt>
      <trkpt lat="40.2674790" lon="-3.8329040">
        <ele>720.0</ele>
        <time>2019-04-28T14:57:17Z</time>
      </trkpt>
      <trkpt lat="40.2674430" lon="-3.8328690">
        <ele>719.8</ele>
        <time>2019-04-28T14:57:18Z</time>
      </trkpt>
      <trkpt lat="40.2674090" lon="-3.8328310">
        <ele>719.8</ele>
        <time>2019-04-28T14:57:19Z</time>
      </trkpt>
      <trkpt lat="40.2673750" lon="-3.8327930">
        <ele>719.6</ele>
        <time>2019-04-28T14:57:20Z</time>
      </trkpt>
      <trkpt lat="40.2673380" lon="-3.8327590">
        <ele>719.4</ele>
        <time>2019-04-28T14:57:21Z</time>
      </trkpt>
      <trkpt lat="40.2672970" lon="-3.8327310">
        <ele>719.4</ele>
        <time>2019-04-28T14:57:22Z</time>
      </trkpt>
      <trkpt lat="40.2672530" lon="-3.8327090">
        <ele>719.4</ele>
        <time>2019-04-28T14:57:23Z</time>
      </trkpt>
      <trkpt lat="40.2672110" lon="-3.8326910">
        <ele>719.2</ele>
        <time>2019-04-28T14:57:24Z</time>
      </trkpt>
      <trkpt lat="40.2671640" lon="-3.8326780">
        <ele>719.0</ele>
        <time>2019-04-28T14:57:25Z</time>
      </trkpt>
      <trkpt lat="40.2671160" lon="-3.8326700">
        <ele>719.0</ele>
        <time>2019-04-28T14:57:26Z</time>
      </trkpt>
      <trkpt lat="40.2670670" lon="-3.8326620">
        <ele>718.8</ele>
        <time>2019-04-28T14:57:27Z</time>
      </trkpt>
      <trkpt lat="40.2670180" lon="-3.8326600">
        <ele>718.8</ele>
        <time>2019-04-28T14:57:28Z</time>
      </trkpt>
      <trkpt lat="40.2669690" lon="-3.8326560">
        <ele>718.8</ele>
        <time>2019-04-28T14:57:29Z</time>
      </trkpt>
      <trkpt lat="40.2669210" lon="-3.8326490">
        <ele>718.8</ele>
        <time>2019-04-28T14:57:30Z</time>
      </trkpt>
      <trkpt lat="40.2668730" lon="-3.8326410">
        <ele>718.8</ele>
        <time>2019-04-28T14:57:31Z</time>
      </trkpt>
      <trkpt lat="40.2668250" lon="-3.8326320">
        <ele>718.6</ele>
        <time>2019-04-28T14:57:32Z</time>
      </trkpt>
      <trkpt lat="40.2667760" lon="-3.8326210">
        <ele>718.6</ele>
        <time>2019-04-28T14:57:33Z</time>
      </trkpt>
      <trkpt lat="40.2667260" lon="-3.8326080">
        <ele>718.6</ele>
        <time>2019-04-28T14:57:34Z</time>
      </trkpt>
      <trkpt lat="40.2666750" lon="-3.8325960">
        <ele>718.4</ele>
        <time>2019-04-28T14:57:35Z</time>
      </trkpt>
      <trkpt lat="40.2666240" lon="-3.8325820">
        <ele>718.6</ele>
        <time>2019-04-28T14:57:36Z</time>
      </trkpt>
      <trkpt lat="40.2665750" lon="-3.8325620">
        <ele>718.6</ele>
        <time>2019-04-28T14:57:37Z</time>
      </trkpt>
      <trkpt lat="40.2665340" lon="-3.8325320">
        <ele>718.6</ele>
        <time>2019-04-28T14:57:38Z</time>
      </trkpt>
      <trkpt lat="40.2665040" lon="-3.8324940">
        <ele>718.8</ele>
        <time>2019-04-28T14:57:39Z</time>
      </trkpt>
      <trkpt lat="40.2664810" lon="-3.8324550">
        <ele>718.6</ele>
        <time>2019-04-28T14:57:40Z</time>
      </trkpt>
      <trkpt lat="40.2664610" lon="-3.8324120">
        <ele>718.6</ele>
        <time>2019-04-28T14:57:41Z</time>
      </trkpt>
      <trkpt lat="40.2664410" lon="-3.8323600">
        <ele>718.6</ele>
        <time>2019-04-28T14:57:42Z</time>
      </trkpt>
      <trkpt lat="40.2664230" lon="-3.8323040">
        <ele>718.4</ele>
        <time>2019-04-28T14:57:43Z</time>
      </trkpt>
      <trkpt lat="40.2664060" lon="-3.8322460">
        <ele>718.6</ele>
        <time>2019-04-28T14:57:44Z</time>
      </trkpt>
      <trkpt lat="40.2663810" lon="-3.8321860">
        <ele>718.6</ele>
        <time>2019-04-28T14:57:45Z</time>
      </trkpt>
      <trkpt lat="40.2663590" lon="-3.8321270">
        <ele>718.8</ele>
        <time>2019-04-28T14:57:46Z</time>
      </trkpt>
      <trkpt lat="40.2663340" lon="-3.8320670">
        <ele>718.8</ele>
        <time>2019-04-28T14:57:47Z</time>
      </trkpt>
      <trkpt lat="40.2663060" lon="-3.8320120">
        <ele>719.0</ele>
        <time>2019-04-28T14:57:48Z</time>
      </trkpt>
      <trkpt lat="40.2662790" lon="-3.8319590">
        <ele>719.2</ele>
        <time>2019-04-28T14:57:49Z</time>
      </trkpt>
      <trkpt lat="40.2662540" lon="-3.8319060">
        <ele>719.2</ele>
        <time>2019-04-28T14:57:50Z</time>
      </trkpt>
      <trkpt lat="40.2662280" lon="-3.8318530">
        <ele>719.4</ele>
        <time>2019-04-28T14:57:51Z</time>
      </trkpt>
      <trkpt lat="40.2661990" lon="-3.8318000">
        <ele>719.4</ele>
        <time>2019-04-28T14:57:52Z</time>
      </trkpt>
      <trkpt lat="40.2661730" lon="-3.8317440">
        <ele>719.4</ele>
        <time>2019-04-28T14:57:53Z</time>
      </trkpt>
      <trkpt lat="40.2661460" lon="-3.8316880">
        <ele>719.6</ele>
        <time>2019-04-28T14:57:54Z</time>
      </trkpt>
      <trkpt lat="40.2661190" lon="-3.8316320">
        <ele>719.6</ele>
        <time>2019-04-28T14:57:55Z</time>
      </trkpt>
      <trkpt lat="40.2660910" lon="-3.8315770">
        <ele>719.6</ele>
        <time>2019-04-28T14:57:56Z</time>
      </trkpt>
      <trkpt lat="40.2660610" lon="-3.8315230">
        <ele>719.6</ele>
        <time>2019-04-28T14:57:57Z</time>
      </trkpt>
      <trkpt lat="40.2660300" lon="-3.8314680">
        <ele>719.6</ele>
        <time>2019-04-28T14:57:58Z</time>
      </trkpt>
      <trkpt lat="40.2659980" lon="-3.8314120">
        <ele>719.4</ele>
        <time>2019-04-28T14:57:59Z</time>
      </trkpt>
      <trkpt lat="40.2659700" lon="-3.8313520">
        <ele>719.4</ele>
        <time>2019-04-28T14:58:00Z</time>
      </trkpt>
      <trkpt lat="40.2659420" lon="-3.8312930">
        <ele>719.6</ele>
        <time>2019-04-28T14:58:01Z</time>
      </trkpt>
      <trkpt lat="40.2659120" lon="-3.8312370">
        <ele>719.6</ele>
        <time>2019-04-28T14:58:02Z</time>
      </trkpt>
      <trkpt lat="40.2658840" lon="-3.8311790">
        <ele>719.6</ele>
        <time>2019-04-28T14:58:03Z</time>
      </trkpt>
      <trkpt lat="40.2658560" lon="-3.8311210">
        <ele>719.6</ele>
        <time>2019-04-28T14:58:04Z</time>
      </trkpt>
      <trkpt lat="40.2658290" lon="-3.8310600">
        <ele>719.6</ele>
        <time>2019-04-28T14:58:05Z</time>
      </trkpt>
      <trkpt lat="40.2658030" lon="-3.8309960">
        <ele>719.4</ele>
        <time>2019-04-28T14:58:06Z</time>
      </trkpt>
      <trkpt lat="40.2657760" lon="-3.8309380">
        <ele>719.2</ele>
        <time>2019-04-28T14:58:07Z</time>
      </trkpt>
      <trkpt lat="40.2657510" lon="-3.8308760">
        <ele>719.2</ele>
        <time>2019-04-28T14:58:08Z</time>
      </trkpt>
      <trkpt lat="40.2657270" lon="-3.8308190">
        <ele>719.2</ele>
        <time>2019-04-28T14:58:09Z</time>
      </trkpt>
      <trkpt lat="40.2657060" lon="-3.8307620">
        <ele>719.4</ele>
        <time>2019-04-28T14:58:10Z</time>
      </trkpt>
      <trkpt lat="40.2656870" lon="-3.8307080">
        <ele>719.4</ele>
        <time>2019-04-28T14:58:11Z</time>
      </trkpt>
      <trkpt lat="40.2656660" lon="-3.8306570">
        <ele>719.2</ele>
        <time>2019-04-28T14:58:12Z</time>
      </trkpt>
      <trkpt lat="40.2656480" lon="-3.8306090">
        <ele>719.2</ele>
        <time>2019-04-28T14:58:13Z</time>
      </trkpt>
      <trkpt lat="40.2656330" lon="-3.8305660">
        <ele>719.2</ele>
        <time>2019-04-28T14:58:14Z</time>
      </trkpt>
      <trkpt lat="40.2656110" lon="-3.8305220">
        <ele>719.2</ele>
        <time>2019-04-28T14:58:15Z</time>
      </trkpt>
      <trkpt lat="40.2655870" lon="-3.8304770">
        <ele>719.2</ele>
        <time>2019-04-28T14:58:16Z</time>
      </trkpt>
      <trkpt lat="40.2655630" lon="-3.8304290">
        <ele>719.4</ele>
        <time>2019-04-28T14:58:17Z</time>
      </trkpt>
      <trkpt lat="40.2655380" lon="-3.8303800">
        <ele>719.4</ele>
        <time>2019-04-28T14:58:18Z</time>
      </trkpt>
      <trkpt lat="40.2655170" lon="-3.8303280">
        <ele>719.4</ele>
        <time>2019-04-28T14:58:19Z</time>
      </trkpt>
      <trkpt lat="40.2654960" lon="-3.8302750">
        <ele>719.6</ele>
        <time>2019-04-28T14:58:20Z</time>
      </trkpt>
      <trkpt lat="40.2654690" lon="-3.8302270">
        <ele>719.6</ele>
        <time>2019-04-28T14:58:21Z</time>
      </trkpt>
      <trkpt lat="40.2654420" lon="-3.8301800">
        <ele>719.8</ele>
        <time>2019-04-28T14:58:22Z</time>
      </trkpt>
      <trkpt lat="40.2654240" lon="-3.8301310">
        <ele>720.0</ele>
        <time>2019-04-28T14:58:23Z</time>
      </trkpt>
      <trkpt lat="40.2654010" lon="-3.8300830">
        <ele>720.2</ele>
        <time>2019-04-28T14:58:24Z</time>
      </trkpt>
      <trkpt lat="40.2653690" lon="-3.8300420">
        <ele>720.2</ele>
        <time>2019-04-28T14:58:25Z</time>
      </trkpt>
      <trkpt lat="40.2653400" lon="-3.8300010">
        <ele>720.2</ele>
        <time>2019-04-28T14:58:26Z</time>
      </trkpt>
      <trkpt lat="40.2653210" lon="-3.8299580">
        <ele>720.2</ele>
        <time>2019-04-28T14:58:27Z</time>
      </trkpt>
      <trkpt lat="40.2652980" lon="-3.8299160">
        <ele>720.0</ele>
        <time>2019-04-28T14:58:28Z</time>
      </trkpt>
      <trkpt lat="40.2652770" lon="-3.8298680">
        <ele>720.2</ele>
        <time>2019-04-28T14:58:29Z</time>
      </trkpt>
      <trkpt lat="40.2652550" lon="-3.8298180">
        <ele>720.4</ele>
        <time>2019-04-28T14:58:30Z</time>
      </trkpt>
      <trkpt lat="40.2652300" lon="-3.8297690">
        <ele>720.6</ele>
        <time>2019-04-28T14:58:31Z</time>
      </trkpt>
      <trkpt lat="40.2652030" lon="-3.8297230">
        <ele>720.6</ele>
        <time>2019-04-28T14:58:32Z</time>
      </trkpt>
      <trkpt lat="40.2651770" lon="-3.8296790">
        <ele>720.6</ele>
        <time>2019-04-28T14:58:33Z</time>
      </trkpt>
      <trkpt lat="40.2651490" lon="-3.8296370">
        <ele>720.8</ele>
        <time>2019-04-28T14:58:34Z</time>
      </trkpt>
      <trkpt lat="40.2651240" lon="-3.8295960">
        <ele>721.0</ele>
        <time>2019-04-28T14:58:35Z</time>
      </trkpt>
      <trkpt lat="40.2650970" lon="-3.8295570">
        <ele>721.0</ele>
        <time>2019-04-28T14:58:36Z</time>
      </trkpt>
      <trkpt lat="40.2650700" lon="-3.8295180">
        <ele>721.2</ele>
        <time>2019-04-28T14:58:37Z</time>
      </trkpt>
      <trkpt lat="40.2650460" lon="-3.8294790">
        <ele>721.2</ele>
        <time>2019-04-28T14:58:38Z</time>
      </trkpt>
      <trkpt lat="40.2650220" lon="-3.8294390">
        <ele>721.4</ele>
        <time>2019-04-28T14:58:39Z</time>
      </trkpt>
      <trkpt lat="40.2649930" lon="-3.8294040">
        <ele>721.6</ele>
        <time>2019-04-28T14:58:40Z</time>
      </trkpt>
      <trkpt lat="40.2649630" lon="-3.8293700">
        <ele>721.8</ele>
        <time>2019-04-28T14:58:41Z</time>
      </trkpt>
      <trkpt lat="40.2649330" lon="-3.8293330">
        <ele>721.8</ele>
        <time>2019-04-28T14:58:42Z</time>
      </trkpt>
      <trkpt lat="40.2649030" lon="-3.8292960">
        <ele>721.6</ele>
        <time>2019-04-28T14:58:43Z</time>
      </trkpt>
      <trkpt lat="40.2648730" lon="-3.8292580">
        <ele>721.6</ele>
        <time>2019-04-28T14:58:44Z</time>
      </trkpt>
      <trkpt lat="40.2648420" lon="-3.8292180">
        <ele>721.6</ele>
        <time>2019-04-28T14:58:45Z</time>
      </trkpt>
      <trkpt lat="40.2648100" lon="-3.8291770">
        <ele>721.6</ele>
        <time>2019-04-28T14:58:46Z</time>
      </trkpt>
      <trkpt lat="40.2647780" lon="-3.8291360">
        <ele>721.6</ele>
        <time>2019-04-28T14:58:47Z</time>
      </trkpt>
      <trkpt lat="40.2647460" lon="-3.8291000">
        <ele>721.6</ele>
        <time>2019-04-28T14:58:48Z</time>
      </trkpt>
      <trkpt lat="40.2647140" lon="-3.8290580">
        <ele>721.4</ele>
        <time>2019-04-28T14:58:49Z</time>
      </trkpt>
      <trkpt lat="40.2646840" lon="-3.8290190">
        <ele>721.2</ele>
        <time>2019-04-28T14:58:50Z</time>
      </trkpt>
      <trkpt lat="40.2646540" lon="-3.8289780">
        <ele>721.4</ele>
        <time>2019-04-28T14:58:51Z</time>
      </trkpt>
      <trkpt lat="40.2646260" lon="-3.8289430">
        <ele>721.2</ele>
        <time>2019-04-28T14:58:52Z</time>
      </trkpt>
      <trkpt lat="40.2645970" lon="-3.8289030">
        <ele>721.2</ele>
        <time>2019-04-28T14:58:53Z</time>
      </trkpt>
      <trkpt lat="40.2645670" lon="-3.8288610">
        <ele>721.2</ele>
        <time>2019-04-28T14:58:54Z</time>
      </trkpt>
      <trkpt lat="40.2645340" lon="-3.8288170">
        <ele>721.2</ele>
        <time>2019-04-28T14:58:55Z</time>
      </trkpt>
      <trkpt lat="40.2645030" lon="-3.8287800">
        <ele>721.0</ele>
        <time>2019-04-28T14:58:56Z</time>
      </trkpt>
      <trkpt lat="40.2644710" lon="-3.8287400">
        <ele>720.8</ele>
        <time>2019-04-28T14:58:57Z</time>
      </trkpt>
      <trkpt lat="40.2644450" lon="-3.8286940">
        <ele>720.8</ele>
        <time>2019-04-28T14:58:58Z</time>
      </trkpt>
      <trkpt lat="40.2644170" lon="-3.8286470">
        <ele>720.8</ele>
        <time>2019-04-28T14:58:59Z</time>
      </trkpt>
      <trkpt lat="40.2643870" lon="-3.8286030">
        <ele>720.6</ele>
        <time>2019-04-28T14:59:00Z</time>
      </trkpt>
      <trkpt lat="40.2643540" lon="-3.8285600">
        <ele>720.6</ele>
        <time>2019-04-28T14:59:01Z</time>
      </trkpt>
      <trkpt lat="40.2643210" lon="-3.8285180">
        <ele>720.6</ele>
        <time>2019-04-28T14:59:02Z</time>
      </trkpt>
      <trkpt lat="40.2642860" lon="-3.8284780">
        <ele>720.4</ele>
        <time>2019-04-28T14:59:03Z</time>
      </trkpt>
      <trkpt lat="40.2642490" lon="-3.8284380">
        <ele>720.2</ele>
        <time>2019-04-28T14:59:04Z</time>
      </trkpt>
      <trkpt lat="40.2642060" lon="-3.8283980">
        <ele>720.4</ele>
        <time>2019-04-28T14:59:05Z</time>
      </trkpt>
      <trkpt lat="40.2641640" lon="-3.8283560">
        <ele>720.2</ele>
        <time>2019-04-28T14:59:06Z</time>
      </trkpt>
      <trkpt lat="40.2641240" lon="-3.8283130">
        <ele>720.2</ele>
        <time>2019-04-28T14:59:07Z</time>
      </trkpt>
      <trkpt lat="40.2640860" lon="-3.8282680">
        <ele>720.2</ele>
        <time>2019-04-28T14:59:08Z</time>
      </trkpt>
      <trkpt lat="40.2640440" lon="-3.8282320">
        <ele>720.2</ele>
        <time>2019-04-28T14:59:09Z</time>
      </trkpt>
      <trkpt lat="40.2639980" lon="-3.8281980">
        <ele>720.0</ele>
        <time>2019-04-28T14:59:10Z</time>
      </trkpt>
      <trkpt lat="40.2639550" lon="-3.8281550">
        <ele>720.2</ele>
        <time>2019-04-28T14:59:11Z</time>
      </trkpt>
      <trkpt lat="40.2639140" lon="-3.8281060">
        <ele>720.2</ele>
        <time>2019-04-28T14:59:12Z</time>
      </trkpt>
      <trkpt lat="40.2638680" lon="-3.8280690">
        <ele>720.2</ele>
        <time>2019-04-28T14:59:13Z</time>
      </trkpt>
      <trkpt lat="40.2638190" lon="-3.8280340">
        <ele>720.4</ele>
        <time>2019-04-28T14:59:14Z</time>
      </trkpt>
      <trkpt lat="40.2637710" lon="-3.8279960">
        <ele>720.4</ele>
        <time>2019-04-28T14:59:15Z</time>
      </trkpt>
      <trkpt lat="40.2637220" lon="-3.8279630">
        <ele>720.4</ele>
        <time>2019-04-28T14:59:16Z</time>
      </trkpt>
      <trkpt lat="40.2636720" lon="-3.8279330">
        <ele>720.6</ele>
        <time>2019-04-28T14:59:17Z</time>
      </trkpt>
      <trkpt lat="40.2636220" lon="-3.8279050">
        <ele>720.6</ele>
        <time>2019-04-28T14:59:18Z</time>
      </trkpt>
      <trkpt lat="40.2635720" lon="-3.8278770">
        <ele>720.6</ele>
        <time>2019-04-28T14:59:19Z</time>
      </trkpt>
      <trkpt lat="40.2635230" lon="-3.8278510">
        <ele>720.6</ele>
        <time>2019-04-28T14:59:20Z</time>
      </trkpt>
      <trkpt lat="40.2634710" lon="-3.8278310">
        <ele>720.6</ele>
        <time>2019-04-28T14:59:21Z</time>
      </trkpt>
      <trkpt lat="40.2634190" lon="-3.8278170">
        <ele>720.6</ele>
        <time>2019-04-28T14:59:22Z</time>
      </trkpt>
      <trkpt lat="40.2633680" lon="-3.8278030">
        <ele>720.8</ele>
        <time>2019-04-28T14:59:23Z</time>
      </trkpt>
      <trkpt lat="40.2633170" lon="-3.8277900">
        <ele>721.0</ele>
        <time>2019-04-28T14:59:24Z</time>
      </trkpt>
      <trkpt lat="40.2632650" lon="-3.8277740">
        <ele>720.8</ele>
        <time>2019-04-28T14:59:25Z</time>
      </trkpt>
      <trkpt lat="40.2632130" lon="-3.8277560">
        <ele>720.8</ele>
        <time>2019-04-28T14:59:26Z</time>
      </trkpt>
      <trkpt lat="40.2631620" lon="-3.8277390">
        <ele>720.6</ele>
        <time>2019-04-28T14:59:27Z</time>
      </trkpt>
      <trkpt lat="40.2631130" lon="-3.8277210">
        <ele>720.6</ele>
        <time>2019-04-28T14:59:28Z</time>
      </trkpt>
      <trkpt lat="40.2630640" lon="-3.8277050">
        <ele>720.4</ele>
        <time>2019-04-28T14:59:29Z</time>
      </trkpt>
      <trkpt lat="40.2630180" lon="-3.8276910">
        <ele>720.4</ele>
        <time>2019-04-28T14:59:30Z</time>
      </trkpt>
      <trkpt lat="40.2629730" lon="-3.8276810">
        <ele>720.4</ele>
        <time>2019-04-28T14:59:31Z</time>
      </trkpt>
      <trkpt lat="40.2629300" lon="-3.8276650">
        <ele>720.4</ele>
        <time>2019-04-28T14:59:32Z</time>
      </trkpt>
      <trkpt lat="40.2628860" lon="-3.8276540">
        <ele>720.2</ele>
        <time>2019-04-28T14:59:33Z</time>
      </trkpt>
      <trkpt lat="40.2628410" lon="-3.8276410">
        <ele>720.4</ele>
        <time>2019-04-28T14:59:34Z</time>
      </trkpt>
      <trkpt lat="40.2627950" lon="-3.8276240">
        <ele>720.4</ele>
        <time>2019-04-28T14:59:35Z</time>
      </trkpt>
      <trkpt lat="40.2627500" lon="-3.8276120">
        <ele>720.4</ele>
        <time>2019-04-28T14:59:36Z</time>
      </trkpt>
      <trkpt lat="40.2627020" lon="-3.8275950">
        <ele>720.2</ele>
        <time>2019-04-28T14:59:37Z</time>
      </trkpt>
      <trkpt lat="40.2626510" lon="-3.8275760">
        <ele>720.0</ele>
        <time>2019-04-28T14:59:38Z</time>
      </trkpt>
      <trkpt lat="40.2626010" lon="-3.8275550">
        <ele>720.0</ele>
        <time>2019-04-28T14:59:39Z</time>
      </trkpt>
      <trkpt lat="40.2625520" lon="-3.8275430">
        <ele>720.0</ele>
        <time>2019-04-28T14:59:40Z</time>
      </trkpt>
      <trkpt lat="40.2625050" lon="-3.8275380">
        <ele>719.8</ele>
        <time>2019-04-28T14:59:41Z</time>
      </trkpt>
      <trkpt lat="40.2624570" lon="-3.8275300">
        <ele>719.8</ele>
        <time>2019-04-28T14:59:42Z</time>
      </trkpt>
      <trkpt lat="40.2624080" lon="-3.8275200">
        <ele>720.0</ele>
        <time>2019-04-28T14:59:43Z</time>
      </trkpt>
      <trkpt lat="40.2623590" lon="-3.8275090">
        <ele>720.0</ele>
        <time>2019-04-28T14:59:44Z</time>
      </trkpt>
      <trkpt lat="40.2623080" lon="-3.8274970">
        <ele>720.0</ele>
        <time>2019-04-28T14:59:45Z</time>
      </trkpt>
      <trkpt lat="40.2622590" lon="-3.8274850">
        <ele>720.0</ele>
        <time>2019-04-28T14:59:46Z</time>
      </trkpt>
      <trkpt lat="40.2622070" lon="-3.8274700">
        <ele>720.0</ele>
        <time>2019-04-28T14:59:47Z</time>
      </trkpt>
      <trkpt lat="40.2621560" lon="-3.8274460">
        <ele>720.0</ele>
        <time>2019-04-28T14:59:48Z</time>
      </trkpt>
      <trkpt lat="40.2621140" lon="-3.8274200">
        <ele>720.0</ele>
        <time>2019-04-28T14:59:49Z</time>
      </trkpt>
      <trkpt lat="40.2620660" lon="-3.8273950">
        <ele>720.0</ele>
        <time>2019-04-28T14:59:50Z</time>
      </trkpt>
      <trkpt lat="40.2620160" lon="-3.8273790">
        <ele>720.0</ele>
        <time>2019-04-28T14:59:51Z</time>
      </trkpt>
      <trkpt lat="40.2619650" lon="-3.8273640">
        <ele>720.0</ele>
        <time>2019-04-28T14:59:52Z</time>
      </trkpt>
      <trkpt lat="40.2619150" lon="-3.8273460">
        <ele>720.2</ele>
        <time>2019-04-28T14:59:53Z</time>
      </trkpt>
      <trkpt lat="40.2618640" lon="-3.8273250">
        <ele>720.2</ele>
        <time>2019-04-28T14:59:54Z</time>
      </trkpt>
      <trkpt lat="40.2618120" lon="-3.8273040">
        <ele>720.2</ele>
        <time>2019-04-28T14:59:55Z</time>
      </trkpt>
      <trkpt lat="40.2617620" lon="-3.8272790">
        <ele>720.4</ele>
        <time>2019-04-28T14:59:56Z</time>
      </trkpt>
      <trkpt lat="40.2617120" lon="-3.8272600">
        <ele>720.4</ele>
        <time>2019-04-28T14:59:57Z</time>
      </trkpt>
      <trkpt lat="40.2616600" lon="-3.8272480">
        <ele>720.4</ele>
        <time>2019-04-28T14:59:58Z</time>
      </trkpt>
      <trkpt lat="40.2616050" lon="-3.8272390">
        <ele>720.4</ele>
        <time>2019-04-28T14:59:59Z</time>
      </trkpt>
      <trkpt lat="40.2615510" lon="-3.8272280">
        <ele>720.4</ele>
        <time>2019-04-28T15:00:00Z</time>
      </trkpt>
      <trkpt lat="40.2614970" lon="-3.8272160">
        <ele>720.4</ele>
        <time>2019-04-28T15:00:01Z</time>
      </trkpt>
      <trkpt lat="40.2614440" lon="-3.8272050">
        <ele>720.4</ele>
        <time>2019-04-28T15:00:02Z</time>
      </trkpt>
      <trkpt lat="40.2613940" lon="-3.8271930">
        <ele>720.6</ele>
        <time>2019-04-28T15:00:03Z</time>
      </trkpt>
      <trkpt lat="40.2613450" lon="-3.8271880">
        <ele>720.6</ele>
        <time>2019-04-28T15:00:04Z</time>
      </trkpt>
      <trkpt lat="40.2612980" lon="-3.8271880">
        <ele>720.6</ele>
        <time>2019-04-28T15:00:05Z</time>
      </trkpt>
      <trkpt lat="40.2612500" lon="-3.8271800">
        <ele>720.6</ele>
        <time>2019-04-28T15:00:06Z</time>
      </trkpt>
      <trkpt lat="40.2612050" lon="-3.8271540">
        <ele>720.6</ele>
        <time>2019-04-28T15:00:07Z</time>
      </trkpt>
      <trkpt lat="40.2611620" lon="-3.8271240">
        <ele>720.8</ele>
        <time>2019-04-28T15:00:08Z</time>
      </trkpt>
      <trkpt lat="40.2611170" lon="-3.8271020">
        <ele>720.8</ele>
        <time>2019-04-28T15:00:09Z</time>
      </trkpt>
      <trkpt lat="40.2610690" lon="-3.8270800">
        <ele>721.0</ele>
        <time>2019-04-28T15:00:10Z</time>
      </trkpt>
      <trkpt lat="40.2610220" lon="-3.8270570">
        <ele>721.0</ele>
        <time>2019-04-28T15:00:11Z</time>
      </trkpt>
      <trkpt lat="40.2609740" lon="-3.8270350">
        <ele>721.0</ele>
        <time>2019-04-28T15:00:12Z</time>
      </trkpt>
      <trkpt lat="40.2609230" lon="-3.8270150">
        <ele>720.8</ele>
        <time>2019-04-28T15:00:13Z</time>
      </trkpt>
      <trkpt lat="40.2608690" lon="-3.8270010">
        <ele>720.8</ele>
        <time>2019-04-28T15:00:14Z</time>
      </trkpt>
      <trkpt lat="40.2608120" lon="-3.8269910">
        <ele>720.6</ele>
        <time>2019-04-28T15:00:15Z</time>
      </trkpt>
      <trkpt lat="40.2607520" lon="-3.8269800">
        <ele>720.6</ele>
        <time>2019-04-28T15:00:16Z</time>
      </trkpt>
      <trkpt lat="40.2606900" lon="-3.8269770">
        <ele>720.2</ele>
        <time>2019-04-28T15:00:17Z</time>
      </trkpt>
      <trkpt lat="40.2606270" lon="-3.8269690">
        <ele>719.8</ele>
        <time>2019-04-28T15:00:18Z</time>
      </trkpt>
      <trkpt lat="40.2605610" lon="-3.8269640">
        <ele>719.8</ele>
        <time>2019-04-28T15:00:19Z</time>
      </trkpt>
      <trkpt lat="40.2604940" lon="-3.8269640">
        <ele>719.6</ele>
        <time>2019-04-28T15:00:20Z</time>
      </trkpt>
      <trkpt lat="40.2604260" lon="-3.8269610">
        <ele>719.2</ele>
        <time>2019-04-28T15:00:21Z</time>
      </trkpt>
      <trkpt lat="40.2603580" lon="-3.8269570">
        <ele>719.2</ele>
        <time>2019-04-28T15:00:22Z</time>
      </trkpt>
      <trkpt lat="40.2602900" lon="-3.8269580">
        <ele>718.8</ele>
        <time>2019-04-28T15:00:23Z</time>
      </trkpt>
      <trkpt lat="40.2602250" lon="-3.8269620">
        <ele>718.8</ele>
        <time>2019-04-28T15:00:24Z</time>
      </trkpt>
      <trkpt lat="40.2601650" lon="-3.8269690">
        <ele>718.6</ele>
        <time>2019-04-28T15:00:25Z</time>
      </trkpt>
      <trkpt lat="40.2601060" lon="-3.8269780">
        <ele>718.4</ele>
        <time>2019-04-28T15:00:26Z</time>
      </trkpt>
      <trkpt lat="40.2600460" lon="-3.8269860">
        <ele>718.4</ele>
        <time>2019-04-28T15:00:27Z</time>
      </trkpt>
      <trkpt lat="40.2599850" lon="-3.8269870">
        <ele>718.6</ele>
        <time>2019-04-28T15:00:28Z</time>
      </trkpt>
      <trkpt lat="40.2599250" lon="-3.8269800">
        <ele>718.6</ele>
        <time>2019-04-28T15:00:29Z</time>
      </trkpt>
      <trkpt lat="40.2598680" lon="-3.8269640">
        <ele>718.4</ele>
        <time>2019-04-28T15:00:30Z</time>
      </trkpt>
      <trkpt lat="40.2598090" lon="-3.8269520">
        <ele>718.2</ele>
        <time>2019-04-28T15:00:31Z</time>
      </trkpt>
      <trkpt lat="40.2597480" lon="-3.8269430">
        <ele>718.2</ele>
        <time>2019-04-28T15:00:32Z</time>
      </trkpt>
      <trkpt lat="40.2596870" lon="-3.8269350">
        <ele>718.0</ele>
        <time>2019-04-28T15:00:33Z</time>
      </trkpt>
      <trkpt lat="40.2596280" lon="-3.8269270">
        <ele>718.0</ele>
        <time>2019-04-28T15:00:34Z</time>
      </trkpt>
      <trkpt lat="40.2595680" lon="-3.8269190">
        <ele>718.0</ele>
        <time>2019-04-28T15:00:35Z</time>
      </trkpt>
      <trkpt lat="40.2595140" lon="-3.8269160">
        <ele>718.2</ele>
        <time>2019-04-28T15:00:36Z</time>
      </trkpt>
      <trkpt lat="40.2594610" lon="-3.8269110">
        <ele>718.2</ele>
        <time>2019-04-28T15:00:37Z</time>
      </trkpt>
      <trkpt lat="40.2594070" lon="-3.8269010">
        <ele>718.4</ele>
        <time>2019-04-28T15:00:38Z</time>
      </trkpt>
      <trkpt lat="40.2593520" lon="-3.8268900">
        <ele>718.4</ele>
        <time>2019-04-28T15:00:39Z</time>
      </trkpt>
      <trkpt lat="40.2592980" lon="-3.8268810">
        <ele>718.4</ele>
        <time>2019-04-28T15:00:40Z</time>
      </trkpt>
      <trkpt lat="40.2592450" lon="-3.8268780">
        <ele>718.4</ele>
        <time>2019-04-28T15:00:41Z</time>
      </trkpt>
      <trkpt lat="40.2591930" lon="-3.8268750">
        <ele>718.6</ele>
        <time>2019-04-28T15:00:42Z</time>
      </trkpt>
      <trkpt lat="40.2591420" lon="-3.8268760">
        <ele>718.8</ele>
        <time>2019-04-28T15:00:43Z</time>
      </trkpt>
      <trkpt lat="40.2590910" lon="-3.8268750">
        <ele>718.8</ele>
        <time>2019-04-28T15:00:44Z</time>
      </trkpt>
      <trkpt lat="40.2590430" lon="-3.8268710">
        <ele>718.8</ele>
        <time>2019-04-28T15:00:45Z</time>
      </trkpt>
      <trkpt lat="40.2589940" lon="-3.8268630">
        <ele>718.8</ele>
        <time>2019-04-28T15:00:46Z</time>
      </trkpt>
      <trkpt lat="40.2589460" lon="-3.8268550">
        <ele>718.8</ele>
        <time>2019-04-28T15:00:47Z</time>
      </trkpt>
      <trkpt lat="40.2588980" lon="-3.8268480">
        <ele>718.8</ele>
        <time>2019-04-28T15:00:48Z</time>
      </trkpt>
      <trkpt lat="40.2588500" lon="-3.8268400">
        <ele>719.0</ele>
        <time>2019-04-28T15:00:49Z</time>
      </trkpt>
      <trkpt lat="40.2588030" lon="-3.8268330">
        <ele>718.8</ele>
        <time>2019-04-28T15:00:50Z</time>
      </trkpt>
      <trkpt lat="40.2587560" lon="-3.8268300">
        <ele>718.8</ele>
        <time>2019-04-28T15:00:51Z</time>
      </trkpt>
      <trkpt lat="40.2587080" lon="-3.8268270">
        <ele>718.8</ele>
        <time>2019-04-28T15:00:52Z</time>
      </trkpt>
      <trkpt lat="40.2586580" lon="-3.8268240">
        <ele>718.8</ele>
        <time>2019-04-28T15:00:53Z</time>
      </trkpt>
      <trkpt lat="40.2586070" lon="-3.8268240">
        <ele>718.8</ele>
        <time>2019-04-28T15:00:54Z</time>
      </trkpt>
      <trkpt lat="40.2585530" lon="-3.8268210">
        <ele>718.6</ele>
        <time>2019-04-28T15:00:55Z</time>
      </trkpt>
      <trkpt lat="40.2584980" lon="-3.8268220">
        <ele>718.6</ele>
        <time>2019-04-28T15:00:56Z</time>
      </trkpt>
      <trkpt lat="40.2584430" lon="-3.8268270">
        <ele>718.6</ele>
        <time>2019-04-28T15:00:57Z</time>
      </trkpt>
      <trkpt lat="40.2583880" lon="-3.8268340">
        <ele>718.4</ele>
        <time>2019-04-28T15:00:58Z</time>
      </trkpt>
      <trkpt lat="40.2583320" lon="-3.8268400">
        <ele>718.2</ele>
        <time>2019-04-28T15:00:59Z</time>
      </trkpt>
      <trkpt lat="40.2582730" lon="-3.8268450">
        <ele>717.8</ele>
        <time>2019-04-28T15:01:00Z</time>
      </trkpt>
      <trkpt lat="40.2582130" lon="-3.8268510">
        <ele>717.6</ele>
        <time>2019-04-28T15:01:01Z</time>
      </trkpt>
      <trkpt lat="40.2581520" lon="-3.8268610">
        <ele>717.4</ele>
        <time>2019-04-28T15:01:02Z</time>
      </trkpt>
      <trkpt lat="40.2580900" lon="-3.8268700">
        <ele>717.2</ele>
        <time>2019-04-28T15:01:03Z</time>
      </trkpt>
      <trkpt lat="40.2580280" lon="-3.8268860">
        <ele>717.0</ele>
        <time>2019-04-28T15:01:04Z</time>
      </trkpt>
      <trkpt lat="40.2579670" lon="-3.8269010">
        <ele>716.8</ele>
        <time>2019-04-28T15:01:05Z</time>
      </trkpt>
      <trkpt lat="40.2579040" lon="-3.8269110">
        <ele>716.8</ele>
        <time>2019-04-28T15:01:06Z</time>
      </trkpt>
      <trkpt lat="40.2578430" lon="-3.8269250">
        <ele>716.6</ele>
        <time>2019-04-28T15:01:07Z</time>
      </trkpt>
      <trkpt lat="40.2577800" lon="-3.8269450">
        <ele>716.6</ele>
        <time>2019-04-28T15:01:08Z</time>
      </trkpt>
      <trkpt lat="40.2577160" lon="-3.8269670">
        <ele>716.2</ele>
        <time>2019-04-28T15:01:09Z</time>
      </trkpt>
      <trkpt lat="40.2576550" lon="-3.8269900">
        <ele>716.0</ele>
        <time>2019-04-28T15:01:10Z</time>
      </trkpt>
      <trkpt lat="40.2575960" lon="-3.8270100">
        <ele>716.0</ele>
        <time>2019-04-28T15:01:11Z</time>
      </trkpt>
      <trkpt lat="40.2575340" lon="-3.8270220">
        <ele>716.0</ele>
        <time>2019-04-28T15:01:12Z</time>
      </trkpt>
      <trkpt lat="40.2574780" lon="-3.8270410">
        <ele>716.0</ele>
        <time>2019-04-28T15:01:13Z</time>
      </trkpt>
      <trkpt lat="40.2574230" lon="-3.8270730">
        <ele>716.0</ele>
        <time>2019-04-28T15:01:14Z</time>
      </trkpt>
      <trkpt lat="40.2573680" lon="-3.8271110">
        <ele>715.8</ele>
        <time>2019-04-28T15:01:15Z</time>
      </trkpt>
      <trkpt lat="40.2573140" lon="-3.8271520">
        <ele>715.8</ele>
        <time>2019-04-28T15:01:16Z</time>
      </trkpt>
      <trkpt lat="40.2572620" lon="-3.8271930">
        <ele>715.8</ele>
        <time>2019-04-28T15:01:17Z</time>
      </trkpt>
      <trkpt lat="40.2572120" lon="-3.8272350">
        <ele>715.8</ele>
        <time>2019-04-28T15:01:18Z</time>
      </trkpt>
      <trkpt lat="40.2571630" lon="-3.8272760">
        <ele>715.8</ele>
        <time>2019-04-28T15:01:19Z</time>
      </trkpt>
      <trkpt lat="40.2571160" lon="-3.8273130">
        <ele>715.6</ele>
        <time>2019-04-28T15:01:20Z</time>
      </trkpt>
      <trkpt lat="40.2570720" lon="-3.8273580">
        <ele>715.8</ele>
        <time>2019-04-28T15:01:21Z</time>
      </trkpt>
      <trkpt lat="40.2570290" lon="-3.8273990">
        <ele>715.6</ele>
        <time>2019-04-28T15:01:22Z</time>
      </trkpt>
      <trkpt lat="40.2569860" lon="-3.8274380">
        <ele>715.6</ele>
        <time>2019-04-28T15:01:23Z</time>
      </trkpt>
      <trkpt lat="40.2569440" lon="-3.8274760">
        <ele>715.4</ele>
        <time>2019-04-28T15:01:24Z</time>
      </trkpt>
      <trkpt lat="40.2568990" lon="-3.8275130">
        <ele>715.4</ele>
        <time>2019-04-28T15:01:25Z</time>
      </trkpt>
      <trkpt lat="40.2568570" lon="-3.8275530">
        <ele>715.4</ele>
        <time>2019-04-28T15:01:26Z</time>
      </trkpt>
      <trkpt lat="40.2568140" lon="-3.8275940">
        <ele>715.2</ele>
        <time>2019-04-28T15:01:27Z</time>
      </trkpt>
      <trkpt lat="40.2567730" lon="-3.8276360">
        <ele>715.2</ele>
        <time>2019-04-28T15:01:28Z</time>
      </trkpt>
      <trkpt lat="40.2567310" lon="-3.8276810">
        <ele>715.2</ele>
        <time>2019-04-28T15:01:29Z</time>
      </trkpt>
      <trkpt lat="40.2566890" lon="-3.8277290">
        <ele>715.0</ele>
        <time>2019-04-28T15:01:30Z</time>
      </trkpt>
      <trkpt lat="40.2566470" lon="-3.8277780">
        <ele>715.2</ele>
        <time>2019-04-28T15:01:31Z</time>
      </trkpt>
      <trkpt lat="40.2566070" lon="-3.8278310">
        <ele>715.0</ele>
        <time>2019-04-28T15:01:32Z</time>
      </trkpt>
      <trkpt lat="40.2565670" lon="-3.8278860">
        <ele>715.0</ele>
        <time>2019-04-28T15:01:33Z</time>
      </trkpt>
      <trkpt lat="40.2565270" lon="-3.8279390">
        <ele>714.8</ele>
        <time>2019-04-28T15:01:34Z</time>
      </trkpt>
      <trkpt lat="40.2564850" lon="-3.8279910">
        <ele>714.8</ele>
        <time>2019-04-28T15:01:35Z</time>
      </trkpt>
      <trkpt lat="40.2564440" lon="-3.8280440">
        <ele>714.8</ele>
        <time>2019-04-28T15:01:36Z</time>
      </trkpt>
      <trkpt lat="40.2564030" lon="-3.8280960">
        <ele>714.8</ele>
        <time>2019-04-28T15:01:37Z</time>
      </trkpt>
      <trkpt lat="40.2563630" lon="-3.8281480">
        <ele>715.4</ele>
        <time>2019-04-28T15:01:38Z</time>
      </trkpt>
      <trkpt lat="40.2563240" lon="-3.8282000">
        <ele>715.0</ele>
        <time>2019-04-28T15:01:39Z</time>
      </trkpt>
      <trkpt lat="40.2562860" lon="-3.8282530">
        <ele>714.8</ele>
        <time>2019-04-28T15:01:40Z</time>
      </trkpt>
      <trkpt lat="40.2562470" lon="-3.8283040">
        <ele>714.8</ele>
        <time>2019-04-28T15:01:41Z</time>
      </trkpt>
      <trkpt lat="40.2562090" lon="-3.8283560">
        <ele>714.6</ele>
        <time>2019-04-28T15:01:42Z</time>
      </trkpt>
      <trkpt lat="40.2561690" lon="-3.8284050">
        <ele>714.6</ele>
        <time>2019-04-28T15:01:43Z</time>
      </trkpt>
      <trkpt lat="40.2561300" lon="-3.8284540">
        <ele>714.6</ele>
        <time>2019-04-28T15:01:44Z</time>
      </trkpt>
      <trkpt lat="40.2560930" lon="-3.8284960">
        <ele>714.8</ele>
        <time>2019-04-28T15:01:45Z</time>
      </trkpt>
      <trkpt lat="40.2560530" lon="-3.8285460">
        <ele>714.6</ele>
        <time>2019-04-28T15:01:46Z</time>
      </trkpt>
      <trkpt lat="40.2560120" lon="-3.8285920">
        <ele>714.6</ele>
        <time>2019-04-28T15:01:47Z</time>
      </trkpt>
      <trkpt lat="40.2559720" lon="-3.8286410">
        <ele>714.6</ele>
        <time>2019-04-28T15:01:48Z</time>
      </trkpt>
      <trkpt lat="40.2559320" lon="-3.8286890">
        <ele>714.6</ele>
        <time>2019-04-28T15:01:49Z</time>
      </trkpt>
      <trkpt lat="40.2558920" lon="-3.8287360">
        <ele>714.4</ele>
        <time>2019-04-28T15:01:50Z</time>
      </trkpt>
      <trkpt lat="40.2558550" lon="-3.8287830">
        <ele>714.4</ele>
        <time>2019-04-28T15:01:51Z</time>
      </trkpt>
      <trkpt lat="40.2558180" lon="-3.8288290">
        <ele>714.4</ele>
        <time>2019-04-28T15:01:52Z</time>
      </trkpt>
      <trkpt lat="40.2557840" lon="-3.8288780">
        <ele>714.4</ele>
        <time>2019-04-28T15:01:53Z</time>
      </trkpt>
      <trkpt lat="40.2557500" lon="-3.8289250">
        <ele>714.4</ele>
        <time>2019-04-28T15:01:54Z</time>
      </trkpt>
      <trkpt lat="40.2557170" lon="-3.8289650">
        <ele>714.4</ele>
        <time>2019-04-28T15:01:55Z</time>
      </trkpt>
      <trkpt lat="40.2556870" lon="-3.8290030">
        <ele>714.4</ele>
        <time>2019-04-28T15:01:56Z</time>
      </trkpt>
      <trkpt lat="40.2556570" lon="-3.8290370">
        <ele>714.4</ele>
        <time>2019-04-28T15:01:57Z</time>
      </trkpt>
      <trkpt lat="40.2556290" lon="-3.8290700">
        <ele>714.4</ele>
        <time>2019-04-28T15:01:58Z</time>
      </trkpt>
      <trkpt lat="40.2556020" lon="-3.8291050">
        <ele>714.2</ele>
        <time>2019-04-28T15:01:59Z</time>
      </trkpt>
      <trkpt lat="40.2555760" lon="-3.8291430">
        <ele>714.2</ele>
        <time>2019-04-28T15:02:00Z</time>
      </trkpt>
      <trkpt lat="40.2555530" lon="-3.8291870">
        <ele>714.2</ele>
        <time>2019-04-28T15:02:01Z</time>
      </trkpt>
      <trkpt lat="40.2555360" lon="-3.8292400">
        <ele>714.2</ele>
        <time>2019-04-28T15:02:02Z</time>
      </trkpt>
      <trkpt lat="40.2555250" lon="-3.8292980">
        <ele>714.0</ele>
        <time>2019-04-28T15:02:03Z</time>
      </trkpt>
      <trkpt lat="40.2555160" lon="-3.8293600">
        <ele>713.8</ele>
        <time>2019-04-28T15:02:04Z</time>
      </trkpt>
      <trkpt lat="40.2555080" lon="-3.8294230">
        <ele>713.8</ele>
        <time>2019-04-28T15:02:05Z</time>
      </trkpt>
      <trkpt lat="40.2555040" lon="-3.8294910">
        <ele>713.6</ele>
        <time>2019-04-28T15:02:06Z</time>
      </trkpt>
      <trkpt lat="40.2554980" lon="-3.8295620">
        <ele>713.4</ele>
        <time>2019-04-28T15:02:07Z</time>
      </trkpt>
      <trkpt lat="40.2554930" lon="-3.8296370">
        <ele>713.0</ele>
        <time>2019-04-28T15:02:08Z</time>
      </trkpt>
      <trkpt lat="40.2554880" lon="-3.8297140">
        <ele>712.6</ele>
        <time>2019-04-28T15:02:09Z</time>
      </trkpt>
      <trkpt lat="40.2554810" lon="-3.8297930">
        <ele>712.4</ele>
        <time>2019-04-28T15:02:10Z</time>
      </trkpt>
      <trkpt lat="40.2554770" lon="-3.8298780">
        <ele>711.8</ele>
        <time>2019-04-28T15:02:11Z</time>
      </trkpt>
      <trkpt lat="40.2554720" lon="-3.8299660">
        <ele>711.6</ele>
        <time>2019-04-28T15:02:12Z</time>
      </trkpt>
      <trkpt lat="40.2554710" lon="-3.8300530">
        <ele>711.6</ele>
        <time>2019-04-28T15:02:13Z</time>
      </trkpt>
      <trkpt lat="40.2554720" lon="-3.8301360">
        <ele>711.6</ele>
        <time>2019-04-28T15:02:14Z</time>
      </trkpt>
      <trkpt lat="40.2554670" lon="-3.8302240">
        <ele>711.6</ele>
        <time>2019-04-28T15:02:15Z</time>
      </trkpt>
      <trkpt lat="40.2554500" lon="-3.8302880">
        <ele>711.6</ele>
        <time>2019-04-28T15:02:16Z</time>
      </trkpt>
      <trkpt lat="40.2554190" lon="-3.8303330">
        <ele>711.6</ele>
        <time>2019-04-28T15:02:17Z</time>
      </trkpt>
      <trkpt lat="40.2553780" lon="-3.8303420">
        <ele>711.6</ele>
        <time>2019-04-28T15:02:18Z</time>
      </trkpt>
      <trkpt lat="40.2553420" lon="-3.8303150">
        <ele>711.6</ele>
        <time>2019-04-28T15:02:19Z</time>
      </trkpt>
      <trkpt lat="40.2553230" lon="-3.8302610">
        <ele>711.4</ele>
        <time>2019-04-28T15:02:20Z</time>
      </trkpt>
      <trkpt lat="40.2553050" lon="-3.8301960">
        <ele>711.6</ele>
        <time>2019-04-28T15:02:21Z</time>
      </trkpt>
      <trkpt lat="40.2552790" lon="-3.8301310">
        <ele>711.2</ele>
        <time>2019-04-28T15:02:22Z</time>
      </trkpt>
      <trkpt lat="40.2552430" lon="-3.8300650">
        <ele>711.0</ele>
        <time>2019-04-28T15:02:23Z</time>
      </trkpt>
      <trkpt lat="40.2552050" lon="-3.8299960">
        <ele>710.6</ele>
        <time>2019-04-28T15:02:24Z</time>
      </trkpt>
      <trkpt lat="40.2551650" lon="-3.8299160">
        <ele>710.2</ele>
        <time>2019-04-28T15:02:25Z</time>
      </trkpt>
      <trkpt lat="40.2551220" lon="-3.8298300">
        <ele>709.6</ele>
        <time>2019-04-28T15:02:26Z</time>
      </trkpt>
      <trkpt lat="40.2550750" lon="-3.8297420">
        <ele>709.0</ele>
        <time>2019-04-28T15:02:27Z</time>
      </trkpt>
      <trkpt lat="40.2550250" lon="-3.8296500">
        <ele>708.6</ele>
        <time>2019-04-28T15:02:28Z</time>
      </trkpt>
      <trkpt lat="40.2549720" lon="-3.8295520">
        <ele>708.2</ele>
        <time>2019-04-28T15:02:29Z</time>
      </trkpt>
      <trkpt lat="40.2549190" lon="-3.8294510">
        <ele>707.8</ele>
        <time>2019-04-28T15:02:30Z</time>
      </trkpt>
      <trkpt lat="40.2548670" lon="-3.8293520">
        <ele>707.6</ele>
        <time>2019-04-28T15:02:31Z</time>
      </trkpt>
      <trkpt lat="40.2548160" lon="-3.8292560">
        <ele>707.8</ele>
        <time>2019-04-28T15:02:32Z</time>
      </trkpt>
      <trkpt lat="40.2547540" lon="-3.8291720">
        <ele>707.8</ele>
        <time>2019-04-28T15:02:33Z</time>
      </trkpt>
      <trkpt lat="40.2547070" lon="-3.8290880">
        <ele>708.0</ele>
        <time>2019-04-28T15:02:34Z</time>
      </trkpt>
      <trkpt lat="40.2546710" lon="-3.8290060">
        <ele>708.4</ele>
        <time>2019-04-28T15:02:35Z</time>
      </trkpt>
      <trkpt lat="40.2546360" lon="-3.8289260">
        <ele>708.6</ele>
        <time>2019-04-28T15:02:36Z</time>
      </trkpt>
      <trkpt lat="40.2546000" lon="-3.8288610">
        <ele>709.4</ele>
        <time>2019-04-28T15:02:37Z</time>
      </trkpt>
      <trkpt lat="40.2545640" lon="-3.8287980">
        <ele>710.0</ele>
        <time>2019-04-28T15:02:38Z</time>
      </trkpt>
      <trkpt lat="40.2545270" lon="-3.8287430">
        <ele>710.2</ele>
        <time>2019-04-28T15:02:39Z</time>
      </trkpt>
      <trkpt lat="40.2544950" lon="-3.8286880">
        <ele>710.8</ele>
        <time>2019-04-28T15:02:40Z</time>
      </trkpt>
      <trkpt lat="40.2544670" lon="-3.8286380">
        <ele>711.0</ele>
        <time>2019-04-28T15:02:41Z</time>
      </trkpt>
      <trkpt lat="40.2544400" lon="-3.8285920">
        <ele>711.2</ele>
        <time>2019-04-28T15:02:42Z</time>
      </trkpt>
      <trkpt lat="40.2544140" lon="-3.8285500">
        <ele>711.4</ele>
        <time>2019-04-28T15:02:43Z</time>
      </trkpt>
      <trkpt lat="40.2543890" lon="-3.8285070">
        <ele>711.8</ele>
        <time>2019-04-28T15:02:44Z</time>
      </trkpt>
      <trkpt lat="40.2543570" lon="-3.8284750">
        <ele>711.8</ele>
        <time>2019-04-28T15:02:45Z</time>
      </trkpt>
      <trkpt lat="40.2543200" lon="-3.8284630">
        <ele>712.0</ele>
        <time>2019-04-28T15:02:46Z</time>
      </trkpt>
      <trkpt lat="40.2542820" lon="-3.8284740">
        <ele>711.8</ele>
        <time>2019-04-28T15:02:47Z</time>
      </trkpt>
      <trkpt lat="40.2542450" lon="-3.8284890">
        <ele>711.8</ele>
        <time>2019-04-28T15:02:48Z</time>
      </trkpt>
      <trkpt lat="40.2542040" lon="-3.8285130">
        <ele>712.0</ele>
        <time>2019-04-28T15:02:49Z</time>
      </trkpt>
      <trkpt lat="40.2541680" lon="-3.8285400">
        <ele>711.8</ele>
        <time>2019-04-28T15:02:50Z</time>
      </trkpt>
      <trkpt lat="40.2541300" lon="-3.8285780">
        <ele>711.8</ele>
        <time>2019-04-28T15:02:51Z</time>
      </trkpt>
      <trkpt lat="40.2540920" lon="-3.8286150">
        <ele>711.6</ele>
        <time>2019-04-28T15:02:52Z</time>
      </trkpt>
      <trkpt lat="40.2540550" lon="-3.8286500">
        <ele>711.4</ele>
        <time>2019-04-28T15:02:53Z</time>
      </trkpt>
      <trkpt lat="40.2540180" lon="-3.8286710">
        <ele>711.2</ele>
        <time>2019-04-28T15:02:54Z</time>
      </trkpt>
      <trkpt lat="40.2539840" lon="-3.8287010">
        <ele>711.4</ele>
        <time>2019-04-28T15:02:55Z</time>
      </trkpt>
      <trkpt lat="40.2539450" lon="-3.8287400">
        <ele>711.4</ele>
        <time>2019-04-28T15:02:56Z</time>
      </trkpt>
      <trkpt lat="40.2539050" lon="-3.8287770">
        <ele>711.4</ele>
        <time>2019-04-28T15:02:57Z</time>
      </trkpt>
      <trkpt lat="40.2538660" lon="-3.8288170">
        <ele>711.2</ele>
        <time>2019-04-28T15:02:58Z</time>
      </trkpt>
      <trkpt lat="40.2538280" lon="-3.8288500">
        <ele>711.2</ele>
        <time>2019-04-28T15:02:59Z</time>
      </trkpt>
      <trkpt lat="40.2537880" lon="-3.8288940">
        <ele>711.2</ele>
        <time>2019-04-28T15:03:00Z</time>
      </trkpt>
      <trkpt lat="40.2537440" lon="-3.8289210">
        <ele>711.0</ele>
        <time>2019-04-28T15:03:01Z</time>
      </trkpt>
      <trkpt lat="40.2536960" lon="-3.8289220">
        <ele>711.0</ele>
        <time>2019-04-28T15:03:02Z</time>
      </trkpt>
      <trkpt lat="40.2536520" lon="-3.8289090">
        <ele>711.0</ele>
        <time>2019-04-28T15:03:03Z</time>
      </trkpt>
      <trkpt lat="40.2536100" lon="-3.8288920">
        <ele>711.0</ele>
        <time>2019-04-28T15:03:04Z</time>
      </trkpt>
      <trkpt lat="40.2535770" lon="-3.8288640">
        <ele>710.8</ele>
        <time>2019-04-28T15:03:05Z</time>
      </trkpt>
      <trkpt lat="40.2535440" lon="-3.8288340">
        <ele>710.6</ele>
        <time>2019-04-28T15:03:06Z</time>
      </trkpt>
      <trkpt lat="40.2535040" lon="-3.8287990">
        <ele>710.6</ele>
        <time>2019-04-28T15:03:07Z</time>
      </trkpt>
      <trkpt lat="40.2534510" lon="-3.8287590">
        <ele>710.6</ele>
        <time>2019-04-28T15:03:08Z</time>
      </trkpt>
      <trkpt lat="40.2533930" lon="-3.8287080">
        <ele>710.6</ele>
        <time>2019-04-28T15:03:09Z</time>
      </trkpt>
      <trkpt lat="40.2533420" lon="-3.8286610">
        <ele>710.4</ele>
        <time>2019-04-28T15:03:10Z</time>
      </trkpt>
      <trkpt lat="40.2532900" lon="-3.8286070">
        <ele>710.2</ele>
        <time>2019-04-28T15:03:11Z</time>
      </trkpt>
      <trkpt lat="40.2532430" lon="-3.8285520">
        <ele>710.2</ele>
        <time>2019-04-28T15:03:12Z</time>
      </trkpt>
      <trkpt lat="40.2531970" lon="-3.8285000">
        <ele>710.4</ele>
        <time>2019-04-28T15:03:13Z</time>
      </trkpt>
      <trkpt lat="40.2531530" lon="-3.8284580">
        <ele>710.2</ele>
        <time>2019-04-28T15:03:14Z</time>
      </trkpt>
      <trkpt lat="40.2531100" lon="-3.8284290">
        <ele>710.0</ele>
        <time>2019-04-28T15:03:15Z</time>
      </trkpt>
      <trkpt lat="40.2530660" lon="-3.8284080">
        <ele>709.8</ele>
        <time>2019-04-28T15:03:16Z</time>
      </trkpt>
      <trkpt lat="40.2530280" lon="-3.8283940">
        <ele>709.8</ele>
        <time>2019-04-28T15:03:17Z</time>
      </trkpt>
      <trkpt lat="40.2530010" lon="-3.8283780">
        <ele>709.6</ele>
        <time>2019-04-28T15:03:18Z</time>
      </trkpt>
      <trkpt lat="40.2529730" lon="-3.8283490">
        <ele>709.4</ele>
        <time>2019-04-28T15:03:19Z</time>
      </trkpt>
      <trkpt lat="40.2529510" lon="-3.8283090">
        <ele>709.6</ele>
        <time>2019-04-28T15:03:20Z</time>
      </trkpt>
      <trkpt lat="40.2529440" lon="-3.8282660">
        <ele>709.6</ele>
        <time>2019-04-28T15:03:21Z</time>
      </trkpt>
      <trkpt lat="40.2529410" lon="-3.8282260">
        <ele>709.6</ele>
        <time>2019-04-28T15:03:22Z</time>
      </trkpt>
      <trkpt lat="40.2529460" lon="-3.8281760">
        <ele>710.0</ele>
        <time>2019-04-28T15:03:23Z</time>
      </trkpt>
      <trkpt lat="40.2529430" lon="-3.8281160">
        <ele>710.0</ele>
        <time>2019-04-28T15:03:24Z</time>
      </trkpt>
      <trkpt lat="40.2529250" lon="-3.8280630">
        <ele>710.0</ele>
        <time>2019-04-28T15:03:25Z</time>
      </trkpt>
      <trkpt lat="40.2529140" lon="-3.8280080">
        <ele>710.2</ele>
        <time>2019-04-28T15:03:26Z</time>
      </trkpt>
      <trkpt lat="40.2528950" lon="-3.8279520">
        <ele>710.4</ele>
        <time>2019-04-28T15:03:27Z</time>
      </trkpt>
      <trkpt lat="40.2528670" lon="-3.8278990">
        <ele>710.4</ele>
        <time>2019-04-28T15:03:28Z</time>
      </trkpt>
      <trkpt lat="40.2528370" lon="-3.8278520">
        <ele>710.6</ele>
        <time>2019-04-28T15:03:29Z</time>
      </trkpt>
      <trkpt lat="40.2528020" lon="-3.8278050">
        <ele>710.6</ele>
        <time>2019-04-28T15:03:30Z</time>
      </trkpt>
      <trkpt lat="40.2527690" lon="-3.8277560">
        <ele>710.8</ele>
        <time>2019-04-28T15:03:31Z</time>
      </trkpt>
      <trkpt lat="40.2527380" lon="-3.8277020">
        <ele>711.2</ele>
        <time>2019-04-28T15:03:32Z</time>
      </trkpt>
      <trkpt lat="40.2527070" lon="-3.8276460">
        <ele>711.4</ele>
        <time>2019-04-28T15:03:33Z</time>
      </trkpt>
      <trkpt lat="40.2526770" lon="-3.8275900">
        <ele>711.4</ele>
        <time>2019-04-28T15:03:34Z</time>
      </trkpt>
      <trkpt lat="40.2526440" lon="-3.8275330">
        <ele>711.6</ele>
        <time>2019-04-28T15:03:35Z</time>
      </trkpt>
      <trkpt lat="40.2526140" lon="-3.8274780">
        <ele>711.8</ele>
        <time>2019-04-28T15:03:36Z</time>
      </trkpt>
      <trkpt lat="40.2525850" lon="-3.8274190">
        <ele>712.0</ele>
        <time>2019-04-28T15:03:37Z</time>
      </trkpt>
      <trkpt lat="40.2525570" lon="-3.8273570">
        <ele>712.0</ele>
        <time>2019-04-28T15:03:38Z</time>
      </trkpt>
      <trkpt lat="40.2525290" lon="-3.8272990">
        <ele>712.0</ele>
        <time>2019-04-28T15:03:39Z</time>
      </trkpt>
      <trkpt lat="40.2524980" lon="-3.8272420">
        <ele>712.2</ele>
        <time>2019-04-28T15:03:40Z</time>
      </trkpt>
      <trkpt lat="40.2524700" lon="-3.8271850">
        <ele>712.4</ele>
        <time>2019-04-28T15:03:41Z</time>
      </trkpt>
      <trkpt lat="40.2524540" lon="-3.8271300">
        <ele>712.4</ele>
        <time>2019-04-28T15:03:42Z</time>
      </trkpt>
      <trkpt lat="40.2524380" lon="-3.8270800">
        <ele>712.4</ele>
        <time>2019-04-28T15:03:43Z</time>
      </trkpt>
      <trkpt lat="40.2524240" lon="-3.8270370">
        <ele>712.4</ele>
        <time>2019-04-28T15:03:44Z</time>
      </trkpt>
      <trkpt lat="40.2523990" lon="-3.8269770">
        <ele>712.6</ele>
        <time>2019-04-28T15:03:45Z</time>
      </trkpt>
      <trkpt lat="40.2523740" lon="-3.8269220">
        <ele>712.6</ele>
        <time>2019-04-28T15:03:46Z</time>
      </trkpt>
      <trkpt lat="40.2523520" lon="-3.8268840">
        <ele>712.6</ele>
        <time>2019-04-28T15:03:47Z</time>
      </trkpt>
      <trkpt lat="40.2523350" lon="-3.8268280">
        <ele>712.6</ele>
        <time>2019-04-28T15:03:48Z</time>
      </trkpt>
      <trkpt lat="40.2523130" lon="-3.8267660">
        <ele>712.6</ele>
        <time>2019-04-28T15:03:49Z</time>
      </trkpt>
      <trkpt lat="40.2522940" lon="-3.8266990">
        <ele>712.8</ele>
        <time>2019-04-28T15:03:50Z</time>
      </trkpt>
      <trkpt lat="40.2522750" lon="-3.8266320">
        <ele>712.8</ele>
        <time>2019-04-28T15:03:51Z</time>
      </trkpt>
      <trkpt lat="40.2522590" lon="-3.8265630">
        <ele>713.0</ele>
        <time>2019-04-28T15:03:52Z</time>
      </trkpt>
      <trkpt lat="40.2522450" lon="-3.8264890">
        <ele>712.8</ele>
        <time>2019-04-28T15:03:53Z</time>
      </trkpt>
      <trkpt lat="40.2522330" lon="-3.8264080">
        <ele>712.8</ele>
        <time>2019-04-28T15:03:54Z</time>
      </trkpt>
      <trkpt lat="40.2522230" lon="-3.8263340">
        <ele>712.8</ele>
        <time>2019-04-28T15:03:55Z</time>
      </trkpt>
      <trkpt lat="40.2522140" lon="-3.8262780">
        <ele>712.8</ele>
        <time>2019-04-28T15:03:56Z</time>
      </trkpt>
      <trkpt lat="40.2522050" lon="-3.8262040">
        <ele>712.8</ele>
        <time>2019-04-28T15:03:57Z</time>
      </trkpt>
      <trkpt lat="40.2521900" lon="-3.8261340">
        <ele>712.6</ele>
        <time>2019-04-28T15:03:58Z</time>
      </trkpt>
      <trkpt lat="40.2521620" lon="-3.8260850">
        <ele>712.6</ele>
        <time>2019-04-28T15:03:59Z</time>
      </trkpt>
      <trkpt lat="40.2521220" lon="-3.8260530">
        <ele>712.6</ele>
        <time>2019-04-28T15:04:00Z</time>
      </trkpt>
      <trkpt lat="40.2520790" lon="-3.8260530">
        <ele>712.6</ele>
        <time>2019-04-28T15:04:01Z</time>
      </trkpt>
      <trkpt lat="40.2520410" lon="-3.8260670">
        <ele>712.6</ele>
        <time>2019-04-28T15:04:02Z</time>
      </trkpt>
      <trkpt lat="40.2520020" lon="-3.8260950">
        <ele>712.4</ele>
        <time>2019-04-28T15:04:03Z</time>
      </trkpt>
      <trkpt lat="40.2519640" lon="-3.8261330">
        <ele>712.4</ele>
        <time>2019-04-28T15:04:04Z</time>
      </trkpt>
      <trkpt lat="40.2519250" lon="-3.8261770">
        <ele>712.4</ele>
        <time>2019-04-28T15:04:05Z</time>
      </trkpt>
      <trkpt lat="40.2518830" lon="-3.8262180">
        <ele>712.6</ele>
        <time>2019-04-28T15:04:06Z</time>
      </trkpt>
      <trkpt lat="40.2518370" lon="-3.8262610">
        <ele>712.4</ele>
        <time>2019-04-28T15:04:07Z</time>
      </trkpt>
      <trkpt lat="40.2517920" lon="-3.8263060">
        <ele>712.4</ele>
        <time>2019-04-28T15:04:08Z</time>
      </trkpt>
      <trkpt lat="40.2517480" lon="-3.8263510">
        <ele>712.6</ele>
        <time>2019-04-28T15:04:09Z</time>
      </trkpt>
      <trkpt lat="40.2517050" lon="-3.8263870">
        <ele>712.6</ele>
        <time>2019-04-28T15:04:10Z</time>
      </trkpt>
      <trkpt lat="40.2516630" lon="-3.8264270">
        <ele>712.4</ele>
        <time>2019-04-28T15:04:11Z</time>
      </trkpt>
      <trkpt lat="40.2516200" lon="-3.8264700">
        <ele>712.6</ele>
        <time>2019-04-28T15:04:12Z</time>
      </trkpt>
      <trkpt lat="40.2515780" lon="-3.8265120">
        <ele>712.4</ele>
        <time>2019-04-28T15:04:13Z</time>
      </trkpt>
      <trkpt lat="40.2515380" lon="-3.8265480">
        <ele>712.4</ele>
        <time>2019-04-28T15:04:14Z</time>
      </trkpt>
      <trkpt lat="40.2514950" lon="-3.8265920">
        <ele>712.4</ele>
        <time>2019-04-28T15:04:15Z</time>
      </trkpt>
      <trkpt lat="40.2514490" lon="-3.8266370">
        <ele>712.2</ele>
        <time>2019-04-28T15:04:16Z</time>
      </trkpt>
      <trkpt lat="40.2514050" lon="-3.8266830">
        <ele>712.0</ele>
        <time>2019-04-28T15:04:17Z</time>
      </trkpt>
      <trkpt lat="40.2513590" lon="-3.8267310">
        <ele>712.0</ele>
        <time>2019-04-28T15:04:18Z</time>
      </trkpt>
      <trkpt lat="40.2513150" lon="-3.8267700">
        <ele>711.8</ele>
        <time>2019-04-28T15:04:19Z</time>
      </trkpt>
      <trkpt lat="40.2512700" lon="-3.8268300">
        <ele>711.6</ele>
        <time>2019-04-28T15:04:20Z</time>
      </trkpt>
      <trkpt lat="40.2512210" lon="-3.8268850">
        <ele>711.2</ele>
        <time>2019-04-28T15:04:21Z</time>
      </trkpt>
      <trkpt lat="40.2511710" lon="-3.8269350">
        <ele>710.8</ele>
        <time>2019-04-28T15:04:22Z</time>
      </trkpt>
      <trkpt lat="40.2511180" lon="-3.8269890">
        <ele>710.2</ele>
        <time>2019-04-28T15:04:23Z</time>
      </trkpt>
      <trkpt lat="40.2510630" lon="-3.8270460">
        <ele>709.8</ele>
        <time>2019-04-28T15:04:24Z</time>
      </trkpt>
      <trkpt lat="40.2510060" lon="-3.8271050">
        <ele>709.6</ele>
        <time>2019-04-28T15:04:25Z</time>
      </trkpt>
      <trkpt lat="40.2509560" lon="-3.8271570">
        <ele>708.8</ele>
        <time>2019-04-28T15:04:26Z</time>
      </trkpt>
      <trkpt lat="40.2509160" lon="-3.8271890">
        <ele>708.2</ele>
        <time>2019-04-28T15:04:27Z</time>
      </trkpt>
      <trkpt lat="40.2508880" lon="-3.8272130">
        <ele>708.0</ele>
        <time>2019-04-28T15:04:28Z</time>
      </trkpt>
      <trkpt lat="40.2508630" lon="-3.8272360">
        <ele>707.8</ele>
        <time>2019-04-28T15:04:29Z</time>
      </trkpt>
      <trkpt lat="40.2508420" lon="-3.8272570">
        <ele>707.6</ele>
        <time>2019-04-28T15:04:30Z</time>
      </trkpt>
      <trkpt lat="40.2508230" lon="-3.8272730">
        <ele>707.4</ele>
        <time>2019-04-28T15:04:31Z</time>
      </trkpt>
      <trkpt lat="40.2508030" lon="-3.8272820">
        <ele>707.4</ele>
        <time>2019-04-28T15:04:32Z</time>
      </trkpt>
      <trkpt lat="40.2507790" lon="-3.8272820">
        <ele>707.6</ele>
        <time>2019-04-28T15:04:33Z</time>
      </trkpt>
      <trkpt lat="40.2507530" lon="-3.8272750">
        <ele>707.6</ele>
        <time>2019-04-28T15:04:34Z</time>
      </trkpt>
      <trkpt lat="40.2507380" lon="-3.8272520">
        <ele>707.6</ele>
        <time>2019-04-28T15:04:35Z</time>
      </trkpt>
      <trkpt lat="40.2507130" lon="-3.8272180">
        <ele>707.6</ele>
        <time>2019-04-28T15:04:36Z</time>
      </trkpt>
      <trkpt lat="40.2506770" lon="-3.8271760">
        <ele>707.8</ele>
        <time>2019-04-28T15:04:37Z</time>
      </trkpt>
      <trkpt lat="40.2506390" lon="-3.8271280">
        <ele>708.0</ele>
        <time>2019-04-28T15:04:38Z</time>
      </trkpt>
      <trkpt lat="40.2506000" lon="-3.8270790">
        <ele>708.2</ele>
        <time>2019-04-28T15:04:39Z</time>
      </trkpt>
      <trkpt lat="40.2505610" lon="-3.8270310">
        <ele>708.2</ele>
        <time>2019-04-28T15:04:40Z</time>
      </trkpt>
      <trkpt lat="40.2505220" lon="-3.8269790">
        <ele>708.2</ele>
        <time>2019-04-28T15:04:41Z</time>
      </trkpt>
      <trkpt lat="40.2504890" lon="-3.8269270">
        <ele>708.2</ele>
        <time>2019-04-28T15:04:42Z</time>
      </trkpt>
      <trkpt lat="40.2504550" lon="-3.8268750">
        <ele>708.2</ele>
        <time>2019-04-28T15:04:43Z</time>
      </trkpt>
      <trkpt lat="40.2504200" lon="-3.8268150">
        <ele>708.0</ele>
        <time>2019-04-28T15:04:44Z</time>
      </trkpt>
      <trkpt lat="40.2503790" lon="-3.8267570">
        <ele>708.2</ele>
        <time>2019-04-28T15:04:45Z</time>
      </trkpt>
      <trkpt lat="40.2503440" lon="-3.8267070">
        <ele>708.0</ele>
        <time>2019-04-28T15:04:46Z</time>
      </trkpt>
      <trkpt lat="40.2503040" lon="-3.8266510">
        <ele>707.8</ele>
        <time>2019-04-28T15:04:47Z</time>
      </trkpt>
      <trkpt lat="40.2502650" lon="-3.8265940">
        <ele>707.6</ele>
        <time>2019-04-28T15:04:48Z</time>
      </trkpt>
      <trkpt lat="40.2502230" lon="-3.8265340">
        <ele>707.4</ele>
        <time>2019-04-28T15:04:49Z</time>
      </trkpt>
      <trkpt lat="40.2501820" lon="-3.8264800">
        <ele>707.0</ele>
        <time>2019-04-28T15:04:50Z</time>
      </trkpt>
      <trkpt lat="40.2501350" lon="-3.8264190">
        <ele>707.0</ele>
        <time>2019-04-28T15:04:51Z</time>
      </trkpt>
      <trkpt lat="40.2500860" lon="-3.8263580">
        <ele>707.0</ele>
        <time>2019-04-28T15:04:52Z</time>
      </trkpt>
      <trkpt lat="40.2500390" lon="-3.8262940">
        <ele>706.8</ele>
        <time>2019-04-28T15:04:53Z</time>
      </trkpt>
      <trkpt lat="40.2499960" lon="-3.8262290">
        <ele>706.8</ele>
        <time>2019-04-28T15:04:54Z</time>
      </trkpt>
      <trkpt lat="40.2499490" lon="-3.8261680">
        <ele>706.8</ele>
        <time>2019-04-28T15:04:55Z</time>
      </trkpt>
      <trkpt lat="40.2499020" lon="-3.8261100">
        <ele>706.6</ele>
        <time>2019-04-28T15:04:56Z</time>
      </trkpt>
      <trkpt lat="40.2498530" lon="-3.8260510">
        <ele>706.4</ele>
        <time>2019-04-28T15:04:57Z</time>
      </trkpt>
      <trkpt lat="40.2498050" lon="-3.8259930">
        <ele>706.6</ele>
        <time>2019-04-28T15:04:58Z</time>
      </trkpt>
      <trkpt lat="40.2497590" lon="-3.8259390">
        <ele>706.4</ele>
        <time>2019-04-28T15:04:59Z</time>
      </trkpt>
      <trkpt lat="40.2497130" lon="-3.8258810">
        <ele>706.2</ele>
        <time>2019-04-28T15:05:00Z</time>
      </trkpt>
      <trkpt lat="40.2496660" lon="-3.8258270">
        <ele>706.2</ele>
        <time>2019-04-28T15:05:01Z</time>
      </trkpt>
      <trkpt lat="40.2496190" lon="-3.8257700">
        <ele>706.0</ele>
        <time>2019-04-28T15:05:02Z</time>
      </trkpt>
      <trkpt lat="40.2495800" lon="-3.8257170">
        <ele>706.0</ele>
        <time>2019-04-28T15:05:03Z</time>
      </trkpt>
      <trkpt lat="40.2495340" lon="-3.8256610">
        <ele>705.8</ele>
        <time>2019-04-28T15:05:04Z</time>
      </trkpt>
      <trkpt lat="40.2494870" lon="-3.8256010">
        <ele>705.6</ele>
        <time>2019-04-28T15:05:05Z</time>
      </trkpt>
      <trkpt lat="40.2494390" lon="-3.8255380">
        <ele>705.8</ele>
        <time>2019-04-28T15:05:06Z</time>
      </trkpt>
      <trkpt lat="40.2493960" lon="-3.8254820">
        <ele>705.8</ele>
        <time>2019-04-28T15:05:07Z</time>
      </trkpt>
      <trkpt lat="40.2493540" lon="-3.8254270">
        <ele>705.8</ele>
        <time>2019-04-28T15:05:08Z</time>
      </trkpt>
      <trkpt lat="40.2493070" lon="-3.8253710">
        <ele>705.8</ele>
        <time>2019-04-28T15:05:09Z</time>
      </trkpt>
      <trkpt lat="40.2492620" lon="-3.8253160">
        <ele>705.8</ele>
        <time>2019-04-28T15:05:10Z</time>
      </trkpt>
      <trkpt lat="40.2492160" lon="-3.8252620">
        <ele>705.4</ele>
        <time>2019-04-28T15:05:11Z</time>
      </trkpt>
      <trkpt lat="40.2491660" lon="-3.8252080">
        <ele>705.2</ele>
        <time>2019-04-28T15:05:12Z</time>
      </trkpt>
      <trkpt lat="40.2491130" lon="-3.8251480">
        <ele>705.0</ele>
        <time>2019-04-28T15:05:13Z</time>
      </trkpt>
      <trkpt lat="40.2490620" lon="-3.8250870">
        <ele>704.6</ele>
        <time>2019-04-28T15:05:14Z</time>
      </trkpt>
      <trkpt lat="40.2490080" lon="-3.8250230">
        <ele>704.2</ele>
        <time>2019-04-28T15:05:15Z</time>
      </trkpt>
      <trkpt lat="40.2489530" lon="-3.8249560">
        <ele>703.6</ele>
        <time>2019-04-28T15:05:16Z</time>
      </trkpt>
      <trkpt lat="40.2488910" lon="-3.8248830">
        <ele>702.8</ele>
        <time>2019-04-28T15:05:17Z</time>
      </trkpt>
      <trkpt lat="40.2488330" lon="-3.8248090">
        <ele>702.6</ele>
        <time>2019-04-28T15:05:18Z</time>
      </trkpt>
      <trkpt lat="40.2487780" lon="-3.8247380">
        <ele>702.2</ele>
        <time>2019-04-28T15:05:19Z</time>
      </trkpt>
      <trkpt lat="40.2487240" lon="-3.8246670">
        <ele>702.0</ele>
        <time>2019-04-28T15:05:20Z</time>
      </trkpt>
      <trkpt lat="40.2486670" lon="-3.8245940">
        <ele>702.0</ele>
        <time>2019-04-28T15:05:21Z</time>
      </trkpt>
      <trkpt lat="40.2486120" lon="-3.8245210">
        <ele>701.8</ele>
        <time>2019-04-28T15:05:22Z</time>
      </trkpt>
      <trkpt lat="40.2485580" lon="-3.8244470">
        <ele>701.6</ele>
        <time>2019-04-28T15:05:23Z</time>
      </trkpt>
      <trkpt lat="40.2485010" lon="-3.8243740">
        <ele>701.6</ele>
        <time>2019-04-28T15:05:24Z</time>
      </trkpt>
      <trkpt lat="40.2484450" lon="-3.8243040">
        <ele>701.4</ele>
        <time>2019-04-28T15:05:25Z</time>
      </trkpt>
      <trkpt lat="40.2483900" lon="-3.8242360">
        <ele>701.0</ele>
        <time>2019-04-28T15:05:26Z</time>
      </trkpt>
      <trkpt lat="40.2483280" lon="-3.8241730">
        <ele>700.8</ele>
        <time>2019-04-28T15:05:27Z</time>
      </trkpt>
      <trkpt lat="40.2482710" lon="-3.8241060">
        <ele>700.6</ele>
        <time>2019-04-28T15:05:28Z</time>
      </trkpt>
      <trkpt lat="40.2482200" lon="-3.8240480">
        <ele>700.4</ele>
        <time>2019-04-28T15:05:29Z</time>
      </trkpt>
      <trkpt lat="40.2481790" lon="-3.8240020">
        <ele>700.6</ele>
        <time>2019-04-28T15:05:30Z</time>
      </trkpt>
      <trkpt lat="40.2481400" lon="-3.8239510">
        <ele>700.4</ele>
        <time>2019-04-28T15:05:31Z</time>
      </trkpt>
      <trkpt lat="40.2480920" lon="-3.8239140">
        <ele>700.2</ele>
        <time>2019-04-28T15:05:32Z</time>
      </trkpt>
      <trkpt lat="40.2480520" lon="-3.8238730">
        <ele>700.2</ele>
        <time>2019-04-28T15:05:33Z</time>
      </trkpt>
      <trkpt lat="40.2480250" lon="-3.8238370">
        <ele>700.2</ele>
        <time>2019-04-28T15:05:34Z</time>
      </trkpt>
      <trkpt lat="40.2479930" lon="-3.8238090">
        <ele>700.0</ele>
        <time>2019-04-28T15:05:35Z</time>
      </trkpt>
      <trkpt lat="40.2479580" lon="-3.8237960">
        <ele>700.0</ele>
        <time>2019-04-28T15:05:36Z</time>
      </trkpt>
      <trkpt lat="40.2479300" lon="-3.8238080">
        <ele>699.8</ele>
        <time>2019-04-28T15:05:37Z</time>
      </trkpt>
      <trkpt lat="40.2479150" lon="-3.8238430">
        <ele>699.8</ele>
        <time>2019-04-28T15:05:38Z</time>
      </trkpt>
      <trkpt lat="40.2479070" lon="-3.8238800">
        <ele>699.8</ele>
        <time>2019-04-28T15:05:39Z</time>
      </trkpt>
      <trkpt lat="40.2479080" lon="-3.8239040">
        <ele>699.8</ele>
        <time>2019-04-28T15:05:40Z</time>
      </trkpt>
      <trkpt lat="40.2479110" lon="-3.8239180">
        <ele>700.0</ele>
        <time>2019-04-28T15:05:41Z</time>
      </trkpt>
      <trkpt lat="40.2479100" lon="-3.8239380">
        <ele>700.0</ele>
        <time>2019-04-28T15:05:42Z</time>
      </trkpt>
      <trkpt lat="40.2479060" lon="-3.8239530">
        <ele>700.0</ele>
        <time>2019-04-28T15:05:43Z</time>
      </trkpt>
      <trkpt lat="40.2479000" lon="-3.8239830">
        <ele>700.0</ele>
        <time>2019-04-28T15:05:44Z</time>
      </trkpt>
      <trkpt lat="40.2478920" lon="-3.8240160">
        <ele>700.0</ele>
        <time>2019-04-28T15:05:45Z</time>
      </trkpt>
      <trkpt lat="40.2478850" lon="-3.8240450">
        <ele>700.0</ele>
        <time>2019-04-28T15:05:46Z</time>
      </trkpt>
      <trkpt lat="40.2478830" lon="-3.8240700">
        <ele>700.2</ele>
        <time>2019-04-28T15:05:47Z</time>
      </trkpt>
      <trkpt lat="40.2478820" lon="-3.8240880">
        <ele>700.2</ele>
        <time>2019-04-28T15:05:48Z</time>
      </trkpt>
      <trkpt lat="40.2478810" lon="-3.8241110">
        <ele>700.2</ele>
        <time>2019-04-28T15:05:49Z</time>
      </trkpt>
      <trkpt lat="40.2478810" lon="-3.8241290">
        <ele>700.4</ele>
        <time>2019-04-28T15:05:50Z</time>
      </trkpt>
      <trkpt lat="40.2478840" lon="-3.8241560">
        <ele>700.4</ele>
        <time>2019-04-28T15:05:51Z</time>
      </trkpt>
      <trkpt lat="40.2478670" lon="-3.8241950">
        <ele>700.6</ele>
        <time>2019-04-28T15:05:52Z</time>
      </trkpt>
      <trkpt lat="40.2478440" lon="-3.8242210">
        <ele>700.6</ele>
        <time>2019-04-28T15:05:53Z</time>
      </trkpt>
      <trkpt lat="40.2478210" lon="-3.8242340">
        <ele>700.8</ele>
        <time>2019-04-28T15:05:54Z</time>
      </trkpt>
      <trkpt lat="40.2477910" lon="-3.8242810">
        <ele>700.8</ele>
        <time>2019-04-28T15:05:55Z</time>
      </trkpt>
      <trkpt lat="40.2477600" lon="-3.8243090">
        <ele>701.2</ele>
        <time>2019-04-28T15:05:56Z</time>
      </trkpt>
      <trkpt lat="40.2477460" lon="-3.8243300">
        <ele>701.2</ele>
        <time>2019-04-28T15:05:57Z</time>
      </trkpt>
      <trkpt lat="40.2477200" lon="-3.8243570">
        <ele>701.2</ele>
        <time>2019-04-28T15:05:58Z</time>
      </trkpt>
      <trkpt lat="40.2476830" lon="-3.8243950">
        <ele>701.4</ele>
        <time>2019-04-28T15:05:59Z</time>
      </trkpt>
      <trkpt lat="40.2476530" lon="-3.8244390">
        <ele>701.4</ele>
        <time>2019-04-28T15:06:00Z</time>
      </trkpt>
      <trkpt lat="40.2476280" lon="-3.8245030">
        <ele>701.2</ele>
        <time>2019-04-28T15:06:01Z</time>
      </trkpt>
      <trkpt lat="40.2476210" lon="-3.8245510">
        <ele>701.4</ele>
        <time>2019-04-28T15:06:02Z</time>
      </trkpt>
      <trkpt lat="40.2476050" lon="-3.8245870">
        <ele>701.4</ele>
        <time>2019-04-28T15:06:03Z</time>
      </trkpt>
      <trkpt lat="40.2475730" lon="-3.8246160">
        <ele>701.4</ele>
        <time>2019-04-28T15:06:04Z</time>
      </trkpt>
      <trkpt lat="40.2475480" lon="-3.8246280">
        <ele>701.2</ele>
        <time>2019-04-28T15:06:05Z</time>
      </trkpt>
      <trkpt lat="40.2475110" lon="-3.8246250">
        <ele>701.0</ele>
        <time>2019-04-28T15:06:06Z</time>
      </trkpt>
      <trkpt lat="40.2474690" lon="-3.8246130">
        <ele>700.8</ele>
        <time>2019-04-28T15:06:07Z</time>
      </trkpt>
      <trkpt lat="40.2474180" lon="-3.8245910">
        <ele>700.6</ele>
        <time>2019-04-28T15:06:08Z</time>
      </trkpt>
      <trkpt lat="40.2473660" lon="-3.8245580">
        <ele>700.8</ele>
        <time>2019-04-28T15:06:09Z</time>
      </trkpt>
      <trkpt lat="40.2473200" lon="-3.8245210">
        <ele>701.0</ele>
        <time>2019-04-28T15:06:10Z</time>
      </trkpt>
      <trkpt lat="40.2472730" lon="-3.8244750">
        <ele>701.0</ele>
        <time>2019-04-28T15:06:11Z</time>
      </trkpt>
      <trkpt lat="40.2472210" lon="-3.8244170">
        <ele>700.8</ele>
        <time>2019-04-28T15:06:12Z</time>
      </trkpt>
      <trkpt lat="40.2471720" lon="-3.8243640">
        <ele>700.6</ele>
        <time>2019-04-28T15:06:13Z</time>
      </trkpt>
      <trkpt lat="40.2471220" lon="-3.8243080">
        <ele>700.6</ele>
        <time>2019-04-28T15:06:14Z</time>
      </trkpt>
      <trkpt lat="40.2470720" lon="-3.8242490">
        <ele>700.6</ele>
        <time>2019-04-28T15:06:15Z</time>
      </trkpt>
      <trkpt lat="40.2470240" lon="-3.8241950">
        <ele>700.8</ele>
        <time>2019-04-28T15:06:16Z</time>
      </trkpt>
      <trkpt lat="40.2469750" lon="-3.8241350">
        <ele>700.8</ele>
        <time>2019-04-28T15:06:17Z</time>
      </trkpt>
      <trkpt lat="40.2469290" lon="-3.8240750">
        <ele>700.8</ele>
        <time>2019-04-28T15:06:18Z</time>
      </trkpt>
      <trkpt lat="40.2468870" lon="-3.8240130">
        <ele>700.8</ele>
        <time>2019-04-28T15:06:19Z</time>
      </trkpt>
      <trkpt lat="40.2468470" lon="-3.8239500">
        <ele>700.8</ele>
        <time>2019-04-28T15:06:20Z</time>
      </trkpt>
      <trkpt lat="40.2468070" lon="-3.8238870">
        <ele>700.6</ele>
        <time>2019-04-28T15:06:21Z</time>
      </trkpt>
      <trkpt lat="40.2467650" lon="-3.8238160">
        <ele>700.4</ele>
        <time>2019-04-28T15:06:22Z</time>
      </trkpt>
      <trkpt lat="40.2467210" lon="-3.8237550">
        <ele>700.4</ele>
        <time>2019-04-28T15:06:23Z</time>
      </trkpt>
      <trkpt lat="40.2466770" lon="-3.8236930">
        <ele>700.6</ele>
        <time>2019-04-28T15:06:24Z</time>
      </trkpt>
      <trkpt lat="40.2466350" lon="-3.8236330">
        <ele>700.8</ele>
        <time>2019-04-28T15:06:25Z</time>
      </trkpt>
      <trkpt lat="40.2465950" lon="-3.8235730">
        <ele>700.6</ele>
        <time>2019-04-28T15:06:26Z</time>
      </trkpt>
      <trkpt lat="40.2465580" lon="-3.8235140">
        <ele>700.6</ele>
        <time>2019-04-28T15:06:27Z</time>
      </trkpt>
      <trkpt lat="40.2465210" lon="-3.8234550">
        <ele>700.4</ele>
        <time>2019-04-28T15:06:28Z</time>
      </trkpt>
      <trkpt lat="40.2464860" lon="-3.8233970">
        <ele>700.4</ele>
        <time>2019-04-28T15:06:29Z</time>
      </trkpt>
      <trkpt lat="40.2464530" lon="-3.8233400">
        <ele>700.4</ele>
        <time>2019-04-28T15:06:30Z</time>
      </trkpt>
      <trkpt lat="40.2464180" lon="-3.8232840">
        <ele>700.4</ele>
        <time>2019-04-28T15:06:31Z</time>
      </trkpt>
      <trkpt lat="40.2463820" lon="-3.8232300">
        <ele>700.4</ele>
        <time>2019-04-28T15:06:32Z</time>
      </trkpt>
      <trkpt lat="40.2463460" lon="-3.8231740">
        <ele>700.4</ele>
        <time>2019-04-28T15:06:33Z</time>
      </trkpt>
      <trkpt lat="40.2463080" lon="-3.8231190">
        <ele>700.4</ele>
        <time>2019-04-28T15:06:34Z</time>
      </trkpt>
      <trkpt lat="40.2462670" lon="-3.8230650">
        <ele>700.4</ele>
        <time>2019-04-28T15:06:35Z</time>
      </trkpt>
      <trkpt lat="40.2462250" lon="-3.8230120">
        <ele>700.4</ele>
        <time>2019-04-28T15:06:36Z</time>
      </trkpt>
      <trkpt lat="40.2461810" lon="-3.8229620">
        <ele>700.4</ele>
        <time>2019-04-28T15:06:37Z</time>
      </trkpt>
      <trkpt lat="40.2461340" lon="-3.8229150">
        <ele>700.2</ele>
        <time>2019-04-28T15:06:38Z</time>
      </trkpt>
      <trkpt lat="40.2460860" lon="-3.8228680">
        <ele>700.2</ele>
        <time>2019-04-28T15:06:39Z</time>
      </trkpt>
      <trkpt lat="40.2460410" lon="-3.8228190">
        <ele>700.4</ele>
        <time>2019-04-28T15:06:40Z</time>
      </trkpt>
      <trkpt lat="40.2459970" lon="-3.8227700">
        <ele>700.2</ele>
        <time>2019-04-28T15:06:41Z</time>
      </trkpt>
      <trkpt lat="40.2459540" lon="-3.8227220">
        <ele>700.4</ele>
        <time>2019-04-28T15:06:42Z</time>
      </trkpt>
      <trkpt lat="40.2459080" lon="-3.8226760">
        <ele>700.2</ele>
        <time>2019-04-28T15:06:43Z</time>
      </trkpt>
      <trkpt lat="40.2458640" lon="-3.8226280">
        <ele>700.4</ele>
        <time>2019-04-28T15:06:44Z</time>
      </trkpt>
      <trkpt lat="40.2458220" lon="-3.8225740">
        <ele>700.6</ele>
        <time>2019-04-28T15:06:45Z</time>
      </trkpt>
      <trkpt lat="40.2457800" lon="-3.8225180">
        <ele>700.6</ele>
        <time>2019-04-28T15:06:46Z</time>
      </trkpt>
      <trkpt lat="40.2457380" lon="-3.8224620">
        <ele>700.6</ele>
        <time>2019-04-28T15:06:47Z</time>
      </trkpt>
      <trkpt lat="40.2456940" lon="-3.8224070">
        <ele>700.8</ele>
        <time>2019-04-28T15:06:48Z</time>
      </trkpt>
      <trkpt lat="40.2456480" lon="-3.8223530">
        <ele>700.8</ele>
        <time>2019-04-28T15:06:49Z</time>
      </trkpt>
      <trkpt lat="40.2456020" lon="-3.8223000">
        <ele>701.0</ele>
        <time>2019-04-28T15:06:50Z</time>
      </trkpt>
      <trkpt lat="40.2455560" lon="-3.8222480">
        <ele>701.2</ele>
        <time>2019-04-28T15:06:51Z</time>
      </trkpt>
      <trkpt lat="40.2455100" lon="-3.8221980">
        <ele>701.2</ele>
        <time>2019-04-28T15:06:52Z</time>
      </trkpt>
      <trkpt lat="40.2454640" lon="-3.8221490">
        <ele>701.4</ele>
        <time>2019-04-28T15:06:53Z</time>
      </trkpt>
      <trkpt lat="40.2454190" lon="-3.8221000">
        <ele>701.4</ele>
        <time>2019-04-28T15:06:54Z</time>
      </trkpt>
      <trkpt lat="40.2453760" lon="-3.8220510">
        <ele>701.6</ele>
        <time>2019-04-28T15:06:55Z</time>
      </trkpt>
      <trkpt lat="40.2453320" lon="-3.8220030">
        <ele>701.8</ele>
        <time>2019-04-28T15:06:56Z</time>
      </trkpt>
      <trkpt lat="40.2452890" lon="-3.8219590">
        <ele>701.8</ele>
        <time>2019-04-28T15:06:57Z</time>
      </trkpt>
      <trkpt lat="40.2452470" lon="-3.8219150">
        <ele>702.0</ele>
        <time>2019-04-28T15:06:58Z</time>
      </trkpt>
      <trkpt lat="40.2452070" lon="-3.8218770">
        <ele>702.2</ele>
        <time>2019-04-28T15:06:59Z</time>
      </trkpt>
      <trkpt lat="40.2451680" lon="-3.8218380">
        <ele>702.2</ele>
        <time>2019-04-28T15:07:00Z</time>
      </trkpt>
      <trkpt lat="40.2451310" lon="-3.8218010">
        <ele>702.2</ele>
        <time>2019-04-28T15:07:01Z</time>
      </trkpt>
      <trkpt lat="40.2450920" lon="-3.8217620">
        <ele>702.2</ele>
        <time>2019-04-28T15:07:02Z</time>
      </trkpt>
      <trkpt lat="40.2450540" lon="-3.8217250">
        <ele>702.4</ele>
        <time>2019-04-28T15:07:03Z</time>
      </trkpt>
      <trkpt lat="40.2450170" lon="-3.8216870">
        <ele>702.6</ele>
        <time>2019-04-28T15:07:04Z</time>
      </trkpt>
      <trkpt lat="40.2449810" lon="-3.8216450">
        <ele>702.8</ele>
        <time>2019-04-28T15:07:05Z</time>
      </trkpt>
      <trkpt lat="40.2449430" lon="-3.8216050">
        <ele>702.8</ele>
        <time>2019-04-28T15:07:06Z</time>
      </trkpt>
      <trkpt lat="40.2449040" lon="-3.8215660">
        <ele>702.8</ele>
        <time>2019-04-28T15:07:07Z</time>
      </trkpt>
      <trkpt lat="40.2448660" lon="-3.8215260">
        <ele>702.8</ele>
        <time>2019-04-28T15:07:08Z</time>
      </trkpt>
      <trkpt lat="40.2448280" lon="-3.8214870">
        <ele>702.6</ele>
        <time>2019-04-28T15:07:09Z</time>
      </trkpt>
      <trkpt lat="40.2447900" lon="-3.8214490">
        <ele>702.4</ele>
        <time>2019-04-28T15:07:10Z</time>
      </trkpt>
      <trkpt lat="40.2447540" lon="-3.8214100">
        <ele>702.4</ele>
        <time>2019-04-28T15:07:11Z</time>
      </trkpt>
      <trkpt lat="40.2447150" lon="-3.8213730">
        <ele>702.4</ele>
        <time>2019-04-28T15:07:12Z</time>
      </trkpt>
      <trkpt lat="40.2446770" lon="-3.8213350">
        <ele>702.4</ele>
        <time>2019-04-28T15:07:13Z</time>
      </trkpt>
      <trkpt lat="40.2446390" lon="-3.8212960">
        <ele>702.4</ele>
        <time>2019-04-28T15:07:14Z</time>
      </trkpt>
      <trkpt lat="40.2446020" lon="-3.8212590">
        <ele>702.4</ele>
        <time>2019-04-28T15:07:15Z</time>
      </trkpt>
      <trkpt lat="40.2445620" lon="-3.8212170">
        <ele>702.4</ele>
        <time>2019-04-28T15:07:16Z</time>
      </trkpt>
      <trkpt lat="40.2445250" lon="-3.8211770">
        <ele>702.4</ele>
        <time>2019-04-28T15:07:17Z</time>
      </trkpt>
      <trkpt lat="40.2444870" lon="-3.8211360">
        <ele>702.2</ele>
        <time>2019-04-28T15:07:18Z</time>
      </trkpt>
      <trkpt lat="40.2444480" lon="-3.8210950">
        <ele>702.2</ele>
        <time>2019-04-28T15:07:19Z</time>
      </trkpt>
      <trkpt lat="40.2444090" lon="-3.8210520">
        <ele>702.0</ele>
        <time>2019-04-28T15:07:20Z</time>
      </trkpt>
      <trkpt lat="40.2443700" lon="-3.8210090">
        <ele>702.0</ele>
        <time>2019-04-28T15:07:21Z</time>
      </trkpt>
      <trkpt lat="40.2443280" lon="-3.8209630">
        <ele>702.0</ele>
        <time>2019-04-28T15:07:22Z</time>
      </trkpt>
      <trkpt lat="40.2442860" lon="-3.8209160">
        <ele>701.8</ele>
        <time>2019-04-28T15:07:23Z</time>
      </trkpt>
      <trkpt lat="40.2442440" lon="-3.8208670">
        <ele>701.6</ele>
        <time>2019-04-28T15:07:24Z</time>
      </trkpt>
      <trkpt lat="40.2442010" lon="-3.8208200">
        <ele>701.6</ele>
        <time>2019-04-28T15:07:25Z</time>
      </trkpt>
      <trkpt lat="40.2441570" lon="-3.8207720">
        <ele>701.2</ele>
        <time>2019-04-28T15:07:26Z</time>
      </trkpt>
      <trkpt lat="40.2441140" lon="-3.8207240">
        <ele>701.2</ele>
        <time>2019-04-28T15:07:27Z</time>
      </trkpt>
      <trkpt lat="40.2440710" lon="-3.8206750">
        <ele>701.0</ele>
        <time>2019-04-28T15:07:28Z</time>
      </trkpt>
      <trkpt lat="40.2440280" lon="-3.8206270">
        <ele>701.0</ele>
        <time>2019-04-28T15:07:29Z</time>
      </trkpt>
      <trkpt lat="40.2439860" lon="-3.8205790">
        <ele>700.8</ele>
        <time>2019-04-28T15:07:30Z</time>
      </trkpt>
      <trkpt lat="40.2439460" lon="-3.8205340">
        <ele>700.8</ele>
        <time>2019-04-28T15:07:31Z</time>
      </trkpt>
      <trkpt lat="40.2439050" lon="-3.8204860">
        <ele>700.6</ele>
        <time>2019-04-28T15:07:32Z</time>
      </trkpt>
      <trkpt lat="40.2438600" lon="-3.8204400">
        <ele>700.6</ele>
        <time>2019-04-28T15:07:33Z</time>
      </trkpt>
      <trkpt lat="40.2438140" lon="-3.8203920">
        <ele>700.6</ele>
        <time>2019-04-28T15:07:34Z</time>
      </trkpt>
      <trkpt lat="40.2437670" lon="-3.8203430">
        <ele>700.6</ele>
        <time>2019-04-28T15:07:35Z</time>
      </trkpt>
      <trkpt lat="40.2437190" lon="-3.8202950">
        <ele>700.6</ele>
        <time>2019-04-28T15:07:36Z</time>
      </trkpt>
      <trkpt lat="40.2436710" lon="-3.8202460">
        <ele>700.4</ele>
        <time>2019-04-28T15:07:37Z</time>
      </trkpt>
      <trkpt lat="40.2436230" lon="-3.8201990">
        <ele>700.4</ele>
        <time>2019-04-28T15:07:38Z</time>
      </trkpt>
      <trkpt lat="40.2435750" lon="-3.8201510">
        <ele>700.2</ele>
        <time>2019-04-28T15:07:39Z</time>
      </trkpt>
      <trkpt lat="40.2435280" lon="-3.8201030">
        <ele>700.2</ele>
        <time>2019-04-28T15:07:40Z</time>
      </trkpt>
      <trkpt lat="40.2434820" lon="-3.8200580">
        <ele>700.0</ele>
        <time>2019-04-28T15:07:41Z</time>
      </trkpt>
      <trkpt lat="40.2434360" lon="-3.8200120">
        <ele>700.0</ele>
        <time>2019-04-28T15:07:42Z</time>
      </trkpt>
      <trkpt lat="40.2433900" lon="-3.8199630">
        <ele>699.8</ele>
        <time>2019-04-28T15:07:43Z</time>
      </trkpt>
      <trkpt lat="40.2433450" lon="-3.8199140">
        <ele>699.6</ele>
        <time>2019-04-28T15:07:44Z</time>
      </trkpt>
      <trkpt lat="40.2432980" lon="-3.8198620">
        <ele>699.6</ele>
        <time>2019-04-28T15:07:45Z</time>
      </trkpt>
      <trkpt lat="40.2432540" lon="-3.8198100">
        <ele>699.6</ele>
        <time>2019-04-28T15:07:46Z</time>
      </trkpt>
      <trkpt lat="40.2432110" lon="-3.8197560">
        <ele>699.4</ele>
        <time>2019-04-28T15:07:47Z</time>
      </trkpt>
      <trkpt lat="40.2431650" lon="-3.8197030">
        <ele>699.2</ele>
        <time>2019-04-28T15:07:48Z</time>
      </trkpt>
      <trkpt lat="40.2431180" lon="-3.8196510">
        <ele>699.2</ele>
        <time>2019-04-28T15:07:49Z</time>
      </trkpt>
      <trkpt lat="40.2430730" lon="-3.8195990">
        <ele>699.0</ele>
        <time>2019-04-28T15:07:50Z</time>
      </trkpt>
      <trkpt lat="40.2430270" lon="-3.8195460">
        <ele>698.8</ele>
        <time>2019-04-28T15:07:51Z</time>
      </trkpt>
      <trkpt lat="40.2429800" lon="-3.8194950">
        <ele>698.8</ele>
        <time>2019-04-28T15:07:52Z</time>
      </trkpt>
      <trkpt lat="40.2429330" lon="-3.8194440">
        <ele>698.6</ele>
        <time>2019-04-28T15:07:53Z</time>
      </trkpt>
      <trkpt lat="40.2428890" lon="-3.8193910">
        <ele>698.6</ele>
        <time>2019-04-28T15:07:54Z</time>
      </trkpt>
      <trkpt lat="40.2428430" lon="-3.8193360">
        <ele>698.6</ele>
        <time>2019-04-28T15:07:55Z</time>
      </trkpt>
      <trkpt lat="40.2427970" lon="-3.8192830">
        <ele>698.6</ele>
        <time>2019-04-28T15:07:56Z</time>
      </trkpt>
      <trkpt lat="40.2427500" lon="-3.8192310">
        <ele>698.6</ele>
        <time>2019-04-28T15:07:57Z</time>
      </trkpt>
      <trkpt lat="40.2427010" lon="-3.8191790">
        <ele>698.6</ele>
        <time>2019-04-28T15:07:58Z</time>
      </trkpt>
      <trkpt lat="40.2426530" lon="-3.8191270">
        <ele>698.6</ele>
        <time>2019-04-28T15:07:59Z</time>
      </trkpt>
      <trkpt lat="40.2426070" lon="-3.8190730">
        <ele>698.6</ele>
        <time>2019-04-28T15:08:00Z</time>
      </trkpt>
      <trkpt lat="40.2425620" lon="-3.8190200">
        <ele>698.6</ele>
        <time>2019-04-28T15:08:01Z</time>
      </trkpt>
      <trkpt lat="40.2425180" lon="-3.8189650">
        <ele>698.4</ele>
        <time>2019-04-28T15:08:02Z</time>
      </trkpt>
      <trkpt lat="40.2424750" lon="-3.8189140">
        <ele>698.4</ele>
        <time>2019-04-28T15:08:03Z</time>
      </trkpt>
      <trkpt lat="40.2424300" lon="-3.8188620">
        <ele>698.4</ele>
        <time>2019-04-28T15:08:04Z</time>
      </trkpt>
      <trkpt lat="40.2423850" lon="-3.8188070">
        <ele>698.4</ele>
        <time>2019-04-28T15:08:05Z</time>
      </trkpt>
      <trkpt lat="40.2423420" lon="-3.8187500">
        <ele>698.4</ele>
        <time>2019-04-28T15:08:06Z</time>
      </trkpt>
      <trkpt lat="40.2422970" lon="-3.8186930">
        <ele>698.4</ele>
        <time>2019-04-28T15:08:07Z</time>
      </trkpt>
      <trkpt lat="40.2422530" lon="-3.8186330">
        <ele>698.4</ele>
        <time>2019-04-28T15:08:08Z</time>
      </trkpt>
      <trkpt lat="40.2422120" lon="-3.8185700">
        <ele>698.4</ele>
        <time>2019-04-28T15:08:09Z</time>
      </trkpt>
      <trkpt lat="40.2421720" lon="-3.8185080">
        <ele>698.4</ele>
        <time>2019-04-28T15:08:10Z</time>
      </trkpt>
      <trkpt lat="40.2421330" lon="-3.8184440">
        <ele>698.4</ele>
        <time>2019-04-28T15:08:11Z</time>
      </trkpt>
      <trkpt lat="40.2420940" lon="-3.8183810">
        <ele>698.4</ele>
        <time>2019-04-28T15:08:12Z</time>
      </trkpt>
      <trkpt lat="40.2420550" lon="-3.8183160">
        <ele>698.4</ele>
        <time>2019-04-28T15:08:13Z</time>
      </trkpt>
      <trkpt lat="40.2420160" lon="-3.8182510">
        <ele>698.4</ele>
        <time>2019-04-28T15:08:14Z</time>
      </trkpt>
      <trkpt lat="40.2419760" lon="-3.8181860">
        <ele>698.4</ele>
        <time>2019-04-28T15:08:15Z</time>
      </trkpt>
      <trkpt lat="40.2419380" lon="-3.8181190">
        <ele>698.2</ele>
        <time>2019-04-28T15:08:16Z</time>
      </trkpt>
      <trkpt lat="40.2418990" lon="-3.8180520">
        <ele>698.4</ele>
        <time>2019-04-28T15:08:17Z</time>
      </trkpt>
      <trkpt lat="40.2418590" lon="-3.8179850">
        <ele>698.2</ele>
        <time>2019-04-28T15:08:18Z</time>
      </trkpt>
      <trkpt lat="40.2418160" lon="-3.8179210">
        <ele>698.2</ele>
        <time>2019-04-28T15:08:19Z</time>
      </trkpt>
      <trkpt lat="40.2417730" lon="-3.8178590">
        <ele>698.2</ele>
        <time>2019-04-28T15:08:20Z</time>
      </trkpt>
      <trkpt lat="40.2417300" lon="-3.8177960">
        <ele>698.2</ele>
        <time>2019-04-28T15:08:21Z</time>
      </trkpt>
      <trkpt lat="40.2416880" lon="-3.8177370">
        <ele>698.2</ele>
        <time>2019-04-28T15:08:22Z</time>
      </trkpt>
      <trkpt lat="40.2416430" lon="-3.8176790">
        <ele>698.2</ele>
        <time>2019-04-28T15:08:23Z</time>
      </trkpt>
      <trkpt lat="40.2415970" lon="-3.8176210">
        <ele>698.0</ele>
        <time>2019-04-28T15:08:24Z</time>
      </trkpt>
      <trkpt lat="40.2415500" lon="-3.8175640">
        <ele>698.0</ele>
        <time>2019-04-28T15:08:25Z</time>
      </trkpt>
      <trkpt lat="40.2415040" lon="-3.8175060">
        <ele>697.8</ele>
        <time>2019-04-28T15:08:26Z</time>
      </trkpt>
      <trkpt lat="40.2414580" lon="-3.8174470">
        <ele>697.8</ele>
        <time>2019-04-28T15:08:27Z</time>
      </trkpt>
      <trkpt lat="40.2414140" lon="-3.8173860">
        <ele>697.8</ele>
        <time>2019-04-28T15:08:28Z</time>
      </trkpt>
      <trkpt lat="40.2413680" lon="-3.8173240">
        <ele>697.6</ele>
        <time>2019-04-28T15:08:29Z</time>
      </trkpt>
      <trkpt lat="40.2413230" lon="-3.8172620">
        <ele>697.4</ele>
        <time>2019-04-28T15:08:30Z</time>
      </trkpt>
      <trkpt lat="40.2412780" lon="-3.8172020">
        <ele>697.2</ele>
        <time>2019-04-28T15:08:31Z</time>
      </trkpt>
      <trkpt lat="40.2412330" lon="-3.8171430">
        <ele>696.8</ele>
        <time>2019-04-28T15:08:32Z</time>
      </trkpt>
      <trkpt lat="40.2411880" lon="-3.8170840">
        <ele>696.8</ele>
        <time>2019-04-28T15:08:33Z</time>
      </trkpt>
      <trkpt lat="40.2411420" lon="-3.8170270">
        <ele>696.8</ele>
        <time>2019-04-28T15:08:34Z</time>
      </trkpt>
      <trkpt lat="40.2410960" lon="-3.8169700">
        <ele>696.8</ele>
        <time>2019-04-28T15:08:35Z</time>
      </trkpt>
      <trkpt lat="40.2410520" lon="-3.8169090">
        <ele>696.6</ele>
        <time>2019-04-28T15:08:36Z</time>
      </trkpt>
      <trkpt lat="40.2410080" lon="-3.8168490">
        <ele>696.4</ele>
        <time>2019-04-28T15:08:37Z</time>
      </trkpt>
      <trkpt lat="40.2409640" lon="-3.8167900">
        <ele>696.2</ele>
        <time>2019-04-28T15:08:38Z</time>
      </trkpt>
      <trkpt lat="40.2409210" lon="-3.8167330">
        <ele>696.0</ele>
        <time>2019-04-28T15:08:39Z</time>
      </trkpt>
      <trkpt lat="40.2408770" lon="-3.8166760">
        <ele>695.8</ele>
        <time>2019-04-28T15:08:40Z</time>
      </trkpt>
      <trkpt lat="40.2408330" lon="-3.8166190">
        <ele>695.8</ele>
        <time>2019-04-28T15:08:41Z</time>
      </trkpt>
      <trkpt lat="40.2407880" lon="-3.8165630">
        <ele>695.6</ele>
        <time>2019-04-28T15:08:42Z</time>
      </trkpt>
      <trkpt lat="40.2407420" lon="-3.8165090">
        <ele>695.4</ele>
        <time>2019-04-28T15:08:43Z</time>
      </trkpt>
      <trkpt lat="40.2406960" lon="-3.8164520">
        <ele>695.2</ele>
        <time>2019-04-28T15:08:44Z</time>
      </trkpt>
      <trkpt lat="40.2406490" lon="-3.8163930">
        <ele>695.2</ele>
        <time>2019-04-28T15:08:45Z</time>
      </trkpt>
      <trkpt lat="40.2406000" lon="-3.8163330">
        <ele>695.0</ele>
        <time>2019-04-28T15:08:46Z</time>
      </trkpt>
      <trkpt lat="40.2405500" lon="-3.8162740">
        <ele>694.8</ele>
        <time>2019-04-28T15:08:47Z</time>
      </trkpt>
      <trkpt lat="40.2405030" lon="-3.8162190">
        <ele>694.6</ele>
        <time>2019-04-28T15:08:48Z</time>
      </trkpt>
      <trkpt lat="40.2404580" lon="-3.8161650">
        <ele>694.4</ele>
        <time>2019-04-28T15:08:49Z</time>
      </trkpt>
      <trkpt lat="40.2404140" lon="-3.8161130">
        <ele>694.4</ele>
        <time>2019-04-28T15:08:50Z</time>
      </trkpt>
      <trkpt lat="40.2403700" lon="-3.8160550">
        <ele>694.2</ele>
        <time>2019-04-28T15:08:51Z</time>
      </trkpt>
      <trkpt lat="40.2403240" lon="-3.8159960">
        <ele>693.8</ele>
        <time>2019-04-28T15:08:52Z</time>
      </trkpt>
      <trkpt lat="40.2402770" lon="-3.8159360">
        <ele>693.8</ele>
        <time>2019-04-28T15:08:53Z</time>
      </trkpt>
      <trkpt lat="40.2402300" lon="-3.8158770">
        <ele>693.4</ele>
        <time>2019-04-28T15:08:54Z</time>
      </trkpt>
      <trkpt lat="40.2401830" lon="-3.8158130">
        <ele>693.2</ele>
        <time>2019-04-28T15:08:55Z</time>
      </trkpt>
      <trkpt lat="40.2401350" lon="-3.8157510">
        <ele>693.2</ele>
        <time>2019-04-28T15:08:56Z</time>
      </trkpt>
      <trkpt lat="40.2400870" lon="-3.8156890">
        <ele>693.0</ele>
        <time>2019-04-28T15:08:57Z</time>
      </trkpt>
      <trkpt lat="40.2400400" lon="-3.8156270">
        <ele>692.8</ele>
        <time>2019-04-28T15:08:58Z</time>
      </trkpt>
      <trkpt lat="40.2399930" lon="-3.8155660">
        <ele>693.0</ele>
        <time>2019-04-28T15:08:59Z</time>
      </trkpt>
      <trkpt lat="40.2399450" lon="-3.8155080">
        <ele>692.6</ele>
        <time>2019-04-28T15:09:00Z</time>
      </trkpt>
      <trkpt lat="40.2398970" lon="-3.8154490">
        <ele>692.4</ele>
        <time>2019-04-28T15:09:01Z</time>
      </trkpt>
      <trkpt lat="40.2398500" lon="-3.8153890">
        <ele>692.2</ele>
        <time>2019-04-28T15:09:02Z</time>
      </trkpt>
      <trkpt lat="40.2398020" lon="-3.8153280">
        <ele>692.2</ele>
        <time>2019-04-28T15:09:03Z</time>
      </trkpt>
      <trkpt lat="40.2397550" lon="-3.8152670">
        <ele>691.8</ele>
        <time>2019-04-28T15:09:04Z</time>
      </trkpt>
      <trkpt lat="40.2397080" lon="-3.8152070">
        <ele>691.6</ele>
        <time>2019-04-28T15:09:05Z</time>
      </trkpt>
      <trkpt lat="40.2396610" lon="-3.8151480">
        <ele>691.4</ele>
        <time>2019-04-28T15:09:06Z</time>
      </trkpt>
      <trkpt lat="40.2396140" lon="-3.8150870">
        <ele>691.0</ele>
        <time>2019-04-28T15:09:07Z</time>
      </trkpt>
      <trkpt lat="40.2395670" lon="-3.8150250">
        <ele>690.8</ele>
        <time>2019-04-28T15:09:08Z</time>
      </trkpt>
      <trkpt lat="40.2395170" lon="-3.8149630">
        <ele>690.4</ele>
        <time>2019-04-28T15:09:09Z</time>
      </trkpt>
      <trkpt lat="40.2394650" lon="-3.8149010">
        <ele>690.2</ele>
        <time>2019-04-28T15:09:10Z</time>
      </trkpt>
      <trkpt lat="40.2394110" lon="-3.8148380">
        <ele>690.0</ele>
        <time>2019-04-28T15:09:11Z</time>
      </trkpt>
      <trkpt lat="40.2393560" lon="-3.8147770">
        <ele>689.6</ele>
        <time>2019-04-28T15:09:12Z</time>
      </trkpt>
      <trkpt lat="40.2393000" lon="-3.8147150">
        <ele>689.4</ele>
        <time>2019-04-28T15:09:13Z</time>
      </trkpt>
      <trkpt lat="40.2392460" lon="-3.8146540">
        <ele>689.2</ele>
        <time>2019-04-28T15:09:14Z</time>
      </trkpt>
      <trkpt lat="40.2391920" lon="-3.8145940">
        <ele>688.8</ele>
        <time>2019-04-28T15:09:15Z</time>
      </trkpt>
      <trkpt lat="40.2391390" lon="-3.8145370">
        <ele>688.8</ele>
        <time>2019-04-28T15:09:16Z</time>
      </trkpt>
      <trkpt lat="40.2390880" lon="-3.8144820">
        <ele>688.8</ele>
        <time>2019-04-28T15:09:17Z</time>
      </trkpt>
      <trkpt lat="40.2390400" lon="-3.8144280">
        <ele>688.6</ele>
        <time>2019-04-28T15:09:18Z</time>
      </trkpt>
      <trkpt lat="40.2389940" lon="-3.8143740">
        <ele>688.4</ele>
        <time>2019-04-28T15:09:19Z</time>
      </trkpt>
      <trkpt lat="40.2389470" lon="-3.8143200">
        <ele>688.4</ele>
        <time>2019-04-28T15:09:20Z</time>
      </trkpt>
      <trkpt lat="40.2389020" lon="-3.8142650">
        <ele>688.2</ele>
        <time>2019-04-28T15:09:21Z</time>
      </trkpt>
      <trkpt lat="40.2388560" lon="-3.8142120">
        <ele>688.0</ele>
        <time>2019-04-28T15:09:22Z</time>
      </trkpt>
      <trkpt lat="40.2388120" lon="-3.8141580">
        <ele>688.0</ele>
        <time>2019-04-28T15:09:23Z</time>
      </trkpt>
      <trkpt lat="40.2387670" lon="-3.8141060">
        <ele>688.0</ele>
        <time>2019-04-28T15:09:24Z</time>
      </trkpt>
      <trkpt lat="40.2387210" lon="-3.8140570">
        <ele>688.0</ele>
        <time>2019-04-28T15:09:25Z</time>
      </trkpt>
      <trkpt lat="40.2386740" lon="-3.8140070">
        <ele>688.0</ele>
        <time>2019-04-28T15:09:26Z</time>
      </trkpt>
      <trkpt lat="40.2386290" lon="-3.8139560">
        <ele>687.8</ele>
        <time>2019-04-28T15:09:27Z</time>
      </trkpt>
      <trkpt lat="40.2385830" lon="-3.8139020">
        <ele>687.8</ele>
        <time>2019-04-28T15:09:28Z</time>
      </trkpt>
      <trkpt lat="40.2385370" lon="-3.8138480">
        <ele>687.6</ele>
        <time>2019-04-28T15:09:29Z</time>
      </trkpt>
      <trkpt lat="40.2384920" lon="-3.8137950">
        <ele>687.8</ele>
        <time>2019-04-28T15:09:30Z</time>
      </trkpt>
      <trkpt lat="40.2384480" lon="-3.8137430">
        <ele>687.6</ele>
        <time>2019-04-28T15:09:31Z</time>
      </trkpt>
      <trkpt lat="40.2384060" lon="-3.8136860">
        <ele>687.6</ele>
        <time>2019-04-28T15:09:32Z</time>
      </trkpt>
      <trkpt lat="40.2383640" lon="-3.8136260">
        <ele>687.4</ele>
        <time>2019-04-28T15:09:33Z</time>
      </trkpt>
      <trkpt lat="40.2383210" lon="-3.8135630">
        <ele>687.4</ele>
        <time>2019-04-28T15:09:34Z</time>
      </trkpt>
      <trkpt lat="40.2382780" lon="-3.8135000">
        <ele>687.2</ele>
        <time>2019-04-28T15:09:35Z</time>
      </trkpt>
      <trkpt lat="40.2382360" lon="-3.8134360">
        <ele>687.2</ele>
        <time>2019-04-28T15:09:36Z</time>
      </trkpt>
      <trkpt lat="40.2381940" lon="-3.8133710">
        <ele>687.2</ele>
        <time>2019-04-28T15:09:37Z</time>
      </trkpt>
      <trkpt lat="40.2381500" lon="-3.8133070">
        <ele>687.0</ele>
        <time>2019-04-28T15:09:38Z</time>
      </trkpt>
      <trkpt lat="40.2381070" lon="-3.8132430">
        <ele>687.2</ele>
        <time>2019-04-28T15:09:39Z</time>
      </trkpt>
      <trkpt lat="40.2380630" lon="-3.8131790">
        <ele>687.2</ele>
        <time>2019-04-28T15:09:40Z</time>
      </trkpt>
      <trkpt lat="40.2380160" lon="-3.8131170">
        <ele>687.0</ele>
        <time>2019-04-28T15:09:41Z</time>
      </trkpt>
      <trkpt lat="40.2379680" lon="-3.8130560">
        <ele>687.0</ele>
        <time>2019-04-28T15:09:42Z</time>
      </trkpt>
      <trkpt lat="40.2379200" lon="-3.8129940">
        <ele>687.0</ele>
        <time>2019-04-28T15:09:43Z</time>
      </trkpt>
      <trkpt lat="40.2378730" lon="-3.8129310">
        <ele>687.0</ele>
        <time>2019-04-28T15:09:44Z</time>
      </trkpt>
      <trkpt lat="40.2378250" lon="-3.8128670">
        <ele>686.8</ele>
        <time>2019-04-28T15:09:45Z</time>
      </trkpt>
      <trkpt lat="40.2377760" lon="-3.8128040">
        <ele>687.0</ele>
        <time>2019-04-28T15:09:46Z</time>
      </trkpt>
      <trkpt lat="40.2377240" lon="-3.8127430">
        <ele>686.8</ele>
        <time>2019-04-28T15:09:47Z</time>
      </trkpt>
      <trkpt lat="40.2376720" lon="-3.8126800">
        <ele>686.8</ele>
        <time>2019-04-28T15:09:48Z</time>
      </trkpt>
      <trkpt lat="40.2376210" lon="-3.8126170">
        <ele>686.8</ele>
        <time>2019-04-28T15:09:49Z</time>
      </trkpt>
      <trkpt lat="40.2375700" lon="-3.8125520">
        <ele>686.6</ele>
        <time>2019-04-28T15:09:50Z</time>
      </trkpt>
      <trkpt lat="40.2375190" lon="-3.8124870">
        <ele>686.6</ele>
        <time>2019-04-28T15:09:51Z</time>
      </trkpt>
      <trkpt lat="40.2374670" lon="-3.8124250">
        <ele>686.4</ele>
        <time>2019-04-28T15:09:52Z</time>
      </trkpt>
      <trkpt lat="40.2374160" lon="-3.8123640">
        <ele>686.6</ele>
        <time>2019-04-28T15:09:53Z</time>
      </trkpt>
      <trkpt lat="40.2373660" lon="-3.8123040">
        <ele>687.0</ele>
        <time>2019-04-28T15:09:54Z</time>
      </trkpt>
      <trkpt lat="40.2373180" lon="-3.8122470">
        <ele>687.2</ele>
        <time>2019-04-28T15:09:55Z</time>
      </trkpt>
      <trkpt lat="40.2372690" lon="-3.8121960">
        <ele>687.4</ele>
        <time>2019-04-28T15:09:56Z</time>
      </trkpt>
      <trkpt lat="40.2372180" lon="-3.8121530">
        <ele>687.4</ele>
        <time>2019-04-28T15:09:57Z</time>
      </trkpt>
      <trkpt lat="40.2371660" lon="-3.8121190">
        <ele>688.0</ele>
        <time>2019-04-28T15:09:58Z</time>
      </trkpt>
      <trkpt lat="40.2371130" lon="-3.8120900">
        <ele>688.6</ele>
        <time>2019-04-28T15:09:59Z</time>
      </trkpt>
      <trkpt lat="40.2370610" lon="-3.8120620">
        <ele>689.0</ele>
        <time>2019-04-28T15:10:00Z</time>
      </trkpt>
      <trkpt lat="40.2370140" lon="-3.8120350">
        <ele>689.6</ele>
        <time>2019-04-28T15:10:01Z</time>
      </trkpt>
      <trkpt lat="40.2369680" lon="-3.8120130">
        <ele>690.0</ele>
        <time>2019-04-28T15:10:02Z</time>
      </trkpt>
      <trkpt lat="40.2369200" lon="-3.8119930">
        <ele>690.4</ele>
        <time>2019-04-28T15:10:03Z</time>
      </trkpt>
      <trkpt lat="40.2368740" lon="-3.8119740">
        <ele>690.6</ele>
        <time>2019-04-28T15:10:04Z</time>
      </trkpt>
      <trkpt lat="40.2368280" lon="-3.8119580">
        <ele>691.0</ele>
        <time>2019-04-28T15:10:05Z</time>
      </trkpt>
      <trkpt lat="40.2367840" lon="-3.8119380">
        <ele>691.4</ele>
        <time>2019-04-28T15:10:06Z</time>
      </trkpt>
      <trkpt lat="40.2367390" lon="-3.8119140">
        <ele>691.6</ele>
        <time>2019-04-28T15:10:07Z</time>
      </trkpt>
      <trkpt lat="40.2366950" lon="-3.8118870">
        <ele>692.0</ele>
        <time>2019-04-28T15:10:08Z</time>
      </trkpt>
      <trkpt lat="40.2366550" lon="-3.8118540">
        <ele>692.2</ele>
        <time>2019-04-28T15:10:09Z</time>
      </trkpt>
      <trkpt lat="40.2366150" lon="-3.8118180">
        <ele>692.4</ele>
        <time>2019-04-28T15:10:10Z</time>
      </trkpt>
      <trkpt lat="40.2365760" lon="-3.8117790">
        <ele>692.8</ele>
        <time>2019-04-28T15:10:11Z</time>
      </trkpt>
      <trkpt lat="40.2365410" lon="-3.8117370">
        <ele>693.0</ele>
        <time>2019-04-28T15:10:12Z</time>
      </trkpt>
      <trkpt lat="40.2365100" lon="-3.8116930">
        <ele>693.2</ele>
        <time>2019-04-28T15:10:13Z</time>
      </trkpt>
      <trkpt lat="40.2364810" lon="-3.8116460">
        <ele>693.2</ele>
        <time>2019-04-28T15:10:14Z</time>
      </trkpt>
      <trkpt lat="40.2364570" lon="-3.8115970">
        <ele>693.4</ele>
        <time>2019-04-28T15:10:15Z</time>
      </trkpt>
      <trkpt lat="40.2364350" lon="-3.8115460">
        <ele>693.4</ele>
        <time>2019-04-28T15:10:16Z</time>
      </trkpt>
      <trkpt lat="40.2364130" lon="-3.8114900">
        <ele>693.2</ele>
        <time>2019-04-28T15:10:17Z</time>
      </trkpt>
      <trkpt lat="40.2363910" lon="-3.8114270">
        <ele>693.0</ele>
        <time>2019-04-28T15:10:18Z</time>
      </trkpt>
      <trkpt lat="40.2363700" lon="-3.8113560">
        <ele>692.6</ele>
        <time>2019-04-28T15:10:19Z</time>
      </trkpt>
      <trkpt lat="40.2363500" lon="-3.8112770">
        <ele>692.2</ele>
        <time>2019-04-28T15:10:20Z</time>
      </trkpt>
      <trkpt lat="40.2363280" lon="-3.8111900">
        <ele>691.8</ele>
        <time>2019-04-28T15:10:21Z</time>
      </trkpt>
      <trkpt lat="40.2363030" lon="-3.8110990">
        <ele>691.2</ele>
        <time>2019-04-28T15:10:22Z</time>
      </trkpt>
      <trkpt lat="40.2362760" lon="-3.8110000">
        <ele>690.6</ele>
        <time>2019-04-28T15:10:23Z</time>
      </trkpt>
      <trkpt lat="40.2362450" lon="-3.8108970">
        <ele>689.6</ele>
        <time>2019-04-28T15:10:24Z</time>
      </trkpt>
      <trkpt lat="40.2362100" lon="-3.8107910">
        <ele>688.4</ele>
        <time>2019-04-28T15:10:25Z</time>
      </trkpt>
      <trkpt lat="40.2361730" lon="-3.8106810">
        <ele>687.6</ele>
        <time>2019-04-28T15:10:26Z</time>
      </trkpt>
      <trkpt lat="40.2361290" lon="-3.8105750">
        <ele>687.0</ele>
        <time>2019-04-28T15:10:27Z</time>
      </trkpt>
      <trkpt lat="40.2360770" lon="-3.8104750">
        <ele>686.0</ele>
        <time>2019-04-28T15:10:28Z</time>
      </trkpt>
      <trkpt lat="40.2360210" lon="-3.8103820">
        <ele>685.8</ele>
        <time>2019-04-28T15:10:29Z</time>
      </trkpt>
      <trkpt lat="40.2359670" lon="-3.8102920">
        <ele>685.8</ele>
        <time>2019-04-28T15:10:30Z</time>
      </trkpt>
      <trkpt lat="40.2359150" lon="-3.8102090">
        <ele>685.6</ele>
        <time>2019-04-28T15:10:31Z</time>
      </trkpt>
      <trkpt lat="40.2358610" lon="-3.8101310">
        <ele>685.4</ele>
        <time>2019-04-28T15:10:32Z</time>
      </trkpt>
      <trkpt lat="40.2358050" lon="-3.8100550">
        <ele>685.4</ele>
        <time>2019-04-28T15:10:33Z</time>
      </trkpt>
      <trkpt lat="40.2357510" lon="-3.8099800">
        <ele>685.4</ele>
        <time>2019-04-28T15:10:34Z</time>
      </trkpt>
      <trkpt lat="40.2356960" lon="-3.8099050">
        <ele>685.4</ele>
        <time>2019-04-28T15:10:35Z</time>
      </trkpt>
      <trkpt lat="40.2356420" lon="-3.8098310">
        <ele>685.2</ele>
        <time>2019-04-28T15:10:36Z</time>
      </trkpt>
      <trkpt lat="40.2355900" lon="-3.8097570">
        <ele>685.0</ele>
        <time>2019-04-28T15:10:37Z</time>
      </trkpt>
      <trkpt lat="40.2355370" lon="-3.8096850">
        <ele>684.8</ele>
        <time>2019-04-28T15:10:38Z</time>
      </trkpt>
      <trkpt lat="40.2354860" lon="-3.8096120">
        <ele>684.8</ele>
        <time>2019-04-28T15:10:39Z</time>
      </trkpt>
      <trkpt lat="40.2354340" lon="-3.8095410">
        <ele>684.8</ele>
        <time>2019-04-28T15:10:40Z</time>
      </trkpt>
      <trkpt lat="40.2353810" lon="-3.8094730">
        <ele>684.8</ele>
        <time>2019-04-28T15:10:41Z</time>
      </trkpt>
      <trkpt lat="40.2353270" lon="-3.8094050">
        <ele>684.6</ele>
        <time>2019-04-28T15:10:42Z</time>
      </trkpt>
      <trkpt lat="40.2352730" lon="-3.8093380">
        <ele>684.6</ele>
        <time>2019-04-28T15:10:43Z</time>
      </trkpt>
      <trkpt lat="40.2352170" lon="-3.8092750">
        <ele>684.6</ele>
        <time>2019-04-28T15:10:44Z</time>
      </trkpt>
      <trkpt lat="40.2351600" lon="-3.8092130">
        <ele>684.4</ele>
        <time>2019-04-28T15:10:45Z</time>
      </trkpt>
      <trkpt lat="40.2351030" lon="-3.8091550">
        <ele>684.4</ele>
        <time>2019-04-28T15:10:46Z</time>
      </trkpt>
      <trkpt lat="40.2350450" lon="-3.8090990">
        <ele>684.4</ele>
        <time>2019-04-28T15:10:47Z</time>
      </trkpt>
      <trkpt lat="40.2349870" lon="-3.8090410">
        <ele>684.4</ele>
        <time>2019-04-28T15:10:48Z</time>
      </trkpt>
      <trkpt lat="40.2349300" lon="-3.8089830">
        <ele>684.2</ele>
        <time>2019-04-28T15:10:49Z</time>
      </trkpt>
      <trkpt lat="40.2348740" lon="-3.8089260">
        <ele>684.2</ele>
        <time>2019-04-28T15:10:50Z</time>
      </trkpt>
      <trkpt lat="40.2348170" lon="-3.8088710">
        <ele>684.0</ele>
        <time>2019-04-28T15:10:51Z</time>
      </trkpt>
      <trkpt lat="40.2347600" lon="-3.8088200">
        <ele>683.8</ele>
        <time>2019-04-28T15:10:52Z</time>
      </trkpt>
      <trkpt lat="40.2347020" lon="-3.8087680">
        <ele>683.6</ele>
        <time>2019-04-28T15:10:53Z</time>
      </trkpt>
      <trkpt lat="40.2346470" lon="-3.8087160">
        <ele>683.2</ele>
        <time>2019-04-28T15:10:54Z</time>
      </trkpt>
      <trkpt lat="40.2345930" lon="-3.8086620">
        <ele>683.0</ele>
        <time>2019-04-28T15:10:55Z</time>
      </trkpt>
      <trkpt lat="40.2345400" lon="-3.8086100">
        <ele>683.0</ele>
        <time>2019-04-28T15:10:56Z</time>
      </trkpt>
      <trkpt lat="40.2344880" lon="-3.8085600">
        <ele>682.6</ele>
        <time>2019-04-28T15:10:57Z</time>
      </trkpt>
      <trkpt lat="40.2344360" lon="-3.8085100">
        <ele>682.6</ele>
        <time>2019-04-28T15:10:58Z</time>
      </trkpt>
      <trkpt lat="40.2343820" lon="-3.8084610">
        <ele>682.4</ele>
        <time>2019-04-28T15:10:59Z</time>
      </trkpt>
      <trkpt lat="40.2343290" lon="-3.8084130">
        <ele>682.2</ele>
        <time>2019-04-28T15:11:00Z</time>
      </trkpt>
      <trkpt lat="40.2342740" lon="-3.8083660">
        <ele>682.2</ele>
        <time>2019-04-28T15:11:01Z</time>
      </trkpt>
      <trkpt lat="40.2342200" lon="-3.8083180">
        <ele>682.0</ele>
        <time>2019-04-28T15:11:02Z</time>
      </trkpt>
      <trkpt lat="40.2341680" lon="-3.8082690">
        <ele>681.8</ele>
        <time>2019-04-28T15:11:03Z</time>
      </trkpt>
      <trkpt lat="40.2341140" lon="-3.8082240">
        <ele>681.6</ele>
        <time>2019-04-28T15:11:04Z</time>
      </trkpt>
      <trkpt lat="40.2340610" lon="-3.8081820">
        <ele>681.6</ele>
        <time>2019-04-28T15:11:05Z</time>
      </trkpt>
      <trkpt lat="40.2340070" lon="-3.8081420">
        <ele>681.4</ele>
        <time>2019-04-28T15:11:06Z</time>
      </trkpt>
      <trkpt lat="40.2339500" lon="-3.8081040">
        <ele>681.2</ele>
        <time>2019-04-28T15:11:07Z</time>
      </trkpt>
      <trkpt lat="40.2338890" lon="-3.8080670">
        <ele>681.0</ele>
        <time>2019-04-28T15:11:08Z</time>
      </trkpt>
      <trkpt lat="40.2338270" lon="-3.8080310">
        <ele>680.8</ele>
        <time>2019-04-28T15:11:09Z</time>
      </trkpt>
      <trkpt lat="40.2337650" lon="-3.8079930">
        <ele>680.4</ele>
        <time>2019-04-28T15:11:10Z</time>
      </trkpt>
      <trkpt lat="40.2337000" lon="-3.8079540">
        <ele>680.2</ele>
        <time>2019-04-28T15:11:11Z</time>
      </trkpt>
      <trkpt lat="40.2336320" lon="-3.8079150">
        <ele>680.0</ele>
        <time>2019-04-28T15:11:12Z</time>
      </trkpt>
      <trkpt lat="40.2335630" lon="-3.8078800">
        <ele>679.8</ele>
        <time>2019-04-28T15:11:13Z</time>
      </trkpt>
      <trkpt lat="40.2334920" lon="-3.8078460">
        <ele>679.8</ele>
        <time>2019-04-28T15:11:14Z</time>
      </trkpt>
      <trkpt lat="40.2334220" lon="-3.8078160">
        <ele>679.6</ele>
        <time>2019-04-28T15:11:15Z</time>
      </trkpt>
      <trkpt lat="40.2333510" lon="-3.8077930">
        <ele>679.4</ele>
        <time>2019-04-28T15:11:16Z</time>
      </trkpt>
      <trkpt lat="40.2332810" lon="-3.8077740">
        <ele>679.4</ele>
        <time>2019-04-28T15:11:17Z</time>
      </trkpt>
      <trkpt lat="40.2332130" lon="-3.8077590">
        <ele>679.4</ele>
        <time>2019-04-28T15:11:18Z</time>
      </trkpt>
      <trkpt lat="40.2331450" lon="-3.8077500">
        <ele>679.4</ele>
        <time>2019-04-28T15:11:19Z</time>
      </trkpt>
      <trkpt lat="40.2330770" lon="-3.8077500">
        <ele>679.4</ele>
        <time>2019-04-28T15:11:20Z</time>
      </trkpt>
      <trkpt lat="40.2330190" lon="-3.8077560">
        <ele>679.4</ele>
        <time>2019-04-28T15:11:21Z</time>
      </trkpt>
      <trkpt lat="40.2329680" lon="-3.8077640">
        <ele>679.2</ele>
        <time>2019-04-28T15:11:22Z</time>
      </trkpt>
      <trkpt lat="40.2329230" lon="-3.8077730">
        <ele>679.0</ele>
        <time>2019-04-28T15:11:23Z</time>
      </trkpt>
      <trkpt lat="40.2328910" lon="-3.8077800">
        <ele>679.0</ele>
        <time>2019-04-28T15:11:24Z</time>
      </trkpt>
      <trkpt lat="40.2328740" lon="-3.8077860">
        <ele>679.0</ele>
        <time>2019-04-28T15:11:25Z</time>
      </trkpt>
      <trkpt lat="40.2328670" lon="-3.8077860">
        <ele>678.8</ele>
        <time>2019-04-28T15:11:26Z</time>
      </trkpt>
      <trkpt lat="40.2328650" lon="-3.8077870">
        <ele>678.8</ele>
        <time>2019-04-28T15:11:27Z</time>
      </trkpt>
      <trkpt lat="40.2328650" lon="-3.8077900">
        <ele>678.8</ele>
        <time>2019-04-28T15:11:28Z</time>
      </trkpt>
      <trkpt lat="40.2328660" lon="-3.8077890">
        <ele>678.8</ele>
        <time>2019-04-28T15:11:29Z</time>
      </trkpt>
      <trkpt lat="40.2328680" lon="-3.8077850">
        <ele>678.8</ele>
        <time>2019-04-28T15:11:30Z</time>
      </trkpt>
      <trkpt lat="40.2328700" lon="-3.8077780">
        <ele>678.8</ele>
        <time>2019-04-28T15:11:31Z</time>
      </trkpt>
      <trkpt lat="40.2328780" lon="-3.8077670">
        <ele>678.8</ele>
        <time>2019-04-28T15:11:32Z</time>
      </trkpt>
      <trkpt lat="40.2328950" lon="-3.8077580">
        <ele>678.6</ele>
        <time>2019-04-28T15:11:33Z</time>
      </trkpt>
      <trkpt lat="40.2330360" lon="-3.8077340">
        <ele>679.0</ele>
        <time>2019-04-28T15:11:38Z</time>
      </trkpt>
      <trkpt lat="40.2330780" lon="-3.8077310">
        <ele>679.0</ele>
        <time>2019-04-28T15:11:39Z</time>
      </trkpt>
      <trkpt lat="40.2331220" lon="-3.8077270">
        <ele>679.0</ele>
        <time>2019-04-28T15:11:40Z</time>
      </trkpt>
      <trkpt lat="40.2331670" lon="-3.8077280">
        <ele>679.0</ele>
        <time>2019-04-28T15:11:41Z</time>
      </trkpt>
      <trkpt lat="40.2332130" lon="-3.8077380">
        <ele>679.0</ele>
        <time>2019-04-28T15:11:42Z</time>
      </trkpt>
      <trkpt lat="40.2332560" lon="-3.8077350">
        <ele>679.0</ele>
        <time>2019-04-28T15:11:43Z</time>
      </trkpt>
      <trkpt lat="40.2332930" lon="-3.8077120">
        <ele>679.0</ele>
        <time>2019-04-28T15:11:44Z</time>
      </trkpt>
      <trkpt lat="40.2333170" lon="-3.8076760">
        <ele>679.2</ele>
        <time>2019-04-28T15:11:45Z</time>
      </trkpt>
      <trkpt lat="40.2333220" lon="-3.8076410">
        <ele>679.6</ele>
        <time>2019-04-28T15:11:46Z</time>
      </trkpt>
      <trkpt lat="40.2333160" lon="-3.8076070">
        <ele>679.6</ele>
        <time>2019-04-28T15:11:47Z</time>
      </trkpt>
      <trkpt lat="40.2333020" lon="-3.8075780">
        <ele>679.8</ele>
        <time>2019-04-28T15:11:48Z</time>
      </trkpt>
      <trkpt lat="40.2332800" lon="-3.8075430">
        <ele>679.6</ele>
        <time>2019-04-28T15:11:49Z</time>
      </trkpt>
      <trkpt lat="40.2332560" lon="-3.8075020">
        <ele>679.8</ele>
        <time>2019-04-28T15:11:50Z</time>
      </trkpt>
      <trkpt lat="40.2332380" lon="-3.8074530">
        <ele>679.8</ele>
        <time>2019-04-28T15:11:51Z</time>
      </trkpt>
      <trkpt lat="40.2332340" lon="-3.8073970">
        <ele>679.8</ele>
        <time>2019-04-28T15:11:52Z</time>
      </trkpt>
      <trkpt lat="40.2332430" lon="-3.8073390">
        <ele>680.0</ele>
        <time>2019-04-28T15:11:53Z</time>
      </trkpt>
      <trkpt lat="40.2332590" lon="-3.8072800">
        <ele>680.0</ele>
        <time>2019-04-28T15:11:54Z</time>
      </trkpt>
      <trkpt lat="40.2332800" lon="-3.8072220">
        <ele>680.0</ele>
        <time>2019-04-28T15:11:55Z</time>
      </trkpt>
      <trkpt lat="40.2333030" lon="-3.8071630">
        <ele>680.0</ele>
        <time>2019-04-28T15:11:56Z</time>
      </trkpt>
      <trkpt lat="40.2333250" lon="-3.8071030">
        <ele>680.0</ele>
        <time>2019-04-28T15:11:57Z</time>
      </trkpt>
      <trkpt lat="40.2333470" lon="-3.8070440">
        <ele>680.0</ele>
        <time>2019-04-28T15:11:58Z</time>
      </trkpt>
      <trkpt lat="40.2333650" lon="-3.8069820">
        <ele>680.0</ele>
        <time>2019-04-28T15:11:59Z</time>
      </trkpt>
      <trkpt lat="40.2333870" lon="-3.8069210">
        <ele>680.0</ele>
        <time>2019-04-28T15:12:00Z</time>
      </trkpt>
      <trkpt lat="40.2334120" lon="-3.8068620">
        <ele>680.0</ele>
        <time>2019-04-28T15:12:01Z</time>
      </trkpt>
      <trkpt lat="40.2334350" lon="-3.8068010">
        <ele>680.0</ele>
        <time>2019-04-28T15:12:02Z</time>
      </trkpt>
      <trkpt lat="40.2334550" lon="-3.8067400">
        <ele>680.0</ele>
        <time>2019-04-28T15:12:03Z</time>
      </trkpt>
      <trkpt lat="40.2334710" lon="-3.8066790">
        <ele>680.0</ele>
        <time>2019-04-28T15:12:04Z</time>
      </trkpt>
      <trkpt lat="40.2334850" lon="-3.8066170">
        <ele>680.2</ele>
        <time>2019-04-28T15:12:05Z</time>
      </trkpt>
      <trkpt lat="40.2335010" lon="-3.8065560">
        <ele>680.4</ele>
        <time>2019-04-28T15:12:06Z</time>
      </trkpt>
      <trkpt lat="40.2335140" lon="-3.8064940">
        <ele>680.4</ele>
        <time>2019-04-28T15:12:07Z</time>
      </trkpt>
      <trkpt lat="40.2335220" lon="-3.8064300">
        <ele>680.4</ele>
        <time>2019-04-28T15:12:08Z</time>
      </trkpt>
      <trkpt lat="40.2335240" lon="-3.8063640">
        <ele>680.4</ele>
        <time>2019-04-28T15:12:09Z</time>
      </trkpt>
      <trkpt lat="40.2335230" lon="-3.8062950">
        <ele>680.4</ele>
        <time>2019-04-28T15:12:10Z</time>
      </trkpt>
      <trkpt lat="40.2335220" lon="-3.8062260">
        <ele>680.2</ele>
        <time>2019-04-28T15:12:11Z</time>
      </trkpt>
      <trkpt lat="40.2335190" lon="-3.8061560">
        <ele>680.0</ele>
        <time>2019-04-28T15:12:12Z</time>
      </trkpt>
      <trkpt lat="40.2335210" lon="-3.8060860">
        <ele>680.0</ele>
        <time>2019-04-28T15:12:13Z</time>
      </trkpt>
      <trkpt lat="40.2335350" lon="-3.8060200">
        <ele>680.0</ele>
        <time>2019-04-28T15:12:14Z</time>
      </trkpt>
      <trkpt lat="40.2335600" lon="-3.8059610">
        <ele>679.8</ele>
        <time>2019-04-28T15:12:15Z</time>
      </trkpt>
      <trkpt lat="40.2335970" lon="-3.8059100">
        <ele>679.6</ele>
        <time>2019-04-28T15:12:16Z</time>
      </trkpt>
      <trkpt lat="40.2336430" lon="-3.8058660">
        <ele>679.4</ele>
        <time>2019-04-28T15:12:17Z</time>
      </trkpt>
      <trkpt lat="40.2336950" lon="-3.8058290">
        <ele>679.4</ele>
        <time>2019-04-28T15:12:18Z</time>
      </trkpt>
      <trkpt lat="40.2337510" lon="-3.8057990">
        <ele>679.4</ele>
        <time>2019-04-28T15:12:19Z</time>
      </trkpt>
      <trkpt lat="40.2338090" lon="-3.8057680">
        <ele>679.4</ele>
        <time>2019-04-28T15:12:20Z</time>
      </trkpt>
      <trkpt lat="40.2338680" lon="-3.8057380">
        <ele>679.6</ele>
        <time>2019-04-28T15:12:21Z</time>
      </trkpt>
      <trkpt lat="40.2339250" lon="-3.8057070">
        <ele>679.6</ele>
        <time>2019-04-28T15:12:22Z</time>
      </trkpt>
      <trkpt lat="40.2339840" lon="-3.8056760">
        <ele>679.4</ele>
        <time>2019-04-28T15:12:23Z</time>
      </trkpt>
      <trkpt lat="40.2340430" lon="-3.8056420">
        <ele>679.4</ele>
        <time>2019-04-28T15:12:24Z</time>
      </trkpt>
      <trkpt lat="40.2341030" lon="-3.8056090">
        <ele>679.4</ele>
        <time>2019-04-28T15:12:25Z</time>
      </trkpt>
      <trkpt lat="40.2341620" lon="-3.8055750">
        <ele>679.4</ele>
        <time>2019-04-28T15:12:26Z</time>
      </trkpt>
      <trkpt lat="40.2342230" lon="-3.8055390">
        <ele>679.2</ele>
        <time>2019-04-28T15:12:27Z</time>
      </trkpt>
      <trkpt lat="40.2342830" lon="-3.8055010">
        <ele>679.2</ele>
        <time>2019-04-28T15:12:28Z</time>
      </trkpt>
      <trkpt lat="40.2343400" lon="-3.8054560">
        <ele>679.2</ele>
        <time>2019-04-28T15:12:29Z</time>
      </trkpt>
      <trkpt lat="40.2343980" lon="-3.8054070">
        <ele>679.2</ele>
        <time>2019-04-28T15:12:30Z</time>
      </trkpt>
      <trkpt lat="40.2344570" lon="-3.8053640">
        <ele>679.2</ele>
        <time>2019-04-28T15:12:31Z</time>
      </trkpt>
      <trkpt lat="40.2345130" lon="-3.8053210">
        <ele>679.2</ele>
        <time>2019-04-28T15:12:32Z</time>
      </trkpt>
      <trkpt lat="40.2345630" lon="-3.8052740">
        <ele>679.2</ele>
        <time>2019-04-28T15:12:33Z</time>
      </trkpt>
      <trkpt lat="40.2346010" lon="-3.8052210">
        <ele>679.2</ele>
        <time>2019-04-28T15:12:34Z</time>
      </trkpt>
      <trkpt lat="40.2346230" lon="-3.8051610">
        <ele>679.2</ele>
        <time>2019-04-28T15:12:35Z</time>
      </trkpt>
      <trkpt lat="40.2346270" lon="-3.8050970">
        <ele>679.2</ele>
        <time>2019-04-28T15:12:36Z</time>
      </trkpt>
      <trkpt lat="40.2346170" lon="-3.8050280">
        <ele>679.4</ele>
        <time>2019-04-28T15:12:37Z</time>
      </trkpt>
      <trkpt lat="40.2345900" lon="-3.8049640">
        <ele>679.2</ele>
        <time>2019-04-28T15:12:38Z</time>
      </trkpt>
      <trkpt lat="40.2345530" lon="-3.8049050">
        <ele>679.0</ele>
        <time>2019-04-28T15:12:39Z</time>
      </trkpt>
      <trkpt lat="40.2345110" lon="-3.8048520">
        <ele>679.0</ele>
        <time>2019-04-28T15:12:40Z</time>
      </trkpt>
      <trkpt lat="40.2344730" lon="-3.8047970">
        <ele>678.8</ele>
        <time>2019-04-28T15:12:41Z</time>
      </trkpt>
      <trkpt lat="40.2344400" lon="-3.8047360">
        <ele>678.8</ele>
        <time>2019-04-28T15:12:42Z</time>
      </trkpt>
      <trkpt lat="40.2344230" lon="-3.8046720">
        <ele>678.8</ele>
        <time>2019-04-28T15:12:43Z</time>
      </trkpt>
      <trkpt lat="40.2344240" lon="-3.8046040">
        <ele>678.8</ele>
        <time>2019-04-28T15:12:44Z</time>
      </trkpt>
      <trkpt lat="40.2344480" lon="-3.8045450">
        <ele>678.8</ele>
        <time>2019-04-28T15:12:45Z</time>
      </trkpt>
      <trkpt lat="40.2344870" lon="-3.8045030">
        <ele>678.8</ele>
        <time>2019-04-28T15:12:46Z</time>
      </trkpt>
      <trkpt lat="40.2345300" lon="-3.8044650">
        <ele>678.6</ele>
        <time>2019-04-28T15:12:47Z</time>
      </trkpt>
      <trkpt lat="40.2345710" lon="-3.8044200">
        <ele>678.6</ele>
        <time>2019-04-28T15:12:48Z</time>
      </trkpt>
      <trkpt lat="40.2346070" lon="-3.8043670">
        <ele>678.6</ele>
        <time>2019-04-28T15:12:49Z</time>
      </trkpt>
      <trkpt lat="40.2346380" lon="-3.8043060">
        <ele>678.4</ele>
        <time>2019-04-28T15:12:50Z</time>
      </trkpt>
      <trkpt lat="40.2346630" lon="-3.8042430">
        <ele>678.2</ele>
        <time>2019-04-28T15:12:51Z</time>
      </trkpt>
      <trkpt lat="40.2346850" lon="-3.8041860">
        <ele>678.2</ele>
        <time>2019-04-28T15:12:52Z</time>
      </trkpt>
      <trkpt lat="40.2347040" lon="-3.8041310">
        <ele>678.0</ele>
        <time>2019-04-28T15:12:53Z</time>
      </trkpt>
      <trkpt lat="40.2347140" lon="-3.8040730">
        <ele>678.0</ele>
        <time>2019-04-28T15:12:54Z</time>
      </trkpt>
      <trkpt lat="40.2347160" lon="-3.8040110">
        <ele>678.2</ele>
        <time>2019-04-28T15:12:55Z</time>
      </trkpt>
      <trkpt lat="40.2347110" lon="-3.8039460">
        <ele>678.4</ele>
        <time>2019-04-28T15:12:56Z</time>
      </trkpt>
      <trkpt lat="40.2347000" lon="-3.8038780">
        <ele>678.2</ele>
        <time>2019-04-28T15:12:57Z</time>
      </trkpt>
      <trkpt lat="40.2346840" lon="-3.8038080">
        <ele>678.2</ele>
        <time>2019-04-28T15:12:58Z</time>
      </trkpt>
      <trkpt lat="40.2346760" lon="-3.8037400">
        <ele>678.4</ele>
        <time>2019-04-28T15:12:59Z</time>
      </trkpt>
      <trkpt lat="40.2346760" lon="-3.8036670">
        <ele>678.4</ele>
        <time>2019-04-28T15:13:00Z</time>
      </trkpt>
      <trkpt lat="40.2346820" lon="-3.8035900">
        <ele>678.4</ele>
        <time>2019-04-28T15:13:01Z</time>
      </trkpt>
      <trkpt lat="40.2346930" lon="-3.8035090">
        <ele>678.4</ele>
        <time>2019-04-28T15:13:02Z</time>
      </trkpt>
      <trkpt lat="40.2347040" lon="-3.8034280">
        <ele>678.2</ele>
        <time>2019-04-28T15:13:03Z</time>
      </trkpt>
      <trkpt lat="40.2347200" lon="-3.8033470">
        <ele>678.2</ele>
        <time>2019-04-28T15:13:04Z</time>
      </trkpt>
      <trkpt lat="40.2347410" lon="-3.8032690">
        <ele>678.2</ele>
        <time>2019-04-28T15:13:05Z</time>
      </trkpt>
      <trkpt lat="40.2347600" lon="-3.8031890">
        <ele>678.2</ele>
        <time>2019-04-28T15:13:06Z</time>
      </trkpt>
      <trkpt lat="40.2347850" lon="-3.8031060">
        <ele>678.0</ele>
        <time>2019-04-28T15:13:07Z</time>
      </trkpt>
      <trkpt lat="40.2348050" lon="-3.8030240">
        <ele>677.8</ele>
        <time>2019-04-28T15:13:08Z</time>
      </trkpt>
      <trkpt lat="40.2348260" lon="-3.8029440">
        <ele>677.4</ele>
        <time>2019-04-28T15:13:09Z</time>
      </trkpt>
      <trkpt lat="40.2348460" lon="-3.8028590">
        <ele>677.4</ele>
        <time>2019-04-28T15:13:10Z</time>
      </trkpt>
      <trkpt lat="40.2348680" lon="-3.8027800">
        <ele>677.4</ele>
        <time>2019-04-28T15:13:11Z</time>
      </trkpt>
      <trkpt lat="40.2348910" lon="-3.8027030">
        <ele>677.2</ele>
        <time>2019-04-28T15:13:12Z</time>
      </trkpt>
      <trkpt lat="40.2349110" lon="-3.8026280">
        <ele>677.2</ele>
        <time>2019-04-28T15:13:13Z</time>
      </trkpt>
      <trkpt lat="40.2349260" lon="-3.8025560">
        <ele>677.0</ele>
        <time>2019-04-28T15:13:14Z</time>
      </trkpt>
      <trkpt lat="40.2349430" lon="-3.8024850">
        <ele>676.8</ele>
        <time>2019-04-28T15:13:15Z</time>
      </trkpt>
      <trkpt lat="40.2349640" lon="-3.8024170">
        <ele>676.6</ele>
        <time>2019-04-28T15:13:16Z</time>
      </trkpt>
      <trkpt lat="40.2349940" lon="-3.8023540">
        <ele>676.6</ele>
        <time>2019-04-28T15:13:17Z</time>
      </trkpt>
      <trkpt lat="40.2350300" lon="-3.8022940">
        <ele>676.6</ele>
        <time>2019-04-28T15:13:18Z</time>
      </trkpt>
      <trkpt lat="40.2350720" lon="-3.8022410">
        <ele>676.6</ele>
        <time>2019-04-28T15:13:19Z</time>
      </trkpt>
      <trkpt lat="40.2351200" lon="-3.8022020">
        <ele>676.6</ele>
        <time>2019-04-28T15:13:20Z</time>
      </trkpt>
      <trkpt lat="40.2351670" lon="-3.8021590">
        <ele>676.8</ele>
        <time>2019-04-28T15:13:21Z</time>
      </trkpt>
      <trkpt lat="40.2351980" lon="-3.8021010">
        <ele>677.0</ele>
        <time>2019-04-28T15:13:22Z</time>
      </trkpt>
      <trkpt lat="40.2352090" lon="-3.8020350">
        <ele>677.2</ele>
        <time>2019-04-28T15:13:23Z</time>
      </trkpt>
      <trkpt lat="40.2351970" lon="-3.8019720">
        <ele>677.2</ele>
        <time>2019-04-28T15:13:24Z</time>
      </trkpt>
      <trkpt lat="40.2351630" lon="-3.8019200">
        <ele>677.4</ele>
        <time>2019-04-28T15:13:25Z</time>
      </trkpt>
      <trkpt lat="40.2351180" lon="-3.8018790">
        <ele>677.4</ele>
        <time>2019-04-28T15:13:26Z</time>
      </trkpt>
      <trkpt lat="40.2350670" lon="-3.8018470">
        <ele>677.4</ele>
        <time>2019-04-28T15:13:27Z</time>
      </trkpt>
      <trkpt lat="40.2350140" lon="-3.8018160">
        <ele>677.4</ele>
        <time>2019-04-28T15:13:28Z</time>
      </trkpt>
      <trkpt lat="40.2349580" lon="-3.8017880">
        <ele>677.4</ele>
        <time>2019-04-28T15:13:29Z</time>
      </trkpt>
      <trkpt lat="40.2349010" lon="-3.8017650">
        <ele>677.4</ele>
        <time>2019-04-28T15:13:30Z</time>
      </trkpt>
      <trkpt lat="40.2348420" lon="-3.8017470">
        <ele>677.4</ele>
        <time>2019-04-28T15:13:31Z</time>
      </trkpt>
      <trkpt lat="40.2347820" lon="-3.8017340">
        <ele>677.4</ele>
        <time>2019-04-28T15:13:32Z</time>
      </trkpt>
      <trkpt lat="40.2347210" lon="-3.8017230">
        <ele>677.4</ele>
        <time>2019-04-28T15:13:33Z</time>
      </trkpt>
      <trkpt lat="40.2346590" lon="-3.8017130">
        <ele>677.0</ele>
        <time>2019-04-28T15:13:34Z</time>
      </trkpt>
      <trkpt lat="40.2345960" lon="-3.8017020">
        <ele>676.8</ele>
        <time>2019-04-28T15:13:35Z</time>
      </trkpt>
      <trkpt lat="40.2345320" lon="-3.8016880">
        <ele>676.4</ele>
        <time>2019-04-28T15:13:36Z</time>
      </trkpt>
      <trkpt lat="40.2344680" lon="-3.8016820">
        <ele>676.4</ele>
        <time>2019-04-28T15:13:37Z</time>
      </trkpt>
      <trkpt lat="40.2344050" lon="-3.8016830">
        <ele>676.4</ele>
        <time>2019-04-28T15:13:38Z</time>
      </trkpt>
      <trkpt lat="40.2343450" lon="-3.8016830">
        <ele>676.4</ele>
        <time>2019-04-28T15:13:39Z</time>
      </trkpt>
      <trkpt lat="40.2342860" lon="-3.8016780">
        <ele>676.0</ele>
        <time>2019-04-28T15:13:40Z</time>
      </trkpt>
      <trkpt lat="40.2342270" lon="-3.8016620">
        <ele>675.8</ele>
        <time>2019-04-28T15:13:41Z</time>
      </trkpt>
      <trkpt lat="40.2341690" lon="-3.8016340">
        <ele>675.8</ele>
        <time>2019-04-28T15:13:42Z</time>
      </trkpt>
      <trkpt lat="40.2341140" lon="-3.8015970">
        <ele>675.8</ele>
        <time>2019-04-28T15:13:43Z</time>
      </trkpt>
      <trkpt lat="40.2340620" lon="-3.8015540">
        <ele>675.6</ele>
        <time>2019-04-28T15:13:44Z</time>
      </trkpt>
      <trkpt lat="40.2340110" lon="-3.8015120">
        <ele>675.4</ele>
        <time>2019-04-28T15:13:45Z</time>
      </trkpt>
      <trkpt lat="40.2339620" lon="-3.8014690">
        <ele>675.4</ele>
        <time>2019-04-28T15:13:46Z</time>
      </trkpt>
      <trkpt lat="40.2339170" lon="-3.8014200">
        <ele>675.4</ele>
        <time>2019-04-28T15:13:47Z</time>
      </trkpt>
      <trkpt lat="40.2338720" lon="-3.8013700">
        <ele>675.4</ele>
        <time>2019-04-28T15:13:48Z</time>
      </trkpt>
      <trkpt lat="40.2338260" lon="-3.8013220">
        <ele>675.4</ele>
        <time>2019-04-28T15:13:49Z</time>
      </trkpt>
      <trkpt lat="40.2337760" lon="-3.8012730">
        <ele>675.2</ele>
        <time>2019-04-28T15:13:50Z</time>
      </trkpt>
      <trkpt lat="40.2337230" lon="-3.8012270">
        <ele>675.0</ele>
        <time>2019-04-28T15:13:51Z</time>
      </trkpt>
      <trkpt lat="40.2336650" lon="-3.8011880">
        <ele>675.0</ele>
        <time>2019-04-28T15:13:52Z</time>
      </trkpt>
      <trkpt lat="40.2336030" lon="-3.8011530">
        <ele>674.8</ele>
        <time>2019-04-28T15:13:53Z</time>
      </trkpt>
      <trkpt lat="40.2335370" lon="-3.8011280">
        <ele>674.8</ele>
        <time>2019-04-28T15:13:54Z</time>
      </trkpt>
      <trkpt lat="40.2334680" lon="-3.8011140">
        <ele>674.8</ele>
        <time>2019-04-28T15:13:55Z</time>
      </trkpt>
      <trkpt lat="40.2333990" lon="-3.8011100">
        <ele>674.8</ele>
        <time>2019-04-28T15:13:56Z</time>
      </trkpt>
      <trkpt lat="40.2333300" lon="-3.8011090">
        <ele>674.8</ele>
        <time>2019-04-28T15:13:57Z</time>
      </trkpt>
      <trkpt lat="40.2332620" lon="-3.8010930">
        <ele>674.8</ele>
        <time>2019-04-28T15:13:58Z</time>
      </trkpt>
      <trkpt lat="40.2331970" lon="-3.8010590">
        <ele>674.6</ele>
        <time>2019-04-28T15:13:59Z</time>
      </trkpt>
      <trkpt lat="40.2331360" lon="-3.8010090">
        <ele>674.4</ele>
        <time>2019-04-28T15:14:00Z</time>
      </trkpt>
      <trkpt lat="40.2330740" lon="-3.8009540">
        <ele>674.4</ele>
        <time>2019-04-28T15:14:01Z</time>
      </trkpt>
      <trkpt lat="40.2330140" lon="-3.8009020">
        <ele>674.4</ele>
        <time>2019-04-28T15:14:02Z</time>
      </trkpt>
      <trkpt lat="40.2329530" lon="-3.8008570">
        <ele>674.4</ele>
        <time>2019-04-28T15:14:03Z</time>
      </trkpt>
      <trkpt lat="40.2328910" lon="-3.8008180">
        <ele>674.4</ele>
        <time>2019-04-28T15:14:04Z</time>
      </trkpt>
      <trkpt lat="40.2328270" lon="-3.8007870">
        <ele>674.4</ele>
        <time>2019-04-28T15:14:05Z</time>
      </trkpt>
      <trkpt lat="40.2327600" lon="-3.8007650">
        <ele>674.4</ele>
        <time>2019-04-28T15:14:06Z</time>
      </trkpt>
      <trkpt lat="40.2326930" lon="-3.8007430">
        <ele>674.4</ele>
        <time>2019-04-28T15:14:07Z</time>
      </trkpt>
      <trkpt lat="40.2326300" lon="-3.8007150">
        <ele>674.8</ele>
        <time>2019-04-28T15:14:08Z</time>
      </trkpt>
      <trkpt lat="40.2325750" lon="-3.8006750">
        <ele>675.0</ele>
        <time>2019-04-28T15:14:09Z</time>
      </trkpt>
      <trkpt lat="40.2325340" lon="-3.8006200">
        <ele>675.4</ele>
        <time>2019-04-28T15:14:10Z</time>
      </trkpt>
      <trkpt lat="40.2325040" lon="-3.8005620">
        <ele>675.4</ele>
        <time>2019-04-28T15:14:11Z</time>
      </trkpt>
      <trkpt lat="40.2324850" lon="-3.8005010">
        <ele>675.4</ele>
        <time>2019-04-28T15:14:12Z</time>
      </trkpt>
      <trkpt lat="40.2324810" lon="-3.8004370">
        <ele>675.6</ele>
        <time>2019-04-28T15:14:13Z</time>
      </trkpt>
      <trkpt lat="40.2324950" lon="-3.8003740">
        <ele>675.6</ele>
        <time>2019-04-28T15:14:14Z</time>
      </trkpt>
      <trkpt lat="40.2325190" lon="-3.8003170">
        <ele>675.4</ele>
        <time>2019-04-28T15:14:15Z</time>
      </trkpt>
      <trkpt lat="40.2325460" lon="-3.8002620">
        <ele>675.8</ele>
        <time>2019-04-28T15:14:16Z</time>
      </trkpt>
      <trkpt lat="40.2325720" lon="-3.8002070">
        <ele>675.8</ele>
        <time>2019-04-28T15:14:17Z</time>
      </trkpt>
      <trkpt lat="40.2325980" lon="-3.8001540">
        <ele>676.2</ele>
        <time>2019-04-28T15:14:18Z</time>
      </trkpt>
      <trkpt lat="40.2326210" lon="-3.8000980">
        <ele>676.0</ele>
        <time>2019-04-28T15:14:19Z</time>
      </trkpt>
      <trkpt lat="40.2326400" lon="-3.8000400">
        <ele>676.0</ele>
        <time>2019-04-28T15:14:20Z</time>
      </trkpt>
      <trkpt lat="40.2326530" lon="-3.7999780">
        <ele>676.0</ele>
        <time>2019-04-28T15:14:21Z</time>
      </trkpt>
      <trkpt lat="40.2326590" lon="-3.7999130">
        <ele>676.0</ele>
        <time>2019-04-28T15:14:22Z</time>
      </trkpt>
      <trkpt lat="40.2326630" lon="-3.7998470">
        <ele>676.2</ele>
        <time>2019-04-28T15:14:23Z</time>
      </trkpt>
      <trkpt lat="40.2326770" lon="-3.7997820">
        <ele>676.2</ele>
        <time>2019-04-28T15:14:24Z</time>
      </trkpt>
      <trkpt lat="40.2327000" lon="-3.7997210">
        <ele>676.4</ele>
        <time>2019-04-28T15:14:25Z</time>
      </trkpt>
      <trkpt lat="40.2327270" lon="-3.7996650">
        <ele>676.4</ele>
        <time>2019-04-28T15:14:26Z</time>
      </trkpt>
      <trkpt lat="40.2327580" lon="-3.7996120">
        <ele>676.4</ele>
        <time>2019-04-28T15:14:27Z</time>
      </trkpt>
      <trkpt lat="40.2327910" lon="-3.7995600">
        <ele>676.4</ele>
        <time>2019-04-28T15:14:28Z</time>
      </trkpt>
      <trkpt lat="40.2328270" lon="-3.7995090">
        <ele>676.4</ele>
        <time>2019-04-28T15:14:29Z</time>
      </trkpt>
      <trkpt lat="40.2328610" lon="-3.7994570">
        <ele>676.4</ele>
        <time>2019-04-28T15:14:30Z</time>
      </trkpt>
      <trkpt lat="40.2328960" lon="-3.7994060">
        <ele>676.8</ele>
        <time>2019-04-28T15:14:31Z</time>
      </trkpt>
      <trkpt lat="40.2329290" lon="-3.7993550">
        <ele>676.8</ele>
        <time>2019-04-28T15:14:32Z</time>
      </trkpt>
      <trkpt lat="40.2329630" lon="-3.7993040">
        <ele>676.8</ele>
        <time>2019-04-28T15:14:33Z</time>
      </trkpt>
      <trkpt lat="40.2329980" lon="-3.7992530">
        <ele>676.8</ele>
        <time>2019-04-28T15:14:34Z</time>
      </trkpt>
      <trkpt lat="40.2330260" lon="-3.7991980">
        <ele>677.0</ele>
        <time>2019-04-28T15:14:35Z</time>
      </trkpt>
      <trkpt lat="40.2330570" lon="-3.7991470">
        <ele>677.2</ele>
        <time>2019-04-28T15:14:36Z</time>
      </trkpt>
      <trkpt lat="40.2330880" lon="-3.7990970">
        <ele>677.2</ele>
        <time>2019-04-28T15:14:37Z</time>
      </trkpt>
      <trkpt lat="40.2331150" lon="-3.7990470">
        <ele>677.4</ele>
        <time>2019-04-28T15:14:38Z</time>
      </trkpt>
      <trkpt lat="40.2331420" lon="-3.7989980">
        <ele>677.6</ele>
        <time>2019-04-28T15:14:39Z</time>
      </trkpt>
      <trkpt lat="40.2331730" lon="-3.7989490">
        <ele>677.6</ele>
        <time>2019-04-28T15:14:40Z</time>
      </trkpt>
      <trkpt lat="40.2332030" lon="-3.7989020">
        <ele>677.8</ele>
        <time>2019-04-28T15:14:41Z</time>
      </trkpt>
      <trkpt lat="40.2332320" lon="-3.7988540">
        <ele>678.0</ele>
        <time>2019-04-28T15:14:42Z</time>
      </trkpt>
      <trkpt lat="40.2332610" lon="-3.7988060">
        <ele>678.0</ele>
        <time>2019-04-28T15:14:43Z</time>
      </trkpt>
      <trkpt lat="40.2332900" lon="-3.7987600">
        <ele>678.4</ele>
        <time>2019-04-28T15:14:44Z</time>
      </trkpt>
      <trkpt lat="40.2333180" lon="-3.7987160">
        <ele>678.4</ele>
        <time>2019-04-28T15:14:45Z</time>
      </trkpt>
      <trkpt lat="40.2333470" lon="-3.7986700">
        <ele>678.6</ele>
        <time>2019-04-28T15:14:46Z</time>
      </trkpt>
      <trkpt lat="40.2333770" lon="-3.7986250">
        <ele>678.8</ele>
        <time>2019-04-28T15:14:47Z</time>
      </trkpt>
      <trkpt lat="40.2334080" lon="-3.7985840">
        <ele>679.0</ele>
        <time>2019-04-28T15:14:48Z</time>
      </trkpt>
      <trkpt lat="40.2334380" lon="-3.7985440">
        <ele>679.2</ele>
        <time>2019-04-28T15:14:49Z</time>
      </trkpt>
      <trkpt lat="40.2334700" lon="-3.7985050">
        <ele>679.6</ele>
        <time>2019-04-28T15:14:50Z</time>
      </trkpt>
      <trkpt lat="40.2335040" lon="-3.7984650">
        <ele>679.8</ele>
        <time>2019-04-28T15:14:51Z</time>
      </trkpt>
      <trkpt lat="40.2335350" lon="-3.7984240">
        <ele>680.2</ele>
        <time>2019-04-28T15:14:52Z</time>
      </trkpt>
      <trkpt lat="40.2335650" lon="-3.7983840">
        <ele>680.2</ele>
        <time>2019-04-28T15:14:53Z</time>
      </trkpt>
      <trkpt lat="40.2335970" lon="-3.7983420">
        <ele>680.8</ele>
        <time>2019-04-28T15:14:54Z</time>
      </trkpt>
      <trkpt lat="40.2336260" lon="-3.7983000">
        <ele>681.0</ele>
        <time>2019-04-28T15:14:55Z</time>
      </trkpt>
      <trkpt lat="40.2336550" lon="-3.7982570">
        <ele>681.2</ele>
        <time>2019-04-28T15:14:56Z</time>
      </trkpt>
      <trkpt lat="40.2336820" lon="-3.7982130">
        <ele>681.4</ele>
        <time>2019-04-28T15:14:57Z</time>
      </trkpt>
      <trkpt lat="40.2337070" lon="-3.7981680">
        <ele>681.6</ele>
        <time>2019-04-28T15:14:58Z</time>
      </trkpt>
      <trkpt lat="40.2337330" lon="-3.7981240">
        <ele>682.0</ele>
        <time>2019-04-28T15:14:59Z</time>
      </trkpt>
      <trkpt lat="40.2337580" lon="-3.7980820">
        <ele>682.2</ele>
        <time>2019-04-28T15:15:00Z</time>
      </trkpt>
      <trkpt lat="40.2337850" lon="-3.7980390">
        <ele>682.6</ele>
        <time>2019-04-28T15:15:01Z</time>
      </trkpt>
      <trkpt lat="40.2338110" lon="-3.7979960">
        <ele>682.8</ele>
        <time>2019-04-28T15:15:02Z</time>
      </trkpt>
      <trkpt lat="40.2338370" lon="-3.7979530">
        <ele>683.2</ele>
        <time>2019-04-28T15:15:03Z</time>
      </trkpt>
      <trkpt lat="40.2338610" lon="-3.7979120">
        <ele>683.4</ele>
        <time>2019-04-28T15:15:04Z</time>
      </trkpt>
      <trkpt lat="40.2338820" lon="-3.7978720">
        <ele>683.6</ele>
        <time>2019-04-28T15:15:05Z</time>
      </trkpt>
      <trkpt lat="40.2339060" lon="-3.7978320">
        <ele>684.0</ele>
        <time>2019-04-28T15:15:06Z</time>
      </trkpt>
      <trkpt lat="40.2339290" lon="-3.7977910">
        <ele>684.2</ele>
        <time>2019-04-28T15:15:07Z</time>
      </trkpt>
      <trkpt lat="40.2339520" lon="-3.7977500">
        <ele>684.6</ele>
        <time>2019-04-28T15:15:08Z</time>
      </trkpt>
      <trkpt lat="40.2339760" lon="-3.7977090">
        <ele>685.0</ele>
        <time>2019-04-28T15:15:09Z</time>
      </trkpt>
      <trkpt lat="40.2339990" lon="-3.7976680">
        <ele>685.2</ele>
        <time>2019-04-28T15:15:10Z</time>
      </trkpt>
      <trkpt lat="40.2340210" lon="-3.7976280">
        <ele>685.6</ele>
        <time>2019-04-28T15:15:11Z</time>
      </trkpt>
      <trkpt lat="40.2340420" lon="-3.7975880">
        <ele>685.8</ele>
        <time>2019-04-28T15:15:12Z</time>
      </trkpt>
      <trkpt lat="40.2340630" lon="-3.7975500">
        <ele>686.0</ele>
        <time>2019-04-28T15:15:13Z</time>
      </trkpt>
      <trkpt lat="40.2340850" lon="-3.7975110">
        <ele>686.4</ele>
        <time>2019-04-28T15:15:14Z</time>
      </trkpt>
      <trkpt lat="40.2341080" lon="-3.7974740">
        <ele>686.6</ele>
        <time>2019-04-28T15:15:15Z</time>
      </trkpt>
      <trkpt lat="40.2341300" lon="-3.7974390">
        <ele>686.8</ele>
        <time>2019-04-28T15:15:16Z</time>
      </trkpt>
      <trkpt lat="40.2341540" lon="-3.7974070">
        <ele>687.0</ele>
        <time>2019-04-28T15:15:17Z</time>
      </trkpt>
      <trkpt lat="40.2341790" lon="-3.7973760">
        <ele>687.2</ele>
        <time>2019-04-28T15:15:18Z</time>
      </trkpt>
      <trkpt lat="40.2342030" lon="-3.7973450">
        <ele>687.4</ele>
        <time>2019-04-28T15:15:19Z</time>
      </trkpt>
      <trkpt lat="40.2342280" lon="-3.7973120">
        <ele>687.8</ele>
        <time>2019-04-28T15:15:20Z</time>
      </trkpt>
      <trkpt lat="40.2342570" lon="-3.7972760">
        <ele>688.0</ele>
        <time>2019-04-28T15:15:21Z</time>
      </trkpt>
      <trkpt lat="40.2342850" lon="-3.7972410">
        <ele>688.2</ele>
        <time>2019-04-28T15:15:22Z</time>
      </trkpt>
      <trkpt lat="40.2343140" lon="-3.7972040">
        <ele>688.4</ele>
        <time>2019-04-28T15:15:23Z</time>
      </trkpt>
      <trkpt lat="40.2343440" lon="-3.7971680">
        <ele>688.6</ele>
        <time>2019-04-28T15:15:24Z</time>
      </trkpt>
      <trkpt lat="40.2343730" lon="-3.7971310">
        <ele>688.6</ele>
        <time>2019-04-28T15:15:25Z</time>
      </trkpt>
      <trkpt lat="40.2344010" lon="-3.7970920">
        <ele>688.8</ele>
        <time>2019-04-28T15:15:26Z</time>
      </trkpt>
      <trkpt lat="40.2344300" lon="-3.7970530">
        <ele>689.0</ele>
        <time>2019-04-28T15:15:27Z</time>
      </trkpt>
      <trkpt lat="40.2344590" lon="-3.7970150">
        <ele>689.2</ele>
        <time>2019-04-28T15:15:28Z</time>
      </trkpt>
      <trkpt lat="40.2344880" lon="-3.7969770">
        <ele>689.4</ele>
        <time>2019-04-28T15:15:29Z</time>
      </trkpt>
      <trkpt lat="40.2345150" lon="-3.7969370">
        <ele>689.6</ele>
        <time>2019-04-28T15:15:30Z</time>
      </trkpt>
      <trkpt lat="40.2345440" lon="-3.7968990">
        <ele>689.6</ele>
        <time>2019-04-28T15:15:31Z</time>
      </trkpt>
      <trkpt lat="40.2345720" lon="-3.7968590">
        <ele>689.8</ele>
        <time>2019-04-28T15:15:32Z</time>
      </trkpt>
      <trkpt lat="40.2345970" lon="-3.7968170">
        <ele>690.0</ele>
        <time>2019-04-28T15:15:33Z</time>
      </trkpt>
      <trkpt lat="40.2346220" lon="-3.7967730">
        <ele>690.2</ele>
        <time>2019-04-28T15:15:34Z</time>
      </trkpt>
      <trkpt lat="40.2346460" lon="-3.7967260">
        <ele>690.2</ele>
        <time>2019-04-28T15:15:35Z</time>
      </trkpt>
      <trkpt lat="40.2346690" lon="-3.7966770">
        <ele>690.4</ele>
        <time>2019-04-28T15:15:36Z</time>
      </trkpt>
      <trkpt lat="40.2346890" lon="-3.7966240">
        <ele>690.4</ele>
        <time>2019-04-28T15:15:37Z</time>
      </trkpt>
      <trkpt lat="40.2347090" lon="-3.7965680">
        <ele>690.4</ele>
        <time>2019-04-28T15:15:38Z</time>
      </trkpt>
      <trkpt lat="40.2347260" lon="-3.7965110">
        <ele>690.4</ele>
        <time>2019-04-28T15:15:39Z</time>
      </trkpt>
      <trkpt lat="40.2347400" lon="-3.7964520">
        <ele>690.6</ele>
        <time>2019-04-28T15:15:40Z</time>
      </trkpt>
      <trkpt lat="40.2347530" lon="-3.7963950">
        <ele>690.6</ele>
        <time>2019-04-28T15:15:41Z</time>
      </trkpt>
      <trkpt lat="40.2347660" lon="-3.7963380">
        <ele>690.4</ele>
        <time>2019-04-28T15:15:42Z</time>
      </trkpt>
      <trkpt lat="40.2347790" lon="-3.7962820">
        <ele>690.6</ele>
        <time>2019-04-28T15:15:43Z</time>
      </trkpt>
      <trkpt lat="40.2347880" lon="-3.7962230">
        <ele>690.6</ele>
        <time>2019-04-28T15:15:44Z</time>
      </trkpt>
      <trkpt lat="40.2347940" lon="-3.7961610">
        <ele>690.6</ele>
        <time>2019-04-28T15:15:45Z</time>
      </trkpt>
      <trkpt lat="40.2348030" lon="-3.7960970">
        <ele>690.6</ele>
        <time>2019-04-28T15:15:46Z</time>
      </trkpt>
      <trkpt lat="40.2348140" lon="-3.7960330">
        <ele>690.6</ele>
        <time>2019-04-28T15:15:47Z</time>
      </trkpt>
      <trkpt lat="40.2348250" lon="-3.7959670">
        <ele>690.6</ele>
        <time>2019-04-28T15:15:48Z</time>
      </trkpt>
      <trkpt lat="40.2348390" lon="-3.7959010">
        <ele>690.6</ele>
        <time>2019-04-28T15:15:49Z</time>
      </trkpt>
      <trkpt lat="40.2348520" lon="-3.7958340">
        <ele>690.4</ele>
        <time>2019-04-28T15:15:50Z</time>
      </trkpt>
      <trkpt lat="40.2348630" lon="-3.7957670">
        <ele>690.6</ele>
        <time>2019-04-28T15:15:51Z</time>
      </trkpt>
      <trkpt lat="40.2348740" lon="-3.7957020">
        <ele>690.6</ele>
        <time>2019-04-28T15:15:52Z</time>
      </trkpt>
      <trkpt lat="40.2348800" lon="-3.7956370">
        <ele>690.4</ele>
        <time>2019-04-28T15:15:53Z</time>
      </trkpt>
      <trkpt lat="40.2348840" lon="-3.7955680">
        <ele>690.4</ele>
        <time>2019-04-28T15:15:54Z</time>
      </trkpt>
      <trkpt lat="40.2348850" lon="-3.7955000">
        <ele>690.0</ele>
        <time>2019-04-28T15:15:55Z</time>
      </trkpt>
      <trkpt lat="40.2348850" lon="-3.7954290">
        <ele>689.6</ele>
        <time>2019-04-28T15:15:56Z</time>
      </trkpt>
      <trkpt lat="40.2348860" lon="-3.7953570">
        <ele>689.6</ele>
        <time>2019-04-28T15:15:57Z</time>
      </trkpt>
      <trkpt lat="40.2348900" lon="-3.7952870">
        <ele>689.8</ele>
        <time>2019-04-28T15:15:58Z</time>
      </trkpt>
      <trkpt lat="40.2349040" lon="-3.7952220">
        <ele>689.8</ele>
        <time>2019-04-28T15:15:59Z</time>
      </trkpt>
      <trkpt lat="40.2349210" lon="-3.7951590">
        <ele>689.6</ele>
        <time>2019-04-28T15:16:00Z</time>
      </trkpt>
      <trkpt lat="40.2349360" lon="-3.7950940">
        <ele>689.4</ele>
        <time>2019-04-28T15:16:01Z</time>
      </trkpt>
      <trkpt lat="40.2349470" lon="-3.7950260">
        <ele>689.4</ele>
        <time>2019-04-28T15:16:02Z</time>
      </trkpt>
      <trkpt lat="40.2349510" lon="-3.7949570">
        <ele>689.8</ele>
        <time>2019-04-28T15:16:03Z</time>
      </trkpt>
      <trkpt lat="40.2349520" lon="-3.7948870">
        <ele>689.6</ele>
        <time>2019-04-28T15:16:04Z</time>
      </trkpt>
      <trkpt lat="40.2349530" lon="-3.7948170">
        <ele>689.8</ele>
        <time>2019-04-28T15:16:05Z</time>
      </trkpt>
      <trkpt lat="40.2349540" lon="-3.7947450">
        <ele>689.6</ele>
        <time>2019-04-28T15:16:06Z</time>
      </trkpt>
      <trkpt lat="40.2349590" lon="-3.7946730">
        <ele>689.6</ele>
        <time>2019-04-28T15:16:07Z</time>
      </trkpt>
      <trkpt lat="40.2349670" lon="-3.7946020">
        <ele>689.6</ele>
        <time>2019-04-28T15:16:08Z</time>
      </trkpt>
      <trkpt lat="40.2349760" lon="-3.7945330">
        <ele>689.6</ele>
        <time>2019-04-28T15:16:09Z</time>
      </trkpt>
      <trkpt lat="40.2349800" lon="-3.7944640">
        <ele>689.6</ele>
        <time>2019-04-28T15:16:10Z</time>
      </trkpt>
      <trkpt lat="40.2349800" lon="-3.7943940">
        <ele>689.4</ele>
        <time>2019-04-28T15:16:11Z</time>
      </trkpt>
      <trkpt lat="40.2349800" lon="-3.7943250">
        <ele>689.6</ele>
        <time>2019-04-28T15:16:12Z</time>
      </trkpt>
      <trkpt lat="40.2349830" lon="-3.7942550">
        <ele>689.6</ele>
        <time>2019-04-28T15:16:13Z</time>
      </trkpt>
      <trkpt lat="40.2349860" lon="-3.7941850">
        <ele>689.6</ele>
        <time>2019-04-28T15:16:14Z</time>
      </trkpt>
      <trkpt lat="40.2349890" lon="-3.7941140">
        <ele>689.6</ele>
        <time>2019-04-28T15:16:15Z</time>
      </trkpt>
      <trkpt lat="40.2349920" lon="-3.7940430">
        <ele>689.6</ele>
        <time>2019-04-28T15:16:16Z</time>
      </trkpt>
      <trkpt lat="40.2349980" lon="-3.7939710">
        <ele>689.6</ele>
        <time>2019-04-28T15:16:17Z</time>
      </trkpt>
      <trkpt lat="40.2350070" lon="-3.7938970">
        <ele>689.6</ele>
        <time>2019-04-28T15:16:18Z</time>
      </trkpt>
      <trkpt lat="40.2350180" lon="-3.7938220">
        <ele>689.6</ele>
        <time>2019-04-28T15:16:19Z</time>
      </trkpt>
      <trkpt lat="40.2350320" lon="-3.7937470">
        <ele>689.6</ele>
        <time>2019-04-28T15:16:20Z</time>
      </trkpt>
      <trkpt lat="40.2350470" lon="-3.7936710">
        <ele>689.6</ele>
        <time>2019-04-28T15:16:21Z</time>
      </trkpt>
      <trkpt lat="40.2350590" lon="-3.7935960">
        <ele>689.2</ele>
        <time>2019-04-28T15:16:22Z</time>
      </trkpt>
      <trkpt lat="40.2350710" lon="-3.7935230">
        <ele>689.2</ele>
        <time>2019-04-28T15:16:23Z</time>
      </trkpt>
      <trkpt lat="40.2350850" lon="-3.7934500">
        <ele>689.2</ele>
        <time>2019-04-28T15:16:24Z</time>
      </trkpt>
      <trkpt lat="40.2350970" lon="-3.7933800">
        <ele>689.0</ele>
        <time>2019-04-28T15:16:25Z</time>
      </trkpt>
      <trkpt lat="40.2351090" lon="-3.7933110">
        <ele>689.2</ele>
        <time>2019-04-28T15:16:26Z</time>
      </trkpt>
      <trkpt lat="40.2351250" lon="-3.7932460">
        <ele>689.4</ele>
        <time>2019-04-28T15:16:27Z</time>
      </trkpt>
      <trkpt lat="40.2351410" lon="-3.7931820">
        <ele>689.4</ele>
        <time>2019-04-28T15:16:28Z</time>
      </trkpt>
      <trkpt lat="40.2351560" lon="-3.7931180">
        <ele>689.4</ele>
        <time>2019-04-28T15:16:29Z</time>
      </trkpt>
      <trkpt lat="40.2351660" lon="-3.7930530">
        <ele>689.2</ele>
        <time>2019-04-28T15:16:30Z</time>
      </trkpt>
      <trkpt lat="40.2351780" lon="-3.7929890">
        <ele>689.2</ele>
        <time>2019-04-28T15:16:31Z</time>
      </trkpt>
      <trkpt lat="40.2351940" lon="-3.7929280">
        <ele>689.0</ele>
        <time>2019-04-28T15:16:32Z</time>
      </trkpt>
      <trkpt lat="40.2352100" lon="-3.7928680">
        <ele>689.2</ele>
        <time>2019-04-28T15:16:33Z</time>
      </trkpt>
      <trkpt lat="40.2352250" lon="-3.7928070">
        <ele>689.2</ele>
        <time>2019-04-28T15:16:34Z</time>
      </trkpt>
      <trkpt lat="40.2352380" lon="-3.7927460">
        <ele>689.2</ele>
        <time>2019-04-28T15:16:35Z</time>
      </trkpt>
      <trkpt lat="40.2352500" lon="-3.7926850">
        <ele>689.2</ele>
        <time>2019-04-28T15:16:36Z</time>
      </trkpt>
      <trkpt lat="40.2352620" lon="-3.7926260">
        <ele>689.2</ele>
        <time>2019-04-28T15:16:37Z</time>
      </trkpt>
      <trkpt lat="40.2352730" lon="-3.7925680">
        <ele>689.2</ele>
        <time>2019-04-28T15:16:38Z</time>
      </trkpt>
      <trkpt lat="40.2352830" lon="-3.7925090">
        <ele>689.2</ele>
        <time>2019-04-28T15:16:39Z</time>
      </trkpt>
      <trkpt lat="40.2352930" lon="-3.7924480">
        <ele>689.2</ele>
        <time>2019-04-28T15:16:40Z</time>
      </trkpt>
      <trkpt lat="40.2353060" lon="-3.7923880">
        <ele>689.2</ele>
        <time>2019-04-28T15:16:41Z</time>
      </trkpt>
      <trkpt lat="40.2353200" lon="-3.7923270">
        <ele>689.2</ele>
        <time>2019-04-28T15:16:42Z</time>
      </trkpt>
      <trkpt lat="40.2353380" lon="-3.7922670">
        <ele>689.0</ele>
        <time>2019-04-28T15:16:43Z</time>
      </trkpt>
      <trkpt lat="40.2353560" lon="-3.7922050">
        <ele>689.0</ele>
        <time>2019-04-28T15:16:44Z</time>
      </trkpt>
      <trkpt lat="40.2353660" lon="-3.7921420">
        <ele>689.0</ele>
        <time>2019-04-28T15:16:45Z</time>
      </trkpt>
      <trkpt lat="40.2353710" lon="-3.7920820">
        <ele>689.2</ele>
        <time>2019-04-28T15:16:46Z</time>
      </trkpt>
      <trkpt lat="40.2353710" lon="-3.7920250">
        <ele>689.0</ele>
        <time>2019-04-28T15:16:47Z</time>
      </trkpt>
      <trkpt lat="40.2353720" lon="-3.7919710">
        <ele>688.8</ele>
        <time>2019-04-28T15:16:48Z</time>
      </trkpt>
      <trkpt lat="40.2353740" lon="-3.7919230">
        <ele>688.8</ele>
        <time>2019-04-28T15:16:49Z</time>
      </trkpt>
      <trkpt lat="40.2353730" lon="-3.7918800">
        <ele>688.8</ele>
        <time>2019-04-28T15:16:50Z</time>
      </trkpt>
      <trkpt lat="40.2353630" lon="-3.7918360">
        <ele>688.8</ele>
        <time>2019-04-28T15:16:51Z</time>
      </trkpt>
      <trkpt lat="40.2353420" lon="-3.7917980">
        <ele>688.6</ele>
        <time>2019-04-28T15:16:52Z</time>
      </trkpt>
      <trkpt lat="40.2353100" lon="-3.7917670">
        <ele>688.4</ele>
        <time>2019-04-28T15:16:53Z</time>
      </trkpt>
      <trkpt lat="40.2352720" lon="-3.7917360">
        <ele>688.4</ele>
        <time>2019-04-28T15:16:54Z</time>
      </trkpt>
      <trkpt lat="40.2352250" lon="-3.7917080">
        <ele>688.4</ele>
        <time>2019-04-28T15:16:55Z</time>
      </trkpt>
      <trkpt lat="40.2351740" lon="-3.7916850">
        <ele>688.6</ele>
        <time>2019-04-28T15:16:56Z</time>
      </trkpt>
      <trkpt lat="40.2351240" lon="-3.7916630">
        <ele>688.8</ele>
        <time>2019-04-28T15:16:57Z</time>
      </trkpt>
      <trkpt lat="40.2350760" lon="-3.7916360">
        <ele>688.6</ele>
        <time>2019-04-28T15:16:58Z</time>
      </trkpt>
      <trkpt lat="40.2350300" lon="-3.7916060">
        <ele>688.6</ele>
        <time>2019-04-28T15:16:59Z</time>
      </trkpt>
      <trkpt lat="40.2349830" lon="-3.7915800">
        <ele>688.6</ele>
        <time>2019-04-28T15:17:00Z</time>
      </trkpt>
      <trkpt lat="40.2349370" lon="-3.7915550">
        <ele>688.6</ele>
        <time>2019-04-28T15:17:01Z</time>
      </trkpt>
      <trkpt lat="40.2348950" lon="-3.7915290">
        <ele>688.6</ele>
        <time>2019-04-28T15:17:02Z</time>
      </trkpt>
      <trkpt lat="40.2348550" lon="-3.7915000">
        <ele>688.4</ele>
        <time>2019-04-28T15:17:03Z</time>
      </trkpt>
      <trkpt lat="40.2348150" lon="-3.7914700">
        <ele>688.4</ele>
        <time>2019-04-28T15:17:04Z</time>
      </trkpt>
      <trkpt lat="40.2347760" lon="-3.7914410">
        <ele>688.2</ele>
        <time>2019-04-28T15:17:05Z</time>
      </trkpt>
      <trkpt lat="40.2347370" lon="-3.7914110">
        <ele>688.2</ele>
        <time>2019-04-28T15:17:06Z</time>
      </trkpt>
      <trkpt lat="40.2346980" lon="-3.7913820">
        <ele>688.2</ele>
        <time>2019-04-28T15:17:07Z</time>
      </trkpt>
      <trkpt lat="40.2346600" lon="-3.7913490">
        <ele>688.0</ele>
        <time>2019-04-28T15:17:08Z</time>
      </trkpt>
      <trkpt lat="40.2346200" lon="-3.7913180">
        <ele>688.0</ele>
        <time>2019-04-28T15:17:09Z</time>
      </trkpt>
      <trkpt lat="40.2345840" lon="-3.7912840">
        <ele>687.8</ele>
        <time>2019-04-28T15:17:10Z</time>
      </trkpt>
      <trkpt lat="40.2345470" lon="-3.7912490">
        <ele>687.6</ele>
        <time>2019-04-28T15:17:11Z</time>
      </trkpt>
      <trkpt lat="40.2345090" lon="-3.7912210">
        <ele>687.6</ele>
        <time>2019-04-28T15:17:12Z</time>
      </trkpt>
      <trkpt lat="40.2344710" lon="-3.7911930">
        <ele>687.6</ele>
        <time>2019-04-28T15:17:13Z</time>
      </trkpt>
      <trkpt lat="40.2344340" lon="-3.7911650">
        <ele>687.4</ele>
        <time>2019-04-28T15:17:14Z</time>
      </trkpt>
      <trkpt lat="40.2343970" lon="-3.7911370">
        <ele>687.4</ele>
        <time>2019-04-28T15:17:15Z</time>
      </trkpt>
      <trkpt lat="40.2343580" lon="-3.7911080">
        <ele>687.6</ele>
        <time>2019-04-28T15:17:16Z</time>
      </trkpt>
      <trkpt lat="40.2343210" lon="-3.7910790">
        <ele>687.4</ele>
        <time>2019-04-28T15:17:17Z</time>
      </trkpt>
      <trkpt lat="40.2342840" lon="-3.7910500">
        <ele>687.6</ele>
        <time>2019-04-28T15:17:18Z</time>
      </trkpt>
      <trkpt lat="40.2342450" lon="-3.7910230">
        <ele>687.4</ele>
        <time>2019-04-28T15:17:19Z</time>
      </trkpt>
      <trkpt lat="40.2342050" lon="-3.7909940">
        <ele>687.2</ele>
        <time>2019-04-28T15:17:20Z</time>
      </trkpt>
      <trkpt lat="40.2341650" lon="-3.7909640">
        <ele>687.0</ele>
        <time>2019-04-28T15:17:21Z</time>
      </trkpt>
      <trkpt lat="40.2341240" lon="-3.7909340">
        <ele>686.8</ele>
        <time>2019-04-28T15:17:22Z</time>
      </trkpt>
      <trkpt lat="40.2340830" lon="-3.7909070">
        <ele>686.8</ele>
        <time>2019-04-28T15:17:23Z</time>
      </trkpt>
      <trkpt lat="40.2340420" lon="-3.7908780">
        <ele>686.8</ele>
        <time>2019-04-28T15:17:24Z</time>
      </trkpt>
      <trkpt lat="40.2340010" lon="-3.7908490">
        <ele>686.6</ele>
        <time>2019-04-28T15:17:25Z</time>
      </trkpt>
      <trkpt lat="40.2339600" lon="-3.7908220">
        <ele>686.6</ele>
        <time>2019-04-28T15:17:26Z</time>
      </trkpt>
      <trkpt lat="40.2339200" lon="-3.7907920">
        <ele>686.4</ele>
        <time>2019-04-28T15:17:27Z</time>
      </trkpt>
      <trkpt lat="40.2338800" lon="-3.7907590">
        <ele>686.4</ele>
        <time>2019-04-28T15:17:28Z</time>
      </trkpt>
      <trkpt lat="40.2338380" lon="-3.7907300">
        <ele>686.2</ele>
        <time>2019-04-28T15:17:29Z</time>
      </trkpt>
      <trkpt lat="40.2337940" lon="-3.7907030">
        <ele>686.2</ele>
        <time>2019-04-28T15:17:30Z</time>
      </trkpt>
      <trkpt lat="40.2337500" lon="-3.7906770">
        <ele>686.0</ele>
        <time>2019-04-28T15:17:31Z</time>
      </trkpt>
      <trkpt lat="40.2337060" lon="-3.7906540">
        <ele>686.0</ele>
        <time>2019-04-28T15:17:32Z</time>
      </trkpt>
      <trkpt lat="40.2336600" lon="-3.7906300">
        <ele>685.8</ele>
        <time>2019-04-28T15:17:33Z</time>
      </trkpt>
      <trkpt lat="40.2336120" lon="-3.7906050">
        <ele>685.8</ele>
        <time>2019-04-28T15:17:34Z</time>
      </trkpt>
      <trkpt lat="40.2335650" lon="-3.7905790">
        <ele>685.8</ele>
        <time>2019-04-28T15:17:35Z</time>
      </trkpt>
      <trkpt lat="40.2335180" lon="-3.7905540">
        <ele>685.8</ele>
        <time>2019-04-28T15:17:36Z</time>
      </trkpt>
      <trkpt lat="40.2334710" lon="-3.7905290">
        <ele>685.6</ele>
        <time>2019-04-28T15:17:37Z</time>
      </trkpt>
      <trkpt lat="40.2334240" lon="-3.7905010">
        <ele>685.6</ele>
        <time>2019-04-28T15:17:38Z</time>
      </trkpt>
      <trkpt lat="40.2333760" lon="-3.7904710">
        <ele>685.6</ele>
        <time>2019-04-28T15:17:39Z</time>
      </trkpt>
      <trkpt lat="40.2333270" lon="-3.7904380">
        <ele>685.4</ele>
        <time>2019-04-28T15:17:40Z</time>
      </trkpt>
      <trkpt lat="40.2332790" lon="-3.7904050">
        <ele>685.4</ele>
        <time>2019-04-28T15:17:41Z</time>
      </trkpt>
      <trkpt lat="40.2332310" lon="-3.7903710">
        <ele>685.2</ele>
        <time>2019-04-28T15:17:42Z</time>
      </trkpt>
      <trkpt lat="40.2331840" lon="-3.7903360">
        <ele>685.2</ele>
        <time>2019-04-28T15:17:43Z</time>
      </trkpt>
      <trkpt lat="40.2331370" lon="-3.7902990">
        <ele>685.0</ele>
        <time>2019-04-28T15:17:44Z</time>
      </trkpt>
      <trkpt lat="40.2330910" lon="-3.7902610">
        <ele>685.0</ele>
        <time>2019-04-28T15:17:45Z</time>
      </trkpt>
      <trkpt lat="40.2330450" lon="-3.7902260">
        <ele>684.8</ele>
        <time>2019-04-28T15:17:46Z</time>
      </trkpt>
      <trkpt lat="40.2330020" lon="-3.7901930">
        <ele>684.8</ele>
        <time>2019-04-28T15:17:47Z</time>
      </trkpt>
      <trkpt lat="40.2329600" lon="-3.7901600">
        <ele>684.6</ele>
        <time>2019-04-28T15:17:48Z</time>
      </trkpt>
      <trkpt lat="40.2329180" lon="-3.7901290">
        <ele>684.4</ele>
        <time>2019-04-28T15:17:49Z</time>
      </trkpt>
      <trkpt lat="40.2328750" lon="-3.7900920">
        <ele>684.4</ele>
        <time>2019-04-28T15:17:50Z</time>
      </trkpt>
      <trkpt lat="40.2328340" lon="-3.7900560">
        <ele>684.6</ele>
        <time>2019-04-28T15:17:51Z</time>
      </trkpt>
      <trkpt lat="40.2327910" lon="-3.7900200">
        <ele>684.4</ele>
        <time>2019-04-28T15:17:52Z</time>
      </trkpt>
      <trkpt lat="40.2327480" lon="-3.7899830">
        <ele>684.4</ele>
        <time>2019-04-28T15:17:53Z</time>
      </trkpt>
      <trkpt lat="40.2327030" lon="-3.7899430">
        <ele>684.2</ele>
        <time>2019-04-28T15:17:54Z</time>
      </trkpt>
      <trkpt lat="40.2326590" lon="-3.7899040">
        <ele>684.2</ele>
        <time>2019-04-28T15:17:55Z</time>
      </trkpt>
      <trkpt lat="40.2326150" lon="-3.7898670">
        <ele>684.0</ele>
        <time>2019-04-28T15:17:56Z</time>
      </trkpt>
      <trkpt lat="40.2325720" lon="-3.7898270">
        <ele>683.8</ele>
        <time>2019-04-28T15:17:57Z</time>
      </trkpt>
      <trkpt lat="40.2325270" lon="-3.7897880">
        <ele>683.6</ele>
        <time>2019-04-28T15:17:58Z</time>
      </trkpt>
      <trkpt lat="40.2324850" lon="-3.7897510">
        <ele>683.6</ele>
        <time>2019-04-28T15:17:59Z</time>
      </trkpt>
      <trkpt lat="40.2324410" lon="-3.7897120">
        <ele>683.2</ele>
        <time>2019-04-28T15:18:00Z</time>
      </trkpt>
      <trkpt lat="40.2323920" lon="-3.7896680">
        <ele>683.0</ele>
        <time>2019-04-28T15:18:01Z</time>
      </trkpt>
      <trkpt lat="40.2323450" lon="-3.7896240">
        <ele>682.8</ele>
        <time>2019-04-28T15:18:02Z</time>
      </trkpt>
      <trkpt lat="40.2322980" lon="-3.7895800">
        <ele>682.8</ele>
        <time>2019-04-28T15:18:03Z</time>
      </trkpt>
      <trkpt lat="40.2322490" lon="-3.7895380">
        <ele>682.8</ele>
        <time>2019-04-28T15:18:04Z</time>
      </trkpt>
      <trkpt lat="40.2322050" lon="-3.7894930">
        <ele>682.6</ele>
        <time>2019-04-28T15:18:05Z</time>
      </trkpt>
      <trkpt lat="40.2321640" lon="-3.7894460">
        <ele>682.4</ele>
        <time>2019-04-28T15:18:06Z</time>
      </trkpt>
      <trkpt lat="40.2321250" lon="-3.7893930">
        <ele>682.4</ele>
        <time>2019-04-28T15:18:07Z</time>
      </trkpt>
      <trkpt lat="40.2320930" lon="-3.7893410">
        <ele>682.2</ele>
        <time>2019-04-28T15:18:08Z</time>
      </trkpt>
      <trkpt lat="40.2320580" lon="-3.7892860">
        <ele>682.2</ele>
        <time>2019-04-28T15:18:09Z</time>
      </trkpt>
      <trkpt lat="40.2320220" lon="-3.7892270">
        <ele>682.2</ele>
        <time>2019-04-28T15:18:10Z</time>
      </trkpt>
      <trkpt lat="40.2319850" lon="-3.7891680">
        <ele>682.0</ele>
        <time>2019-04-28T15:18:11Z</time>
      </trkpt>
      <trkpt lat="40.2319480" lon="-3.7891080">
        <ele>682.0</ele>
        <time>2019-04-28T15:18:12Z</time>
      </trkpt>
      <trkpt lat="40.2319140" lon="-3.7890500">
        <ele>682.0</ele>
        <time>2019-04-28T15:18:13Z</time>
      </trkpt>
      <trkpt lat="40.2318800" lon="-3.7889920">
        <ele>681.8</ele>
        <time>2019-04-28T15:18:14Z</time>
      </trkpt>
      <trkpt lat="40.2318430" lon="-3.7889360">
        <ele>681.8</ele>
        <time>2019-04-28T15:18:15Z</time>
      </trkpt>
      <trkpt lat="40.2318080" lon="-3.7888810">
        <ele>682.0</ele>
        <time>2019-04-28T15:18:16Z</time>
      </trkpt>
      <trkpt lat="40.2317760" lon="-3.7888210">
        <ele>682.0</ele>
        <time>2019-04-28T15:18:17Z</time>
      </trkpt>
      <trkpt lat="40.2317410" lon="-3.7887630">
        <ele>682.0</ele>
        <time>2019-04-28T15:18:18Z</time>
      </trkpt>
      <trkpt lat="40.2317050" lon="-3.7887070">
        <ele>681.8</ele>
        <time>2019-04-28T15:18:19Z</time>
      </trkpt>
      <trkpt lat="40.2316690" lon="-3.7886480">
        <ele>681.6</ele>
        <time>2019-04-28T15:18:20Z</time>
      </trkpt>
      <trkpt lat="40.2316330" lon="-3.7885890">
        <ele>681.6</ele>
        <time>2019-04-28T15:18:21Z</time>
      </trkpt>
      <trkpt lat="40.2315980" lon="-3.7885270">
        <ele>681.4</ele>
        <time>2019-04-28T15:18:22Z</time>
      </trkpt>
      <trkpt lat="40.2315640" lon="-3.7884650">
        <ele>681.4</ele>
        <time>2019-04-28T15:18:23Z</time>
      </trkpt>
      <trkpt lat="40.2315280" lon="-3.7884050">
        <ele>681.6</ele>
        <time>2019-04-28T15:18:24Z</time>
      </trkpt>
      <trkpt lat="40.2314940" lon="-3.7883450">
        <ele>681.2</ele>
        <time>2019-04-28T15:18:25Z</time>
      </trkpt>
      <trkpt lat="40.2314590" lon="-3.7882860">
        <ele>681.2</ele>
        <time>2019-04-28T15:18:26Z</time>
      </trkpt>
      <trkpt lat="40.2314250" lon="-3.7882280">
        <ele>681.0</ele>
        <time>2019-04-28T15:18:27Z</time>
      </trkpt>
      <trkpt lat="40.2313920" lon="-3.7881700">
        <ele>680.8</ele>
        <time>2019-04-28T15:18:28Z</time>
      </trkpt>
      <trkpt lat="40.2313570" lon="-3.7881120">
        <ele>680.6</ele>
        <time>2019-04-28T15:18:29Z</time>
      </trkpt>
      <trkpt lat="40.2313240" lon="-3.7880560">
        <ele>680.6</ele>
        <time>2019-04-28T15:18:30Z</time>
      </trkpt>
      <trkpt lat="40.2312910" lon="-3.7880010">
        <ele>680.4</ele>
        <time>2019-04-28T15:18:31Z</time>
      </trkpt>
      <trkpt lat="40.2312540" lon="-3.7879480">
        <ele>680.4</ele>
        <time>2019-04-28T15:18:32Z</time>
      </trkpt>
      <trkpt lat="40.2312160" lon="-3.7878970">
        <ele>680.2</ele>
        <time>2019-04-28T15:18:33Z</time>
      </trkpt>
      <trkpt lat="40.2311790" lon="-3.7878440">
        <ele>680.0</ele>
        <time>2019-04-28T15:18:34Z</time>
      </trkpt>
      <trkpt lat="40.2311390" lon="-3.7877940">
        <ele>680.0</ele>
        <time>2019-04-28T15:18:35Z</time>
      </trkpt>
      <trkpt lat="40.2311010" lon="-3.7877440">
        <ele>679.8</ele>
        <time>2019-04-28T15:18:36Z</time>
      </trkpt>
      <trkpt lat="40.2310640" lon="-3.7876940">
        <ele>679.6</ele>
        <time>2019-04-28T15:18:37Z</time>
      </trkpt>
      <trkpt lat="40.2310260" lon="-3.7876420">
        <ele>679.4</ele>
        <time>2019-04-28T15:18:38Z</time>
      </trkpt>
      <trkpt lat="40.2309890" lon="-3.7875910">
        <ele>679.2</ele>
        <time>2019-04-28T15:18:39Z</time>
      </trkpt>
      <trkpt lat="40.2309510" lon="-3.7875410">
        <ele>679.0</ele>
        <time>2019-04-28T15:18:40Z</time>
      </trkpt>
      <trkpt lat="40.2309130" lon="-3.7874890">
        <ele>679.0</ele>
        <time>2019-04-28T15:18:41Z</time>
      </trkpt>
      <trkpt lat="40.2308760" lon="-3.7874380">
        <ele>678.8</ele>
        <time>2019-04-28T15:18:42Z</time>
      </trkpt>
      <trkpt lat="40.2308390" lon="-3.7873880">
        <ele>678.8</ele>
        <time>2019-04-28T15:18:43Z</time>
      </trkpt>
      <trkpt lat="40.2308030" lon="-3.7873350">
        <ele>678.8</ele>
        <time>2019-04-28T15:18:44Z</time>
      </trkpt>
      <trkpt lat="40.2307680" lon="-3.7872830">
        <ele>678.8</ele>
        <time>2019-04-28T15:18:45Z</time>
      </trkpt>
      <trkpt lat="40.2307340" lon="-3.7872290">
        <ele>678.6</ele>
        <time>2019-04-28T15:18:46Z</time>
      </trkpt>
      <trkpt lat="40.2307000" lon="-3.7871770">
        <ele>678.6</ele>
        <time>2019-04-28T15:18:47Z</time>
      </trkpt>
      <trkpt lat="40.2306640" lon="-3.7871270">
        <ele>678.4</ele>
        <time>2019-04-28T15:18:48Z</time>
      </trkpt>
      <trkpt lat="40.2306270" lon="-3.7870810">
        <ele>678.4</ele>
        <time>2019-04-28T15:18:49Z</time>
      </trkpt>
      <trkpt lat="40.2305930" lon="-3.7870330">
        <ele>678.4</ele>
        <time>2019-04-28T15:18:50Z</time>
      </trkpt>
      <trkpt lat="40.2305600" lon="-3.7869860">
        <ele>678.2</ele>
        <time>2019-04-28T15:18:51Z</time>
      </trkpt>
      <trkpt lat="40.2305270" lon="-3.7869400">
        <ele>678.2</ele>
        <time>2019-04-28T15:18:52Z</time>
      </trkpt>
      <trkpt lat="40.2304970" lon="-3.7868900">
        <ele>678.0</ele>
        <time>2019-04-28T15:18:53Z</time>
      </trkpt>
      <trkpt lat="40.2304660" lon="-3.7868420">
        <ele>678.2</ele>
        <time>2019-04-28T15:18:54Z</time>
      </trkpt>
      <trkpt lat="40.2304350" lon="-3.7867950">
        <ele>678.0</ele>
        <time>2019-04-28T15:18:55Z</time>
      </trkpt>
      <trkpt lat="40.2304040" lon="-3.7867430">
        <ele>677.8</ele>
        <time>2019-04-28T15:18:56Z</time>
      </trkpt>
      <trkpt lat="40.2303710" lon="-3.7866930">
        <ele>677.6</ele>
        <time>2019-04-28T15:18:57Z</time>
      </trkpt>
      <trkpt lat="40.2303350" lon="-3.7866450">
        <ele>677.6</ele>
        <time>2019-04-28T15:18:58Z</time>
      </trkpt>
      <trkpt lat="40.2302980" lon="-3.7866000">
        <ele>677.6</ele>
        <time>2019-04-28T15:18:59Z</time>
      </trkpt>
      <trkpt lat="40.2302590" lon="-3.7865600">
        <ele>677.4</ele>
        <time>2019-04-28T15:19:00Z</time>
      </trkpt>
      <trkpt lat="40.2302210" lon="-3.7865300">
        <ele>677.4</ele>
        <time>2019-04-28T15:19:01Z</time>
      </trkpt>
      <trkpt lat="40.2301830" lon="-3.7865000">
        <ele>677.4</ele>
        <time>2019-04-28T15:19:02Z</time>
      </trkpt>
      <trkpt lat="40.2301420" lon="-3.7864710">
        <ele>677.2</ele>
        <time>2019-04-28T15:19:03Z</time>
      </trkpt>
      <trkpt lat="40.2301020" lon="-3.7864450">
        <ele>677.0</ele>
        <time>2019-04-28T15:19:04Z</time>
      </trkpt>
      <trkpt lat="40.2300580" lon="-3.7864190">
        <ele>677.2</ele>
        <time>2019-04-28T15:19:05Z</time>
      </trkpt>
      <trkpt lat="40.2300120" lon="-3.7863920">
        <ele>677.2</ele>
        <time>2019-04-28T15:19:06Z</time>
      </trkpt>
      <trkpt lat="40.2299670" lon="-3.7863630">
        <ele>677.2</ele>
        <time>2019-04-28T15:19:07Z</time>
      </trkpt>
      <trkpt lat="40.2299260" lon="-3.7863410">
        <ele>677.0</ele>
        <time>2019-04-28T15:19:08Z</time>
      </trkpt>
      <trkpt lat="40.2298830" lon="-3.7863220">
        <ele>677.0</ele>
        <time>2019-04-28T15:19:09Z</time>
      </trkpt>
      <trkpt lat="40.2298410" lon="-3.7863030">
        <ele>676.8</ele>
        <time>2019-04-28T15:19:10Z</time>
      </trkpt>
      <trkpt lat="40.2297990" lon="-3.7862850">
        <ele>676.8</ele>
        <time>2019-04-28T15:19:11Z</time>
      </trkpt>
      <trkpt lat="40.2297580" lon="-3.7862710">
        <ele>676.8</ele>
        <time>2019-04-28T15:19:12Z</time>
      </trkpt>
      <trkpt lat="40.2297120" lon="-3.7862540">
        <ele>676.8</ele>
        <time>2019-04-28T15:19:13Z</time>
      </trkpt>
      <trkpt lat="40.2296620" lon="-3.7862300">
        <ele>676.6</ele>
        <time>2019-04-28T15:19:14Z</time>
      </trkpt>
      <trkpt lat="40.2296120" lon="-3.7862000">
        <ele>676.6</ele>
        <time>2019-04-28T15:19:15Z</time>
      </trkpt>
      <trkpt lat="40.2295620" lon="-3.7861850">
        <ele>676.4</ele>
        <time>2019-04-28T15:19:16Z</time>
      </trkpt>
      <trkpt lat="40.2295110" lon="-3.7861650">
        <ele>676.4</ele>
        <time>2019-04-28T15:19:17Z</time>
      </trkpt>
      <trkpt lat="40.2294580" lon="-3.7861450">
        <ele>676.2</ele>
        <time>2019-04-28T15:19:18Z</time>
      </trkpt>
      <trkpt lat="40.2294040" lon="-3.7861250">
        <ele>676.2</ele>
        <time>2019-04-28T15:19:19Z</time>
      </trkpt>
      <trkpt lat="40.2293510" lon="-3.7861070">
        <ele>676.2</ele>
        <time>2019-04-28T15:19:20Z</time>
      </trkpt>
      <trkpt lat="40.2292970" lon="-3.7860860">
        <ele>676.2</ele>
        <time>2019-04-28T15:19:21Z</time>
      </trkpt>
      <trkpt lat="40.2292430" lon="-3.7860640">
        <ele>676.0</ele>
        <time>2019-04-28T15:19:22Z</time>
      </trkpt>
      <trkpt lat="40.2291880" lon="-3.7860430">
        <ele>675.8</ele>
        <time>2019-04-28T15:19:23Z</time>
      </trkpt>
      <trkpt lat="40.2291320" lon="-3.7860250">
        <ele>675.6</ele>
        <time>2019-04-28T15:19:24Z</time>
      </trkpt>
      <trkpt lat="40.2290770" lon="-3.7860060">
        <ele>675.4</ele>
        <time>2019-04-28T15:19:25Z</time>
      </trkpt>
      <trkpt lat="40.2290210" lon="-3.7859840">
        <ele>675.2</ele>
        <time>2019-04-28T15:19:26Z</time>
      </trkpt>
      <trkpt lat="40.2289650" lon="-3.7859630">
        <ele>675.2</ele>
        <time>2019-04-28T15:19:27Z</time>
      </trkpt>
      <trkpt lat="40.2289090" lon="-3.7859460">
        <ele>674.8</ele>
        <time>2019-04-28T15:19:28Z</time>
      </trkpt>
      <trkpt lat="40.2288520" lon="-3.7859290">
        <ele>675.0</ele>
        <time>2019-04-28T15:19:29Z</time>
      </trkpt>
      <trkpt lat="40.2287960" lon="-3.7859100">
        <ele>674.8</ele>
        <time>2019-04-28T15:19:30Z</time>
      </trkpt>
      <trkpt lat="40.2287420" lon="-3.7858940">
        <ele>674.8</ele>
        <time>2019-04-28T15:19:31Z</time>
      </trkpt>
      <trkpt lat="40.2286860" lon="-3.7858750">
        <ele>674.8</ele>
        <time>2019-04-28T15:19:32Z</time>
      </trkpt>
      <trkpt lat="40.2286300" lon="-3.7858600">
        <ele>674.4</ele>
        <time>2019-04-28T15:19:33Z</time>
      </trkpt>
      <trkpt lat="40.2285750" lon="-3.7858480">
        <ele>674.4</ele>
        <time>2019-04-28T15:19:34Z</time>
      </trkpt>
      <trkpt lat="40.2285200" lon="-3.7858350">
        <ele>674.4</ele>
        <time>2019-04-28T15:19:35Z</time>
      </trkpt>
      <trkpt lat="40.2284660" lon="-3.7858240">
        <ele>674.4</ele>
        <time>2019-04-28T15:19:36Z</time>
      </trkpt>
      <trkpt lat="40.2284160" lon="-3.7858110">
        <ele>674.2</ele>
        <time>2019-04-28T15:19:37Z</time>
      </trkpt>
      <trkpt lat="40.2283670" lon="-3.7857930">
        <ele>674.2</ele>
        <time>2019-04-28T15:19:38Z</time>
      </trkpt>
      <trkpt lat="40.2283200" lon="-3.7857720">
        <ele>674.0</ele>
        <time>2019-04-28T15:19:39Z</time>
      </trkpt>
      <trkpt lat="40.2282750" lon="-3.7857470">
        <ele>674.0</ele>
        <time>2019-04-28T15:19:40Z</time>
      </trkpt>
      <trkpt lat="40.2282300" lon="-3.7857180">
        <ele>674.0</ele>
        <time>2019-04-28T15:19:41Z</time>
      </trkpt>
      <trkpt lat="40.2281910" lon="-3.7856860">
        <ele>673.6</ele>
        <time>2019-04-28T15:19:42Z</time>
      </trkpt>
      <trkpt lat="40.2281480" lon="-3.7856530">
        <ele>673.2</ele>
        <time>2019-04-28T15:19:43Z</time>
      </trkpt>
      <trkpt lat="40.2281040" lon="-3.7856250">
        <ele>673.2</ele>
        <time>2019-04-28T15:19:44Z</time>
      </trkpt>
      <trkpt lat="40.2280530" lon="-3.7856030">
        <ele>673.0</ele>
        <time>2019-04-28T15:19:45Z</time>
      </trkpt>
      <trkpt lat="40.2279990" lon="-3.7855780">
        <ele>673.4</ele>
        <time>2019-04-28T15:19:46Z</time>
      </trkpt>
      <trkpt lat="40.2279430" lon="-3.7855560">
        <ele>673.4</ele>
        <time>2019-04-28T15:19:47Z</time>
      </trkpt>
      <trkpt lat="40.2278860" lon="-3.7855470">
        <ele>673.4</ele>
        <time>2019-04-28T15:19:48Z</time>
      </trkpt>
      <trkpt lat="40.2278290" lon="-3.7855380">
        <ele>673.2</ele>
        <time>2019-04-28T15:19:49Z</time>
      </trkpt>
      <trkpt lat="40.2277730" lon="-3.7855300">
        <ele>673.2</ele>
        <time>2019-04-28T15:19:50Z</time>
      </trkpt>
      <trkpt lat="40.2277180" lon="-3.7855220">
        <ele>673.0</ele>
        <time>2019-04-28T15:19:51Z</time>
      </trkpt>
      <trkpt lat="40.2276650" lon="-3.7855080">
        <ele>673.0</ele>
        <time>2019-04-28T15:19:52Z</time>
      </trkpt>
      <trkpt lat="40.2276120" lon="-3.7854930">
        <ele>672.8</ele>
        <time>2019-04-28T15:19:53Z</time>
      </trkpt>
      <trkpt lat="40.2275610" lon="-3.7854870">
        <ele>672.8</ele>
        <time>2019-04-28T15:19:54Z</time>
      </trkpt>
      <trkpt lat="40.2275110" lon="-3.7854840">
        <ele>672.8</ele>
        <time>2019-04-28T15:19:55Z</time>
      </trkpt>
      <trkpt lat="40.2274600" lon="-3.7854750">
        <ele>672.8</ele>
        <time>2019-04-28T15:19:56Z</time>
      </trkpt>
      <trkpt lat="40.2274110" lon="-3.7854620">
        <ele>673.0</ele>
        <time>2019-04-28T15:19:57Z</time>
      </trkpt>
      <trkpt lat="40.2273600" lon="-3.7854500">
        <ele>673.0</ele>
        <time>2019-04-28T15:19:58Z</time>
      </trkpt>
      <trkpt lat="40.2273080" lon="-3.7854380">
        <ele>672.8</ele>
        <time>2019-04-28T15:19:59Z</time>
      </trkpt>
      <trkpt lat="40.2272540" lon="-3.7854250">
        <ele>672.8</ele>
        <time>2019-04-28T15:20:00Z</time>
      </trkpt>
      <trkpt lat="40.2272010" lon="-3.7854120">
        <ele>672.8</ele>
        <time>2019-04-28T15:20:01Z</time>
      </trkpt>
      <trkpt lat="40.2271470" lon="-3.7854000">
        <ele>672.8</ele>
        <time>2019-04-28T15:20:02Z</time>
      </trkpt>
      <trkpt lat="40.2270930" lon="-3.7853890">
        <ele>672.8</ele>
        <time>2019-04-28T15:20:03Z</time>
      </trkpt>
      <trkpt lat="40.2270370" lon="-3.7853790">
        <ele>672.6</ele>
        <time>2019-04-28T15:20:04Z</time>
      </trkpt>
      <trkpt lat="40.2269820" lon="-3.7853670">
        <ele>672.6</ele>
        <time>2019-04-28T15:20:05Z</time>
      </trkpt>
      <trkpt lat="40.2269280" lon="-3.7853550">
        <ele>672.4</ele>
        <time>2019-04-28T15:20:06Z</time>
      </trkpt>
      <trkpt lat="40.2268750" lon="-3.7853430">
        <ele>672.4</ele>
        <time>2019-04-28T15:20:07Z</time>
      </trkpt>
      <trkpt lat="40.2268230" lon="-3.7853340">
        <ele>672.6</ele>
        <time>2019-04-28T15:20:08Z</time>
      </trkpt>
      <trkpt lat="40.2267700" lon="-3.7853250">
        <ele>672.6</ele>
        <time>2019-04-28T15:20:09Z</time>
      </trkpt>
      <trkpt lat="40.2267190" lon="-3.7853140">
        <ele>672.4</ele>
        <time>2019-04-28T15:20:10Z</time>
      </trkpt>
      <trkpt lat="40.2266680" lon="-3.7853040">
        <ele>672.4</ele>
        <time>2019-04-28T15:20:11Z</time>
      </trkpt>
      <trkpt lat="40.2266190" lon="-3.7852940">
        <ele>672.2</ele>
        <time>2019-04-28T15:20:12Z</time>
      </trkpt>
      <trkpt lat="40.2265680" lon="-3.7852850">
        <ele>672.2</ele>
        <time>2019-04-28T15:20:13Z</time>
      </trkpt>
      <trkpt lat="40.2265140" lon="-3.7852790">
        <ele>672.0</ele>
        <time>2019-04-28T15:20:14Z</time>
      </trkpt>
      <trkpt lat="40.2264590" lon="-3.7852760">
        <ele>672.2</ele>
        <time>2019-04-28T15:20:15Z</time>
      </trkpt>
      <trkpt lat="40.2264020" lon="-3.7852690">
        <ele>672.0</ele>
        <time>2019-04-28T15:20:16Z</time>
      </trkpt>
      <trkpt lat="40.2263420" lon="-3.7852680">
        <ele>672.0</ele>
        <time>2019-04-28T15:20:17Z</time>
      </trkpt>
      <trkpt lat="40.2262820" lon="-3.7852630">
        <ele>672.0</ele>
        <time>2019-04-28T15:20:18Z</time>
      </trkpt>
      <trkpt lat="40.2262220" lon="-3.7852550">
        <ele>671.8</ele>
        <time>2019-04-28T15:20:19Z</time>
      </trkpt>
      <trkpt lat="40.2261610" lon="-3.7852470">
        <ele>671.8</ele>
        <time>2019-04-28T15:20:20Z</time>
      </trkpt>
      <trkpt lat="40.2261020" lon="-3.7852380">
        <ele>671.8</ele>
        <time>2019-04-28T15:20:21Z</time>
      </trkpt>
      <trkpt lat="40.2260430" lon="-3.7852330">
        <ele>671.8</ele>
        <time>2019-04-28T15:20:22Z</time>
      </trkpt>
      <trkpt lat="40.2259850" lon="-3.7852260">
        <ele>671.8</ele>
        <time>2019-04-28T15:20:23Z</time>
      </trkpt>
      <trkpt lat="40.2259270" lon="-3.7852200">
        <ele>671.8</ele>
        <time>2019-04-28T15:20:24Z</time>
      </trkpt>
      <trkpt lat="40.2258690" lon="-3.7852140">
        <ele>672.0</ele>
        <time>2019-04-28T15:20:25Z</time>
      </trkpt>
      <trkpt lat="40.2258140" lon="-3.7852070">
        <ele>671.8</ele>
        <time>2019-04-28T15:20:26Z</time>
      </trkpt>
      <trkpt lat="40.2257650" lon="-3.7852020">
        <ele>671.6</ele>
        <time>2019-04-28T15:20:27Z</time>
      </trkpt>
      <trkpt lat="40.2257180" lon="-3.7851980">
        <ele>671.8</ele>
        <time>2019-04-28T15:20:28Z</time>
      </trkpt>
      <trkpt lat="40.2256750" lon="-3.7851930">
        <ele>671.6</ele>
        <time>2019-04-28T15:20:29Z</time>
      </trkpt>
      <trkpt lat="40.2256340" lon="-3.7851890">
        <ele>671.4</ele>
        <time>2019-04-28T15:20:30Z</time>
      </trkpt>
      <trkpt lat="40.2255940" lon="-3.7851870">
        <ele>671.4</ele>
        <time>2019-04-28T15:20:31Z</time>
      </trkpt>
      <trkpt lat="40.2255540" lon="-3.7851860">
        <ele>671.4</ele>
        <time>2019-04-28T15:20:32Z</time>
      </trkpt>
      <trkpt lat="40.2255170" lon="-3.7851850">
        <ele>671.4</ele>
        <time>2019-04-28T15:20:33Z</time>
      </trkpt>
      <trkpt lat="40.2254810" lon="-3.7851820">
        <ele>671.4</ele>
        <time>2019-04-28T15:20:34Z</time>
      </trkpt>
      <trkpt lat="40.2254450" lon="-3.7851770">
        <ele>671.2</ele>
        <time>2019-04-28T15:20:35Z</time>
      </trkpt>
      <trkpt lat="40.2254110" lon="-3.7851720">
        <ele>671.4</ele>
        <time>2019-04-28T15:20:36Z</time>
      </trkpt>
      <trkpt lat="40.2253790" lon="-3.7851670">
        <ele>671.2</ele>
        <time>2019-04-28T15:20:37Z</time>
      </trkpt>
      <trkpt lat="40.2253470" lon="-3.7851610">
        <ele>671.2</ele>
        <time>2019-04-28T15:20:38Z</time>
      </trkpt>
      <trkpt lat="40.2253170" lon="-3.7851570">
        <ele>671.2</ele>
        <time>2019-04-28T15:20:39Z</time>
      </trkpt>
      <trkpt lat="40.2252890" lon="-3.7851560">
        <ele>671.2</ele>
        <time>2019-04-28T15:20:40Z</time>
      </trkpt>
      <trkpt lat="40.2252640" lon="-3.7851580">
        <ele>671.4</ele>
        <time>2019-04-28T15:20:41Z</time>
      </trkpt>
      <trkpt lat="40.2252390" lon="-3.7851570">
        <ele>671.4</ele>
        <time>2019-04-28T15:20:42Z</time>
      </trkpt>
      <trkpt lat="40.2252160" lon="-3.7851540">
        <ele>671.2</ele>
        <time>2019-04-28T15:20:43Z</time>
      </trkpt>
      <trkpt lat="40.2251920" lon="-3.7851510">
        <ele>671.2</ele>
        <time>2019-04-28T15:20:44Z</time>
      </trkpt>
      <trkpt lat="40.2251670" lon="-3.7851510">
        <ele>671.0</ele>
        <time>2019-04-28T15:20:45Z</time>
      </trkpt>
      <trkpt lat="40.2251410" lon="-3.7851510">
        <ele>671.0</ele>
        <time>2019-04-28T15:20:46Z</time>
      </trkpt>
      <trkpt lat="40.2251150" lon="-3.7851490">
        <ele>670.8</ele>
        <time>2019-04-28T15:20:47Z</time>
      </trkpt>
      <trkpt lat="40.2250880" lon="-3.7851490">
        <ele>670.8</ele>
        <time>2019-04-28T15:20:48Z</time>
      </trkpt>
      <trkpt lat="40.2250610" lon="-3.7851500">
        <ele>670.6</ele>
        <time>2019-04-28T15:20:49Z</time>
      </trkpt>
      <trkpt lat="40.2250340" lon="-3.7851490">
        <ele>670.6</ele>
        <time>2019-04-28T15:20:50Z</time>
      </trkpt>
      <trkpt lat="40.2250060" lon="-3.7851460">
        <ele>670.6</ele>
        <time>2019-04-28T15:20:51Z</time>
      </trkpt>
      <trkpt lat="40.2249790" lon="-3.7851450">
        <ele>670.6</ele>
        <time>2019-04-28T15:20:52Z</time>
      </trkpt>
      <trkpt lat="40.2249490" lon="-3.7851440">
        <ele>670.6</ele>
        <time>2019-04-28T15:20:53Z</time>
      </trkpt>
      <trkpt lat="40.2249180" lon="-3.7851430">
        <ele>670.6</ele>
        <time>2019-04-28T15:20:54Z</time>
      </trkpt>
      <trkpt lat="40.2248860" lon="-3.7851430">
        <ele>670.4</ele>
        <time>2019-04-28T15:20:55Z</time>
      </trkpt>
      <trkpt lat="40.2248540" lon="-3.7851400">
        <ele>670.4</ele>
        <time>2019-04-28T15:20:56Z</time>
      </trkpt>
      <trkpt lat="40.2248220" lon="-3.7851380">
        <ele>670.4</ele>
        <time>2019-04-28T15:20:57Z</time>
      </trkpt>
      <trkpt lat="40.2247900" lon="-3.7851350">
        <ele>670.4</ele>
        <time>2019-04-28T15:20:58Z</time>
      </trkpt>
      <trkpt lat="40.2247580" lon="-3.7851290">
        <ele>670.2</ele>
        <time>2019-04-28T15:20:59Z</time>
      </trkpt>
      <trkpt lat="40.2247240" lon="-3.7851240">
        <ele>670.2</ele>
        <time>2019-04-28T15:21:00Z</time>
      </trkpt>
      <trkpt lat="40.2246920" lon="-3.7851110">
        <ele>670.2</ele>
        <time>2019-04-28T15:21:01Z</time>
      </trkpt>
      <trkpt lat="40.2246590" lon="-3.7850940">
        <ele>670.2</ele>
        <time>2019-04-28T15:21:02Z</time>
      </trkpt>
      <trkpt lat="40.2246250" lon="-3.7850760">
        <ele>670.2</ele>
        <time>2019-04-28T15:21:03Z</time>
      </trkpt>
      <trkpt lat="40.2245910" lon="-3.7850560">
        <ele>670.0</ele>
        <time>2019-04-28T15:21:04Z</time>
      </trkpt>
      <trkpt lat="40.2245560" lon="-3.7850370">
        <ele>670.0</ele>
        <time>2019-04-28T15:21:05Z</time>
      </trkpt>
      <trkpt lat="40.2245220" lon="-3.7850150">
        <ele>670.0</ele>
        <time>2019-04-28T15:21:06Z</time>
      </trkpt>
      <trkpt lat="40.2244840" lon="-3.7849950">
        <ele>669.8</ele>
        <time>2019-04-28T15:21:07Z</time>
      </trkpt>
      <trkpt lat="40.2244440" lon="-3.7849770">
        <ele>669.8</ele>
        <time>2019-04-28T15:21:08Z</time>
      </trkpt>
      <trkpt lat="40.2244020" lon="-3.7849570">
        <ele>669.6</ele>
        <time>2019-04-28T15:21:09Z</time>
      </trkpt>
      <trkpt lat="40.2243590" lon="-3.7849330">
        <ele>669.6</ele>
        <time>2019-04-28T15:21:10Z</time>
      </trkpt>
      <trkpt lat="40.2243150" lon="-3.7849040">
        <ele>669.4</ele>
        <time>2019-04-28T15:21:11Z</time>
      </trkpt>
      <trkpt lat="40.2242730" lon="-3.7848760">
        <ele>669.2</ele>
        <time>2019-04-28T15:21:12Z</time>
      </trkpt>
      <trkpt lat="40.2242310" lon="-3.7848430">
        <ele>669.2</ele>
        <time>2019-04-28T15:21:13Z</time>
      </trkpt>
      <trkpt lat="40.2241890" lon="-3.7848090">
        <ele>669.0</ele>
        <time>2019-04-28T15:21:14Z</time>
      </trkpt>
      <trkpt lat="40.2241450" lon="-3.7847740">
        <ele>668.8</ele>
        <time>2019-04-28T15:21:15Z</time>
      </trkpt>
      <trkpt lat="40.2241000" lon="-3.7847380">
        <ele>668.6</ele>
        <time>2019-04-28T15:21:16Z</time>
      </trkpt>
      <trkpt lat="40.2240530" lon="-3.7847050">
        <ele>668.8</ele>
        <time>2019-04-28T15:21:17Z</time>
      </trkpt>
      <trkpt lat="40.2240090" lon="-3.7846690">
        <ele>668.6</ele>
        <time>2019-04-28T15:21:18Z</time>
      </trkpt>
      <trkpt lat="40.2239640" lon="-3.7846330">
        <ele>668.2</ele>
        <time>2019-04-28T15:21:19Z</time>
      </trkpt>
      <trkpt lat="40.2239200" lon="-3.7846000">
        <ele>668.0</ele>
        <time>2019-04-28T15:21:20Z</time>
      </trkpt>
      <trkpt lat="40.2238800" lon="-3.7845690">
        <ele>667.8</ele>
        <time>2019-04-28T15:21:21Z</time>
      </trkpt>
      <trkpt lat="40.2238470" lon="-3.7845470">
        <ele>667.6</ele>
        <time>2019-04-28T15:21:22Z</time>
      </trkpt>
      <trkpt lat="40.2238140" lon="-3.7845300">
        <ele>667.6</ele>
        <time>2019-04-28T15:21:23Z</time>
      </trkpt>
      <trkpt lat="40.2237770" lon="-3.7845200">
        <ele>667.4</ele>
        <time>2019-04-28T15:21:24Z</time>
      </trkpt>
      <trkpt lat="40.2237340" lon="-3.7845240">
        <ele>667.2</ele>
        <time>2019-04-28T15:21:25Z</time>
      </trkpt>
      <trkpt lat="40.2236960" lon="-3.7845510">
        <ele>667.4</ele>
        <time>2019-04-28T15:21:26Z</time>
      </trkpt>
      <trkpt lat="40.2236670" lon="-3.7846000">
        <ele>667.4</ele>
        <time>2019-04-28T15:21:27Z</time>
      </trkpt>
      <trkpt lat="40.2236420" lon="-3.7846560">
        <ele>667.4</ele>
        <time>2019-04-28T15:21:28Z</time>
      </trkpt>
      <trkpt lat="40.2236150" lon="-3.7847150">
        <ele>667.4</ele>
        <time>2019-04-28T15:21:29Z</time>
      </trkpt>
      <trkpt lat="40.2235860" lon="-3.7847740">
        <ele>667.4</ele>
        <time>2019-04-28T15:21:30Z</time>
      </trkpt>
      <trkpt lat="40.2235570" lon="-3.7848310">
        <ele>667.4</ele>
        <time>2019-04-28T15:21:31Z</time>
      </trkpt>
      <trkpt lat="40.2235270" lon="-3.7848870">
        <ele>667.4</ele>
        <time>2019-04-28T15:21:32Z</time>
      </trkpt>
      <trkpt lat="40.2234940" lon="-3.7849450">
        <ele>667.4</ele>
        <time>2019-04-28T15:21:33Z</time>
      </trkpt>
      <trkpt lat="40.2234570" lon="-3.7850010">
        <ele>667.6</ele>
        <time>2019-04-28T15:21:34Z</time>
      </trkpt>
      <trkpt lat="40.2234170" lon="-3.7850550">
        <ele>667.6</ele>
        <time>2019-04-28T15:21:35Z</time>
      </trkpt>
      <trkpt lat="40.2233740" lon="-3.7851000">
        <ele>667.6</ele>
        <time>2019-04-28T15:21:36Z</time>
      </trkpt>
      <trkpt lat="40.2233270" lon="-3.7851410">
        <ele>667.8</ele>
        <time>2019-04-28T15:21:37Z</time>
      </trkpt>
      <trkpt lat="40.2232780" lon="-3.7851710">
        <ele>667.8</ele>
        <time>2019-04-28T15:21:38Z</time>
      </trkpt>
      <trkpt lat="40.2232260" lon="-3.7851990">
        <ele>668.0</ele>
        <time>2019-04-28T15:21:39Z</time>
      </trkpt>
      <trkpt lat="40.2231740" lon="-3.7852200">
        <ele>668.0</ele>
        <time>2019-04-28T15:21:40Z</time>
      </trkpt>
      <trkpt lat="40.2231200" lon="-3.7852380">
        <ele>668.4</ele>
        <time>2019-04-28T15:21:41Z</time>
      </trkpt>
      <trkpt lat="40.2230660" lon="-3.7852460">
        <ele>668.2</ele>
        <time>2019-04-28T15:21:42Z</time>
      </trkpt>
      <trkpt lat="40.2230140" lon="-3.7852450">
        <ele>668.4</ele>
        <time>2019-04-28T15:21:43Z</time>
      </trkpt>
      <trkpt lat="40.2229640" lon="-3.7852380">
        <ele>668.4</ele>
        <time>2019-04-28T15:21:44Z</time>
      </trkpt>
      <trkpt lat="40.2229170" lon="-3.7852310">
        <ele>668.4</ele>
        <time>2019-04-28T15:21:45Z</time>
      </trkpt>
      <trkpt lat="40.2228720" lon="-3.7852210">
        <ele>668.6</ele>
        <time>2019-04-28T15:21:46Z</time>
      </trkpt>
      <trkpt lat="40.2228300" lon="-3.7852080">
        <ele>669.0</ele>
        <time>2019-04-28T15:21:47Z</time>
      </trkpt>
      <trkpt lat="40.2227890" lon="-3.7851930">
        <ele>669.0</ele>
        <time>2019-04-28T15:21:48Z</time>
      </trkpt>
      <trkpt lat="40.2227490" lon="-3.7851750">
        <ele>669.2</ele>
        <time>2019-04-28T15:21:49Z</time>
      </trkpt>
      <trkpt lat="40.2227120" lon="-3.7851540">
        <ele>669.2</ele>
        <time>2019-04-28T15:21:50Z</time>
      </trkpt>
      <trkpt lat="40.2226750" lon="-3.7851330">
        <ele>669.2</ele>
        <time>2019-04-28T15:21:51Z</time>
      </trkpt>
      <trkpt lat="40.2226390" lon="-3.7851130">
        <ele>669.4</ele>
        <time>2019-04-28T15:21:52Z</time>
      </trkpt>
      <trkpt lat="40.2226030" lon="-3.7850890">
        <ele>669.6</ele>
        <time>2019-04-28T15:21:53Z</time>
      </trkpt>
      <trkpt lat="40.2225670" lon="-3.7850620">
        <ele>669.8</ele>
        <time>2019-04-28T15:21:54Z</time>
      </trkpt>
      <trkpt lat="40.2225320" lon="-3.7850340">
        <ele>670.0</ele>
        <time>2019-04-28T15:21:55Z</time>
      </trkpt>
      <trkpt lat="40.2224970" lon="-3.7850030">
        <ele>670.0</ele>
        <time>2019-04-28T15:21:56Z</time>
      </trkpt>
      <trkpt lat="40.2224640" lon="-3.7849700">
        <ele>670.2</ele>
        <time>2019-04-28T15:21:57Z</time>
      </trkpt>
      <trkpt lat="40.2224330" lon="-3.7849380">
        <ele>670.2</ele>
        <time>2019-04-28T15:21:58Z</time>
      </trkpt>
      <trkpt lat="40.2224020" lon="-3.7849020">
        <ele>670.4</ele>
        <time>2019-04-28T15:21:59Z</time>
      </trkpt>
      <trkpt lat="40.2223720" lon="-3.7848660">
        <ele>670.6</ele>
        <time>2019-04-28T15:22:00Z</time>
      </trkpt>
      <trkpt lat="40.2223440" lon="-3.7848290">
        <ele>670.6</ele>
        <time>2019-04-28T15:22:01Z</time>
      </trkpt>
      <trkpt lat="40.2223170" lon="-3.7847900">
        <ele>670.8</ele>
        <time>2019-04-28T15:22:02Z</time>
      </trkpt>
      <trkpt lat="40.2222910" lon="-3.7847490">
        <ele>671.0</ele>
        <time>2019-04-28T15:22:03Z</time>
      </trkpt>
      <trkpt lat="40.2222680" lon="-3.7847070">
        <ele>671.2</ele>
        <time>2019-04-28T15:22:04Z</time>
      </trkpt>
      <trkpt lat="40.2222440" lon="-3.7846640">
        <ele>671.4</ele>
        <time>2019-04-28T15:22:05Z</time>
      </trkpt>
      <trkpt lat="40.2222220" lon="-3.7846200">
        <ele>671.6</ele>
        <time>2019-04-28T15:22:06Z</time>
      </trkpt>
      <trkpt lat="40.2222010" lon="-3.7845730">
        <ele>671.8</ele>
        <time>2019-04-28T15:22:07Z</time>
      </trkpt>
      <trkpt lat="40.2221800" lon="-3.7845260">
        <ele>671.8</ele>
        <time>2019-04-28T15:22:08Z</time>
      </trkpt>
      <trkpt lat="40.2221620" lon="-3.7844770">
        <ele>672.0</ele>
        <time>2019-04-28T15:22:09Z</time>
      </trkpt>
      <trkpt lat="40.2221440" lon="-3.7844290">
        <ele>672.2</ele>
        <time>2019-04-28T15:22:10Z</time>
      </trkpt>
      <trkpt lat="40.2221260" lon="-3.7843810">
        <ele>672.2</ele>
        <time>2019-04-28T15:22:11Z</time>
      </trkpt>
      <trkpt lat="40.2221100" lon="-3.7843320">
        <ele>672.4</ele>
        <time>2019-04-28T15:22:12Z</time>
      </trkpt>
      <trkpt lat="40.2220960" lon="-3.7842830">
        <ele>672.6</ele>
        <time>2019-04-28T15:22:13Z</time>
      </trkpt>
      <trkpt lat="40.2220820" lon="-3.7842310">
        <ele>672.6</ele>
        <time>2019-04-28T15:22:14Z</time>
      </trkpt>
      <trkpt lat="40.2220700" lon="-3.7841810">
        <ele>672.8</ele>
        <time>2019-04-28T15:22:15Z</time>
      </trkpt>
      <trkpt lat="40.2220610" lon="-3.7841290">
        <ele>673.2</ele>
        <time>2019-04-28T15:22:16Z</time>
      </trkpt>
      <trkpt lat="40.2220530" lon="-3.7840740">
        <ele>673.4</ele>
        <time>2019-04-28T15:22:17Z</time>
      </trkpt>
      <trkpt lat="40.2220470" lon="-3.7840190">
        <ele>673.2</ele>
        <time>2019-04-28T15:22:18Z</time>
      </trkpt>
      <trkpt lat="40.2220430" lon="-3.7839640">
        <ele>673.2</ele>
        <time>2019-04-28T15:22:19Z</time>
      </trkpt>
      <trkpt lat="40.2220410" lon="-3.7839080">
        <ele>673.4</ele>
        <time>2019-04-28T15:22:20Z</time>
      </trkpt>
      <trkpt lat="40.2220400" lon="-3.7838500">
        <ele>673.4</ele>
        <time>2019-04-28T15:22:21Z</time>
      </trkpt>
      <trkpt lat="40.2220430" lon="-3.7837920">
        <ele>673.4</ele>
        <time>2019-04-28T15:22:22Z</time>
      </trkpt>
      <trkpt lat="40.2220460" lon="-3.7837350">
        <ele>673.4</ele>
        <time>2019-04-28T15:22:23Z</time>
      </trkpt>
      <trkpt lat="40.2220520" lon="-3.7836760">
        <ele>673.6</ele>
        <time>2019-04-28T15:22:24Z</time>
      </trkpt>
      <trkpt lat="40.2220580" lon="-3.7836150">
        <ele>673.8</ele>
        <time>2019-04-28T15:22:25Z</time>
      </trkpt>
      <trkpt lat="40.2220640" lon="-3.7835560">
        <ele>673.8</ele>
        <time>2019-04-28T15:22:26Z</time>
      </trkpt>
      <trkpt lat="40.2220740" lon="-3.7834940">
        <ele>673.8</ele>
        <time>2019-04-28T15:22:27Z</time>
      </trkpt>
      <trkpt lat="40.2220860" lon="-3.7834300">
        <ele>673.8</ele>
        <time>2019-04-28T15:22:28Z</time>
      </trkpt>
      <trkpt lat="40.2221030" lon="-3.7833680">
        <ele>673.6</ele>
        <time>2019-04-28T15:22:29Z</time>
      </trkpt>
      <trkpt lat="40.2221230" lon="-3.7833020">
        <ele>673.6</ele>
        <time>2019-04-28T15:22:30Z</time>
      </trkpt>
      <trkpt lat="40.2221470" lon="-3.7832360">
        <ele>673.0</ele>
        <time>2019-04-28T15:22:31Z</time>
      </trkpt>
      <trkpt lat="40.2221730" lon="-3.7831700">
        <ele>672.8</ele>
        <time>2019-04-28T15:22:32Z</time>
      </trkpt>
      <trkpt lat="40.2222030" lon="-3.7831050">
        <ele>672.6</ele>
        <time>2019-04-28T15:22:33Z</time>
      </trkpt>
      <trkpt lat="40.2222350" lon="-3.7830400">
        <ele>672.4</ele>
        <time>2019-04-28T15:22:34Z</time>
      </trkpt>
      <trkpt lat="40.2222720" lon="-3.7829770">
        <ele>672.4</ele>
        <time>2019-04-28T15:22:35Z</time>
      </trkpt>
      <trkpt lat="40.2223130" lon="-3.7829150">
        <ele>672.2</ele>
        <time>2019-04-28T15:22:36Z</time>
      </trkpt>
      <trkpt lat="40.2223600" lon="-3.7828560">
        <ele>672.2</ele>
        <time>2019-04-28T15:22:37Z</time>
      </trkpt>
      <trkpt lat="40.2224100" lon="-3.7827950">
        <ele>671.8</ele>
        <time>2019-04-28T15:22:38Z</time>
      </trkpt>
      <trkpt lat="40.2224650" lon="-3.7827340">
        <ele>671.4</ele>
        <time>2019-04-28T15:22:39Z</time>
      </trkpt>
      <trkpt lat="40.2225230" lon="-3.7826700">
        <ele>671.2</ele>
        <time>2019-04-28T15:22:40Z</time>
      </trkpt>
      <trkpt lat="40.2225840" lon="-3.7826070">
        <ele>670.8</ele>
        <time>2019-04-28T15:22:41Z</time>
      </trkpt>
      <trkpt lat="40.2226490" lon="-3.7825450">
        <ele>670.2</ele>
        <time>2019-04-28T15:22:42Z</time>
      </trkpt>
      <trkpt lat="40.2227180" lon="-3.7824850">
        <ele>669.6</ele>
        <time>2019-04-28T15:22:43Z</time>
      </trkpt>
      <trkpt lat="40.2227800" lon="-3.7824240">
        <ele>669.0</ele>
        <time>2019-04-28T15:22:44Z</time>
      </trkpt>
      <trkpt lat="40.2228480" lon="-3.7823630">
        <ele>668.8</ele>
        <time>2019-04-28T15:22:45Z</time>
      </trkpt>
      <trkpt lat="40.2229220" lon="-3.7823030">
        <ele>668.4</ele>
        <time>2019-04-28T15:22:46Z</time>
      </trkpt>
      <trkpt lat="40.2229970" lon="-3.7822420">
        <ele>668.2</ele>
        <time>2019-04-28T15:22:47Z</time>
      </trkpt>
      <trkpt lat="40.2230720" lon="-3.7821800">
        <ele>667.8</ele>
        <time>2019-04-28T15:22:48Z</time>
      </trkpt>
      <trkpt lat="40.2231440" lon="-3.7821210">
        <ele>667.6</ele>
        <time>2019-04-28T15:22:49Z</time>
      </trkpt>
      <trkpt lat="40.2232180" lon="-3.7820630">
        <ele>667.2</ele>
        <time>2019-04-28T15:22:50Z</time>
      </trkpt>
      <trkpt lat="40.2232850" lon="-3.7820060">
        <ele>667.2</ele>
        <time>2019-04-28T15:22:51Z</time>
      </trkpt>
      <trkpt lat="40.2233430" lon="-3.7819500">
        <ele>666.8</ele>
        <time>2019-04-28T15:22:52Z</time>
      </trkpt>
      <trkpt lat="40.2233890" lon="-3.7818910">
        <ele>666.8</ele>
        <time>2019-04-28T15:22:53Z</time>
      </trkpt>
      <trkpt lat="40.2234140" lon="-3.7818260">
        <ele>666.8</ele>
        <time>2019-04-28T15:22:54Z</time>
      </trkpt>
      <trkpt lat="40.2234210" lon="-3.7817560">
        <ele>666.8</ele>
        <time>2019-04-28T15:22:55Z</time>
      </trkpt>
      <trkpt lat="40.2234050" lon="-3.7816860">
        <ele>666.6</ele>
        <time>2019-04-28T15:22:56Z</time>
      </trkpt>
      <trkpt lat="40.2233730" lon="-3.7816190">
        <ele>666.6</ele>
        <time>2019-04-28T15:22:57Z</time>
      </trkpt>
      <trkpt lat="40.2233350" lon="-3.7815520">
        <ele>666.4</ele>
        <time>2019-04-28T15:22:58Z</time>
      </trkpt>
      <trkpt lat="40.2232970" lon="-3.7814820">
        <ele>666.4</ele>
        <time>2019-04-28T15:22:59Z</time>
      </trkpt>
      <trkpt lat="40.2232590" lon="-3.7814090">
        <ele>666.2</ele>
        <time>2019-04-28T15:23:00Z</time>
      </trkpt>
      <trkpt lat="40.2232210" lon="-3.7813350">
        <ele>666.0</ele>
        <time>2019-04-28T15:23:01Z</time>
      </trkpt>
      <trkpt lat="40.2231840" lon="-3.7812620">
        <ele>665.6</ele>
        <time>2019-04-28T15:23:02Z</time>
      </trkpt>
      <trkpt lat="40.2231460" lon="-3.7811910">
        <ele>665.4</ele>
        <time>2019-04-28T15:23:03Z</time>
      </trkpt>
      <trkpt lat="40.2231030" lon="-3.7811280">
        <ele>665.4</ele>
        <time>2019-04-28T15:23:04Z</time>
      </trkpt>
      <trkpt lat="40.2230460" lon="-3.7810860">
        <ele>665.2</ele>
        <time>2019-04-28T15:23:05Z</time>
      </trkpt>
      <trkpt lat="40.2229810" lon="-3.7810760">
        <ele>665.4</ele>
        <time>2019-04-28T15:23:06Z</time>
      </trkpt>
      <trkpt lat="40.2229180" lon="-3.7810930">
        <ele>665.4</ele>
        <time>2019-04-28T15:23:07Z</time>
      </trkpt>
      <trkpt lat="40.2228580" lon="-3.7811300">
        <ele>665.2</ele>
        <time>2019-04-28T15:23:08Z</time>
      </trkpt>
      <trkpt lat="40.2227970" lon="-3.7811750">
        <ele>665.2</ele>
        <time>2019-04-28T15:23:09Z</time>
      </trkpt>
      <trkpt lat="40.2227380" lon="-3.7812250">
        <ele>664.6</ele>
        <time>2019-04-28T15:23:10Z</time>
      </trkpt>
      <trkpt lat="40.2226790" lon="-3.7812760">
        <ele>664.4</ele>
        <time>2019-04-28T15:23:11Z</time>
      </trkpt>
      <trkpt lat="40.2226170" lon="-3.7813260">
        <ele>664.6</ele>
        <time>2019-04-28T15:23:12Z</time>
      </trkpt>
      <trkpt lat="40.2225530" lon="-3.7813740">
        <ele>664.4</ele>
        <time>2019-04-28T15:23:13Z</time>
      </trkpt>
      <trkpt lat="40.2224890" lon="-3.7814230">
        <ele>664.4</ele>
        <time>2019-04-28T15:23:14Z</time>
      </trkpt>
      <trkpt lat="40.2224250" lon="-3.7814710">
        <ele>664.6</ele>
        <time>2019-04-28T15:23:15Z</time>
      </trkpt>
      <trkpt lat="40.2223590" lon="-3.7815180">
        <ele>664.6</ele>
        <time>2019-04-28T15:23:16Z</time>
      </trkpt>
      <trkpt lat="40.2222930" lon="-3.7815650">
        <ele>664.4</ele>
        <time>2019-04-28T15:23:17Z</time>
      </trkpt>
      <trkpt lat="40.2222270" lon="-3.7816080">
        <ele>664.2</ele>
        <time>2019-04-28T15:23:18Z</time>
      </trkpt>
      <trkpt lat="40.2221600" lon="-3.7816450">
        <ele>664.0</ele>
        <time>2019-04-28T15:23:19Z</time>
      </trkpt>
      <trkpt lat="40.2220920" lon="-3.7816720">
        <ele>663.8</ele>
        <time>2019-04-28T15:23:20Z</time>
      </trkpt>
      <trkpt lat="40.2220240" lon="-3.7816930">
        <ele>663.8</ele>
        <time>2019-04-28T15:23:21Z</time>
      </trkpt>
      <trkpt lat="40.2219560" lon="-3.7817110">
        <ele>663.6</ele>
        <time>2019-04-28T15:23:22Z</time>
      </trkpt>
      <trkpt lat="40.2218900" lon="-3.7817250">
        <ele>663.6</ele>
        <time>2019-04-28T15:23:23Z</time>
      </trkpt>
      <trkpt lat="40.2218250" lon="-3.7817340">
        <ele>663.6</ele>
        <time>2019-04-28T15:23:24Z</time>
      </trkpt>
      <trkpt lat="40.2217620" lon="-3.7817380">
        <ele>663.6</ele>
        <time>2019-04-28T15:23:25Z</time>
      </trkpt>
      <trkpt lat="40.2217020" lon="-3.7817390">
        <ele>663.6</ele>
        <time>2019-04-28T15:23:26Z</time>
      </trkpt>
      <trkpt lat="40.2216420" lon="-3.7817360">
        <ele>663.6</ele>
        <time>2019-04-28T15:23:27Z</time>
      </trkpt>
      <trkpt lat="40.2215840" lon="-3.7817290">
        <ele>663.4</ele>
        <time>2019-04-28T15:23:28Z</time>
      </trkpt>
      <trkpt lat="40.2215310" lon="-3.7817230">
        <ele>663.4</ele>
        <time>2019-04-28T15:23:29Z</time>
      </trkpt>
      <trkpt lat="40.2214790" lon="-3.7817120">
        <ele>663.4</ele>
        <time>2019-04-28T15:23:30Z</time>
      </trkpt>
      <trkpt lat="40.2214300" lon="-3.7816980">
        <ele>663.2</ele>
        <time>2019-04-28T15:23:31Z</time>
      </trkpt>
      <trkpt lat="40.2213830" lon="-3.7816800">
        <ele>663.4</ele>
        <time>2019-04-28T15:23:32Z</time>
      </trkpt>
      <trkpt lat="40.2213350" lon="-3.7816590">
        <ele>663.4</ele>
        <time>2019-04-28T15:23:33Z</time>
      </trkpt>
      <trkpt lat="40.2212830" lon="-3.7816390">
        <ele>663.4</ele>
        <time>2019-04-28T15:23:34Z</time>
      </trkpt>
      <trkpt lat="40.2212330" lon="-3.7816200">
        <ele>663.6</ele>
        <time>2019-04-28T15:23:35Z</time>
      </trkpt>
      <trkpt lat="40.2211830" lon="-3.7816030">
        <ele>663.6</ele>
        <time>2019-04-28T15:23:36Z</time>
      </trkpt>
      <trkpt lat="40.2211310" lon="-3.7815830">
        <ele>663.6</ele>
        <time>2019-04-28T15:23:37Z</time>
      </trkpt>
      <trkpt lat="40.2210740" lon="-3.7815620">
        <ele>663.6</ele>
        <time>2019-04-28T15:23:38Z</time>
      </trkpt>
      <trkpt lat="40.2210170" lon="-3.7815420">
        <ele>663.8</ele>
        <time>2019-04-28T15:23:39Z</time>
      </trkpt>
      <trkpt lat="40.2209640" lon="-3.7815230">
        <ele>663.8</ele>
        <time>2019-04-28T15:23:40Z</time>
      </trkpt>
      <trkpt lat="40.2209080" lon="-3.7815050">
        <ele>663.8</ele>
        <time>2019-04-28T15:23:41Z</time>
      </trkpt>
      <trkpt lat="40.2208470" lon="-3.7814860">
        <ele>664.0</ele>
        <time>2019-04-28T15:23:42Z</time>
      </trkpt>
      <trkpt lat="40.2207850" lon="-3.7814710">
        <ele>664.0</ele>
        <time>2019-04-28T15:23:43Z</time>
      </trkpt>
      <trkpt lat="40.2207240" lon="-3.7814570">
        <ele>664.0</ele>
        <time>2019-04-28T15:23:44Z</time>
      </trkpt>
      <trkpt lat="40.2206640" lon="-3.7814430">
        <ele>664.0</ele>
        <time>2019-04-28T15:23:45Z</time>
      </trkpt>
      <trkpt lat="40.2206050" lon="-3.7814300">
        <ele>664.2</ele>
        <time>2019-04-28T15:23:46Z</time>
      </trkpt>
      <trkpt lat="40.2205460" lon="-3.7814190">
        <ele>664.2</ele>
        <time>2019-04-28T15:23:47Z</time>
      </trkpt>
      <trkpt lat="40.2204880" lon="-3.7814080">
        <ele>664.4</ele>
        <time>2019-04-28T15:23:48Z</time>
      </trkpt>
      <trkpt lat="40.2204310" lon="-3.7813990">
        <ele>664.4</ele>
        <time>2019-04-28T15:23:49Z</time>
      </trkpt>
      <trkpt lat="40.2203790" lon="-3.7813940">
        <ele>664.4</ele>
        <time>2019-04-28T15:23:50Z</time>
      </trkpt>
      <trkpt lat="40.2203270" lon="-3.7813890">
        <ele>664.4</ele>
        <time>2019-04-28T15:23:51Z</time>
      </trkpt>
      <trkpt lat="40.2202740" lon="-3.7813830">
        <ele>664.6</ele>
        <time>2019-04-28T15:23:52Z</time>
      </trkpt>
      <trkpt lat="40.2202190" lon="-3.7813770">
        <ele>664.6</ele>
        <time>2019-04-28T15:23:53Z</time>
      </trkpt>
      <trkpt lat="40.2201630" lon="-3.7813800">
        <ele>664.6</ele>
        <time>2019-04-28T15:23:54Z</time>
      </trkpt>
      <trkpt lat="40.2201090" lon="-3.7814000">
        <ele>664.6</ele>
        <time>2019-04-28T15:23:55Z</time>
      </trkpt>
      <trkpt lat="40.2200560" lon="-3.7814290">
        <ele>664.6</ele>
        <time>2019-04-28T15:23:56Z</time>
      </trkpt>
      <trkpt lat="40.2200010" lon="-3.7814540">
        <ele>664.6</ele>
        <time>2019-04-28T15:23:57Z</time>
      </trkpt>
      <trkpt lat="40.2199430" lon="-3.7814650">
        <ele>664.6</ele>
        <time>2019-04-28T15:23:58Z</time>
      </trkpt>
      <trkpt lat="40.2198850" lon="-3.7814590">
        <ele>664.6</ele>
        <time>2019-04-28T15:23:59Z</time>
      </trkpt>
      <trkpt lat="40.2198340" lon="-3.7814400">
        <ele>664.6</ele>
        <time>2019-04-28T15:24:00Z</time>
      </trkpt>
      <trkpt lat="40.2197910" lon="-3.7814080">
        <ele>664.6</ele>
        <time>2019-04-28T15:24:01Z</time>
      </trkpt>
      <trkpt lat="40.2197550" lon="-3.7813680">
        <ele>664.6</ele>
        <time>2019-04-28T15:24:02Z</time>
      </trkpt>
      <trkpt lat="40.2197270" lon="-3.7813210">
        <ele>664.6</ele>
        <time>2019-04-28T15:24:03Z</time>
      </trkpt>
      <trkpt lat="40.2197070" lon="-3.7812650">
        <ele>664.6</ele>
        <time>2019-04-28T15:24:04Z</time>
      </trkpt>
      <trkpt lat="40.2196940" lon="-3.7812090">
        <ele>664.4</ele>
        <time>2019-04-28T15:24:05Z</time>
      </trkpt>
      <trkpt lat="40.2196890" lon="-3.7811540">
        <ele>664.4</ele>
        <time>2019-04-28T15:24:06Z</time>
      </trkpt>
      <trkpt lat="40.2196880" lon="-3.7810970">
        <ele>664.4</ele>
        <time>2019-04-28T15:24:07Z</time>
      </trkpt>
      <trkpt lat="40.2196900" lon="-3.7810430">
        <ele>664.4</ele>
        <time>2019-04-28T15:24:08Z</time>
      </trkpt>
      <trkpt lat="40.2196870" lon="-3.7809910">
        <ele>664.2</ele>
        <time>2019-04-28T15:24:09Z</time>
      </trkpt>
      <trkpt lat="40.2196810" lon="-3.7809400">
        <ele>664.4</ele>
        <time>2019-04-28T15:24:10Z</time>
      </trkpt>
      <trkpt lat="40.2196760" lon="-3.7808900">
        <ele>664.4</ele>
        <time>2019-04-28T15:24:11Z</time>
      </trkpt>
      <trkpt lat="40.2196740" lon="-3.7808400">
        <ele>664.6</ele>
        <time>2019-04-28T15:24:12Z</time>
      </trkpt>
      <trkpt lat="40.2196740" lon="-3.7807910">
        <ele>664.4</ele>
        <time>2019-04-28T15:24:13Z</time>
      </trkpt>
      <trkpt lat="40.2196740" lon="-3.7807420">
        <ele>664.2</ele>
        <time>2019-04-28T15:24:14Z</time>
      </trkpt>
      <trkpt lat="40.2196680" lon="-3.7806980">
        <ele>664.0</ele>
        <time>2019-04-28T15:24:15Z</time>
      </trkpt>
      <trkpt lat="40.2196560" lon="-3.7806510">
        <ele>664.0</ele>
        <time>2019-04-28T15:24:16Z</time>
      </trkpt>
      <trkpt lat="40.2196420" lon="-3.7806080">
        <ele>663.8</ele>
        <time>2019-04-28T15:24:17Z</time>
      </trkpt>
      <trkpt lat="40.2196260" lon="-3.7805640">
        <ele>663.8</ele>
        <time>2019-04-28T15:24:18Z</time>
      </trkpt>
      <trkpt lat="40.2196090" lon="-3.7805130">
        <ele>663.6</ele>
        <time>2019-04-28T15:24:19Z</time>
      </trkpt>
      <trkpt lat="40.2195890" lon="-3.7804530">
        <ele>663.6</ele>
        <time>2019-04-28T15:24:20Z</time>
      </trkpt>
      <trkpt lat="40.2195720" lon="-3.7803920">
        <ele>663.6</ele>
        <time>2019-04-28T15:24:21Z</time>
      </trkpt>
      <trkpt lat="40.2195510" lon="-3.7803310">
        <ele>663.4</ele>
        <time>2019-04-28T15:24:22Z</time>
      </trkpt>
      <trkpt lat="40.2195230" lon="-3.7802770">
        <ele>663.2</ele>
        <time>2019-04-28T15:24:23Z</time>
      </trkpt>
      <trkpt lat="40.2194960" lon="-3.7802230">
        <ele>663.2</ele>
        <time>2019-04-28T15:24:24Z</time>
      </trkpt>
      <trkpt lat="40.2194710" lon="-3.7801660">
        <ele>663.2</ele>
        <time>2019-04-28T15:24:25Z</time>
      </trkpt>
      <trkpt lat="40.2194470" lon="-3.7801070">
        <ele>663.0</ele>
        <time>2019-04-28T15:24:26Z</time>
      </trkpt>
      <trkpt lat="40.2194250" lon="-3.7800470">
        <ele>663.0</ele>
        <time>2019-04-28T15:24:27Z</time>
      </trkpt>
      <trkpt lat="40.2194060" lon="-3.7799920">
        <ele>663.0</ele>
        <time>2019-04-28T15:24:28Z</time>
      </trkpt>
      <trkpt lat="40.2193930" lon="-3.7799430">
        <ele>663.0</ele>
        <time>2019-04-28T15:24:29Z</time>
      </trkpt>
      <trkpt lat="40.2193840" lon="-3.7799020">
        <ele>663.0</ele>
        <time>2019-04-28T15:24:30Z</time>
      </trkpt>
      <trkpt lat="40.2193750" lon="-3.7798680">
        <ele>662.8</ele>
        <time>2019-04-28T15:24:31Z</time>
      </trkpt>
      <trkpt lat="40.2193680" lon="-3.7798360">
        <ele>662.8</ele>
        <time>2019-04-28T15:24:32Z</time>
      </trkpt>
      <trkpt lat="40.2193650" lon="-3.7798010">
        <ele>662.8</ele>
        <time>2019-04-28T15:24:33Z</time>
      </trkpt>
      <trkpt lat="40.2193580" lon="-3.7797640">
        <ele>662.8</ele>
        <time>2019-04-28T15:24:34Z</time>
      </trkpt>
      <trkpt lat="40.2193400" lon="-3.7797230">
        <ele>662.8</ele>
        <time>2019-04-28T15:24:35Z</time>
      </trkpt>
      <trkpt lat="40.2193220" lon="-3.7796740">
        <ele>662.6</ele>
        <time>2019-04-28T15:24:36Z</time>
      </trkpt>
      <trkpt lat="40.2193020" lon="-3.7796140">
        <ele>662.8</ele>
        <time>2019-04-28T15:24:37Z</time>
      </trkpt>
      <trkpt lat="40.2192850" lon="-3.7795520">
        <ele>662.8</ele>
        <time>2019-04-28T15:24:38Z</time>
      </trkpt>
      <trkpt lat="40.2192680" lon="-3.7794870">
        <ele>662.8</ele>
        <time>2019-04-28T15:24:39Z</time>
      </trkpt>
      <trkpt lat="40.2192470" lon="-3.7794230">
        <ele>662.8</ele>
        <time>2019-04-28T15:24:40Z</time>
      </trkpt>
      <trkpt lat="40.2192250" lon="-3.7793570">
        <ele>662.8</ele>
        <time>2019-04-28T15:24:41Z</time>
      </trkpt>
      <trkpt lat="40.2192070" lon="-3.7792910">
        <ele>663.0</ele>
        <time>2019-04-28T15:24:42Z</time>
      </trkpt>
      <trkpt lat="40.2191880" lon="-3.7792230">
        <ele>663.0</ele>
        <time>2019-04-28T15:24:43Z</time>
      </trkpt>
      <trkpt lat="40.2191660" lon="-3.7791530">
        <ele>663.0</ele>
        <time>2019-04-28T15:24:44Z</time>
      </trkpt>
      <trkpt lat="40.2191430" lon="-3.7790830">
        <ele>663.0</ele>
        <time>2019-04-28T15:24:45Z</time>
      </trkpt>
      <trkpt lat="40.2191190" lon="-3.7790140">
        <ele>663.0</ele>
        <time>2019-04-28T15:24:46Z</time>
      </trkpt>
      <trkpt lat="40.2190940" lon="-3.7789450">
        <ele>663.0</ele>
        <time>2019-04-28T15:24:47Z</time>
      </trkpt>
      <trkpt lat="40.2190680" lon="-3.7788740">
        <ele>663.0</ele>
        <time>2019-04-28T15:24:48Z</time>
      </trkpt>
      <trkpt lat="40.2190430" lon="-3.7788010">
        <ele>662.8</ele>
        <time>2019-04-28T15:24:49Z</time>
      </trkpt>
      <trkpt lat="40.2190180" lon="-3.7787280">
        <ele>662.8</ele>
        <time>2019-04-28T15:24:50Z</time>
      </trkpt>
      <trkpt lat="40.2189960" lon="-3.7786520">
        <ele>662.8</ele>
        <time>2019-04-28T15:24:51Z</time>
      </trkpt>
      <trkpt lat="40.2189740" lon="-3.7785760">
        <ele>662.6</ele>
        <time>2019-04-28T15:24:52Z</time>
      </trkpt>
      <trkpt lat="40.2189530" lon="-3.7784970">
        <ele>662.6</ele>
        <time>2019-04-28T15:24:53Z</time>
      </trkpt>
      <trkpt lat="40.2189360" lon="-3.7784160">
        <ele>662.6</ele>
        <time>2019-04-28T15:24:54Z</time>
      </trkpt>
      <trkpt lat="40.2189190" lon="-3.7783340">
        <ele>662.6</ele>
        <time>2019-04-28T15:24:55Z</time>
      </trkpt>
      <trkpt lat="40.2189040" lon="-3.7782510">
        <ele>662.6</ele>
        <time>2019-04-28T15:24:56Z</time>
      </trkpt>
      <trkpt lat="40.2188890" lon="-3.7781690">
        <ele>662.4</ele>
        <time>2019-04-28T15:24:57Z</time>
      </trkpt>
      <trkpt lat="40.2188770" lon="-3.7780870">
        <ele>662.4</ele>
        <time>2019-04-28T15:24:58Z</time>
      </trkpt>
      <trkpt lat="40.2188650" lon="-3.7780040">
        <ele>662.4</ele>
        <time>2019-04-28T15:24:59Z</time>
      </trkpt>
      <trkpt lat="40.2188480" lon="-3.7779200">
        <ele>662.0</ele>
        <time>2019-04-28T15:25:00Z</time>
      </trkpt>
      <trkpt lat="40.2188300" lon="-3.7778340">
        <ele>662.0</ele>
        <time>2019-04-28T15:25:01Z</time>
      </trkpt>
      <trkpt lat="40.2188150" lon="-3.7777470">
        <ele>661.8</ele>
        <time>2019-04-28T15:25:02Z</time>
      </trkpt>
      <trkpt lat="40.2188030" lon="-3.7776580">
        <ele>661.8</ele>
        <time>2019-04-28T15:25:03Z</time>
      </trkpt>
      <trkpt lat="40.2187900" lon="-3.7775680">
        <ele>661.8</ele>
        <time>2019-04-28T15:25:04Z</time>
      </trkpt>
      <trkpt lat="40.2187790" lon="-3.7774770">
        <ele>661.6</ele>
        <time>2019-04-28T15:25:05Z</time>
      </trkpt>
      <trkpt lat="40.2187690" lon="-3.7773870">
        <ele>661.6</ele>
        <time>2019-04-28T15:25:06Z</time>
      </trkpt>
      <trkpt lat="40.2187570" lon="-3.7773000">
        <ele>661.6</ele>
        <time>2019-04-28T15:25:07Z</time>
      </trkpt>
      <trkpt lat="40.2187440" lon="-3.7772130">
        <ele>661.4</ele>
        <time>2019-04-28T15:25:08Z</time>
      </trkpt>
      <trkpt lat="40.2187340" lon="-3.7771270">
        <ele>661.4</ele>
        <time>2019-04-28T15:25:09Z</time>
      </trkpt>
      <trkpt lat="40.2187280" lon="-3.7770420">
        <ele>661.4</ele>
        <time>2019-04-28T15:25:10Z</time>
      </trkpt>
      <trkpt lat="40.2187240" lon="-3.7769540">
        <ele>661.6</ele>
        <time>2019-04-28T15:25:11Z</time>
      </trkpt>
      <trkpt lat="40.2187170" lon="-3.7768680">
        <ele>661.4</ele>
        <time>2019-04-28T15:25:12Z</time>
      </trkpt>
      <trkpt lat="40.2187070" lon="-3.7767790">
        <ele>661.2</ele>
        <time>2019-04-28T15:25:13Z</time>
      </trkpt>
      <trkpt lat="40.2186960" lon="-3.7766920">
        <ele>661.2</ele>
        <time>2019-04-28T15:25:14Z</time>
      </trkpt>
      <trkpt lat="40.2186840" lon="-3.7766060">
        <ele>661.0</ele>
        <time>2019-04-28T15:25:15Z</time>
      </trkpt>
      <trkpt lat="40.2186680" lon="-3.7765270">
        <ele>660.8</ele>
        <time>2019-04-28T15:25:16Z</time>
      </trkpt>
      <trkpt lat="40.2186520" lon="-3.7764530">
        <ele>660.6</ele>
        <time>2019-04-28T15:25:17Z</time>
      </trkpt>
      <trkpt lat="40.2186390" lon="-3.7763760">
        <ele>660.6</ele>
        <time>2019-04-28T15:25:18Z</time>
      </trkpt>
      <trkpt lat="40.2186270" lon="-3.7763010">
        <ele>660.8</ele>
        <time>2019-04-28T15:25:19Z</time>
      </trkpt>
      <trkpt lat="40.2186100" lon="-3.7762270">
        <ele>660.6</ele>
        <time>2019-04-28T15:25:20Z</time>
      </trkpt>
      <trkpt lat="40.2185950" lon="-3.7761510">
        <ele>660.6</ele>
        <time>2019-04-28T15:25:21Z</time>
      </trkpt>
      <trkpt lat="40.2185860" lon="-3.7760770">
        <ele>660.6</ele>
        <time>2019-04-28T15:25:22Z</time>
      </trkpt>
      <trkpt lat="40.2185850" lon="-3.7760080">
        <ele>660.6</ele>
        <time>2019-04-28T15:25:23Z</time>
      </trkpt>
      <trkpt lat="40.2185840" lon="-3.7759420">
        <ele>660.6</ele>
        <time>2019-04-28T15:25:24Z</time>
      </trkpt>
      <trkpt lat="40.2185760" lon="-3.7758750">
        <ele>660.6</ele>
        <time>2019-04-28T15:25:25Z</time>
      </trkpt>
      <trkpt lat="40.2185650" lon="-3.7758080">
        <ele>660.4</ele>
        <time>2019-04-28T15:25:26Z</time>
      </trkpt>
      <trkpt lat="40.2185560" lon="-3.7757380">
        <ele>660.4</ele>
        <time>2019-04-28T15:25:27Z</time>
      </trkpt>
      <trkpt lat="40.2185440" lon="-3.7756690">
        <ele>660.2</ele>
        <time>2019-04-28T15:25:28Z</time>
      </trkpt>
      <trkpt lat="40.2185300" lon="-3.7755980">
        <ele>660.2</ele>
        <time>2019-04-28T15:25:29Z</time>
      </trkpt>
      <trkpt lat="40.2185200" lon="-3.7755250">
        <ele>660.2</ele>
        <time>2019-04-28T15:25:30Z</time>
      </trkpt>
      <trkpt lat="40.2185090" lon="-3.7754500">
        <ele>660.2</ele>
        <time>2019-04-28T15:25:31Z</time>
      </trkpt>
      <trkpt lat="40.2184980" lon="-3.7753750">
        <ele>660.4</ele>
        <time>2019-04-28T15:25:32Z</time>
      </trkpt>
      <trkpt lat="40.2184850" lon="-3.7752970">
        <ele>660.2</ele>
        <time>2019-04-28T15:25:33Z</time>
      </trkpt>
      <trkpt lat="40.2184750" lon="-3.7752160">
        <ele>660.2</ele>
        <time>2019-04-28T15:25:34Z</time>
      </trkpt>
      <trkpt lat="40.2184630" lon="-3.7751340">
        <ele>659.8</ele>
        <time>2019-04-28T15:25:35Z</time>
      </trkpt>
      <trkpt lat="40.2184490" lon="-3.7750540">
        <ele>659.4</ele>
        <time>2019-04-28T15:25:36Z</time>
      </trkpt>
      <trkpt lat="40.2184370" lon="-3.7749770">
        <ele>659.4</ele>
        <time>2019-04-28T15:25:37Z</time>
      </trkpt>
      <trkpt lat="40.2184310" lon="-3.7749000">
        <ele>659.6</ele>
        <time>2019-04-28T15:25:38Z</time>
      </trkpt>
      <trkpt lat="40.2184310" lon="-3.7748210">
        <ele>659.8</ele>
        <time>2019-04-28T15:25:39Z</time>
      </trkpt>
      <trkpt lat="40.2184300" lon="-3.7747360">
        <ele>659.8</ele>
        <time>2019-04-28T15:25:40Z</time>
      </trkpt>
      <trkpt lat="40.2184280" lon="-3.7746530">
        <ele>659.8</ele>
        <time>2019-04-28T15:25:41Z</time>
      </trkpt>
      <trkpt lat="40.2184250" lon="-3.7745690">
        <ele>659.8</ele>
        <time>2019-04-28T15:25:42Z</time>
      </trkpt>
      <trkpt lat="40.2184240" lon="-3.7744870">
        <ele>659.8</ele>
        <time>2019-04-28T15:25:43Z</time>
      </trkpt>
      <trkpt lat="40.2184270" lon="-3.7744050">
        <ele>659.6</ele>
        <time>2019-04-28T15:25:44Z</time>
      </trkpt>
      <trkpt lat="40.2184310" lon="-3.7743310">
        <ele>659.6</ele>
        <time>2019-04-28T15:25:45Z</time>
      </trkpt>
      <trkpt lat="40.2184380" lon="-3.7742540">
        <ele>659.4</ele>
        <time>2019-04-28T15:25:46Z</time>
      </trkpt>
      <trkpt lat="40.2184360" lon="-3.7741720">
        <ele>659.4</ele>
        <time>2019-04-28T15:25:47Z</time>
      </trkpt>
      <trkpt lat="40.2184210" lon="-3.7740920">
        <ele>659.2</ele>
        <time>2019-04-28T15:25:48Z</time>
      </trkpt>
      <trkpt lat="40.2183980" lon="-3.7740140">
        <ele>659.2</ele>
        <time>2019-04-28T15:25:49Z</time>
      </trkpt>
      <trkpt lat="40.2183730" lon="-3.7739360">
        <ele>659.0</ele>
        <time>2019-04-28T15:25:50Z</time>
      </trkpt>
      <trkpt lat="40.2183470" lon="-3.7738570">
        <ele>659.0</ele>
        <time>2019-04-28T15:25:51Z</time>
      </trkpt>
      <trkpt lat="40.2183230" lon="-3.7737760">
        <ele>659.0</ele>
        <time>2019-04-28T15:25:52Z</time>
      </trkpt>
      <trkpt lat="40.2183000" lon="-3.7736940">
        <ele>659.0</ele>
        <time>2019-04-28T15:25:53Z</time>
      </trkpt>
      <trkpt lat="40.2182770" lon="-3.7736120">
        <ele>659.0</ele>
        <time>2019-04-28T15:25:54Z</time>
      </trkpt>
      <trkpt lat="40.2182550" lon="-3.7735270">
        <ele>659.0</ele>
        <time>2019-04-28T15:25:55Z</time>
      </trkpt>
      <trkpt lat="40.2182330" lon="-3.7734410">
        <ele>659.2</ele>
        <time>2019-04-28T15:25:56Z</time>
      </trkpt>
      <trkpt lat="40.2182110" lon="-3.7733560">
        <ele>659.0</ele>
        <time>2019-04-28T15:25:57Z</time>
      </trkpt>
      <trkpt lat="40.2181880" lon="-3.7732700">
        <ele>659.0</ele>
        <time>2019-04-28T15:25:58Z</time>
      </trkpt>
      <trkpt lat="40.2181630" lon="-3.7731840">
        <ele>659.0</ele>
        <time>2019-04-28T15:25:59Z</time>
      </trkpt>
      <trkpt lat="40.2181390" lon="-3.7730980">
        <ele>659.0</ele>
        <time>2019-04-28T15:26:00Z</time>
      </trkpt>
      <trkpt lat="40.2181150" lon="-3.7730130">
        <ele>659.0</ele>
        <time>2019-04-28T15:26:01Z</time>
      </trkpt>
      <trkpt lat="40.2180880" lon="-3.7729290">
        <ele>658.8</ele>
        <time>2019-04-28T15:26:02Z</time>
      </trkpt>
      <trkpt lat="40.2180610" lon="-3.7728470">
        <ele>658.6</ele>
        <time>2019-04-28T15:26:03Z</time>
      </trkpt>
      <trkpt lat="40.2180350" lon="-3.7727660">
        <ele>658.6</ele>
        <time>2019-04-28T15:26:04Z</time>
      </trkpt>
      <trkpt lat="40.2180160" lon="-3.7726840">
        <ele>658.4</ele>
        <time>2019-04-28T15:26:05Z</time>
      </trkpt>
      <trkpt lat="40.2179990" lon="-3.7726040">
        <ele>658.6</ele>
        <time>2019-04-28T15:26:06Z</time>
      </trkpt>
      <trkpt lat="40.2179840" lon="-3.7725260">
        <ele>658.6</ele>
        <time>2019-04-28T15:26:07Z</time>
      </trkpt>
      <trkpt lat="40.2179690" lon="-3.7724510">
        <ele>658.6</ele>
        <time>2019-04-28T15:26:08Z</time>
      </trkpt>
      <trkpt lat="40.2179540" lon="-3.7723780">
        <ele>658.4</ele>
        <time>2019-04-28T15:26:09Z</time>
      </trkpt>
      <trkpt lat="40.2179440" lon="-3.7723060">
        <ele>658.4</ele>
        <time>2019-04-28T15:26:10Z</time>
      </trkpt>
      <trkpt lat="40.2179400" lon="-3.7722350">
        <ele>658.6</ele>
        <time>2019-04-28T15:26:11Z</time>
      </trkpt>
      <trkpt lat="40.2179220" lon="-3.7721730">
        <ele>658.8</ele>
        <time>2019-04-28T15:26:12Z</time>
      </trkpt>
      <trkpt lat="40.2178930" lon="-3.7721110">
        <ele>658.4</ele>
        <time>2019-04-28T15:26:13Z</time>
      </trkpt>
      <trkpt lat="40.2178660" lon="-3.7720440">
        <ele>658.4</ele>
        <time>2019-04-28T15:26:14Z</time>
      </trkpt>
      <trkpt lat="40.2178440" lon="-3.7719720">
        <ele>658.2</ele>
        <time>2019-04-28T15:26:15Z</time>
      </trkpt>
      <trkpt lat="40.2178130" lon="-3.7719040">
        <ele>658.2</ele>
        <time>2019-04-28T15:26:16Z</time>
      </trkpt>
      <trkpt lat="40.2177810" lon="-3.7718350">
        <ele>658.2</ele>
        <time>2019-04-28T15:26:17Z</time>
      </trkpt>
      <trkpt lat="40.2177560" lon="-3.7717590">
        <ele>658.2</ele>
        <time>2019-04-28T15:26:18Z</time>
      </trkpt>
      <trkpt lat="40.2177350" lon="-3.7716770">
        <ele>658.2</ele>
        <time>2019-04-28T15:26:19Z</time>
      </trkpt>
      <trkpt lat="40.2177160" lon="-3.7715920">
        <ele>658.0</ele>
        <time>2019-04-28T15:26:20Z</time>
      </trkpt>
      <trkpt lat="40.2176960" lon="-3.7715080">
        <ele>657.8</ele>
        <time>2019-04-28T15:26:21Z</time>
      </trkpt>
      <trkpt lat="40.2176730" lon="-3.7714240">
        <ele>657.8</ele>
        <time>2019-04-28T15:26:22Z</time>
      </trkpt>
      <trkpt lat="40.2176520" lon="-3.7713410">
        <ele>657.8</ele>
        <time>2019-04-28T15:26:23Z</time>
      </trkpt>
      <trkpt lat="40.2176340" lon="-3.7712580">
        <ele>657.8</ele>
        <time>2019-04-28T15:26:24Z</time>
      </trkpt>
      <trkpt lat="40.2176170" lon="-3.7711750">
        <ele>657.8</ele>
        <time>2019-04-28T15:26:25Z</time>
      </trkpt>
      <trkpt lat="40.2176010" lon="-3.7710950">
        <ele>657.8</ele>
        <time>2019-04-28T15:26:26Z</time>
      </trkpt>
      <trkpt lat="40.2175910" lon="-3.7710130">
        <ele>658.0</ele>
        <time>2019-04-28T15:26:27Z</time>
      </trkpt>
      <trkpt lat="40.2175850" lon="-3.7709310">
        <ele>658.0</ele>
        <time>2019-04-28T15:26:28Z</time>
      </trkpt>
      <trkpt lat="40.2175810" lon="-3.7708500">
        <ele>658.0</ele>
        <time>2019-04-28T15:26:29Z</time>
      </trkpt>
      <trkpt lat="40.2175730" lon="-3.7707680">
        <ele>658.2</ele>
        <time>2019-04-28T15:26:30Z</time>
      </trkpt>
      <trkpt lat="40.2175600" lon="-3.7706890">
        <ele>658.0</ele>
        <time>2019-04-28T15:26:31Z</time>
      </trkpt>
      <trkpt lat="40.2175440" lon="-3.7706120">
        <ele>657.8</ele>
        <time>2019-04-28T15:26:32Z</time>
      </trkpt>
      <trkpt lat="40.2175330" lon="-3.7705340">
        <ele>657.8</ele>
        <time>2019-04-28T15:26:33Z</time>
      </trkpt>
      <trkpt lat="40.2175300" lon="-3.7704540">
        <ele>657.8</ele>
        <time>2019-04-28T15:26:34Z</time>
      </trkpt>
      <trkpt lat="40.2175270" lon="-3.7703710">
        <ele>657.8</ele>
        <time>2019-04-28T15:26:35Z</time>
      </trkpt>
      <trkpt lat="40.2175210" lon="-3.7702910">
        <ele>658.0</ele>
        <time>2019-04-28T15:26:36Z</time>
      </trkpt>
      <trkpt lat="40.2175130" lon="-3.7702140">
        <ele>658.0</ele>
        <time>2019-04-28T15:26:37Z</time>
      </trkpt>
      <trkpt lat="40.2175090" lon="-3.7701350">
        <ele>657.8</ele>
        <time>2019-04-28T15:26:38Z</time>
      </trkpt>
      <trkpt lat="40.2175070" lon="-3.7700550">
        <ele>657.6</ele>
        <time>2019-04-28T15:26:39Z</time>
      </trkpt>
      <trkpt lat="40.2175050" lon="-3.7699770">
        <ele>657.8</ele>
        <time>2019-04-28T15:26:40Z</time>
      </trkpt>
      <trkpt lat="40.2175050" lon="-3.7698980">
        <ele>657.8</ele>
        <time>2019-04-28T15:26:41Z</time>
      </trkpt>
      <trkpt lat="40.2175070" lon="-3.7698190">
        <ele>657.8</ele>
        <time>2019-04-28T15:26:42Z</time>
      </trkpt>
      <trkpt lat="40.2175110" lon="-3.7697380">
        <ele>657.8</ele>
        <time>2019-04-28T15:26:43Z</time>
      </trkpt>
      <trkpt lat="40.2175040" lon="-3.7696590">
        <ele>657.8</ele>
        <time>2019-04-28T15:26:44Z</time>
      </trkpt>
      <trkpt lat="40.2174890" lon="-3.7695800">
        <ele>657.8</ele>
        <time>2019-04-28T15:26:45Z</time>
      </trkpt>
      <trkpt lat="40.2174790" lon="-3.7695000">
        <ele>657.6</ele>
        <time>2019-04-28T15:26:46Z</time>
      </trkpt>
      <trkpt lat="40.2174820" lon="-3.7694160">
        <ele>657.6</ele>
        <time>2019-04-28T15:26:47Z</time>
      </trkpt>
      <trkpt lat="40.2174810" lon="-3.7693310">
        <ele>657.6</ele>
        <time>2019-04-28T15:26:48Z</time>
      </trkpt>
      <trkpt lat="40.2174830" lon="-3.7692460">
        <ele>657.4</ele>
        <time>2019-04-28T15:26:49Z</time>
      </trkpt>
      <trkpt lat="40.2174920" lon="-3.7691570">
        <ele>657.6</ele>
        <time>2019-04-28T15:26:50Z</time>
      </trkpt>
      <trkpt lat="40.2175010" lon="-3.7690710">
        <ele>657.4</ele>
        <time>2019-04-28T15:26:51Z</time>
      </trkpt>
      <trkpt lat="40.2175070" lon="-3.7689850">
        <ele>657.4</ele>
        <time>2019-04-28T15:26:52Z</time>
      </trkpt>
      <trkpt lat="40.2175060" lon="-3.7689000">
        <ele>657.4</ele>
        <time>2019-04-28T15:26:53Z</time>
      </trkpt>
      <trkpt lat="40.2174960" lon="-3.7688150">
        <ele>657.4</ele>
        <time>2019-04-28T15:26:54Z</time>
      </trkpt>
      <trkpt lat="40.2174800" lon="-3.7687340">
        <ele>657.2</ele>
        <time>2019-04-28T15:26:55Z</time>
      </trkpt>
      <trkpt lat="40.2174570" lon="-3.7686580">
        <ele>657.2</ele>
        <time>2019-04-28T15:26:56Z</time>
      </trkpt>
      <trkpt lat="40.2174250" lon="-3.7685880">
        <ele>657.2</ele>
        <time>2019-04-28T15:26:57Z</time>
      </trkpt>
      <trkpt lat="40.2173820" lon="-3.7685220">
        <ele>657.4</ele>
        <time>2019-04-28T15:26:58Z</time>
      </trkpt>
      <trkpt lat="40.2173360" lon="-3.7684600">
        <ele>657.4</ele>
        <time>2019-04-28T15:26:59Z</time>
      </trkpt>
      <trkpt lat="40.2172940" lon="-3.7683960">
        <ele>657.2</ele>
        <time>2019-04-28T15:27:00Z</time>
      </trkpt>
      <trkpt lat="40.2172520" lon="-3.7683310">
        <ele>657.0</ele>
        <time>2019-04-28T15:27:01Z</time>
      </trkpt>
      <trkpt lat="40.2172110" lon="-3.7682620">
        <ele>657.2</ele>
        <time>2019-04-28T15:27:02Z</time>
      </trkpt>
      <trkpt lat="40.2171710" lon="-3.7681900">
        <ele>657.0</ele>
        <time>2019-04-28T15:27:03Z</time>
      </trkpt>
      <trkpt lat="40.2171330" lon="-3.7681180">
        <ele>656.8</ele>
        <time>2019-04-28T15:27:04Z</time>
      </trkpt>
      <trkpt lat="40.2170930" lon="-3.7680490">
        <ele>656.8</ele>
        <time>2019-04-28T15:27:05Z</time>
      </trkpt>
      <trkpt lat="40.2170570" lon="-3.7679850">
        <ele>656.8</ele>
        <time>2019-04-28T15:27:06Z</time>
      </trkpt>
      <trkpt lat="40.2170240" lon="-3.7679240">
        <ele>656.6</ele>
        <time>2019-04-28T15:27:07Z</time>
      </trkpt>
      <trkpt lat="40.2169920" lon="-3.7678640">
        <ele>656.2</ele>
        <time>2019-04-28T15:27:08Z</time>
      </trkpt>
      <trkpt lat="40.2169570" lon="-3.7678070">
        <ele>656.2</ele>
        <time>2019-04-28T15:27:09Z</time>
      </trkpt>
      <trkpt lat="40.2169220" lon="-3.7677510">
        <ele>656.2</ele>
        <time>2019-04-28T15:27:10Z</time>
      </trkpt>
      <trkpt lat="40.2168870" lon="-3.7676910">
        <ele>656.0</ele>
        <time>2019-04-28T15:27:11Z</time>
      </trkpt>
      <trkpt lat="40.2168540" lon="-3.7676330">
        <ele>656.4</ele>
        <time>2019-04-28T15:27:12Z</time>
      </trkpt>
      <trkpt lat="40.2168260" lon="-3.7675710">
        <ele>656.4</ele>
        <time>2019-04-28T15:27:13Z</time>
      </trkpt>
      <trkpt lat="40.2167970" lon="-3.7675090">
        <ele>656.6</ele>
        <time>2019-04-28T15:27:14Z</time>
      </trkpt>
      <trkpt lat="40.2167720" lon="-3.7674480">
        <ele>656.4</ele>
        <time>2019-04-28T15:27:15Z</time>
      </trkpt>
      <trkpt lat="40.2167460" lon="-3.7673940">
        <ele>656.4</ele>
        <time>2019-04-28T15:27:16Z</time>
      </trkpt>
      <trkpt lat="40.2167230" lon="-3.7673400">
        <ele>656.4</ele>
        <time>2019-04-28T15:27:17Z</time>
      </trkpt>
      <trkpt lat="40.2167020" lon="-3.7672830">
        <ele>656.2</ele>
        <time>2019-04-28T15:27:18Z</time>
      </trkpt>
      <trkpt lat="40.2166850" lon="-3.7672230">
        <ele>656.4</ele>
        <time>2019-04-28T15:27:19Z</time>
      </trkpt>
      <trkpt lat="40.2166750" lon="-3.7671590">
        <ele>656.4</ele>
        <time>2019-04-28T15:27:20Z</time>
      </trkpt>
      <trkpt lat="40.2166650" lon="-3.7670950">
        <ele>656.4</ele>
        <time>2019-04-28T15:27:21Z</time>
      </trkpt>
      <trkpt lat="40.2166540" lon="-3.7670280">
        <ele>656.4</ele>
        <time>2019-04-28T15:27:22Z</time>
      </trkpt>
      <trkpt lat="40.2166440" lon="-3.7669560">
        <ele>656.6</ele>
        <time>2019-04-28T15:27:23Z</time>
      </trkpt>
      <trkpt lat="40.2166310" lon="-3.7668790">
        <ele>656.6</ele>
        <time>2019-04-28T15:27:24Z</time>
      </trkpt>
      <trkpt lat="40.2166170" lon="-3.7668030">
        <ele>656.4</ele>
        <time>2019-04-28T15:27:25Z</time>
      </trkpt>
      <trkpt lat="40.2166000" lon="-3.7667270">
        <ele>656.4</ele>
        <time>2019-04-28T15:27:26Z</time>
      </trkpt>
      <trkpt lat="40.2165830" lon="-3.7666490">
        <ele>656.2</ele>
        <time>2019-04-28T15:27:27Z</time>
      </trkpt>
      <trkpt lat="40.2165670" lon="-3.7665730">
        <ele>656.2</ele>
        <time>2019-04-28T15:27:28Z</time>
      </trkpt>
      <trkpt lat="40.2165510" lon="-3.7665000">
        <ele>656.2</ele>
        <time>2019-04-28T15:27:29Z</time>
      </trkpt>
      <trkpt lat="40.2165370" lon="-3.7664240">
        <ele>656.2</ele>
        <time>2019-04-28T15:27:30Z</time>
      </trkpt>
      <trkpt lat="40.2165230" lon="-3.7663440">
        <ele>656.2</ele>
        <time>2019-04-28T15:27:31Z</time>
      </trkpt>
      <trkpt lat="40.2165090" lon="-3.7662610">
        <ele>656.2</ele>
        <time>2019-04-28T15:27:32Z</time>
      </trkpt>
      <trkpt lat="40.2164930" lon="-3.7661760">
        <ele>656.2</ele>
        <time>2019-04-28T15:27:33Z</time>
      </trkpt>
      <trkpt lat="40.2164800" lon="-3.7660930">
        <ele>656.2</ele>
        <time>2019-04-28T15:27:34Z</time>
      </trkpt>
      <trkpt lat="40.2164650" lon="-3.7660100">
        <ele>656.2</ele>
        <time>2019-04-28T15:27:35Z</time>
      </trkpt>
      <trkpt lat="40.2164510" lon="-3.7659290">
        <ele>656.2</ele>
        <time>2019-04-28T15:27:36Z</time>
      </trkpt>
      <trkpt lat="40.2164370" lon="-3.7658460">
        <ele>656.0</ele>
        <time>2019-04-28T15:27:37Z</time>
      </trkpt>
      <trkpt lat="40.2164240" lon="-3.7657640">
        <ele>655.8</ele>
        <time>2019-04-28T15:27:38Z</time>
      </trkpt>
      <trkpt lat="40.2164090" lon="-3.7656830">
        <ele>655.8</ele>
        <time>2019-04-28T15:27:39Z</time>
      </trkpt>
      <trkpt lat="40.2163970" lon="-3.7656040">
        <ele>655.8</ele>
        <time>2019-04-28T15:27:40Z</time>
      </trkpt>
      <trkpt lat="40.2163890" lon="-3.7655220">
        <ele>655.8</ele>
        <time>2019-04-28T15:27:41Z</time>
      </trkpt>
      <trkpt lat="40.2163750" lon="-3.7654430">
        <ele>656.0</ele>
        <time>2019-04-28T15:27:42Z</time>
      </trkpt>
      <trkpt lat="40.2163590" lon="-3.7653650">
        <ele>655.8</ele>
        <time>2019-04-28T15:27:43Z</time>
      </trkpt>
      <trkpt lat="40.2163440" lon="-3.7652820">
        <ele>656.0</ele>
        <time>2019-04-28T15:27:44Z</time>
      </trkpt>
      <trkpt lat="40.2163330" lon="-3.7652010">
        <ele>656.0</ele>
        <time>2019-04-28T15:27:45Z</time>
      </trkpt>
      <trkpt lat="40.2163230" lon="-3.7651210">
        <ele>656.0</ele>
        <time>2019-04-28T15:27:46Z</time>
      </trkpt>
      <trkpt lat="40.2163160" lon="-3.7650420">
        <ele>656.0</ele>
        <time>2019-04-28T15:27:47Z</time>
      </trkpt>
      <trkpt lat="40.2163100" lon="-3.7649690">
        <ele>656.0</ele>
        <time>2019-04-28T15:27:48Z</time>
      </trkpt>
      <trkpt lat="40.2163150" lon="-3.7649010">
        <ele>656.0</ele>
        <time>2019-04-28T15:27:49Z</time>
      </trkpt>
      <trkpt lat="40.2163160" lon="-3.7648230">
        <ele>656.0</ele>
        <time>2019-04-28T15:27:50Z</time>
      </trkpt>
      <trkpt lat="40.2163120" lon="-3.7647440">
        <ele>656.0</ele>
        <time>2019-04-28T15:27:51Z</time>
      </trkpt>
      <trkpt lat="40.2163040" lon="-3.7646720">
        <ele>656.2</ele>
        <time>2019-04-28T15:27:52Z</time>
      </trkpt>
      <trkpt lat="40.2162870" lon="-3.7645980">
        <ele>656.0</ele>
        <time>2019-04-28T15:27:53Z</time>
      </trkpt>
      <trkpt lat="40.2162610" lon="-3.7645190">
        <ele>656.0</ele>
        <time>2019-04-28T15:27:54Z</time>
      </trkpt>
      <trkpt lat="40.2162310" lon="-3.7644460">
        <ele>656.0</ele>
        <time>2019-04-28T15:27:55Z</time>
      </trkpt>
      <trkpt lat="40.2161990" lon="-3.7643700">
        <ele>655.8</ele>
        <time>2019-04-28T15:27:56Z</time>
      </trkpt>
      <trkpt lat="40.2161670" lon="-3.7642950">
        <ele>655.8</ele>
        <time>2019-04-28T15:27:57Z</time>
      </trkpt>
      <trkpt lat="40.2161340" lon="-3.7642230">
        <ele>655.8</ele>
        <time>2019-04-28T15:27:58Z</time>
      </trkpt>
      <trkpt lat="40.2160990" lon="-3.7641540">
        <ele>656.0</ele>
        <time>2019-04-28T15:27:59Z</time>
      </trkpt>
      <trkpt lat="40.2160620" lon="-3.7640860">
        <ele>655.8</ele>
        <time>2019-04-28T15:28:00Z</time>
      </trkpt>
      <trkpt lat="40.2160270" lon="-3.7640160">
        <ele>655.8</ele>
        <time>2019-04-28T15:28:01Z</time>
      </trkpt>
      <trkpt lat="40.2159920" lon="-3.7639450">
        <ele>656.0</ele>
        <time>2019-04-28T15:28:02Z</time>
      </trkpt>
      <trkpt lat="40.2159560" lon="-3.7638750">
        <ele>656.0</ele>
        <time>2019-04-28T15:28:03Z</time>
      </trkpt>
      <trkpt lat="40.2159200" lon="-3.7638030">
        <ele>656.0</ele>
        <time>2019-04-28T15:28:04Z</time>
      </trkpt>
      <trkpt lat="40.2158840" lon="-3.7637300">
        <ele>656.0</ele>
        <time>2019-04-28T15:28:05Z</time>
      </trkpt>
      <trkpt lat="40.2158480" lon="-3.7636550">
        <ele>655.8</ele>
        <time>2019-04-28T15:28:06Z</time>
      </trkpt>
      <trkpt lat="40.2158130" lon="-3.7635790">
        <ele>655.8</ele>
        <time>2019-04-28T15:28:07Z</time>
      </trkpt>
      <trkpt lat="40.2157820" lon="-3.7635030">
        <ele>655.8</ele>
        <time>2019-04-28T15:28:08Z</time>
      </trkpt>
      <trkpt lat="40.2157520" lon="-3.7634270">
        <ele>655.8</ele>
        <time>2019-04-28T15:28:09Z</time>
      </trkpt>
      <trkpt lat="40.2157210" lon="-3.7633560">
        <ele>655.6</ele>
        <time>2019-04-28T15:28:10Z</time>
      </trkpt>
      <trkpt lat="40.2156930" lon="-3.7632830">
        <ele>655.6</ele>
        <time>2019-04-28T15:28:11Z</time>
      </trkpt>
      <trkpt lat="40.2156690" lon="-3.7632110">
        <ele>655.4</ele>
        <time>2019-04-28T15:28:12Z</time>
      </trkpt>
      <trkpt lat="40.2156460" lon="-3.7631370">
        <ele>655.6</ele>
        <time>2019-04-28T15:28:13Z</time>
      </trkpt>
      <trkpt lat="40.2156230" lon="-3.7630650">
        <ele>655.6</ele>
        <time>2019-04-28T15:28:14Z</time>
      </trkpt>
      <trkpt lat="40.2156020" lon="-3.7629940">
        <ele>655.6</ele>
        <time>2019-04-28T15:28:15Z</time>
      </trkpt>
      <trkpt lat="40.2155820" lon="-3.7629230">
        <ele>655.8</ele>
        <time>2019-04-28T15:28:16Z</time>
      </trkpt>
      <trkpt lat="40.2155650" lon="-3.7628570">
        <ele>655.8</ele>
        <time>2019-04-28T15:28:17Z</time>
      </trkpt>
      <trkpt lat="40.2155470" lon="-3.7627940">
        <ele>655.8</ele>
        <time>2019-04-28T15:28:18Z</time>
      </trkpt>
      <trkpt lat="40.2155220" lon="-3.7627270">
        <ele>655.8</ele>
        <time>2019-04-28T15:28:19Z</time>
      </trkpt>
      <trkpt lat="40.2154960" lon="-3.7626580">
        <ele>655.8</ele>
        <time>2019-04-28T15:28:20Z</time>
      </trkpt>
      <trkpt lat="40.2154680" lon="-3.7625890">
        <ele>655.8</ele>
        <time>2019-04-28T15:28:21Z</time>
      </trkpt>
      <trkpt lat="40.2154340" lon="-3.7625220">
        <ele>655.8</ele>
        <time>2019-04-28T15:28:22Z</time>
      </trkpt>
      <trkpt lat="40.2154010" lon="-3.7624540">
        <ele>655.8</ele>
        <time>2019-04-28T15:28:23Z</time>
      </trkpt>
      <trkpt lat="40.2153680" lon="-3.7623850">
        <ele>655.6</ele>
        <time>2019-04-28T15:28:24Z</time>
      </trkpt>
      <trkpt lat="40.2153340" lon="-3.7623160">
        <ele>655.6</ele>
        <time>2019-04-28T15:28:25Z</time>
      </trkpt>
      <trkpt lat="40.2153000" lon="-3.7622470">
        <ele>655.6</ele>
        <time>2019-04-28T15:28:26Z</time>
      </trkpt>
      <trkpt lat="40.2152670" lon="-3.7621780">
        <ele>655.6</ele>
        <time>2019-04-28T15:28:27Z</time>
      </trkpt>
      <trkpt lat="40.2152330" lon="-3.7621100">
        <ele>655.6</ele>
        <time>2019-04-28T15:28:28Z</time>
      </trkpt>
      <trkpt lat="40.2152020" lon="-3.7620440">
        <ele>655.6</ele>
        <time>2019-04-28T15:28:29Z</time>
      </trkpt>
      <trkpt lat="40.2151700" lon="-3.7619810">
        <ele>655.6</ele>
        <time>2019-04-28T15:28:30Z</time>
      </trkpt>
      <trkpt lat="40.2151410" lon="-3.7619220">
        <ele>655.6</ele>
        <time>2019-04-28T15:28:31Z</time>
      </trkpt>
      <trkpt lat="40.2151090" lon="-3.7618640">
        <ele>655.4</ele>
        <time>2019-04-28T15:28:32Z</time>
      </trkpt>
      <trkpt lat="40.2150760" lon="-3.7618090">
        <ele>655.2</ele>
        <time>2019-04-28T15:28:33Z</time>
      </trkpt>
      <trkpt lat="40.2150410" lon="-3.7617560">
        <ele>655.2</ele>
        <time>2019-04-28T15:28:34Z</time>
      </trkpt>
      <trkpt lat="40.2150030" lon="-3.7617030">
        <ele>655.2</ele>
        <time>2019-04-28T15:28:35Z</time>
      </trkpt>
      <trkpt lat="40.2149640" lon="-3.7616540">
        <ele>655.2</ele>
        <time>2019-04-28T15:28:36Z</time>
      </trkpt>
      <trkpt lat="40.2149260" lon="-3.7616050">
        <ele>655.0</ele>
        <time>2019-04-28T15:28:37Z</time>
      </trkpt>
      <trkpt lat="40.2148820" lon="-3.7615560">
        <ele>655.0</ele>
        <time>2019-04-28T15:28:38Z</time>
      </trkpt>
      <trkpt lat="40.2148400" lon="-3.7615040">
        <ele>655.0</ele>
        <time>2019-04-28T15:28:39Z</time>
      </trkpt>
      <trkpt lat="40.2147980" lon="-3.7614520">
        <ele>655.2</ele>
        <time>2019-04-28T15:28:40Z</time>
      </trkpt>
      <trkpt lat="40.2147560" lon="-3.7614020">
        <ele>655.2</ele>
        <time>2019-04-28T15:28:41Z</time>
      </trkpt>
      <trkpt lat="40.2147130" lon="-3.7613550">
        <ele>655.0</ele>
        <time>2019-04-28T15:28:42Z</time>
      </trkpt>
      <trkpt lat="40.2146690" lon="-3.7613090">
        <ele>655.0</ele>
        <time>2019-04-28T15:28:43Z</time>
      </trkpt>
      <trkpt lat="40.2146270" lon="-3.7612630">
        <ele>655.0</ele>
        <time>2019-04-28T15:28:44Z</time>
      </trkpt>
      <trkpt lat="40.2145850" lon="-3.7612180">
        <ele>655.0</ele>
        <time>2019-04-28T15:28:45Z</time>
      </trkpt>
      <trkpt lat="40.2145540" lon="-3.7611720">
        <ele>655.0</ele>
        <time>2019-04-28T15:28:46Z</time>
      </trkpt>
      <trkpt lat="40.2145220" lon="-3.7611120">
        <ele>655.0</ele>
        <time>2019-04-28T15:28:47Z</time>
      </trkpt>
      <trkpt lat="40.2144840" lon="-3.7610550">
        <ele>655.2</ele>
        <time>2019-04-28T15:28:48Z</time>
      </trkpt>
      <trkpt lat="40.2144400" lon="-3.7610020">
        <ele>655.2</ele>
        <time>2019-04-28T15:28:49Z</time>
      </trkpt>
      <trkpt lat="40.2143920" lon="-3.7609520">
        <ele>655.0</ele>
        <time>2019-04-28T15:28:50Z</time>
      </trkpt>
      <trkpt lat="40.2143430" lon="-3.7609050">
        <ele>655.0</ele>
        <time>2019-04-28T15:28:51Z</time>
      </trkpt>
      <trkpt lat="40.2142940" lon="-3.7608560">
        <ele>655.0</ele>
        <time>2019-04-28T15:28:52Z</time>
      </trkpt>
      <trkpt lat="40.2142460" lon="-3.7608130">
        <ele>655.0</ele>
        <time>2019-04-28T15:28:53Z</time>
      </trkpt>
      <trkpt lat="40.2141970" lon="-3.7607720">
        <ele>655.0</ele>
        <time>2019-04-28T15:28:54Z</time>
      </trkpt>
      <trkpt lat="40.2141460" lon="-3.7607330">
        <ele>654.8</ele>
        <time>2019-04-28T15:28:55Z</time>
      </trkpt>
      <trkpt lat="40.2140940" lon="-3.7606900">
        <ele>654.8</ele>
        <time>2019-04-28T15:28:56Z</time>
      </trkpt>
      <trkpt lat="40.2140420" lon="-3.7606510">
        <ele>654.8</ele>
        <time>2019-04-28T15:28:57Z</time>
      </trkpt>
      <trkpt lat="40.2139870" lon="-3.7606100">
        <ele>654.6</ele>
        <time>2019-04-28T15:28:58Z</time>
      </trkpt>
      <trkpt lat="40.2139310" lon="-3.7605720">
        <ele>654.6</ele>
        <time>2019-04-28T15:28:59Z</time>
      </trkpt>
      <trkpt lat="40.2138780" lon="-3.7605350">
        <ele>654.4</ele>
        <time>2019-04-28T15:29:00Z</time>
      </trkpt>
      <trkpt lat="40.2138260" lon="-3.7604920">
        <ele>654.4</ele>
        <time>2019-04-28T15:29:01Z</time>
      </trkpt>
      <trkpt lat="40.2137760" lon="-3.7604500">
        <ele>654.2</ele>
        <time>2019-04-28T15:29:02Z</time>
      </trkpt>
      <trkpt lat="40.2137290" lon="-3.7603990">
        <ele>654.4</ele>
        <time>2019-04-28T15:29:03Z</time>
      </trkpt>
      <trkpt lat="40.2136860" lon="-3.7603410">
        <ele>654.4</ele>
        <time>2019-04-28T15:29:04Z</time>
      </trkpt>
      <trkpt lat="40.2136450" lon="-3.7602790">
        <ele>654.4</ele>
        <time>2019-04-28T15:29:05Z</time>
      </trkpt>
      <trkpt lat="40.2136060" lon="-3.7602140">
        <ele>654.4</ele>
        <time>2019-04-28T15:29:06Z</time>
      </trkpt>
      <trkpt lat="40.2135630" lon="-3.7601520">
        <ele>654.6</ele>
        <time>2019-04-28T15:29:07Z</time>
      </trkpt>
      <trkpt lat="40.2135170" lon="-3.7600940">
        <ele>654.4</ele>
        <time>2019-04-28T15:29:08Z</time>
      </trkpt>
      <trkpt lat="40.2134680" lon="-3.7600410">
        <ele>654.2</ele>
        <time>2019-04-28T15:29:09Z</time>
      </trkpt>
      <trkpt lat="40.2134200" lon="-3.7599920">
        <ele>654.2</ele>
        <time>2019-04-28T15:29:10Z</time>
      </trkpt>
      <trkpt lat="40.2133720" lon="-3.7599460">
        <ele>654.2</ele>
        <time>2019-04-28T15:29:11Z</time>
      </trkpt>
      <trkpt lat="40.2133240" lon="-3.7599000">
        <ele>654.2</ele>
        <time>2019-04-28T15:29:12Z</time>
      </trkpt>
      <trkpt lat="40.2132750" lon="-3.7598530">
        <ele>654.2</ele>
        <time>2019-04-28T15:29:13Z</time>
      </trkpt>
      <trkpt lat="40.2132270" lon="-3.7598070">
        <ele>654.0</ele>
        <time>2019-04-28T15:29:14Z</time>
      </trkpt>
      <trkpt lat="40.2131770" lon="-3.7597630">
        <ele>654.2</ele>
        <time>2019-04-28T15:29:15Z</time>
      </trkpt>
      <trkpt lat="40.2131300" lon="-3.7597130">
        <ele>654.0</ele>
        <time>2019-04-28T15:29:16Z</time>
      </trkpt>
      <trkpt lat="40.2130850" lon="-3.7596590">
        <ele>654.2</ele>
        <time>2019-04-28T15:29:17Z</time>
      </trkpt>
      <trkpt lat="40.2130450" lon="-3.7596020">
        <ele>654.0</ele>
        <time>2019-04-28T15:29:18Z</time>
      </trkpt>
      <trkpt lat="40.2130030" lon="-3.7595460">
        <ele>653.8</ele>
        <time>2019-04-28T15:29:19Z</time>
      </trkpt>
      <trkpt lat="40.2129620" lon="-3.7594900">
        <ele>653.8</ele>
        <time>2019-04-28T15:29:20Z</time>
      </trkpt>
      <trkpt lat="40.2129250" lon="-3.7594350">
        <ele>653.8</ele>
        <time>2019-04-28T15:29:21Z</time>
      </trkpt>
      <trkpt lat="40.2128870" lon="-3.7593800">
        <ele>654.0</ele>
        <time>2019-04-28T15:29:22Z</time>
      </trkpt>
      <trkpt lat="40.2128510" lon="-3.7593350">
        <ele>654.0</ele>
        <time>2019-04-28T15:29:23Z</time>
      </trkpt>
      <trkpt lat="40.2128190" lon="-3.7592960">
        <ele>653.8</ele>
        <time>2019-04-28T15:29:24Z</time>
      </trkpt>
      <trkpt lat="40.2127900" lon="-3.7592630">
        <ele>653.8</ele>
        <time>2019-04-28T15:29:25Z</time>
      </trkpt>
      <trkpt lat="40.2127610" lon="-3.7592280">
        <ele>654.0</ele>
        <time>2019-04-28T15:29:26Z</time>
      </trkpt>
      <trkpt lat="40.2127470" lon="-3.7591810">
        <ele>653.8</ele>
        <time>2019-04-28T15:29:27Z</time>
      </trkpt>
      <trkpt lat="40.2127210" lon="-3.7591320">
        <ele>653.8</ele>
        <time>2019-04-28T15:29:28Z</time>
      </trkpt>
      <trkpt lat="40.2126850" lon="-3.7590870">
        <ele>653.8</ele>
        <time>2019-04-28T15:29:29Z</time>
      </trkpt>
      <trkpt lat="40.2126430" lon="-3.7590390">
        <ele>653.8</ele>
        <time>2019-04-28T15:29:30Z</time>
      </trkpt>
      <trkpt lat="40.2126040" lon="-3.7589950">
        <ele>653.8</ele>
        <time>2019-04-28T15:29:31Z</time>
      </trkpt>
      <trkpt lat="40.2125610" lon="-3.7589370">
        <ele>653.8</ele>
        <time>2019-04-28T15:29:32Z</time>
      </trkpt>
      <trkpt lat="40.2125190" lon="-3.7588780">
        <ele>653.8</ele>
        <time>2019-04-28T15:29:33Z</time>
      </trkpt>
      <trkpt lat="40.2124770" lon="-3.7588160">
        <ele>653.8</ele>
        <time>2019-04-28T15:29:34Z</time>
      </trkpt>
      <trkpt lat="40.2124370" lon="-3.7587530">
        <ele>653.6</ele>
        <time>2019-04-28T15:29:35Z</time>
      </trkpt>
      <trkpt lat="40.2123920" lon="-3.7586920">
        <ele>653.6</ele>
        <time>2019-04-28T15:29:36Z</time>
      </trkpt>
      <trkpt lat="40.2123450" lon="-3.7586350">
        <ele>653.6</ele>
        <time>2019-04-28T15:29:37Z</time>
      </trkpt>
      <trkpt lat="40.2123030" lon="-3.7585780">
        <ele>653.6</ele>
        <time>2019-04-28T15:29:38Z</time>
      </trkpt>
      <trkpt lat="40.2122690" lon="-3.7585270">
        <ele>653.6</ele>
        <time>2019-04-28T15:29:39Z</time>
      </trkpt>
      <trkpt lat="40.2122340" lon="-3.7584750">
        <ele>653.4</ele>
        <time>2019-04-28T15:29:40Z</time>
      </trkpt>
      <trkpt lat="40.2121950" lon="-3.7584190">
        <ele>653.4</ele>
        <time>2019-04-28T15:29:41Z</time>
      </trkpt>
      <trkpt lat="40.2121520" lon="-3.7583690">
        <ele>653.6</ele>
        <time>2019-04-28T15:29:42Z</time>
      </trkpt>
      <trkpt lat="40.2121000" lon="-3.7583090">
        <ele>653.8</ele>
        <time>2019-04-28T15:29:43Z</time>
      </trkpt>
      <trkpt lat="40.2120500" lon="-3.7582440">
        <ele>653.8</ele>
        <time>2019-04-28T15:29:44Z</time>
      </trkpt>
      <trkpt lat="40.2119990" lon="-3.7581720">
        <ele>653.8</ele>
        <time>2019-04-28T15:29:45Z</time>
      </trkpt>
      <trkpt lat="40.2119540" lon="-3.7581070">
        <ele>653.8</ele>
        <time>2019-04-28T15:29:46Z</time>
      </trkpt>
      <trkpt lat="40.2119100" lon="-3.7580400">
        <ele>653.8</ele>
        <time>2019-04-28T15:29:47Z</time>
      </trkpt>
      <trkpt lat="40.2118690" lon="-3.7579750">
        <ele>653.6</ele>
        <time>2019-04-28T15:29:48Z</time>
      </trkpt>
      <trkpt lat="40.2118290" lon="-3.7579110">
        <ele>653.6</ele>
        <time>2019-04-28T15:29:49Z</time>
      </trkpt>
      <trkpt lat="40.2117900" lon="-3.7578470">
        <ele>653.6</ele>
        <time>2019-04-28T15:29:50Z</time>
      </trkpt>
      <trkpt lat="40.2117500" lon="-3.7577870">
        <ele>653.4</ele>
        <time>2019-04-28T15:29:51Z</time>
      </trkpt>
      <trkpt lat="40.2117090" lon="-3.7577320">
        <ele>653.4</ele>
        <time>2019-04-28T15:29:52Z</time>
      </trkpt>
      <trkpt lat="40.2116690" lon="-3.7576780">
        <ele>653.4</ele>
        <time>2019-04-28T15:29:53Z</time>
      </trkpt>
      <trkpt lat="40.2116280" lon="-3.7576280">
        <ele>653.4</ele>
        <time>2019-04-28T15:29:54Z</time>
      </trkpt>
      <trkpt lat="40.2115910" lon="-3.7575800">
        <ele>653.4</ele>
        <time>2019-04-28T15:29:55Z</time>
      </trkpt>
      <trkpt lat="40.2115570" lon="-3.7575260">
        <ele>653.2</ele>
        <time>2019-04-28T15:29:56Z</time>
      </trkpt>
      <trkpt lat="40.2115270" lon="-3.7574670">
        <ele>653.0</ele>
        <time>2019-04-28T15:29:57Z</time>
      </trkpt>
      <trkpt lat="40.2114970" lon="-3.7574070">
        <ele>653.0</ele>
        <time>2019-04-28T15:29:58Z</time>
      </trkpt>
      <trkpt lat="40.2114700" lon="-3.7573470">
        <ele>653.2</ele>
        <time>2019-04-28T15:29:59Z</time>
      </trkpt>
      <trkpt lat="40.2114410" lon="-3.7572830">
        <ele>653.0</ele>
        <time>2019-04-28T15:30:00Z</time>
      </trkpt>
      <trkpt lat="40.2114120" lon="-3.7572200">
        <ele>653.2</ele>
        <time>2019-04-28T15:30:01Z</time>
      </trkpt>
      <trkpt lat="40.2113820" lon="-3.7571560">
        <ele>653.2</ele>
        <time>2019-04-28T15:30:02Z</time>
      </trkpt>
      <trkpt lat="40.2113480" lon="-3.7570920">
        <ele>653.0</ele>
        <time>2019-04-28T15:30:03Z</time>
      </trkpt>
      <trkpt lat="40.2113080" lon="-3.7570330">
        <ele>653.0</ele>
        <time>2019-04-28T15:30:04Z</time>
      </trkpt>
      <trkpt lat="40.2112670" lon="-3.7569760">
        <ele>652.8</ele>
        <time>2019-04-28T15:30:05Z</time>
      </trkpt>
      <trkpt lat="40.2112240" lon="-3.7569200">
        <ele>652.8</ele>
        <time>2019-04-28T15:30:06Z</time>
      </trkpt>
      <trkpt lat="40.2111810" lon="-3.7568620">
        <ele>653.0</ele>
        <time>2019-04-28T15:30:07Z</time>
      </trkpt>
      <trkpt lat="40.2111370" lon="-3.7568070">
        <ele>653.0</ele>
        <time>2019-04-28T15:30:08Z</time>
      </trkpt>
      <trkpt lat="40.2110910" lon="-3.7567550">
        <ele>653.0</ele>
        <time>2019-04-28T15:30:09Z</time>
      </trkpt>
      <trkpt lat="40.2110470" lon="-3.7567000">
        <ele>652.8</ele>
        <time>2019-04-28T15:30:10Z</time>
      </trkpt>
      <trkpt lat="40.2110030" lon="-3.7566480">
        <ele>652.6</ele>
        <time>2019-04-28T15:30:11Z</time>
      </trkpt>
      <trkpt lat="40.2109590" lon="-3.7565950">
        <ele>652.6</ele>
        <time>2019-04-28T15:30:12Z</time>
      </trkpt>
      <trkpt lat="40.2109160" lon="-3.7565440">
        <ele>652.6</ele>
        <time>2019-04-28T15:30:13Z</time>
      </trkpt>
      <trkpt lat="40.2108740" lon="-3.7564950">
        <ele>652.8</ele>
        <time>2019-04-28T15:30:14Z</time>
      </trkpt>
      <trkpt lat="40.2108310" lon="-3.7564480">
        <ele>652.6</ele>
        <time>2019-04-28T15:30:15Z</time>
      </trkpt>
      <trkpt lat="40.2107870" lon="-3.7563990">
        <ele>652.6</ele>
        <time>2019-04-28T15:30:16Z</time>
      </trkpt>
      <trkpt lat="40.2107430" lon="-3.7563500">
        <ele>652.8</ele>
        <time>2019-04-28T15:30:17Z</time>
      </trkpt>
      <trkpt lat="40.2106990" lon="-3.7562970">
        <ele>652.6</ele>
        <time>2019-04-28T15:30:18Z</time>
      </trkpt>
      <trkpt lat="40.2106570" lon="-3.7562400">
        <ele>652.6</ele>
        <time>2019-04-28T15:30:19Z</time>
      </trkpt>
      <trkpt lat="40.2106150" lon="-3.7561810">
        <ele>652.6</ele>
        <time>2019-04-28T15:30:20Z</time>
      </trkpt>
      <trkpt lat="40.2105740" lon="-3.7561180">
        <ele>652.6</ele>
        <time>2019-04-28T15:30:21Z</time>
      </trkpt>
      <trkpt lat="40.2105340" lon="-3.7560540">
        <ele>652.6</ele>
        <time>2019-04-28T15:30:22Z</time>
      </trkpt>
      <trkpt lat="40.2104950" lon="-3.7559890">
        <ele>652.4</ele>
        <time>2019-04-28T15:30:23Z</time>
      </trkpt>
      <trkpt lat="40.2104560" lon="-3.7559230">
        <ele>652.4</ele>
        <time>2019-04-28T15:30:24Z</time>
      </trkpt>
      <trkpt lat="40.2104170" lon="-3.7558570">
        <ele>652.6</ele>
        <time>2019-04-28T15:30:25Z</time>
      </trkpt>
      <trkpt lat="40.2103820" lon="-3.7557870">
        <ele>652.6</ele>
        <time>2019-04-28T15:30:26Z</time>
      </trkpt>
      <trkpt lat="40.2103500" lon="-3.7557160">
        <ele>652.4</ele>
        <time>2019-04-28T15:30:27Z</time>
      </trkpt>
      <trkpt lat="40.2103140" lon="-3.7556470">
        <ele>652.4</ele>
        <time>2019-04-28T15:30:28Z</time>
      </trkpt>
      <trkpt lat="40.2102760" lon="-3.7555790">
        <ele>652.4</ele>
        <time>2019-04-28T15:30:29Z</time>
      </trkpt>
      <trkpt lat="40.2102390" lon="-3.7555100">
        <ele>652.4</ele>
        <time>2019-04-28T15:30:30Z</time>
      </trkpt>
      <trkpt lat="40.2102010" lon="-3.7554420">
        <ele>652.4</ele>
        <time>2019-04-28T15:30:31Z</time>
      </trkpt>
      <trkpt lat="40.2101620" lon="-3.7553740">
        <ele>652.4</ele>
        <time>2019-04-28T15:30:32Z</time>
      </trkpt>
      <trkpt lat="40.2101230" lon="-3.7553060">
        <ele>652.4</ele>
        <time>2019-04-28T15:30:33Z</time>
      </trkpt>
      <trkpt lat="40.2100820" lon="-3.7552380">
        <ele>652.4</ele>
        <time>2019-04-28T15:30:34Z</time>
      </trkpt>
      <trkpt lat="40.2100410" lon="-3.7551690">
        <ele>652.4</ele>
        <time>2019-04-28T15:30:35Z</time>
      </trkpt>
      <trkpt lat="40.2100010" lon="-3.7551020">
        <ele>652.4</ele>
        <time>2019-04-28T15:30:36Z</time>
      </trkpt>
      <trkpt lat="40.2099600" lon="-3.7550370">
        <ele>652.4</ele>
        <time>2019-04-28T15:30:37Z</time>
      </trkpt>
      <trkpt lat="40.2099200" lon="-3.7549710">
        <ele>652.4</ele>
        <time>2019-04-28T15:30:38Z</time>
      </trkpt>
      <trkpt lat="40.2098790" lon="-3.7549060">
        <ele>652.2</ele>
        <time>2019-04-28T15:30:39Z</time>
      </trkpt>
      <trkpt lat="40.2098400" lon="-3.7548420">
        <ele>652.2</ele>
        <time>2019-04-28T15:30:40Z</time>
      </trkpt>
      <trkpt lat="40.2098010" lon="-3.7547780">
        <ele>652.4</ele>
        <time>2019-04-28T15:30:41Z</time>
      </trkpt>
      <trkpt lat="40.2097600" lon="-3.7547130">
        <ele>652.6</ele>
        <time>2019-04-28T15:30:42Z</time>
      </trkpt>
      <trkpt lat="40.2097190" lon="-3.7546500">
        <ele>652.6</ele>
        <time>2019-04-28T15:30:43Z</time>
      </trkpt>
      <trkpt lat="40.2096770" lon="-3.7545880">
        <ele>652.4</ele>
        <time>2019-04-28T15:30:44Z</time>
      </trkpt>
      <trkpt lat="40.2096350" lon="-3.7545240">
        <ele>652.6</ele>
        <time>2019-04-28T15:30:45Z</time>
      </trkpt>
      <trkpt lat="40.2095930" lon="-3.7544610">
        <ele>652.4</ele>
        <time>2019-04-28T15:30:46Z</time>
      </trkpt>
      <trkpt lat="40.2095530" lon="-3.7543970">
        <ele>652.4</ele>
        <time>2019-04-28T15:30:47Z</time>
      </trkpt>
      <trkpt lat="40.2095140" lon="-3.7543320">
        <ele>652.4</ele>
        <time>2019-04-28T15:30:48Z</time>
      </trkpt>
      <trkpt lat="40.2094730" lon="-3.7542680">
        <ele>652.4</ele>
        <time>2019-04-28T15:30:49Z</time>
      </trkpt>
      <trkpt lat="40.2094320" lon="-3.7542040">
        <ele>652.4</ele>
        <time>2019-04-28T15:30:50Z</time>
      </trkpt>
      <trkpt lat="40.2093890" lon="-3.7541400">
        <ele>652.2</ele>
        <time>2019-04-28T15:30:51Z</time>
      </trkpt>
      <trkpt lat="40.2093450" lon="-3.7540780">
        <ele>652.2</ele>
        <time>2019-04-28T15:30:52Z</time>
      </trkpt>
      <trkpt lat="40.2093020" lon="-3.7540150">
        <ele>652.2</ele>
        <time>2019-04-28T15:30:53Z</time>
      </trkpt>
      <trkpt lat="40.2092590" lon="-3.7539510">
        <ele>652.2</ele>
        <time>2019-04-28T15:30:54Z</time>
      </trkpt>
      <trkpt lat="40.2092170" lon="-3.7538870">
        <ele>652.2</ele>
        <time>2019-04-28T15:30:55Z</time>
      </trkpt>
      <trkpt lat="40.2091750" lon="-3.7538230">
        <ele>652.0</ele>
        <time>2019-04-28T15:30:56Z</time>
      </trkpt>
      <trkpt lat="40.2091300" lon="-3.7537610">
        <ele>652.0</ele>
        <time>2019-04-28T15:30:57Z</time>
      </trkpt>
      <trkpt lat="40.2090850" lon="-3.7536990">
        <ele>652.2</ele>
        <time>2019-04-28T15:30:58Z</time>
      </trkpt>
      <trkpt lat="40.2090420" lon="-3.7536370">
        <ele>652.2</ele>
        <time>2019-04-28T15:30:59Z</time>
      </trkpt>
      <trkpt lat="40.2089980" lon="-3.7535750">
        <ele>652.2</ele>
        <time>2019-04-28T15:31:00Z</time>
      </trkpt>
      <trkpt lat="40.2089540" lon="-3.7535130">
        <ele>652.0</ele>
        <time>2019-04-28T15:31:01Z</time>
      </trkpt>
      <trkpt lat="40.2089100" lon="-3.7534500">
        <ele>652.0</ele>
        <time>2019-04-28T15:31:02Z</time>
      </trkpt>
      <trkpt lat="40.2088670" lon="-3.7533880">
        <ele>652.0</ele>
        <time>2019-04-28T15:31:03Z</time>
      </trkpt>
      <trkpt lat="40.2088230" lon="-3.7533260">
        <ele>652.0</ele>
        <time>2019-04-28T15:31:04Z</time>
      </trkpt>
      <trkpt lat="40.2087790" lon="-3.7532630">
        <ele>652.2</ele>
        <time>2019-04-28T15:31:05Z</time>
      </trkpt>
      <trkpt lat="40.2087370" lon="-3.7532010">
        <ele>652.0</ele>
        <time>2019-04-28T15:31:06Z</time>
      </trkpt>
      <trkpt lat="40.2086950" lon="-3.7531420">
        <ele>652.0</ele>
        <time>2019-04-28T15:31:07Z</time>
      </trkpt>
      <trkpt lat="40.2086540" lon="-3.7530860">
        <ele>652.0</ele>
        <time>2019-04-28T15:31:08Z</time>
      </trkpt>
      <trkpt lat="40.2086140" lon="-3.7530310">
        <ele>651.8</ele>
        <time>2019-04-28T15:31:09Z</time>
      </trkpt>
      <trkpt lat="40.2085760" lon="-3.7529770">
        <ele>652.0</ele>
        <time>2019-04-28T15:31:10Z</time>
      </trkpt>
      <trkpt lat="40.2085370" lon="-3.7529240">
        <ele>652.0</ele>
        <time>2019-04-28T15:31:11Z</time>
      </trkpt>
      <trkpt lat="40.2084960" lon="-3.7528720">
        <ele>651.8</ele>
        <time>2019-04-28T15:31:12Z</time>
      </trkpt>
      <trkpt lat="40.2084560" lon="-3.7528190">
        <ele>652.0</ele>
        <time>2019-04-28T15:31:13Z</time>
      </trkpt>
      <trkpt lat="40.2084140" lon="-3.7527650">
        <ele>652.0</ele>
        <time>2019-04-28T15:31:14Z</time>
      </trkpt>
      <trkpt lat="40.2083700" lon="-3.7527130">
        <ele>651.8</ele>
        <time>2019-04-28T15:31:15Z</time>
      </trkpt>
      <trkpt lat="40.2083250" lon="-3.7526640">
        <ele>652.0</ele>
        <time>2019-04-28T15:31:16Z</time>
      </trkpt>
      <trkpt lat="40.2082780" lon="-3.7526160">
        <ele>651.8</ele>
        <time>2019-04-28T15:31:17Z</time>
      </trkpt>
      <trkpt lat="40.2082300" lon="-3.7525650">
        <ele>651.6</ele>
        <time>2019-04-28T15:31:18Z</time>
      </trkpt>
      <trkpt lat="40.2081800" lon="-3.7525120">
        <ele>651.6</ele>
        <time>2019-04-28T15:31:19Z</time>
      </trkpt>
      <trkpt lat="40.2081280" lon="-3.7524610">
        <ele>651.6</ele>
        <time>2019-04-28T15:31:20Z</time>
      </trkpt>
      <trkpt lat="40.2080750" lon="-3.7524130">
        <ele>651.6</ele>
        <time>2019-04-28T15:31:21Z</time>
      </trkpt>
      <trkpt lat="40.2080200" lon="-3.7523740">
        <ele>651.6</ele>
        <time>2019-04-28T15:31:22Z</time>
      </trkpt>
      <trkpt lat="40.2079630" lon="-3.7523400">
        <ele>651.6</ele>
        <time>2019-04-28T15:31:23Z</time>
      </trkpt>
      <trkpt lat="40.2079080" lon="-3.7523080">
        <ele>651.6</ele>
        <time>2019-04-28T15:31:24Z</time>
      </trkpt>
      <trkpt lat="40.2078530" lon="-3.7522810">
        <ele>651.6</ele>
        <time>2019-04-28T15:31:25Z</time>
      </trkpt>
      <trkpt lat="40.2078000" lon="-3.7522560">
        <ele>651.6</ele>
        <time>2019-04-28T15:31:26Z</time>
      </trkpt>
      <trkpt lat="40.2077480" lon="-3.7522290">
        <ele>651.6</ele>
        <time>2019-04-28T15:31:27Z</time>
      </trkpt>
      <trkpt lat="40.2076990" lon="-3.7521980">
        <ele>651.4</ele>
        <time>2019-04-28T15:31:28Z</time>
      </trkpt>
      <trkpt lat="40.2076480" lon="-3.7521650">
        <ele>651.6</ele>
        <time>2019-04-28T15:31:29Z</time>
      </trkpt>
      <trkpt lat="40.2075940" lon="-3.7521370">
        <ele>651.6</ele>
        <time>2019-04-28T15:31:30Z</time>
      </trkpt>
      <trkpt lat="40.2075370" lon="-3.7521070">
        <ele>651.6</ele>
        <time>2019-04-28T15:31:31Z</time>
      </trkpt>
      <trkpt lat="40.2074830" lon="-3.7520760">
        <ele>651.6</ele>
        <time>2019-04-28T15:31:32Z</time>
      </trkpt>
      <trkpt lat="40.2074270" lon="-3.7520440">
        <ele>651.4</ele>
        <time>2019-04-28T15:31:33Z</time>
      </trkpt>
      <trkpt lat="40.2073720" lon="-3.7520120">
        <ele>651.4</ele>
        <time>2019-04-28T15:31:34Z</time>
      </trkpt>
      <trkpt lat="40.2073160" lon="-3.7519810">
        <ele>651.4</ele>
        <time>2019-04-28T15:31:35Z</time>
      </trkpt>
      <trkpt lat="40.2072630" lon="-3.7519460">
        <ele>651.4</ele>
        <time>2019-04-28T15:31:36Z</time>
      </trkpt>
      <trkpt lat="40.2072110" lon="-3.7519090">
        <ele>651.4</ele>
        <time>2019-04-28T15:31:37Z</time>
      </trkpt>
      <trkpt lat="40.2071620" lon="-3.7518660">
        <ele>651.4</ele>
        <time>2019-04-28T15:31:38Z</time>
      </trkpt>
      <trkpt lat="40.2071150" lon="-3.7518200">
        <ele>651.4</ele>
        <time>2019-04-28T15:31:39Z</time>
      </trkpt>
      <trkpt lat="40.2070670" lon="-3.7517730">
        <ele>651.2</ele>
        <time>2019-04-28T15:31:40Z</time>
      </trkpt>
      <trkpt lat="40.2070230" lon="-3.7517220">
        <ele>651.2</ele>
        <time>2019-04-28T15:31:41Z</time>
      </trkpt>
      <trkpt lat="40.2069780" lon="-3.7516720">
        <ele>651.0</ele>
        <time>2019-04-28T15:31:42Z</time>
      </trkpt>
      <trkpt lat="40.2069360" lon="-3.7516240">
        <ele>651.0</ele>
        <time>2019-04-28T15:31:43Z</time>
      </trkpt>
      <trkpt lat="40.2068940" lon="-3.7515750">
        <ele>651.0</ele>
        <time>2019-04-28T15:31:44Z</time>
      </trkpt>
      <trkpt lat="40.2068520" lon="-3.7515250">
        <ele>651.0</ele>
        <time>2019-04-28T15:31:45Z</time>
      </trkpt>
      <trkpt lat="40.2068070" lon="-3.7514760">
        <ele>651.2</ele>
        <time>2019-04-28T15:31:46Z</time>
      </trkpt>
      <trkpt lat="40.2067610" lon="-3.7514310">
        <ele>651.2</ele>
        <time>2019-04-28T15:31:47Z</time>
      </trkpt>
      <trkpt lat="40.2067150" lon="-3.7513830">
        <ele>651.2</ele>
        <time>2019-04-28T15:31:48Z</time>
      </trkpt>
      <trkpt lat="40.2066720" lon="-3.7513320">
        <ele>651.2</ele>
        <time>2019-04-28T15:31:49Z</time>
      </trkpt>
      <trkpt lat="40.2066290" lon="-3.7512810">
        <ele>651.2</ele>
        <time>2019-04-28T15:31:50Z</time>
      </trkpt>
      <trkpt lat="40.2065860" lon="-3.7512310">
        <ele>651.0</ele>
        <time>2019-04-28T15:31:51Z</time>
      </trkpt>
      <trkpt lat="40.2065430" lon="-3.7511800">
        <ele>651.0</ele>
        <time>2019-04-28T15:31:52Z</time>
      </trkpt>
      <trkpt lat="40.2064990" lon="-3.7511300">
        <ele>651.0</ele>
        <time>2019-04-28T15:31:53Z</time>
      </trkpt>
      <trkpt lat="40.2064530" lon="-3.7510830">
        <ele>651.0</ele>
        <time>2019-04-28T15:31:54Z</time>
      </trkpt>
      <trkpt lat="40.2064040" lon="-3.7510390">
        <ele>651.2</ele>
        <time>2019-04-28T15:31:55Z</time>
      </trkpt>
      <trkpt lat="40.2063530" lon="-3.7509980">
        <ele>651.2</ele>
        <time>2019-04-28T15:31:56Z</time>
      </trkpt>
      <trkpt lat="40.2063000" lon="-3.7509610">
        <ele>651.0</ele>
        <time>2019-04-28T15:31:57Z</time>
      </trkpt>
      <trkpt lat="40.2062440" lon="-3.7509280">
        <ele>651.2</ele>
        <time>2019-04-28T15:31:58Z</time>
      </trkpt>
      <trkpt lat="40.2061850" lon="-3.7508960">
        <ele>651.2</ele>
        <time>2019-04-28T15:31:59Z</time>
      </trkpt>
      <trkpt lat="40.2061270" lon="-3.7508650">
        <ele>651.2</ele>
        <time>2019-04-28T15:32:00Z</time>
      </trkpt>
      <trkpt lat="40.2060670" lon="-3.7508370">
        <ele>651.2</ele>
        <time>2019-04-28T15:32:01Z</time>
      </trkpt>
      <trkpt lat="40.2060070" lon="-3.7508120">
        <ele>651.2</ele>
        <time>2019-04-28T15:32:02Z</time>
      </trkpt>
      <trkpt lat="40.2059450" lon="-3.7507920">
        <ele>651.2</ele>
        <time>2019-04-28T15:32:03Z</time>
      </trkpt>
      <trkpt lat="40.2058830" lon="-3.7507750">
        <ele>651.0</ele>
        <time>2019-04-28T15:32:04Z</time>
      </trkpt>
      <trkpt lat="40.2058210" lon="-3.7507630">
        <ele>651.0</ele>
        <time>2019-04-28T15:32:05Z</time>
      </trkpt>
      <trkpt lat="40.2057580" lon="-3.7507580">
        <ele>651.0</ele>
        <time>2019-04-28T15:32:06Z</time>
      </trkpt>
      <trkpt lat="40.2056950" lon="-3.7507560">
        <ele>651.0</ele>
        <time>2019-04-28T15:32:07Z</time>
      </trkpt>
      <trkpt lat="40.2056320" lon="-3.7507580">
        <ele>650.8</ele>
        <time>2019-04-28T15:32:08Z</time>
      </trkpt>
      <trkpt lat="40.2055680" lon="-3.7507610">
        <ele>650.8</ele>
        <time>2019-04-28T15:32:09Z</time>
      </trkpt>
      <trkpt lat="40.2055050" lon="-3.7507700">
        <ele>650.8</ele>
        <time>2019-04-28T15:32:10Z</time>
      </trkpt>
      <trkpt lat="40.2054420" lon="-3.7507780">
        <ele>650.8</ele>
        <time>2019-04-28T15:32:11Z</time>
      </trkpt>
      <trkpt lat="40.2053790" lon="-3.7507840">
        <ele>650.8</ele>
        <time>2019-04-28T15:32:12Z</time>
      </trkpt>
      <trkpt lat="40.2053160" lon="-3.7507940">
        <ele>650.8</ele>
        <time>2019-04-28T15:32:13Z</time>
      </trkpt>
      <trkpt lat="40.2052520" lon="-3.7508070">
        <ele>650.8</ele>
        <time>2019-04-28T15:32:14Z</time>
      </trkpt>
      <trkpt lat="40.2051900" lon="-3.7508200">
        <ele>650.8</ele>
        <time>2019-04-28T15:32:15Z</time>
      </trkpt>
      <trkpt lat="40.2051300" lon="-3.7508410">
        <ele>650.8</ele>
        <time>2019-04-28T15:32:16Z</time>
      </trkpt>
      <trkpt lat="40.2050720" lon="-3.7508670">
        <ele>651.2</ele>
        <time>2019-04-28T15:32:17Z</time>
      </trkpt>
      <trkpt lat="40.2050160" lon="-3.7508950">
        <ele>651.6</ele>
        <time>2019-04-28T15:32:18Z</time>
      </trkpt>
      <trkpt lat="40.2049620" lon="-3.7509220">
        <ele>652.0</ele>
        <time>2019-04-28T15:32:19Z</time>
      </trkpt>
      <trkpt lat="40.2049100" lon="-3.7509400">
        <ele>652.2</ele>
        <time>2019-04-28T15:32:20Z</time>
      </trkpt>
      <trkpt lat="40.2048610" lon="-3.7509570">
        <ele>652.4</ele>
        <time>2019-04-28T15:32:21Z</time>
      </trkpt>
      <trkpt lat="40.2048130" lon="-3.7509710">
        <ele>652.8</ele>
        <time>2019-04-28T15:32:22Z</time>
      </trkpt>
      <trkpt lat="40.2047650" lon="-3.7509840">
        <ele>653.2</ele>
        <time>2019-04-28T15:32:23Z</time>
      </trkpt>
      <trkpt lat="40.2047180" lon="-3.7509970">
        <ele>653.4</ele>
        <time>2019-04-28T15:32:24Z</time>
      </trkpt>
      <trkpt lat="40.2046710" lon="-3.7510080">
        <ele>653.8</ele>
        <time>2019-04-28T15:32:25Z</time>
      </trkpt>
      <trkpt lat="40.2046230" lon="-3.7510150">
        <ele>654.0</ele>
        <time>2019-04-28T15:32:26Z</time>
      </trkpt>
      <trkpt lat="40.2045740" lon="-3.7510190">
        <ele>654.4</ele>
        <time>2019-04-28T15:32:27Z</time>
      </trkpt>
      <trkpt lat="40.2045230" lon="-3.7510200">
        <ele>654.6</ele>
        <time>2019-04-28T15:32:28Z</time>
      </trkpt>
      <trkpt lat="40.2044710" lon="-3.7510160">
        <ele>655.0</ele>
        <time>2019-04-28T15:32:29Z</time>
      </trkpt>
      <trkpt lat="40.2044160" lon="-3.7510080">
        <ele>655.2</ele>
        <time>2019-04-28T15:32:30Z</time>
      </trkpt>
      <trkpt lat="40.2043600" lon="-3.7509960">
        <ele>655.4</ele>
        <time>2019-04-28T15:32:31Z</time>
      </trkpt>
      <trkpt lat="40.2043060" lon="-3.7509800">
        <ele>655.8</ele>
        <time>2019-04-28T15:32:32Z</time>
      </trkpt>
      <trkpt lat="40.2042520" lon="-3.7509610">
        <ele>656.0</ele>
        <time>2019-04-28T15:32:33Z</time>
      </trkpt>
      <trkpt lat="40.2041990" lon="-3.7509370">
        <ele>656.4</ele>
        <time>2019-04-28T15:32:34Z</time>
      </trkpt>
      <trkpt lat="40.2041480" lon="-3.7509060">
        <ele>656.6</ele>
        <time>2019-04-28T15:32:35Z</time>
      </trkpt>
      <trkpt lat="40.2040970" lon="-3.7508700">
        <ele>657.0</ele>
        <time>2019-04-28T15:32:36Z</time>
      </trkpt>
      <trkpt lat="40.2040490" lon="-3.7508290">
        <ele>657.4</ele>
        <time>2019-04-28T15:32:37Z</time>
      </trkpt>
      <trkpt lat="40.2040030" lon="-3.7507840">
        <ele>657.8</ele>
        <time>2019-04-28T15:32:38Z</time>
      </trkpt>
      <trkpt lat="40.2039570" lon="-3.7507330">
        <ele>658.0</ele>
        <time>2019-04-28T15:32:39Z</time>
      </trkpt>
      <trkpt lat="40.2039120" lon="-3.7506810">
        <ele>658.4</ele>
        <time>2019-04-28T15:32:40Z</time>
      </trkpt>
      <trkpt lat="40.2038700" lon="-3.7506260">
        <ele>658.6</ele>
        <time>2019-04-28T15:32:41Z</time>
      </trkpt>
      <trkpt lat="40.2038300" lon="-3.7505640">
        <ele>658.8</ele>
        <time>2019-04-28T15:32:42Z</time>
      </trkpt>
      <trkpt lat="40.2037920" lon="-3.7505000">
        <ele>659.2</ele>
        <time>2019-04-28T15:32:43Z</time>
      </trkpt>
      <trkpt lat="40.2037570" lon="-3.7504320">
        <ele>659.6</ele>
        <time>2019-04-28T15:32:44Z</time>
      </trkpt>
      <trkpt lat="40.2037260" lon="-3.7503600">
        <ele>659.8</ele>
        <time>2019-04-28T15:32:45Z</time>
      </trkpt>
      <trkpt lat="40.2036990" lon="-3.7502870">
        <ele>660.2</ele>
        <time>2019-04-28T15:32:46Z</time>
      </trkpt>
      <trkpt lat="40.2036780" lon="-3.7502120">
        <ele>660.4</ele>
        <time>2019-04-28T15:32:47Z</time>
      </trkpt>
      <trkpt lat="40.2036610" lon="-3.7501350">
        <ele>660.8</ele>
        <time>2019-04-28T15:32:48Z</time>
      </trkpt>
      <trkpt lat="40.2036450" lon="-3.7500580">
        <ele>661.0</ele>
        <time>2019-04-28T15:32:49Z</time>
      </trkpt>
      <trkpt lat="40.2036360" lon="-3.7499840">
        <ele>661.2</ele>
        <time>2019-04-28T15:32:50Z</time>
      </trkpt>
      <trkpt lat="40.2036310" lon="-3.7499100">
        <ele>661.4</ele>
        <time>2019-04-28T15:32:51Z</time>
      </trkpt>
      <trkpt lat="40.2036250" lon="-3.7498330">
        <ele>661.6</ele>
        <time>2019-04-28T15:32:52Z</time>
      </trkpt>
      <trkpt lat="40.2036230" lon="-3.7497610">
        <ele>661.6</ele>
        <time>2019-04-28T15:32:53Z</time>
      </trkpt>
      <trkpt lat="40.2036210" lon="-3.7496920">
        <ele>661.8</ele>
        <time>2019-04-28T15:32:54Z</time>
      </trkpt>
      <trkpt lat="40.2036190" lon="-3.7496210">
        <ele>661.8</ele>
        <time>2019-04-28T15:32:55Z</time>
      </trkpt>
      <trkpt lat="40.2036170" lon="-3.7495530">
        <ele>661.4</ele>
        <time>2019-04-28T15:32:56Z</time>
      </trkpt>
      <trkpt lat="40.2036140" lon="-3.7494810">
        <ele>661.4</ele>
        <time>2019-04-28T15:32:57Z</time>
      </trkpt>
      <trkpt lat="40.2036130" lon="-3.7494130">
        <ele>661.4</ele>
        <time>2019-04-28T15:32:58Z</time>
      </trkpt>
      <trkpt lat="40.2036110" lon="-3.7493460">
        <ele>661.4</ele>
        <time>2019-04-28T15:32:59Z</time>
      </trkpt>
      <trkpt lat="40.2036110" lon="-3.7492790">
        <ele>661.2</ele>
        <time>2019-04-28T15:33:00Z</time>
      </trkpt>
      <trkpt lat="40.2036060" lon="-3.7492140">
        <ele>661.2</ele>
        <time>2019-04-28T15:33:01Z</time>
      </trkpt>
      <trkpt lat="40.2035990" lon="-3.7491530">
        <ele>661.2</ele>
        <time>2019-04-28T15:33:02Z</time>
      </trkpt>
      <trkpt lat="40.2035980" lon="-3.7490910">
        <ele>661.0</ele>
        <time>2019-04-28T15:33:03Z</time>
      </trkpt>
      <trkpt lat="40.2035990" lon="-3.7490250">
        <ele>660.8</ele>
        <time>2019-04-28T15:33:04Z</time>
      </trkpt>
      <trkpt lat="40.2035980" lon="-3.7489570">
        <ele>660.8</ele>
        <time>2019-04-28T15:33:05Z</time>
      </trkpt>
      <trkpt lat="40.2035980" lon="-3.7488840">
        <ele>660.4</ele>
        <time>2019-04-28T15:33:06Z</time>
      </trkpt>
      <trkpt lat="40.2035940" lon="-3.7488120">
        <ele>660.2</ele>
        <time>2019-04-28T15:33:07Z</time>
      </trkpt>
      <trkpt lat="40.2035890" lon="-3.7487420">
        <ele>659.8</ele>
        <time>2019-04-28T15:33:08Z</time>
      </trkpt>
      <trkpt lat="40.2035840" lon="-3.7486740">
        <ele>659.6</ele>
        <time>2019-04-28T15:33:09Z</time>
      </trkpt>
      <trkpt lat="40.2035840" lon="-3.7486070">
        <ele>659.6</ele>
        <time>2019-04-28T15:33:10Z</time>
      </trkpt>
      <trkpt lat="40.2035900" lon="-3.7485420">
        <ele>659.2</ele>
        <time>2019-04-28T15:33:11Z</time>
      </trkpt>
      <trkpt lat="40.2035940" lon="-3.7484770">
        <ele>659.0</ele>
        <time>2019-04-28T15:33:12Z</time>
      </trkpt>
      <trkpt lat="40.2036030" lon="-3.7484110">
        <ele>658.8</ele>
        <time>2019-04-28T15:33:13Z</time>
      </trkpt>
      <trkpt lat="40.2036120" lon="-3.7483420">
        <ele>658.8</ele>
        <time>2019-04-28T15:33:14Z</time>
      </trkpt>
      <trkpt lat="40.2036180" lon="-3.7482740">
        <ele>658.6</ele>
        <time>2019-04-28T15:33:15Z</time>
      </trkpt>
      <trkpt lat="40.2036220" lon="-3.7482070">
        <ele>658.4</ele>
        <time>2019-04-28T15:33:16Z</time>
      </trkpt>
      <trkpt lat="40.2036260" lon="-3.7481440">
        <ele>658.4</ele>
        <time>2019-04-28T15:33:17Z</time>
      </trkpt>
      <trkpt lat="40.2036290" lon="-3.7480860">
        <ele>658.4</ele>
        <time>2019-04-28T15:33:18Z</time>
      </trkpt>
      <trkpt lat="40.2036330" lon="-3.7480400">
        <ele>658.4</ele>
        <time>2019-04-28T15:33:19Z</time>
      </trkpt>
      <trkpt lat="40.2036310" lon="-3.7480010">
        <ele>658.4</ele>
        <time>2019-04-28T15:33:20Z</time>
      </trkpt>
      <trkpt lat="40.2036280" lon="-3.7479610">
        <ele>658.6</ele>
        <time>2019-04-28T15:33:21Z</time>
      </trkpt>
      <trkpt lat="40.2036260" lon="-3.7479250">
        <ele>658.6</ele>
        <time>2019-04-28T15:33:22Z</time>
      </trkpt>
      <trkpt lat="40.2036250" lon="-3.7478910">
        <ele>658.6</ele>
        <time>2019-04-28T15:33:23Z</time>
      </trkpt>
      <trkpt lat="40.2036270" lon="-3.7478560">
        <ele>658.6</ele>
        <time>2019-04-28T15:33:24Z</time>
      </trkpt>
      <trkpt lat="40.2036380" lon="-3.7478270">
        <ele>658.6</ele>
        <time>2019-04-28T15:33:25Z</time>
      </trkpt>
      <trkpt lat="40.2036500" lon="-3.7477960">
        <ele>658.6</ele>
        <time>2019-04-28T15:33:26Z</time>
      </trkpt>
      <trkpt lat="40.2036590" lon="-3.7477650">
        <ele>658.6</ele>
        <time>2019-04-28T15:33:27Z</time>
      </trkpt>
      <trkpt lat="40.2036650" lon="-3.7477340">
        <ele>658.6</ele>
        <time>2019-04-28T15:33:28Z</time>
      </trkpt>
      <trkpt lat="40.2036660" lon="-3.7477060">
        <ele>658.6</ele>
        <time>2019-04-28T15:33:29Z</time>
      </trkpt>
      <trkpt lat="40.2036680" lon="-3.7476810">
        <ele>658.6</ele>
        <time>2019-04-28T15:33:30Z</time>
      </trkpt>
      <trkpt lat="40.2036700" lon="-3.7476710">
        <ele>658.6</ele>
        <time>2019-04-28T15:33:31Z</time>
      </trkpt>
      <trkpt lat="40.2036710" lon="-3.7476690">
        <ele>658.6</ele>
        <time>2019-04-28T15:33:32Z</time>
      </trkpt>
      <trkpt lat="40.2036710" lon="-3.7476690">
        <ele>658.4</ele>
        <time>2019-04-28T15:33:33Z</time>
      </trkpt>
      <trkpt lat="40.2036710" lon="-3.7476690">
        <ele>658.4</ele>
        <time>2019-04-28T15:33:34Z</time>
      </trkpt>
      <trkpt lat="40.2036710" lon="-3.7476680">
        <ele>658.4</ele>
        <time>2019-04-28T15:33:35Z</time>
      </trkpt>
      <trkpt lat="40.2036720" lon="-3.7476680">
        <ele>658.4</ele>
        <time>2019-04-28T15:33:36Z</time>
      </trkpt>
      <trkpt lat="40.2036730" lon="-3.7476690">
        <ele>658.4</ele>
        <time>2019-04-28T15:33:37Z</time>
      </trkpt>
      <trkpt lat="40.2036730" lon="-3.7476680">
        <ele>658.4</ele>
        <time>2019-04-28T15:33:38Z</time>
      </trkpt>
      <trkpt lat="40.2037160" lon="-3.7473750">
        <ele>658.4</ele>
        <time>2019-04-28T15:34:34Z</time>
      </trkpt>
      <trkpt lat="40.2037200" lon="-3.7473370">
        <ele>658.4</ele>
        <time>2019-04-28T15:34:35Z</time>
      </trkpt>
      <trkpt lat="40.2037220" lon="-3.7472980">
        <ele>658.4</ele>
        <time>2019-04-28T15:34:36Z</time>
      </trkpt>
      <trkpt lat="40.2037230" lon="-3.7472640">
        <ele>658.4</ele>
        <time>2019-04-28T15:34:37Z</time>
      </trkpt>
      <trkpt lat="40.2037250" lon="-3.7472300">
        <ele>658.4</ele>
        <time>2019-04-28T15:34:38Z</time>
      </trkpt>
      <trkpt lat="40.2037270" lon="-3.7471970">
        <ele>658.4</ele>
        <time>2019-04-28T15:34:39Z</time>
      </trkpt>
      <trkpt lat="40.2037310" lon="-3.7471660">
        <ele>658.4</ele>
        <time>2019-04-28T15:34:40Z</time>
      </trkpt>
      <trkpt lat="40.2037320" lon="-3.7471350">
        <ele>658.4</ele>
        <time>2019-04-28T15:34:41Z</time>
      </trkpt>
      <trkpt lat="40.2037340" lon="-3.7471030">
        <ele>658.4</ele>
        <time>2019-04-28T15:34:42Z</time>
      </trkpt>
      <trkpt lat="40.2037320" lon="-3.7470700">
        <ele>658.4</ele>
        <time>2019-04-28T15:34:43Z</time>
      </trkpt>
      <trkpt lat="40.2037360" lon="-3.7470380">
        <ele>658.4</ele>
        <time>2019-04-28T15:34:44Z</time>
      </trkpt>
      <trkpt lat="40.2037390" lon="-3.7470070">
        <ele>658.4</ele>
        <time>2019-04-28T15:34:45Z</time>
      </trkpt>
      <trkpt lat="40.2037400" lon="-3.7469760">
        <ele>658.4</ele>
        <time>2019-04-28T15:34:46Z</time>
      </trkpt>
      <trkpt lat="40.2037420" lon="-3.7469470">
        <ele>658.2</ele>
        <time>2019-04-28T15:34:47Z</time>
      </trkpt>
      <trkpt lat="40.2037440" lon="-3.7469160">
        <ele>658.0</ele>
        <time>2019-04-28T15:34:48Z</time>
      </trkpt>
      <trkpt lat="40.2037430" lon="-3.7468790">
        <ele>658.0</ele>
        <time>2019-04-28T15:34:49Z</time>
      </trkpt>
      <trkpt lat="40.2037450" lon="-3.7468380">
        <ele>657.8</ele>
        <time>2019-04-28T15:34:50Z</time>
      </trkpt>
      <trkpt lat="40.2037420" lon="-3.7467980">
        <ele>657.6</ele>
        <time>2019-04-28T15:34:51Z</time>
      </trkpt>
      <trkpt lat="40.2037370" lon="-3.7467610">
        <ele>657.6</ele>
        <time>2019-04-28T15:34:52Z</time>
      </trkpt>
      <trkpt lat="40.2037260" lon="-3.7467250">
        <ele>657.4</ele>
        <time>2019-04-28T15:34:53Z</time>
      </trkpt>
      <trkpt lat="40.2037100" lon="-3.7466880">
        <ele>657.2</ele>
        <time>2019-04-28T15:34:54Z</time>
      </trkpt>
      <trkpt lat="40.2036880" lon="-3.7466470">
        <ele>656.8</ele>
        <time>2019-04-28T15:34:55Z</time>
      </trkpt>
      <trkpt lat="40.2036570" lon="-3.7466070">
        <ele>656.6</ele>
        <time>2019-04-28T15:34:56Z</time>
      </trkpt>
      <trkpt lat="40.2036150" lon="-3.7465740">
        <ele>656.2</ele>
        <time>2019-04-28T15:34:57Z</time>
      </trkpt>
      <trkpt lat="40.2035660" lon="-3.7465530">
        <ele>655.8</ele>
        <time>2019-04-28T15:34:58Z</time>
      </trkpt>
      <trkpt lat="40.2035120" lon="-3.7465390">
        <ele>655.6</ele>
        <time>2019-04-28T15:34:59Z</time>
      </trkpt>
      <trkpt lat="40.2034540" lon="-3.7465260">
        <ele>655.2</ele>
        <time>2019-04-28T15:35:00Z</time>
      </trkpt>
      <trkpt lat="40.2033890" lon="-3.7465130">
        <ele>654.8</ele>
        <time>2019-04-28T15:35:01Z</time>
      </trkpt>
      <trkpt lat="40.2033230" lon="-3.7465010">
        <ele>654.2</ele>
        <time>2019-04-28T15:35:02Z</time>
      </trkpt>
      <trkpt lat="40.2032520" lon="-3.7464900">
        <ele>653.6</ele>
        <time>2019-04-28T15:35:03Z</time>
      </trkpt>
      <trkpt lat="40.2031780" lon="-3.7464820">
        <ele>653.0</ele>
        <time>2019-04-28T15:35:04Z</time>
      </trkpt>
      <trkpt lat="40.2031010" lon="-3.7464710">
        <ele>652.2</ele>
        <time>2019-04-28T15:35:05Z</time>
      </trkpt>
      <trkpt lat="40.2030210" lon="-3.7464530">
        <ele>651.6</ele>
        <time>2019-04-28T15:35:06Z</time>
      </trkpt>
      <trkpt lat="40.2029390" lon="-3.7464330">
        <ele>651.0</ele>
        <time>2019-04-28T15:35:07Z</time>
      </trkpt>
      <trkpt lat="40.2028550" lon="-3.7464170">
        <ele>650.4</ele>
        <time>2019-04-28T15:35:08Z</time>
      </trkpt>
      <trkpt lat="40.2027710" lon="-3.7463940">
        <ele>650.2</ele>
        <time>2019-04-28T15:35:09Z</time>
      </trkpt>
      <trkpt lat="40.2026900" lon="-3.7463690">
        <ele>650.0</ele>
        <time>2019-04-28T15:35:10Z</time>
      </trkpt>
      <trkpt lat="40.2026100" lon="-3.7463460">
        <ele>649.8</ele>
        <time>2019-04-28T15:35:11Z</time>
      </trkpt>
      <trkpt lat="40.2025310" lon="-3.7463240">
        <ele>649.8</ele>
        <time>2019-04-28T15:35:12Z</time>
      </trkpt>
      <trkpt lat="40.2024530" lon="-3.7463050">
        <ele>649.6</ele>
        <time>2019-04-28T15:35:13Z</time>
      </trkpt>
      <trkpt lat="40.2023760" lon="-3.7462940">
        <ele>649.6</ele>
        <time>2019-04-28T15:35:14Z</time>
      </trkpt>
      <trkpt lat="40.2023000" lon="-3.7462880">
        <ele>649.6</ele>
        <time>2019-04-28T15:35:15Z</time>
      </trkpt>
      <trkpt lat="40.2022260" lon="-3.7462800">
        <ele>649.8</ele>
        <time>2019-04-28T15:35:16Z</time>
      </trkpt>
      <trkpt lat="40.2021510" lon="-3.7462690">
        <ele>649.6</ele>
        <time>2019-04-28T15:35:17Z</time>
      </trkpt>
      <trkpt lat="40.2020780" lon="-3.7462520">
        <ele>649.6</ele>
        <time>2019-04-28T15:35:18Z</time>
      </trkpt>
      <trkpt lat="40.2020080" lon="-3.7462290">
        <ele>649.6</ele>
        <time>2019-04-28T15:35:19Z</time>
      </trkpt>
      <trkpt lat="40.2019400" lon="-3.7462030">
        <ele>649.6</ele>
        <time>2019-04-28T15:35:20Z</time>
      </trkpt>
      <trkpt lat="40.2018770" lon="-3.7461690">
        <ele>649.6</ele>
        <time>2019-04-28T15:35:21Z</time>
      </trkpt>
      <trkpt lat="40.2018200" lon="-3.7461270">
        <ele>649.4</ele>
        <time>2019-04-28T15:35:22Z</time>
      </trkpt>
      <trkpt lat="40.2017650" lon="-3.7460770">
        <ele>649.4</ele>
        <time>2019-04-28T15:35:23Z</time>
      </trkpt>
      <trkpt lat="40.2017150" lon="-3.7460210">
        <ele>649.4</ele>
        <time>2019-04-28T15:35:24Z</time>
      </trkpt>
      <trkpt lat="40.2016660" lon="-3.7459630">
        <ele>649.2</ele>
        <time>2019-04-28T15:35:25Z</time>
      </trkpt>
      <trkpt lat="40.2016160" lon="-3.7459080">
        <ele>649.0</ele>
        <time>2019-04-28T15:35:26Z</time>
      </trkpt>
      <trkpt lat="40.2015680" lon="-3.7458520">
        <ele>649.2</ele>
        <time>2019-04-28T15:35:27Z</time>
      </trkpt>
      <trkpt lat="40.2015220" lon="-3.7457940">
        <ele>649.0</ele>
        <time>2019-04-28T15:35:28Z</time>
      </trkpt>
      <trkpt lat="40.2014780" lon="-3.7457360">
        <ele>649.2</ele>
        <time>2019-04-28T15:35:29Z</time>
      </trkpt>
      <trkpt lat="40.2014350" lon="-3.7456780">
        <ele>649.2</ele>
        <time>2019-04-28T15:35:30Z</time>
      </trkpt>
      <trkpt lat="40.2013940" lon="-3.7456200">
        <ele>649.2</ele>
        <time>2019-04-28T15:35:31Z</time>
      </trkpt>
      <trkpt lat="40.2013520" lon="-3.7455610">
        <ele>649.0</ele>
        <time>2019-04-28T15:35:32Z</time>
      </trkpt>
      <trkpt lat="40.2013120" lon="-3.7455020">
        <ele>649.0</ele>
        <time>2019-04-28T15:35:33Z</time>
      </trkpt>
      <trkpt lat="40.2012740" lon="-3.7454410">
        <ele>649.0</ele>
        <time>2019-04-28T15:35:34Z</time>
      </trkpt>
      <trkpt lat="40.2012370" lon="-3.7453810">
        <ele>649.0</ele>
        <time>2019-04-28T15:35:35Z</time>
      </trkpt>
      <trkpt lat="40.2012000" lon="-3.7453220">
        <ele>649.0</ele>
        <time>2019-04-28T15:35:36Z</time>
      </trkpt>
      <trkpt lat="40.2011610" lon="-3.7452650">
        <ele>649.0</ele>
        <time>2019-04-28T15:35:37Z</time>
      </trkpt>
      <trkpt lat="40.2011220" lon="-3.7452090">
        <ele>648.8</ele>
        <time>2019-04-28T15:35:38Z</time>
      </trkpt>
      <trkpt lat="40.2010850" lon="-3.7451550">
        <ele>648.8</ele>
        <time>2019-04-28T15:35:39Z</time>
      </trkpt>
      <trkpt lat="40.2010460" lon="-3.7451060">
        <ele>648.8</ele>
        <time>2019-04-28T15:35:40Z</time>
      </trkpt>
      <trkpt lat="40.2010040" lon="-3.7450660">
        <ele>648.8</ele>
        <time>2019-04-28T15:35:41Z</time>
      </trkpt>
      <trkpt lat="40.2009640" lon="-3.7450270">
        <ele>648.8</ele>
        <time>2019-04-28T15:35:42Z</time>
      </trkpt>
      <trkpt lat="40.2009300" lon="-3.7449850">
        <ele>648.6</ele>
        <time>2019-04-28T15:35:43Z</time>
      </trkpt>
      <trkpt lat="40.2009000" lon="-3.7449390">
        <ele>648.6</ele>
        <time>2019-04-28T15:35:44Z</time>
      </trkpt>
      <trkpt lat="40.2008720" lon="-3.7448880">
        <ele>648.4</ele>
        <time>2019-04-28T15:35:45Z</time>
      </trkpt>
      <trkpt lat="40.2008440" lon="-3.7448320">
        <ele>648.4</ele>
        <time>2019-04-28T15:35:46Z</time>
      </trkpt>
      <trkpt lat="40.2008180" lon="-3.7447730">
        <ele>648.4</ele>
        <time>2019-04-28T15:35:47Z</time>
      </trkpt>
      <trkpt lat="40.2007930" lon="-3.7447120">
        <ele>648.4</ele>
        <time>2019-04-28T15:35:48Z</time>
      </trkpt>
      <trkpt lat="40.2007690" lon="-3.7446510">
        <ele>648.4</ele>
        <time>2019-04-28T15:35:49Z</time>
      </trkpt>
      <trkpt lat="40.2007450" lon="-3.7445900">
        <ele>648.4</ele>
        <time>2019-04-28T15:35:50Z</time>
      </trkpt>
      <trkpt lat="40.2007200" lon="-3.7445290">
        <ele>648.4</ele>
        <time>2019-04-28T15:35:51Z</time>
      </trkpt>
      <trkpt lat="40.2006950" lon="-3.7444660">
        <ele>648.4</ele>
        <time>2019-04-28T15:35:52Z</time>
      </trkpt>
      <trkpt lat="40.2006690" lon="-3.7443990">
        <ele>648.2</ele>
        <time>2019-04-28T15:35:53Z</time>
      </trkpt>
      <trkpt lat="40.2006350" lon="-3.7443390">
        <ele>648.4</ele>
        <time>2019-04-28T15:35:54Z</time>
      </trkpt>
      <trkpt lat="40.2005990" lon="-3.7442790">
        <ele>648.4</ele>
        <time>2019-04-28T15:35:55Z</time>
      </trkpt>
      <trkpt lat="40.2005640" lon="-3.7442160">
        <ele>648.4</ele>
        <time>2019-04-28T15:35:56Z</time>
      </trkpt>
      <trkpt lat="40.2005320" lon="-3.7441500">
        <ele>648.4</ele>
        <time>2019-04-28T15:35:57Z</time>
      </trkpt>
      <trkpt lat="40.2004990" lon="-3.7440880">
        <ele>648.6</ele>
        <time>2019-04-28T15:35:58Z</time>
      </trkpt>
      <trkpt lat="40.2004650" lon="-3.7440300">
        <ele>648.6</ele>
        <time>2019-04-28T15:35:59Z</time>
      </trkpt>
      <trkpt lat="40.2004320" lon="-3.7439740">
        <ele>648.8</ele>
        <time>2019-04-28T15:36:00Z</time>
      </trkpt>
      <trkpt lat="40.2003980" lon="-3.7439180">
        <ele>648.8</ele>
        <time>2019-04-28T15:36:01Z</time>
      </trkpt>
      <trkpt lat="40.2003640" lon="-3.7438630">
        <ele>648.8</ele>
        <time>2019-04-28T15:36:02Z</time>
      </trkpt>
      <trkpt lat="40.2003300" lon="-3.7438070">
        <ele>649.0</ele>
        <time>2019-04-28T15:36:03Z</time>
      </trkpt>
      <trkpt lat="40.2002980" lon="-3.7437510">
        <ele>649.0</ele>
        <time>2019-04-28T15:36:04Z</time>
      </trkpt>
      <trkpt lat="40.2002670" lon="-3.7436950">
        <ele>649.2</ele>
        <time>2019-04-28T15:36:05Z</time>
      </trkpt>
      <trkpt lat="40.2002370" lon="-3.7436370">
        <ele>649.2</ele>
        <time>2019-04-28T15:36:06Z</time>
      </trkpt>
      <trkpt lat="40.2002050" lon="-3.7435830">
        <ele>649.0</ele>
        <time>2019-04-28T15:36:07Z</time>
      </trkpt>
      <trkpt lat="40.2001710" lon="-3.7435310">
        <ele>649.0</ele>
        <time>2019-04-28T15:36:08Z</time>
      </trkpt>
      <trkpt lat="40.2001360" lon="-3.7434800">
        <ele>649.0</ele>
        <time>2019-04-28T15:36:09Z</time>
      </trkpt>
      <trkpt lat="40.2001040" lon="-3.7434280">
        <ele>649.2</ele>
        <time>2019-04-28T15:36:10Z</time>
      </trkpt>
      <trkpt lat="40.2000720" lon="-3.7433740">
        <ele>649.2</ele>
        <time>2019-04-28T15:36:11Z</time>
      </trkpt>
      <trkpt lat="40.2000430" lon="-3.7433180">
        <ele>649.2</ele>
        <time>2019-04-28T15:36:12Z</time>
      </trkpt>
      <trkpt lat="40.2000150" lon="-3.7432590">
        <ele>649.2</ele>
        <time>2019-04-28T15:36:13Z</time>
      </trkpt>
      <trkpt lat="40.1999820" lon="-3.7432020">
        <ele>649.4</ele>
        <time>2019-04-28T15:36:14Z</time>
      </trkpt>
      <trkpt lat="40.1999460" lon="-3.7431470">
        <ele>649.4</ele>
        <time>2019-04-28T15:36:15Z</time>
      </trkpt>
      <trkpt lat="40.1999100" lon="-3.7430900">
        <ele>649.4</ele>
        <time>2019-04-28T15:36:16Z</time>
      </trkpt>
      <trkpt lat="40.1998740" lon="-3.7430310">
        <ele>649.4</ele>
        <time>2019-04-28T15:36:17Z</time>
      </trkpt>
      <trkpt lat="40.1998380" lon="-3.7429710">
        <ele>649.4</ele>
        <time>2019-04-28T15:36:18Z</time>
      </trkpt>
      <trkpt lat="40.1998030" lon="-3.7429090">
        <ele>649.6</ele>
        <time>2019-04-28T15:36:19Z</time>
      </trkpt>
      <trkpt lat="40.1997680" lon="-3.7428480">
        <ele>649.4</ele>
        <time>2019-04-28T15:36:20Z</time>
      </trkpt>
      <trkpt lat="40.1997350" lon="-3.7427840">
        <ele>649.4</ele>
        <time>2019-04-28T15:36:21Z</time>
      </trkpt>
      <trkpt lat="40.1997010" lon="-3.7427210">
        <ele>649.4</ele>
        <time>2019-04-28T15:36:22Z</time>
      </trkpt>
      <trkpt lat="40.1996620" lon="-3.7426660">
        <ele>649.4</ele>
        <time>2019-04-28T15:36:23Z</time>
      </trkpt>
      <trkpt lat="40.1996190" lon="-3.7426160">
        <ele>649.4</ele>
        <time>2019-04-28T15:36:24Z</time>
      </trkpt>
      <trkpt lat="40.1995770" lon="-3.7425690">
        <ele>649.6</ele>
        <time>2019-04-28T15:36:25Z</time>
      </trkpt>
      <trkpt lat="40.1995370" lon="-3.7425210">
        <ele>649.6</ele>
        <time>2019-04-28T15:36:26Z</time>
      </trkpt>
      <trkpt lat="40.1995000" lon="-3.7424740">
        <ele>649.4</ele>
        <time>2019-04-28T15:36:27Z</time>
      </trkpt>
      <trkpt lat="40.1994620" lon="-3.7424300">
        <ele>649.4</ele>
        <time>2019-04-28T15:36:28Z</time>
      </trkpt>
      <trkpt lat="40.1994210" lon="-3.7423840">
        <ele>649.4</ele>
        <time>2019-04-28T15:36:29Z</time>
      </trkpt>
      <trkpt lat="40.1993810" lon="-3.7423360">
        <ele>649.6</ele>
        <time>2019-04-28T15:36:30Z</time>
      </trkpt>
      <trkpt lat="40.1993430" lon="-3.7422850">
        <ele>649.6</ele>
        <time>2019-04-28T15:36:31Z</time>
      </trkpt>
      <trkpt lat="40.1993060" lon="-3.7422340">
        <ele>649.6</ele>
        <time>2019-04-28T15:36:32Z</time>
      </trkpt>
      <trkpt lat="40.1992680" lon="-3.7421830">
        <ele>649.6</ele>
        <time>2019-04-28T15:36:33Z</time>
      </trkpt>
      <trkpt lat="40.1992290" lon="-3.7421330">
        <ele>649.6</ele>
        <time>2019-04-28T15:36:34Z</time>
      </trkpt>
      <trkpt lat="40.1991890" lon="-3.7420820">
        <ele>649.6</ele>
        <time>2019-04-28T15:36:35Z</time>
      </trkpt>
      <trkpt lat="40.1991480" lon="-3.7420310">
        <ele>649.6</ele>
        <time>2019-04-28T15:36:36Z</time>
      </trkpt>
      <trkpt lat="40.1991060" lon="-3.7419790">
        <ele>649.6</ele>
        <time>2019-04-28T15:36:37Z</time>
      </trkpt>
      <trkpt lat="40.1990650" lon="-3.7419280">
        <ele>649.6</ele>
        <time>2019-04-28T15:36:38Z</time>
      </trkpt>
      <trkpt lat="40.1990240" lon="-3.7418750">
        <ele>649.6</ele>
        <time>2019-04-28T15:36:39Z</time>
      </trkpt>
      <trkpt lat="40.1989820" lon="-3.7418210">
        <ele>649.8</ele>
        <time>2019-04-28T15:36:40Z</time>
      </trkpt>
      <trkpt lat="40.1989400" lon="-3.7417680">
        <ele>649.6</ele>
        <time>2019-04-28T15:36:41Z</time>
      </trkpt>
      <trkpt lat="40.1988960" lon="-3.7417140">
        <ele>649.6</ele>
        <time>2019-04-28T15:36:42Z</time>
      </trkpt>
      <trkpt lat="40.1988530" lon="-3.7416600">
        <ele>649.6</ele>
        <time>2019-04-28T15:36:43Z</time>
      </trkpt>
      <trkpt lat="40.1988100" lon="-3.7416060">
        <ele>649.4</ele>
        <time>2019-04-28T15:36:44Z</time>
      </trkpt>
      <trkpt lat="40.1987690" lon="-3.7415510">
        <ele>649.4</ele>
        <time>2019-04-28T15:36:45Z</time>
      </trkpt>
      <trkpt lat="40.1987290" lon="-3.7414930">
        <ele>649.4</ele>
        <time>2019-04-28T15:36:46Z</time>
      </trkpt>
      <trkpt lat="40.1986890" lon="-3.7414360">
        <ele>649.4</ele>
        <time>2019-04-28T15:36:47Z</time>
      </trkpt>
      <trkpt lat="40.1986490" lon="-3.7413790">
        <ele>649.6</ele>
        <time>2019-04-28T15:36:48Z</time>
      </trkpt>
      <trkpt lat="40.1986080" lon="-3.7413240">
        <ele>649.4</ele>
        <time>2019-04-28T15:36:49Z</time>
      </trkpt>
      <trkpt lat="40.1985680" lon="-3.7412690">
        <ele>649.4</ele>
        <time>2019-04-28T15:36:50Z</time>
      </trkpt>
      <trkpt lat="40.1985270" lon="-3.7412130">
        <ele>649.4</ele>
        <time>2019-04-28T15:36:51Z</time>
      </trkpt>
      <trkpt lat="40.1984860" lon="-3.7411570">
        <ele>649.4</ele>
        <time>2019-04-28T15:36:52Z</time>
      </trkpt>
      <trkpt lat="40.1984450" lon="-3.7411020">
        <ele>649.4</ele>
        <time>2019-04-28T15:36:53Z</time>
      </trkpt>
      <trkpt lat="40.1984060" lon="-3.7410440">
        <ele>649.4</ele>
        <time>2019-04-28T15:36:54Z</time>
      </trkpt>
      <trkpt lat="40.1983670" lon="-3.7409850">
        <ele>649.0</ele>
        <time>2019-04-28T15:36:55Z</time>
      </trkpt>
      <trkpt lat="40.1983290" lon="-3.7409260">
        <ele>649.2</ele>
        <time>2019-04-28T15:36:56Z</time>
      </trkpt>
      <trkpt lat="40.1982920" lon="-3.7408660">
        <ele>649.0</ele>
        <time>2019-04-28T15:36:57Z</time>
      </trkpt>
      <trkpt lat="40.1982560" lon="-3.7408060">
        <ele>649.0</ele>
        <time>2019-04-28T15:36:58Z</time>
      </trkpt>
      <trkpt lat="40.1982200" lon="-3.7407450">
        <ele>649.0</ele>
        <time>2019-04-28T15:36:59Z</time>
      </trkpt>
      <trkpt lat="40.1981820" lon="-3.7406830">
        <ele>649.0</ele>
        <time>2019-04-28T15:37:00Z</time>
      </trkpt>
      <trkpt lat="40.1981390" lon="-3.7406260">
        <ele>648.8</ele>
        <time>2019-04-28T15:37:01Z</time>
      </trkpt>
      <trkpt lat="40.1980930" lon="-3.7405710">
        <ele>648.8</ele>
        <time>2019-04-28T15:37:02Z</time>
      </trkpt>
      <trkpt lat="40.1980450" lon="-3.7405200">
        <ele>648.8</ele>
        <time>2019-04-28T15:37:03Z</time>
      </trkpt>
      <trkpt lat="40.1979950" lon="-3.7404700">
        <ele>648.8</ele>
        <time>2019-04-28T15:37:04Z</time>
      </trkpt>
      <trkpt lat="40.1979430" lon="-3.7404230">
        <ele>648.6</ele>
        <time>2019-04-28T15:37:05Z</time>
      </trkpt>
      <trkpt lat="40.1978900" lon="-3.7403780">
        <ele>648.4</ele>
        <time>2019-04-28T15:37:06Z</time>
      </trkpt>
      <trkpt lat="40.1978360" lon="-3.7403320">
        <ele>648.4</ele>
        <time>2019-04-28T15:37:07Z</time>
      </trkpt>
      <trkpt lat="40.1977820" lon="-3.7402870">
        <ele>648.4</ele>
        <time>2019-04-28T15:37:08Z</time>
      </trkpt>
      <trkpt lat="40.1977280" lon="-3.7402430">
        <ele>648.4</ele>
        <time>2019-04-28T15:37:09Z</time>
      </trkpt>
      <trkpt lat="40.1976730" lon="-3.7402000">
        <ele>648.2</ele>
        <time>2019-04-28T15:37:10Z</time>
      </trkpt>
      <trkpt lat="40.1976170" lon="-3.7401570">
        <ele>648.2</ele>
        <time>2019-04-28T15:37:11Z</time>
      </trkpt>
      <trkpt lat="40.1975590" lon="-3.7401160">
        <ele>648.2</ele>
        <time>2019-04-28T15:37:12Z</time>
      </trkpt>
      <trkpt lat="40.1975020" lon="-3.7400740">
        <ele>648.2</ele>
        <time>2019-04-28T15:37:13Z</time>
      </trkpt>
      <trkpt lat="40.1974440" lon="-3.7400330">
        <ele>648.0</ele>
        <time>2019-04-28T15:37:14Z</time>
      </trkpt>
      <trkpt lat="40.1973840" lon="-3.7400010">
        <ele>647.8</ele>
        <time>2019-04-28T15:37:15Z</time>
      </trkpt>
      <trkpt lat="40.1973220" lon="-3.7399730">
        <ele>648.0</ele>
        <time>2019-04-28T15:37:16Z</time>
      </trkpt>
      <trkpt lat="40.1972600" lon="-3.7399440">
        <ele>648.2</ele>
        <time>2019-04-28T15:37:17Z</time>
      </trkpt>
      <trkpt lat="40.1972000" lon="-3.7399130">
        <ele>648.2</ele>
        <time>2019-04-28T15:37:18Z</time>
      </trkpt>
      <trkpt lat="40.1971390" lon="-3.7398830">
        <ele>647.8</ele>
        <time>2019-04-28T15:37:19Z</time>
      </trkpt>
      <trkpt lat="40.1970780" lon="-3.7398520">
        <ele>647.6</ele>
        <time>2019-04-28T15:37:20Z</time>
      </trkpt>
      <trkpt lat="40.1970180" lon="-3.7398150">
        <ele>647.6</ele>
        <time>2019-04-28T15:37:21Z</time>
      </trkpt>
      <trkpt lat="40.1969560" lon="-3.7397800">
        <ele>647.6</ele>
        <time>2019-04-28T15:37:22Z</time>
      </trkpt>
      <trkpt lat="40.1968940" lon="-3.7397540">
        <ele>647.6</ele>
        <time>2019-04-28T15:37:23Z</time>
      </trkpt>
      <trkpt lat="40.1968320" lon="-3.7397240">
        <ele>647.6</ele>
        <time>2019-04-28T15:37:24Z</time>
      </trkpt>
      <trkpt lat="40.1967740" lon="-3.7396910">
        <ele>647.8</ele>
        <time>2019-04-28T15:37:25Z</time>
      </trkpt>
      <trkpt lat="40.1967170" lon="-3.7396610">
        <ele>647.6</ele>
        <time>2019-04-28T15:37:26Z</time>
      </trkpt>
      <trkpt lat="40.1966610" lon="-3.7396330">
        <ele>647.6</ele>
        <time>2019-04-28T15:37:27Z</time>
      </trkpt>
      <trkpt lat="40.1966060" lon="-3.7396020">
        <ele>647.6</ele>
        <time>2019-04-28T15:37:28Z</time>
      </trkpt>
      <trkpt lat="40.1965510" lon="-3.7395750">
        <ele>647.6</ele>
        <time>2019-04-28T15:37:29Z</time>
      </trkpt>
      <trkpt lat="40.1964960" lon="-3.7395450">
        <ele>647.6</ele>
        <time>2019-04-28T15:37:30Z</time>
      </trkpt>
      <trkpt lat="40.1964430" lon="-3.7395140">
        <ele>647.6</ele>
        <time>2019-04-28T15:37:31Z</time>
      </trkpt>
      <trkpt lat="40.1963890" lon="-3.7394830">
        <ele>647.4</ele>
        <time>2019-04-28T15:37:32Z</time>
      </trkpt>
      <trkpt lat="40.1963340" lon="-3.7394540">
        <ele>647.6</ele>
        <time>2019-04-28T15:37:33Z</time>
      </trkpt>
      <trkpt lat="40.1962790" lon="-3.7394240">
        <ele>647.6</ele>
        <time>2019-04-28T15:37:34Z</time>
      </trkpt>
      <trkpt lat="40.1962260" lon="-3.7393960">
        <ele>647.4</ele>
        <time>2019-04-28T15:37:35Z</time>
      </trkpt>
      <trkpt lat="40.1961740" lon="-3.7393700">
        <ele>647.2</ele>
        <time>2019-04-28T15:37:36Z</time>
      </trkpt>
      <trkpt lat="40.1961240" lon="-3.7393460">
        <ele>647.2</ele>
        <time>2019-04-28T15:37:37Z</time>
      </trkpt>
      <trkpt lat="40.1960740" lon="-3.7393210">
        <ele>647.4</ele>
        <time>2019-04-28T15:37:38Z</time>
      </trkpt>
      <trkpt lat="40.1960270" lon="-3.7392960">
        <ele>647.2</ele>
        <time>2019-04-28T15:37:39Z</time>
      </trkpt>
      <trkpt lat="40.1959820" lon="-3.7392700">
        <ele>647.4</ele>
        <time>2019-04-28T15:37:40Z</time>
      </trkpt>
      <trkpt lat="40.1959380" lon="-3.7392480">
        <ele>647.2</ele>
        <time>2019-04-28T15:37:41Z</time>
      </trkpt>
      <trkpt lat="40.1958940" lon="-3.7392270">
        <ele>647.2</ele>
        <time>2019-04-28T15:37:42Z</time>
      </trkpt>
      <trkpt lat="40.1958510" lon="-3.7392040">
        <ele>647.0</ele>
        <time>2019-04-28T15:37:43Z</time>
      </trkpt>
      <trkpt lat="40.1958110" lon="-3.7391800">
        <ele>646.8</ele>
        <time>2019-04-28T15:37:44Z</time>
      </trkpt>
      <trkpt lat="40.1957710" lon="-3.7391590">
        <ele>647.0</ele>
        <time>2019-04-28T15:37:45Z</time>
      </trkpt>
      <trkpt lat="40.1957330" lon="-3.7391380">
        <ele>647.0</ele>
        <time>2019-04-28T15:37:46Z</time>
      </trkpt>
      <trkpt lat="40.1956940" lon="-3.7391140">
        <ele>647.0</ele>
        <time>2019-04-28T15:37:47Z</time>
      </trkpt>
      <trkpt lat="40.1956540" lon="-3.7390900">
        <ele>647.2</ele>
        <time>2019-04-28T15:37:48Z</time>
      </trkpt>
      <trkpt lat="40.1956110" lon="-3.7390650">
        <ele>647.2</ele>
        <time>2019-04-28T15:37:49Z</time>
      </trkpt>
      <trkpt lat="40.1955670" lon="-3.7390410">
        <ele>647.0</ele>
        <time>2019-04-28T15:37:50Z</time>
      </trkpt>
      <trkpt lat="40.1955270" lon="-3.7390190">
        <ele>647.0</ele>
        <time>2019-04-28T15:37:51Z</time>
      </trkpt>
      <trkpt lat="40.1954920" lon="-3.7389970">
        <ele>647.0</ele>
        <time>2019-04-28T15:37:52Z</time>
      </trkpt>
      <trkpt lat="40.1954680" lon="-3.7389680">
        <ele>646.8</ele>
        <time>2019-04-28T15:37:53Z</time>
      </trkpt>
      <trkpt lat="40.1954590" lon="-3.7389260">
        <ele>646.6</ele>
        <time>2019-04-28T15:37:54Z</time>
      </trkpt>
      <trkpt lat="40.1954690" lon="-3.7388840">
        <ele>647.0</ele>
        <time>2019-04-28T15:37:55Z</time>
      </trkpt>
      <trkpt lat="40.1954910" lon="-3.7388490">
        <ele>647.2</ele>
        <time>2019-04-28T15:37:56Z</time>
      </trkpt>
      <trkpt lat="40.1955170" lon="-3.7388120">
        <ele>647.2</ele>
        <time>2019-04-28T15:37:57Z</time>
      </trkpt>
      <trkpt lat="40.1955450" lon="-3.7387710">
        <ele>647.2</ele>
        <time>2019-04-28T15:37:58Z</time>
      </trkpt>
      <trkpt lat="40.1955720" lon="-3.7387260">
        <ele>647.4</ele>
        <time>2019-04-28T15:37:59Z</time>
      </trkpt>
      <trkpt lat="40.1955970" lon="-3.7386780">
        <ele>647.6</ele>
        <time>2019-04-28T15:38:00Z</time>
      </trkpt>
      <trkpt lat="40.1956210" lon="-3.7386280">
        <ele>647.8</ele>
        <time>2019-04-28T15:38:01Z</time>
      </trkpt>
      <trkpt lat="40.1956420" lon="-3.7385770">
        <ele>648.0</ele>
        <time>2019-04-28T15:38:02Z</time>
      </trkpt>
      <trkpt lat="40.1956630" lon="-3.7385260">
        <ele>648.0</ele>
        <time>2019-04-28T15:38:03Z</time>
      </trkpt>
      <trkpt lat="40.1956840" lon="-3.7384750">
        <ele>648.2</ele>
        <time>2019-04-28T15:38:04Z</time>
      </trkpt>
      <trkpt lat="40.1957040" lon="-3.7384250">
        <ele>648.2</ele>
        <time>2019-04-28T15:38:05Z</time>
      </trkpt>
      <trkpt lat="40.1957280" lon="-3.7383770">
        <ele>648.4</ele>
        <time>2019-04-28T15:38:06Z</time>
      </trkpt>
      <trkpt lat="40.1957520" lon="-3.7383290">
        <ele>648.4</ele>
        <time>2019-04-28T15:38:07Z</time>
      </trkpt>
      <trkpt lat="40.1957790" lon="-3.7382820">
        <ele>648.4</ele>
        <time>2019-04-28T15:38:08Z</time>
      </trkpt>
      <trkpt lat="40.1958080" lon="-3.7382360">
        <ele>648.6</ele>
        <time>2019-04-28T15:38:09Z</time>
      </trkpt>
      <trkpt lat="40.1958350" lon="-3.7381890">
        <ele>648.6</ele>
        <time>2019-04-28T15:38:10Z</time>
      </trkpt>
      <trkpt lat="40.1958610" lon="-3.7381420">
        <ele>648.6</ele>
        <time>2019-04-28T15:38:11Z</time>
      </trkpt>
      <trkpt lat="40.1958900" lon="-3.7380960">
        <ele>648.6</ele>
        <time>2019-04-28T15:38:12Z</time>
      </trkpt>
      <trkpt lat="40.1959230" lon="-3.7380530">
        <ele>648.6</ele>
        <time>2019-04-28T15:38:13Z</time>
      </trkpt>
      <trkpt lat="40.1959580" lon="-3.7380110">
        <ele>648.6</ele>
        <time>2019-04-28T15:38:14Z</time>
      </trkpt>
      <trkpt lat="40.1959950" lon="-3.7379730">
        <ele>648.6</ele>
        <time>2019-04-28T15:38:15Z</time>
      </trkpt>
      <trkpt lat="40.1960340" lon="-3.7379370">
        <ele>648.6</ele>
        <time>2019-04-28T15:38:16Z</time>
      </trkpt>
      <trkpt lat="40.1960760" lon="-3.7379090">
        <ele>648.6</ele>
        <time>2019-04-28T15:38:17Z</time>
      </trkpt>
      <trkpt lat="40.1961190" lon="-3.7378850">
        <ele>648.4</ele>
        <time>2019-04-28T15:38:18Z</time>
      </trkpt>
      <trkpt lat="40.1961630" lon="-3.7378640">
        <ele>648.2</ele>
        <time>2019-04-28T15:38:19Z</time>
      </trkpt>
      <trkpt lat="40.1962070" lon="-3.7378400">
        <ele>648.2</ele>
        <time>2019-04-28T15:38:20Z</time>
      </trkpt>
      <trkpt lat="40.1962480" lon="-3.7378110">
        <ele>648.2</ele>
        <time>2019-04-28T15:38:21Z</time>
      </trkpt>
      <trkpt lat="40.1962890" lon="-3.7377780">
        <ele>648.2</ele>
        <time>2019-04-28T15:38:22Z</time>
      </trkpt>
      <trkpt lat="40.1963290" lon="-3.7377380">
        <ele>648.2</ele>
        <time>2019-04-28T15:38:23Z</time>
      </trkpt>
      <trkpt lat="40.1963670" lon="-3.7376940">
        <ele>648.4</ele>
        <time>2019-04-28T15:38:24Z</time>
      </trkpt>
      <trkpt lat="40.1964060" lon="-3.7376510">
        <ele>648.4</ele>
        <time>2019-04-28T15:38:25Z</time>
      </trkpt>
      <trkpt lat="40.1964470" lon="-3.7376080">
        <ele>648.4</ele>
        <time>2019-04-28T15:38:26Z</time>
      </trkpt>
      <trkpt lat="40.1964880" lon="-3.7375640">
        <ele>648.4</ele>
        <time>2019-04-28T15:38:27Z</time>
      </trkpt>
      <trkpt lat="40.1965310" lon="-3.7375190">
        <ele>648.4</ele>
        <time>2019-04-28T15:38:28Z</time>
      </trkpt>
      <trkpt lat="40.1965760" lon="-3.7374780">
        <ele>648.4</ele>
        <time>2019-04-28T15:38:29Z</time>
      </trkpt>
      <trkpt lat="40.1966210" lon="-3.7374380">
        <ele>648.4</ele>
        <time>2019-04-28T15:38:30Z</time>
      </trkpt>
      <trkpt lat="40.1966610" lon="-3.7373950">
        <ele>648.4</ele>
        <time>2019-04-28T15:38:31Z</time>
      </trkpt>
      <trkpt lat="40.1966990" lon="-3.7373440">
        <ele>648.4</ele>
        <time>2019-04-28T15:38:32Z</time>
      </trkpt>
      <trkpt lat="40.1967350" lon="-3.7372880">
        <ele>648.0</ele>
        <time>2019-04-28T15:38:33Z</time>
      </trkpt>
      <trkpt lat="40.1967720" lon="-3.7372280">
        <ele>647.8</ele>
        <time>2019-04-28T15:38:34Z</time>
      </trkpt>
      <trkpt lat="40.1968080" lon="-3.7371670">
        <ele>647.8</ele>
        <time>2019-04-28T15:38:35Z</time>
      </trkpt>
      <trkpt lat="40.1968430" lon="-3.7371040">
        <ele>647.8</ele>
        <time>2019-04-28T15:38:36Z</time>
      </trkpt>
      <trkpt lat="40.1968760" lon="-3.7370390">
        <ele>647.8</ele>
        <time>2019-04-28T15:38:37Z</time>
      </trkpt>
      <trkpt lat="40.1969080" lon="-3.7369720">
        <ele>647.6</ele>
        <time>2019-04-28T15:38:38Z</time>
      </trkpt>
      <trkpt lat="40.1969370" lon="-3.7369040">
        <ele>647.6</ele>
        <time>2019-04-28T15:38:39Z</time>
      </trkpt>
      <trkpt lat="40.1969610" lon="-3.7368330">
        <ele>647.6</ele>
        <time>2019-04-28T15:38:40Z</time>
      </trkpt>
      <trkpt lat="40.1969820" lon="-3.7367620">
        <ele>647.6</ele>
        <time>2019-04-28T15:38:41Z</time>
      </trkpt>
      <trkpt lat="40.1970030" lon="-3.7366910">
        <ele>647.4</ele>
        <time>2019-04-28T15:38:42Z</time>
      </trkpt>
      <trkpt lat="40.1970200" lon="-3.7366210">
        <ele>647.4</ele>
        <time>2019-04-28T15:38:43Z</time>
      </trkpt>
      <trkpt lat="40.1970340" lon="-3.7365500">
        <ele>647.4</ele>
        <time>2019-04-28T15:38:44Z</time>
      </trkpt>
      <trkpt lat="40.1970480" lon="-3.7364770">
        <ele>647.4</ele>
        <time>2019-04-28T15:38:45Z</time>
      </trkpt>
      <trkpt lat="40.1970620" lon="-3.7364040">
        <ele>647.4</ele>
        <time>2019-04-28T15:38:46Z</time>
      </trkpt>
      <trkpt lat="40.1970750" lon="-3.7363310">
        <ele>647.6</ele>
        <time>2019-04-28T15:38:47Z</time>
      </trkpt>
      <trkpt lat="40.1970880" lon="-3.7362590">
        <ele>647.4</ele>
        <time>2019-04-28T15:38:48Z</time>
      </trkpt>
      <trkpt lat="40.1971010" lon="-3.7361870">
        <ele>647.6</ele>
        <time>2019-04-28T15:38:49Z</time>
      </trkpt>
      <trkpt lat="40.1971150" lon="-3.7361150">
        <ele>647.6</ele>
        <time>2019-04-28T15:38:50Z</time>
      </trkpt>
      <trkpt lat="40.1971330" lon="-3.7360460">
        <ele>647.6</ele>
        <time>2019-04-28T15:38:51Z</time>
      </trkpt>
      <trkpt lat="40.1971530" lon="-3.7359770">
        <ele>647.6</ele>
        <time>2019-04-28T15:38:52Z</time>
      </trkpt>
      <trkpt lat="40.1971730" lon="-3.7359070">
        <ele>647.6</ele>
        <time>2019-04-28T15:38:53Z</time>
      </trkpt>
      <trkpt lat="40.1971960" lon="-3.7358380">
        <ele>647.4</ele>
        <time>2019-04-28T15:38:54Z</time>
      </trkpt>
      <trkpt lat="40.1972190" lon="-3.7357680">
        <ele>647.4</ele>
        <time>2019-04-28T15:38:55Z</time>
      </trkpt>
      <trkpt lat="40.1972420" lon="-3.7356980">
        <ele>647.6</ele>
        <time>2019-04-28T15:38:56Z</time>
      </trkpt>
      <trkpt lat="40.1972660" lon="-3.7356290">
        <ele>647.4</ele>
        <time>2019-04-28T15:38:57Z</time>
      </trkpt>
      <trkpt lat="40.1972880" lon="-3.7355600">
        <ele>647.4</ele>
        <time>2019-04-28T15:38:58Z</time>
      </trkpt>
      <trkpt lat="40.1973120" lon="-3.7354900">
        <ele>647.4</ele>
        <time>2019-04-28T15:38:59Z</time>
      </trkpt>
      <trkpt lat="40.1973350" lon="-3.7354180">
        <ele>647.2</ele>
        <time>2019-04-28T15:39:00Z</time>
      </trkpt>
      <trkpt lat="40.1973570" lon="-3.7353450">
        <ele>647.2</ele>
        <time>2019-04-28T15:39:01Z</time>
      </trkpt>
      <trkpt lat="40.1973800" lon="-3.7352710">
        <ele>647.2</ele>
        <time>2019-04-28T15:39:02Z</time>
      </trkpt>
      <trkpt lat="40.1974040" lon="-3.7351990">
        <ele>647.2</ele>
        <time>2019-04-28T15:39:03Z</time>
      </trkpt>
      <trkpt lat="40.1974280" lon="-3.7351260">
        <ele>647.2</ele>
        <time>2019-04-28T15:39:04Z</time>
      </trkpt>
      <trkpt lat="40.1974510" lon="-3.7350530">
        <ele>647.2</ele>
        <time>2019-04-28T15:39:05Z</time>
      </trkpt>
      <trkpt lat="40.1974750" lon="-3.7349810">
        <ele>647.2</ele>
        <time>2019-04-28T15:39:06Z</time>
      </trkpt>
      <trkpt lat="40.1974970" lon="-3.7349090">
        <ele>647.2</ele>
        <time>2019-04-28T15:39:07Z</time>
      </trkpt>
      <trkpt lat="40.1975170" lon="-3.7348360">
        <ele>647.2</ele>
        <time>2019-04-28T15:39:08Z</time>
      </trkpt>
      <trkpt lat="40.1975390" lon="-3.7347640">
        <ele>647.0</ele>
        <time>2019-04-28T15:39:09Z</time>
      </trkpt>
      <trkpt lat="40.1975610" lon="-3.7346940">
        <ele>647.2</ele>
        <time>2019-04-28T15:39:10Z</time>
      </trkpt>
      <trkpt lat="40.1975840" lon="-3.7346250">
        <ele>646.8</ele>
        <time>2019-04-28T15:39:11Z</time>
      </trkpt>
      <trkpt lat="40.1976070" lon="-3.7345540">
        <ele>646.4</ele>
        <time>2019-04-28T15:39:12Z</time>
      </trkpt>
      <trkpt lat="40.1976290" lon="-3.7344820">
        <ele>646.2</ele>
        <time>2019-04-28T15:39:13Z</time>
      </trkpt>
      <trkpt lat="40.1976530" lon="-3.7344070">
        <ele>645.8</ele>
        <time>2019-04-28T15:39:14Z</time>
      </trkpt>
      <trkpt lat="40.1976760" lon="-3.7343300">
        <ele>645.4</ele>
        <time>2019-04-28T15:39:15Z</time>
      </trkpt>
      <trkpt lat="40.1977000" lon="-3.7342510">
        <ele>645.2</ele>
        <time>2019-04-28T15:39:16Z</time>
      </trkpt>
      <trkpt lat="40.1977260" lon="-3.7341700">
        <ele>645.0</ele>
        <time>2019-04-28T15:39:17Z</time>
      </trkpt>
      <trkpt lat="40.1977520" lon="-3.7340870">
        <ele>644.8</ele>
        <time>2019-04-28T15:39:18Z</time>
      </trkpt>
      <trkpt lat="40.1977830" lon="-3.7340040">
        <ele>644.8</ele>
        <time>2019-04-28T15:39:19Z</time>
      </trkpt>
      <trkpt lat="40.1978160" lon="-3.7339230">
        <ele>644.6</ele>
        <time>2019-04-28T15:39:20Z</time>
      </trkpt>
      <trkpt lat="40.1978470" lon="-3.7338400">
        <ele>644.6</ele>
        <time>2019-04-28T15:39:21Z</time>
      </trkpt>
      <trkpt lat="40.1978820" lon="-3.7337570">
        <ele>644.6</ele>
        <time>2019-04-28T15:39:22Z</time>
      </trkpt>
      <trkpt lat="40.1979130" lon="-3.7336710">
        <ele>644.6</ele>
        <time>2019-04-28T15:39:23Z</time>
      </trkpt>
      <trkpt lat="40.1979420" lon="-3.7335850">
        <ele>644.4</ele>
        <time>2019-04-28T15:39:24Z</time>
      </trkpt>
      <trkpt lat="40.1979710" lon="-3.7334980">
        <ele>644.4</ele>
        <time>2019-04-28T15:39:25Z</time>
      </trkpt>
      <trkpt lat="40.1979990" lon="-3.7334120">
        <ele>644.2</ele>
        <time>2019-04-28T15:39:26Z</time>
      </trkpt>
      <trkpt lat="40.1980270" lon="-3.7333270">
        <ele>644.2</ele>
        <time>2019-04-28T15:39:27Z</time>
      </trkpt>
      <trkpt lat="40.1980510" lon="-3.7332450">
        <ele>644.0</ele>
        <time>2019-04-28T15:39:28Z</time>
      </trkpt>
      <trkpt lat="40.1980730" lon="-3.7331630">
        <ele>643.6</ele>
        <time>2019-04-28T15:39:29Z</time>
      </trkpt>
      <trkpt lat="40.1980900" lon="-3.7330830">
        <ele>643.8</ele>
        <time>2019-04-28T15:39:30Z</time>
      </trkpt>
      <trkpt lat="40.1981070" lon="-3.7330070">
        <ele>643.8</ele>
        <time>2019-04-28T15:39:31Z</time>
      </trkpt>
      <trkpt lat="40.1981280" lon="-3.7329340">
        <ele>644.0</ele>
        <time>2019-04-28T15:39:32Z</time>
      </trkpt>
      <trkpt lat="40.1981490" lon="-3.7328620">
        <ele>644.0</ele>
        <time>2019-04-28T15:39:33Z</time>
      </trkpt>
      <trkpt lat="40.1981730" lon="-3.7327860">
        <ele>644.0</ele>
        <time>2019-04-28T15:39:34Z</time>
      </trkpt>
      <trkpt lat="40.1981970" lon="-3.7327060">
        <ele>643.8</ele>
        <time>2019-04-28T15:39:35Z</time>
      </trkpt>
      <trkpt lat="40.1982200" lon="-3.7326240">
        <ele>643.8</ele>
        <time>2019-04-28T15:39:36Z</time>
      </trkpt>
      <trkpt lat="40.1982450" lon="-3.7325410">
        <ele>644.0</ele>
        <time>2019-04-28T15:39:37Z</time>
      </trkpt>
      <trkpt lat="40.1982670" lon="-3.7324580">
        <ele>643.8</ele>
        <time>2019-04-28T15:39:38Z</time>
      </trkpt>
      <trkpt lat="40.1982860" lon="-3.7323720">
        <ele>643.8</ele>
        <time>2019-04-28T15:39:39Z</time>
      </trkpt>
      <trkpt lat="40.1983050" lon="-3.7322850">
        <ele>643.8</ele>
        <time>2019-04-28T15:39:40Z</time>
      </trkpt>
      <trkpt lat="40.1983220" lon="-3.7321960">
        <ele>644.0</ele>
        <time>2019-04-28T15:39:41Z</time>
      </trkpt>
      <trkpt lat="40.1983370" lon="-3.7321060">
        <ele>643.8</ele>
        <time>2019-04-28T15:39:42Z</time>
      </trkpt>
      <trkpt lat="40.1983520" lon="-3.7320180">
        <ele>644.0</ele>
        <time>2019-04-28T15:39:43Z</time>
      </trkpt>
      <trkpt lat="40.1983680" lon="-3.7319310">
        <ele>644.2</ele>
        <time>2019-04-28T15:39:44Z</time>
      </trkpt>
      <trkpt lat="40.1983850" lon="-3.7318470">
        <ele>644.0</ele>
        <time>2019-04-28T15:39:45Z</time>
      </trkpt>
      <trkpt lat="40.1983990" lon="-3.7317620">
        <ele>644.2</ele>
        <time>2019-04-28T15:39:46Z</time>
      </trkpt>
      <trkpt lat="40.1984110" lon="-3.7316760">
        <ele>644.2</ele>
        <time>2019-04-28T15:39:47Z</time>
      </trkpt>
      <trkpt lat="40.1984250" lon="-3.7315910">
        <ele>644.4</ele>
        <time>2019-04-28T15:39:48Z</time>
      </trkpt>
      <trkpt lat="40.1984380" lon="-3.7315070">
        <ele>644.4</ele>
        <time>2019-04-28T15:39:49Z</time>
      </trkpt>
      <trkpt lat="40.1984500" lon="-3.7314230">
        <ele>644.2</ele>
        <time>2019-04-28T15:39:50Z</time>
      </trkpt>
      <trkpt lat="40.1984610" lon="-3.7313390">
        <ele>644.6</ele>
        <time>2019-04-28T15:39:51Z</time>
      </trkpt>
      <trkpt lat="40.1984720" lon="-3.7312550">
        <ele>644.4</ele>
        <time>2019-04-28T15:39:52Z</time>
      </trkpt>
      <trkpt lat="40.1984840" lon="-3.7311700">
        <ele>644.6</ele>
        <time>2019-04-28T15:39:53Z</time>
      </trkpt>
      <trkpt lat="40.1984950" lon="-3.7310850">
        <ele>644.6</ele>
        <time>2019-04-28T15:39:54Z</time>
      </trkpt>
      <trkpt lat="40.1985060" lon="-3.7309990">
        <ele>644.4</ele>
        <time>2019-04-28T15:39:55Z</time>
      </trkpt>
      <trkpt lat="40.1985180" lon="-3.7309150">
        <ele>644.4</ele>
        <time>2019-04-28T15:39:56Z</time>
      </trkpt>
      <trkpt lat="40.1985300" lon="-3.7308370">
        <ele>644.4</ele>
        <time>2019-04-28T15:39:57Z</time>
      </trkpt>
      <trkpt lat="40.1985480" lon="-3.7307650">
        <ele>644.4</ele>
        <time>2019-04-28T15:39:58Z</time>
      </trkpt>
      <trkpt lat="40.1985810" lon="-3.7307060">
        <ele>644.6</ele>
        <time>2019-04-28T15:39:59Z</time>
      </trkpt>
      <trkpt lat="40.1986240" lon="-3.7306620">
        <ele>644.6</ele>
        <time>2019-04-28T15:40:00Z</time>
      </trkpt>
      <trkpt lat="40.1986710" lon="-3.7306300">
        <ele>644.8</ele>
        <time>2019-04-28T15:40:01Z</time>
      </trkpt>
      <trkpt lat="40.1987200" lon="-3.7306050">
        <ele>644.8</ele>
        <time>2019-04-28T15:40:02Z</time>
      </trkpt>
      <trkpt lat="40.1987710" lon="-3.7305800">
        <ele>645.0</ele>
        <time>2019-04-28T15:40:03Z</time>
      </trkpt>
      <trkpt lat="40.1988180" lon="-3.7305550">
        <ele>645.0</ele>
        <time>2019-04-28T15:40:04Z</time>
      </trkpt>
      <trkpt lat="40.1988640" lon="-3.7305310">
        <ele>645.2</ele>
        <time>2019-04-28T15:40:05Z</time>
      </trkpt>
      <trkpt lat="40.1989080" lon="-3.7305110">
        <ele>645.4</ele>
        <time>2019-04-28T15:40:06Z</time>
      </trkpt>
      <trkpt lat="40.1989540" lon="-3.7304900">
        <ele>645.2</ele>
        <time>2019-04-28T15:40:07Z</time>
      </trkpt>
      <trkpt lat="40.1989990" lon="-3.7304710">
        <ele>645.4</ele>
        <time>2019-04-28T15:40:08Z</time>
      </trkpt>
      <trkpt lat="40.1990420" lon="-3.7304500">
        <ele>645.4</ele>
        <time>2019-04-28T15:40:09Z</time>
      </trkpt>
      <trkpt lat="40.1990840" lon="-3.7304310">
        <ele>645.6</ele>
        <time>2019-04-28T15:40:10Z</time>
      </trkpt>
      <trkpt lat="40.1991250" lon="-3.7304120">
        <ele>645.8</ele>
        <time>2019-04-28T15:40:11Z</time>
      </trkpt>
      <trkpt lat="40.1991650" lon="-3.7303910">
        <ele>645.8</ele>
        <time>2019-04-28T15:40:12Z</time>
      </trkpt>
      <trkpt lat="40.1992050" lon="-3.7303710">
        <ele>646.0</ele>
        <time>2019-04-28T15:40:13Z</time>
      </trkpt>
      <trkpt lat="40.1992440" lon="-3.7303500">
        <ele>646.2</ele>
        <time>2019-04-28T15:40:14Z</time>
      </trkpt>
      <trkpt lat="40.1992820" lon="-3.7303270">
        <ele>646.4</ele>
        <time>2019-04-28T15:40:15Z</time>
      </trkpt>
      <trkpt lat="40.1993190" lon="-3.7303010">
        <ele>646.4</ele>
        <time>2019-04-28T15:40:16Z</time>
      </trkpt>
      <trkpt lat="40.1993560" lon="-3.7302740">
        <ele>646.6</ele>
        <time>2019-04-28T15:40:17Z</time>
      </trkpt>
      <trkpt lat="40.1993940" lon="-3.7302460">
        <ele>646.8</ele>
        <time>2019-04-28T15:40:18Z</time>
      </trkpt>
      <trkpt lat="40.1994310" lon="-3.7302180">
        <ele>646.8</ele>
        <time>2019-04-28T15:40:19Z</time>
      </trkpt>
      <trkpt lat="40.1994680" lon="-3.7301890">
        <ele>647.2</ele>
        <time>2019-04-28T15:40:20Z</time>
      </trkpt>
      <trkpt lat="40.1995060" lon="-3.7301580">
        <ele>647.2</ele>
        <time>2019-04-28T15:40:21Z</time>
      </trkpt>
      <trkpt lat="40.1995440" lon="-3.7301290">
        <ele>647.4</ele>
        <time>2019-04-28T15:40:22Z</time>
      </trkpt>
      <trkpt lat="40.1995820" lon="-3.7301010">
        <ele>647.6</ele>
        <time>2019-04-28T15:40:23Z</time>
      </trkpt>
      <trkpt lat="40.1996200" lon="-3.7300710">
        <ele>647.8</ele>
        <time>2019-04-28T15:40:24Z</time>
      </trkpt>
      <trkpt lat="40.1996580" lon="-3.7300420">
        <ele>648.0</ele>
        <time>2019-04-28T15:40:25Z</time>
      </trkpt>
      <trkpt lat="40.1996970" lon="-3.7300150">
        <ele>648.0</ele>
        <time>2019-04-28T15:40:26Z</time>
      </trkpt>
      <trkpt lat="40.1997370" lon="-3.7299890">
        <ele>648.2</ele>
        <time>2019-04-28T15:40:27Z</time>
      </trkpt>
      <trkpt lat="40.1997760" lon="-3.7299640">
        <ele>648.4</ele>
        <time>2019-04-28T15:40:28Z</time>
      </trkpt>
      <trkpt lat="40.1998180" lon="-3.7299370">
        <ele>648.6</ele>
        <time>2019-04-28T15:40:29Z</time>
      </trkpt>
      <trkpt lat="40.1998570" lon="-3.7299140">
        <ele>648.6</ele>
        <time>2019-04-28T15:40:30Z</time>
      </trkpt>
      <trkpt lat="40.1998990" lon="-3.7298950">
        <ele>648.6</ele>
        <time>2019-04-28T15:40:31Z</time>
      </trkpt>
      <trkpt lat="40.1999420" lon="-3.7298780">
        <ele>648.8</ele>
        <time>2019-04-28T15:40:32Z</time>
      </trkpt>
      <trkpt lat="40.1999860" lon="-3.7298580">
        <ele>649.0</ele>
        <time>2019-04-28T15:40:33Z</time>
      </trkpt>
      <trkpt lat="40.2000310" lon="-3.7298390">
        <ele>649.2</ele>
        <time>2019-04-28T15:40:34Z</time>
      </trkpt>
      <trkpt lat="40.2000750" lon="-3.7298210">
        <ele>649.4</ele>
        <time>2019-04-28T15:40:35Z</time>
      </trkpt>
      <trkpt lat="40.2001190" lon="-3.7298050">
        <ele>649.6</ele>
        <time>2019-04-28T15:40:36Z</time>
      </trkpt>
      <trkpt lat="40.2001650" lon="-3.7297890">
        <ele>649.6</ele>
        <time>2019-04-28T15:40:37Z</time>
      </trkpt>
      <trkpt lat="40.2002090" lon="-3.7297740">
        <ele>649.8</ele>
        <time>2019-04-28T15:40:38Z</time>
      </trkpt>
      <trkpt lat="40.2002510" lon="-3.7297590">
        <ele>649.8</ele>
        <time>2019-04-28T15:40:39Z</time>
      </trkpt>
      <trkpt lat="40.2002940" lon="-3.7297450">
        <ele>649.8</ele>
        <time>2019-04-28T15:40:40Z</time>
      </trkpt>
      <trkpt lat="40.2003310" lon="-3.7297340">
        <ele>650.0</ele>
        <time>2019-04-28T15:40:41Z</time>
      </trkpt>
      <trkpt lat="40.2003670" lon="-3.7297240">
        <ele>650.0</ele>
        <time>2019-04-28T15:40:42Z</time>
      </trkpt>
      <trkpt lat="40.2004020" lon="-3.7297140">
        <ele>650.0</ele>
        <time>2019-04-28T15:40:43Z</time>
      </trkpt>
      <trkpt lat="40.2004390" lon="-3.7297020">
        <ele>650.0</ele>
        <time>2019-04-28T15:40:44Z</time>
      </trkpt>
      <trkpt lat="40.2004770" lon="-3.7296930">
        <ele>650.2</ele>
        <time>2019-04-28T15:40:45Z</time>
      </trkpt>
      <trkpt lat="40.2005170" lon="-3.7296830">
        <ele>650.2</ele>
        <time>2019-04-28T15:40:46Z</time>
      </trkpt>
      <trkpt lat="40.2005570" lon="-3.7296730">
        <ele>650.4</ele>
        <time>2019-04-28T15:40:47Z</time>
      </trkpt>
      <trkpt lat="40.2005980" lon="-3.7296630">
        <ele>650.4</ele>
        <time>2019-04-28T15:40:48Z</time>
      </trkpt>
      <trkpt lat="40.2006410" lon="-3.7296540">
        <ele>650.4</ele>
        <time>2019-04-28T15:40:49Z</time>
      </trkpt>
      <trkpt lat="40.2006810" lon="-3.7296440">
        <ele>650.4</ele>
        <time>2019-04-28T15:40:50Z</time>
      </trkpt>
      <trkpt lat="40.2007200" lon="-3.7296330">
        <ele>650.4</ele>
        <time>2019-04-28T15:40:51Z</time>
      </trkpt>
      <trkpt lat="40.2007600" lon="-3.7296240">
        <ele>650.4</ele>
        <time>2019-04-28T15:40:52Z</time>
      </trkpt>
      <trkpt lat="40.2008020" lon="-3.7296160">
        <ele>650.4</ele>
        <time>2019-04-28T15:40:53Z</time>
      </trkpt>
      <trkpt lat="40.2008450" lon="-3.7296090">
        <ele>650.6</ele>
        <time>2019-04-28T15:40:54Z</time>
      </trkpt>
      <trkpt lat="40.2008870" lon="-3.7296000">
        <ele>650.6</ele>
        <time>2019-04-28T15:40:55Z</time>
      </trkpt>
      <trkpt lat="40.2009310" lon="-3.7295930">
        <ele>650.6</ele>
        <time>2019-04-28T15:40:56Z</time>
      </trkpt>
      <trkpt lat="40.2009750" lon="-3.7295830">
        <ele>650.6</ele>
        <time>2019-04-28T15:40:57Z</time>
      </trkpt>
      <trkpt lat="40.2010190" lon="-3.7295710">
        <ele>650.8</ele>
        <time>2019-04-28T15:40:58Z</time>
      </trkpt>
      <trkpt lat="40.2010630" lon="-3.7295600">
        <ele>650.6</ele>
        <time>2019-04-28T15:40:59Z</time>
      </trkpt>
      <trkpt lat="40.2011070" lon="-3.7295530">
        <ele>650.6</ele>
        <time>2019-04-28T15:41:00Z</time>
      </trkpt>
      <trkpt lat="40.2011520" lon="-3.7295440">
        <ele>650.8</ele>
        <time>2019-04-28T15:41:01Z</time>
      </trkpt>
      <trkpt lat="40.2011960" lon="-3.7295360">
        <ele>650.6</ele>
        <time>2019-04-28T15:41:02Z</time>
      </trkpt>
      <trkpt lat="40.2012370" lon="-3.7295280">
        <ele>650.6</ele>
        <time>2019-04-28T15:41:03Z</time>
      </trkpt>
      <trkpt lat="40.2012800" lon="-3.7295200">
        <ele>650.6</ele>
        <time>2019-04-28T15:41:04Z</time>
      </trkpt>
      <trkpt lat="40.2013250" lon="-3.7295140">
        <ele>650.6</ele>
        <time>2019-04-28T15:41:05Z</time>
      </trkpt>
      <trkpt lat="40.2013690" lon="-3.7295080">
        <ele>650.6</ele>
        <time>2019-04-28T15:41:06Z</time>
      </trkpt>
      <trkpt lat="40.2014150" lon="-3.7295000">
        <ele>650.6</ele>
        <time>2019-04-28T15:41:07Z</time>
      </trkpt>
      <trkpt lat="40.2014590" lon="-3.7294940">
        <ele>650.6</ele>
        <time>2019-04-28T15:41:08Z</time>
      </trkpt>
      <trkpt lat="40.2015050" lon="-3.7294870">
        <ele>650.4</ele>
        <time>2019-04-28T15:41:09Z</time>
      </trkpt>
      <trkpt lat="40.2015510" lon="-3.7294810">
        <ele>650.4</ele>
        <time>2019-04-28T15:41:10Z</time>
      </trkpt>
      <trkpt lat="40.2015970" lon="-3.7294740">
        <ele>650.2</ele>
        <time>2019-04-28T15:41:11Z</time>
      </trkpt>
      <trkpt lat="40.2016450" lon="-3.7294700">
        <ele>650.2</ele>
        <time>2019-04-28T15:41:12Z</time>
      </trkpt>
      <trkpt lat="40.2016950" lon="-3.7294640">
        <ele>650.2</ele>
        <time>2019-04-28T15:41:13Z</time>
      </trkpt>
      <trkpt lat="40.2017460" lon="-3.7294570">
        <ele>650.2</ele>
        <time>2019-04-28T15:41:14Z</time>
      </trkpt>
      <trkpt lat="40.2017990" lon="-3.7294480">
        <ele>650.0</ele>
        <time>2019-04-28T15:41:15Z</time>
      </trkpt>
      <trkpt lat="40.2018520" lon="-3.7294400">
        <ele>650.0</ele>
        <time>2019-04-28T15:41:16Z</time>
      </trkpt>
      <trkpt lat="40.2019040" lon="-3.7294330">
        <ele>650.0</ele>
        <time>2019-04-28T15:41:17Z</time>
      </trkpt>
      <trkpt lat="40.2019540" lon="-3.7294240">
        <ele>650.0</ele>
        <time>2019-04-28T15:41:18Z</time>
      </trkpt>
      <trkpt lat="40.2020040" lon="-3.7294170">
        <ele>649.8</ele>
        <time>2019-04-28T15:41:19Z</time>
      </trkpt>
      <trkpt lat="40.2020560" lon="-3.7294090">
        <ele>649.6</ele>
        <time>2019-04-28T15:41:20Z</time>
      </trkpt>
      <trkpt lat="40.2021090" lon="-3.7294010">
        <ele>649.6</ele>
        <time>2019-04-28T15:41:21Z</time>
      </trkpt>
      <trkpt lat="40.2021650" lon="-3.7293930">
        <ele>649.4</ele>
        <time>2019-04-28T15:41:22Z</time>
      </trkpt>
      <trkpt lat="40.2022220" lon="-3.7293840">
        <ele>649.4</ele>
        <time>2019-04-28T15:41:23Z</time>
      </trkpt>
      <trkpt lat="40.2022790" lon="-3.7293710">
        <ele>649.4</ele>
        <time>2019-04-28T15:41:24Z</time>
      </trkpt>
      <trkpt lat="40.2023350" lon="-3.7293600">
        <ele>649.2</ele>
        <time>2019-04-28T15:41:25Z</time>
      </trkpt>
      <trkpt lat="40.2023930" lon="-3.7293500">
        <ele>649.0</ele>
        <time>2019-04-28T15:41:26Z</time>
      </trkpt>
      <trkpt lat="40.2024500" lon="-3.7293380">
        <ele>649.0</ele>
        <time>2019-04-28T15:41:27Z</time>
      </trkpt>
      <trkpt lat="40.2025060" lon="-3.7293280">
        <ele>648.8</ele>
        <time>2019-04-28T15:41:28Z</time>
      </trkpt>
      <trkpt lat="40.2025620" lon="-3.7293200">
        <ele>648.8</ele>
        <time>2019-04-28T15:41:29Z</time>
      </trkpt>
      <trkpt lat="40.2026180" lon="-3.7293110">
        <ele>648.8</ele>
        <time>2019-04-28T15:41:30Z</time>
      </trkpt>
      <trkpt lat="40.2026730" lon="-3.7293010">
        <ele>648.6</ele>
        <time>2019-04-28T15:41:31Z</time>
      </trkpt>
      <trkpt lat="40.2027280" lon="-3.7292910">
        <ele>648.8</ele>
        <time>2019-04-28T15:41:32Z</time>
      </trkpt>
      <trkpt lat="40.2027830" lon="-3.7292820">
        <ele>648.6</ele>
        <time>2019-04-28T15:41:33Z</time>
      </trkpt>
      <trkpt lat="40.2028380" lon="-3.7292690">
        <ele>648.6</ele>
        <time>2019-04-28T15:41:34Z</time>
      </trkpt>
      <trkpt lat="40.2028900" lon="-3.7292480">
        <ele>648.6</ele>
        <time>2019-04-28T15:41:35Z</time>
      </trkpt>
      <trkpt lat="40.2029420" lon="-3.7292300">
        <ele>648.8</ele>
        <time>2019-04-28T15:41:36Z</time>
      </trkpt>
      <trkpt lat="40.2029940" lon="-3.7292170">
        <ele>648.6</ele>
        <time>2019-04-28T15:41:37Z</time>
      </trkpt>
      <trkpt lat="40.2030430" lon="-3.7292040">
        <ele>648.8</ele>
        <time>2019-04-28T15:41:38Z</time>
      </trkpt>
      <trkpt lat="40.2030890" lon="-3.7291900">
        <ele>648.8</ele>
        <time>2019-04-28T15:41:39Z</time>
      </trkpt>
      <trkpt lat="40.2031340" lon="-3.7291780">
        <ele>648.8</ele>
        <time>2019-04-28T15:41:40Z</time>
      </trkpt>
      <trkpt lat="40.2031780" lon="-3.7291650">
        <ele>649.0</ele>
        <time>2019-04-28T15:41:41Z</time>
      </trkpt>
      <trkpt lat="40.2032240" lon="-3.7291510">
        <ele>649.0</ele>
        <time>2019-04-28T15:41:42Z</time>
      </trkpt>
      <trkpt lat="40.2032700" lon="-3.7291370">
        <ele>649.2</ele>
        <time>2019-04-28T15:41:43Z</time>
      </trkpt>
      <trkpt lat="40.2033170" lon="-3.7291250">
        <ele>649.2</ele>
        <time>2019-04-28T15:41:44Z</time>
      </trkpt>
      <trkpt lat="40.2033610" lon="-3.7291140">
        <ele>649.2</ele>
        <time>2019-04-28T15:41:45Z</time>
      </trkpt>
      <trkpt lat="40.2034070" lon="-3.7291000">
        <ele>649.4</ele>
        <time>2019-04-28T15:41:46Z</time>
      </trkpt>
      <trkpt lat="40.2034520" lon="-3.7290840">
        <ele>649.4</ele>
        <time>2019-04-28T15:41:47Z</time>
      </trkpt>
      <trkpt lat="40.2034960" lon="-3.7290660">
        <ele>649.6</ele>
        <time>2019-04-28T15:41:48Z</time>
      </trkpt>
      <trkpt lat="40.2035400" lon="-3.7290490">
        <ele>649.6</ele>
        <time>2019-04-28T15:41:49Z</time>
      </trkpt>
      <trkpt lat="40.2035830" lon="-3.7290330">
        <ele>649.8</ele>
        <time>2019-04-28T15:41:50Z</time>
      </trkpt>
      <trkpt lat="40.2036270" lon="-3.7290150">
        <ele>649.8</ele>
        <time>2019-04-28T15:41:51Z</time>
      </trkpt>
      <trkpt lat="40.2036720" lon="-3.7289980">
        <ele>649.8</ele>
        <time>2019-04-28T15:41:52Z</time>
      </trkpt>
      <trkpt lat="40.2037160" lon="-3.7289840">
        <ele>650.0</ele>
        <time>2019-04-28T15:41:53Z</time>
      </trkpt>
      <trkpt lat="40.2037600" lon="-3.7289670">
        <ele>650.2</ele>
        <time>2019-04-28T15:41:54Z</time>
      </trkpt>
      <trkpt lat="40.2038020" lon="-3.7289490">
        <ele>650.2</ele>
        <time>2019-04-28T15:41:55Z</time>
      </trkpt>
      <trkpt lat="40.2038450" lon="-3.7289280">
        <ele>650.4</ele>
        <time>2019-04-28T15:41:56Z</time>
      </trkpt>
      <trkpt lat="40.2038880" lon="-3.7289120">
        <ele>650.6</ele>
        <time>2019-04-28T15:41:57Z</time>
      </trkpt>
      <trkpt lat="40.2039310" lon="-3.7288950">
        <ele>650.6</ele>
        <time>2019-04-28T15:41:58Z</time>
      </trkpt>
      <trkpt lat="40.2039730" lon="-3.7288780">
        <ele>650.8</ele>
        <time>2019-04-28T15:41:59Z</time>
      </trkpt>
      <trkpt lat="40.2040210" lon="-3.7288590">
        <ele>650.8</ele>
        <time>2019-04-28T15:42:00Z</time>
      </trkpt>
      <trkpt lat="40.2040660" lon="-3.7288420">
        <ele>650.8</ele>
        <time>2019-04-28T15:42:01Z</time>
      </trkpt>
      <trkpt lat="40.2041080" lon="-3.7288260">
        <ele>651.0</ele>
        <time>2019-04-28T15:42:02Z</time>
      </trkpt>
      <trkpt lat="40.2041500" lon="-3.7288100">
        <ele>651.0</ele>
        <time>2019-04-28T15:42:03Z</time>
      </trkpt>
      <trkpt lat="40.2041940" lon="-3.7287920">
        <ele>651.0</ele>
        <time>2019-04-28T15:42:04Z</time>
      </trkpt>
      <trkpt lat="40.2042380" lon="-3.7287720">
        <ele>651.0</ele>
        <time>2019-04-28T15:42:05Z</time>
      </trkpt>
      <trkpt lat="40.2042820" lon="-3.7287530">
        <ele>651.0</ele>
        <time>2019-04-28T15:42:06Z</time>
      </trkpt>
      <trkpt lat="40.2043270" lon="-3.7287360">
        <ele>651.0</ele>
        <time>2019-04-28T15:42:07Z</time>
      </trkpt>
      <trkpt lat="40.2043730" lon="-3.7287170">
        <ele>651.0</ele>
        <time>2019-04-28T15:42:08Z</time>
      </trkpt>
      <trkpt lat="40.2044180" lon="-3.7286960">
        <ele>651.0</ele>
        <time>2019-04-28T15:42:09Z</time>
      </trkpt>
      <trkpt lat="40.2044640" lon="-3.7286750">
        <ele>651.0</ele>
        <time>2019-04-28T15:42:10Z</time>
      </trkpt>
      <trkpt lat="40.2045110" lon="-3.7286510">
        <ele>651.0</ele>
        <time>2019-04-28T15:42:11Z</time>
      </trkpt>
      <trkpt lat="40.2045540" lon="-3.7286300">
        <ele>650.8</ele>
        <time>2019-04-28T15:42:12Z</time>
      </trkpt>
      <trkpt lat="40.2046000" lon="-3.7286100">
        <ele>650.8</ele>
        <time>2019-04-28T15:42:13Z</time>
      </trkpt>
      <trkpt lat="40.2046460" lon="-3.7285860">
        <ele>651.2</ele>
        <time>2019-04-28T15:42:14Z</time>
      </trkpt>
      <trkpt lat="40.2046910" lon="-3.7285660">
        <ele>651.2</ele>
        <time>2019-04-28T15:42:15Z</time>
      </trkpt>
      <trkpt lat="40.2047370" lon="-3.7285470">
        <ele>651.2</ele>
        <time>2019-04-28T15:42:16Z</time>
      </trkpt>
      <trkpt lat="40.2047810" lon="-3.7285280">
        <ele>651.0</ele>
        <time>2019-04-28T15:42:17Z</time>
      </trkpt>
      <trkpt lat="40.2048250" lon="-3.7285080">
        <ele>651.0</ele>
        <time>2019-04-28T15:42:18Z</time>
      </trkpt>
      <trkpt lat="40.2048680" lon="-3.7284830">
        <ele>651.0</ele>
        <time>2019-04-28T15:42:19Z</time>
      </trkpt>
      <trkpt lat="40.2049150" lon="-3.7284590">
        <ele>651.0</ele>
        <time>2019-04-28T15:42:20Z</time>
      </trkpt>
      <trkpt lat="40.2049610" lon="-3.7284420">
        <ele>651.0</ele>
        <time>2019-04-28T15:42:21Z</time>
      </trkpt>
      <trkpt lat="40.2050070" lon="-3.7284240">
        <ele>651.0</ele>
        <time>2019-04-28T15:42:22Z</time>
      </trkpt>
      <trkpt lat="40.2050520" lon="-3.7284060">
        <ele>651.0</ele>
        <time>2019-04-28T15:42:23Z</time>
      </trkpt>
      <trkpt lat="40.2050970" lon="-3.7283880">
        <ele>651.2</ele>
        <time>2019-04-28T15:42:24Z</time>
      </trkpt>
      <trkpt lat="40.2051410" lon="-3.7283690">
        <ele>651.2</ele>
        <time>2019-04-28T15:42:25Z</time>
      </trkpt>
      <trkpt lat="40.2051860" lon="-3.7283510">
        <ele>651.2</ele>
        <time>2019-04-28T15:42:26Z</time>
      </trkpt>
      <trkpt lat="40.2052320" lon="-3.7283310">
        <ele>651.2</ele>
        <time>2019-04-28T15:42:27Z</time>
      </trkpt>
      <trkpt lat="40.2052790" lon="-3.7283100">
        <ele>651.2</ele>
        <time>2019-04-28T15:42:28Z</time>
      </trkpt>
      <trkpt lat="40.2053250" lon="-3.7282900">
        <ele>651.2</ele>
        <time>2019-04-28T15:42:29Z</time>
      </trkpt>
      <trkpt lat="40.2053740" lon="-3.7282710">
        <ele>651.2</ele>
        <time>2019-04-28T15:42:30Z</time>
      </trkpt>
      <trkpt lat="40.2054210" lon="-3.7282500">
        <ele>651.2</ele>
        <time>2019-04-28T15:42:31Z</time>
      </trkpt>
      <trkpt lat="40.2054690" lon="-3.7282280">
        <ele>651.2</ele>
        <time>2019-04-28T15:42:32Z</time>
      </trkpt>
      <trkpt lat="40.2055170" lon="-3.7282080">
        <ele>651.2</ele>
        <time>2019-04-28T15:42:33Z</time>
      </trkpt>
      <trkpt lat="40.2055620" lon="-3.7281880">
        <ele>651.2</ele>
        <time>2019-04-28T15:42:34Z</time>
      </trkpt>
      <trkpt lat="40.2056090" lon="-3.7281680">
        <ele>651.4</ele>
        <time>2019-04-28T15:42:35Z</time>
      </trkpt>
      <trkpt lat="40.2056580" lon="-3.7281470">
        <ele>651.4</ele>
        <time>2019-04-28T15:42:36Z</time>
      </trkpt>
      <trkpt lat="40.2057050" lon="-3.7281260">
        <ele>651.4</ele>
        <time>2019-04-28T15:42:37Z</time>
      </trkpt>
      <trkpt lat="40.2057530" lon="-3.7281030">
        <ele>651.4</ele>
        <time>2019-04-28T15:42:38Z</time>
      </trkpt>
      <trkpt lat="40.2058010" lon="-3.7280790">
        <ele>651.4</ele>
        <time>2019-04-28T15:42:39Z</time>
      </trkpt>
      <trkpt lat="40.2058500" lon="-3.7280550">
        <ele>651.4</ele>
        <time>2019-04-28T15:42:40Z</time>
      </trkpt>
      <trkpt lat="40.2059030" lon="-3.7280290">
        <ele>651.2</ele>
        <time>2019-04-28T15:42:41Z</time>
      </trkpt>
      <trkpt lat="40.2059540" lon="-3.7280050">
        <ele>651.4</ele>
        <time>2019-04-28T15:42:42Z</time>
      </trkpt>
      <trkpt lat="40.2060020" lon="-3.7279800">
        <ele>651.4</ele>
        <time>2019-04-28T15:42:43Z</time>
      </trkpt>
      <trkpt lat="40.2060520" lon="-3.7279560">
        <ele>651.4</ele>
        <time>2019-04-28T15:42:44Z</time>
      </trkpt>
      <trkpt lat="40.2061030" lon="-3.7279300">
        <ele>651.4</ele>
        <time>2019-04-28T15:42:45Z</time>
      </trkpt>
      <trkpt lat="40.2061540" lon="-3.7279050">
        <ele>651.2</ele>
        <time>2019-04-28T15:42:46Z</time>
      </trkpt>
      <trkpt lat="40.2062050" lon="-3.7278790">
        <ele>651.2</ele>
        <time>2019-04-28T15:42:47Z</time>
      </trkpt>
      <trkpt lat="40.2062560" lon="-3.7278510">
        <ele>651.2</ele>
        <time>2019-04-28T15:42:48Z</time>
      </trkpt>
      <trkpt lat="40.2063050" lon="-3.7278240">
        <ele>651.2</ele>
        <time>2019-04-28T15:42:49Z</time>
      </trkpt>
      <trkpt lat="40.2063540" lon="-3.7277960">
        <ele>651.2</ele>
        <time>2019-04-28T15:42:50Z</time>
      </trkpt>
      <trkpt lat="40.2064040" lon="-3.7277700">
        <ele>651.2</ele>
        <time>2019-04-28T15:42:51Z</time>
      </trkpt>
      <trkpt lat="40.2064540" lon="-3.7277430">
        <ele>651.2</ele>
        <time>2019-04-28T15:42:52Z</time>
      </trkpt>
      <trkpt lat="40.2065030" lon="-3.7277140">
        <ele>651.2</ele>
        <time>2019-04-28T15:42:53Z</time>
      </trkpt>
      <trkpt lat="40.2065520" lon="-3.7276830">
        <ele>651.2</ele>
        <time>2019-04-28T15:42:54Z</time>
      </trkpt>
      <trkpt lat="40.2066020" lon="-3.7276500">
        <ele>651.0</ele>
        <time>2019-04-28T15:42:55Z</time>
      </trkpt>
      <trkpt lat="40.2066510" lon="-3.7276160">
        <ele>651.0</ele>
        <time>2019-04-28T15:42:56Z</time>
      </trkpt>
      <trkpt lat="40.2066990" lon="-3.7275850">
        <ele>651.0</ele>
        <time>2019-04-28T15:42:57Z</time>
      </trkpt>
      <trkpt lat="40.2067500" lon="-3.7275520">
        <ele>651.0</ele>
        <time>2019-04-28T15:42:58Z</time>
      </trkpt>
      <trkpt lat="40.2067990" lon="-3.7275200">
        <ele>651.0</ele>
        <time>2019-04-28T15:42:59Z</time>
      </trkpt>
      <trkpt lat="40.2068450" lon="-3.7274880">
        <ele>651.0</ele>
        <time>2019-04-28T15:43:00Z</time>
      </trkpt>
      <trkpt lat="40.2068920" lon="-3.7274530">
        <ele>650.8</ele>
        <time>2019-04-28T15:43:01Z</time>
      </trkpt>
      <trkpt lat="40.2069380" lon="-3.7274190">
        <ele>650.6</ele>
        <time>2019-04-28T15:43:02Z</time>
      </trkpt>
      <trkpt lat="40.2069840" lon="-3.7273860">
        <ele>650.8</ele>
        <time>2019-04-28T15:43:03Z</time>
      </trkpt>
      <trkpt lat="40.2070310" lon="-3.7273510">
        <ele>650.6</ele>
        <time>2019-04-28T15:43:04Z</time>
      </trkpt>
      <trkpt lat="40.2070790" lon="-3.7273170">
        <ele>650.8</ele>
        <time>2019-04-28T15:43:05Z</time>
      </trkpt>
      <trkpt lat="40.2071270" lon="-3.7272840">
        <ele>650.8</ele>
        <time>2019-04-28T15:43:06Z</time>
      </trkpt>
      <trkpt lat="40.2071730" lon="-3.7272500">
        <ele>650.6</ele>
        <time>2019-04-28T15:43:07Z</time>
      </trkpt>
      <trkpt lat="40.2072190" lon="-3.7272110">
        <ele>650.8</ele>
        <time>2019-04-28T15:43:08Z</time>
      </trkpt>
      <trkpt lat="40.2072630" lon="-3.7271680">
        <ele>651.0</ele>
        <time>2019-04-28T15:43:09Z</time>
      </trkpt>
      <trkpt lat="40.2073090" lon="-3.7271250">
        <ele>651.0</ele>
        <time>2019-04-28T15:43:10Z</time>
      </trkpt>
      <trkpt lat="40.2073550" lon="-3.7270820">
        <ele>651.0</ele>
        <time>2019-04-28T15:43:11Z</time>
      </trkpt>
      <trkpt lat="40.2073950" lon="-3.7270440">
        <ele>650.8</ele>
        <time>2019-04-28T15:43:12Z</time>
      </trkpt>
      <trkpt lat="40.2074360" lon="-3.7270060">
        <ele>650.8</ele>
        <time>2019-04-28T15:43:13Z</time>
      </trkpt>
      <trkpt lat="40.2074810" lon="-3.7269720">
        <ele>651.0</ele>
        <time>2019-04-28T15:43:14Z</time>
      </trkpt>
      <trkpt lat="40.2075270" lon="-3.7269390">
        <ele>651.2</ele>
        <time>2019-04-28T15:43:15Z</time>
      </trkpt>
      <trkpt lat="40.2075720" lon="-3.7269030">
        <ele>651.0</ele>
        <time>2019-04-28T15:43:16Z</time>
      </trkpt>
      <trkpt lat="40.2076170" lon="-3.7268650">
        <ele>650.8</ele>
        <time>2019-04-28T15:43:17Z</time>
      </trkpt>
      <trkpt lat="40.2076630" lon="-3.7268290">
        <ele>651.0</ele>
        <time>2019-04-28T15:43:18Z</time>
      </trkpt>
      <trkpt lat="40.2077100" lon="-3.7267940">
        <ele>651.0</ele>
        <time>2019-04-28T15:43:19Z</time>
      </trkpt>
      <trkpt lat="40.2077560" lon="-3.7267580">
        <ele>650.8</ele>
        <time>2019-04-28T15:43:20Z</time>
      </trkpt>
      <trkpt lat="40.2078030" lon="-3.7267240">
        <ele>650.8</ele>
        <time>2019-04-28T15:43:21Z</time>
      </trkpt>
      <trkpt lat="40.2078510" lon="-3.7266880">
        <ele>650.8</ele>
        <time>2019-04-28T15:43:22Z</time>
      </trkpt>
      <trkpt lat="40.2078960" lon="-3.7266540">
        <ele>650.8</ele>
        <time>2019-04-28T15:43:23Z</time>
      </trkpt>
      <trkpt lat="40.2079430" lon="-3.7266190">
        <ele>650.8</ele>
        <time>2019-04-28T15:43:24Z</time>
      </trkpt>
      <trkpt lat="40.2079930" lon="-3.7265840">
        <ele>651.0</ele>
        <time>2019-04-28T15:43:25Z</time>
      </trkpt>
      <trkpt lat="40.2080440" lon="-3.7265490">
        <ele>650.8</ele>
        <time>2019-04-28T15:43:26Z</time>
      </trkpt>
      <trkpt lat="40.2080940" lon="-3.7265140">
        <ele>650.8</ele>
        <time>2019-04-28T15:43:27Z</time>
      </trkpt>
      <trkpt lat="40.2081470" lon="-3.7264790">
        <ele>650.6</ele>
        <time>2019-04-28T15:43:28Z</time>
      </trkpt>
      <trkpt lat="40.2082010" lon="-3.7264430">
        <ele>650.6</ele>
        <time>2019-04-28T15:43:29Z</time>
      </trkpt>
      <trkpt lat="40.2082560" lon="-3.7264080">
        <ele>650.4</ele>
        <time>2019-04-28T15:43:30Z</time>
      </trkpt>
      <trkpt lat="40.2083090" lon="-3.7263710">
        <ele>650.4</ele>
        <time>2019-04-28T15:43:31Z</time>
      </trkpt>
      <trkpt lat="40.2083630" lon="-3.7263370">
        <ele>650.2</ele>
        <time>2019-04-28T15:43:32Z</time>
      </trkpt>
      <trkpt lat="40.2084160" lon="-3.7263030">
        <ele>650.2</ele>
        <time>2019-04-28T15:43:33Z</time>
      </trkpt>
      <trkpt lat="40.2084700" lon="-3.7262720">
        <ele>650.0</ele>
        <time>2019-04-28T15:43:34Z</time>
      </trkpt>
      <trkpt lat="40.2085260" lon="-3.7262420">
        <ele>650.0</ele>
        <time>2019-04-28T15:43:35Z</time>
      </trkpt>
      <trkpt lat="40.2085770" lon="-3.7262130">
        <ele>649.8</ele>
        <time>2019-04-28T15:43:36Z</time>
      </trkpt>
      <trkpt lat="40.2086260" lon="-3.7261860">
        <ele>649.6</ele>
        <time>2019-04-28T15:43:37Z</time>
      </trkpt>
      <trkpt lat="40.2086740" lon="-3.7261590">
        <ele>649.6</ele>
        <time>2019-04-28T15:43:38Z</time>
      </trkpt>
      <trkpt lat="40.2087210" lon="-3.7261310">
        <ele>649.6</ele>
        <time>2019-04-28T15:43:39Z</time>
      </trkpt>
      <trkpt lat="40.2087650" lon="-3.7260960">
        <ele>649.8</ele>
        <time>2019-04-28T15:43:40Z</time>
      </trkpt>
      <trkpt lat="40.2088050" lon="-3.7260540">
        <ele>649.8</ele>
        <time>2019-04-28T15:43:41Z</time>
      </trkpt>
      <trkpt lat="40.2088520" lon="-3.7260140">
        <ele>650.0</ele>
        <time>2019-04-28T15:43:42Z</time>
      </trkpt>
      <trkpt lat="40.2089010" lon="-3.7259730">
        <ele>650.0</ele>
        <time>2019-04-28T15:43:43Z</time>
      </trkpt>
      <trkpt lat="40.2089520" lon="-3.7259370">
        <ele>650.0</ele>
        <time>2019-04-28T15:43:44Z</time>
      </trkpt>
      <trkpt lat="40.2089970" lon="-3.7259040">
        <ele>650.0</ele>
        <time>2019-04-28T15:43:45Z</time>
      </trkpt>
      <trkpt lat="40.2090460" lon="-3.7258750">
        <ele>650.0</ele>
        <time>2019-04-28T15:43:46Z</time>
      </trkpt>
      <trkpt lat="40.2091020" lon="-3.7258470">
        <ele>650.0</ele>
        <time>2019-04-28T15:43:47Z</time>
      </trkpt>
      <trkpt lat="40.2091570" lon="-3.7258230">
        <ele>649.8</ele>
        <time>2019-04-28T15:43:48Z</time>
      </trkpt>
      <trkpt lat="40.2092100" lon="-3.7258000">
        <ele>649.8</ele>
        <time>2019-04-28T15:43:49Z</time>
      </trkpt>
      <trkpt lat="40.2092620" lon="-3.7257820">
        <ele>649.6</ele>
        <time>2019-04-28T15:43:50Z</time>
      </trkpt>
      <trkpt lat="40.2093130" lon="-3.7257640">
        <ele>649.6</ele>
        <time>2019-04-28T15:43:51Z</time>
      </trkpt>
      <trkpt lat="40.2093630" lon="-3.7257460">
        <ele>649.4</ele>
        <time>2019-04-28T15:43:52Z</time>
      </trkpt>
      <trkpt lat="40.2094130" lon="-3.7257260">
        <ele>649.4</ele>
        <time>2019-04-28T15:43:53Z</time>
      </trkpt>
      <trkpt lat="40.2094620" lon="-3.7256970">
        <ele>649.2</ele>
        <time>2019-04-28T15:43:54Z</time>
      </trkpt>
      <trkpt lat="40.2095090" lon="-3.7256620">
        <ele>649.6</ele>
        <time>2019-04-28T15:43:55Z</time>
      </trkpt>
      <trkpt lat="40.2095570" lon="-3.7256320">
        <ele>649.6</ele>
        <time>2019-04-28T15:43:56Z</time>
      </trkpt>
      <trkpt lat="40.2096060" lon="-3.7256010">
        <ele>649.6</ele>
        <time>2019-04-28T15:43:57Z</time>
      </trkpt>
      <trkpt lat="40.2096550" lon="-3.7255710">
        <ele>649.8</ele>
        <time>2019-04-28T15:43:58Z</time>
      </trkpt>
      <trkpt lat="40.2097060" lon="-3.7255440">
        <ele>649.8</ele>
        <time>2019-04-28T15:43:59Z</time>
      </trkpt>
      <trkpt lat="40.2097590" lon="-3.7255210">
        <ele>649.8</ele>
        <time>2019-04-28T15:44:00Z</time>
      </trkpt>
      <trkpt lat="40.2098110" lon="-3.7254990">
        <ele>649.8</ele>
        <time>2019-04-28T15:44:01Z</time>
      </trkpt>
      <trkpt lat="40.2098630" lon="-3.7254750">
        <ele>649.8</ele>
        <time>2019-04-28T15:44:02Z</time>
      </trkpt>
      <trkpt lat="40.2099130" lon="-3.7254500">
        <ele>649.6</ele>
        <time>2019-04-28T15:44:03Z</time>
      </trkpt>
      <trkpt lat="40.2099660" lon="-3.7254300">
        <ele>649.6</ele>
        <time>2019-04-28T15:44:04Z</time>
      </trkpt>
      <trkpt lat="40.2100180" lon="-3.7254120">
        <ele>649.6</ele>
        <time>2019-04-28T15:44:05Z</time>
      </trkpt>
      <trkpt lat="40.2100710" lon="-3.7253890">
        <ele>649.8</ele>
        <time>2019-04-28T15:44:06Z</time>
      </trkpt>
      <trkpt lat="40.2101220" lon="-3.7253640">
        <ele>649.8</ele>
        <time>2019-04-28T15:44:07Z</time>
      </trkpt>
      <trkpt lat="40.2101740" lon="-3.7253390">
        <ele>649.8</ele>
        <time>2019-04-28T15:44:08Z</time>
      </trkpt>
      <trkpt lat="40.2102260" lon="-3.7253160">
        <ele>649.8</ele>
        <time>2019-04-28T15:44:09Z</time>
      </trkpt>
      <trkpt lat="40.2102790" lon="-3.7252920">
        <ele>649.8</ele>
        <time>2019-04-28T15:44:10Z</time>
      </trkpt>
      <trkpt lat="40.2103300" lon="-3.7252680">
        <ele>649.6</ele>
        <time>2019-04-28T15:44:11Z</time>
      </trkpt>
      <trkpt lat="40.2103820" lon="-3.7252440">
        <ele>649.8</ele>
        <time>2019-04-28T15:44:12Z</time>
      </trkpt>
      <trkpt lat="40.2104340" lon="-3.7252220">
        <ele>650.0</ele>
        <time>2019-04-28T15:44:13Z</time>
      </trkpt>
      <trkpt lat="40.2104840" lon="-3.7251990">
        <ele>649.8</ele>
        <time>2019-04-28T15:44:14Z</time>
      </trkpt>
      <trkpt lat="40.2105330" lon="-3.7251750">
        <ele>649.8</ele>
        <time>2019-04-28T15:44:15Z</time>
      </trkpt>
      <trkpt lat="40.2105810" lon="-3.7251510">
        <ele>649.8</ele>
        <time>2019-04-28T15:44:16Z</time>
      </trkpt>
      <trkpt lat="40.2106270" lon="-3.7251290">
        <ele>650.0</ele>
        <time>2019-04-28T15:44:17Z</time>
      </trkpt>
      <trkpt lat="40.2106740" lon="-3.7251060">
        <ele>650.0</ele>
        <time>2019-04-28T15:44:18Z</time>
      </trkpt>
      <trkpt lat="40.2107220" lon="-3.7250810">
        <ele>650.0</ele>
        <time>2019-04-28T15:44:19Z</time>
      </trkpt>
      <trkpt lat="40.2107710" lon="-3.7250560">
        <ele>650.0</ele>
        <time>2019-04-28T15:44:20Z</time>
      </trkpt>
      <trkpt lat="40.2108200" lon="-3.7250330">
        <ele>650.2</ele>
        <time>2019-04-28T15:44:21Z</time>
      </trkpt>
      <trkpt lat="40.2108680" lon="-3.7250080">
        <ele>650.2</ele>
        <time>2019-04-28T15:44:22Z</time>
      </trkpt>
      <trkpt lat="40.2109180" lon="-3.7249830">
        <ele>650.2</ele>
        <time>2019-04-28T15:44:23Z</time>
      </trkpt>
      <trkpt lat="40.2109670" lon="-3.7249590">
        <ele>650.4</ele>
        <time>2019-04-28T15:44:24Z</time>
      </trkpt>
      <trkpt lat="40.2110170" lon="-3.7249350">
        <ele>650.4</ele>
        <time>2019-04-28T15:44:25Z</time>
      </trkpt>
      <trkpt lat="40.2110640" lon="-3.7249090">
        <ele>650.6</ele>
        <time>2019-04-28T15:44:26Z</time>
      </trkpt>
      <trkpt lat="40.2111130" lon="-3.7248810">
        <ele>650.6</ele>
        <time>2019-04-28T15:44:27Z</time>
      </trkpt>
      <trkpt lat="40.2111620" lon="-3.7248520">
        <ele>650.6</ele>
        <time>2019-04-28T15:44:28Z</time>
      </trkpt>
      <trkpt lat="40.2112110" lon="-3.7248230">
        <ele>650.6</ele>
        <time>2019-04-28T15:44:29Z</time>
      </trkpt>
      <trkpt lat="40.2112590" lon="-3.7247930">
        <ele>650.8</ele>
        <time>2019-04-28T15:44:30Z</time>
      </trkpt>
      <trkpt lat="40.2113070" lon="-3.7247640">
        <ele>650.8</ele>
        <time>2019-04-28T15:44:31Z</time>
      </trkpt>
      <trkpt lat="40.2113560" lon="-3.7247350">
        <ele>650.8</ele>
        <time>2019-04-28T15:44:32Z</time>
      </trkpt>
      <trkpt lat="40.2114030" lon="-3.7247050">
        <ele>650.8</ele>
        <time>2019-04-28T15:44:33Z</time>
      </trkpt>
      <trkpt lat="40.2114520" lon="-3.7246730">
        <ele>650.8</ele>
        <time>2019-04-28T15:44:34Z</time>
      </trkpt>
      <trkpt lat="40.2115000" lon="-3.7246410">
        <ele>650.8</ele>
        <time>2019-04-28T15:44:35Z</time>
      </trkpt>
      <trkpt lat="40.2115470" lon="-3.7246100">
        <ele>651.0</ele>
        <time>2019-04-28T15:44:36Z</time>
      </trkpt>
      <trkpt lat="40.2115930" lon="-3.7245780">
        <ele>651.0</ele>
        <time>2019-04-28T15:44:37Z</time>
      </trkpt>
      <trkpt lat="40.2116390" lon="-3.7245460">
        <ele>651.2</ele>
        <time>2019-04-28T15:44:38Z</time>
      </trkpt>
      <trkpt lat="40.2116820" lon="-3.7245130">
        <ele>651.2</ele>
        <time>2019-04-28T15:44:39Z</time>
      </trkpt>
      <trkpt lat="40.2117250" lon="-3.7244800">
        <ele>651.2</ele>
        <time>2019-04-28T15:44:40Z</time>
      </trkpt>
      <trkpt lat="40.2117680" lon="-3.7244450">
        <ele>651.2</ele>
        <time>2019-04-28T15:44:41Z</time>
      </trkpt>
      <trkpt lat="40.2118090" lon="-3.7244080">
        <ele>651.4</ele>
        <time>2019-04-28T15:44:42Z</time>
      </trkpt>
      <trkpt lat="40.2118500" lon="-3.7243680">
        <ele>651.4</ele>
        <time>2019-04-28T15:44:43Z</time>
      </trkpt>
      <trkpt lat="40.2118810" lon="-3.7243280">
        <ele>651.6</ele>
        <time>2019-04-28T15:44:44Z</time>
      </trkpt>
      <trkpt lat="40.2119150" lon="-3.7242810">
        <ele>651.6</ele>
        <time>2019-04-28T15:44:45Z</time>
      </trkpt>
      <trkpt lat="40.2119520" lon="-3.7242320">
        <ele>651.6</ele>
        <time>2019-04-28T15:44:46Z</time>
      </trkpt>
      <trkpt lat="40.2119890" lon="-3.7241830">
        <ele>651.8</ele>
        <time>2019-04-28T15:44:47Z</time>
      </trkpt>
      <trkpt lat="40.2120260" lon="-3.7241330">
        <ele>651.8</ele>
        <time>2019-04-28T15:44:48Z</time>
      </trkpt>
      <trkpt lat="40.2120610" lon="-3.7240800">
        <ele>651.8</ele>
        <time>2019-04-28T15:44:49Z</time>
      </trkpt>
      <trkpt lat="40.2120950" lon="-3.7240230">
        <ele>651.8</ele>
        <time>2019-04-28T15:44:50Z</time>
      </trkpt>
      <trkpt lat="40.2121320" lon="-3.7239640">
        <ele>651.6</ele>
        <time>2019-04-28T15:44:51Z</time>
      </trkpt>
      <trkpt lat="40.2121680" lon="-3.7239050">
        <ele>651.6</ele>
        <time>2019-04-28T15:44:52Z</time>
      </trkpt>
      <trkpt lat="40.2122040" lon="-3.7238470">
        <ele>651.4</ele>
        <time>2019-04-28T15:44:53Z</time>
      </trkpt>
      <trkpt lat="40.2122770" lon="-3.7237320">
        <ele>651.4</ele>
        <time>2019-04-28T15:44:54Z</time>
      </trkpt>
      <trkpt lat="40.2122950" lon="-3.7237040">
        <ele>651.2</ele>
        <time>2019-04-28T15:44:55Z</time>
      </trkpt>
      <trkpt lat="40.2123130" lon="-3.7236750">
        <ele>651.4</ele>
        <time>2019-04-28T15:44:56Z</time>
      </trkpt>
      <trkpt lat="40.2123490" lon="-3.7236190">
        <ele>651.2</ele>
        <time>2019-04-28T15:44:57Z</time>
      </trkpt>
      <trkpt lat="40.2123840" lon="-3.7235630">
        <ele>651.2</ele>
        <time>2019-04-28T15:44:58Z</time>
      </trkpt>
      <trkpt lat="40.2124210" lon="-3.7235060">
        <ele>651.2</ele>
        <time>2019-04-28T15:44:59Z</time>
      </trkpt>
      <trkpt lat="40.2124580" lon="-3.7234510">
        <ele>651.4</ele>
        <time>2019-04-28T15:45:00Z</time>
      </trkpt>
      <trkpt lat="40.2124950" lon="-3.7233940">
        <ele>651.2</ele>
        <time>2019-04-28T15:45:01Z</time>
      </trkpt>
      <trkpt lat="40.2125330" lon="-3.7233400">
        <ele>651.2</ele>
        <time>2019-04-28T15:45:02Z</time>
      </trkpt>
      <trkpt lat="40.2125710" lon="-3.7232850">
        <ele>651.2</ele>
        <time>2019-04-28T15:45:03Z</time>
      </trkpt>
      <trkpt lat="40.2126090" lon="-3.7232310">
        <ele>651.2</ele>
        <time>2019-04-28T15:45:04Z</time>
      </trkpt>
      <trkpt lat="40.2126470" lon="-3.7231770">
        <ele>651.2</ele>
        <time>2019-04-28T15:45:05Z</time>
      </trkpt>
      <trkpt lat="40.2126870" lon="-3.7231230">
        <ele>651.2</ele>
        <time>2019-04-28T15:45:06Z</time>
      </trkpt>
      <trkpt lat="40.2127280" lon="-3.7230670">
        <ele>651.2</ele>
        <time>2019-04-28T15:45:07Z</time>
      </trkpt>
      <trkpt lat="40.2127680" lon="-3.7230130">
        <ele>651.2</ele>
        <time>2019-04-28T15:45:08Z</time>
      </trkpt>
      <trkpt lat="40.2128100" lon="-3.7229590">
        <ele>651.0</ele>
        <time>2019-04-28T15:45:09Z</time>
      </trkpt>
      <trkpt lat="40.2128500" lon="-3.7229050">
        <ele>650.8</ele>
        <time>2019-04-28T15:45:10Z</time>
      </trkpt>
      <trkpt lat="40.2128900" lon="-3.7228560">
        <ele>650.6</ele>
        <time>2019-04-28T15:45:11Z</time>
      </trkpt>
      <trkpt lat="40.2129300" lon="-3.7228120">
        <ele>650.6</ele>
        <time>2019-04-28T15:45:12Z</time>
      </trkpt>
      <trkpt lat="40.2129720" lon="-3.7227700">
        <ele>650.6</ele>
        <time>2019-04-28T15:45:13Z</time>
      </trkpt>
      <trkpt lat="40.2130140" lon="-3.7227220">
        <ele>650.6</ele>
        <time>2019-04-28T15:45:14Z</time>
      </trkpt>
      <trkpt lat="40.2130550" lon="-3.7226710">
        <ele>650.6</ele>
        <time>2019-04-28T15:45:15Z</time>
      </trkpt>
      <trkpt lat="40.2130950" lon="-3.7226220">
        <ele>650.6</ele>
        <time>2019-04-28T15:45:16Z</time>
      </trkpt>
      <trkpt lat="40.2131360" lon="-3.7225700">
        <ele>650.4</ele>
        <time>2019-04-28T15:45:17Z</time>
      </trkpt>
      <trkpt lat="40.2131750" lon="-3.7225150">
        <ele>650.4</ele>
        <time>2019-04-28T15:45:18Z</time>
      </trkpt>
      <trkpt lat="40.2132160" lon="-3.7224660">
        <ele>650.4</ele>
        <time>2019-04-28T15:45:19Z</time>
      </trkpt>
      <trkpt lat="40.2133010" lon="-3.7223700">
        <ele>650.4</ele>
        <time>2019-04-28T15:45:20Z</time>
      </trkpt>
      <trkpt lat="40.2133190" lon="-3.7223420">
        <ele>650.6</ele>
        <time>2019-04-28T15:45:21Z</time>
      </trkpt>
      <trkpt lat="40.2133360" lon="-3.7223130">
        <ele>650.6</ele>
        <time>2019-04-28T15:45:22Z</time>
      </trkpt>
      <trkpt lat="40.2133750" lon="-3.7222570">
        <ele>650.8</ele>
        <time>2019-04-28T15:45:23Z</time>
      </trkpt>
      <trkpt lat="40.2134150" lon="-3.7222020">
        <ele>650.6</ele>
        <time>2019-04-28T15:45:24Z</time>
      </trkpt>
      <trkpt lat="40.2134570" lon="-3.7221470">
        <ele>650.6</ele>
        <time>2019-04-28T15:45:25Z</time>
      </trkpt>
      <trkpt lat="40.2134990" lon="-3.7220930">
        <ele>650.4</ele>
        <time>2019-04-28T15:45:26Z</time>
      </trkpt>
      <trkpt lat="40.2135390" lon="-3.7220370">
        <ele>650.4</ele>
        <time>2019-04-28T15:45:27Z</time>
      </trkpt>
      <trkpt lat="40.2136210" lon="-3.7219430">
        <ele>650.4</ele>
        <time>2019-04-28T15:45:28Z</time>
      </trkpt>
      <trkpt lat="40.2136410" lon="-3.7219200">
        <ele>650.2</ele>
        <time>2019-04-28T15:45:29Z</time>
      </trkpt>
      <trkpt lat="40.2136610" lon="-3.7218960">
        <ele>650.2</ele>
        <time>2019-04-28T15:45:30Z</time>
      </trkpt>
      <trkpt lat="40.2137000" lon="-3.7218450">
        <ele>650.4</ele>
        <time>2019-04-28T15:45:31Z</time>
      </trkpt>
      <trkpt lat="40.2137410" lon="-3.7217920">
        <ele>650.6</ele>
        <time>2019-04-28T15:45:32Z</time>
      </trkpt>
      <trkpt lat="40.2137850" lon="-3.7217400">
        <ele>650.6</ele>
        <time>2019-04-28T15:45:33Z</time>
      </trkpt>
      <trkpt lat="40.2138310" lon="-3.7216870">
        <ele>650.6</ele>
        <time>2019-04-28T15:45:34Z</time>
      </trkpt>
      <trkpt lat="40.2138780" lon="-3.7216380">
        <ele>650.6</ele>
        <time>2019-04-28T15:45:35Z</time>
      </trkpt>
      <trkpt lat="40.2139720" lon="-3.7215430">
        <ele>650.4</ele>
        <time>2019-04-28T15:45:36Z</time>
      </trkpt>
      <trkpt lat="40.2139950" lon="-3.7215170">
        <ele>650.4</ele>
        <time>2019-04-28T15:45:37Z</time>
      </trkpt>
      <trkpt lat="40.2140180" lon="-3.7214900">
        <ele>650.4</ele>
        <time>2019-04-28T15:45:38Z</time>
      </trkpt>
      <trkpt lat="40.2140620" lon="-3.7214320">
        <ele>650.6</ele>
        <time>2019-04-28T15:45:39Z</time>
      </trkpt>
      <trkpt lat="40.2141050" lon="-3.7213760">
        <ele>650.6</ele>
        <time>2019-04-28T15:45:40Z</time>
      </trkpt>
      <trkpt lat="40.2141490" lon="-3.7213260">
        <ele>650.6</ele>
        <time>2019-04-28T15:45:41Z</time>
      </trkpt>
      <trkpt lat="40.2141980" lon="-3.7212830">
        <ele>650.4</ele>
        <time>2019-04-28T15:45:42Z</time>
      </trkpt>
      <trkpt lat="40.2142520" lon="-3.7212430">
        <ele>650.4</ele>
        <time>2019-04-28T15:45:43Z</time>
      </trkpt>
      <trkpt lat="40.2143060" lon="-3.7212020">
        <ele>650.4</ele>
        <time>2019-04-28T15:45:44Z</time>
      </trkpt>
      <trkpt lat="40.2143580" lon="-3.7211630">
        <ele>650.4</ele>
        <time>2019-04-28T15:45:45Z</time>
      </trkpt>
      <trkpt lat="40.2144090" lon="-3.7211260">
        <ele>650.6</ele>
        <time>2019-04-28T15:45:46Z</time>
      </trkpt>
      <trkpt lat="40.2145140" lon="-3.7210550">
        <ele>650.6</ele>
        <time>2019-04-28T15:45:47Z</time>
      </trkpt>
      <trkpt lat="40.2145410" lon="-3.7210350">
        <ele>650.6</ele>
        <time>2019-04-28T15:45:48Z</time>
      </trkpt>
      <trkpt lat="40.2145670" lon="-3.7210150">
        <ele>650.6</ele>
        <time>2019-04-28T15:45:49Z</time>
      </trkpt>
      <trkpt lat="40.2146170" lon="-3.7209710">
        <ele>650.8</ele>
        <time>2019-04-28T15:45:50Z</time>
      </trkpt>
      <trkpt lat="40.2146680" lon="-3.7209250">
        <ele>650.8</ele>
        <time>2019-04-28T15:45:51Z</time>
      </trkpt>
      <trkpt lat="40.2147620" lon="-3.7208280">
        <ele>650.6</ele>
        <time>2019-04-28T15:45:52Z</time>
      </trkpt>
      <trkpt lat="40.2147840" lon="-3.7208000">
        <ele>650.8</ele>
        <time>2019-04-28T15:45:53Z</time>
      </trkpt>
      <trkpt lat="40.2148050" lon="-3.7207710">
        <ele>650.8</ele>
        <time>2019-04-28T15:45:54Z</time>
      </trkpt>
      <trkpt lat="40.2148460" lon="-3.7207100">
        <ele>651.0</ele>
        <time>2019-04-28T15:45:55Z</time>
      </trkpt>
      <trkpt lat="40.2148850" lon="-3.7206490">
        <ele>651.0</ele>
        <time>2019-04-28T15:45:56Z</time>
      </trkpt>
      <trkpt lat="40.2149250" lon="-3.7205900">
        <ele>651.2</ele>
        <time>2019-04-28T15:45:57Z</time>
      </trkpt>
      <trkpt lat="40.2149660" lon="-3.7205320">
        <ele>651.2</ele>
        <time>2019-04-28T15:45:58Z</time>
      </trkpt>
      <trkpt lat="40.2150060" lon="-3.7204730">
        <ele>651.2</ele>
        <time>2019-04-28T15:45:59Z</time>
      </trkpt>
      <trkpt lat="40.2150830" lon="-3.7203470">
        <ele>651.2</ele>
        <time>2019-04-28T15:46:00Z</time>
      </trkpt>
      <trkpt lat="40.2151100" lon="-3.7203000">
        <ele>651.2</ele>
        <time>2019-04-28T15:46:01Z</time>
      </trkpt>
      <trkpt lat="40.2151360" lon="-3.7202530">
        <ele>651.4</ele>
        <time>2019-04-28T15:46:02Z</time>
      </trkpt>
      <trkpt lat="40.2151890" lon="-3.7201580">
        <ele>651.6</ele>
        <time>2019-04-28T15:46:03Z</time>
      </trkpt>
      <trkpt lat="40.2152040" lon="-3.7201250">
        <ele>651.8</ele>
        <time>2019-04-28T15:46:04Z</time>
      </trkpt>
      <trkpt lat="40.2152180" lon="-3.7200910">
        <ele>651.8</ele>
        <time>2019-04-28T15:46:05Z</time>
      </trkpt>
      <trkpt lat="40.2152430" lon="-3.7200190">
        <ele>651.8</ele>
        <time>2019-04-28T15:46:06Z</time>
      </trkpt>
      <trkpt lat="40.2152650" lon="-3.7199440">
        <ele>651.8</ele>
        <time>2019-04-28T15:46:07Z</time>
      </trkpt>
      <trkpt lat="40.2152990" lon="-3.7197880">
        <ele>652.0</ele>
        <time>2019-04-28T15:46:08Z</time>
      </trkpt>
      <trkpt lat="40.2153190" lon="-3.7197110">
        <ele>652.0</ele>
        <time>2019-04-28T15:46:09Z</time>
      </trkpt>
      <trkpt lat="40.2153330" lon="-3.7196740">
        <ele>652.0</ele>
        <time>2019-04-28T15:46:10Z</time>
      </trkpt>
      <trkpt lat="40.2153460" lon="-3.7196370">
        <ele>652.2</ele>
        <time>2019-04-28T15:46:11Z</time>
      </trkpt>
      <trkpt lat="40.2153790" lon="-3.7195660">
        <ele>652.4</ele>
        <time>2019-04-28T15:46:12Z</time>
      </trkpt>
      <trkpt lat="40.2154560" lon="-3.7194350">
        <ele>652.4</ele>
        <time>2019-04-28T15:46:13Z</time>
      </trkpt>
      <trkpt lat="40.2154780" lon="-3.7194050">
        <ele>652.4</ele>
        <time>2019-04-28T15:46:14Z</time>
      </trkpt>
      <trkpt lat="40.2155000" lon="-3.7193750">
        <ele>652.4</ele>
        <time>2019-04-28T15:46:15Z</time>
      </trkpt>
      <trkpt lat="40.2155420" lon="-3.7193150">
        <ele>652.4</ele>
        <time>2019-04-28T15:46:16Z</time>
      </trkpt>
      <trkpt lat="40.2156250" lon="-3.7191910">
        <ele>652.4</ele>
        <time>2019-04-28T15:46:17Z</time>
      </trkpt>
      <trkpt lat="40.2156470" lon="-3.7191620">
        <ele>652.4</ele>
        <time>2019-04-28T15:46:18Z</time>
      </trkpt>
      <trkpt lat="40.2156690" lon="-3.7191320">
        <ele>652.4</ele>
        <time>2019-04-28T15:46:19Z</time>
      </trkpt>
      <trkpt lat="40.2157100" lon="-3.7190740">
        <ele>652.2</ele>
        <time>2019-04-28T15:46:20Z</time>
      </trkpt>
      <trkpt lat="40.2157890" lon="-3.7189580">
        <ele>652.2</ele>
        <time>2019-04-28T15:46:21Z</time>
      </trkpt>
      <trkpt lat="40.2158090" lon="-3.7189300">
        <ele>652.2</ele>
        <time>2019-04-28T15:46:22Z</time>
      </trkpt>
      <trkpt lat="40.2158290" lon="-3.7189010">
        <ele>652.2</ele>
        <time>2019-04-28T15:46:23Z</time>
      </trkpt>
      <trkpt lat="40.2159160" lon="-3.7188120">
        <ele>652.0</ele>
        <time>2019-04-28T15:46:24Z</time>
      </trkpt>
      <trkpt lat="40.2159390" lon="-3.7187920">
        <ele>652.2</ele>
        <time>2019-04-28T15:46:25Z</time>
      </trkpt>
      <trkpt lat="40.2159610" lon="-3.7187710">
        <ele>652.2</ele>
        <time>2019-04-28T15:46:26Z</time>
      </trkpt>
      <trkpt lat="40.2160260" lon="-3.7187100">
        <ele>652.0</ele>
        <time>2019-04-28T15:46:27Z</time>
      </trkpt>
      <trkpt lat="40.2160450" lon="-3.7186890">
        <ele>652.2</ele>
        <time>2019-04-28T15:46:28Z</time>
      </trkpt>
      <trkpt lat="40.2160840" lon="-3.7186480">
        <ele>652.2</ele>
        <time>2019-04-28T15:46:29Z</time>
      </trkpt>
      <trkpt lat="40.2161210" lon="-3.7186030">
        <ele>652.2</ele>
        <time>2019-04-28T15:46:30Z</time>
      </trkpt>
      <trkpt lat="40.2161580" lon="-3.7185550">
        <ele>652.2</ele>
        <time>2019-04-28T15:46:31Z</time>
      </trkpt>
      <trkpt lat="40.2162390" lon="-3.7184560">
        <ele>652.2</ele>
        <time>2019-04-28T15:46:32Z</time>
      </trkpt>
      <trkpt lat="40.2162830" lon="-3.7184060">
        <ele>652.2</ele>
        <time>2019-04-28T15:46:33Z</time>
      </trkpt>
      <trkpt lat="40.2163280" lon="-3.7183540">
        <ele>652.2</ele>
        <time>2019-04-28T15:46:34Z</time>
      </trkpt>
      <trkpt lat="40.2163730" lon="-3.7183010">
        <ele>652.0</ele>
        <time>2019-04-28T15:46:35Z</time>
      </trkpt>
      <trkpt lat="40.2163970" lon="-3.7182750">
        <ele>652.0</ele>
        <time>2019-04-28T15:46:36Z</time>
      </trkpt>
      <trkpt lat="40.2164200" lon="-3.7182490">
        <ele>652.0</ele>
        <time>2019-04-28T15:46:37Z</time>
      </trkpt>
      <trkpt lat="40.2164670" lon="-3.7181960">
        <ele>652.0</ele>
        <time>2019-04-28T15:46:38Z</time>
      </trkpt>
      <trkpt lat="40.2165610" lon="-3.7180870">
        <ele>652.0</ele>
        <time>2019-04-28T15:46:39Z</time>
      </trkpt>
      <trkpt lat="40.2165850" lon="-3.7180600">
        <ele>651.8</ele>
        <time>2019-04-28T15:46:40Z</time>
      </trkpt>
      <trkpt lat="40.2166090" lon="-3.7180330">
        <ele>651.6</ele>
        <time>2019-04-28T15:46:41Z</time>
      </trkpt>
      <trkpt lat="40.2167060" lon="-3.7179250">
        <ele>651.6</ele>
        <time>2019-04-28T15:46:42Z</time>
      </trkpt>
      <trkpt lat="40.2167550" lon="-3.7178750">
        <ele>651.6</ele>
        <time>2019-04-28T15:46:43Z</time>
      </trkpt>
      <trkpt lat="40.2167790" lon="-3.7178500">
        <ele>651.6</ele>
        <time>2019-04-28T15:46:44Z</time>
      </trkpt>
      <trkpt lat="40.2168030" lon="-3.7178240">
        <ele>651.4</ele>
        <time>2019-04-28T15:46:45Z</time>
      </trkpt>
      <trkpt lat="40.2168500" lon="-3.7177780">
        <ele>651.4</ele>
        <time>2019-04-28T15:46:46Z</time>
      </trkpt>
      <trkpt lat="40.2168900" lon="-3.7177270">
        <ele>651.4</ele>
        <time>2019-04-28T15:46:47Z</time>
      </trkpt>
      <trkpt lat="40.2169310" lon="-3.7176730">
        <ele>651.4</ele>
        <time>2019-04-28T15:46:48Z</time>
      </trkpt>
      <trkpt lat="40.2170140" lon="-3.7175530">
        <ele>651.4</ele>
        <time>2019-04-28T15:46:49Z</time>
      </trkpt>
      <trkpt lat="40.2170570" lon="-3.7174910">
        <ele>651.4</ele>
        <time>2019-04-28T15:46:50Z</time>
      </trkpt>
      <trkpt lat="40.2171010" lon="-3.7174280">
        <ele>651.4</ele>
        <time>2019-04-28T15:46:51Z</time>
      </trkpt>
      <trkpt lat="40.2171450" lon="-3.7173670">
        <ele>651.4</ele>
        <time>2019-04-28T15:46:52Z</time>
      </trkpt>
      <trkpt lat="40.2171680" lon="-3.7173360">
        <ele>651.4</ele>
        <time>2019-04-28T15:46:53Z</time>
      </trkpt>
      <trkpt lat="40.2171910" lon="-3.7173050">
        <ele>651.2</ele>
        <time>2019-04-28T15:46:54Z</time>
      </trkpt>
      <trkpt lat="40.2172350" lon="-3.7172380">
        <ele>651.2</ele>
        <time>2019-04-28T15:46:55Z</time>
      </trkpt>
      <trkpt lat="40.2172780" lon="-3.7171760">
        <ele>650.8</ele>
        <time>2019-04-28T15:46:56Z</time>
      </trkpt>
      <trkpt lat="40.2173650" lon="-3.7170580">
        <ele>650.6</ele>
        <time>2019-04-28T15:46:57Z</time>
      </trkpt>
      <trkpt lat="40.2174090" lon="-3.7170040">
        <ele>650.8</ele>
        <time>2019-04-28T15:46:58Z</time>
      </trkpt>
      <trkpt lat="40.2174480" lon="-3.7169540">
        <ele>650.8</ele>
        <time>2019-04-28T15:46:59Z</time>
      </trkpt>
      <trkpt lat="40.2174850" lon="-3.7169060">
        <ele>650.8</ele>
        <time>2019-04-28T15:47:00Z</time>
      </trkpt>
      <trkpt lat="40.2174980" lon="-3.7168850">
        <ele>650.8</ele>
        <time>2019-04-28T15:47:01Z</time>
      </trkpt>
      <trkpt lat="40.2175110" lon="-3.7168640">
        <ele>650.8</ele>
        <time>2019-04-28T15:47:02Z</time>
      </trkpt>
      <trkpt lat="40.2175430" lon="-3.7168120">
        <ele>650.6</ele>
        <time>2019-04-28T15:47:03Z</time>
      </trkpt>
      <trkpt lat="40.2175560" lon="-3.7167890">
        <ele>650.6</ele>
        <time>2019-04-28T15:47:04Z</time>
      </trkpt>
      <trkpt lat="40.2175740" lon="-3.7167640">
        <ele>650.6</ele>
        <time>2019-04-28T15:47:05Z</time>
      </trkpt>
      <trkpt lat="40.2175990" lon="-3.7167370">
        <ele>650.6</ele>
        <time>2019-04-28T15:47:06Z</time>
      </trkpt>
      <trkpt lat="40.2176270" lon="-3.7167050">
        <ele>650.6</ele>
        <time>2019-04-28T15:47:07Z</time>
      </trkpt>
      <trkpt lat="40.2176420" lon="-3.7166850">
        <ele>650.8</ele>
        <time>2019-04-28T15:47:08Z</time>
      </trkpt>
      <trkpt lat="40.2176560" lon="-3.7166650">
        <ele>650.8</ele>
        <time>2019-04-28T15:47:09Z</time>
      </trkpt>
      <trkpt lat="40.2177190" lon="-3.7165720">
        <ele>650.8</ele>
        <time>2019-04-28T15:47:10Z</time>
      </trkpt>
      <trkpt lat="40.2177600" lon="-3.7165290">
        <ele>650.6</ele>
        <time>2019-04-28T15:47:11Z</time>
      </trkpt>
      <trkpt lat="40.2178040" lon="-3.7164870">
        <ele>650.6</ele>
        <time>2019-04-28T15:47:12Z</time>
      </trkpt>
      <trkpt lat="40.2178500" lon="-3.7164480">
        <ele>650.8</ele>
        <time>2019-04-28T15:47:13Z</time>
      </trkpt>
      <trkpt lat="40.2178730" lon="-3.7164280">
        <ele>650.8</ele>
        <time>2019-04-28T15:47:14Z</time>
      </trkpt>
      <trkpt lat="40.2178950" lon="-3.7164070">
        <ele>651.0</ele>
        <time>2019-04-28T15:47:15Z</time>
      </trkpt>
      <trkpt lat="40.2179740" lon="-3.7163310">
        <ele>651.0</ele>
        <time>2019-04-28T15:47:16Z</time>
      </trkpt>
      <trkpt lat="40.2180070" lon="-3.7162960">
        <ele>651.0</ele>
        <time>2019-04-28T15:47:17Z</time>
      </trkpt>
      <trkpt lat="40.2180740" lon="-3.7162260">
        <ele>651.0</ele>
        <time>2019-04-28T15:47:18Z</time>
      </trkpt>
      <trkpt lat="40.2181200" lon="-3.7161740">
        <ele>651.0</ele>
        <time>2019-04-28T15:47:19Z</time>
      </trkpt>
      <trkpt lat="40.2181650" lon="-3.7161220">
        <ele>651.4</ele>
        <time>2019-04-28T15:47:20Z</time>
      </trkpt>
      <trkpt lat="40.2181910" lon="-3.7160980">
        <ele>651.6</ele>
        <time>2019-04-28T15:47:21Z</time>
      </trkpt>
      <trkpt lat="40.2182160" lon="-3.7160740">
        <ele>651.6</ele>
        <time>2019-04-28T15:47:22Z</time>
      </trkpt>
      <trkpt lat="40.2183100" lon="-3.7159960">
        <ele>651.6</ele>
        <time>2019-04-28T15:47:23Z</time>
      </trkpt>
      <trkpt lat="40.2183540" lon="-3.7159650">
        <ele>651.6</ele>
        <time>2019-04-28T15:47:24Z</time>
      </trkpt>
      <trkpt lat="40.2184410" lon="-3.7159040">
        <ele>651.6</ele>
        <time>2019-04-28T15:47:25Z</time>
      </trkpt>
      <trkpt lat="40.2185020" lon="-3.7158640">
        <ele>651.6</ele>
        <time>2019-04-28T15:47:26Z</time>
      </trkpt>
      <trkpt lat="40.2185610" lon="-3.7158220">
        <ele>651.6</ele>
        <time>2019-04-28T15:47:27Z</time>
      </trkpt>
      <trkpt lat="40.2186180" lon="-3.7157780">
        <ele>651.6</ele>
        <time>2019-04-28T15:47:28Z</time>
      </trkpt>
      <trkpt lat="40.2186600" lon="-3.7157430">
        <ele>651.6</ele>
        <time>2019-04-28T15:47:29Z</time>
      </trkpt>
      <trkpt lat="40.2187020" lon="-3.7157080">
        <ele>651.6</ele>
        <time>2019-04-28T15:47:30Z</time>
      </trkpt>
      <trkpt lat="40.2187850" lon="-3.7156380">
        <ele>651.6</ele>
        <time>2019-04-28T15:47:31Z</time>
      </trkpt>
      <trkpt lat="40.2188390" lon="-3.7155880">
        <ele>651.8</ele>
        <time>2019-04-28T15:47:32Z</time>
      </trkpt>
      <trkpt lat="40.2188920" lon="-3.7155430">
        <ele>651.8</ele>
        <time>2019-04-28T15:47:33Z</time>
      </trkpt>
      <trkpt lat="40.2189200" lon="-3.7155200">
        <ele>651.8</ele>
        <time>2019-04-28T15:47:34Z</time>
      </trkpt>
      <trkpt lat="40.2189470" lon="-3.7154970">
        <ele>651.8</ele>
        <time>2019-04-28T15:47:35Z</time>
      </trkpt>
      <trkpt lat="40.2190600" lon="-3.7154070">
        <ele>651.8</ele>
        <time>2019-04-28T15:47:36Z</time>
      </trkpt>
      <trkpt lat="40.2191140" lon="-3.7153590">
        <ele>651.8</ele>
        <time>2019-04-28T15:47:37Z</time>
      </trkpt>
      <trkpt lat="40.2191690" lon="-3.7153110">
        <ele>651.8</ele>
        <time>2019-04-28T15:47:38Z</time>
      </trkpt>
      <trkpt lat="40.2192250" lon="-3.7152610">
        <ele>651.8</ele>
        <time>2019-04-28T15:47:39Z</time>
      </trkpt>
      <trkpt lat="40.2192530" lon="-3.7152370">
        <ele>651.8</ele>
        <time>2019-04-28T15:47:40Z</time>
      </trkpt>
      <trkpt lat="40.2192800" lon="-3.7152120">
        <ele>651.8</ele>
        <time>2019-04-28T15:47:41Z</time>
      </trkpt>
      <trkpt lat="40.2193880" lon="-3.7151210">
        <ele>651.8</ele>
        <time>2019-04-28T15:47:42Z</time>
      </trkpt>
      <trkpt lat="40.2194420" lon="-3.7150770">
        <ele>651.8</ele>
        <time>2019-04-28T15:47:43Z</time>
      </trkpt>
      <trkpt lat="40.2194950" lon="-3.7150300">
        <ele>652.0</ele>
        <time>2019-04-28T15:47:44Z</time>
      </trkpt>
      <trkpt lat="40.2195490" lon="-3.7149820">
        <ele>651.8</ele>
        <time>2019-04-28T15:47:45Z</time>
      </trkpt>
      <trkpt lat="40.2195760" lon="-3.7149590">
        <ele>651.8</ele>
        <time>2019-04-28T15:47:46Z</time>
      </trkpt>
      <trkpt lat="40.2196030" lon="-3.7149360">
        <ele>651.6</ele>
        <time>2019-04-28T15:47:47Z</time>
      </trkpt>
      <trkpt lat="40.2197050" lon="-3.7148410">
        <ele>651.8</ele>
        <time>2019-04-28T15:47:48Z</time>
      </trkpt>
      <trkpt lat="40.2197550" lon="-3.7147960">
        <ele>651.8</ele>
        <time>2019-04-28T15:47:49Z</time>
      </trkpt>
      <trkpt lat="40.2198020" lon="-3.7147520">
        <ele>651.8</ele>
        <time>2019-04-28T15:47:50Z</time>
      </trkpt>
      <trkpt lat="40.2198470" lon="-3.7147070">
        <ele>651.8</ele>
        <time>2019-04-28T15:47:51Z</time>
      </trkpt>
      <trkpt lat="40.2198890" lon="-3.7146630">
        <ele>651.8</ele>
        <time>2019-04-28T15:47:52Z</time>
      </trkpt>
      <trkpt lat="40.2199310" lon="-3.7146180">
        <ele>651.6</ele>
        <time>2019-04-28T15:47:53Z</time>
      </trkpt>
      <trkpt lat="40.2199710" lon="-3.7145710">
        <ele>651.8</ele>
        <time>2019-04-28T15:47:54Z</time>
      </trkpt>
      <trkpt lat="40.2200110" lon="-3.7145210">
        <ele>652.2</ele>
        <time>2019-04-28T15:47:55Z</time>
      </trkpt>
      <trkpt lat="40.2200530" lon="-3.7144690">
        <ele>652.0</ele>
        <time>2019-04-28T15:47:56Z</time>
      </trkpt>
      <trkpt lat="40.2200980" lon="-3.7144190">
        <ele>652.0</ele>
        <time>2019-04-28T15:47:57Z</time>
      </trkpt>
      <trkpt lat="40.2201460" lon="-3.7143710">
        <ele>651.8</ele>
        <time>2019-04-28T15:47:58Z</time>
      </trkpt>
      <trkpt lat="40.2201950" lon="-3.7143230">
        <ele>651.6</ele>
        <time>2019-04-28T15:47:59Z</time>
      </trkpt>
      <trkpt lat="40.2202450" lon="-3.7142750">
        <ele>651.6</ele>
        <time>2019-04-28T15:48:00Z</time>
      </trkpt>
      <trkpt lat="40.2202940" lon="-3.7142260">
        <ele>651.6</ele>
        <time>2019-04-28T15:48:01Z</time>
      </trkpt>
      <trkpt lat="40.2203430" lon="-3.7141780">
        <ele>651.6</ele>
        <time>2019-04-28T15:48:02Z</time>
      </trkpt>
      <trkpt lat="40.2203910" lon="-3.7141280">
        <ele>651.4</ele>
        <time>2019-04-28T15:48:03Z</time>
      </trkpt>
      <trkpt lat="40.2204400" lon="-3.7140800">
        <ele>651.4</ele>
        <time>2019-04-28T15:48:04Z</time>
      </trkpt>
      <trkpt lat="40.2204900" lon="-3.7140340">
        <ele>651.0</ele>
        <time>2019-04-28T15:48:05Z</time>
      </trkpt>
      <trkpt lat="40.2205400" lon="-3.7139860">
        <ele>651.4</ele>
        <time>2019-04-28T15:48:06Z</time>
      </trkpt>
      <trkpt lat="40.2205910" lon="-3.7139370">
        <ele>651.2</ele>
        <time>2019-04-28T15:48:07Z</time>
      </trkpt>
      <trkpt lat="40.2206450" lon="-3.7138960">
        <ele>651.0</ele>
        <time>2019-04-28T15:48:08Z</time>
      </trkpt>
      <trkpt lat="40.2207010" lon="-3.7138590">
        <ele>651.2</ele>
        <time>2019-04-28T15:48:09Z</time>
      </trkpt>
      <trkpt lat="40.2207560" lon="-3.7138190">
        <ele>651.2</ele>
        <time>2019-04-28T15:48:10Z</time>
      </trkpt>
      <trkpt lat="40.2208100" lon="-3.7137780">
        <ele>651.0</ele>
        <time>2019-04-28T15:48:11Z</time>
      </trkpt>
      <trkpt lat="40.2208640" lon="-3.7137390">
        <ele>651.0</ele>
        <time>2019-04-28T15:48:12Z</time>
      </trkpt>
      <trkpt lat="40.2209150" lon="-3.7136950">
        <ele>651.0</ele>
        <time>2019-04-28T15:48:13Z</time>
      </trkpt>
      <trkpt lat="40.2209680" lon="-3.7136480">
        <ele>651.2</ele>
        <time>2019-04-28T15:48:14Z</time>
      </trkpt>
      <trkpt lat="40.2210220" lon="-3.7135990">
        <ele>651.4</ele>
        <time>2019-04-28T15:48:15Z</time>
      </trkpt>
      <trkpt lat="40.2210770" lon="-3.7135520">
        <ele>651.4</ele>
        <time>2019-04-28T15:48:16Z</time>
      </trkpt>
      <trkpt lat="40.2211330" lon="-3.7135040">
        <ele>651.4</ele>
        <time>2019-04-28T15:48:17Z</time>
      </trkpt>
      <trkpt lat="40.2211900" lon="-3.7134570">
        <ele>651.6</ele>
        <time>2019-04-28T15:48:18Z</time>
      </trkpt>
      <trkpt lat="40.2212480" lon="-3.7134090">
        <ele>651.6</ele>
        <time>2019-04-28T15:48:19Z</time>
      </trkpt>
      <trkpt lat="40.2213030" lon="-3.7133600">
        <ele>651.6</ele>
        <time>2019-04-28T15:48:20Z</time>
      </trkpt>
      <trkpt lat="40.2213600" lon="-3.7133120">
        <ele>651.6</ele>
        <time>2019-04-28T15:48:21Z</time>
      </trkpt>
      <trkpt lat="40.2214170" lon="-3.7132630">
        <ele>651.6</ele>
        <time>2019-04-28T15:48:22Z</time>
      </trkpt>
      <trkpt lat="40.2214740" lon="-3.7132130">
        <ele>651.6</ele>
        <time>2019-04-28T15:48:23Z</time>
      </trkpt>
      <trkpt lat="40.2215320" lon="-3.7131630">
        <ele>651.6</ele>
        <time>2019-04-28T15:48:24Z</time>
      </trkpt>
      <trkpt lat="40.2215910" lon="-3.7131150">
        <ele>651.4</ele>
        <time>2019-04-28T15:48:25Z</time>
      </trkpt>
      <trkpt lat="40.2216520" lon="-3.7130710">
        <ele>651.6</ele>
        <time>2019-04-28T15:48:26Z</time>
      </trkpt>
      <trkpt lat="40.2217120" lon="-3.7130260">
        <ele>651.6</ele>
        <time>2019-04-28T15:48:27Z</time>
      </trkpt>
      <trkpt lat="40.2217730" lon="-3.7129810">
        <ele>651.6</ele>
        <time>2019-04-28T15:48:28Z</time>
      </trkpt>
      <trkpt lat="40.2218320" lon="-3.7129370">
        <ele>651.6</ele>
        <time>2019-04-28T15:48:29Z</time>
      </trkpt>
      <trkpt lat="40.2218900" lon="-3.7128900">
        <ele>651.6</ele>
        <time>2019-04-28T15:48:30Z</time>
      </trkpt>
      <trkpt lat="40.2219480" lon="-3.7128440">
        <ele>651.6</ele>
        <time>2019-04-28T15:48:31Z</time>
      </trkpt>
      <trkpt lat="40.2220050" lon="-3.7128030">
        <ele>651.8</ele>
        <time>2019-04-28T15:48:32Z</time>
      </trkpt>
      <trkpt lat="40.2220620" lon="-3.7127640">
        <ele>651.8</ele>
        <time>2019-04-28T15:48:33Z</time>
      </trkpt>
      <trkpt lat="40.2221180" lon="-3.7127240">
        <ele>651.8</ele>
        <time>2019-04-28T15:48:34Z</time>
      </trkpt>
      <trkpt lat="40.2221690" lon="-3.7126790">
        <ele>651.8</ele>
        <time>2019-04-28T15:48:35Z</time>
      </trkpt>
      <trkpt lat="40.2222200" lon="-3.7126310">
        <ele>651.8</ele>
        <time>2019-04-28T15:48:36Z</time>
      </trkpt>
      <trkpt lat="40.2222710" lon="-3.7125840">
        <ele>652.0</ele>
        <time>2019-04-28T15:48:37Z</time>
      </trkpt>
      <trkpt lat="40.2223170" lon="-3.7125440">
        <ele>652.0</ele>
        <time>2019-04-28T15:48:38Z</time>
      </trkpt>
      <trkpt lat="40.2223590" lon="-3.7125080">
        <ele>652.0</ele>
        <time>2019-04-28T15:48:39Z</time>
      </trkpt>
      <trkpt lat="40.2223980" lon="-3.7124730">
        <ele>652.0</ele>
        <time>2019-04-28T15:48:40Z</time>
      </trkpt>
      <trkpt lat="40.2224370" lon="-3.7124350">
        <ele>652.0</ele>
        <time>2019-04-28T15:48:41Z</time>
      </trkpt>
      <trkpt lat="40.2224770" lon="-3.7123960">
        <ele>652.0</ele>
        <time>2019-04-28T15:48:42Z</time>
      </trkpt>
      <trkpt lat="40.2225180" lon="-3.7123570">
        <ele>651.8</ele>
        <time>2019-04-28T15:48:43Z</time>
      </trkpt>
      <trkpt lat="40.2225590" lon="-3.7123170">
        <ele>652.0</ele>
        <time>2019-04-28T15:48:44Z</time>
      </trkpt>
      <trkpt lat="40.2226000" lon="-3.7122800">
        <ele>652.2</ele>
        <time>2019-04-28T15:48:45Z</time>
      </trkpt>
      <trkpt lat="40.2226410" lon="-3.7122420">
        <ele>652.2</ele>
        <time>2019-04-28T15:48:46Z</time>
      </trkpt>
      <trkpt lat="40.2226810" lon="-3.7122040">
        <ele>652.2</ele>
        <time>2019-04-28T15:48:47Z</time>
      </trkpt>
      <trkpt lat="40.2227220" lon="-3.7121660">
        <ele>652.2</ele>
        <time>2019-04-28T15:48:48Z</time>
      </trkpt>
      <trkpt lat="40.2227620" lon="-3.7121280">
        <ele>652.2</ele>
        <time>2019-04-28T15:48:49Z</time>
      </trkpt>
      <trkpt lat="40.2228040" lon="-3.7120890">
        <ele>652.2</ele>
        <time>2019-04-28T15:48:50Z</time>
      </trkpt>
      <trkpt lat="40.2228460" lon="-3.7120490">
        <ele>652.4</ele>
        <time>2019-04-28T15:48:51Z</time>
      </trkpt>
      <trkpt lat="40.2228880" lon="-3.7120060">
        <ele>652.4</ele>
        <time>2019-04-28T15:48:52Z</time>
      </trkpt>
      <trkpt lat="40.2229290" lon="-3.7119660">
        <ele>652.6</ele>
        <time>2019-04-28T15:48:53Z</time>
      </trkpt>
      <trkpt lat="40.2229700" lon="-3.7119250">
        <ele>652.6</ele>
        <time>2019-04-28T15:48:54Z</time>
      </trkpt>
      <trkpt lat="40.2230120" lon="-3.7118880">
        <ele>652.6</ele>
        <time>2019-04-28T15:48:55Z</time>
      </trkpt>
      <trkpt lat="40.2230550" lon="-3.7118490">
        <ele>652.6</ele>
        <time>2019-04-28T15:48:56Z</time>
      </trkpt>
      <trkpt lat="40.2230960" lon="-3.7118080">
        <ele>652.8</ele>
        <time>2019-04-28T15:48:57Z</time>
      </trkpt>
      <trkpt lat="40.2231390" lon="-3.7117670">
        <ele>652.6</ele>
        <time>2019-04-28T15:48:58Z</time>
      </trkpt>
      <trkpt lat="40.2231780" lon="-3.7117250">
        <ele>652.8</ele>
        <time>2019-04-28T15:48:59Z</time>
      </trkpt>
      <trkpt lat="40.2232190" lon="-3.7116850">
        <ele>652.8</ele>
        <time>2019-04-28T15:49:00Z</time>
      </trkpt>
      <trkpt lat="40.2232600" lon="-3.7116460">
        <ele>652.8</ele>
        <time>2019-04-28T15:49:01Z</time>
      </trkpt>
      <trkpt lat="40.2233000" lon="-3.7116080">
        <ele>652.8</ele>
        <time>2019-04-28T15:49:02Z</time>
      </trkpt>
      <trkpt lat="40.2233420" lon="-3.7115720">
        <ele>652.8</ele>
        <time>2019-04-28T15:49:03Z</time>
      </trkpt>
      <trkpt lat="40.2233850" lon="-3.7115370">
        <ele>653.0</ele>
        <time>2019-04-28T15:49:04Z</time>
      </trkpt>
      <trkpt lat="40.2234280" lon="-3.7114980">
        <ele>653.2</ele>
        <time>2019-04-28T15:49:05Z</time>
      </trkpt>
      <trkpt lat="40.2234720" lon="-3.7114670">
        <ele>653.2</ele>
        <time>2019-04-28T15:49:06Z</time>
      </trkpt>
      <trkpt lat="40.2235170" lon="-3.7114340">
        <ele>653.2</ele>
        <time>2019-04-28T15:49:07Z</time>
      </trkpt>
      <trkpt lat="40.2235590" lon="-3.7113970">
        <ele>653.2</ele>
        <time>2019-04-28T15:49:08Z</time>
      </trkpt>
      <trkpt lat="40.2235990" lon="-3.7113630">
        <ele>653.2</ele>
        <time>2019-04-28T15:49:09Z</time>
      </trkpt>
      <trkpt lat="40.2236410" lon="-3.7113310">
        <ele>653.2</ele>
        <time>2019-04-28T15:49:10Z</time>
      </trkpt>
      <trkpt lat="40.2236820" lon="-3.7113000">
        <ele>653.0</ele>
        <time>2019-04-28T15:49:11Z</time>
      </trkpt>
      <trkpt lat="40.2237250" lon="-3.7112730">
        <ele>653.0</ele>
        <time>2019-04-28T15:49:12Z</time>
      </trkpt>
      <trkpt lat="40.2237650" lon="-3.7112460">
        <ele>653.2</ele>
        <time>2019-04-28T15:49:13Z</time>
      </trkpt>
      <trkpt lat="40.2238040" lon="-3.7112190">
        <ele>653.2</ele>
        <time>2019-04-28T15:49:14Z</time>
      </trkpt>
      <trkpt lat="40.2238440" lon="-3.7111930">
        <ele>653.2</ele>
        <time>2019-04-28T15:49:15Z</time>
      </trkpt>
      <trkpt lat="40.2238860" lon="-3.7111670">
        <ele>653.0</ele>
        <time>2019-04-28T15:49:16Z</time>
      </trkpt>
      <trkpt lat="40.2239280" lon="-3.7111400">
        <ele>653.0</ele>
        <time>2019-04-28T15:49:17Z</time>
      </trkpt>
      <trkpt lat="40.2239710" lon="-3.7111120">
        <ele>653.0</ele>
        <time>2019-04-28T15:49:18Z</time>
      </trkpt>
      <trkpt lat="40.2240150" lon="-3.7110860">
        <ele>653.0</ele>
        <time>2019-04-28T15:49:19Z</time>
      </trkpt>
      <trkpt lat="40.2240610" lon="-3.7110600">
        <ele>653.0</ele>
        <time>2019-04-28T15:49:20Z</time>
      </trkpt>
      <trkpt lat="40.2241080" lon="-3.7110350">
        <ele>652.8</ele>
        <time>2019-04-28T15:49:21Z</time>
      </trkpt>
      <trkpt lat="40.2241560" lon="-3.7110140">
        <ele>652.8</ele>
        <time>2019-04-28T15:49:22Z</time>
      </trkpt>
      <trkpt lat="40.2242050" lon="-3.7109930">
        <ele>652.8</ele>
        <time>2019-04-28T15:49:23Z</time>
      </trkpt>
      <trkpt lat="40.2242540" lon="-3.7109670">
        <ele>653.0</ele>
        <time>2019-04-28T15:49:24Z</time>
      </trkpt>
      <trkpt lat="40.2243010" lon="-3.7109380">
        <ele>653.0</ele>
        <time>2019-04-28T15:49:25Z</time>
      </trkpt>
      <trkpt lat="40.2243500" lon="-3.7109100">
        <ele>652.8</ele>
        <time>2019-04-28T15:49:26Z</time>
      </trkpt>
      <trkpt lat="40.2243990" lon="-3.7108840">
        <ele>652.8</ele>
        <time>2019-04-28T15:49:27Z</time>
      </trkpt>
      <trkpt lat="40.2244480" lon="-3.7108600">
        <ele>652.6</ele>
        <time>2019-04-28T15:49:28Z</time>
      </trkpt>
      <trkpt lat="40.2244960" lon="-3.7108350">
        <ele>652.6</ele>
        <time>2019-04-28T15:49:29Z</time>
      </trkpt>
      <trkpt lat="40.2245440" lon="-3.7108100">
        <ele>652.6</ele>
        <time>2019-04-28T15:49:30Z</time>
      </trkpt>
      <trkpt lat="40.2245920" lon="-3.7107870">
        <ele>652.6</ele>
        <time>2019-04-28T15:49:31Z</time>
      </trkpt>
      <trkpt lat="40.2246390" lon="-3.7107660">
        <ele>652.6</ele>
        <time>2019-04-28T15:49:32Z</time>
      </trkpt>
      <trkpt lat="40.2246880" lon="-3.7107430">
        <ele>652.6</ele>
        <time>2019-04-28T15:49:33Z</time>
      </trkpt>
      <trkpt lat="40.2247330" lon="-3.7107160">
        <ele>652.6</ele>
        <time>2019-04-28T15:49:34Z</time>
      </trkpt>
      <trkpt lat="40.2247790" lon="-3.7106880">
        <ele>652.8</ele>
        <time>2019-04-28T15:49:35Z</time>
      </trkpt>
      <trkpt lat="40.2248240" lon="-3.7106590">
        <ele>652.8</ele>
        <time>2019-04-28T15:49:36Z</time>
      </trkpt>
      <trkpt lat="40.2248730" lon="-3.7106310">
        <ele>652.8</ele>
        <time>2019-04-28T15:49:37Z</time>
      </trkpt>
      <trkpt lat="40.2249220" lon="-3.7106020">
        <ele>652.8</ele>
        <time>2019-04-28T15:49:38Z</time>
      </trkpt>
      <trkpt lat="40.2249690" lon="-3.7105720">
        <ele>653.0</ele>
        <time>2019-04-28T15:49:39Z</time>
      </trkpt>
      <trkpt lat="40.2250160" lon="-3.7105440">
        <ele>653.2</ele>
        <time>2019-04-28T15:49:40Z</time>
      </trkpt>
      <trkpt lat="40.2250620" lon="-3.7105170">
        <ele>652.6</ele>
        <time>2019-04-28T15:49:41Z</time>
      </trkpt>
      <trkpt lat="40.2251080" lon="-3.7104900">
        <ele>652.8</ele>
        <time>2019-04-28T15:49:42Z</time>
      </trkpt>
      <trkpt lat="40.2251550" lon="-3.7104660">
        <ele>653.0</ele>
        <time>2019-04-28T15:49:43Z</time>
      </trkpt>
      <trkpt lat="40.2252000" lon="-3.7104430">
        <ele>653.0</ele>
        <time>2019-04-28T15:49:44Z</time>
      </trkpt>
      <trkpt lat="40.2252460" lon="-3.7104160">
        <ele>653.0</ele>
        <time>2019-04-28T15:49:45Z</time>
      </trkpt>
      <trkpt lat="40.2252890" lon="-3.7103900">
        <ele>653.0</ele>
        <time>2019-04-28T15:49:46Z</time>
      </trkpt>
      <trkpt lat="40.2253350" lon="-3.7103650">
        <ele>653.2</ele>
        <time>2019-04-28T15:49:47Z</time>
      </trkpt>
      <trkpt lat="40.2253810" lon="-3.7103430">
        <ele>653.2</ele>
        <time>2019-04-28T15:49:48Z</time>
      </trkpt>
      <trkpt lat="40.2254280" lon="-3.7103210">
        <ele>653.4</ele>
        <time>2019-04-28T15:49:49Z</time>
      </trkpt>
      <trkpt lat="40.2254690" lon="-3.7102980">
        <ele>653.4</ele>
        <time>2019-04-28T15:49:50Z</time>
      </trkpt>
      <trkpt lat="40.2255100" lon="-3.7102750">
        <ele>653.6</ele>
        <time>2019-04-28T15:49:51Z</time>
      </trkpt>
      <trkpt lat="40.2255520" lon="-3.7102510">
        <ele>653.6</ele>
        <time>2019-04-28T15:49:52Z</time>
      </trkpt>
      <trkpt lat="40.2255940" lon="-3.7102280">
        <ele>653.6</ele>
        <time>2019-04-28T15:49:53Z</time>
      </trkpt>
      <trkpt lat="40.2256330" lon="-3.7102060">
        <ele>653.6</ele>
        <time>2019-04-28T15:49:54Z</time>
      </trkpt>
      <trkpt lat="40.2256740" lon="-3.7101860">
        <ele>653.6</ele>
        <time>2019-04-28T15:49:55Z</time>
      </trkpt>
      <trkpt lat="40.2257140" lon="-3.7101630">
        <ele>653.6</ele>
        <time>2019-04-28T15:49:56Z</time>
      </trkpt>
      <trkpt lat="40.2257540" lon="-3.7101410">
        <ele>653.6</ele>
        <time>2019-04-28T15:49:57Z</time>
      </trkpt>
      <trkpt lat="40.2257930" lon="-3.7101210">
        <ele>653.6</ele>
        <time>2019-04-28T15:49:58Z</time>
      </trkpt>
      <trkpt lat="40.2258340" lon="-3.7100980">
        <ele>653.8</ele>
        <time>2019-04-28T15:49:59Z</time>
      </trkpt>
      <trkpt lat="40.2258760" lon="-3.7100750">
        <ele>653.8</ele>
        <time>2019-04-28T15:50:00Z</time>
      </trkpt>
      <trkpt lat="40.2259190" lon="-3.7100490">
        <ele>653.8</ele>
        <time>2019-04-28T15:50:01Z</time>
      </trkpt>
      <trkpt lat="40.2259620" lon="-3.7100270">
        <ele>653.6</ele>
        <time>2019-04-28T15:50:02Z</time>
      </trkpt>
      <trkpt lat="40.2260060" lon="-3.7100040">
        <ele>653.4</ele>
        <time>2019-04-28T15:50:03Z</time>
      </trkpt>
      <trkpt lat="40.2260530" lon="-3.7099810">
        <ele>653.2</ele>
        <time>2019-04-28T15:50:04Z</time>
      </trkpt>
      <trkpt lat="40.2260990" lon="-3.7099550">
        <ele>653.2</ele>
        <time>2019-04-28T15:50:05Z</time>
      </trkpt>
      <trkpt lat="40.2261430" lon="-3.7099350">
        <ele>653.2</ele>
        <time>2019-04-28T15:50:06Z</time>
      </trkpt>
      <trkpt lat="40.2261780" lon="-3.7099130">
        <ele>653.2</ele>
        <time>2019-04-28T15:50:07Z</time>
      </trkpt>
      <trkpt lat="40.2262150" lon="-3.7098870">
        <ele>652.8</ele>
        <time>2019-04-28T15:50:08Z</time>
      </trkpt>
      <trkpt lat="40.2262570" lon="-3.7098620">
        <ele>652.8</ele>
        <time>2019-04-28T15:50:09Z</time>
      </trkpt>
      <trkpt lat="40.2263020" lon="-3.7098380">
        <ele>652.8</ele>
        <time>2019-04-28T15:50:10Z</time>
      </trkpt>
      <trkpt lat="40.2263470" lon="-3.7098120">
        <ele>652.8</ele>
        <time>2019-04-28T15:50:11Z</time>
      </trkpt>
      <trkpt lat="40.2263910" lon="-3.7097850">
        <ele>652.8</ele>
        <time>2019-04-28T15:50:12Z</time>
      </trkpt>
      <trkpt lat="40.2264320" lon="-3.7097540">
        <ele>652.8</ele>
        <time>2019-04-28T15:50:13Z</time>
      </trkpt>
      <trkpt lat="40.2264730" lon="-3.7097210">
        <ele>652.8</ele>
        <time>2019-04-28T15:50:14Z</time>
      </trkpt>
      <trkpt lat="40.2265130" lon="-3.7096900">
        <ele>652.8</ele>
        <time>2019-04-28T15:50:15Z</time>
      </trkpt>
      <trkpt lat="40.2265550" lon="-3.7096590">
        <ele>652.8</ele>
        <time>2019-04-28T15:50:16Z</time>
      </trkpt>
      <trkpt lat="40.2265970" lon="-3.7096250">
        <ele>652.8</ele>
        <time>2019-04-28T15:50:17Z</time>
      </trkpt>
      <trkpt lat="40.2266390" lon="-3.7095900">
        <ele>652.8</ele>
        <time>2019-04-28T15:50:18Z</time>
      </trkpt>
      <trkpt lat="40.2266790" lon="-3.7095560">
        <ele>652.8</ele>
        <time>2019-04-28T15:50:19Z</time>
      </trkpt>
      <trkpt lat="40.2267210" lon="-3.7095230">
        <ele>652.8</ele>
        <time>2019-04-28T15:50:20Z</time>
      </trkpt>
      <trkpt lat="40.2267620" lon="-3.7094900">
        <ele>652.8</ele>
        <time>2019-04-28T15:50:21Z</time>
      </trkpt>
      <trkpt lat="40.2268000" lon="-3.7094510">
        <ele>652.6</ele>
        <time>2019-04-28T15:50:22Z</time>
      </trkpt>
      <trkpt lat="40.2268390" lon="-3.7094100">
        <ele>652.0</ele>
        <time>2019-04-28T15:50:23Z</time>
      </trkpt>
      <trkpt lat="40.2268800" lon="-3.7093670">
        <ele>652.0</ele>
        <time>2019-04-28T15:50:24Z</time>
      </trkpt>
      <trkpt lat="40.2269220" lon="-3.7093240">
        <ele>651.6</ele>
        <time>2019-04-28T15:50:25Z</time>
      </trkpt>
      <trkpt lat="40.2269630" lon="-3.7092810">
        <ele>651.6</ele>
        <time>2019-04-28T15:50:26Z</time>
      </trkpt>
      <trkpt lat="40.2270070" lon="-3.7092380">
        <ele>651.6</ele>
        <time>2019-04-28T15:50:27Z</time>
      </trkpt>
      <trkpt lat="40.2270510" lon="-3.7091920">
        <ele>651.4</ele>
        <time>2019-04-28T15:50:28Z</time>
      </trkpt>
      <trkpt lat="40.2270970" lon="-3.7091490">
        <ele>651.4</ele>
        <time>2019-04-28T15:50:29Z</time>
      </trkpt>
      <trkpt lat="40.2271430" lon="-3.7091070">
        <ele>651.0</ele>
        <time>2019-04-28T15:50:30Z</time>
      </trkpt>
      <trkpt lat="40.2271870" lon="-3.7090640">
        <ele>651.0</ele>
        <time>2019-04-28T15:50:31Z</time>
      </trkpt>
      <trkpt lat="40.2272320" lon="-3.7090160">
        <ele>651.0</ele>
        <time>2019-04-28T15:50:32Z</time>
      </trkpt>
      <trkpt lat="40.2272780" lon="-3.7089670">
        <ele>651.0</ele>
        <time>2019-04-28T15:50:33Z</time>
      </trkpt>
      <trkpt lat="40.2273240" lon="-3.7089160">
        <ele>650.6</ele>
        <time>2019-04-28T15:50:34Z</time>
      </trkpt>
      <trkpt lat="40.2273720" lon="-3.7088680">
        <ele>650.2</ele>
        <time>2019-04-28T15:50:35Z</time>
      </trkpt>
      <trkpt lat="40.2274210" lon="-3.7088220">
        <ele>649.8</ele>
        <time>2019-04-28T15:50:36Z</time>
      </trkpt>
      <trkpt lat="40.2274680" lon="-3.7087750">
        <ele>649.8</ele>
        <time>2019-04-28T15:50:37Z</time>
      </trkpt>
      <trkpt lat="40.2275140" lon="-3.7087280">
        <ele>649.6</ele>
        <time>2019-04-28T15:50:38Z</time>
      </trkpt>
      <trkpt lat="40.2275580" lon="-3.7086800">
        <ele>649.6</ele>
        <time>2019-04-28T15:50:39Z</time>
      </trkpt>
      <trkpt lat="40.2276030" lon="-3.7086360">
        <ele>649.6</ele>
        <time>2019-04-28T15:50:40Z</time>
      </trkpt>
      <trkpt lat="40.2276480" lon="-3.7085900">
        <ele>649.2</ele>
        <time>2019-04-28T15:50:41Z</time>
      </trkpt>
      <trkpt lat="40.2276940" lon="-3.7085440">
        <ele>649.4</ele>
        <time>2019-04-28T15:50:42Z</time>
      </trkpt>
      <trkpt lat="40.2277400" lon="-3.7084980">
        <ele>649.2</ele>
        <time>2019-04-28T15:50:43Z</time>
      </trkpt>
      <trkpt lat="40.2277850" lon="-3.7084520">
        <ele>649.2</ele>
        <time>2019-04-28T15:50:44Z</time>
      </trkpt>
      <trkpt lat="40.2278290" lon="-3.7084080">
        <ele>649.0</ele>
        <time>2019-04-28T15:50:45Z</time>
      </trkpt>
      <trkpt lat="40.2278710" lon="-3.7083640">
        <ele>649.0</ele>
        <time>2019-04-28T15:50:46Z</time>
      </trkpt>
      <trkpt lat="40.2279150" lon="-3.7083170">
        <ele>649.0</ele>
        <time>2019-04-28T15:50:47Z</time>
      </trkpt>
      <trkpt lat="40.2279610" lon="-3.7082740">
        <ele>649.0</ele>
        <time>2019-04-28T15:50:48Z</time>
      </trkpt>
      <trkpt lat="40.2280110" lon="-3.7082330">
        <ele>648.6</ele>
        <time>2019-04-28T15:50:49Z</time>
      </trkpt>
      <trkpt lat="40.2280610" lon="-3.7081920">
        <ele>648.6</ele>
        <time>2019-04-28T15:50:50Z</time>
      </trkpt>
      <trkpt lat="40.2281090" lon="-3.7081500">
        <ele>648.6</ele>
        <time>2019-04-28T15:50:51Z</time>
      </trkpt>
      <trkpt lat="40.2281580" lon="-3.7081050">
        <ele>648.6</ele>
        <time>2019-04-28T15:50:52Z</time>
      </trkpt>
      <trkpt lat="40.2282090" lon="-3.7080620">
        <ele>648.6</ele>
        <time>2019-04-28T15:50:53Z</time>
      </trkpt>
      <trkpt lat="40.2282600" lon="-3.7080200">
        <ele>648.4</ele>
        <time>2019-04-28T15:50:54Z</time>
      </trkpt>
      <trkpt lat="40.2283080" lon="-3.7079770">
        <ele>648.6</ele>
        <time>2019-04-28T15:50:55Z</time>
      </trkpt>
      <trkpt lat="40.2283570" lon="-3.7079350">
        <ele>648.8</ele>
        <time>2019-04-28T15:50:56Z</time>
      </trkpt>
      <trkpt lat="40.2284060" lon="-3.7078910">
        <ele>648.8</ele>
        <time>2019-04-28T15:50:57Z</time>
      </trkpt>
      <trkpt lat="40.2284560" lon="-3.7078460">
        <ele>648.6</ele>
        <time>2019-04-28T15:50:58Z</time>
      </trkpt>
      <trkpt lat="40.2285090" lon="-3.7078010">
        <ele>648.6</ele>
        <time>2019-04-28T15:50:59Z</time>
      </trkpt>
      <trkpt lat="40.2285610" lon="-3.7077580">
        <ele>648.6</ele>
        <time>2019-04-28T15:51:00Z</time>
      </trkpt>
      <trkpt lat="40.2286110" lon="-3.7077160">
        <ele>648.6</ele>
        <time>2019-04-28T15:51:01Z</time>
      </trkpt>
      <trkpt lat="40.2286600" lon="-3.7076720">
        <ele>648.4</ele>
        <time>2019-04-28T15:51:02Z</time>
      </trkpt>
      <trkpt lat="40.2287090" lon="-3.7076270">
        <ele>648.2</ele>
        <time>2019-04-28T15:51:03Z</time>
      </trkpt>
      <trkpt lat="40.2287580" lon="-3.7075810">
        <ele>648.2</ele>
        <time>2019-04-28T15:51:04Z</time>
      </trkpt>
      <trkpt lat="40.2288080" lon="-3.7075350">
        <ele>648.2</ele>
        <time>2019-04-28T15:51:05Z</time>
      </trkpt>
      <trkpt lat="40.2288570" lon="-3.7074940">
        <ele>648.2</ele>
        <time>2019-04-28T15:51:06Z</time>
      </trkpt>
      <trkpt lat="40.2289070" lon="-3.7074540">
        <ele>648.2</ele>
        <time>2019-04-28T15:51:07Z</time>
      </trkpt>
      <trkpt lat="40.2289560" lon="-3.7074090">
        <ele>648.0</ele>
        <time>2019-04-28T15:51:08Z</time>
      </trkpt>
      <trkpt lat="40.2290050" lon="-3.7073640">
        <ele>648.0</ele>
        <time>2019-04-28T15:51:09Z</time>
      </trkpt>
      <trkpt lat="40.2290530" lon="-3.7073190">
        <ele>647.8</ele>
        <time>2019-04-28T15:51:10Z</time>
      </trkpt>
      <trkpt lat="40.2291020" lon="-3.7072720">
        <ele>647.8</ele>
        <time>2019-04-28T15:51:11Z</time>
      </trkpt>
      <trkpt lat="40.2291490" lon="-3.7072280">
        <ele>647.8</ele>
        <time>2019-04-28T15:51:12Z</time>
      </trkpt>
      <trkpt lat="40.2291970" lon="-3.7071820">
        <ele>648.0</ele>
        <time>2019-04-28T15:51:13Z</time>
      </trkpt>
      <trkpt lat="40.2292460" lon="-3.7071330">
        <ele>648.0</ele>
        <time>2019-04-28T15:51:14Z</time>
      </trkpt>
      <trkpt lat="40.2292940" lon="-3.7070820">
        <ele>648.0</ele>
        <time>2019-04-28T15:51:15Z</time>
      </trkpt>
      <trkpt lat="40.2293420" lon="-3.7070330">
        <ele>648.0</ele>
        <time>2019-04-28T15:51:16Z</time>
      </trkpt>
      <trkpt lat="40.2293870" lon="-3.7069820">
        <ele>647.8</ele>
        <time>2019-04-28T15:51:17Z</time>
      </trkpt>
      <trkpt lat="40.2294300" lon="-3.7069300">
        <ele>647.8</ele>
        <time>2019-04-28T15:51:18Z</time>
      </trkpt>
      <trkpt lat="40.2294750" lon="-3.7068780">
        <ele>647.8</ele>
        <time>2019-04-28T15:51:19Z</time>
      </trkpt>
      <trkpt lat="40.2295200" lon="-3.7068230">
        <ele>647.8</ele>
        <time>2019-04-28T15:51:20Z</time>
      </trkpt>
      <trkpt lat="40.2295660" lon="-3.7067700">
        <ele>647.6</ele>
        <time>2019-04-28T15:51:21Z</time>
      </trkpt>
      <trkpt lat="40.2296130" lon="-3.7067240">
        <ele>647.6</ele>
        <time>2019-04-28T15:51:22Z</time>
      </trkpt>
      <trkpt lat="40.2296620" lon="-3.7066800">
        <ele>647.6</ele>
        <time>2019-04-28T15:51:23Z</time>
      </trkpt>
      <trkpt lat="40.2297090" lon="-3.7066390">
        <ele>647.4</ele>
        <time>2019-04-28T15:51:24Z</time>
      </trkpt>
      <trkpt lat="40.2297560" lon="-3.7066020">
        <ele>647.4</ele>
        <time>2019-04-28T15:51:25Z</time>
      </trkpt>
      <trkpt lat="40.2298020" lon="-3.7065620">
        <ele>647.4</ele>
        <time>2019-04-28T15:51:26Z</time>
      </trkpt>
      <trkpt lat="40.2298520" lon="-3.7065220">
        <ele>647.4</ele>
        <time>2019-04-28T15:51:27Z</time>
      </trkpt>
      <trkpt lat="40.2299040" lon="-3.7064840">
        <ele>647.6</ele>
        <time>2019-04-28T15:51:28Z</time>
      </trkpt>
      <trkpt lat="40.2299570" lon="-3.7064460">
        <ele>647.6</ele>
        <time>2019-04-28T15:51:29Z</time>
      </trkpt>
      <trkpt lat="40.2300090" lon="-3.7064090">
        <ele>647.4</ele>
        <time>2019-04-28T15:51:30Z</time>
      </trkpt>
      <trkpt lat="40.2300600" lon="-3.7063720">
        <ele>647.4</ele>
        <time>2019-04-28T15:51:31Z</time>
      </trkpt>
      <trkpt lat="40.2301140" lon="-3.7063360">
        <ele>647.4</ele>
        <time>2019-04-28T15:51:32Z</time>
      </trkpt>
      <trkpt lat="40.2301640" lon="-3.7062980">
        <ele>647.4</ele>
        <time>2019-04-28T15:51:33Z</time>
      </trkpt>
      <trkpt lat="40.2302140" lon="-3.7062640">
        <ele>647.4</ele>
        <time>2019-04-28T15:51:34Z</time>
      </trkpt>
      <trkpt lat="40.2302670" lon="-3.7062270">
        <ele>647.4</ele>
        <time>2019-04-28T15:51:35Z</time>
      </trkpt>
      <trkpt lat="40.2303210" lon="-3.7061890">
        <ele>647.4</ele>
        <time>2019-04-28T15:51:36Z</time>
      </trkpt>
      <trkpt lat="40.2303740" lon="-3.7061490">
        <ele>647.4</ele>
        <time>2019-04-28T15:51:37Z</time>
      </trkpt>
      <trkpt lat="40.2304260" lon="-3.7061110">
        <ele>647.4</ele>
        <time>2019-04-28T15:51:38Z</time>
      </trkpt>
      <trkpt lat="40.2304750" lon="-3.7060750">
        <ele>647.4</ele>
        <time>2019-04-28T15:51:39Z</time>
      </trkpt>
      <trkpt lat="40.2305260" lon="-3.7060430">
        <ele>647.6</ele>
        <time>2019-04-28T15:51:40Z</time>
      </trkpt>
      <trkpt lat="40.2305800" lon="-3.7060140">
        <ele>647.6</ele>
        <time>2019-04-28T15:51:41Z</time>
      </trkpt>
      <trkpt lat="40.2306340" lon="-3.7059840">
        <ele>647.8</ele>
        <time>2019-04-28T15:51:42Z</time>
      </trkpt>
      <trkpt lat="40.2306890" lon="-3.7059510">
        <ele>647.8</ele>
        <time>2019-04-28T15:51:43Z</time>
      </trkpt>
      <trkpt lat="40.2307460" lon="-3.7059140">
        <ele>647.8</ele>
        <time>2019-04-28T15:51:44Z</time>
      </trkpt>
      <trkpt lat="40.2308010" lon="-3.7058750">
        <ele>648.0</ele>
        <time>2019-04-28T15:51:45Z</time>
      </trkpt>
      <trkpt lat="40.2308530" lon="-3.7058370">
        <ele>648.0</ele>
        <time>2019-04-28T15:51:46Z</time>
      </trkpt>
      <trkpt lat="40.2309030" lon="-3.7057990">
        <ele>648.0</ele>
        <time>2019-04-28T15:51:47Z</time>
      </trkpt>
      <trkpt lat="40.2309540" lon="-3.7057620">
        <ele>648.2</ele>
        <time>2019-04-28T15:51:48Z</time>
      </trkpt>
      <trkpt lat="40.2310040" lon="-3.7057270">
        <ele>648.2</ele>
        <time>2019-04-28T15:51:49Z</time>
      </trkpt>
      <trkpt lat="40.2310520" lon="-3.7056960">
        <ele>648.2</ele>
        <time>2019-04-28T15:51:50Z</time>
      </trkpt>
      <trkpt lat="40.2311020" lon="-3.7056590">
        <ele>648.0</ele>
        <time>2019-04-28T15:51:51Z</time>
      </trkpt>
      <trkpt lat="40.2311540" lon="-3.7056210">
        <ele>648.0</ele>
        <time>2019-04-28T15:51:52Z</time>
      </trkpt>
      <trkpt lat="40.2312050" lon="-3.7055830">
        <ele>648.2</ele>
        <time>2019-04-28T15:51:53Z</time>
      </trkpt>
      <trkpt lat="40.2312550" lon="-3.7055470">
        <ele>648.2</ele>
        <time>2019-04-28T15:51:54Z</time>
      </trkpt>
      <trkpt lat="40.2313040" lon="-3.7055120">
        <ele>648.2</ele>
        <time>2019-04-28T15:51:55Z</time>
      </trkpt>
      <trkpt lat="40.2313530" lon="-3.7054790">
        <ele>648.2</ele>
        <time>2019-04-28T15:51:56Z</time>
      </trkpt>
      <trkpt lat="40.2314020" lon="-3.7054440">
        <ele>648.2</ele>
        <time>2019-04-28T15:51:57Z</time>
      </trkpt>
      <trkpt lat="40.2314480" lon="-3.7054100">
        <ele>648.0</ele>
        <time>2019-04-28T15:51:58Z</time>
      </trkpt>
      <trkpt lat="40.2314960" lon="-3.7053760">
        <ele>648.2</ele>
        <time>2019-04-28T15:51:59Z</time>
      </trkpt>
      <trkpt lat="40.2315410" lon="-3.7053450">
        <ele>648.2</ele>
        <time>2019-04-28T15:52:00Z</time>
      </trkpt>
      <trkpt lat="40.2315840" lon="-3.7053180">
        <ele>648.2</ele>
        <time>2019-04-28T15:52:01Z</time>
      </trkpt>
      <trkpt lat="40.2316310" lon="-3.7052900">
        <ele>648.2</ele>
        <time>2019-04-28T15:52:02Z</time>
      </trkpt>
      <trkpt lat="40.2316540" lon="-3.7052700">
        <ele>648.2</ele>
        <time>2019-04-28T15:52:03Z</time>
      </trkpt>
      <trkpt lat="40.2316940" lon="-3.7052360">
        <ele>648.2</ele>
        <time>2019-04-28T15:52:04Z</time>
      </trkpt>
      <trkpt lat="40.2317410" lon="-3.7051920">
        <ele>648.2</ele>
        <time>2019-04-28T15:52:05Z</time>
      </trkpt>
      <trkpt lat="40.2317910" lon="-3.7051440">
        <ele>648.0</ele>
        <time>2019-04-28T15:52:06Z</time>
      </trkpt>
      <trkpt lat="40.2318410" lon="-3.7050980">
        <ele>648.0</ele>
        <time>2019-04-28T15:52:07Z</time>
      </trkpt>
      <trkpt lat="40.2318930" lon="-3.7050520">
        <ele>648.0</ele>
        <time>2019-04-28T15:52:08Z</time>
      </trkpt>
      <trkpt lat="40.2319470" lon="-3.7050090">
        <ele>648.0</ele>
        <time>2019-04-28T15:52:09Z</time>
      </trkpt>
      <trkpt lat="40.2320010" lon="-3.7049650">
        <ele>647.8</ele>
        <time>2019-04-28T15:52:10Z</time>
      </trkpt>
      <trkpt lat="40.2320560" lon="-3.7049240">
        <ele>647.6</ele>
        <time>2019-04-28T15:52:11Z</time>
      </trkpt>
      <trkpt lat="40.2321080" lon="-3.7048840">
        <ele>647.6</ele>
        <time>2019-04-28T15:52:12Z</time>
      </trkpt>
      <trkpt lat="40.2321570" lon="-3.7048420">
        <ele>647.6</ele>
        <time>2019-04-28T15:52:13Z</time>
      </trkpt>
      <trkpt lat="40.2322090" lon="-3.7047990">
        <ele>647.6</ele>
        <time>2019-04-28T15:52:14Z</time>
      </trkpt>
      <trkpt lat="40.2322610" lon="-3.7047580">
        <ele>647.4</ele>
        <time>2019-04-28T15:52:15Z</time>
      </trkpt>
      <trkpt lat="40.2323170" lon="-3.7047170">
        <ele>647.4</ele>
        <time>2019-04-28T15:52:16Z</time>
      </trkpt>
      <trkpt lat="40.2323710" lon="-3.7046760">
        <ele>647.6</ele>
        <time>2019-04-28T15:52:17Z</time>
      </trkpt>
      <trkpt lat="40.2324270" lon="-3.7046360">
        <ele>647.6</ele>
        <time>2019-04-28T15:52:18Z</time>
      </trkpt>
      <trkpt lat="40.2324840" lon="-3.7045970">
        <ele>647.6</ele>
        <time>2019-04-28T15:52:19Z</time>
      </trkpt>
      <trkpt lat="40.2325390" lon="-3.7045570">
        <ele>647.4</ele>
        <time>2019-04-28T15:52:20Z</time>
      </trkpt>
      <trkpt lat="40.2325930" lon="-3.7045200">
        <ele>647.4</ele>
        <time>2019-04-28T15:52:21Z</time>
      </trkpt>
      <trkpt lat="40.2326490" lon="-3.7044840">
        <ele>647.6</ele>
        <time>2019-04-28T15:52:22Z</time>
      </trkpt>
      <trkpt lat="40.2327030" lon="-3.7044470">
        <ele>647.6</ele>
        <time>2019-04-28T15:52:23Z</time>
      </trkpt>
      <trkpt lat="40.2327570" lon="-3.7044100">
        <ele>647.4</ele>
        <time>2019-04-28T15:52:24Z</time>
      </trkpt>
      <trkpt lat="40.2328120" lon="-3.7043740">
        <ele>647.4</ele>
        <time>2019-04-28T15:52:25Z</time>
      </trkpt>
      <trkpt lat="40.2328640" lon="-3.7043390">
        <ele>647.2</ele>
        <time>2019-04-28T15:52:26Z</time>
      </trkpt>
      <trkpt lat="40.2329130" lon="-3.7043020">
        <ele>647.4</ele>
        <time>2019-04-28T15:52:27Z</time>
      </trkpt>
      <trkpt lat="40.2329630" lon="-3.7042630">
        <ele>647.4</ele>
        <time>2019-04-28T15:52:28Z</time>
      </trkpt>
      <trkpt lat="40.2330120" lon="-3.7042280">
        <ele>647.4</ele>
        <time>2019-04-28T15:52:29Z</time>
      </trkpt>
      <trkpt lat="40.2330590" lon="-3.7041910">
        <ele>647.6</ele>
        <time>2019-04-28T15:52:30Z</time>
      </trkpt>
      <trkpt lat="40.2331020" lon="-3.7041540">
        <ele>647.6</ele>
        <time>2019-04-28T15:52:31Z</time>
      </trkpt>
      <trkpt lat="40.2331450" lon="-3.7041200">
        <ele>647.6</ele>
        <time>2019-04-28T15:52:32Z</time>
      </trkpt>
      <trkpt lat="40.2331870" lon="-3.7040810">
        <ele>647.8</ele>
        <time>2019-04-28T15:52:33Z</time>
      </trkpt>
      <trkpt lat="40.2332290" lon="-3.7040380">
        <ele>647.8</ele>
        <time>2019-04-28T15:52:34Z</time>
      </trkpt>
      <trkpt lat="40.2332740" lon="-3.7039960">
        <ele>647.8</ele>
        <time>2019-04-28T15:52:35Z</time>
      </trkpt>
      <trkpt lat="40.2333200" lon="-3.7039570">
        <ele>647.6</ele>
        <time>2019-04-28T15:52:36Z</time>
      </trkpt>
      <trkpt lat="40.2333630" lon="-3.7039160">
        <ele>647.4</ele>
        <time>2019-04-28T15:52:37Z</time>
      </trkpt>
      <trkpt lat="40.2334050" lon="-3.7038730">
        <ele>647.4</ele>
        <time>2019-04-28T15:52:38Z</time>
      </trkpt>
      <trkpt lat="40.2334500" lon="-3.7038270">
        <ele>647.4</ele>
        <time>2019-04-28T15:52:39Z</time>
      </trkpt>
      <trkpt lat="40.2334930" lon="-3.7037830">
        <ele>647.6</ele>
        <time>2019-04-28T15:52:40Z</time>
      </trkpt>
      <trkpt lat="40.2335370" lon="-3.7037400">
        <ele>647.4</ele>
        <time>2019-04-28T15:52:41Z</time>
      </trkpt>
      <trkpt lat="40.2335820" lon="-3.7036950">
        <ele>647.4</ele>
        <time>2019-04-28T15:52:42Z</time>
      </trkpt>
      <trkpt lat="40.2336280" lon="-3.7036480">
        <ele>647.6</ele>
        <time>2019-04-28T15:52:43Z</time>
      </trkpt>
      <trkpt lat="40.2336750" lon="-3.7036020">
        <ele>647.4</ele>
        <time>2019-04-28T15:52:44Z</time>
      </trkpt>
      <trkpt lat="40.2337210" lon="-3.7035540">
        <ele>647.4</ele>
        <time>2019-04-28T15:52:45Z</time>
      </trkpt>
      <trkpt lat="40.2337670" lon="-3.7035070">
        <ele>647.6</ele>
        <time>2019-04-28T15:52:46Z</time>
      </trkpt>
      <trkpt lat="40.2338100" lon="-3.7034590">
        <ele>647.4</ele>
        <time>2019-04-28T15:52:47Z</time>
      </trkpt>
      <trkpt lat="40.2338530" lon="-3.7034110">
        <ele>647.4</ele>
        <time>2019-04-28T15:52:48Z</time>
      </trkpt>
      <trkpt lat="40.2338940" lon="-3.7033660">
        <ele>647.4</ele>
        <time>2019-04-28T15:52:49Z</time>
      </trkpt>
      <trkpt lat="40.2339340" lon="-3.7033220">
        <ele>647.6</ele>
        <time>2019-04-28T15:52:50Z</time>
      </trkpt>
      <trkpt lat="40.2339730" lon="-3.7032800">
        <ele>648.0</ele>
        <time>2019-04-28T15:52:51Z</time>
      </trkpt>
      <trkpt lat="40.2340110" lon="-3.7032370">
        <ele>648.4</ele>
        <time>2019-04-28T15:52:52Z</time>
      </trkpt>
      <trkpt lat="40.2340510" lon="-3.7031960">
        <ele>648.8</ele>
        <time>2019-04-28T15:52:53Z</time>
      </trkpt>
      <trkpt lat="40.2340900" lon="-3.7031530">
        <ele>649.2</ele>
        <time>2019-04-28T15:52:54Z</time>
      </trkpt>
      <trkpt lat="40.2341290" lon="-3.7031130">
        <ele>649.6</ele>
        <time>2019-04-28T15:52:55Z</time>
      </trkpt>
      <trkpt lat="40.2341680" lon="-3.7030760">
        <ele>650.2</ele>
        <time>2019-04-28T15:52:56Z</time>
      </trkpt>
      <trkpt lat="40.2342030" lon="-3.7030470">
        <ele>650.4</ele>
        <time>2019-04-28T15:52:57Z</time>
      </trkpt>
      <trkpt lat="40.2342300" lon="-3.7030160">
        <ele>650.8</ele>
        <time>2019-04-28T15:52:58Z</time>
      </trkpt>
      <trkpt lat="40.2342440" lon="-3.7029860">
        <ele>651.0</ele>
        <time>2019-04-28T15:52:59Z</time>
      </trkpt>
      <trkpt lat="40.2342510" lon="-3.7029570">
        <ele>651.2</ele>
        <time>2019-04-28T15:53:00Z</time>
      </trkpt>
      <trkpt lat="40.2342520" lon="-3.7029240">
        <ele>651.2</ele>
        <time>2019-04-28T15:53:01Z</time>
      </trkpt>
      <trkpt lat="40.2342550" lon="-3.7028870">
        <ele>651.4</ele>
        <time>2019-04-28T15:53:02Z</time>
      </trkpt>
      <trkpt lat="40.2342610" lon="-3.7028450">
        <ele>651.4</ele>
        <time>2019-04-28T15:53:03Z</time>
      </trkpt>
      <trkpt lat="40.2342740" lon="-3.7028000">
        <ele>651.4</ele>
        <time>2019-04-28T15:53:04Z</time>
      </trkpt>
      <trkpt lat="40.2342950" lon="-3.7027610">
        <ele>651.4</ele>
        <time>2019-04-28T15:53:05Z</time>
      </trkpt>
      <trkpt lat="40.2343280" lon="-3.7027280">
        <ele>651.6</ele>
        <time>2019-04-28T15:53:06Z</time>
      </trkpt>
      <trkpt lat="40.2343650" lon="-3.7026980">
        <ele>651.6</ele>
        <time>2019-04-28T15:53:07Z</time>
      </trkpt>
      <trkpt lat="40.2344020" lon="-3.7026640">
        <ele>651.6</ele>
        <time>2019-04-28T15:53:08Z</time>
      </trkpt>
      <trkpt lat="40.2344370" lon="-3.7026300">
        <ele>651.8</ele>
        <time>2019-04-28T15:53:09Z</time>
      </trkpt>
      <trkpt lat="40.2344730" lon="-3.7025930">
        <ele>652.0</ele>
        <time>2019-04-28T15:53:10Z</time>
      </trkpt>
      <trkpt lat="40.2345050" lon="-3.7025540">
        <ele>652.2</ele>
        <time>2019-04-28T15:53:11Z</time>
      </trkpt>
      <trkpt lat="40.2345380" lon="-3.7025140">
        <ele>652.4</ele>
        <time>2019-04-28T15:53:12Z</time>
      </trkpt>
      <trkpt lat="40.2345720" lon="-3.7024730">
        <ele>652.6</ele>
        <time>2019-04-28T15:53:13Z</time>
      </trkpt>
      <trkpt lat="40.2346060" lon="-3.7024330">
        <ele>652.6</ele>
        <time>2019-04-28T15:53:14Z</time>
      </trkpt>
      <trkpt lat="40.2346400" lon="-3.7023910">
        <ele>652.4</ele>
        <time>2019-04-28T15:53:15Z</time>
      </trkpt>
      <trkpt lat="40.2346730" lon="-3.7023490">
        <ele>652.2</ele>
        <time>2019-04-28T15:53:16Z</time>
      </trkpt>
      <trkpt lat="40.2347060" lon="-3.7023050">
        <ele>652.0</ele>
        <time>2019-04-28T15:53:17Z</time>
      </trkpt>
      <trkpt lat="40.2347380" lon="-3.7022600">
        <ele>651.8</ele>
        <time>2019-04-28T15:53:18Z</time>
      </trkpt>
      <trkpt lat="40.2347740" lon="-3.7022100">
        <ele>651.8</ele>
        <time>2019-04-28T15:53:19Z</time>
      </trkpt>
      <trkpt lat="40.2348120" lon="-3.7021610">
        <ele>652.0</ele>
        <time>2019-04-28T15:53:20Z</time>
      </trkpt>
      <trkpt lat="40.2348550" lon="-3.7021090">
        <ele>651.8</ele>
        <time>2019-04-28T15:53:22Z</time>
      </trkpt>
      <trkpt lat="40.2349460" lon="-3.7019790">
        <ele>650.6</ele>
        <time>2019-04-28T15:53:24Z</time>
      </trkpt>
      <trkpt lat="40.2350480" lon="-3.7018250">
        <ele>649.4</ele>
        <time>2019-04-28T15:53:25Z</time>
      </trkpt>
      <trkpt lat="40.2350990" lon="-3.7017430">
        <ele>648.8</ele>
        <time>2019-04-28T15:53:27Z</time>
      </trkpt>
      <trkpt lat="40.2351440" lon="-3.7016490">
        <ele>647.4</ele>
        <time>2019-04-28T15:53:28Z</time>
      </trkpt>
      <trkpt lat="40.2352350" lon="-3.7014610">
        <ele>646.8</ele>
        <time>2019-04-28T15:53:30Z</time>
      </trkpt>
      <trkpt lat="40.2352930" lon="-3.7013660">
        <ele>645.6</ele>
        <time>2019-04-28T15:53:31Z</time>
      </trkpt>
      <trkpt lat="40.2354080" lon="-3.7011770">
        <ele>645.0</ele>
        <time>2019-04-28T15:53:33Z</time>
      </trkpt>
      <trkpt lat="40.2355100" lon="-3.7009930">
        <ele>644.8</ele>
        <time>2019-04-28T15:53:35Z</time>
      </trkpt>
      <trkpt lat="40.2356220" lon="-3.7008230">
        <ele>645.4</ele>
        <time>2019-04-28T15:53:37Z</time>
      </trkpt>
      <trkpt lat="40.2357110" lon="-3.7006730">
        <ele>645.8</ele>
        <time>2019-04-28T15:53:39Z</time>
      </trkpt>
      <trkpt lat="40.2357920" lon="-3.7005230">
        <ele>646.0</ele>
        <time>2019-04-28T15:53:40Z</time>
      </trkpt>
      <trkpt lat="40.2358250" lon="-3.7004450">
        <ele>646.0</ele>
        <time>2019-04-28T15:53:42Z</time>
      </trkpt>
      <trkpt lat="40.2358900" lon="-3.7003450">
        <ele>646.0</ele>
        <time>2019-04-28T15:53:43Z</time>
      </trkpt>
      <trkpt lat="40.2359550" lon="-3.7002440">
        <ele>646.2</ele>
        <time>2019-04-28T15:53:44Z</time>
      </trkpt>
      <trkpt lat="40.2360090" lon="-3.7001890">
        <ele>646.2</ele>
        <time>2019-04-28T15:53:46Z</time>
      </trkpt>
      <trkpt lat="40.2360810" lon="-3.7000690">
        <ele>646.4</ele>
        <time>2019-04-28T15:53:48Z</time>
      </trkpt>
      <trkpt lat="40.2361290" lon="-3.6999200">
        <ele>646.4</ele>
        <time>2019-04-28T15:53:50Z</time>
      </trkpt>
      <trkpt lat="40.2361570" lon="-3.6997620">
        <ele>646.6</ele>
        <time>2019-04-28T15:53:52Z</time>
      </trkpt>
      <trkpt lat="40.2361750" lon="-3.6996020">
        <ele>646.8</ele>
        <time>2019-04-28T15:53:54Z</time>
      </trkpt>
      <trkpt lat="40.2361850" lon="-3.6994530">
        <ele>646.8</ele>
        <time>2019-04-28T15:53:55Z</time>
      </trkpt>
      <trkpt lat="40.2361870" lon="-3.6993790">
        <ele>646.8</ele>
        <time>2019-04-28T15:53:56Z</time>
      </trkpt>
      <trkpt lat="40.2361970" lon="-3.6993000">
        <ele>646.8</ele>
        <time>2019-04-28T15:53:58Z</time>
      </trkpt>
      <trkpt lat="40.2362100" lon="-3.6991410">
        <ele>647.2</ele>
        <time>2019-04-28T15:53:59Z</time>
      </trkpt>
      <trkpt lat="40.2362130" lon="-3.6990630">
        <ele>647.2</ele>
        <time>2019-04-28T15:54:00Z</time>
      </trkpt>
      <trkpt lat="40.2362210" lon="-3.6989840">
        <ele>647.4</ele>
        <time>2019-04-28T15:54:02Z</time>
      </trkpt>
      <trkpt lat="40.2362440" lon="-3.6988280">
        <ele>647.6</ele>
        <time>2019-04-28T15:54:04Z</time>
      </trkpt>
      <trkpt lat="40.2362580" lon="-3.6986860">
        <ele>647.8</ele>
        <time>2019-04-28T15:54:05Z</time>
      </trkpt>
      <trkpt lat="40.2362640" lon="-3.6986210">
        <ele>647.6</ele>
        <time>2019-04-28T15:54:07Z</time>
      </trkpt>
      <trkpt lat="40.2362740" lon="-3.6984930">
        <ele>647.8</ele>
        <time>2019-04-28T15:54:08Z</time>
      </trkpt>
      <trkpt lat="40.2362810" lon="-3.6984420">
        <ele>647.8</ele>
        <time>2019-04-28T15:54:10Z</time>
      </trkpt>
      <trkpt lat="40.2362970" lon="-3.6983290">
        <ele>648.0</ele>
        <time>2019-04-28T15:54:12Z</time>
      </trkpt>
      <trkpt lat="40.2362720" lon="-3.6982380">
        <ele>648.0</ele>
        <time>2019-04-28T15:54:14Z</time>
      </trkpt>
      <trkpt lat="40.2362150" lon="-3.6982060">
        <ele>648.4</ele>
        <time>2019-04-28T15:54:16Z</time>
      </trkpt>
      <trkpt lat="40.2361700" lon="-3.6981900">
        <ele>648.8</ele>
        <time>2019-04-28T15:54:18Z</time>
      </trkpt>
      <trkpt lat="40.2361130" lon="-3.6981710">
        <ele>648.8</ele>
        <time>2019-04-28T15:54:20Z</time>
      </trkpt>
      <trkpt lat="40.2360600" lon="-3.6981570">
        <ele>648.8</ele>
        <time>2019-04-28T15:54:21Z</time>
      </trkpt>
      <trkpt lat="40.2360410" lon="-3.6981500">
        <ele>648.8</ele>
        <time>2019-04-28T15:54:23Z</time>
      </trkpt>
      <trkpt lat="40.2360290" lon="-3.6981360">
        <ele>648.8</ele>
        <time>2019-04-28T15:54:24Z</time>
      </trkpt>
      <trkpt lat="40.2359930" lon="-3.6981070">
        <ele>648.8</ele>
        <time>2019-04-28T15:54:25Z</time>
      </trkpt>
      <trkpt lat="40.2359940" lon="-3.6981080">
        <ele>648.8</ele>
        <time>2019-04-28T15:54:26Z</time>
      </trkpt>
      <trkpt lat="40.2359810" lon="-3.6980940">
        <ele>648.8</ele>
        <time>2019-04-28T15:54:28Z</time>
      </trkpt>
      <trkpt lat="40.2359760" lon="-3.6980900">
        <ele>648.8</ele>
        <time>2019-04-28T15:54:30Z</time>
      </trkpt>
      <trkpt lat="40.2359690" lon="-3.6980810">
        <ele>648.8</ele>
        <time>2019-04-28T15:54:31Z</time>
      </trkpt>
      <trkpt lat="40.2358600" lon="-3.6982180">
        <ele>648.4</ele>
        <time>2019-04-28T15:56:37Z</time>
      </trkpt>
      <trkpt lat="40.2358710" lon="-3.6982370">
        <ele>648.2</ele>
        <time>2019-04-28T15:56:38Z</time>
      </trkpt>
      <trkpt lat="40.2358790" lon="-3.6982590">
        <ele>648.2</ele>
        <time>2019-04-28T15:56:39Z</time>
      </trkpt>
      <trkpt lat="40.2358860" lon="-3.6982740">
        <ele>648.2</ele>
        <time>2019-04-28T15:56:40Z</time>
      </trkpt>
      <trkpt lat="40.2358890" lon="-3.6982830">
        <ele>648.2</ele>
        <time>2019-04-28T15:56:41Z</time>
      </trkpt>
      <trkpt lat="40.2358910" lon="-3.6982840">
        <ele>648.2</ele>
        <time>2019-04-28T15:56:42Z</time>
      </trkpt>
      <trkpt lat="40.2358940" lon="-3.6982830">
        <ele>648.2</ele>
        <time>2019-04-28T15:56:43Z</time>
      </trkpt>
      <trkpt lat="40.2358940" lon="-3.6982880">
        <ele>648.2</ele>
        <time>2019-04-28T15:56:44Z</time>
      </trkpt>
      <trkpt lat="40.2358930" lon="-3.6982940">
        <ele>648.2</ele>
        <time>2019-04-28T15:56:45Z</time>
      </trkpt>
      <trkpt lat="40.2358920" lon="-3.6982970">
        <ele>648.2</ele>
        <time>2019-04-28T15:56:46Z</time>
      </trkpt>
      <trkpt lat="40.2358890" lon="-3.6983050">
        <ele>648.2</ele>
        <time>2019-04-28T15:56:47Z</time>
      </trkpt>
      <trkpt lat="40.2358880" lon="-3.6983110">
        <ele>648.2</ele>
        <time>2019-04-28T15:56:48Z</time>
      </trkpt>
      <trkpt lat="40.2358750" lon="-3.6980680">
        <ele>648.4</ele>
        <time>2019-04-28T16:00:49Z</time>
      </trkpt>
      <trkpt lat="40.2358910" lon="-3.6980400">
        <ele>648.4</ele>
        <time>2019-04-28T16:00:50Z</time>
      </trkpt>
      <trkpt lat="40.2359140" lon="-3.6980190">
        <ele>648.6</ele>
        <time>2019-04-28T16:00:51Z</time>
      </trkpt>
      <trkpt lat="40.2359400" lon="-3.6980060">
        <ele>648.8</ele>
        <time>2019-04-28T16:00:52Z</time>
      </trkpt>
      <trkpt lat="40.2359830" lon="-3.6979990">
        <ele>649.2</ele>
        <time>2019-04-28T16:00:53Z</time>
      </trkpt>
      <trkpt lat="40.2360290" lon="-3.6979950">
        <ele>649.2</ele>
        <time>2019-04-28T16:00:54Z</time>
      </trkpt>
      <trkpt lat="40.2360710" lon="-3.6979930">
        <ele>649.0</ele>
        <time>2019-04-28T16:00:55Z</time>
      </trkpt>
      <trkpt lat="40.2361130" lon="-3.6979930">
        <ele>649.0</ele>
        <time>2019-04-28T16:00:56Z</time>
      </trkpt>
      <trkpt lat="40.2361480" lon="-3.6980010">
        <ele>648.8</ele>
        <time>2019-04-28T16:00:57Z</time>
      </trkpt>
      <trkpt lat="40.2361810" lon="-3.6980100">
        <ele>648.8</ele>
        <time>2019-04-28T16:00:58Z</time>
      </trkpt>
      <trkpt lat="40.2362180" lon="-3.6980220">
        <ele>649.0</ele>
        <time>2019-04-28T16:00:59Z</time>
      </trkpt>
      <trkpt lat="40.2362470" lon="-3.6980350">
        <ele>649.0</ele>
        <time>2019-04-28T16:01:00Z</time>
      </trkpt>
      <trkpt lat="40.2362720" lon="-3.6980450">
        <ele>648.8</ele>
        <time>2019-04-28T16:01:01Z</time>
      </trkpt>
      <trkpt lat="40.2362880" lon="-3.6980550">
        <ele>648.6</ele>
        <time>2019-04-28T16:01:02Z</time>
      </trkpt>
      <trkpt lat="40.2363030" lon="-3.6980640">
        <ele>648.4</ele>
        <time>2019-04-28T16:01:03Z</time>
      </trkpt>
      <trkpt lat="40.2363160" lon="-3.6980680">
        <ele>648.2</ele>
        <time>2019-04-28T16:01:04Z</time>
      </trkpt>
      <trkpt lat="40.2363260" lon="-3.6980690">
        <ele>648.0</ele>
        <time>2019-04-28T16:01:05Z</time>
      </trkpt>
      <trkpt lat="40.2363330" lon="-3.6980670">
        <ele>648.0</ele>
        <time>2019-04-28T16:01:06Z</time>
      </trkpt>
      <trkpt lat="40.2363330" lon="-3.6980660">
        <ele>647.8</ele>
        <time>2019-04-28T16:01:07Z</time>
      </trkpt>
      <trkpt lat="40.2363370" lon="-3.6980630">
        <ele>648.0</ele>
        <time>2019-04-28T16:01:08Z</time>
      </trkpt>
      <trkpt lat="40.2363480" lon="-3.6980530">
        <ele>648.0</ele>
        <time>2019-04-28T16:01:09Z</time>
      </trkpt>
      <trkpt lat="40.2363620" lon="-3.6980200">
        <ele>648.2</ele>
        <time>2019-04-28T16:01:10Z</time>
      </trkpt>
      <trkpt lat="40.2363700" lon="-3.6979610">
        <ele>648.6</ele>
        <time>2019-04-28T16:01:11Z</time>
      </trkpt>
      <trkpt lat="40.2363770" lon="-3.6978870">
        <ele>648.6</ele>
        <time>2019-04-28T16:01:12Z</time>
      </trkpt>
      <trkpt lat="40.2363800" lon="-3.6978150">
        <ele>648.8</ele>
        <time>2019-04-28T16:01:13Z</time>
      </trkpt>
      <trkpt lat="40.2363990" lon="-3.6977400">
        <ele>649.0</ele>
        <time>2019-04-28T16:01:14Z</time>
      </trkpt>
      <trkpt lat="40.2364190" lon="-3.6976670">
        <ele>649.2</ele>
        <time>2019-04-28T16:01:15Z</time>
      </trkpt>
      <trkpt lat="40.2364460" lon="-3.6976000">
        <ele>649.2</ele>
        <time>2019-04-28T16:01:16Z</time>
      </trkpt>
      <trkpt lat="40.2364750" lon="-3.6975370">
        <ele>649.2</ele>
        <time>2019-04-28T16:01:17Z</time>
      </trkpt>
      <trkpt lat="40.2365070" lon="-3.6974820">
        <ele>649.2</ele>
        <time>2019-04-28T16:01:18Z</time>
      </trkpt>
      <trkpt lat="40.2365310" lon="-3.6974370">
        <ele>649.0</ele>
        <time>2019-04-28T16:01:19Z</time>
      </trkpt>
      <trkpt lat="40.2365480" lon="-3.6974050">
        <ele>648.8</ele>
        <time>2019-04-28T16:01:20Z</time>
      </trkpt>
      <trkpt lat="40.2365640" lon="-3.6973770">
        <ele>648.8</ele>
        <time>2019-04-28T16:01:21Z</time>
      </trkpt>
      <trkpt lat="40.2365770" lon="-3.6973510">
        <ele>648.8</ele>
        <time>2019-04-28T16:01:22Z</time>
      </trkpt>
      <trkpt lat="40.2365880" lon="-3.6973290">
        <ele>648.8</ele>
        <time>2019-04-28T16:01:23Z</time>
      </trkpt>
      <trkpt lat="40.2365970" lon="-3.6973090">
        <ele>648.8</ele>
        <time>2019-04-28T16:01:24Z</time>
      </trkpt>
      <trkpt lat="40.2366090" lon="-3.6972940">
        <ele>648.8</ele>
        <time>2019-04-28T16:01:25Z</time>
      </trkpt>
      <trkpt lat="40.2366160" lon="-3.6972840">
        <ele>648.8</ele>
        <time>2019-04-28T16:01:26Z</time>
      </trkpt>
      <trkpt lat="40.2366200" lon="-3.6972760">
        <ele>648.8</ele>
        <time>2019-04-28T16:01:27Z</time>
      </trkpt>
      <trkpt lat="40.2366270" lon="-3.6972670">
        <ele>648.8</ele>
        <time>2019-04-28T16:01:28Z</time>
      </trkpt>
      <trkpt lat="40.2366360" lon="-3.6972500">
        <ele>648.8</ele>
        <time>2019-04-28T16:01:29Z</time>
      </trkpt>
      <trkpt lat="40.2366480" lon="-3.6972270">
        <ele>649.0</ele>
        <time>2019-04-28T16:01:30Z</time>
      </trkpt>
      <trkpt lat="40.2366610" lon="-3.6971980">
        <ele>649.0</ele>
        <time>2019-04-28T16:01:31Z</time>
      </trkpt>
      <trkpt lat="40.2366810" lon="-3.6971620">
        <ele>649.2</ele>
        <time>2019-04-28T16:01:32Z</time>
      </trkpt>
      <trkpt lat="40.2367080" lon="-3.6971230">
        <ele>649.2</ele>
        <time>2019-04-28T16:01:33Z</time>
      </trkpt>
      <trkpt lat="40.2367350" lon="-3.6970790">
        <ele>649.4</ele>
        <time>2019-04-28T16:01:34Z</time>
      </trkpt>
      <trkpt lat="40.2367560" lon="-3.6970380">
        <ele>649.4</ele>
        <time>2019-04-28T16:01:35Z</time>
      </trkpt>
      <trkpt lat="40.2367820" lon="-3.6969950">
        <ele>649.6</ele>
        <time>2019-04-28T16:01:36Z</time>
      </trkpt>
      <trkpt lat="40.2368120" lon="-3.6969410">
        <ele>649.6</ele>
        <time>2019-04-28T16:01:37Z</time>
      </trkpt>
      <trkpt lat="40.2368400" lon="-3.6968730">
        <ele>650.0</ele>
        <time>2019-04-28T16:01:38Z</time>
      </trkpt>
      <trkpt lat="40.2368740" lon="-3.6968020">
        <ele>650.0</ele>
        <time>2019-04-28T16:01:39Z</time>
      </trkpt>
      <trkpt lat="40.2369100" lon="-3.6967320">
        <ele>650.4</ele>
        <time>2019-04-28T16:01:40Z</time>
      </trkpt>
      <trkpt lat="40.2369440" lon="-3.6966620">
        <ele>650.8</ele>
        <time>2019-04-28T16:01:41Z</time>
      </trkpt>
      <trkpt lat="40.2369800" lon="-3.6965970">
        <ele>650.6</ele>
        <time>2019-04-28T16:01:42Z</time>
      </trkpt>
      <trkpt lat="40.2370170" lon="-3.6965300">
        <ele>650.8</ele>
        <time>2019-04-28T16:01:43Z</time>
      </trkpt>
      <trkpt lat="40.2370520" lon="-3.6964670">
        <ele>650.8</ele>
        <time>2019-04-28T16:01:44Z</time>
      </trkpt>
      <trkpt lat="40.2370860" lon="-3.6964090">
        <ele>650.6</ele>
        <time>2019-04-28T16:01:45Z</time>
      </trkpt>
      <trkpt lat="40.2371140" lon="-3.6963610">
        <ele>650.4</ele>
        <time>2019-04-28T16:01:46Z</time>
      </trkpt>
      <trkpt lat="40.2371370" lon="-3.6963200">
        <ele>650.2</ele>
        <time>2019-04-28T16:01:47Z</time>
      </trkpt>
      <trkpt lat="40.2371570" lon="-3.6962870">
        <ele>650.0</ele>
        <time>2019-04-28T16:01:48Z</time>
      </trkpt>
      <trkpt lat="40.2371760" lon="-3.6962540">
        <ele>650.0</ele>
        <time>2019-04-28T16:01:49Z</time>
      </trkpt>
      <trkpt lat="40.2371970" lon="-3.6962150">
        <ele>650.4</ele>
        <time>2019-04-28T16:01:50Z</time>
      </trkpt>
      <trkpt lat="40.2372210" lon="-3.6961720">
        <ele>650.4</ele>
        <time>2019-04-28T16:01:51Z</time>
      </trkpt>
      <trkpt lat="40.2372450" lon="-3.6961290">
        <ele>650.4</ele>
        <time>2019-04-28T16:01:52Z</time>
      </trkpt>
      <trkpt lat="40.2372660" lon="-3.6960890">
        <ele>650.4</ele>
        <time>2019-04-28T16:01:53Z</time>
      </trkpt>
      <trkpt lat="40.2372840" lon="-3.6960590">
        <ele>650.2</ele>
        <time>2019-04-28T16:01:54Z</time>
      </trkpt>
      <trkpt lat="40.2373330" lon="-3.6959830">
        <ele>650.0</ele>
        <time>2019-04-28T16:01:55Z</time>
      </trkpt>
      <trkpt lat="40.2373710" lon="-3.6959220">
        <ele>650.0</ele>
        <time>2019-04-28T16:01:56Z</time>
      </trkpt>
      <trkpt lat="40.2374090" lon="-3.6958610">
        <ele>650.0</ele>
        <time>2019-04-28T16:01:57Z</time>
      </trkpt>
      <trkpt lat="40.2374470" lon="-3.6958000">
        <ele>649.8</ele>
        <time>2019-04-28T16:01:58Z</time>
      </trkpt>
      <trkpt lat="40.2374850" lon="-3.6957390">
        <ele>649.8</ele>
        <time>2019-04-28T16:01:59Z</time>
      </trkpt>
      <trkpt lat="40.2375220" lon="-3.6956790">
        <ele>649.8</ele>
        <time>2019-04-28T16:02:00Z</time>
      </trkpt>
      <trkpt lat="40.2375600" lon="-3.6956180">
        <ele>649.8</ele>
        <time>2019-04-28T16:02:01Z</time>
      </trkpt>
      <trkpt lat="40.2375980" lon="-3.6955570">
        <ele>650.0</ele>
        <time>2019-04-28T16:02:02Z</time>
      </trkpt>
      <trkpt lat="40.2376360" lon="-3.6954960">
        <ele>650.0</ele>
        <time>2019-04-28T16:02:03Z</time>
      </trkpt>
      <trkpt lat="40.2376740" lon="-3.6954350">
        <ele>651.6</ele>
        <time>2019-04-28T16:03:13Z</time>
      </trkpt>
      <trkpt lat="40.2377120" lon="-3.6953740">
        <ele>651.6</ele>
        <time>2019-04-28T16:03:14Z</time>
      </trkpt>
      <trkpt lat="40.2377460" lon="-3.6953110">
        <ele>651.8</ele>
        <time>2019-04-28T16:03:15Z</time>
      </trkpt>
      <trkpt lat="40.2377790" lon="-3.6952470">
        <ele>651.8</ele>
        <time>2019-04-28T16:03:16Z</time>
      </trkpt>
      <trkpt lat="40.2378130" lon="-3.6951860">
        <ele>651.6</ele>
        <time>2019-04-28T16:03:17Z</time>
      </trkpt>
      <trkpt lat="40.2378440" lon="-3.6951260">
        <ele>651.8</ele>
        <time>2019-04-28T16:03:18Z</time>
      </trkpt>
      <trkpt lat="40.2378740" lon="-3.6950670">
        <ele>652.2</ele>
        <time>2019-04-28T16:03:19Z</time>
      </trkpt>
      <trkpt lat="40.2379020" lon="-3.6950080">
        <ele>652.0</ele>
        <time>2019-04-28T16:03:20Z</time>
      </trkpt>
      <trkpt lat="40.2379250" lon="-3.6949610">
        <ele>651.6</ele>
        <time>2019-04-28T16:03:21Z</time>
      </trkpt>
      <trkpt lat="40.2379420" lon="-3.6949230">
        <ele>651.4</ele>
        <time>2019-04-28T16:03:22Z</time>
      </trkpt>
      <trkpt lat="40.2379560" lon="-3.6948830">
        <ele>651.4</ele>
        <time>2019-04-28T16:03:23Z</time>
      </trkpt>
      <trkpt lat="40.2379720" lon="-3.6948420">
        <ele>651.4</ele>
        <time>2019-04-28T16:03:24Z</time>
      </trkpt>
      <trkpt lat="40.2379980" lon="-3.6947950">
        <ele>651.4</ele>
        <time>2019-04-28T16:03:25Z</time>
      </trkpt>
      <trkpt lat="40.2380120" lon="-3.6947430">
        <ele>651.6</ele>
        <time>2019-04-28T16:03:26Z</time>
      </trkpt>
      <trkpt lat="40.2380340" lon="-3.6947160">
        <ele>651.6</ele>
        <time>2019-04-28T16:03:27Z</time>
      </trkpt>
      <trkpt lat="40.2380440" lon="-3.6947000">
        <ele>651.2</ele>
        <time>2019-04-28T16:03:28Z</time>
      </trkpt>
      <trkpt lat="40.2380500" lon="-3.6946970">
        <ele>651.2</ele>
        <time>2019-04-28T16:03:29Z</time>
      </trkpt>
      <trkpt lat="40.2380530" lon="-3.6946950">
        <ele>651.2</ele>
        <time>2019-04-28T16:03:30Z</time>
      </trkpt>
      <trkpt lat="40.2380600" lon="-3.6946840">
        <ele>651.2</ele>
        <time>2019-04-28T16:03:31Z</time>
      </trkpt>
      <trkpt lat="40.2380630" lon="-3.6946690">
        <ele>651.4</ele>
        <time>2019-04-28T16:03:32Z</time>
      </trkpt>
      <trkpt lat="40.2380830" lon="-3.6946360">
        <ele>651.4</ele>
        <time>2019-04-28T16:03:33Z</time>
      </trkpt>
      <trkpt lat="40.2381100" lon="-3.6945910">
        <ele>651.8</ele>
        <time>2019-04-28T16:03:34Z</time>
      </trkpt>
      <trkpt lat="40.2381410" lon="-3.6945370">
        <ele>652.0</ele>
        <time>2019-04-28T16:03:35Z</time>
      </trkpt>
      <trkpt lat="40.2381770" lon="-3.6944760">
        <ele>652.4</ele>
        <time>2019-04-28T16:03:36Z</time>
      </trkpt>
      <trkpt lat="40.2382140" lon="-3.6944090">
        <ele>652.6</ele>
        <time>2019-04-28T16:03:37Z</time>
      </trkpt>
      <trkpt lat="40.2382510" lon="-3.6943400">
        <ele>652.6</ele>
        <time>2019-04-28T16:03:38Z</time>
      </trkpt>
      <trkpt lat="40.2382870" lon="-3.6942740">
        <ele>652.6</ele>
        <time>2019-04-28T16:03:39Z</time>
      </trkpt>
      <trkpt lat="40.2383190" lon="-3.6942180">
        <ele>652.4</ele>
        <time>2019-04-28T16:03:40Z</time>
      </trkpt>
      <trkpt lat="40.2383420" lon="-3.6941730">
        <ele>652.0</ele>
        <time>2019-04-28T16:03:41Z</time>
      </trkpt>
      <trkpt lat="40.2383620" lon="-3.6941350">
        <ele>652.0</ele>
        <time>2019-04-28T16:03:42Z</time>
      </trkpt>
      <trkpt lat="40.2383840" lon="-3.6940880">
        <ele>652.0</ele>
        <time>2019-04-28T16:03:43Z</time>
      </trkpt>
      <trkpt lat="40.2384100" lon="-3.6940360">
        <ele>652.2</ele>
        <time>2019-04-28T16:03:44Z</time>
      </trkpt>
      <trkpt lat="40.2384400" lon="-3.6939840">
        <ele>652.6</ele>
        <time>2019-04-28T16:03:45Z</time>
      </trkpt>
      <trkpt lat="40.2384720" lon="-3.6939270">
        <ele>652.6</ele>
        <time>2019-04-28T16:03:46Z</time>
      </trkpt>
      <trkpt lat="40.2385080" lon="-3.6938660">
        <ele>653.0</ele>
        <time>2019-04-28T16:03:47Z</time>
      </trkpt>
      <trkpt lat="40.2385550" lon="-3.6938020">
        <ele>653.2</ele>
        <time>2019-04-28T16:03:48Z</time>
      </trkpt>
      <trkpt lat="40.2386040" lon="-3.6937270">
        <ele>653.4</ele>
        <time>2019-04-28T16:03:49Z</time>
      </trkpt>
      <trkpt lat="40.2386660" lon="-3.6936600">
        <ele>653.6</ele>
        <time>2019-04-28T16:03:50Z</time>
      </trkpt>
      <trkpt lat="40.2387340" lon="-3.6935930">
        <ele>653.6</ele>
        <time>2019-04-28T16:03:51Z</time>
      </trkpt>
      <trkpt lat="40.2388080" lon="-3.6935290">
        <ele>653.6</ele>
        <time>2019-04-28T16:03:52Z</time>
      </trkpt>
      <trkpt lat="40.2388880" lon="-3.6934670">
        <ele>653.6</ele>
        <time>2019-04-28T16:03:53Z</time>
      </trkpt>
      <trkpt lat="40.2389690" lon="-3.6934120">
        <ele>653.4</ele>
        <time>2019-04-28T16:03:54Z</time>
      </trkpt>
      <trkpt lat="40.2390490" lon="-3.6933680">
        <ele>653.4</ele>
        <time>2019-04-28T16:03:55Z</time>
      </trkpt>
      <trkpt lat="40.2391250" lon="-3.6933380">
        <ele>652.8</ele>
        <time>2019-04-28T16:03:56Z</time>
      </trkpt>
      <trkpt lat="40.2391990" lon="-3.6933170">
        <ele>652.6</ele>
        <time>2019-04-28T16:03:57Z</time>
      </trkpt>
      <trkpt lat="40.2392690" lon="-3.6933030">
        <ele>652.4</ele>
        <time>2019-04-28T16:03:58Z</time>
      </trkpt>
      <trkpt lat="40.2393310" lon="-3.6932980">
        <ele>652.4</ele>
        <time>2019-04-28T16:03:59Z</time>
      </trkpt>
      <trkpt lat="40.2393880" lon="-3.6932970">
        <ele>652.0</ele>
        <time>2019-04-28T16:04:00Z</time>
      </trkpt>
      <trkpt lat="40.2394540" lon="-3.6932940">
        <ele>652.0</ele>
        <time>2019-04-28T16:04:01Z</time>
      </trkpt>
      <trkpt lat="40.2395200" lon="-3.6932920">
        <ele>652.0</ele>
        <time>2019-04-28T16:04:02Z</time>
      </trkpt>
      <trkpt lat="40.2395970" lon="-3.6932890">
        <ele>651.6</ele>
        <time>2019-04-28T16:04:03Z</time>
      </trkpt>
      <trkpt lat="40.2396750" lon="-3.6932850">
        <ele>651.6</ele>
        <time>2019-04-28T16:04:04Z</time>
      </trkpt>
      <trkpt lat="40.2397480" lon="-3.6932820">
        <ele>651.2</ele>
        <time>2019-04-28T16:04:05Z</time>
      </trkpt>
      <trkpt lat="40.2398290" lon="-3.6932730">
        <ele>651.0</ele>
        <time>2019-04-28T16:04:06Z</time>
      </trkpt>
      <trkpt lat="40.2399150" lon="-3.6932650">
        <ele>651.0</ele>
        <time>2019-04-28T16:04:07Z</time>
      </trkpt>
      <trkpt lat="40.2399990" lon="-3.6932600">
        <ele>650.8</ele>
        <time>2019-04-28T16:04:08Z</time>
      </trkpt>
      <trkpt lat="40.2400740" lon="-3.6932570">
        <ele>650.6</ele>
        <time>2019-04-28T16:04:09Z</time>
      </trkpt>
      <trkpt lat="40.2401470" lon="-3.6932530">
        <ele>650.4</ele>
        <time>2019-04-28T16:04:10Z</time>
      </trkpt>
      <trkpt lat="40.2402100" lon="-3.6932500">
        <ele>650.2</ele>
        <time>2019-04-28T16:04:11Z</time>
      </trkpt>
      <trkpt lat="40.2402670" lon="-3.6932440">
        <ele>649.8</ele>
        <time>2019-04-28T16:04:12Z</time>
      </trkpt>
      <trkpt lat="40.2403200" lon="-3.6932410">
        <ele>649.8</ele>
        <time>2019-04-28T16:04:13Z</time>
      </trkpt>
      <trkpt lat="40.2403640" lon="-3.6932400">
        <ele>649.4</ele>
        <time>2019-04-28T16:04:14Z</time>
      </trkpt>
      <trkpt lat="40.2404030" lon="-3.6932400">
        <ele>649.2</ele>
        <time>2019-04-28T16:04:15Z</time>
      </trkpt>
      <trkpt lat="40.2404390" lon="-3.6932410">
        <ele>649.2</ele>
        <time>2019-04-28T16:04:16Z</time>
      </trkpt>
      <trkpt lat="40.2404750" lon="-3.6932400">
        <ele>649.0</ele>
        <time>2019-04-28T16:04:17Z</time>
      </trkpt>
      <trkpt lat="40.2405180" lon="-3.6932380">
        <ele>649.2</ele>
        <time>2019-04-28T16:04:18Z</time>
      </trkpt>
      <trkpt lat="40.2405650" lon="-3.6932340">
        <ele>649.4</ele>
        <time>2019-04-28T16:04:19Z</time>
      </trkpt>
      <trkpt lat="40.2406090" lon="-3.6932320">
        <ele>649.2</ele>
        <time>2019-04-28T16:04:20Z</time>
      </trkpt>
      <trkpt lat="40.2406530" lon="-3.6932260">
        <ele>649.0</ele>
        <time>2019-04-28T16:04:21Z</time>
      </trkpt>
      <trkpt lat="40.2407010" lon="-3.6932160">
        <ele>649.0</ele>
        <time>2019-04-28T16:04:22Z</time>
      </trkpt>
      <trkpt lat="40.2407490" lon="-3.6932150">
        <ele>649.0</ele>
        <time>2019-04-28T16:04:23Z</time>
      </trkpt>
      <trkpt lat="40.2407920" lon="-3.6932230">
        <ele>648.6</ele>
        <time>2019-04-28T16:04:24Z</time>
      </trkpt>
      <trkpt lat="40.2408280" lon="-3.6932330">
        <ele>648.6</ele>
        <time>2019-04-28T16:04:25Z</time>
      </trkpt>
      <trkpt lat="40.2408740" lon="-3.6932350">
        <ele>648.4</ele>
        <time>2019-04-28T16:04:26Z</time>
      </trkpt>
      <trkpt lat="40.2409060" lon="-3.6932390">
        <ele>648.4</ele>
        <time>2019-04-28T16:04:27Z</time>
      </trkpt>
      <trkpt lat="40.2409490" lon="-3.6932410">
        <ele>648.2</ele>
        <time>2019-04-28T16:04:28Z</time>
      </trkpt>
      <trkpt lat="40.2409950" lon="-3.6932440">
        <ele>648.2</ele>
        <time>2019-04-28T16:04:29Z</time>
      </trkpt>
      <trkpt lat="40.2410510" lon="-3.6932460">
        <ele>648.6</ele>
        <time>2019-04-28T16:04:30Z</time>
      </trkpt>
      <trkpt lat="40.2411220" lon="-3.6932480">
        <ele>648.8</ele>
        <time>2019-04-28T16:04:31Z</time>
      </trkpt>
      <trkpt lat="40.2412040" lon="-3.6932490">
        <ele>649.0</ele>
        <time>2019-04-28T16:04:32Z</time>
      </trkpt>
      <trkpt lat="40.2412860" lon="-3.6932590">
        <ele>649.4</ele>
        <time>2019-04-28T16:04:33Z</time>
      </trkpt>
      <trkpt lat="40.2413790" lon="-3.6932620">
        <ele>649.6</ele>
        <time>2019-04-28T16:04:34Z</time>
      </trkpt>
      <trkpt lat="40.2414730" lon="-3.6932620">
        <ele>650.0</ele>
        <time>2019-04-28T16:04:35Z</time>
      </trkpt>
      <trkpt lat="40.2415700" lon="-3.6932660">
        <ele>650.4</ele>
        <time>2019-04-28T16:04:36Z</time>
      </trkpt>
      <trkpt lat="40.2416660" lon="-3.6932690">
        <ele>650.2</ele>
        <time>2019-04-28T16:04:37Z</time>
      </trkpt>
      <trkpt lat="40.2417650" lon="-3.6932670">
        <ele>650.0</ele>
        <time>2019-04-28T16:04:38Z</time>
      </trkpt>
      <trkpt lat="40.2418570" lon="-3.6932700">
        <ele>649.6</ele>
        <time>2019-04-28T16:04:39Z</time>
      </trkpt>
      <trkpt lat="40.2419450" lon="-3.6932780">
        <ele>649.8</ele>
        <time>2019-04-28T16:04:40Z</time>
      </trkpt>
      <trkpt lat="40.2420310" lon="-3.6932750">
        <ele>649.8</ele>
        <time>2019-04-28T16:04:41Z</time>
      </trkpt>
      <trkpt lat="40.2421130" lon="-3.6932750">
        <ele>649.8</ele>
        <time>2019-04-28T16:04:42Z</time>
      </trkpt>
      <trkpt lat="40.2421910" lon="-3.6932790">
        <ele>649.8</ele>
        <time>2019-04-28T16:04:43Z</time>
      </trkpt>
      <trkpt lat="40.2422710" lon="-3.6932780">
        <ele>649.8</ele>
        <time>2019-04-28T16:04:44Z</time>
      </trkpt>
      <trkpt lat="40.2423480" lon="-3.6932830">
        <ele>649.8</ele>
        <time>2019-04-28T16:04:45Z</time>
      </trkpt>
      <trkpt lat="40.2424360" lon="-3.6932900">
        <ele>649.8</ele>
        <time>2019-04-28T16:04:46Z</time>
      </trkpt>
      <trkpt lat="40.2425270" lon="-3.6932910">
        <ele>649.8</ele>
        <time>2019-04-28T16:04:47Z</time>
      </trkpt>
      <trkpt lat="40.2426070" lon="-3.6932950">
        <ele>649.4</ele>
        <time>2019-04-28T16:04:48Z</time>
      </trkpt>
      <trkpt lat="40.2426760" lon="-3.6932930">
        <ele>648.8</ele>
        <time>2019-04-28T16:04:49Z</time>
      </trkpt>
      <trkpt lat="40.2427410" lon="-3.6932930">
        <ele>648.6</ele>
        <time>2019-04-28T16:04:50Z</time>
      </trkpt>
      <trkpt lat="40.2428090" lon="-3.6932940">
        <ele>648.6</ele>
        <time>2019-04-28T16:04:51Z</time>
      </trkpt>
      <trkpt lat="40.2428810" lon="-3.6933000">
        <ele>648.8</ele>
        <time>2019-04-28T16:04:52Z</time>
      </trkpt>
      <trkpt lat="40.2429560" lon="-3.6933030">
        <ele>648.8</ele>
        <time>2019-04-28T16:04:53Z</time>
      </trkpt>
      <trkpt lat="40.2430330" lon="-3.6933000">
        <ele>648.8</ele>
        <time>2019-04-28T16:04:54Z</time>
      </trkpt>
      <trkpt lat="40.2431090" lon="-3.6932990">
        <ele>648.6</ele>
        <time>2019-04-28T16:04:55Z</time>
      </trkpt>
      <trkpt lat="40.2431800" lon="-3.6933060">
        <ele>648.4</ele>
        <time>2019-04-28T16:04:56Z</time>
      </trkpt>
      <trkpt lat="40.2432550" lon="-3.6933060">
        <ele>649.2</ele>
        <time>2019-04-28T16:04:57Z</time>
      </trkpt>
      <trkpt lat="40.2433360" lon="-3.6933060">
        <ele>649.0</ele>
        <time>2019-04-28T16:04:58Z</time>
      </trkpt>
      <trkpt lat="40.2434250" lon="-3.6933060">
        <ele>648.4</ele>
        <time>2019-04-28T16:04:59Z</time>
      </trkpt>
      <trkpt lat="40.2435170" lon="-3.6933070">
        <ele>648.4</ele>
        <time>2019-04-28T16:05:00Z</time>
      </trkpt>
      <trkpt lat="40.2436140" lon="-3.6933080">
        <ele>648.8</ele>
        <time>2019-04-28T16:05:01Z</time>
      </trkpt>
      <trkpt lat="40.2437130" lon="-3.6933110">
        <ele>648.8</ele>
        <time>2019-04-28T16:05:02Z</time>
      </trkpt>
      <trkpt lat="40.2438110" lon="-3.6933150">
        <ele>649.0</ele>
        <time>2019-04-28T16:05:03Z</time>
      </trkpt>
      <trkpt lat="40.2439100" lon="-3.6933180">
        <ele>649.2</ele>
        <time>2019-04-28T16:05:04Z</time>
      </trkpt>
      <trkpt lat="40.2440080" lon="-3.6933200">
        <ele>648.8</ele>
        <time>2019-04-28T16:05:05Z</time>
      </trkpt>
      <trkpt lat="40.2441050" lon="-3.6933240">
        <ele>648.6</ele>
        <time>2019-04-28T16:05:06Z</time>
      </trkpt>
      <trkpt lat="40.2442010" lon="-3.6933300">
        <ele>648.8</ele>
        <time>2019-04-28T16:05:07Z</time>
      </trkpt>
      <trkpt lat="40.2442950" lon="-3.6933340">
        <ele>648.8</ele>
        <time>2019-04-28T16:05:08Z</time>
      </trkpt>
      <trkpt lat="40.2443850" lon="-3.6933370">
        <ele>648.2</ele>
        <time>2019-04-28T16:05:09Z</time>
      </trkpt>
      <trkpt lat="40.2444750" lon="-3.6933370">
        <ele>648.0</ele>
        <time>2019-04-28T16:05:10Z</time>
      </trkpt>
      <trkpt lat="40.2445570" lon="-3.6933390">
        <ele>647.4</ele>
        <time>2019-04-28T16:05:11Z</time>
      </trkpt>
      <trkpt lat="40.2446340" lon="-3.6933410">
        <ele>647.0</ele>
        <time>2019-04-28T16:05:12Z</time>
      </trkpt>
      <trkpt lat="40.2447080" lon="-3.6933420">
        <ele>646.8</ele>
        <time>2019-04-28T16:05:13Z</time>
      </trkpt>
      <trkpt lat="40.2447790" lon="-3.6933430">
        <ele>646.6</ele>
        <time>2019-04-28T16:05:14Z</time>
      </trkpt>
      <trkpt lat="40.2448460" lon="-3.6933460">
        <ele>646.4</ele>
        <time>2019-04-28T16:05:15Z</time>
      </trkpt>
      <trkpt lat="40.2449110" lon="-3.6933460">
        <ele>646.4</ele>
        <time>2019-04-28T16:05:16Z</time>
      </trkpt>
      <trkpt lat="40.2449730" lon="-3.6933450">
        <ele>646.2</ele>
        <time>2019-04-28T16:05:17Z</time>
      </trkpt>
      <trkpt lat="40.2450310" lon="-3.6933440">
        <ele>645.6</ele>
        <time>2019-04-28T16:05:18Z</time>
      </trkpt>
      <trkpt lat="40.2450890" lon="-3.6933410">
        <ele>645.4</ele>
        <time>2019-04-28T16:05:19Z</time>
      </trkpt>
      <trkpt lat="40.2451460" lon="-3.6933400">
        <ele>645.0</ele>
        <time>2019-04-28T16:05:20Z</time>
      </trkpt>
      <trkpt lat="40.2452080" lon="-3.6933400">
        <ele>645.0</ele>
        <time>2019-04-28T16:05:21Z</time>
      </trkpt>
      <trkpt lat="40.2452750" lon="-3.6933430">
        <ele>645.4</ele>
        <time>2019-04-28T16:05:22Z</time>
      </trkpt>
      <trkpt lat="40.2453450" lon="-3.6933460">
        <ele>645.4</ele>
        <time>2019-04-28T16:05:23Z</time>
      </trkpt>
      <trkpt lat="40.2454150" lon="-3.6933510">
        <ele>645.6</ele>
        <time>2019-04-28T16:05:24Z</time>
      </trkpt>
      <trkpt lat="40.2454890" lon="-3.6933560">
        <ele>645.6</ele>
        <time>2019-04-28T16:05:25Z</time>
      </trkpt>
      <trkpt lat="40.2455660" lon="-3.6933610">
        <ele>645.2</ele>
        <time>2019-04-28T16:05:26Z</time>
      </trkpt>
      <trkpt lat="40.2456350" lon="-3.6933640">
        <ele>645.0</ele>
        <time>2019-04-28T16:05:27Z</time>
      </trkpt>
      <trkpt lat="40.2456930" lon="-3.6933640">
        <ele>644.8</ele>
        <time>2019-04-28T16:05:28Z</time>
      </trkpt>
      <trkpt lat="40.2457470" lon="-3.6933600">
        <ele>644.4</ele>
        <time>2019-04-28T16:05:29Z</time>
      </trkpt>
      <trkpt lat="40.2458030" lon="-3.6933550">
        <ele>644.4</ele>
        <time>2019-04-28T16:05:30Z</time>
      </trkpt>
      <trkpt lat="40.2458620" lon="-3.6933480">
        <ele>644.2</ele>
        <time>2019-04-28T16:05:31Z</time>
      </trkpt>
      <trkpt lat="40.2459150" lon="-3.6933400">
        <ele>644.2</ele>
        <time>2019-04-28T16:05:32Z</time>
      </trkpt>
      <trkpt lat="40.2459590" lon="-3.6933190">
        <ele>643.8</ele>
        <time>2019-04-28T16:05:33Z</time>
      </trkpt>
      <trkpt lat="40.2460010" lon="-3.6932780">
        <ele>643.8</ele>
        <time>2019-04-28T16:05:34Z</time>
      </trkpt>
      <trkpt lat="40.2460340" lon="-3.6932180">
        <ele>644.0</ele>
        <time>2019-04-28T16:05:35Z</time>
      </trkpt>
      <trkpt lat="40.2460540" lon="-3.6931240">
        <ele>643.8</ele>
        <time>2019-04-28T16:05:36Z</time>
      </trkpt>
      <trkpt lat="40.2460710" lon="-3.6930140">
        <ele>644.6</ele>
        <time>2019-04-28T16:05:37Z</time>
      </trkpt>
      <trkpt lat="40.2460880" lon="-3.6928910">
        <ele>645.2</ele>
        <time>2019-04-28T16:05:38Z</time>
      </trkpt>
      <trkpt lat="40.2461030" lon="-3.6927620">
        <ele>645.8</ele>
        <time>2019-04-28T16:05:39Z</time>
      </trkpt>
      <trkpt lat="40.2461070" lon="-3.6926300">
        <ele>647.2</ele>
        <time>2019-04-28T16:05:40Z</time>
      </trkpt>
      <trkpt lat="40.2460970" lon="-3.6925020">
        <ele>647.0</ele>
        <time>2019-04-28T16:05:41Z</time>
      </trkpt>
      <trkpt lat="40.2460730" lon="-3.6923790">
        <ele>647.0</ele>
        <time>2019-04-28T16:05:42Z</time>
      </trkpt>
      <trkpt lat="40.2460380" lon="-3.6922660">
        <ele>647.0</ele>
        <time>2019-04-28T16:05:43Z</time>
      </trkpt>
      <trkpt lat="40.2459910" lon="-3.6921670">
        <ele>646.8</ele>
        <time>2019-04-28T16:05:44Z</time>
      </trkpt>
      <trkpt lat="40.2459310" lon="-3.6920820">
        <ele>647.4</ele>
        <time>2019-04-28T16:05:45Z</time>
      </trkpt>
      <trkpt lat="40.2458620" lon="-3.6920050">
        <ele>648.0</ele>
        <time>2019-04-28T16:05:46Z</time>
      </trkpt>
      <trkpt lat="40.2457860" lon="-3.6919300">
        <ele>648.6</ele>
        <time>2019-04-28T16:05:47Z</time>
      </trkpt>
      <trkpt lat="40.2457060" lon="-3.6918520">
        <ele>649.6</ele>
        <time>2019-04-28T16:05:48Z</time>
      </trkpt>
      <trkpt lat="40.2456280" lon="-3.6917710">
        <ele>650.2</ele>
        <time>2019-04-28T16:05:49Z</time>
      </trkpt>
      <trkpt lat="40.2455480" lon="-3.6916940">
        <ele>651.0</ele>
        <time>2019-04-28T16:05:50Z</time>
      </trkpt>
      <trkpt lat="40.2454710" lon="-3.6916210">
        <ele>651.2</ele>
        <time>2019-04-28T16:05:51Z</time>
      </trkpt>
      <trkpt lat="40.2454020" lon="-3.6915470">
        <ele>651.6</ele>
        <time>2019-04-28T16:05:52Z</time>
      </trkpt>
      <trkpt lat="40.2453320" lon="-3.6914590">
        <ele>651.8</ele>
        <time>2019-04-28T16:05:53Z</time>
      </trkpt>
      <trkpt lat="40.2452650" lon="-3.6913620">
        <ele>653.0</ele>
        <time>2019-04-28T16:05:54Z</time>
      </trkpt>
      <trkpt lat="40.2452060" lon="-3.6912540">
        <ele>653.6</ele>
        <time>2019-04-28T16:05:55Z</time>
      </trkpt>
      <trkpt lat="40.2451550" lon="-3.6911300">
        <ele>654.4</ele>
        <time>2019-04-28T16:05:56Z</time>
      </trkpt>
      <trkpt lat="40.2451170" lon="-3.6909980">
        <ele>655.2</ele>
        <time>2019-04-28T16:05:57Z</time>
      </trkpt>
      <trkpt lat="40.2450890" lon="-3.6908580">
        <ele>656.4</ele>
        <time>2019-04-28T16:05:58Z</time>
      </trkpt>
      <trkpt lat="40.2450720" lon="-3.6907070">
        <ele>657.0</ele>
        <time>2019-04-28T16:05:59Z</time>
      </trkpt>
      <trkpt lat="40.2450650" lon="-3.6905480">
        <ele>659.0</ele>
        <time>2019-04-28T16:06:00Z</time>
      </trkpt>
      <trkpt lat="40.2450640" lon="-3.6903810">
        <ele>660.4</ele>
        <time>2019-04-28T16:06:01Z</time>
      </trkpt>
      <trkpt lat="40.2450610" lon="-3.6902060">
        <ele>661.0</ele>
        <time>2019-04-28T16:06:02Z</time>
      </trkpt>
      <trkpt lat="40.2450620" lon="-3.6900290">
        <ele>661.0</ele>
        <time>2019-04-28T16:06:03Z</time>
      </trkpt>
      <trkpt lat="40.2450660" lon="-3.6898490">
        <ele>662.0</ele>
        <time>2019-04-28T16:06:04Z</time>
      </trkpt>
      <trkpt lat="40.2450700" lon="-3.6896720">
        <ele>662.0</ele>
        <time>2019-04-28T16:06:05Z</time>
      </trkpt>
      <trkpt lat="40.2450670" lon="-3.6894960">
        <ele>661.0</ele>
        <time>2019-04-28T16:06:06Z</time>
      </trkpt>
      <trkpt lat="40.2450530" lon="-3.6893270">
        <ele>661.2</ele>
        <time>2019-04-28T16:06:07Z</time>
      </trkpt>
      <trkpt lat="40.2450250" lon="-3.6891640">
        <ele>659.8</ele>
        <time>2019-04-28T16:06:08Z</time>
      </trkpt>
      <trkpt lat="40.2449850" lon="-3.6890150">
        <ele>658.8</ele>
        <time>2019-04-28T16:06:09Z</time>
      </trkpt>
      <trkpt lat="40.2449420" lon="-3.6888740">
        <ele>657.6</ele>
        <time>2019-04-28T16:06:10Z</time>
      </trkpt>
      <trkpt lat="40.2448920" lon="-3.6887300">
        <ele>656.4</ele>
        <time>2019-04-28T16:06:11Z</time>
      </trkpt>
      <trkpt lat="40.2448240" lon="-3.6885690">
        <ele>657.0</ele>
        <time>2019-04-28T16:06:12Z</time>
      </trkpt>
      <trkpt lat="40.2447480" lon="-3.6883850">
        <ele>657.0</ele>
        <time>2019-04-28T16:06:13Z</time>
      </trkpt>
      <trkpt lat="40.2446640" lon="-3.6881850">
        <ele>657.0</ele>
        <time>2019-04-28T16:06:14Z</time>
      </trkpt>
      <trkpt lat="40.2445690" lon="-3.6879800">
        <ele>657.0</ele>
        <time>2019-04-28T16:06:15Z</time>
      </trkpt>
      <trkpt lat="40.2444680" lon="-3.6877720">
        <ele>657.0</ele>
        <time>2019-04-28T16:06:16Z</time>
      </trkpt>
      <trkpt lat="40.2443650" lon="-3.6875610">
        <ele>657.0</ele>
        <time>2019-04-28T16:06:17Z</time>
      </trkpt>
      <trkpt lat="40.2442500" lon="-3.6873590">
        <ele>663.0</ele>
        <time>2019-04-28T16:06:18Z</time>
      </trkpt>
      <trkpt lat="40.2441170" lon="-3.6871690">
        <ele>663.0</ele>
        <time>2019-04-28T16:06:19Z</time>
      </trkpt>
      <trkpt lat="40.2439760" lon="-3.6869800">
        <ele>663.0</ele>
        <time>2019-04-28T16:06:20Z</time>
      </trkpt>
      <trkpt lat="40.2438290" lon="-3.6867860">
        <ele>663.0</ele>
        <time>2019-04-28T16:06:21Z</time>
      </trkpt>
      <trkpt lat="40.2436780" lon="-3.6865890">
        <ele>663.0</ele>
        <time>2019-04-28T16:06:22Z</time>
      </trkpt>
      <trkpt lat="40.2435290" lon="-3.6863890">
        <ele>663.0</ele>
        <time>2019-04-28T16:06:23Z</time>
      </trkpt>
      <trkpt lat="40.2433790" lon="-3.6861940">
        <ele>652.6</ele>
        <time>2019-04-28T16:06:24Z</time>
      </trkpt>
      <trkpt lat="40.2432290" lon="-3.6860040">
        <ele>652.6</ele>
        <time>2019-04-28T16:06:25Z</time>
      </trkpt>
      <trkpt lat="40.2430840" lon="-3.6858170">
        <ele>652.6</ele>
        <time>2019-04-28T16:06:26Z</time>
      </trkpt>
      <trkpt lat="40.2429430" lon="-3.6856330">
        <ele>652.4</ele>
        <time>2019-04-28T16:06:27Z</time>
      </trkpt>
      <trkpt lat="40.2428050" lon="-3.6854570">
        <ele>652.6</ele>
        <time>2019-04-28T16:06:28Z</time>
      </trkpt>
      <trkpt lat="40.2426740" lon="-3.6852880">
        <ele>652.6</ele>
        <time>2019-04-28T16:06:29Z</time>
      </trkpt>
      <trkpt lat="40.2425470" lon="-3.6851240">
        <ele>652.8</ele>
        <time>2019-04-28T16:06:30Z</time>
      </trkpt>
      <trkpt lat="40.2424250" lon="-3.6849680">
        <ele>652.8</ele>
        <time>2019-04-28T16:06:31Z</time>
      </trkpt>
      <trkpt lat="40.2423080" lon="-3.6848230">
        <ele>652.6</ele>
        <time>2019-04-28T16:06:32Z</time>
      </trkpt>
      <trkpt lat="40.2421970" lon="-3.6846900">
        <ele>652.4</ele>
        <time>2019-04-28T16:06:33Z</time>
      </trkpt>
      <trkpt lat="40.2420940" lon="-3.6845730">
        <ele>652.2</ele>
        <time>2019-04-28T16:06:34Z</time>
      </trkpt>
      <trkpt lat="40.2419960" lon="-3.6844720">
        <ele>652.2</ele>
        <time>2019-04-28T16:06:35Z</time>
      </trkpt>
      <trkpt lat="40.2419020" lon="-3.6843820">
        <ele>652.2</ele>
        <time>2019-04-28T16:06:36Z</time>
      </trkpt>
      <trkpt lat="40.2418040" lon="-3.6843260">
        <ele>652.6</ele>
        <time>2019-04-28T16:06:37Z</time>
      </trkpt>
      <trkpt lat="40.2417020" lon="-3.6842920">
        <ele>653.2</ele>
        <time>2019-04-28T16:06:38Z</time>
      </trkpt>
      <trkpt lat="40.2416010" lon="-3.6842410">
        <ele>653.2</ele>
        <time>2019-04-28T16:06:39Z</time>
      </trkpt>
      <trkpt lat="40.2415190" lon="-3.6841550">
        <ele>653.6</ele>
        <time>2019-04-28T16:06:40Z</time>
      </trkpt>
      <trkpt lat="40.2414700" lon="-3.6840380">
        <ele>653.8</ele>
        <time>2019-04-28T16:06:41Z</time>
      </trkpt>
      <trkpt lat="40.2414640" lon="-3.6839110">
        <ele>654.0</ele>
        <time>2019-04-28T16:06:42Z</time>
      </trkpt>
      <trkpt lat="40.2414940" lon="-3.6837750">
        <ele>654.2</ele>
        <time>2019-04-28T16:06:43Z</time>
      </trkpt>
      <trkpt lat="40.2415450" lon="-3.6836320">
        <ele>654.4</ele>
        <time>2019-04-28T16:06:44Z</time>
      </trkpt>
      <trkpt lat="40.2415870" lon="-3.6834760">
        <ele>654.8</ele>
        <time>2019-04-28T16:06:45Z</time>
      </trkpt>
      <trkpt lat="40.2416070" lon="-3.6832890">
        <ele>655.2</ele>
        <time>2019-04-28T16:06:46Z</time>
      </trkpt>
      <trkpt lat="40.2416080" lon="-3.6830810">
        <ele>655.6</ele>
        <time>2019-04-28T16:06:47Z</time>
      </trkpt>
      <trkpt lat="40.2416020" lon="-3.6828550">
        <ele>656.0</ele>
        <time>2019-04-28T16:06:48Z</time>
      </trkpt>
      <trkpt lat="40.2415930" lon="-3.6826140">
        <ele>656.8</ele>
        <time>2019-04-28T16:06:49Z</time>
      </trkpt>
      <trkpt lat="40.2415830" lon="-3.6823630">
        <ele>657.4</ele>
        <time>2019-04-28T16:06:50Z</time>
      </trkpt>
      <trkpt lat="40.2415710" lon="-3.6821030">
        <ele>658.2</ele>
        <time>2019-04-28T16:06:51Z</time>
      </trkpt>
      <trkpt lat="40.2415570" lon="-3.6818330">
        <ele>659.0</ele>
        <time>2019-04-28T16:06:52Z</time>
      </trkpt>
      <trkpt lat="40.2415380" lon="-3.6815550">
        <ele>659.6</ele>
        <time>2019-04-28T16:06:53Z</time>
      </trkpt>
      <trkpt lat="40.2415080" lon="-3.6812710">
        <ele>660.4</ele>
        <time>2019-04-28T16:06:54Z</time>
      </trkpt>
      <trkpt lat="40.2414680" lon="-3.6809820">
        <ele>661.0</ele>
        <time>2019-04-28T16:06:55Z</time>
      </trkpt>
      <trkpt lat="40.2414180" lon="-3.6806910">
        <ele>661.8</ele>
        <time>2019-04-28T16:06:56Z</time>
      </trkpt>
      <trkpt lat="40.2413540" lon="-3.6803990">
        <ele>662.8</ele>
        <time>2019-04-28T16:06:57Z</time>
      </trkpt>
      <trkpt lat="40.2412780" lon="-3.6801080">
        <ele>663.6</ele>
        <time>2019-04-28T16:06:58Z</time>
      </trkpt>
      <trkpt lat="40.2411910" lon="-3.6798180">
        <ele>664.4</ele>
        <time>2019-04-28T16:06:59Z</time>
      </trkpt>
      <trkpt lat="40.2410910" lon="-3.6795290">
        <ele>665.6</ele>
        <time>2019-04-28T16:07:00Z</time>
      </trkpt>
      <trkpt lat="40.2409770" lon="-3.6792440">
        <ele>667.0</ele>
        <time>2019-04-28T16:07:01Z</time>
      </trkpt>
      <trkpt lat="40.2408490" lon="-3.6789650">
        <ele>668.0</ele>
        <time>2019-04-28T16:07:02Z</time>
      </trkpt>
      <trkpt lat="40.2407080" lon="-3.6786950">
        <ele>669.6</ele>
        <time>2019-04-28T16:07:03Z</time>
      </trkpt>
      <trkpt lat="40.2405570" lon="-3.6784350">
        <ele>670.8</ele>
        <time>2019-04-28T16:07:04Z</time>
      </trkpt>
      <trkpt lat="40.2403940" lon="-3.6781850">
        <ele>671.8</ele>
        <time>2019-04-28T16:07:05Z</time>
      </trkpt>
      <trkpt lat="40.2402240" lon="-3.6779450">
        <ele>672.8</ele>
        <time>2019-04-28T16:07:06Z</time>
      </trkpt>
      <trkpt lat="40.2400460" lon="-3.6777080">
        <ele>673.2</ele>
        <time>2019-04-28T16:07:07Z</time>
      </trkpt>
      <trkpt lat="40.2398700" lon="-3.6774690">
        <ele>673.8</ele>
        <time>2019-04-28T16:07:08Z</time>
      </trkpt>
      <trkpt lat="40.2396960" lon="-3.6772250">
        <ele>674.0</ele>
        <time>2019-04-28T16:07:09Z</time>
      </trkpt>
      <trkpt lat="40.2395250" lon="-3.6769740">
        <ele>674.0</ele>
        <time>2019-04-28T16:07:10Z</time>
      </trkpt>
      <trkpt lat="40.2393600" lon="-3.6767130">
        <ele>674.2</ele>
        <time>2019-04-28T16:07:11Z</time>
      </trkpt>
      <trkpt lat="40.2392020" lon="-3.6764430">
        <ele>674.0</ele>
        <time>2019-04-28T16:07:12Z</time>
      </trkpt>
      <trkpt lat="40.2390480" lon="-3.6761650">
        <ele>673.8</ele>
        <time>2019-04-28T16:07:13Z</time>
      </trkpt>
      <trkpt lat="40.2389150" lon="-3.6758700">
        <ele>673.0</ele>
        <time>2019-04-28T16:07:14Z</time>
      </trkpt>
      <trkpt lat="40.2387950" lon="-3.6755660">
        <ele>672.4</ele>
        <time>2019-04-28T16:07:15Z</time>
      </trkpt>
      <trkpt lat="40.2386880" lon="-3.6752540">
        <ele>672.0</ele>
        <time>2019-04-28T16:07:16Z</time>
      </trkpt>
      <trkpt lat="40.2385970" lon="-3.6749270">
        <ele>671.6</ele>
        <time>2019-04-28T16:07:17Z</time>
      </trkpt>
      <trkpt lat="40.2385000" lon="-3.6746050">
        <ele>671.2</ele>
        <time>2019-04-28T16:07:18Z</time>
      </trkpt>
      <trkpt lat="40.2383990" lon="-3.6742810">
        <ele>670.6</ele>
        <time>2019-04-28T16:07:19Z</time>
      </trkpt>
      <trkpt lat="40.2383020" lon="-3.6739510">
        <ele>670.4</ele>
        <time>2019-04-28T16:07:20Z</time>
      </trkpt>
      <trkpt lat="40.2382030" lon="-3.6736180">
        <ele>669.8</ele>
        <time>2019-04-28T16:07:21Z</time>
      </trkpt>
      <trkpt lat="40.2381040" lon="-3.6732810">
        <ele>669.2</ele>
        <time>2019-04-28T16:07:22Z</time>
      </trkpt>
      <trkpt lat="40.2380050" lon="-3.6729420">
        <ele>669.0</ele>
        <time>2019-04-28T16:07:23Z</time>
      </trkpt>
      <trkpt lat="40.2379070" lon="-3.6726000">
        <ele>668.6</ele>
        <time>2019-04-28T16:07:24Z</time>
      </trkpt>
      <trkpt lat="40.2378090" lon="-3.6722570">
        <ele>668.0</ele>
        <time>2019-04-28T16:07:25Z</time>
      </trkpt>
      <trkpt lat="40.2377120" lon="-3.6719120">
        <ele>667.4</ele>
        <time>2019-04-28T16:07:26Z</time>
      </trkpt>
      <trkpt lat="40.2376170" lon="-3.6715650">
        <ele>667.0</ele>
        <time>2019-04-28T16:07:27Z</time>
      </trkpt>
      <trkpt lat="40.2375240" lon="-3.6712160">
        <ele>666.6</ele>
        <time>2019-04-28T16:07:28Z</time>
      </trkpt>
      <trkpt lat="40.2374310" lon="-3.6708650">
        <ele>666.6</ele>
        <time>2019-04-28T16:07:29Z</time>
      </trkpt>
      <trkpt lat="40.2373410" lon="-3.6705120">
        <ele>666.4</ele>
        <time>2019-04-28T16:07:30Z</time>
      </trkpt>
      <trkpt lat="40.2372540" lon="-3.6701560">
        <ele>666.0</ele>
        <time>2019-04-28T16:07:31Z</time>
      </trkpt>
      <trkpt lat="40.2371710" lon="-3.6697980">
        <ele>665.4</ele>
        <time>2019-04-28T16:07:32Z</time>
      </trkpt>
      <trkpt lat="40.2370900" lon="-3.6694380">
        <ele>665.0</ele>
        <time>2019-04-28T16:07:33Z</time>
      </trkpt>
      <trkpt lat="40.2370140" lon="-3.6690760">
        <ele>664.4</ele>
        <time>2019-04-28T16:07:34Z</time>
      </trkpt>
      <trkpt lat="40.2369450" lon="-3.6687130">
        <ele>664.2</ele>
        <time>2019-04-28T16:07:35Z</time>
      </trkpt>
      <trkpt lat="40.2368790" lon="-3.6683480">
        <ele>663.8</ele>
        <time>2019-04-28T16:07:36Z</time>
      </trkpt>
      <trkpt lat="40.2368150" lon="-3.6679870">
        <ele>662.8</ele>
        <time>2019-04-28T16:07:37Z</time>
      </trkpt>
      <trkpt lat="40.2367490" lon="-3.6676280">
        <ele>662.2</ele>
        <time>2019-04-28T16:07:38Z</time>
      </trkpt>
      <trkpt lat="40.2366750" lon="-3.6672760">
        <ele>661.8</ele>
        <time>2019-04-28T16:07:39Z</time>
      </trkpt>
      <trkpt lat="40.2365860" lon="-3.6669310">
        <ele>661.2</ele>
        <time>2019-04-28T16:07:40Z</time>
      </trkpt>
      <trkpt lat="40.2364810" lon="-3.6665940">
        <ele>661.0</ele>
        <time>2019-04-28T16:07:41Z</time>
      </trkpt>
      <trkpt lat="40.2363590" lon="-3.6662640">
        <ele>660.6</ele>
        <time>2019-04-28T16:07:42Z</time>
      </trkpt>
      <trkpt lat="40.2362220" lon="-3.6659450">
        <ele>660.0</ele>
        <time>2019-04-28T16:07:43Z</time>
      </trkpt>
      <trkpt lat="40.2360720" lon="-3.6656360">
        <ele>659.6</ele>
        <time>2019-04-28T16:07:44Z</time>
      </trkpt>
      <trkpt lat="40.2359090" lon="-3.6653360">
        <ele>659.4</ele>
        <time>2019-04-28T16:07:45Z</time>
      </trkpt>
      <trkpt lat="40.2357360" lon="-3.6650440">
        <ele>659.0</ele>
        <time>2019-04-28T16:07:46Z</time>
      </trkpt>
      <trkpt lat="40.2355590" lon="-3.6647540">
        <ele>658.4</ele>
        <time>2019-04-28T16:07:47Z</time>
      </trkpt>
      <trkpt lat="40.2353850" lon="-3.6644610">
        <ele>658.0</ele>
        <time>2019-04-28T16:07:48Z</time>
      </trkpt>
      <trkpt lat="40.2352130" lon="-3.6641640">
        <ele>657.6</ele>
        <time>2019-04-28T16:07:49Z</time>
      </trkpt>
      <trkpt lat="40.2350450" lon="-3.6638620">
        <ele>657.8</ele>
        <time>2019-04-28T16:07:50Z</time>
      </trkpt>
      <trkpt lat="40.2348900" lon="-3.6635490">
        <ele>657.2</ele>
        <time>2019-04-28T16:07:51Z</time>
      </trkpt>
      <trkpt lat="40.2347500" lon="-3.6632270">
        <ele>656.8</ele>
        <time>2019-04-28T16:07:52Z</time>
      </trkpt>
      <trkpt lat="40.2346200" lon="-3.6628960">
        <ele>656.4</ele>
        <time>2019-04-28T16:07:53Z</time>
      </trkpt>
      <trkpt lat="40.2345000" lon="-3.6625580">
        <ele>656.0</ele>
        <time>2019-04-28T16:07:54Z</time>
      </trkpt>
      <trkpt lat="40.2343870" lon="-3.6622120">
        <ele>655.6</ele>
        <time>2019-04-28T16:07:55Z</time>
      </trkpt>
      <trkpt lat="40.2342740" lon="-3.6618670">
        <ele>654.8</ele>
        <time>2019-04-28T16:07:56Z</time>
      </trkpt>
      <trkpt lat="40.2341580" lon="-3.6615240">
        <ele>654.4</ele>
        <time>2019-04-28T16:07:57Z</time>
      </trkpt>
      <trkpt lat="40.2340350" lon="-3.6611850">
        <ele>653.8</ele>
        <time>2019-04-28T16:07:58Z</time>
      </trkpt>
      <trkpt lat="40.2339010" lon="-3.6608520">
        <ele>653.4</ele>
        <time>2019-04-28T16:07:59Z</time>
      </trkpt>
      <trkpt lat="40.2337570" lon="-3.6605250">
        <ele>653.2</ele>
        <time>2019-04-28T16:08:00Z</time>
      </trkpt>
      <trkpt lat="40.2336110" lon="-3.6601990">
        <ele>652.8</ele>
        <time>2019-04-28T16:08:01Z</time>
      </trkpt>
      <trkpt lat="40.2334650" lon="-3.6598720">
        <ele>652.4</ele>
        <time>2019-04-28T16:08:02Z</time>
      </trkpt>
      <trkpt lat="40.2333090" lon="-3.6595500">
        <ele>652.2</ele>
        <time>2019-04-28T16:08:03Z</time>
      </trkpt>
      <trkpt lat="40.2331580" lon="-3.6592260">
        <ele>652.0</ele>
        <time>2019-04-28T16:08:04Z</time>
      </trkpt>
      <trkpt lat="40.2330080" lon="-3.6589010">
        <ele>651.6</ele>
        <time>2019-04-28T16:08:05Z</time>
      </trkpt>
      <trkpt lat="40.2328610" lon="-3.6585740">
        <ele>651.2</ele>
        <time>2019-04-28T16:08:06Z</time>
      </trkpt>
      <trkpt lat="40.2327200" lon="-3.6582440">
        <ele>651.2</ele>
        <time>2019-04-28T16:08:07Z</time>
      </trkpt>
      <trkpt lat="40.2325850" lon="-3.6579080">
        <ele>651.0</ele>
        <time>2019-04-28T16:08:08Z</time>
      </trkpt>
      <trkpt lat="40.2324620" lon="-3.6575660">
        <ele>650.8</ele>
        <time>2019-04-28T16:08:09Z</time>
      </trkpt>
      <trkpt lat="40.2323530" lon="-3.6572160">
        <ele>650.4</ele>
        <time>2019-04-28T16:08:10Z</time>
      </trkpt>
      <trkpt lat="40.2322510" lon="-3.6568640">
        <ele>650.0</ele>
        <time>2019-04-28T16:08:11Z</time>
      </trkpt>
      <trkpt lat="40.2321650" lon="-3.6565050">
        <ele>649.8</ele>
        <time>2019-04-28T16:08:12Z</time>
      </trkpt>
      <trkpt lat="40.2320840" lon="-3.6561450">
        <ele>649.8</ele>
        <time>2019-04-28T16:08:13Z</time>
      </trkpt>
      <trkpt lat="40.2320090" lon="-3.6557840">
        <ele>649.6</ele>
        <time>2019-04-28T16:08:14Z</time>
      </trkpt>
      <trkpt lat="40.2319400" lon="-3.6554220">
        <ele>649.4</ele>
        <time>2019-04-28T16:08:15Z</time>
      </trkpt>
      <trkpt lat="40.2318750" lon="-3.6550620">
        <ele>649.2</ele>
        <time>2019-04-28T16:08:16Z</time>
      </trkpt>
      <trkpt lat="40.2318080" lon="-3.6547020">
        <ele>649.0</ele>
        <time>2019-04-28T16:08:17Z</time>
      </trkpt>
      <trkpt lat="40.2317410" lon="-3.6543460">
        <ele>649.0</ele>
        <time>2019-04-28T16:08:18Z</time>
      </trkpt>
      <trkpt lat="40.2316740" lon="-3.6539920">
        <ele>649.0</ele>
        <time>2019-04-28T16:08:19Z</time>
      </trkpt>
      <trkpt lat="40.2316040" lon="-3.6536410">
        <ele>648.8</ele>
        <time>2019-04-28T16:08:20Z</time>
      </trkpt>
      <trkpt lat="40.2315350" lon="-3.6532910">
        <ele>648.8</ele>
        <time>2019-04-28T16:08:21Z</time>
      </trkpt>
      <trkpt lat="40.2314620" lon="-3.6529430">
        <ele>648.4</ele>
        <time>2019-04-28T16:08:22Z</time>
      </trkpt>
      <trkpt lat="40.2313880" lon="-3.6525960">
        <ele>648.2</ele>
        <time>2019-04-28T16:08:23Z</time>
      </trkpt>
      <trkpt lat="40.2313120" lon="-3.6522480">
        <ele>647.8</ele>
        <time>2019-04-28T16:08:24Z</time>
      </trkpt>
      <trkpt lat="40.2312350" lon="-3.6519010">
        <ele>647.4</ele>
        <time>2019-04-28T16:08:25Z</time>
      </trkpt>
      <trkpt lat="40.2311560" lon="-3.6515530">
        <ele>647.0</ele>
        <time>2019-04-28T16:08:26Z</time>
      </trkpt>
      <trkpt lat="40.2310790" lon="-3.6512050">
        <ele>646.6</ele>
        <time>2019-04-28T16:08:27Z</time>
      </trkpt>
      <trkpt lat="40.2310020" lon="-3.6508550">
        <ele>646.4</ele>
        <time>2019-04-28T16:08:28Z</time>
      </trkpt>
      <trkpt lat="40.2309230" lon="-3.6505060">
        <ele>646.2</ele>
        <time>2019-04-28T16:08:29Z</time>
      </trkpt>
      <trkpt lat="40.2308440" lon="-3.6501560">
        <ele>646.0</ele>
        <time>2019-04-28T16:08:30Z</time>
      </trkpt>
      <trkpt lat="40.2307630" lon="-3.6498060">
        <ele>646.0</ele>
        <time>2019-04-28T16:08:31Z</time>
      </trkpt>
      <trkpt lat="40.2306760" lon="-3.6494580">
        <ele>646.2</ele>
        <time>2019-04-28T16:08:32Z</time>
      </trkpt>
      <trkpt lat="40.2305870" lon="-3.6491130">
        <ele>646.0</ele>
        <time>2019-04-28T16:08:33Z</time>
      </trkpt>
      <trkpt lat="40.2304910" lon="-3.6487690">
        <ele>645.6</ele>
        <time>2019-04-28T16:08:34Z</time>
      </trkpt>
      <trkpt lat="40.2303900" lon="-3.6484260">
        <ele>645.4</ele>
        <time>2019-04-28T16:08:35Z</time>
      </trkpt>
      <trkpt lat="40.2302850" lon="-3.6480830">
        <ele>645.2</ele>
        <time>2019-04-28T16:08:36Z</time>
      </trkpt>
      <trkpt lat="40.2301790" lon="-3.6477380">
        <ele>645.2</ele>
        <time>2019-04-28T16:08:37Z</time>
      </trkpt>
      <trkpt lat="40.2300720" lon="-3.6473950">
        <ele>645.2</ele>
        <time>2019-04-28T16:08:38Z</time>
      </trkpt>
      <trkpt lat="40.2299660" lon="-3.6470500">
        <ele>644.8</ele>
        <time>2019-04-28T16:08:39Z</time>
      </trkpt>
      <trkpt lat="40.2298610" lon="-3.6467080">
        <ele>644.6</ele>
        <time>2019-04-28T16:08:40Z</time>
      </trkpt>
      <trkpt lat="40.2297560" lon="-3.6463700">
        <ele>644.6</ele>
        <time>2019-04-28T16:08:41Z</time>
      </trkpt>
      <trkpt lat="40.2296530" lon="-3.6460370">
        <ele>644.8</ele>
        <time>2019-04-28T16:08:42Z</time>
      </trkpt>
      <trkpt lat="40.2295510" lon="-3.6457080">
        <ele>645.0</ele>
        <time>2019-04-28T16:08:43Z</time>
      </trkpt>
      <trkpt lat="40.2294550" lon="-3.6453870">
        <ele>645.4</ele>
        <time>2019-04-28T16:08:44Z</time>
      </trkpt>
      <trkpt lat="40.2293620" lon="-3.6450760">
        <ele>645.4</ele>
        <time>2019-04-28T16:08:45Z</time>
      </trkpt>
      <trkpt lat="40.2292720" lon="-3.6447830">
        <ele>644.8</ele>
        <time>2019-04-28T16:08:46Z</time>
      </trkpt>
      <trkpt lat="40.2291860" lon="-3.6445100">
        <ele>644.2</ele>
        <time>2019-04-28T16:08:47Z</time>
      </trkpt>
      <trkpt lat="40.2290990" lon="-3.6442560">
        <ele>644.0</ele>
        <time>2019-04-28T16:08:48Z</time>
      </trkpt>
      <trkpt lat="40.2290070" lon="-3.6440220">
        <ele>643.8</ele>
        <time>2019-04-28T16:08:49Z</time>
      </trkpt>
      <trkpt lat="40.2289090" lon="-3.6438060">
        <ele>643.8</ele>
        <time>2019-04-28T16:08:50Z</time>
      </trkpt>
      <trkpt lat="40.2288120" lon="-3.6436100">
        <ele>643.8</ele>
        <time>2019-04-28T16:08:51Z</time>
      </trkpt>
      <trkpt lat="40.2287160" lon="-3.6434330">
        <ele>643.8</ele>
        <time>2019-04-28T16:08:52Z</time>
      </trkpt>
      <trkpt lat="40.2286240" lon="-3.6432690">
        <ele>644.0</ele>
        <time>2019-04-28T16:08:53Z</time>
      </trkpt>
      <trkpt lat="40.2285360" lon="-3.6431180">
        <ele>644.0</ele>
        <time>2019-04-28T16:08:54Z</time>
      </trkpt>
      <trkpt lat="40.2284520" lon="-3.6429800">
        <ele>644.0</ele>
        <time>2019-04-28T16:08:55Z</time>
      </trkpt>
      <trkpt lat="40.2283700" lon="-3.6428650">
        <ele>643.8</ele>
        <time>2019-04-28T16:08:56Z</time>
      </trkpt>
      <trkpt lat="40.2282810" lon="-3.6427660">
        <ele>643.8</ele>
        <time>2019-04-28T16:08:57Z</time>
      </trkpt>
      <trkpt lat="40.2281860" lon="-3.6426740">
        <ele>644.2</ele>
        <time>2019-04-28T16:08:58Z</time>
      </trkpt>
      <trkpt lat="40.2281020" lon="-3.6425650">
        <ele>644.2</ele>
        <time>2019-04-28T16:08:59Z</time>
      </trkpt>
      <trkpt lat="40.2280400" lon="-3.6424320">
        <ele>644.2</ele>
        <time>2019-04-28T16:09:00Z</time>
      </trkpt>
      <trkpt lat="40.2279970" lon="-3.6422850">
        <ele>644.6</ele>
        <time>2019-04-28T16:09:01Z</time>
      </trkpt>
      <trkpt lat="40.2279500" lon="-3.6421370">
        <ele>645.0</ele>
        <time>2019-04-28T16:09:02Z</time>
      </trkpt>
      <trkpt lat="40.2278840" lon="-3.6419850">
        <ele>645.4</ele>
        <time>2019-04-28T16:09:03Z</time>
      </trkpt>
      <trkpt lat="40.2278030" lon="-3.6418310">
        <ele>645.8</ele>
        <time>2019-04-28T16:09:04Z</time>
      </trkpt>
      <trkpt lat="40.2277150" lon="-3.6416680">
        <ele>646.0</ele>
        <time>2019-04-28T16:09:05Z</time>
      </trkpt>
      <trkpt lat="40.2276190" lon="-3.6414910">
        <ele>646.4</ele>
        <time>2019-04-28T16:09:06Z</time>
      </trkpt>
      <trkpt lat="40.2275180" lon="-3.6413050">
        <ele>646.6</ele>
        <time>2019-04-28T16:09:07Z</time>
      </trkpt>
      <trkpt lat="40.2274150" lon="-3.6411080">
        <ele>646.8</ele>
        <time>2019-04-28T16:09:08Z</time>
      </trkpt>
      <trkpt lat="40.2273110" lon="-3.6409050">
        <ele>647.0</ele>
        <time>2019-04-28T16:09:09Z</time>
      </trkpt>
      <trkpt lat="40.2272070" lon="-3.6406980">
        <ele>647.4</ele>
        <time>2019-04-28T16:09:10Z</time>
      </trkpt>
      <trkpt lat="40.2271110" lon="-3.6404850">
        <ele>647.8</ele>
        <time>2019-04-28T16:09:11Z</time>
      </trkpt>
      <trkpt lat="40.2270300" lon="-3.6402540">
        <ele>648.2</ele>
        <time>2019-04-28T16:09:12Z</time>
      </trkpt>
      <trkpt lat="40.2269680" lon="-3.6400090">
        <ele>648.4</ele>
        <time>2019-04-28T16:09:13Z</time>
      </trkpt>
      <trkpt lat="40.2269230" lon="-3.6397510">
        <ele>648.8</ele>
        <time>2019-04-28T16:09:14Z</time>
      </trkpt>
      <trkpt lat="40.2268950" lon="-3.6394830">
        <ele>649.0</ele>
        <time>2019-04-28T16:09:15Z</time>
      </trkpt>
      <trkpt lat="40.2268760" lon="-3.6392110">
        <ele>649.2</ele>
        <time>2019-04-28T16:09:16Z</time>
      </trkpt>
      <trkpt lat="40.2268640" lon="-3.6389400">
        <ele>649.2</ele>
        <time>2019-04-28T16:09:17Z</time>
      </trkpt>
      <trkpt lat="40.2268700" lon="-3.6386610">
        <ele>649.4</ele>
        <time>2019-04-28T16:09:18Z</time>
      </trkpt>
      <trkpt lat="40.2268800" lon="-3.6383850">
        <ele>649.4</ele>
        <time>2019-04-28T16:09:19Z</time>
      </trkpt>
      <trkpt lat="40.2268900" lon="-3.6381070">
        <ele>649.6</ele>
        <time>2019-04-28T16:09:20Z</time>
      </trkpt>
      <trkpt lat="40.2269030" lon="-3.6378240">
        <ele>649.8</ele>
        <time>2019-04-28T16:09:21Z</time>
      </trkpt>
      <trkpt lat="40.2269150" lon="-3.6375370">
        <ele>650.0</ele>
        <time>2019-04-28T16:09:22Z</time>
      </trkpt>
      <trkpt lat="40.2269300" lon="-3.6372470">
        <ele>650.0</ele>
        <time>2019-04-28T16:09:23Z</time>
      </trkpt>
      <trkpt lat="40.2269430" lon="-3.6369560">
        <ele>650.2</ele>
        <time>2019-04-28T16:09:24Z</time>
      </trkpt>
      <trkpt lat="40.2269570" lon="-3.6366630">
        <ele>650.4</ele>
        <time>2019-04-28T16:09:25Z</time>
      </trkpt>
      <trkpt lat="40.2269710" lon="-3.6363710">
        <ele>650.8</ele>
        <time>2019-04-28T16:09:26Z</time>
      </trkpt>
      <trkpt lat="40.2269860" lon="-3.6360810">
        <ele>650.4</ele>
        <time>2019-04-28T16:09:27Z</time>
      </trkpt>
      <trkpt lat="40.2270000" lon="-3.6357910">
        <ele>650.0</ele>
        <time>2019-04-28T16:09:28Z</time>
      </trkpt>
    </trkseg>
  </trk>
</gpx>
